<?xml version='1.0' encoding='UTF-8'?><gpx version="1.1" creator="JPX - https://github.com/jenetics/jpx" xmlns="http://www.topografix.com/GPX/1/1"><trk><trkseg><trkpt lat="37.016786556381405" lon="-4.559852582921862"><ele>521.0</ele><time>2026-04-23T11:45:01Z</time></trkpt><trkpt lat="37.016736086509944" lon="-4.5598041393699"><ele>521.0</ele><time>2026-04-23T11:45:13Z</time></trkpt><trkpt lat="37.01665920711737" lon="-4.559752614308237"><ele>521.0</ele><time>2026-04-23T11:45:18Z</time></trkpt><trkpt lat="37.01657486989503" lon="-4.559690384844096"><ele>521.0</ele><time>2026-04-23T11:45:21Z</time></trkpt><trkpt lat="37.016520802393025" lon="-4.559636666732101"><ele>521.0</ele><time>2026-04-23T11:45:23Z</time></trkpt><trkpt lat="37.016449744503745" lon="-4.559571891052086"><ele>521.0</ele><time>2026-04-23T11:45:26Z</time></trkpt><trkpt lat="37.016399610854855" lon="-4.559520367329139"><ele>521.1666666666666</ele><time>2026-04-23T11:45:28Z</time></trkpt><trkpt lat="37.01631949516311" lon="-4.559467577901986"><ele>521.3333333333333</ele><time>2026-04-23T11:45:31Z</time></trkpt><trkpt lat="37.01624757694634" lon="-4.559403926848688"><ele>521.5</ele><time>2026-04-23T11:45:34Z</time></trkpt><trkpt lat="37.01622483669788" lon="-4.559326355728458"><ele>521.6666666666666</ele><time>2026-04-23T11:45:37Z</time></trkpt><trkpt lat="37.01622281584458" lon="-4.559232395404401"><ele>521.8333333333334</ele><time>2026-04-23T11:45:40Z</time></trkpt><trkpt lat="37.01618431722314" lon="-4.559156903382683"><ele>522.0</ele><time>2026-04-23T11:45:42Z</time></trkpt><trkpt lat="37.01612619231197" lon="-4.5590874802947585"><ele>522.0</ele><time>2026-04-23T11:45:44Z</time></trkpt><trkpt lat="37.01606100914937" lon="-4.559002659776107"><ele>522.0</ele><time>2026-04-23T11:45:46Z</time></trkpt><trkpt lat="37.015993151183984" lon="-4.5589125627393905"><ele>522.0</ele><time>2026-04-23T11:45:48Z</time></trkpt><trkpt lat="37.01590731152713" lon="-4.5588132592156665"><ele>522.0</ele><time>2026-04-23T11:45:50Z</time></trkpt><trkpt lat="37.01583084470034" lon="-4.5587366836005945"><ele>522.0</ele><time>2026-04-23T11:45:52Z</time></trkpt><trkpt lat="37.01576754546347" lon="-4.558663206118986"><ele>525.0</ele><time>2026-04-23T11:45:54Z</time></trkpt><trkpt lat="37.015710331805415" lon="-4.558592048414252"><ele>528.0</ele><time>2026-04-23T11:45:56Z</time></trkpt><trkpt lat="37.01565168698746" lon="-4.558541236405436"><ele>531.0</ele><time>2026-04-23T11:45:58Z</time></trkpt><trkpt lat="37.01557678057342" lon="-4.558635227921377"><ele>534.0</ele><time>2026-04-23T11:46:01Z</time></trkpt><trkpt lat="37.015504120507764" lon="-4.558759411941105"><ele>537.0</ele><time>2026-04-23T11:46:03Z</time></trkpt><trkpt lat="37.01545699759722" lon="-4.558895466888901"><ele>537.0</ele><time>2026-04-23T11:46:05Z</time></trkpt><trkpt lat="37.01539651787368" lon="-4.559006225284656"><ele>537.0</ele><time>2026-04-23T11:46:07Z</time></trkpt><trkpt lat="37.015336695313025" lon="-4.5591024800271756"><ele>537.0</ele><time>2026-04-23T11:46:09Z</time></trkpt><trkpt lat="37.01528732777681" lon="-4.5592151054083265"><ele>537.0</ele><time>2026-04-23T11:46:11Z</time></trkpt><trkpt lat="37.015222570682596" lon="-4.559320453306366"><ele>537.0</ele><time>2026-04-23T11:46:13Z</time></trkpt><trkpt lat="37.015135448622985" lon="-4.559394571599459"><ele>537.0</ele><time>2026-04-23T11:46:15Z</time></trkpt><trkpt lat="37.01505871387403" lon="-4.559418511287272"><ele>537.0</ele><time>2026-04-23T11:46:17Z</time></trkpt><trkpt lat="37.01504503735532" lon="-4.559275348075929"><ele>537.0</ele><time>2026-04-23T11:46:20Z</time></trkpt><trkpt lat="37.01506288516035" lon="-4.559160125707511"><ele>537.0</ele><time>2026-04-23T11:46:22Z</time></trkpt><trkpt lat="37.015082064759376" lon="-4.559040026052361"><ele>537.0</ele><time>2026-04-23T11:46:24Z</time></trkpt><trkpt lat="37.0150887284647" lon="-4.55890705871233"><ele>537.0</ele><time>2026-04-23T11:46:26Z</time></trkpt><trkpt lat="37.015095891263215" lon="-4.558779792891607"><ele>537.0</ele><time>2026-04-23T11:46:28Z</time></trkpt><trkpt lat="37.015099864101515" lon="-4.55863321744371"><ele>537.0</ele><time>2026-04-23T11:46:30Z</time></trkpt><trkpt lat="37.01510424456635" lon="-4.558466479267588"><ele>537.0</ele><time>2026-04-23T11:46:32Z</time></trkpt><trkpt lat="37.01509787665423" lon="-4.558365826779618"><ele>537.0</ele><time>2026-04-23T11:46:33Z</time></trkpt><trkpt lat="37.01509935902961" lon="-4.5582676093846155"><ele>537.8333333333334</ele><time>2026-04-23T11:46:34Z</time></trkpt><trkpt lat="37.01510196556577" lon="-4.558164426268555"><ele>538.6666666666666</ele><time>2026-04-23T11:46:34.998Z</time></trkpt><trkpt lat="37.01510174353207" lon="-4.558065814604095"><ele>539.5</ele><time>2026-04-23T11:46:35.998Z</time></trkpt><trkpt lat="37.01511483388144" lon="-4.557982142459276"><ele>540.3333333333333</ele><time>2026-04-23T11:46:36.998Z</time></trkpt><trkpt lat="37.01512912673924" lon="-4.557896082719317"><ele>541.1666666666666</ele><time>2026-04-23T11:46:37.998Z</time></trkpt><trkpt lat="37.01515128831205" lon="-4.557809687591554"><ele>542.0</ele><time>2026-04-23T11:46:38.998Z</time></trkpt><trkpt lat="37.015212643176405" lon="-4.55774214932414"><ele>543.2</ele><time>2026-04-23T11:46:39.998Z</time></trkpt><trkpt lat="37.01523171465162" lon="-4.557646846572589"><ele>544.4000000000001</ele><time>2026-04-23T11:46:40.998Z</time></trkpt><trkpt lat="37.015280078651756" lon="-4.557500440913835"><ele>545.5999999999999</ele><time>2026-04-23T11:46:42.998Z</time></trkpt><trkpt lat="37.01529295359804" lon="-4.55739174371476"><ele>546.8</ele><time>2026-04-23T11:46:44.998Z</time></trkpt><trkpt lat="37.015305002516314" lon="-4.557277181655107"><ele>548.0</ele><time>2026-04-23T11:46:46.998Z</time></trkpt><trkpt lat="37.015327158080495" lon="-4.557177011229086"><ele>548.0</ele><time>2026-04-23T11:46:48.998Z</time></trkpt><trkpt lat="37.015350034757255" lon="-4.557091070035208"><ele>548.0</ele><time>2026-04-23T11:46:51.998Z</time></trkpt><trkpt lat="37.01538361032865" lon="-4.557019930806421"><ele>548.0</ele><time>2026-04-23T11:46:55.999Z</time></trkpt><trkpt lat="37.01540194033992" lon="-4.5569193255231175"><ele>548.0</ele><time>2026-04-23T11:47:38.999Z</time></trkpt><trkpt lat="37.01541750003676" lon="-4.556836641138965"><ele>548.0</ele><time>2026-04-23T11:47:40.999Z</time></trkpt><trkpt lat="37.01545356330927" lon="-4.556727228274596"><ele>548.0</ele><time>2026-04-23T11:47:42.999Z</time></trkpt><trkpt lat="37.01547508445053" lon="-4.556594744392334"><ele>548.3333333333333</ele><time>2026-04-23T11:47:44.999Z</time></trkpt><trkpt lat="37.01548671374775" lon="-4.556481807504621"><ele>548.6666666666666</ele><time>2026-04-23T11:47:46.999Z</time></trkpt><trkpt lat="37.01547171436242" lon="-4.556381722534709"><ele>549.0</ele><time>2026-04-23T11:47:48.999Z</time></trkpt><trkpt lat="37.015480713165616" lon="-4.556266295108304"><ele>549.3333333333334</ele><time>2026-04-23T11:47:52.999Z</time></trkpt><trkpt lat="37.015485467938916" lon="-4.55614465273429"><ele>549.6666666666667</ele><time>2026-04-23T11:47:55.999Z</time></trkpt><trkpt lat="37.01548757300285" lon="-4.556053291405726"><ele>550.0</ele><time>2026-04-23T11:47:57.999Z</time></trkpt><trkpt lat="37.01549053493922" lon="-4.555958424811594"><ele>548.0</ele><time>2026-04-23T11:48:00.999Z</time></trkpt><trkpt lat="37.015508222719546" lon="-4.555877447676596"><ele>546.0</ele><time>2026-04-23T11:48:03.999Z</time></trkpt><trkpt lat="37.01552437132273" lon="-4.555766696084043"><ele>544.0</ele><time>2026-04-23T11:48:06.999Z</time></trkpt><trkpt lat="37.015546862884364" lon="-4.5556488771203565"><ele>542.0</ele><time>2026-04-23T11:48:09.999Z</time></trkpt><trkpt lat="37.0155407842151" lon="-4.555562177047328"><ele>540.0</ele><time>2026-04-23T11:48:11.999Z</time></trkpt><trkpt lat="37.01554934469958" lon="-4.5554707218876"><ele>538.0</ele><time>2026-04-23T11:48:13.999Z</time></trkpt><trkpt lat="37.015560502571404" lon="-4.555383820219221"><ele>534.0</ele><time>2026-04-23T11:48:15.999Z</time></trkpt><trkpt lat="37.0155539707387" lon="-4.555303386581407"><ele>530.0</ele><time>2026-04-23T11:48:17.999Z</time></trkpt><trkpt lat="37.015500112336724" lon="-4.5552064912387005"><ele>526.0</ele><time>2026-04-23T11:48:20.999Z</time></trkpt><trkpt lat="37.01541861266662" lon="-4.55518633306449"><ele>522.0</ele><time>2026-04-23T11:48:22.999Z</time></trkpt><trkpt lat="37.01534775262561" lon="-4.555192976484911"><ele>518.0</ele><time>2026-04-23T11:48:24.999Z</time></trkpt><trkpt lat="37.0152818151133" lon="-4.555148957076004"><ele>514.0</ele><time>2026-04-23T11:48:26.999Z</time></trkpt><trkpt lat="37.01519494680952" lon="-4.555198237940294"><ele>514.0</ele><time>2026-04-23T11:48:28.999Z</time></trkpt><trkpt lat="37.01508646639976" lon="-4.5552468352853"><ele>514.0</ele><time>2026-04-23T11:48:30.999Z</time></trkpt><trkpt lat="37.014982840841775" lon="-4.5552905116231655"><ele>514.0</ele><time>2026-04-23T11:48:32.999Z</time></trkpt><trkpt lat="37.01488393801733" lon="-4.555331814697959"><ele>514.0</ele><time>2026-04-23T11:48:34.999Z</time></trkpt><trkpt lat="37.01478388857735" lon="-4.555385259610354"><ele>514.0</ele><time>2026-04-23T11:48:36.999Z</time></trkpt><trkpt lat="37.014694988785756" lon="-4.555417412412784"><ele>517.8333333333334</ele><time>2026-04-23T11:48:38.999Z</time></trkpt><trkpt lat="37.01462646605356" lon="-4.555453355878158"><ele>521.6666666666667</ele><time>2026-04-23T11:48:41.998Z</time></trkpt><trkpt lat="37.01454706236278" lon="-4.555461675279512"><ele>525.5</ele><time>2026-04-23T11:48:50.998Z</time></trkpt><trkpt lat="37.01448018057276" lon="-4.555497836711921"><ele>529.3333333333334</ele><time>2026-04-23T11:48:52.998Z</time></trkpt><trkpt lat="37.01436526240076" lon="-4.5555363284503"><ele>533.1666666666666</ele><time>2026-04-23T11:48:54.998Z</time></trkpt><trkpt lat="37.014281148097815" lon="-4.555536169223"><ele>537.0</ele><time>2026-04-23T11:48:55.999Z</time></trkpt><trkpt lat="37.01419355807179" lon="-4.555545259174487"><ele>535.6666666666666</ele><time>2026-04-23T11:48:56.999Z</time></trkpt><trkpt lat="37.01410346046196" lon="-4.555563680366553"><ele>534.3333333333334</ele><time>2026-04-23T11:48:57.999Z</time></trkpt><trkpt lat="37.01401121203902" lon="-4.555578195416503"><ele>533.0</ele><time>2026-04-23T11:48:58.999Z</time></trkpt><trkpt lat="37.01392273109843" lon="-4.5555896078901865"><ele>531.6666666666667</ele><time>2026-04-23T11:48:59.999Z</time></trkpt><trkpt lat="37.01384924100798" lon="-4.555600610179844"><ele>530.3333333333334</ele><time>2026-04-23T11:49:00.999Z</time></trkpt><trkpt lat="37.0137840824601" lon="-4.555610255568296"><ele>529.0</ele><time>2026-04-23T11:49:01.999Z</time></trkpt><trkpt lat="37.0137163624927" lon="-4.555621760243165"><ele>529.0</ele><time>2026-04-23T11:49:02.999Z</time></trkpt><trkpt lat="37.013644875315414" lon="-4.555639836510897"><ele>529.0</ele><time>2026-04-23T11:49:03.999Z</time></trkpt><trkpt lat="37.01357230930161" lon="-4.5556607384485845"><ele>529.0</ele><time>2026-04-23T11:49:04.999Z</time></trkpt><trkpt lat="37.01349419911499" lon="-4.555682144025446"><ele>529.0</ele><time>2026-04-23T11:49:05.999Z</time></trkpt><trkpt lat="37.01341352824043" lon="-4.5557145286702365"><ele>529.0</ele><time>2026-04-23T11:49:06.999Z</time></trkpt><trkpt lat="37.01334328190761" lon="-4.555751759040932"><ele>529.0</ele><time>2026-04-23T11:49:07.999Z</time></trkpt><trkpt lat="37.01329193776739" lon="-4.555809923551326"><ele>529.0</ele><time>2026-04-23T11:49:16.999Z</time></trkpt><trkpt lat="37.01336674219157" lon="-4.5557676015090625"><ele>529.0</ele><time>2026-04-23T11:49:20.999Z</time></trkpt><trkpt lat="37.013571024407874" lon="-4.555858263826274"><ele>529.0</ele><time>2026-04-23T11:49:22.999Z</time></trkpt><trkpt lat="37.01367377865815" lon="-4.555867017448782"><ele>529.0</ele><time>2026-04-23T11:49:23.999Z</time></trkpt><trkpt lat="37.0137796880683" lon="-4.555852247467372"><ele>529.0</ele><time>2026-04-23T11:49:24.999Z</time></trkpt><trkpt lat="37.013878285164495" lon="-4.555864738628643"><ele>529.0</ele><time>2026-04-23T11:49:25.999Z</time></trkpt><trkpt lat="37.01396013404384" lon="-4.555892601952453"><ele>529.0</ele><time>2026-04-23T11:49:26.999Z</time></trkpt><trkpt lat="37.01402563600899" lon="-4.5559064237915585"><ele>529.0</ele><time>2026-04-23T11:49:27.999Z</time></trkpt><trkpt lat="37.014132653571295" lon="-4.555911966132619"><ele>529.0</ele><time>2026-04-23T11:49:29.999Z</time></trkpt><trkpt lat="37.01419931728057" lon="-4.555929692458462"><ele>529.0</ele><time>2026-04-23T11:49:33.999Z</time></trkpt><trkpt lat="37.01413467172931" lon="-4.555907074188559"><ele>529.0</ele><time>2026-04-23T11:49:55Z</time></trkpt><trkpt lat="37.0140609762541" lon="-4.555897791001903"><ele>529.0</ele><time>2026-04-23T11:49:58Z</time></trkpt><trkpt lat="37.013994637796465" lon="-4.555888596918846"><ele>529.0</ele><time>2026-04-23T11:50:01Z</time></trkpt><trkpt lat="37.013924000309444" lon="-4.555874192045102"><ele>529.0</ele><time>2026-04-23T11:50:05Z</time></trkpt><trkpt lat="37.013845751709646" lon="-4.555859491809301"><ele>529.0</ele><time>2026-04-23T11:50:08Z</time></trkpt><trkpt lat="37.013741565016616" lon="-4.555842879189101"><ele>529.0</ele><time>2026-04-23T11:50:10Z</time></trkpt><trkpt lat="37.0136957180545" lon="-4.555898170031269"><ele>529.0</ele><time>2026-04-23T11:50:11Z</time></trkpt><trkpt lat="37.013613848199725" lon="-4.555892939586043"><ele>529.0</ele><time>2026-04-23T11:50:13Z</time></trkpt><trkpt lat="37.01352850569172" lon="-4.555895675436937"><ele>529.0</ele><time>2026-04-23T11:50:15Z</time></trkpt><trkpt lat="37.01344340341164" lon="-4.555897462880323"><ele>529.0</ele><time>2026-04-23T11:50:17Z</time></trkpt><trkpt lat="37.013370072977516" lon="-4.55588129180981"><ele>529.0</ele><time>2026-04-23T11:50:20Z</time></trkpt><trkpt lat="37.01328839825392" lon="-4.555815764478031"><ele>529.0</ele><time>2026-04-23T11:50:23Z</time></trkpt><trkpt lat="37.01321013985546" lon="-4.555813788441283"><ele>526.5</ele><time>2026-04-23T11:50:26Z</time></trkpt><trkpt lat="37.01313739716645" lon="-4.555881603375595"><ele>524.0</ele><time>2026-04-23T11:50:28Z</time></trkpt><trkpt lat="37.013080037225585" lon="-4.555919443862967"><ele>521.5</ele><time>2026-04-23T11:50:31Z</time></trkpt><trkpt lat="37.01302194492568" lon="-4.555957236600818"><ele>519.0</ele><time>2026-04-23T11:50:33Z</time></trkpt><trkpt lat="37.012941051607854" lon="-4.556001594336275"><ele>516.5</ele><time>2026-04-23T11:50:35Z</time></trkpt><trkpt lat="37.01287092761682" lon="-4.556051210537457"><ele>514.0</ele><time>2026-04-23T11:50:37Z</time></trkpt><trkpt lat="37.01281588482689" lon="-4.556112746448122"><ele>514.0</ele><time>2026-04-23T11:50:39Z</time></trkpt><trkpt lat="37.01276877849535" lon="-4.556172195297054"><ele>514.0</ele><time>2026-04-23T11:50:41Z</time></trkpt><trkpt lat="37.0127155382948" lon="-4.556243230419656"><ele>514.0</ele><time>2026-04-23T11:50:43Z</time></trkpt><trkpt lat="37.01265896425148" lon="-4.556328557211466"><ele>514.0</ele><time>2026-04-23T11:50:45Z</time></trkpt><trkpt lat="37.01259147772688" lon="-4.556420151637239"><ele>514.0</ele><time>2026-04-23T11:50:46.999Z</time></trkpt><trkpt lat="37.01252455092121" lon="-4.556511722345036"><ele>514.0</ele><time>2026-04-23T11:50:48.999Z</time></trkpt><trkpt lat="37.01242923864146" lon="-4.556601352975256"><ele>514.6</ele><time>2026-04-23T11:50:50.999Z</time></trkpt><trkpt lat="37.0123205842415" lon="-4.556681808981172"><ele>515.2</ele><time>2026-04-23T11:50:52.999Z</time></trkpt><trkpt lat="37.01223787198385" lon="-4.55677933097023"><ele>515.8000000000001</ele><time>2026-04-23T11:50:54.999Z</time></trkpt><trkpt lat="37.01219919160623" lon="-4.556845597240273"><ele>516.4</ele><time>2026-04-23T11:50:55.999Z</time></trkpt><trkpt lat="37.012180913153216" lon="-4.557002302323963"><ele>517.0</ele><time>2026-04-23T11:50:57.999Z</time></trkpt><trkpt lat="37.01220612711821" lon="-4.557088936111424"><ele>517.8333333333334</ele><time>2026-04-23T11:50:58.999Z</time></trkpt><trkpt lat="37.01224436481046" lon="-4.557170962252669"><ele>518.6666666666667</ele><time>2026-04-23T11:50:59.999Z</time></trkpt><trkpt lat="37.01228731164139" lon="-4.557261628415905"><ele>519.5</ele><time>2026-04-23T11:51:00.999Z</time></trkpt><trkpt lat="37.0123138035083" lon="-4.5573558455994645"><ele>520.3333333333334</ele><time>2026-04-23T11:51:01.999Z</time></trkpt><trkpt lat="37.012322021993334" lon="-4.557447848582513"><ele>521.1666666666666</ele><time>2026-04-23T11:51:02.999Z</time></trkpt><trkpt lat="37.012324472528405" lon="-4.557585170070225"><ele>522.0</ele><time>2026-04-23T11:51:04.999Z</time></trkpt><trkpt lat="37.01228508588733" lon="-4.557669569613304"><ele>522.0</ele><time>2026-04-23T11:51:07.999Z</time></trkpt><trkpt lat="37.01223808362274" lon="-4.55760102780956"><ele>522.0</ele><time>2026-04-23T11:51:09.999Z</time></trkpt><trkpt lat="37.01219545437256" lon="-4.557452121509828"><ele>522.0</ele><time>2026-04-23T11:51:11.999Z</time></trkpt><trkpt lat="37.012160101984115" lon="-4.557373536535922"><ele>522.0</ele><time>2026-04-23T11:51:12.999Z</time></trkpt><trkpt lat="37.01212430611681" lon="-4.557299391578781"><ele>522.0</ele><time>2026-04-23T11:51:13.999Z</time></trkpt><trkpt lat="37.01208524643485" lon="-4.557231541607841"><ele>522.0</ele><time>2026-04-23T11:51:15Z</time></trkpt><trkpt lat="37.012021874121366" lon="-4.55711573007943"><ele>521.0</ele><time>2026-04-23T11:51:17Z</time></trkpt><trkpt lat="37.011928196817266" lon="-4.5570129818041245"><ele>520.0</ele><time>2026-04-23T11:51:19Z</time></trkpt><trkpt lat="37.011859614272765" lon="-4.556963836701041"><ele>519.0</ele><time>2026-04-23T11:51:20Z</time></trkpt><trkpt lat="37.01180580835733" lon="-4.556922586300798"><ele>518.0</ele><time>2026-04-23T11:51:21Z</time></trkpt><trkpt lat="37.01172459668517" lon="-4.556851457445677"><ele>517.0</ele><time>2026-04-23T11:51:23Z</time></trkpt><trkpt lat="37.01163208940448" lon="-4.556839616886441"><ele>519.8333333333334</ele><time>2026-04-23T11:51:25Z</time></trkpt><trkpt lat="37.01156188531635" lon="-4.556922949153574"><ele>522.6666666666667</ele><time>2026-04-23T11:51:27Z</time></trkpt><trkpt lat="37.011562793480046" lon="-4.557004413594765"><ele>525.5</ele><time>2026-04-23T11:51:28Z</time></trkpt><trkpt lat="37.01156062005627" lon="-4.557099385729008"><ele>528.3333333333334</ele><time>2026-04-23T11:51:29Z</time></trkpt><trkpt lat="37.01153886938438" lon="-4.55720326542172"><ele>531.1666666666666</ele><time>2026-04-23T11:51:30Z</time></trkpt><trkpt lat="37.01150313436709" lon="-4.557314084434069"><ele>534.0</ele><time>2026-04-23T11:51:31Z</time></trkpt><trkpt lat="37.011484767959196" lon="-4.557436771126133"><ele>534.4</ele><time>2026-04-23T11:51:32Z</time></trkpt><trkpt lat="37.01141715282343" lon="-4.557561445914423"><ele>534.8</ele><time>2026-04-23T11:51:33Z</time></trkpt><trkpt lat="37.0113646014944" lon="-4.557679939223095"><ele>535.2</ele><time>2026-04-23T11:51:34Z</time></trkpt><trkpt lat="37.01129901389358" lon="-4.557767038527144"><ele>535.6</ele><time>2026-04-23T11:51:35Z</time></trkpt><trkpt lat="37.0112517816708" lon="-4.557861350798243"><ele>536.0</ele><time>2026-04-23T11:51:36Z</time></trkpt><trkpt lat="37.0112217256404" lon="-4.557950210912753"><ele>536.0</ele><time>2026-04-23T11:51:37Z</time></trkpt><trkpt lat="37.01119696372397" lon="-4.558023122876521"><ele>536.0</ele><time>2026-04-23T11:51:38Z</time></trkpt><trkpt lat="37.01116757967732" lon="-4.558098132823555"><ele>536.0</ele><time>2026-04-23T11:51:39Z</time></trkpt><trkpt lat="37.011147369833076" lon="-4.558204853561825"><ele>536.0</ele><time>2026-04-23T11:51:41Z</time></trkpt><trkpt lat="37.01112089708941" lon="-4.558347991487994"><ele>536.0</ele><time>2026-04-23T11:51:43Z</time></trkpt><trkpt lat="37.01110589376286" lon="-4.558426497109024"><ele>536.0</ele><time>2026-04-23T11:51:44Z</time></trkpt><trkpt lat="37.01108628555275" lon="-4.558509675583426"><ele>536.0</ele><time>2026-04-23T11:51:45Z</time></trkpt><trkpt lat="37.01105902659353" lon="-4.558603320517768"><ele>536.0</ele><time>2026-04-23T11:51:46Z</time></trkpt><trkpt lat="37.011023790165424" lon="-4.558688393120667"><ele>536.0</ele><time>2026-04-23T11:51:47Z</time></trkpt><trkpt lat="37.01098353496388" lon="-4.558768172137285"><ele>536.0</ele><time>2026-04-23T11:51:48Z</time></trkpt><trkpt lat="37.01092925190272" lon="-4.558841833977536"><ele>536.0</ele><time>2026-04-23T11:51:49Z</time></trkpt><trkpt lat="37.010871126711464" lon="-4.558921396713709"><ele>536.0</ele><time>2026-04-23T11:51:50Z</time></trkpt><trkpt lat="37.010809956411734" lon="-4.559008909064084"><ele>540.0</ele><time>2026-04-23T11:51:51Z</time></trkpt><trkpt lat="37.010752364546896" lon="-4.5590782932956"><ele>544.0</ele><time>2026-04-23T11:51:52Z</time></trkpt><trkpt lat="37.01069738781818" lon="-4.559154678709516"><ele>548.0</ele><time>2026-04-23T11:51:53Z</time></trkpt><trkpt lat="37.01065206494279" lon="-4.559235370323242"><ele>552.0</ele><time>2026-04-23T11:51:54Z</time></trkpt><trkpt lat="37.01062930524187" lon="-4.55932983708588"><ele>556.0</ele><time>2026-04-23T11:51:55Z</time></trkpt><trkpt lat="37.01062927262024" lon="-4.559431457009138"><ele>560.0</ele><time>2026-04-23T11:51:56Z</time></trkpt><trkpt lat="37.01063172537674" lon="-4.5595444114028805"><ele>560.2</ele><time>2026-04-23T11:51:57Z</time></trkpt><trkpt lat="37.010645874482144" lon="-4.559654078447293"><ele>560.4</ele><time>2026-04-23T11:51:58Z</time></trkpt><trkpt lat="37.01067241513217" lon="-4.5597633773482125"><ele>560.6</ele><time>2026-04-23T11:51:59Z</time></trkpt><trkpt lat="37.010735895597804" lon="-4.5598509715298325"><ele>560.8</ele><time>2026-04-23T11:52:00Z</time></trkpt><trkpt lat="37.010788015413176" lon="-4.55994179152146"><ele>561.0</ele><time>2026-04-23T11:52:01Z</time></trkpt><trkpt lat="37.0108580191375" lon="-4.560004055236983"><ele>561.0</ele><time>2026-04-23T11:52:02Z</time></trkpt><trkpt lat="37.01092338458639" lon="-4.560053167595262"><ele>561.0</ele><time>2026-04-23T11:52:03Z</time></trkpt><trkpt lat="37.01102463561665" lon="-4.560101309718429"><ele>561.0</ele><time>2026-04-23T11:52:05Z</time></trkpt><trkpt lat="37.01108299350135" lon="-4.560161735887595"><ele>561.0</ele><time>2026-04-23T11:52:07Z</time></trkpt><trkpt lat="37.01115870896497" lon="-4.5601985148539494"><ele>561.0</ele><time>2026-04-23T11:52:12Z</time></trkpt><trkpt lat="37.01110917912878" lon="-4.560372894310972"><ele>561.0</ele><time>2026-04-23T11:52:15Z</time></trkpt><trkpt lat="37.01106727823017" lon="-4.560445909770501"><ele>561.0</ele><time>2026-04-23T11:52:16Z</time></trkpt><trkpt lat="37.01100302142018" lon="-4.560543395358629"><ele>561.0</ele><time>2026-04-23T11:52:18Z</time></trkpt><trkpt lat="37.010970412533325" lon="-4.5606281499627155"><ele>561.0</ele><time>2026-04-23T11:52:21Z</time></trkpt><trkpt lat="37.01093103621079" lon="-4.560751729667667"><ele>561.0</ele><time>2026-04-23T11:52:26Z</time></trkpt><trkpt lat="37.01080597424745" lon="-4.560739459182187"><ele>562.0</ele><time>2026-04-23T11:52:27Z</time></trkpt><trkpt lat="37.010718828699154" lon="-4.5607446453818685"><ele>563.0</ele><time>2026-04-23T11:52:28Z</time></trkpt><trkpt lat="37.01064341688946" lon="-4.560776832026315"><ele>564.0</ele><time>2026-04-23T11:52:29Z</time></trkpt><trkpt lat="37.010574056988304" lon="-4.560789746617237"><ele>565.0</ele><time>2026-04-23T11:52:30Z</time></trkpt><trkpt lat="37.01050486265377" lon="-4.560802630278889"><ele>566.0</ele><time>2026-04-23T11:52:31Z</time></trkpt><trkpt lat="37.01041951191075" lon="-4.5608038499450565"><ele>567.0</ele><time>2026-04-23T11:52:32Z</time></trkpt><trkpt lat="37.01033501031931" lon="-4.560794701953771"><ele>567.0</ele><time>2026-04-23T11:52:33Z</time></trkpt><trkpt lat="37.01024612376018" lon="-4.560775880552459"><ele>567.0</ele><time>2026-04-23T11:52:34Z</time></trkpt><trkpt lat="37.010157550143475" lon="-4.56074249129577"><ele>567.0</ele><time>2026-04-23T11:52:35Z</time></trkpt><trkpt lat="37.01007571424535" lon="-4.5606974806235705"><ele>567.0</ele><time>2026-04-23T11:52:36Z</time></trkpt><trkpt lat="37.00999754484918" lon="-4.560670822710021"><ele>567.0</ele><time>2026-04-23T11:52:37Z</time></trkpt><trkpt lat="37.00992030221798" lon="-4.560631746982223"><ele>567.0</ele><time>2026-04-23T11:52:38Z</time></trkpt><trkpt lat="37.009845817205345" lon="-4.5606003200837675"><ele>568.5</ele><time>2026-04-23T11:52:39Z</time></trkpt><trkpt lat="37.00977093350659" lon="-4.560567063835839"><ele>570.0</ele><time>2026-04-23T11:52:40.001Z</time></trkpt><trkpt lat="37.00969917651422" lon="-4.560535087541793"><ele>571.5</ele><time>2026-04-23T11:52:41.001Z</time></trkpt><trkpt lat="37.0096262200864" lon="-4.56050082714564"><ele>573.0</ele><time>2026-04-23T11:52:42.001Z</time></trkpt><trkpt lat="37.00954770243596" lon="-4.560471438840433"><ele>574.5</ele><time>2026-04-23T11:52:43.001Z</time></trkpt><trkpt lat="37.00947163857704" lon="-4.5604398038231135"><ele>576.0</ele><time>2026-04-23T11:52:44.001Z</time></trkpt><trkpt lat="37.00939732783052" lon="-4.5604033686494185"><ele>575.1666666666666</ele><time>2026-04-23T11:52:45.001Z</time></trkpt><trkpt lat="37.009317855765474" lon="-4.560365932954485"><ele>574.3333333333334</ele><time>2026-04-23T11:52:46.001Z</time></trkpt><trkpt lat="37.009236377573956" lon="-4.560327404365235"><ele>573.5</ele><time>2026-04-23T11:52:47.001Z</time></trkpt><trkpt lat="37.0091625717076" lon="-4.560289834029781"><ele>572.6666666666667</ele><time>2026-04-23T11:52:48.001Z</time></trkpt><trkpt lat="37.00908485033254" lon="-4.560255324513436"><ele>571.8333333333334</ele><time>2026-04-23T11:52:49.001Z</time></trkpt><trkpt lat="37.0090044074064" lon="-4.5602186566216885"><ele>571.0</ele><time>2026-04-23T11:52:50.001Z</time></trkpt><trkpt lat="37.00891722353374" lon="-4.560180136802422"><ele>570.7142857142858</ele><time>2026-04-23T11:52:51.001Z</time></trkpt><trkpt lat="37.008837290592595" lon="-4.560141840105996"><ele>570.4285714285714</ele><time>2026-04-23T11:52:52.001Z</time></trkpt><trkpt lat="37.00876700574279" lon="-4.560115126230221"><ele>570.1428571428571</ele><time>2026-04-23T11:52:53Z</time></trkpt><trkpt lat="37.00870388255482" lon="-4.560121138272575"><ele>569.8571428571429</ele><time>2026-04-23T11:52:54Z</time></trkpt><trkpt lat="37.0086518380213" lon="-4.560166585675812"><ele>569.5714285714286</ele><time>2026-04-23T11:52:55Z</time></trkpt><trkpt lat="37.00862321806861" lon="-4.560240605481608"><ele>569.2857142857143</ele><time>2026-04-23T11:52:56Z</time></trkpt><trkpt lat="37.0086076637571" lon="-4.560361152829519"><ele>569.0</ele><time>2026-04-23T11:52:58Z</time></trkpt><trkpt lat="37.00859084207258" lon="-4.56044862366312"><ele>572.5</ele><time>2026-04-23T11:53:00Z</time></trkpt><trkpt lat="37.00842337645357" lon="-4.560481039262155"><ele>576.0</ele><time>2026-04-23T11:53:02Z</time></trkpt><trkpt lat="37.008329520686644" lon="-4.560490994051045"><ele>579.5</ele><time>2026-04-23T11:53:03Z</time></trkpt><trkpt lat="37.00820981971883" lon="-4.5605149570306525"><ele>583.0</ele><time>2026-04-23T11:53:04Z</time></trkpt><trkpt lat="37.00808742042003" lon="-4.560539545251394"><ele>583.25</ele><time>2026-04-23T11:53:05Z</time></trkpt><trkpt lat="37.0079640772044" lon="-4.560555620088819"><ele>583.5</ele><time>2026-04-23T11:53:06Z</time></trkpt><trkpt lat="37.00784117703032" lon="-4.560571330675598"><ele>583.75</ele><time>2026-04-23T11:53:07Z</time></trkpt><trkpt lat="37.00771993479048" lon="-4.560575567597742"><ele>584.0</ele><time>2026-04-23T11:53:08Z</time></trkpt><trkpt lat="37.00759857057829" lon="-4.560569012444122"><ele>584.0</ele><time>2026-04-23T11:53:09Z</time></trkpt><trkpt lat="37.00747695030907" lon="-4.56055218203257"><ele>584.0</ele><time>2026-04-23T11:53:10Z</time></trkpt><trkpt lat="37.007352229753586" lon="-4.5605109776427755"><ele>584.0</ele><time>2026-04-23T11:53:11Z</time></trkpt><trkpt lat="37.00723257422453" lon="-4.560462633920209"><ele>584.0</ele><time>2026-04-23T11:53:12Z</time></trkpt><trkpt lat="37.00711543223783" lon="-4.560430891158445"><ele>584.0</ele><time>2026-04-23T11:53:13Z</time></trkpt><trkpt lat="37.00699352795493" lon="-4.560429483849279"><ele>584.0</ele><time>2026-04-23T11:53:14Z</time></trkpt><trkpt lat="37.00686793242664" lon="-4.560444150040182"><ele>584.0</ele><time>2026-04-23T11:53:15Z</time></trkpt><trkpt lat="37.00673799887076" lon="-4.560468777951869"><ele>584.0</ele><time>2026-04-23T11:53:16Z</time></trkpt><trkpt lat="37.0066038103634" lon="-4.560488233133107"><ele>583.6666666666666</ele><time>2026-04-23T11:53:17Z</time></trkpt><trkpt lat="37.00646142360465" lon="-4.560506538336267"><ele>583.3333333333334</ele><time>2026-04-23T11:53:18Z</time></trkpt><trkpt lat="37.006313009142076" lon="-4.560528189256624"><ele>583.0</ele><time>2026-04-23T11:53:19Z</time></trkpt><trkpt lat="37.00615554641509" lon="-4.560554311107383"><ele>583.0</ele><time>2026-04-23T11:53:20Z</time></trkpt><trkpt lat="37.00600347601668" lon="-4.560580661443546"><ele>583.0</ele><time>2026-04-23T11:53:21Z</time></trkpt><trkpt lat="37.00585030853715" lon="-4.560613157443801"><ele>583.0</ele><time>2026-04-23T11:53:22Z</time></trkpt><trkpt lat="37.00570626383355" lon="-4.560648117682663"><ele>585.0</ele><time>2026-04-23T11:53:23Z</time></trkpt><trkpt lat="37.00557751968799" lon="-4.560676305486755"><ele>587.0</ele><time>2026-04-23T11:53:24Z</time></trkpt><trkpt lat="37.005449820635405" lon="-4.560705262091024"><ele>589.0</ele><time>2026-04-23T11:53:25Z</time></trkpt><trkpt lat="37.00531899237077" lon="-4.5607138187832446"><ele>591.0</ele><time>2026-04-23T11:53:26Z</time></trkpt><trkpt lat="37.00519545199301" lon="-4.560700761021711"><ele>591.0</ele><time>2026-04-23T11:53:27Z</time></trkpt><trkpt lat="37.00507191519473" lon="-4.56066833530317"><ele>591.0</ele><time>2026-04-23T11:53:28Z</time></trkpt><trkpt lat="37.00495001701768" lon="-4.560627198673199"><ele>591.0</ele><time>2026-04-23T11:53:29Z</time></trkpt><trkpt lat="37.00483238761344" lon="-4.560560264783567"><ele>591.0</ele><time>2026-04-23T11:53:30Z</time></trkpt><trkpt lat="37.004718196125964" lon="-4.560467556730523"><ele>591.0</ele><time>2026-04-23T11:53:31Z</time></trkpt><trkpt lat="37.00459865412773" lon="-4.560386795219313"><ele>591.0</ele><time>2026-04-23T11:53:32Z</time></trkpt><trkpt lat="37.00448522374193" lon="-4.560284100124703"><ele>591.0</ele><time>2026-04-23T11:53:33Z</time></trkpt><trkpt lat="37.00436060567919" lon="-4.5602184354483715"><ele>591.0</ele><time>2026-04-23T11:53:34Z</time></trkpt><trkpt lat="37.00422857953754" lon="-4.560157165891322"><ele>588.75</ele><time>2026-04-23T11:53:35Z</time></trkpt><trkpt lat="37.00409192447762" lon="-4.560093921692664"><ele>586.5</ele><time>2026-04-23T11:53:36Z</time></trkpt><trkpt lat="37.003959046329584" lon="-4.560029412226138"><ele>584.25</ele><time>2026-04-23T11:53:37Z</time></trkpt><trkpt lat="37.00383381202106" lon="-4.559945757446736"><ele>582.0</ele><time>2026-04-23T11:53:38Z</time></trkpt><trkpt lat="37.003698595899095" lon="-4.559863240368028"><ele>582.0</ele><time>2026-04-23T11:53:39Z</time></trkpt><trkpt lat="37.00356899235663" lon="-4.559754398989118"><ele>582.0</ele><time>2026-04-23T11:53:40Z</time></trkpt><trkpt lat="37.00343745688109" lon="-4.559641744067317"><ele>582.0</ele><time>2026-04-23T11:53:41Z</time></trkpt><trkpt lat="37.00331060701281" lon="-4.559532981891361"><ele>581.25</ele><time>2026-04-23T11:53:42Z</time></trkpt><trkpt lat="37.00319662173308" lon="-4.559432243824821"><ele>580.5</ele><time>2026-04-23T11:53:43Z</time></trkpt><trkpt lat="37.00308976021215" lon="-4.5593282455763005"><ele>579.75</ele><time>2026-04-23T11:53:44Z</time></trkpt><trkpt lat="37.00299404048151" lon="-4.559215648323671"><ele>579.0</ele><time>2026-04-23T11:53:45Z</time></trkpt><trkpt lat="37.00290811029039" lon="-4.5590966405985505"><ele>579.0</ele><time>2026-04-23T11:53:46Z</time></trkpt><trkpt lat="37.002822074159205" lon="-4.558983802546472"><ele>579.0</ele><time>2026-04-23T11:53:47Z</time></trkpt><trkpt lat="37.002722222913576" lon="-4.558881872478107"><ele>579.0</ele><time>2026-04-23T11:53:48Z</time></trkpt><trkpt lat="37.00260125274268" lon="-4.558818647733018"><ele>579.0</ele><time>2026-04-23T11:53:49Z</time></trkpt><trkpt lat="37.002488427722" lon="-4.558758154961502"><ele>578.0</ele><time>2026-04-23T11:53:50Z</time></trkpt><trkpt lat="37.00236759879498" lon="-4.558707695564441"><ele>577.0</ele><time>2026-04-23T11:53:51Z</time></trkpt><trkpt lat="37.00225263685776" lon="-4.558668322836672"><ele>576.0</ele><time>2026-04-23T11:53:52Z</time></trkpt><trkpt lat="37.0021402614751" lon="-4.55862012311486"><ele>575.0</ele><time>2026-04-23T11:53:53Z</time></trkpt><trkpt lat="37.002035417208475" lon="-4.558593351208818"><ele>575.0</ele><time>2026-04-23T11:53:54Z</time></trkpt><trkpt lat="37.001936379161116" lon="-4.558572052523863"><ele>575.0</ele><time>2026-04-23T11:53:55Z</time></trkpt><trkpt lat="37.00184261499391" lon="-4.558563067296924"><ele>575.0</ele><time>2026-04-23T11:53:56Z</time></trkpt><trkpt lat="37.00173949066675" lon="-4.558557649893002"><ele>575.0</ele><time>2026-04-23T11:53:57Z</time></trkpt><trkpt lat="37.0016221138571" lon="-4.558571014976427"><ele>575.0</ele><time>2026-04-23T11:53:58Z</time></trkpt><trkpt lat="37.001499580734254" lon="-4.558589095455154"><ele>572.0</ele><time>2026-04-23T11:53:59Z</time></trkpt><trkpt lat="37.00137063316511" lon="-4.558604655000872"><ele>569.0</ele><time>2026-04-23T11:54:00Z</time></trkpt><trkpt lat="37.00123911151227" lon="-4.558595546077356"><ele>566.0</ele><time>2026-04-23T11:54:01Z</time></trkpt><trkpt lat="37.00113884550211" lon="-4.558565170561143"><ele>563.0</ele><time>2026-04-23T11:54:02Z</time></trkpt><trkpt lat="37.00104149459818" lon="-4.558514689457193"><ele>563.0</ele><time>2026-04-23T11:54:03Z</time></trkpt><trkpt lat="37.00095697439584" lon="-4.558441695119796"><ele>563.0</ele><time>2026-04-23T11:54:04Z</time></trkpt><trkpt lat="37.00088111632653" lon="-4.55834413952632"><ele>563.0</ele><time>2026-04-23T11:54:05Z</time></trkpt><trkpt lat="37.0008264184291" lon="-4.558216842585616"><ele>563.0</ele><time>2026-04-23T11:54:06Z</time></trkpt><trkpt lat="37.00078837677808" lon="-4.558067279108224"><ele>561.0</ele><time>2026-04-23T11:54:07Z</time></trkpt><trkpt lat="37.00078109757461" lon="-4.557893546263444"><ele>559.0</ele><time>2026-04-23T11:54:08Z</time></trkpt><trkpt lat="37.00076863326654" lon="-4.557713642250211"><ele>557.0</ele><time>2026-04-23T11:54:09Z</time></trkpt><trkpt lat="37.00075013551673" lon="-4.55753710486946"><ele>555.0</ele><time>2026-04-23T11:54:10Z</time></trkpt><trkpt lat="37.00072494149792" lon="-4.557400570901508"><ele>554.25</ele><time>2026-04-23T11:54:11Z</time></trkpt><trkpt lat="37.000713645346984" lon="-4.5572767976163755"><ele>553.5</ele><time>2026-04-23T11:54:12Z</time></trkpt><trkpt lat="37.00074973474745" lon="-4.557156558474323"><ele>552.75</ele><time>2026-04-23T11:54:13Z</time></trkpt><trkpt lat="37.000838774331214" lon="-4.55703874947326"><ele>552.0</ele><time>2026-04-23T11:54:14Z</time></trkpt><trkpt lat="37.00095563080116" lon="-4.556923471102635"><ele>551.3333333333334</ele><time>2026-04-23T11:54:15.001Z</time></trkpt><trkpt lat="37.00102975812947" lon="-4.556754181633779"><ele>550.6666666666667</ele><time>2026-04-23T11:54:16.001Z</time></trkpt><trkpt lat="37.001085601146414" lon="-4.556568189095486"><ele>550.0</ele><time>2026-04-23T11:54:17.001Z</time></trkpt><trkpt lat="37.001142551349744" lon="-4.556386593159997"><ele>550.0</ele><time>2026-04-23T11:54:18.001Z</time></trkpt><trkpt lat="37.00120846708906" lon="-4.556218454498995"><ele>550.0</ele><time>2026-04-23T11:54:19.001Z</time></trkpt><trkpt lat="37.00125222836802" lon="-4.556054165106649"><ele>550.0</ele><time>2026-04-23T11:54:20.001Z</time></trkpt><trkpt lat="37.001276869829525" lon="-4.555886428791536"><ele>550.0</ele><time>2026-04-23T11:54:21.001Z</time></trkpt><trkpt lat="37.00123614205538" lon="-4.555722077666154"><ele>548.75</ele><time>2026-04-23T11:54:22.001Z</time></trkpt><trkpt lat="37.00119262440956" lon="-4.555552775642064"><ele>547.5</ele><time>2026-04-23T11:54:23.001Z</time></trkpt><trkpt lat="37.00115244438489" lon="-4.555365509101948"><ele>546.25</ele><time>2026-04-23T11:54:24.001Z</time></trkpt><trkpt lat="37.00109704616961" lon="-4.555194674518246"><ele>545.0</ele><time>2026-04-23T11:54:25.001Z</time></trkpt><trkpt lat="37.00103901117203" lon="-4.555035260598474"><ele>544.0</ele><time>2026-04-23T11:54:26.001Z</time></trkpt><trkpt lat="37.00095810896015" lon="-4.554912442580124"><ele>543.0</ele><time>2026-04-23T11:54:27.001Z</time></trkpt><trkpt lat="37.000880752032366" lon="-4.554799702126194"><ele>542.0</ele><time>2026-04-23T11:54:28.001Z</time></trkpt><trkpt lat="37.00082017547997" lon="-4.554684353727197"><ele>541.0</ele><time>2026-04-23T11:54:29.001Z</time></trkpt><trkpt lat="37.0007350395849" lon="-4.554602364662153"><ele>541.5</ele><time>2026-04-23T11:54:30.001Z</time></trkpt><trkpt lat="37.00063189244545" lon="-4.554556200792086"><ele>542.0</ele><time>2026-04-23T11:54:31.001Z</time></trkpt><trkpt lat="37.00051941986334" lon="-4.554530805131405"><ele>542.5</ele><time>2026-04-23T11:54:32.001Z</time></trkpt><trkpt lat="37.00039671585761" lon="-4.554488165912937"><ele>543.0</ele><time>2026-04-23T11:54:33.001Z</time></trkpt><trkpt lat="37.00026249240192" lon="-4.554456821655885"><ele>543.0</ele><time>2026-04-23T11:54:34.001Z</time></trkpt><trkpt lat="37.0001167098913" lon="-4.5544122247537615"><ele>543.0</ele><time>2026-04-23T11:54:35.001Z</time></trkpt><trkpt lat="36.99996714132956" lon="-4.554359032002451"><ele>543.0</ele><time>2026-04-23T11:54:36.001Z</time></trkpt><trkpt lat="36.99980741165147" lon="-4.554305126480538"><ele>543.0</ele><time>2026-04-23T11:54:37.001Z</time></trkpt><trkpt lat="36.999639184984375" lon="-4.554271935827789"><ele>543.0</ele><time>2026-04-23T11:54:38.001Z</time></trkpt><trkpt lat="36.999471503080954" lon="-4.554217839784509"><ele>543.0</ele><time>2026-04-23T11:54:39.001Z</time></trkpt><trkpt lat="36.999305748343374" lon="-4.554143621318269"><ele>545.25</ele><time>2026-04-23T11:54:40.001Z</time></trkpt><trkpt lat="36.999144599840164" lon="-4.554124318860809"><ele>547.5</ele><time>2026-04-23T11:54:41.001Z</time></trkpt><trkpt lat="36.99900268643781" lon="-4.554091935108062"><ele>549.75</ele><time>2026-04-23T11:54:42.001Z</time></trkpt><trkpt lat="36.99887576242834" lon="-4.554044538126688"><ele>552.0</ele><time>2026-04-23T11:54:43.001Z</time></trkpt><trkpt lat="36.998750973797634" lon="-4.554025908262678"><ele>552.0</ele><time>2026-04-23T11:54:44.001Z</time></trkpt><trkpt lat="36.998624751653345" lon="-4.554002958998947"><ele>552.0</ele><time>2026-04-23T11:54:45.001Z</time></trkpt><trkpt lat="36.99850333655448" lon="-4.553980478504116"><ele>552.0</ele><time>2026-04-23T11:54:46.001Z</time></trkpt><trkpt lat="36.99837930040647" lon="-4.553960578679634"><ele>552.0</ele><time>2026-04-23T11:54:47.001Z</time></trkpt><trkpt lat="36.998257223967165" lon="-4.553940452573824"><ele>552.0</ele><time>2026-04-23T11:54:48.001Z</time></trkpt><trkpt lat="36.99813833591748" lon="-4.553916606990284"><ele>552.0</ele><time>2026-04-23T11:54:49.001Z</time></trkpt><trkpt lat="36.99802386335555" lon="-4.553875243548213"><ele>552.0</ele><time>2026-04-23T11:54:50.001Z</time></trkpt><trkpt lat="36.99790999944995" lon="-4.553811035544908"><ele>552.0</ele><time>2026-04-23T11:54:51.001Z</time></trkpt><trkpt lat="36.99779883389681" lon="-4.55372220969772"><ele>551.25</ele><time>2026-04-23T11:54:52.001Z</time></trkpt><trkpt lat="36.99768723053105" lon="-4.553625340162572"><ele>550.5</ele><time>2026-04-23T11:54:53.001Z</time></trkpt><trkpt lat="36.99757202547457" lon="-4.553538760392849"><ele>549.75</ele><time>2026-04-23T11:54:54.001Z</time></trkpt><trkpt lat="36.99745110795975" lon="-4.553476477064775"><ele>549.0</ele><time>2026-04-23T11:54:55.001Z</time></trkpt><trkpt lat="36.997317075787834" lon="-4.5534534236470865"><ele>549.0</ele><time>2026-04-23T11:54:56.001Z</time></trkpt><trkpt lat="36.997189268865654" lon="-4.553402465159391"><ele>549.0</ele><time>2026-04-23T11:54:57.001Z</time></trkpt><trkpt lat="36.997066678128135" lon="-4.553312368765208"><ele>549.0</ele><time>2026-04-23T11:54:58.001Z</time></trkpt><trkpt lat="36.99694353910764" lon="-4.553193308062933"><ele>549.0</ele><time>2026-04-23T11:54:59Z</time></trkpt><trkpt lat="36.99683040023586" lon="-4.553058966924174"><ele>549.0</ele><time>2026-04-23T11:55:00Z</time></trkpt><trkpt lat="36.996718976979786" lon="-4.55292251040789"><ele>549.0</ele><time>2026-04-23T11:55:01Z</time></trkpt><trkpt lat="36.99661865849347" lon="-4.552766660785543"><ele>549.0</ele><time>2026-04-23T11:55:02Z</time></trkpt><trkpt lat="36.99653401334019" lon="-4.552596090646152"><ele>552.0</ele><time>2026-04-23T11:55:03Z</time></trkpt><trkpt lat="36.99647585198787" lon="-4.55240128580406"><ele>555.0</ele><time>2026-04-23T11:55:04Z</time></trkpt><trkpt lat="36.99644505568177" lon="-4.552189610644828"><ele>558.0</ele><time>2026-04-23T11:55:05Z</time></trkpt><trkpt lat="36.99641414111364" lon="-4.551982735726182"><ele>561.6666666666666</ele><time>2026-04-23T11:55:06Z</time></trkpt><trkpt lat="36.996364564339515" lon="-4.55180338095931"><ele>565.3333333333333</ele><time>2026-04-23T11:55:07Z</time></trkpt><trkpt lat="36.99625957492843" lon="-4.5516463714267195"><ele>569.0</ele><time>2026-04-23T11:55:08Z</time></trkpt><trkpt lat="36.996159474033796" lon="-4.551481755581481"><ele>569.0</ele><time>2026-04-23T11:55:09Z</time></trkpt><trkpt lat="36.996047349078815" lon="-4.551349836503115"><ele>569.0</ele><time>2026-04-23T11:55:10Z</time></trkpt><trkpt lat="36.99594588957501" lon="-4.551239437579948"><ele>569.0</ele><time>2026-04-23T11:55:11Z</time></trkpt><trkpt lat="36.99583231935731" lon="-4.551152950984196"><ele>569.0</ele><time>2026-04-23T11:55:12Z</time></trkpt><trkpt lat="36.995698867512395" lon="-4.5510806417145115"><ele>569.0</ele><time>2026-04-23T11:55:13Z</time></trkpt><trkpt lat="36.995553505666884" lon="-4.551021158381896"><ele>569.0</ele><time>2026-04-23T11:55:14Z</time></trkpt><trkpt lat="36.99541213659686" lon="-4.550944010372993"><ele>569.0</ele><time>2026-04-23T11:55:15Z</time></trkpt><trkpt lat="36.99528301271528" lon="-4.550848005656293"><ele>569.0</ele><time>2026-04-23T11:55:16Z</time></trkpt><trkpt lat="36.99515679138402" lon="-4.550734613357356"><ele>569.0</ele><time>2026-04-23T11:55:17Z</time></trkpt><trkpt lat="36.995018209556825" lon="-4.550644507277549"><ele>569.0</ele><time>2026-04-23T11:55:18Z</time></trkpt><trkpt lat="36.99489148518095" lon="-4.550549669246086"><ele>568.6666666666666</ele><time>2026-04-23T11:55:19Z</time></trkpt><trkpt lat="36.99483495790533" lon="-4.550329810976645"><ele>568.3333333333334</ele><time>2026-04-23T11:55:20Z</time></trkpt><trkpt lat="36.99474029147475" lon="-4.550195117180795"><ele>568.0</ele><time>2026-04-23T11:55:21Z</time></trkpt><trkpt lat="36.99465084199203" lon="-4.550064962958408"><ele>568.0</ele><time>2026-04-23T11:55:22Z</time></trkpt><trkpt lat="36.99455649196874" lon="-4.54993624276979"><ele>568.0</ele><time>2026-04-23T11:55:23Z</time></trkpt><trkpt lat="36.99446014957896" lon="-4.549800119908128"><ele>568.0</ele><time>2026-04-23T11:55:24Z</time></trkpt><trkpt lat="36.99436221646668" lon="-4.5496598055150566"><ele>568.0</ele><time>2026-04-23T11:55:25Z</time></trkpt><trkpt lat="36.9942614216836" lon="-4.5495177968232365"><ele>567.75</ele><time>2026-04-23T11:55:26Z</time></trkpt><trkpt lat="36.99416001766357" lon="-4.5493813584373815"><ele>567.5</ele><time>2026-04-23T11:55:27Z</time></trkpt><trkpt lat="36.99406014593463" lon="-4.54924654668457"><ele>567.25</ele><time>2026-04-23T11:55:28Z</time></trkpt><trkpt lat="36.99395831922025" lon="-4.54910720949208"><ele>567.0</ele><time>2026-04-23T11:55:29Z</time></trkpt><trkpt lat="36.99386229256124" lon="-4.548964836481768"><ele>567.0</ele><time>2026-04-23T11:55:30Z</time></trkpt><trkpt lat="36.99376371843869" lon="-4.548819067851745"><ele>567.0</ele><time>2026-04-23T11:55:31Z</time></trkpt><trkpt lat="36.99367300883416" lon="-4.548663340784691"><ele>567.0</ele><time>2026-04-23T11:55:32Z</time></trkpt><trkpt lat="36.99359185422647" lon="-4.548488201116015"><ele>568.0</ele><time>2026-04-23T11:55:33Z</time></trkpt><trkpt lat="36.99351487111445" lon="-4.548312376132142"><ele>569.0</ele><time>2026-04-23T11:55:34Z</time></trkpt><trkpt lat="36.99343805145781" lon="-4.548121666360496"><ele>570.0</ele><time>2026-04-23T11:55:35Z</time></trkpt><trkpt lat="36.99336317130869" lon="-4.547925442289348"><ele>571.0</ele><time>2026-04-23T11:55:36Z</time></trkpt><trkpt lat="36.99328656532685" lon="-4.547723128875434"><ele>572.0</ele><time>2026-04-23T11:55:37Z</time></trkpt><trkpt lat="36.99320333275087" lon="-4.547519494023859"><ele>573.0</ele><time>2026-04-23T11:55:38Z</time></trkpt><trkpt lat="36.99311953309391" lon="-4.547322963396731"><ele>573.0</ele><time>2026-04-23T11:55:39Z</time></trkpt><trkpt lat="36.993034397992446" lon="-4.547129678964665"><ele>573.0</ele><time>2026-04-23T11:55:40Z</time></trkpt><trkpt lat="36.99294984503734" lon="-4.546936154146767"><ele>573.0</ele><time>2026-04-23T11:55:41Z</time></trkpt><trkpt lat="36.99286313389257" lon="-4.546746371031276"><ele>573.3333333333334</ele><time>2026-04-23T11:55:42Z</time></trkpt><trkpt lat="36.9927697390281" lon="-4.546563782933659"><ele>573.6666666666667</ele><time>2026-04-23T11:55:43Z</time></trkpt><trkpt lat="36.992666017087714" lon="-4.546393002040589"><ele>574.0</ele><time>2026-04-23T11:55:44Z</time></trkpt><trkpt lat="36.992560453838095" lon="-4.546233826875692"><ele>575.3333333333334</ele><time>2026-04-23T11:55:45Z</time></trkpt><trkpt lat="36.992454715379196" lon="-4.546074095304058"><ele>576.6666666666666</ele><time>2026-04-23T11:55:46Z</time></trkpt><trkpt lat="36.992351726542644" lon="-4.54591713610336"><ele>578.0</ele><time>2026-04-23T11:55:47Z</time></trkpt><trkpt lat="36.99225194372831" lon="-4.545759696390192"><ele>578.0</ele><time>2026-04-23T11:55:48Z</time></trkpt><trkpt lat="36.99215682449829" lon="-4.545603149617465"><ele>578.0</ele><time>2026-04-23T11:55:49Z</time></trkpt><trkpt lat="36.99206822450434" lon="-4.5454318077041584"><ele>578.0</ele><time>2026-04-23T11:55:50Z</time></trkpt><trkpt lat="36.99200539197898" lon="-4.545243519872592"><ele>577.3333333333333</ele><time>2026-04-23T11:55:51Z</time></trkpt><trkpt lat="36.991970211766876" lon="-4.545036723339003"><ele>576.6666666666666</ele><time>2026-04-23T11:55:52Z</time></trkpt><trkpt lat="36.99195869747544" lon="-4.544824016336745"><ele>576.0</ele><time>2026-04-23T11:55:53Z</time></trkpt><trkpt lat="36.991963008116656" lon="-4.544608580865379"><ele>575.6666666666666</ele><time>2026-04-23T11:55:54Z</time></trkpt><trkpt lat="36.99195574748273" lon="-4.5443998845535525"><ele>575.3333333333333</ele><time>2026-04-23T11:55:55Z</time></trkpt><trkpt lat="36.991905864329595" lon="-4.544211777515412"><ele>575.0</ele><time>2026-04-23T11:55:56Z</time></trkpt><trkpt lat="36.991828773179456" lon="-4.544046286079607"><ele>575.0</ele><time>2026-04-23T11:55:57Z</time></trkpt><trkpt lat="36.99172361143223" lon="-4.543882100722587"><ele>575.0</ele><time>2026-04-23T11:55:58Z</time></trkpt><trkpt lat="36.99162827311714" lon="-4.543719138402102"><ele>575.0</ele><time>2026-04-23T11:55:59Z</time></trkpt><trkpt lat="36.991511432275" lon="-4.543552004207011"><ele>576.6666666666666</ele><time>2026-04-23T11:56:00Z</time></trkpt><trkpt lat="36.99140506697451" lon="-4.5433808444395005"><ele>578.3333333333334</ele><time>2026-04-23T11:56:01Z</time></trkpt><trkpt lat="36.99130280182027" lon="-4.543210972092369"><ele>580.0</ele><time>2026-04-23T11:56:02Z</time></trkpt><trkpt lat="36.99119077013101" lon="-4.543064851976006"><ele>580.0</ele><time>2026-04-23T11:56:03Z</time></trkpt><trkpt lat="36.991093065876214" lon="-4.542908528217661"><ele>580.0</ele><time>2026-04-23T11:56:04Z</time></trkpt><trkpt lat="36.99100573161977" lon="-4.542753598761045"><ele>580.0</ele><time>2026-04-23T11:56:05.001Z</time></trkpt><trkpt lat="36.99090310733704" lon="-4.542612118543061"><ele>580.0</ele><time>2026-04-23T11:56:06.001Z</time></trkpt><trkpt lat="36.99081587562376" lon="-4.542467781846861"><ele>580.0</ele><time>2026-04-23T11:56:07.001Z</time></trkpt><trkpt lat="36.99069525422548" lon="-4.542350782499063"><ele>580.0</ele><time>2026-04-23T11:56:08.001Z</time></trkpt><trkpt lat="36.99055714171886" lon="-4.5422658939741165"><ele>580.0</ele><time>2026-04-23T11:56:09.001Z</time></trkpt><trkpt lat="36.990400301762335" lon="-4.542221251504135"><ele>580.0</ele><time>2026-04-23T11:56:10.001Z</time></trkpt><trkpt lat="36.99024380482938" lon="-4.542200057547524"><ele>580.0</ele><time>2026-04-23T11:56:11.001Z</time></trkpt><trkpt lat="36.99008556962048" lon="-4.542176990006119"><ele>582.6666666666667</ele><time>2026-04-23T11:56:12.001Z</time></trkpt><trkpt lat="36.98991821210448" lon="-4.542146947831372"><ele>585.3333333333334</ele><time>2026-04-23T11:56:13.001Z</time></trkpt><trkpt lat="36.989748625341946" lon="-4.542116239519987"><ele>588.0</ele><time>2026-04-23T11:56:14.001Z</time></trkpt><trkpt lat="36.98958789522904" lon="-4.5420871349478285"><ele>588.0</ele><time>2026-04-23T11:56:15.001Z</time></trkpt><trkpt lat="36.98943686941178" lon="-4.542059787598275"><ele>588.0</ele><time>2026-04-23T11:56:16.001Z</time></trkpt><trkpt lat="36.98928982046785" lon="-4.542033123025647"><ele>588.0</ele><time>2026-04-23T11:56:17.001Z</time></trkpt><trkpt lat="36.989151686569855" lon="-4.541995117274287"><ele>588.0</ele><time>2026-04-23T11:56:18.001Z</time></trkpt><trkpt lat="36.98901158620248" lon="-4.541968455940341"><ele>584.3333333333334</ele><time>2026-04-23T11:56:19.001Z</time></trkpt><trkpt lat="36.98886097135609" lon="-4.541937283012371"><ele>580.6666666666667</ele><time>2026-04-23T11:56:20.001Z</time></trkpt><trkpt lat="36.98870132277016" lon="-4.5418820838858425"><ele>577.0</ele><time>2026-04-23T11:56:21.001Z</time></trkpt><trkpt lat="36.98854015485642" lon="-4.541806397315199"><ele>577.0</ele><time>2026-04-23T11:56:22.001Z</time></trkpt><trkpt lat="36.98837443696954" lon="-4.5417169828125985"><ele>577.0</ele><time>2026-04-23T11:56:23.001Z</time></trkpt><trkpt lat="36.9882096280584" lon="-4.541618367703618"><ele>577.0</ele><time>2026-04-23T11:56:24.001Z</time></trkpt><trkpt lat="36.988042729953676" lon="-4.54151042227953"><ele>578.0</ele><time>2026-04-23T11:56:25.001Z</time></trkpt><trkpt lat="36.98787452347473" lon="-4.541401675659473"><ele>579.0</ele><time>2026-04-23T11:56:26.001Z</time></trkpt><trkpt lat="36.98771582281442" lon="-4.541298753603891"><ele>580.0</ele><time>2026-04-23T11:56:27.001Z</time></trkpt><trkpt lat="36.98756582431244" lon="-4.54120045482447"><ele>579.0</ele><time>2026-04-23T11:56:28.001Z</time></trkpt><trkpt lat="36.98742627503313" lon="-4.5410912280446025"><ele>578.0</ele><time>2026-04-23T11:56:29.001Z</time></trkpt><trkpt lat="36.987299563680004" lon="-4.540968777646768"><ele>577.0</ele><time>2026-04-23T11:56:30.001Z</time></trkpt><trkpt lat="36.987189974140946" lon="-4.54083498700177"><ele>577.0</ele><time>2026-04-23T11:56:31.001Z</time></trkpt><trkpt lat="36.98710319695764" lon="-4.540671954241512"><ele>577.0</ele><time>2026-04-23T11:56:32.001Z</time></trkpt><trkpt lat="36.98705030258196" lon="-4.540493922446981"><ele>577.0</ele><time>2026-04-23T11:56:33.001Z</time></trkpt><trkpt lat="36.98706665784169" lon="-4.540275255147328"><ele>578.6666666666667</ele><time>2026-04-23T11:56:34.001Z</time></trkpt><trkpt lat="36.98702338000002" lon="-4.540075857763969"><ele>580.3333333333334</ele><time>2026-04-23T11:56:35.001Z</time></trkpt><trkpt lat="36.98698590011177" lon="-4.539866076454622"><ele>582.0</ele><time>2026-04-23T11:56:36.001Z</time></trkpt><trkpt lat="36.98695215181376" lon="-4.539652717319295"><ele>583.6666666666666</ele><time>2026-04-23T11:56:37.001Z</time></trkpt><trkpt lat="36.98702306198612" lon="-4.539411112984421"><ele>585.3333333333333</ele><time>2026-04-23T11:56:38.001Z</time></trkpt><trkpt lat="36.98701954380593" lon="-4.539191994566263"><ele>587.0</ele><time>2026-04-23T11:56:39.001Z</time></trkpt><trkpt lat="36.98701187828584" lon="-4.538973207165924"><ele>587.0</ele><time>2026-04-23T11:56:40.001Z</time></trkpt><trkpt lat="36.986999086172844" lon="-4.538756699912523"><ele>587.0</ele><time>2026-04-23T11:56:41.001Z</time></trkpt><trkpt lat="36.98698773904497" lon="-4.538538151772213"><ele>587.0</ele><time>2026-04-23T11:56:42.001Z</time></trkpt><trkpt lat="36.98697891618771" lon="-4.538321410447038"><ele>588.0</ele><time>2026-04-23T11:56:43.001Z</time></trkpt><trkpt lat="36.98697014024191" lon="-4.538101153986127"><ele>589.0</ele><time>2026-04-23T11:56:44.001Z</time></trkpt><trkpt lat="36.98696052721544" lon="-4.537878319450616"><ele>590.0</ele><time>2026-04-23T11:56:45.001Z</time></trkpt><trkpt lat="36.986950457439434" lon="-4.537654737044708"><ele>591.6666666666666</ele><time>2026-04-23T11:56:46.001Z</time></trkpt><trkpt lat="36.98693637688081" lon="-4.537434880341343"><ele>593.3333333333334</ele><time>2026-04-23T11:56:47.001Z</time></trkpt><trkpt lat="36.98692639663255" lon="-4.5372144336106235"><ele>595.0</ele><time>2026-04-23T11:56:48.001Z</time></trkpt><trkpt lat="36.98691681650937" lon="-4.536995087048382"><ele>597.0</ele><time>2026-04-23T11:56:49.001Z</time></trkpt><trkpt lat="36.986908352574176" lon="-4.5367640009186285"><ele>599.0</ele><time>2026-04-23T11:56:50.001Z</time></trkpt><trkpt lat="36.986896494079126" lon="-4.536536313096328"><ele>601.0</ele><time>2026-04-23T11:56:51.001Z</time></trkpt><trkpt lat="36.98688385622301" lon="-4.536306983630605"><ele>601.0</ele><time>2026-04-23T11:56:52.001Z</time></trkpt><trkpt lat="36.98686973837637" lon="-4.53607544763157"><ele>601.0</ele><time>2026-04-23T11:56:53.001Z</time></trkpt><trkpt lat="36.986860847931176" lon="-4.535842397033331"><ele>601.0</ele><time>2026-04-23T11:56:54.001Z</time></trkpt><trkpt lat="36.98684730010113" lon="-4.535613523494198"><ele>602.0</ele><time>2026-04-23T11:56:55.001Z</time></trkpt><trkpt lat="36.98683604819944" lon="-4.535380032728476"><ele>603.0</ele><time>2026-04-23T11:56:56.001Z</time></trkpt><trkpt lat="36.986826071608824" lon="-4.535140866637128"><ele>604.0</ele><time>2026-04-23T11:56:57.001Z</time></trkpt><trkpt lat="36.98681615536202" lon="-4.534891218255144"><ele>604.0</ele><time>2026-04-23T11:56:58.001Z</time></trkpt><trkpt lat="36.98679899350213" lon="-4.534640849223882"><ele>604.0</ele><time>2026-04-23T11:56:59.001Z</time></trkpt><trkpt lat="36.986783210330984" lon="-4.5343925862789805"><ele>604.0</ele><time>2026-04-23T11:57:00.001Z</time></trkpt><trkpt lat="36.9867779213887" lon="-4.53416976796687"><ele>604.3333333333334</ele><time>2026-04-23T11:57:01.001Z</time></trkpt><trkpt lat="36.98677931518134" lon="-4.533944791167789"><ele>604.6666666666666</ele><time>2026-04-23T11:57:02.001Z</time></trkpt><trkpt lat="36.98678208956699" lon="-4.53371074382066"><ele>605.0</ele><time>2026-04-23T11:57:03.001Z</time></trkpt><trkpt lat="36.986789349542306" lon="-4.533486556910624"><ele>605.0</ele><time>2026-04-23T11:57:04.001Z</time></trkpt><trkpt lat="36.9867817132902" lon="-4.5332697095959"><ele>605.0</ele><time>2026-04-23T11:57:05Z</time></trkpt><trkpt lat="36.986753689729184" lon="-4.533059607138912"><ele>605.0</ele><time>2026-04-23T11:57:06Z</time></trkpt><trkpt lat="36.986701022260846" lon="-4.532859674084895"><ele>602.6666666666666</ele><time>2026-04-23T11:57:07Z</time></trkpt><trkpt lat="36.98660849170962" lon="-4.532678577438043"><ele>600.3333333333334</ele><time>2026-04-23T11:57:08Z</time></trkpt><trkpt lat="36.986515134033425" lon="-4.532509791234115"><ele>598.0</ele><time>2026-04-23T11:57:09Z</time></trkpt><trkpt lat="36.98644110254613" lon="-4.532347416392998"><ele>598.0</ele><time>2026-04-23T11:57:10Z</time></trkpt><trkpt lat="36.98638166946027" lon="-4.532174999381322"><ele>598.0</ele><time>2026-04-23T11:57:11Z</time></trkpt><trkpt lat="36.986354541493" lon="-4.531998135285326"><ele>598.0</ele><time>2026-04-23T11:57:12Z</time></trkpt><trkpt lat="36.98635184285401" lon="-4.53180628906123"><ele>598.0</ele><time>2026-04-23T11:57:13Z</time></trkpt><trkpt lat="36.986372225119645" lon="-4.53159512132782"><ele>600.3333333333334</ele><time>2026-04-23T11:57:14Z</time></trkpt><trkpt lat="36.98641526747375" lon="-4.531373263632436"><ele>602.6666666666666</ele><time>2026-04-23T11:57:15Z</time></trkpt><trkpt lat="36.98647134584815" lon="-4.531163433899748"><ele>605.0</ele><time>2026-04-23T11:57:16Z</time></trkpt><trkpt lat="36.98652436645942" lon="-4.530968543662847"><ele>606.6666666666666</ele><time>2026-04-23T11:57:17Z</time></trkpt><trkpt lat="36.98655129907547" lon="-4.5307738219856635"><ele>608.3333333333334</ele><time>2026-04-23T11:57:18Z</time></trkpt><trkpt lat="36.98655096370422" lon="-4.530576417795719"><ele>610.0</ele><time>2026-04-23T11:57:19Z</time></trkpt><trkpt lat="36.98653051016015" lon="-4.530383132095376"><ele>610.5</ele><time>2026-04-23T11:57:20Z</time></trkpt><trkpt lat="36.98649931437641" lon="-4.530197961750543"><ele>611.0</ele><time>2026-04-23T11:57:21Z</time></trkpt><trkpt lat="36.98647542112811" lon="-4.530033688760898"><ele>611.5</ele><time>2026-04-23T11:57:22Z</time></trkpt><trkpt lat="36.986475779250654" lon="-4.529864266819331"><ele>612.0</ele><time>2026-04-23T11:57:23Z</time></trkpt><trkpt lat="36.98651785058966" lon="-4.529692981609785"><ele>612.0</ele><time>2026-04-23T11:57:24Z</time></trkpt><trkpt lat="36.986596419580344" lon="-4.529540909552684"><ele>612.0</ele><time>2026-04-23T11:57:25Z</time></trkpt><trkpt lat="36.986713788359644" lon="-4.529412604229653"><ele>612.0</ele><time>2026-04-23T11:57:26Z</time></trkpt><trkpt lat="36.986853322444226" lon="-4.529313238098216"><ele>616.25</ele><time>2026-04-23T11:57:27Z</time></trkpt><trkpt lat="36.986997593804915" lon="-4.529233436089105"><ele>620.5</ele><time>2026-04-23T11:57:28Z</time></trkpt><trkpt lat="36.987108875293714" lon="-4.5291433113197686"><ele>624.75</ele><time>2026-04-23T11:57:29Z</time></trkpt><trkpt lat="36.98719634054198" lon="-4.529038121388928"><ele>629.0</ele><time>2026-04-23T11:57:30Z</time></trkpt><trkpt lat="36.987257517959705" lon="-4.528919135543864"><ele>629.0</ele><time>2026-04-23T11:57:31Z</time></trkpt><trkpt lat="36.98728685641553" lon="-4.5288019863628195"><ele>629.0</ele><time>2026-04-23T11:57:32Z</time></trkpt><trkpt lat="36.98727574049554" lon="-4.528691083151247"><ele>629.0</ele><time>2026-04-23T11:57:33Z</time></trkpt><trkpt lat="36.98722518937917" lon="-4.528601524830346"><ele>629.0</ele><time>2026-04-23T11:57:34Z</time></trkpt><trkpt lat="36.987147197962784" lon="-4.52854210333949"><ele>629.0</ele><time>2026-04-23T11:57:35Z</time></trkpt><trkpt lat="36.987050989312344" lon="-4.528503302981028"><ele>629.4</ele><time>2026-04-23T11:57:36Z</time></trkpt><trkpt lat="36.98697138491999" lon="-4.528462657306732"><ele>629.8</ele><time>2026-04-23T11:57:37Z</time></trkpt><trkpt lat="36.98690682541906" lon="-4.528398650543334"><ele>630.2</ele><time>2026-04-23T11:57:38Z</time></trkpt><trkpt lat="36.98684181244227" lon="-4.528319436832035"><ele>630.6</ele><time>2026-04-23T11:57:39.001Z</time></trkpt><trkpt lat="36.98676935708484" lon="-4.528182709674666"><ele>631.0</ele><time>2026-04-23T11:57:40.001Z</time></trkpt><trkpt lat="36.986694615621396" lon="-4.527997531577923"><ele>627.6666666666667</ele><time>2026-04-23T11:57:41.001Z</time></trkpt><trkpt lat="36.98662407476246" lon="-4.5277944370179215"><ele>624.3333333333334</ele><time>2026-04-23T11:57:42.001Z</time></trkpt><trkpt lat="36.986535086605" lon="-4.527583025653952"><ele>621.0</ele><time>2026-04-23T11:57:43.001Z</time></trkpt><trkpt lat="36.98642628900742" lon="-4.527377187800326"><ele>621.0</ele><time>2026-04-23T11:57:44.001Z</time></trkpt><trkpt lat="36.986333117990185" lon="-4.527194714675467"><ele>621.0</ele><time>2026-04-23T11:57:45.001Z</time></trkpt><trkpt lat="36.986250201727245" lon="-4.52702763679902"><ele>621.0</ele><time>2026-04-23T11:57:46.001Z</time></trkpt><trkpt lat="36.98617386660512" lon="-4.5268515776056795"><ele>621.0</ele><time>2026-04-23T11:57:47.001Z</time></trkpt><trkpt lat="36.98609761891942" lon="-4.526674782112556"><ele>621.0</ele><time>2026-04-23T11:57:48.001Z</time></trkpt><trkpt lat="36.98602019432003" lon="-4.526497580879758"><ele>621.0</ele><time>2026-04-23T11:57:49.001Z</time></trkpt><trkpt lat="36.9859493014075" lon="-4.526334707523636"><ele>621.75</ele><time>2026-04-23T11:57:50.001Z</time></trkpt><trkpt lat="36.98587926910177" lon="-4.526172796974217"><ele>622.5</ele><time>2026-04-23T11:57:51.001Z</time></trkpt><trkpt lat="36.98581108650125" lon="-4.526014292456859"><ele>623.25</ele><time>2026-04-23T11:57:52.001Z</time></trkpt><trkpt lat="36.98574514868728" lon="-4.525866697733409"><ele>624.0</ele><time>2026-04-23T11:57:53.001Z</time></trkpt><trkpt lat="36.98567936868538" lon="-4.52571630840973"><ele>626.0</ele><time>2026-04-23T11:57:54.001Z</time></trkpt><trkpt lat="36.98560740363606" lon="-4.525557687112067"><ele>628.0</ele><time>2026-04-23T11:57:55.001Z</time></trkpt><trkpt lat="36.985531811186604" lon="-4.52539649991903"><ele>630.0</ele><time>2026-04-23T11:57:56.001Z</time></trkpt><trkpt lat="36.98545108997219" lon="-4.525231152332399"><ele>630.0</ele><time>2026-04-23T11:57:57.001Z</time></trkpt><trkpt lat="36.985363522458286" lon="-4.525067724680089"><ele>630.0</ele><time>2026-04-23T11:57:58.001Z</time></trkpt><trkpt lat="36.985266520095" lon="-4.524906534787044"><ele>630.0</ele><time>2026-04-23T11:57:59.001Z</time></trkpt><trkpt lat="36.985165146102986" lon="-4.524741849458413"><ele>630.0</ele><time>2026-04-23T11:58:00.001Z</time></trkpt><trkpt lat="36.98505707169196" lon="-4.524570310902032"><ele>630.0</ele><time>2026-04-23T11:58:01.001Z</time></trkpt><trkpt lat="36.984950403792304" lon="-4.524393574411894"><ele>630.0</ele><time>2026-04-23T11:58:02.001Z</time></trkpt><trkpt lat="36.98483751579584" lon="-4.524210816593743"><ele>633.3333333333334</ele><time>2026-04-23T11:58:03.001Z</time></trkpt><trkpt lat="36.984723500018255" lon="-4.524031795322996"><ele>636.6666666666667</ele><time>2026-04-23T11:58:04.001Z</time></trkpt><trkpt lat="36.984617127014225" lon="-4.523863431575847"><ele>640.0</ele><time>2026-04-23T11:58:05.001Z</time></trkpt><trkpt lat="36.98451214419188" lon="-4.52369442784264"><ele>640.3333333333334</ele><time>2026-04-23T11:58:06.001Z</time></trkpt><trkpt lat="36.98441054808223" lon="-4.5235139592599545"><ele>640.6666666666666</ele><time>2026-04-23T11:58:07.001Z</time></trkpt><trkpt lat="36.98432034767022" lon="-4.523320453339862"><ele>641.0</ele><time>2026-04-23T11:58:08.001Z</time></trkpt><trkpt lat="36.98425037644774" lon="-4.523120327083176"><ele>641.0</ele><time>2026-04-23T11:58:09.001Z</time></trkpt><trkpt lat="36.984198643103916" lon="-4.522912517853075"><ele>641.0</ele><time>2026-04-23T11:58:10.001Z</time></trkpt><trkpt lat="36.98414459501456" lon="-4.522699704018637"><ele>641.0</ele><time>2026-04-23T11:58:11.001Z</time></trkpt><trkpt lat="36.98409207298263" lon="-4.522492328724267"><ele>640.6666666666666</ele><time>2026-04-23T11:58:12.001Z</time></trkpt><trkpt lat="36.984030343204445" lon="-4.5222760577424115"><ele>640.3333333333334</ele><time>2026-04-23T11:58:13.001Z</time></trkpt><trkpt lat="36.983966379255875" lon="-4.522062904174139"><ele>640.0</ele><time>2026-04-23T11:58:14.001Z</time></trkpt><trkpt lat="36.983903610216984" lon="-4.521850931185298"><ele>639.6666666666667</ele><time>2026-04-23T11:58:15.001Z</time></trkpt><trkpt lat="36.98383835513915" lon="-4.521628798979548"><ele>639.3333333333334</ele><time>2026-04-23T11:58:16.001Z</time></trkpt><trkpt lat="36.98377528791379" lon="-4.5214129036753095"><ele>639.0</ele><time>2026-04-23T11:58:17.001Z</time></trkpt><trkpt lat="36.98371227061155" lon="-4.52119976194593"><ele>638.0</ele><time>2026-04-23T11:58:18.001Z</time></trkpt><trkpt lat="36.98365260746574" lon="-4.5209907248869445"><ele>637.0</ele><time>2026-04-23T11:58:19.001Z</time></trkpt><trkpt lat="36.983595489129485" lon="-4.520783350509503"><ele>636.0</ele><time>2026-04-23T11:58:20.001Z</time></trkpt><trkpt lat="36.983541288783" lon="-4.520575120177563"><ele>635.3333333333334</ele><time>2026-04-23T11:58:21.001Z</time></trkpt><trkpt lat="36.98349469194156" lon="-4.520362764372716"><ele>634.6666666666667</ele><time>2026-04-23T11:58:22.001Z</time></trkpt><trkpt lat="36.98345100174541" lon="-4.5201563562843425"><ele>634.0</ele><time>2026-04-23T11:58:23.001Z</time></trkpt><trkpt lat="36.983409689427845" lon="-4.519942830163707"><ele>634.0</ele><time>2026-04-23T11:58:24.001Z</time></trkpt><trkpt lat="36.983379446263484" lon="-4.519725607192124"><ele>634.0</ele><time>2026-04-23T11:58:25.001Z</time></trkpt><trkpt lat="36.983367214061666" lon="-4.5195046689075795"><ele>634.0</ele><time>2026-04-23T11:58:26.001Z</time></trkpt><trkpt lat="36.98336238914677" lon="-4.519288496641644"><ele>635.3333333333334</ele><time>2026-04-23T11:58:27.001Z</time></trkpt><trkpt lat="36.98335521688826" lon="-4.51906855029965"><ele>636.6666666666666</ele><time>2026-04-23T11:58:28.001Z</time></trkpt><trkpt lat="36.98335298195696" lon="-4.518846448832482"><ele>638.0</ele><time>2026-04-23T11:58:29.001Z</time></trkpt><trkpt lat="36.98334905250552" lon="-4.518620212687317"><ele>646.0</ele><time>2026-04-23T11:58:30.001Z</time></trkpt><trkpt lat="36.983337437304364" lon="-4.5183935855699255"><ele>654.0</ele><time>2026-04-23T11:58:31.001Z</time></trkpt><trkpt lat="36.98331174646624" lon="-4.518164774586052"><ele>662.0</ele><time>2026-04-23T11:58:32.001Z</time></trkpt><trkpt lat="36.98327706871695" lon="-4.5179361926062045"><ele>662.0</ele><time>2026-04-23T11:58:33.001Z</time></trkpt><trkpt lat="36.98325411756995" lon="-4.517706315478833"><ele>662.0</ele><time>2026-04-23T11:58:34.001Z</time></trkpt><trkpt lat="36.983252449104846" lon="-4.517472614155226"><ele>662.0</ele><time>2026-04-23T11:58:35.001Z</time></trkpt><trkpt lat="36.98327226734731" lon="-4.517232940599412"><ele>664.3333333333333</ele><time>2026-04-23T11:58:36.001Z</time></trkpt><trkpt lat="36.98330029277218" lon="-4.517015828345085"><ele>666.6666666666666</ele><time>2026-04-23T11:58:37.001Z</time></trkpt><trkpt lat="36.983320299808334" lon="-4.516813749962634"><ele>669.0</ele><time>2026-04-23T11:58:38.001Z</time></trkpt><trkpt lat="36.983314511646284" lon="-4.5165998212014795"><ele>669.0</ele><time>2026-04-23T11:58:39.001Z</time></trkpt><trkpt lat="36.983278055042575" lon="-4.516390585621905"><ele>669.0</ele><time>2026-04-23T11:58:40.001Z</time></trkpt><trkpt lat="36.98322845308022" lon="-4.516186113297535"><ele>669.0</ele><time>2026-04-23T11:58:41.001Z</time></trkpt><trkpt lat="36.98317576578108" lon="-4.515969133888114"><ele>669.0</ele><time>2026-04-23T11:58:42.001Z</time></trkpt><trkpt lat="36.98312354534085" lon="-4.515751872809484"><ele>669.0</ele><time>2026-04-23T11:58:43.001Z</time></trkpt><trkpt lat="36.983067164516555" lon="-4.515537724549882"><ele>669.0</ele><time>2026-04-23T11:58:44.001Z</time></trkpt><trkpt lat="36.98300496828877" lon="-4.515330867624522"><ele>669.0</ele><time>2026-04-23T11:58:45.001Z</time></trkpt><trkpt lat="36.98294652088494" lon="-4.515125649255951"><ele>669.0</ele><time>2026-04-23T11:58:46.001Z</time></trkpt><trkpt lat="36.982895149203166" lon="-4.5149249942148355"><ele>669.0</ele><time>2026-04-23T11:58:47.001Z</time></trkpt><trkpt lat="36.98284239485801" lon="-4.5147304845243665"><ele>668.0</ele><time>2026-04-23T11:58:48.001Z</time></trkpt><trkpt lat="36.982785875994026" lon="-4.51453801317707"><ele>667.0</ele><time>2026-04-23T11:58:49.001Z</time></trkpt><trkpt lat="36.98273302800563" lon="-4.514348045243253"><ele>666.0</ele><time>2026-04-23T11:58:50.001Z</time></trkpt><trkpt lat="36.98267328949529" lon="-4.514153492067497"><ele>666.0</ele><time>2026-04-23T11:58:51.001Z</time></trkpt><trkpt lat="36.982610362187486" lon="-4.513968219607916"><ele>666.0</ele><time>2026-04-23T11:58:52.001Z</time></trkpt><trkpt lat="36.9825377014938" lon="-4.51379302663837"><ele>666.0</ele><time>2026-04-23T11:58:53.001Z</time></trkpt><trkpt lat="36.98245855280024" lon="-4.513619749116972"><ele>674.0</ele><time>2026-04-23T11:58:54.001Z</time></trkpt><trkpt lat="36.9823763505978" lon="-4.513453487304697"><ele>682.0</ele><time>2026-04-23T11:58:55.001Z</time></trkpt><trkpt lat="36.98230200284026" lon="-4.513287406198584"><ele>690.0</ele><time>2026-04-23T11:58:56.001Z</time></trkpt><trkpt lat="36.98223198167252" lon="-4.5131015327713015"><ele>690.0</ele><time>2026-04-23T11:58:57.001Z</time></trkpt><trkpt lat="36.982172544193915" lon="-4.512917876152432"><ele>690.0</ele><time>2026-04-23T11:58:58.001Z</time></trkpt><trkpt lat="36.98211528365501" lon="-4.512737655183142"><ele>690.0</ele><time>2026-04-23T11:58:59.001Z</time></trkpt><trkpt lat="36.982054443853585" lon="-4.512561617085485"><ele>690.0</ele><time>2026-04-23T11:59:00.001Z</time></trkpt><trkpt lat="36.981986383083864" lon="-4.512389874061631"><ele>690.0</ele><time>2026-04-23T11:59:01.001Z</time></trkpt><trkpt lat="36.9819149109751" lon="-4.512213278901962"><ele>690.0</ele><time>2026-04-23T11:59:02.001Z</time></trkpt><trkpt lat="36.98183922250028" lon="-4.512041836851058"><ele>690.0</ele><time>2026-04-23T11:59:03.001Z</time></trkpt><trkpt lat="36.98175981358181" lon="-4.511868826589988"><ele>690.0</ele><time>2026-04-23T11:59:04.001Z</time></trkpt><trkpt lat="36.98167813441211" lon="-4.511688837572682"><ele>690.0</ele><time>2026-04-23T11:59:05.001Z</time></trkpt><trkpt lat="36.98159897397561" lon="-4.511510804965056"><ele>696.25</ele><time>2026-04-23T11:59:06.001Z</time></trkpt><trkpt lat="36.981527010764296" lon="-4.511338298669753"><ele>702.5</ele><time>2026-04-23T11:59:07.001Z</time></trkpt><trkpt lat="36.98146417169892" lon="-4.511197523244205"><ele>708.75</ele><time>2026-04-23T11:59:08.001Z</time></trkpt><trkpt lat="36.98140118139471" lon="-4.511066493124658"><ele>715.0</ele><time>2026-04-23T11:59:09.001Z</time></trkpt><trkpt lat="36.981335459910746" lon="-4.510932112513578"><ele>715.0</ele><time>2026-04-23T11:59:10.001Z</time></trkpt><trkpt lat="36.98127077945317" lon="-4.510794669286759"><ele>715.0</ele><time>2026-04-23T11:59:11.001Z</time></trkpt><trkpt lat="36.98121431821793" lon="-4.510660946595811"><ele>715.0</ele><time>2026-04-23T11:59:12.001Z</time></trkpt><trkpt lat="36.981160510372696" lon="-4.510528571615745"><ele>715.0</ele><time>2026-04-23T11:59:13.001Z</time></trkpt><trkpt lat="36.981123577025556" lon="-4.5103806659834005"><ele>715.25</ele><time>2026-04-23T11:59:14.001Z</time></trkpt><trkpt lat="36.98112693171127" lon="-4.510207706444744"><ele>715.5</ele><time>2026-04-23T11:59:15.001Z</time></trkpt><trkpt lat="36.98113017682572" lon="-4.51003508556444"><ele>715.75</ele><time>2026-04-23T11:59:16.001Z</time></trkpt><trkpt lat="36.98113766008314" lon="-4.50987003413952"><ele>716.0</ele><time>2026-04-23T11:59:17.001Z</time></trkpt><trkpt lat="36.98113738059068" lon="-4.509708256723609"><ele>716.5</ele><time>2026-04-23T11:59:18.001Z</time></trkpt><trkpt lat="36.98111738798471" lon="-4.509546673366373"><ele>717.0</ele><time>2026-04-23T11:59:19.001Z</time></trkpt><trkpt lat="36.98106471804955" lon="-4.509389265843932"><ele>717.5</ele><time>2026-04-23T11:59:20.001Z</time></trkpt><trkpt lat="36.98098251146863" lon="-4.509242199548714"><ele>718.0</ele><time>2026-04-23T11:59:21.001Z</time></trkpt><trkpt lat="36.980866548642574" lon="-4.509090970945805"><ele>722.6666666666667</ele><time>2026-04-23T11:59:22.001Z</time></trkpt><trkpt lat="36.98073390105256" lon="-4.508954168548361"><ele>727.3333333333334</ele><time>2026-04-23T11:59:23.001Z</time></trkpt><trkpt lat="36.980590118312584" lon="-4.508825525586861"><ele>732.0</ele><time>2026-04-23T11:59:24.001Z</time></trkpt><trkpt lat="36.980475033773864" lon="-4.508673057630972"><ele>732.0</ele><time>2026-04-23T11:59:25.001Z</time></trkpt><trkpt lat="36.9803533869759" lon="-4.508543973524823"><ele>732.0</ele><time>2026-04-23T11:59:26.001Z</time></trkpt><trkpt lat="36.98028943009635" lon="-4.508388334409707"><ele>732.0</ele><time>2026-04-23T11:59:28.001Z</time></trkpt><trkpt lat="36.98019841167669" lon="-4.508293996983657"><ele>732.0</ele><time>2026-04-23T11:59:29.001Z</time></trkpt><trkpt lat="36.98010044191807" lon="-4.508186089840895"><ele>734.25</ele><time>2026-04-23T11:59:30.001Z</time></trkpt><trkpt lat="36.98000984008527" lon="-4.508052094092946"><ele>736.5</ele><time>2026-04-23T11:59:31.001Z</time></trkpt><trkpt lat="36.97990360716994" lon="-4.507935284663082"><ele>738.75</ele><time>2026-04-23T11:59:32.001Z</time></trkpt><trkpt lat="36.97980301364177" lon="-4.507806033635424"><ele>741.0</ele><time>2026-04-23T11:59:33.001Z</time></trkpt><trkpt lat="36.97971237227218" lon="-4.5076665548007995"><ele>741.0</ele><time>2026-04-23T11:59:34.001Z</time></trkpt><trkpt lat="36.97962909311894" lon="-4.507522033282943"><ele>741.0</ele><time>2026-04-23T11:59:35.001Z</time></trkpt><trkpt lat="36.97955772278575" lon="-4.507384952752768"><ele>741.0</ele><time>2026-04-23T11:59:36.001Z</time></trkpt><trkpt lat="36.97949394770153" lon="-4.50726310659799"><ele>741.0</ele><time>2026-04-23T11:59:37.001Z</time></trkpt><trkpt lat="36.97943402978645" lon="-4.507152694006243"><ele>738.1999999999999</ele><time>2026-04-23T11:59:38.001Z</time></trkpt><trkpt lat="36.97937466111754" lon="-4.507051365503131"><ele>735.4</ele><time>2026-04-23T11:59:39.001Z</time></trkpt><trkpt lat="36.97931279776577" lon="-4.506952934176638"><ele>732.6</ele><time>2026-04-23T11:59:40.001Z</time></trkpt><trkpt lat="36.97926006075245" lon="-4.506867000833018"><ele>729.8</ele><time>2026-04-23T11:59:41.001Z</time></trkpt><trkpt lat="36.9792169757037" lon="-4.5067978286071"><ele>727.0</ele><time>2026-04-23T11:59:42.001Z</time></trkpt><trkpt lat="36.979154165275325" lon="-4.506702288479589"><ele>730.3333333333334</ele><time>2026-04-23T11:59:44.001Z</time></trkpt><trkpt lat="36.979106550618475" lon="-4.506647808938039"><ele>733.6666666666667</ele><time>2026-04-23T11:59:46.001Z</time></trkpt><trkpt lat="36.97907432213737" lon="-4.506547777383856"><ele>737.0</ele><time>2026-04-23T12:06:14.001Z</time></trkpt><trkpt lat="36.97902431591244" lon="-4.506463870705605"><ele>740.3333333333334</ele><time>2026-04-23T12:06:16.001Z</time></trkpt><trkpt lat="36.978952006433964" lon="-4.506364623496341"><ele>743.6666666666666</ele><time>2026-04-23T12:06:18.001Z</time></trkpt><trkpt lat="36.9789128866202" lon="-4.5062964604450215"><ele>747.0</ele><time>2026-04-23T12:06:19.001Z</time></trkpt><trkpt lat="36.97883518036949" lon="-4.5061672617171125"><ele>747.0</ele><time>2026-04-23T12:06:21Z</time></trkpt><trkpt lat="36.97878168884315" lon="-4.506094087359304"><ele>747.0</ele><time>2026-04-23T12:06:22Z</time></trkpt><trkpt lat="36.97873681960107" lon="-4.506029620526308"><ele>747.0</ele><time>2026-04-23T12:06:23Z</time></trkpt><trkpt lat="36.978690562403095" lon="-4.505960295545483"><ele>747.0</ele><time>2026-04-23T12:06:24Z</time></trkpt><trkpt lat="36.978641252250355" lon="-4.505873340554884"><ele>747.0</ele><time>2026-04-23T12:06:25Z</time></trkpt><trkpt lat="36.97858721311935" lon="-4.505798709069736"><ele>747.0</ele><time>2026-04-23T12:06:26Z</time></trkpt><trkpt lat="36.97853953835439" lon="-4.505721804297788"><ele>747.0</ele><time>2026-04-23T12:06:27Z</time></trkpt><trkpt lat="36.97848788838524" lon="-4.505644650879913"><ele>747.0</ele><time>2026-04-23T12:06:28Z</time></trkpt><trkpt lat="36.978429512299016" lon="-4.505553662283467"><ele>747.0</ele><time>2026-04-23T12:06:29Z</time></trkpt><trkpt lat="36.97836998331804" lon="-4.5054662650610835"><ele>747.0</ele><time>2026-04-23T12:06:30Z</time></trkpt><trkpt lat="36.97829609971224" lon="-4.50537704199118"><ele>747.0</ele><time>2026-04-23T12:06:31Z</time></trkpt><trkpt lat="36.978219028018756" lon="-4.505274730074337"><ele>749.75</ele><time>2026-04-23T12:06:32Z</time></trkpt><trkpt lat="36.97813661905162" lon="-4.505171536423127"><ele>752.5</ele><time>2026-04-23T12:06:33Z</time></trkpt><trkpt lat="36.9780492001767" lon="-4.5050543213289895"><ele>755.25</ele><time>2026-04-23T12:06:34Z</time></trkpt><trkpt lat="36.977980284861" lon="-4.504940158213088"><ele>758.0</ele><time>2026-04-23T12:06:35Z</time></trkpt><trkpt lat="36.97790177993391" lon="-4.5048060803964685"><ele>758.0</ele><time>2026-04-23T12:06:36Z</time></trkpt><trkpt lat="36.97781532247708" lon="-4.504657760424391"><ele>758.0</ele><time>2026-04-23T12:06:37Z</time></trkpt><trkpt lat="36.977727042541744" lon="-4.5044977153677035"><ele>758.0</ele><time>2026-04-23T12:06:38Z</time></trkpt><trkpt lat="36.97763328407693" lon="-4.504330436838724"><ele>757.0</ele><time>2026-04-23T12:06:39Z</time></trkpt><trkpt lat="36.97753419135592" lon="-4.5041638805801165"><ele>756.0</ele><time>2026-04-23T12:06:40Z</time></trkpt><trkpt lat="36.97743004143154" lon="-4.503996186560188"><ele>755.0</ele><time>2026-04-23T12:06:41Z</time></trkpt><trkpt lat="36.97732111686384" lon="-4.503826483059573"><ele>758.3333333333333</ele><time>2026-04-23T12:06:42Z</time></trkpt><trkpt lat="36.97721450595004" lon="-4.503658986258025"><ele>761.6666666666666</ele><time>2026-04-23T12:06:43Z</time></trkpt><trkpt lat="36.977107659559906" lon="-4.503501816985499"><ele>765.0</ele><time>2026-04-23T12:06:44Z</time></trkpt><trkpt lat="36.97700759253938" lon="-4.503349755744542"><ele>765.0</ele><time>2026-04-23T12:06:45Z</time></trkpt><trkpt lat="36.97691271859024" lon="-4.503190543463959"><ele>765.0</ele><time>2026-04-23T12:06:46Z</time></trkpt><trkpt lat="36.9768249775161" lon="-4.503025611048867"><ele>765.0</ele><time>2026-04-23T12:06:47Z</time></trkpt><trkpt lat="36.976748271162805" lon="-4.502846756090328"><ele>772.0</ele><time>2026-04-23T12:06:48Z</time></trkpt><trkpt lat="36.97666332882091" lon="-4.502659269880056"><ele>779.0</ele><time>2026-04-23T12:06:49Z</time></trkpt><trkpt lat="36.976572227633405" lon="-4.502476204924968"><ele>786.0</ele><time>2026-04-23T12:06:50Z</time></trkpt><trkpt lat="36.976482712138264" lon="-4.502297175791788"><ele>786.0</ele><time>2026-04-23T12:06:51Z</time></trkpt><trkpt lat="36.97639443357272" lon="-4.502131556743919"><ele>786.0</ele><time>2026-04-23T12:06:52Z</time></trkpt><trkpt lat="36.976303186814114" lon="-4.501970349583989"><ele>786.0</ele><time>2026-04-23T12:06:53Z</time></trkpt><trkpt lat="36.97620931740015" lon="-4.501804006936883"><ele>783.6666666666667</ele><time>2026-04-23T12:06:54Z</time></trkpt><trkpt lat="36.97611820068019" lon="-4.501631562031372"><ele>781.3333333333334</ele><time>2026-04-23T12:06:55Z</time></trkpt><trkpt lat="36.976035599374164" lon="-4.501453796356715"><ele>779.0</ele><time>2026-04-23T12:06:56Z</time></trkpt><trkpt lat="36.975958185804664" lon="-4.501275308962835"><ele>779.3333333333334</ele><time>2026-04-23T12:06:57Z</time></trkpt><trkpt lat="36.975894361027756" lon="-4.501094064992"><ele>779.6666666666667</ele><time>2026-04-23T12:06:58Z</time></trkpt><trkpt lat="36.97583647726381" lon="-4.500902019510759"><ele>780.0</ele><time>2026-04-23T12:06:59Z</time></trkpt><trkpt lat="36.9757760044301" lon="-4.500709349414846"><ele>787.0</ele><time>2026-04-23T12:07:00Z</time></trkpt><trkpt lat="36.97570601993391" lon="-4.500528637441896"><ele>794.0</ele><time>2026-04-23T12:07:01Z</time></trkpt><trkpt lat="36.975630068067964" lon="-4.5003461157651925"><ele>801.0</ele><time>2026-04-23T12:07:02Z</time></trkpt><trkpt lat="36.97554093871942" lon="-4.500159598132206"><ele>801.0</ele><time>2026-04-23T12:07:03Z</time></trkpt><trkpt lat="36.9754443367532" lon="-4.499974166429842"><ele>801.0</ele><time>2026-04-23T12:07:04Z</time></trkpt><trkpt lat="36.9753394092496" lon="-4.499793178806704"><ele>801.0</ele><time>2026-04-23T12:07:05Z</time></trkpt><trkpt lat="36.9752402671393" lon="-4.499618034118274"><ele>800.6666666666667</ele><time>2026-04-23T12:07:06Z</time></trkpt><trkpt lat="36.97515617372447" lon="-4.4994404593170385"><ele>800.3333333333334</ele><time>2026-04-23T12:07:07Z</time></trkpt><trkpt lat="36.97508311065988" lon="-4.499254411936636"><ele>800.0</ele><time>2026-04-23T12:07:08Z</time></trkpt><trkpt lat="36.97499670245651" lon="-4.4990775787882615"><ele>806.0</ele><time>2026-04-23T12:07:09Z</time></trkpt><trkpt lat="36.97488957845706" lon="-4.498903633029853"><ele>812.0</ele><time>2026-04-23T12:07:10Z</time></trkpt><trkpt lat="36.974781459193395" lon="-4.498735954959443"><ele>818.0</ele><time>2026-04-23T12:07:11Z</time></trkpt><trkpt lat="36.974682893633386" lon="-4.498561039067801"><ele>818.0</ele><time>2026-04-23T12:07:12Z</time></trkpt><trkpt lat="36.97458481005023" lon="-4.498376516673097"><ele>818.0</ele><time>2026-04-23T12:07:13Z</time></trkpt><trkpt lat="36.97448980867325" lon="-4.498188283194609"><ele>818.0</ele><time>2026-04-23T12:07:14Z</time></trkpt><trkpt lat="36.97439177322958" lon="-4.497995473278042"><ele>815.6666666666667</ele><time>2026-04-23T12:07:15Z</time></trkpt><trkpt lat="36.974297752962734" lon="-4.497805885794376"><ele>813.3333333333333</ele><time>2026-04-23T12:07:16Z</time></trkpt><trkpt lat="36.97420890094638" lon="-4.497631822005889"><ele>811.0</ele><time>2026-04-23T12:07:17Z</time></trkpt><trkpt lat="36.974127253253975" lon="-4.497455159935955"><ele>814.25</ele><time>2026-04-23T12:07:18Z</time></trkpt><trkpt lat="36.974055849960756" lon="-4.497287256604887"><ele>817.5</ele><time>2026-04-23T12:07:19Z</time></trkpt><trkpt lat="36.97398461304427" lon="-4.497129818501835"><ele>820.75</ele><time>2026-04-23T12:07:20Z</time></trkpt><trkpt lat="36.973907803797424" lon="-4.496973411819609"><ele>824.0</ele><time>2026-04-23T12:07:21Z</time></trkpt><trkpt lat="36.97383375494447" lon="-4.496820035313403"><ele>824.0</ele><time>2026-04-23T12:07:22Z</time></trkpt><trkpt lat="36.97377202234755" lon="-4.496672252649606"><ele>824.0</ele><time>2026-04-23T12:07:23Z</time></trkpt><trkpt lat="36.97373849820615" lon="-4.496508503175044"><ele>824.0</ele><time>2026-04-23T12:07:24Z</time></trkpt><trkpt lat="36.973733370668505" lon="-4.496312441335295"><ele>824.0</ele><time>2026-04-23T12:07:25Z</time></trkpt><trkpt lat="36.97374247193737" lon="-4.496103224195286"><ele>825.0</ele><time>2026-04-23T12:07:26Z</time></trkpt><trkpt lat="36.973741691954295" lon="-4.495911155815681"><ele>826.0</ele><time>2026-04-23T12:07:27Z</time></trkpt><trkpt lat="36.97373605422938" lon="-4.495725875964873"><ele>827.0</ele><time>2026-04-23T12:07:28Z</time></trkpt><trkpt lat="36.973744186309446" lon="-4.495551349822818"><ele>828.0</ele><time>2026-04-23T12:07:29Z</time></trkpt><trkpt lat="36.97377463001501" lon="-4.495390140783703"><ele>830.25</ele><time>2026-04-23T12:07:30Z</time></trkpt><trkpt lat="36.97383088339423" lon="-4.49524219399036"><ele>832.5</ele><time>2026-04-23T12:07:31Z</time></trkpt><trkpt lat="36.97389949309617" lon="-4.4951090105239135"><ele>834.75</ele><time>2026-04-23T12:07:32Z</time></trkpt><trkpt lat="36.97395860713834" lon="-4.4949842891426774"><ele>837.0</ele><time>2026-04-23T12:07:33Z</time></trkpt><trkpt lat="36.97400918586852" lon="-4.494873297848573"><ele>837.0</ele><time>2026-04-23T12:07:34Z</time></trkpt><trkpt lat="36.97404987510749" lon="-4.494778444057551"><ele>837.0</ele><time>2026-04-23T12:07:35.001Z</time></trkpt><trkpt lat="36.97404514925063" lon="-4.49469027391852"><ele>837.0</ele><time>2026-04-23T12:07:36.001Z</time></trkpt><trkpt lat="36.9739991970614" lon="-4.4946312705525"><ele>837.0</ele><time>2026-04-23T12:07:37.001Z</time></trkpt><trkpt lat="36.97393194281798" lon="-4.494626425699762"><ele>837.0</ele><time>2026-04-23T12:07:38.001Z</time></trkpt><trkpt lat="36.97387496640316" lon="-4.494716942697345"><ele>837.0</ele><time>2026-04-23T12:07:39.001Z</time></trkpt><trkpt lat="36.97378220683707" lon="-4.49477556801663"><ele>837.0</ele><time>2026-04-23T12:07:40.001Z</time></trkpt><trkpt lat="36.973667257401885" lon="-4.494894958621563"><ele>837.0</ele><time>2026-04-23T12:07:41.001Z</time></trkpt><trkpt lat="36.97355147745327" lon="-4.495001359970698"><ele>837.0</ele><time>2026-04-23T12:07:42.001Z</time></trkpt><trkpt lat="36.97347239668246" lon="-4.4950705241058255"><ele>837.0</ele><time>2026-04-23T12:07:43.001Z</time></trkpt><trkpt lat="36.97341212189808" lon="-4.495123136767868"><ele>837.0</ele><time>2026-04-23T12:07:44.001Z</time></trkpt><trkpt lat="36.97329833547173" lon="-4.4951226312878285"><ele>837.0</ele><time>2026-04-23T12:07:46.001Z</time></trkpt><trkpt lat="36.97327105617003" lon="-4.494977915532634"><ele>837.0</ele><time>2026-04-23T12:07:47.001Z</time></trkpt><trkpt lat="36.9732978172923" lon="-4.494873813035751"><ele>837.0</ele><time>2026-04-23T12:07:48.001Z</time></trkpt><trkpt lat="36.97336187341319" lon="-4.494769877925667"><ele>837.0</ele><time>2026-04-23T12:07:49.001Z</time></trkpt><trkpt lat="36.97344517227514" lon="-4.49465308571352"><ele>838.25</ele><time>2026-04-23T12:07:50.001Z</time></trkpt><trkpt lat="36.97352667512489" lon="-4.49450501171572"><ele>839.5</ele><time>2026-04-23T12:07:51.001Z</time></trkpt><trkpt lat="36.97359429646737" lon="-4.494342014866409"><ele>840.75</ele><time>2026-04-23T12:07:52.001Z</time></trkpt><trkpt lat="36.97365365297676" lon="-4.494183826498506"><ele>842.0</ele><time>2026-04-23T12:07:53.001Z</time></trkpt><trkpt lat="36.973703976692526" lon="-4.4940111248591"><ele>842.0</ele><time>2026-04-23T12:07:54.001Z</time></trkpt><trkpt lat="36.97373484220074" lon="-4.493823403911257"><ele>842.0</ele><time>2026-04-23T12:07:55.001Z</time></trkpt><trkpt lat="36.97375090762261" lon="-4.493623370859122"><ele>842.0</ele><time>2026-04-23T12:07:56.001Z</time></trkpt><trkpt lat="36.973755430016794" lon="-4.493418058302246"><ele>844.0</ele><time>2026-04-23T12:07:57.001Z</time></trkpt><trkpt lat="36.97376159337198" lon="-4.49320946307753"><ele>846.0</ele><time>2026-04-23T12:07:58Z</time></trkpt><trkpt lat="36.97376923154419" lon="-4.493022379571927"><ele>848.0</ele><time>2026-04-23T12:07:59Z</time></trkpt><trkpt lat="36.97378060140826" lon="-4.492856415098087"><ele>850.0</ele><time>2026-04-23T12:08:00Z</time></trkpt><trkpt lat="36.97379109472839" lon="-4.4927284249152555"><ele>851.4999999999999</ele><time>2026-04-23T12:08:01Z</time></trkpt><trkpt lat="36.973796779867705" lon="-4.492608245318447"><ele>853.0</ele><time>2026-04-23T12:08:02Z</time></trkpt><trkpt lat="36.973802858220104" lon="-4.492504117402566"><ele>854.5</ele><time>2026-04-23T12:08:03Z</time></trkpt><trkpt lat="36.97380196445669" lon="-4.492419706803152"><ele>856.0</ele><time>2026-04-23T12:08:04Z</time></trkpt><trkpt lat="36.97370286696937" lon="-4.492342356767378"><ele>857.4999999999999</ele><time>2026-04-23T12:08:06Z</time></trkpt><trkpt lat="36.97363386364011" lon="-4.4923866020802965"><ele>859.0</ele><time>2026-04-23T12:08:07Z</time></trkpt><trkpt lat="36.97359440826143" lon="-4.492495935875577"><ele>859.0</ele><time>2026-04-23T12:08:08Z</time></trkpt><trkpt lat="36.97356359798235" lon="-4.4926208508896845"><ele>859.0</ele><time>2026-04-23T12:08:09Z</time></trkpt><trkpt lat="36.973520602357574" lon="-4.492782752704868"><ele>859.0</ele><time>2026-04-23T12:08:10Z</time></trkpt><trkpt lat="36.973471576843416" lon="-4.492958859695369"><ele>859.0</ele><time>2026-04-23T12:08:11Z</time></trkpt><trkpt lat="36.97344879453618" lon="-4.49313820326959"><ele>860.25</ele><time>2026-04-23T12:08:12Z</time></trkpt><trkpt lat="36.97345477005161" lon="-4.493321369367221"><ele>861.5</ele><time>2026-04-23T12:08:13Z</time></trkpt><trkpt lat="36.973424546713275" lon="-4.493505424007652"><ele>862.75</ele><time>2026-04-23T12:08:14Z</time></trkpt><trkpt lat="36.97339401911469" lon="-4.493688368028035"><ele>864.0</ele><time>2026-04-23T12:08:15Z</time></trkpt><trkpt lat="36.973331256504" lon="-4.493868218210664"><ele>864.0</ele><time>2026-04-23T12:08:16Z</time></trkpt><trkpt lat="36.97324123448203" lon="-4.494036565849706"><ele>864.0</ele><time>2026-04-23T12:08:17Z</time></trkpt><trkpt lat="36.97314283832901" lon="-4.494192307053968"><ele>864.0</ele><time>2026-04-23T12:08:18Z</time></trkpt><trkpt lat="36.97303976635674" lon="-4.494342104837933"><ele>864.0</ele><time>2026-04-23T12:08:19Z</time></trkpt><trkpt lat="36.97294363592327" lon="-4.494509411625603"><ele>864.0</ele><time>2026-04-23T12:08:20Z</time></trkpt><trkpt lat="36.9728298678721" lon="-4.4946623636555545"><ele>864.0</ele><time>2026-04-23T12:08:21Z</time></trkpt><trkpt lat="36.97270850182538" lon="-4.49481687609862"><ele>866.6666666666667</ele><time>2026-04-23T12:08:22Z</time></trkpt><trkpt lat="36.97258508400063" lon="-4.4949696985367735"><ele>869.3333333333334</ele><time>2026-04-23T12:08:23Z</time></trkpt><trkpt lat="36.97246121780287" lon="-4.495123076250203"><ele>872.0</ele><time>2026-04-23T12:08:24Z</time></trkpt><trkpt lat="36.97233805311625" lon="-4.495284514016814"><ele>868.0</ele><time>2026-04-23T12:08:25Z</time></trkpt><trkpt lat="36.97222184011638" lon="-4.495463160224318"><ele>864.0</ele><time>2026-04-23T12:08:26Z</time></trkpt><trkpt lat="36.97212182142801" lon="-4.495645853174048"><ele>860.0</ele><time>2026-04-23T12:08:27Z</time></trkpt><trkpt lat="36.9720313457479" lon="-4.4958441713527995"><ele>860.0</ele><time>2026-04-23T12:08:28Z</time></trkpt><trkpt lat="36.971953313766505" lon="-4.496043831361469"><ele>860.0</ele><time>2026-04-23T12:08:29Z</time></trkpt><trkpt lat="36.97188364760699" lon="-4.496245921900778"><ele>860.0</ele><time>2026-04-23T12:08:30Z</time></trkpt><trkpt lat="36.971812283577364" lon="-4.4964229000130524"><ele>861.3333333333334</ele><time>2026-04-23T12:08:31Z</time></trkpt><trkpt lat="36.97175024517933" lon="-4.496603221175692"><ele>862.6666666666667</ele><time>2026-04-23T12:08:32Z</time></trkpt><trkpt lat="36.971670061052656" lon="-4.496763418433575"><ele>864.0</ele><time>2026-04-23T12:08:33Z</time></trkpt><trkpt lat="36.971565285292954" lon="-4.496906456692485"><ele>871.0</ele><time>2026-04-23T12:08:34Z</time></trkpt><trkpt lat="36.97144321381998" lon="-4.497039725538007"><ele>878.0</ele><time>2026-04-23T12:08:35Z</time></trkpt><trkpt lat="36.97133989046491" lon="-4.497182445077203"><ele>885.0</ele><time>2026-04-23T12:08:36Z</time></trkpt><trkpt lat="36.97126210437321" lon="-4.497334686589414"><ele>888.3333333333333</ele><time>2026-04-23T12:08:37Z</time></trkpt><trkpt lat="36.97121398361646" lon="-4.497510646950533"><ele>891.6666666666666</ele><time>2026-04-23T12:08:38Z</time></trkpt><trkpt lat="36.971150094340956" lon="-4.497696443404753"><ele>895.0</ele><time>2026-04-23T12:08:39Z</time></trkpt><trkpt lat="36.97105572189652" lon="-4.497874229997459"><ele>895.3333333333333</ele><time>2026-04-23T12:08:40Z</time></trkpt><trkpt lat="36.97096602865436" lon="-4.498053878958998"><ele>895.6666666666667</ele><time>2026-04-23T12:08:41Z</time></trkpt><trkpt lat="36.970865263133255" lon="-4.498231694635234"><ele>896.0</ele><time>2026-04-23T12:08:42Z</time></trkpt><trkpt lat="36.97076824279322" lon="-4.498401240439099"><ele>896.0</ele><time>2026-04-23T12:08:43Z</time></trkpt><trkpt lat="36.970674483932" lon="-4.498581809458768"><ele>896.0</ele><time>2026-04-23T12:08:44Z</time></trkpt><trkpt lat="36.970575330754" lon="-4.498761684238762"><ele>896.0</ele><time>2026-04-23T12:08:45Z</time></trkpt><trkpt lat="36.97047862772996" lon="-4.498933641549358"><ele>900.6666666666667</ele><time>2026-04-23T12:08:46Z</time></trkpt><trkpt lat="36.97038334484468" lon="-4.49911279335802"><ele>905.3333333333333</ele><time>2026-04-23T12:08:47Z</time></trkpt><trkpt lat="36.97028893353235" lon="-4.499294334509877"><ele>910.0</ele><time>2026-04-23T12:08:48Z</time></trkpt><trkpt lat="36.97019072225851" lon="-4.499462571922075"><ele>910.3333333333333</ele><time>2026-04-23T12:08:49Z</time></trkpt><trkpt lat="36.97009166676698" lon="-4.499628600420859"><ele>910.6666666666667</ele><time>2026-04-23T12:08:50Z</time></trkpt><trkpt lat="36.96999976228426" lon="-4.499798056567783"><ele>911.0</ele><time>2026-04-23T12:08:51Z</time></trkpt><trkpt lat="36.96991162737083" lon="-4.499958695826738"><ele>911.0</ele><time>2026-04-23T12:08:52Z</time></trkpt><trkpt lat="36.969832568553166" lon="-4.500098212822356"><ele>910.9999999999999</ele><time>2026-04-23T12:08:53Z</time></trkpt><trkpt lat="36.969771854075525" lon="-4.5002091237136685"><ele>910.9999999999999</ele><time>2026-04-23T12:08:54Z</time></trkpt><trkpt lat="36.96972683476713" lon="-4.5003056459668835"><ele>911.0</ele><time>2026-04-23T12:08:54.999Z</time></trkpt><trkpt lat="36.9697330913321" lon="-4.500436776530493"><ele>911.0</ele><time>2026-04-23T12:08:56.999Z</time></trkpt><trkpt lat="36.96980079389704" lon="-4.500473941307037"><ele>911.0</ele><time>2026-04-23T12:08:57.999Z</time></trkpt><trkpt lat="36.9698888770065" lon="-4.500459045638743"><ele>911.0</ele><time>2026-04-23T12:08:58.999Z</time></trkpt><trkpt lat="36.96998897952934" lon="-4.50040552892594"><ele>911.0</ele><time>2026-04-23T12:08:59.999Z</time></trkpt><trkpt lat="36.970104561176385" lon="-4.5003400870235115"><ele>911.0</ele><time>2026-04-23T12:09:00.999Z</time></trkpt><trkpt lat="36.970225820797154" lon="-4.500294974934415"><ele>913.3333333333334</ele><time>2026-04-23T12:09:01.999Z</time></trkpt><trkpt lat="36.970330518260326" lon="-4.500277542716941"><ele>915.6666666666667</ele><time>2026-04-23T12:09:02.999Z</time></trkpt><trkpt lat="36.97041246819482" lon="-4.5002983073230896"><ele>918.0</ele><time>2026-04-23T12:09:03.999Z</time></trkpt><trkpt lat="36.97047872542316" lon="-4.500366592181602"><ele>920.3333333333333</ele><time>2026-04-23T12:09:04.999Z</time></trkpt><trkpt lat="36.97050892992075" lon="-4.5004557460870185"><ele>922.6666666666666</ele><time>2026-04-23T12:09:05.999Z</time></trkpt><trkpt lat="36.97049314807066" lon="-4.500561355118006"><ele>925.0</ele><time>2026-04-23T12:09:06.999Z</time></trkpt><trkpt lat="36.97041691984947" lon="-4.500657504350927"><ele>925.25</ele><time>2026-04-23T12:09:07.999Z</time></trkpt><trkpt lat="36.97030939684512" lon="-4.500746664896266"><ele>925.5</ele><time>2026-04-23T12:09:08.999Z</time></trkpt><trkpt lat="36.97020041432036" lon="-4.500848937008048"><ele>925.75</ele><time>2026-04-23T12:09:09.999Z</time></trkpt><trkpt lat="36.970085433524964" lon="-4.5009707808949475"><ele>926.0</ele><time>2026-04-23T12:09:10.999Z</time></trkpt><trkpt lat="36.96996379887803" lon="-4.50109350452038"><ele>926.0</ele><time>2026-04-23T12:09:11.999Z</time></trkpt><trkpt lat="36.969840997290575" lon="-4.501226171200014"><ele>926.0</ele><time>2026-04-23T12:09:12.999Z</time></trkpt><trkpt lat="36.96972206588786" lon="-4.50136103081486"><ele>926.0</ele><time>2026-04-23T12:09:13.999Z</time></trkpt><trkpt lat="36.96961286470352" lon="-4.5015042766213975"><ele>933.0</ele><time>2026-04-23T12:09:14.999Z</time></trkpt><trkpt lat="36.969505720480285" lon="-4.501655739784455"><ele>940.0</ele><time>2026-04-23T12:09:15.999Z</time></trkpt><trkpt lat="36.96939605452051" lon="-4.501820300187765"><ele>947.0</ele><time>2026-04-23T12:09:16.999Z</time></trkpt><trkpt lat="36.96929746448326" lon="-4.501990625897927"><ele>947.6666666666667</ele><time>2026-04-23T12:09:17.999Z</time></trkpt><trkpt lat="36.96921084715817" lon="-4.5021728339920015"><ele>948.3333333333333</ele><time>2026-04-23T12:09:18.999Z</time></trkpt><trkpt lat="36.96913484620558" lon="-4.5023581314602605"><ele>949.0</ele><time>2026-04-23T12:09:19.999Z</time></trkpt><trkpt lat="36.96905863425126" lon="-4.5025221262102235"><ele>949.0</ele><time>2026-04-23T12:09:20.999Z</time></trkpt><trkpt lat="36.96897776840888" lon="-4.502669379821978"><ele>949.0</ele><time>2026-04-23T12:09:21.999Z</time></trkpt><trkpt lat="36.96888259441806" lon="-4.502806955643457"><ele>949.0</ele><time>2026-04-23T12:09:22.999Z</time></trkpt><trkpt lat="36.96877680158586" lon="-4.502940484943868"><ele>949.0</ele><time>2026-04-23T12:09:23.999Z</time></trkpt><trkpt lat="36.968670980308325" lon="-4.503078187821892"><ele>952.6666666666666</ele><time>2026-04-23T12:09:24.999Z</time></trkpt><trkpt lat="36.96855504818837" lon="-4.503209618066305"><ele>956.3333333333333</ele><time>2026-04-23T12:09:25.999Z</time></trkpt><trkpt lat="36.96842728414528" lon="-4.503341978865237"><ele>960.0</ele><time>2026-04-23T12:09:26.999Z</time></trkpt><trkpt lat="36.96829782956497" lon="-4.503466345356879"><ele>960.0</ele><time>2026-04-23T12:09:27.999Z</time></trkpt><trkpt lat="36.9681768800239" lon="-4.503583422119634"><ele>960.0</ele><time>2026-04-23T12:09:28.999Z</time></trkpt><trkpt lat="36.968066246395146" lon="-4.5036903705195295"><ele>960.0</ele><time>2026-04-23T12:09:29.999Z</time></trkpt><trkpt lat="36.96796660875609" lon="-4.503782063439985"><ele>960.0</ele><time>2026-04-23T12:09:30.999Z</time></trkpt><trkpt lat="36.96786755110052" lon="-4.5038751329143"><ele>958.75</ele><time>2026-04-23T12:09:31.999Z</time></trkpt><trkpt lat="36.967767238844964" lon="-4.503994146898562"><ele>957.5</ele><time>2026-04-23T12:09:32.999Z</time></trkpt><trkpt lat="36.96767575026382" lon="-4.504132057657119"><ele>956.25</ele><time>2026-04-23T12:09:33.999Z</time></trkpt><trkpt lat="36.96759430016265" lon="-4.504274737908077"><ele>955.0</ele><time>2026-04-23T12:09:34.999Z</time></trkpt><trkpt lat="36.96751269367051" lon="-4.504410704918593"><ele>955.0</ele><time>2026-04-23T12:09:35.999Z</time></trkpt><trkpt lat="36.96743394437595" lon="-4.504556740453032"><ele>955.0</ele><time>2026-04-23T12:09:36.999Z</time></trkpt><trkpt lat="36.967354838412625" lon="-4.504706045731392"><ele>955.0</ele><time>2026-04-23T12:09:37.999Z</time></trkpt><trkpt lat="36.96727869392095" lon="-4.504850258376024"><ele>955.0</ele><time>2026-04-23T12:09:38.999Z</time></trkpt><trkpt lat="36.96720897069798" lon="-4.5049828159095435"><ele>957.75</ele><time>2026-04-23T12:09:39.999Z</time></trkpt><trkpt lat="36.967140668137844" lon="-4.505111954591166"><ele>960.5</ele><time>2026-04-23T12:09:41Z</time></trkpt><trkpt lat="36.967069301799135" lon="-4.505253755285471"><ele>963.25</ele><time>2026-04-23T12:09:42Z</time></trkpt><trkpt lat="36.967005917441" lon="-4.505399086346397"><ele>966.0</ele><time>2026-04-23T12:09:43Z</time></trkpt><trkpt lat="36.96694584013854" lon="-4.505544711399843"><ele>968.25</ele><time>2026-04-23T12:09:44Z</time></trkpt><trkpt lat="36.96688445585143" lon="-4.50569158033275"><ele>970.5</ele><time>2026-04-23T12:09:45Z</time></trkpt><trkpt lat="36.966826159069825" lon="-4.50583928390127"><ele>972.75</ele><time>2026-04-23T12:09:46Z</time></trkpt><trkpt lat="36.96677253624857" lon="-4.505980192000886"><ele>975.0</ele><time>2026-04-23T12:09:47Z</time></trkpt><trkpt lat="36.966719715199446" lon="-4.506123179836042"><ele>971.75</ele><time>2026-04-23T12:09:48Z</time></trkpt><trkpt lat="36.96667105073223" lon="-4.506270414211554"><ele>968.5</ele><time>2026-04-23T12:09:49Z</time></trkpt><trkpt lat="36.96662202455199" lon="-4.506415256035696"><ele>965.25</ele><time>2026-04-23T12:09:50Z</time></trkpt><trkpt lat="36.96657996359194" lon="-4.506568926232436"><ele>962.0</ele><time>2026-04-23T12:09:51Z</time></trkpt><trkpt lat="36.96654436548371" lon="-4.506725396379644"><ele>962.0</ele><time>2026-04-23T12:09:52Z</time></trkpt><trkpt lat="36.96650823865962" lon="-4.506882559355375"><ele>962.0</ele><time>2026-04-23T12:09:53Z</time></trkpt><trkpt lat="36.966465404589655" lon="-4.507040943929409"><ele>962.0</ele><time>2026-04-23T12:09:54Z</time></trkpt><trkpt lat="36.96641861989984" lon="-4.507198890103519"><ele>962.0</ele><time>2026-04-23T12:09:55Z</time></trkpt><trkpt lat="36.9663630189211" lon="-4.507357343947662"><ele>964.5</ele><time>2026-04-23T12:09:56Z</time></trkpt><trkpt lat="36.96630209023666" lon="-4.507512537843623"><ele>967.0</ele><time>2026-04-23T12:09:57Z</time></trkpt><trkpt lat="36.96624161363134" lon="-4.507655308624998"><ele>969.5</ele><time>2026-04-23T12:09:58Z</time></trkpt><trkpt lat="36.966176628401826" lon="-4.507792685860806"><ele>972.0</ele><time>2026-04-23T12:09:59Z</time></trkpt><trkpt lat="36.96610644801951" lon="-4.507932680026373"><ele>975.5</ele><time>2026-04-23T12:10:00Z</time></trkpt><trkpt lat="36.96603096793588" lon="-4.508077253602914"><ele>979.0</ele><time>2026-04-23T12:10:01Z</time></trkpt><trkpt lat="36.96594844695626" lon="-4.508226877244448"><ele>982.5</ele><time>2026-04-23T12:10:02Z</time></trkpt><trkpt lat="36.9658684885926" lon="-4.508380595889691"><ele>986.0</ele><time>2026-04-23T12:10:03Z</time></trkpt><trkpt lat="36.96578558287806" lon="-4.508535847172253"><ele>980.3333333333334</ele><time>2026-04-23T12:10:04Z</time></trkpt><trkpt lat="36.96571795149103" lon="-4.50870557617543"><ele>974.6666666666667</ele><time>2026-04-23T12:10:05Z</time></trkpt><trkpt lat="36.96563474344235" lon="-4.5088653463399915"><ele>969.0</ele><time>2026-04-23T12:10:06Z</time></trkpt><trkpt lat="36.96554552982339" lon="-4.509031568316146"><ele>969.0</ele><time>2026-04-23T12:10:07Z</time></trkpt><trkpt lat="36.96545488577976" lon="-4.509194023105179"><ele>969.0</ele><time>2026-04-23T12:10:08Z</time></trkpt><trkpt lat="36.96536717096676" lon="-4.509357714450581"><ele>969.0</ele><time>2026-04-23T12:10:09Z</time></trkpt><trkpt lat="36.965278319572185" lon="-4.509516558892081"><ele>965.25</ele><time>2026-04-23T12:10:10Z</time></trkpt><trkpt lat="36.965183711432964" lon="-4.509662693014045"><ele>961.5</ele><time>2026-04-23T12:10:11Z</time></trkpt><trkpt lat="36.965086935091904" lon="-4.509803383639249"><ele>957.75</ele><time>2026-04-23T12:10:12Z</time></trkpt><trkpt lat="36.96498337535944" lon="-4.509940270507253"><ele>954.0</ele><time>2026-04-23T12:10:13Z</time></trkpt><trkpt lat="36.964876767982744" lon="-4.510070838815219"><ele>954.0</ele><time>2026-04-23T12:10:14Z</time></trkpt><trkpt lat="36.96477256753469" lon="-4.510193357987144"><ele>954.0</ele><time>2026-04-23T12:10:15Z</time></trkpt><trkpt lat="36.964671914432635" lon="-4.510311677549483"><ele>954.0</ele><time>2026-04-23T12:10:16Z</time></trkpt><trkpt lat="36.96458109690983" lon="-4.510425565699821"><ele>954.0</ele><time>2026-04-23T12:10:17Z</time></trkpt><trkpt lat="36.964490993132685" lon="-4.5105501375177"><ele>958.75</ele><time>2026-04-23T12:10:18Z</time></trkpt><trkpt lat="36.964408680663" lon="-4.510675282719758"><ele>963.5</ele><time>2026-04-23T12:10:19Z</time></trkpt><trkpt lat="36.96433519824952" lon="-4.5108003662603275"><ele>968.25</ele><time>2026-04-23T12:10:20Z</time></trkpt><trkpt lat="36.96426862190728" lon="-4.510926820093743"><ele>973.0</ele><time>2026-04-23T12:10:21Z</time></trkpt><trkpt lat="36.96420722673165" lon="-4.51105181823591"><ele>969.75</ele><time>2026-04-23T12:10:22Z</time></trkpt><trkpt lat="36.96413670833999" lon="-4.511177798990457"><ele>966.5</ele><time>2026-04-23T12:10:23Z</time></trkpt><trkpt lat="36.964061380581256" lon="-4.511309782238941"><ele>963.25</ele><time>2026-04-23T12:10:24Z</time></trkpt><trkpt lat="36.963983125554805" lon="-4.511450008649722"><ele>960.0</ele><time>2026-04-23T12:10:25Z</time></trkpt><trkpt lat="36.96390038974552" lon="-4.511593968278894"><ele>960.0</ele><time>2026-04-23T12:10:26Z</time></trkpt><trkpt lat="36.963821458385965" lon="-4.511738138580979"><ele>960.0</ele><time>2026-04-23T12:10:27Z</time></trkpt><trkpt lat="36.963742674636826" lon="-4.5118832510606595"><ele>960.0</ele><time>2026-04-23T12:10:28Z</time></trkpt><trkpt lat="36.96366468417224" lon="-4.512027171808175"><ele>960.0</ele><time>2026-04-23T12:10:29Z</time></trkpt><trkpt lat="36.96358815296361" lon="-4.512168679819205"><ele>958.0</ele><time>2026-04-23T12:10:30Z</time></trkpt><trkpt lat="36.96351173510876" lon="-4.5123073352747705"><ele>956.0</ele><time>2026-04-23T12:10:31Z</time></trkpt><trkpt lat="36.963431622351656" lon="-4.512442768651426"><ele>954.0</ele><time>2026-04-23T12:10:32Z</time></trkpt><trkpt lat="36.96335357728099" lon="-4.512577222009628"><ele>952.0</ele><time>2026-04-23T12:10:32.999Z</time></trkpt><trkpt lat="36.96328150148764" lon="-4.512710430540819"><ele>952.0</ele><time>2026-04-23T12:10:33.999Z</time></trkpt><trkpt lat="36.96320672328807" lon="-4.51284488386445"><ele>952.0</ele><time>2026-04-23T12:10:34.999Z</time></trkpt><trkpt lat="36.96312540934443" lon="-4.512985160790351"><ele>952.0</ele><time>2026-04-23T12:10:35.999Z</time></trkpt><trkpt lat="36.96304748013383" lon="-4.513128102308449"><ele>952.0</ele><time>2026-04-23T12:10:36.999Z</time></trkpt><trkpt lat="36.96296383571348" lon="-4.5132798632318005"><ele>955.0</ele><time>2026-04-23T12:10:37.999Z</time></trkpt><trkpt lat="36.9628797976532" lon="-4.513429964219332"><ele>958.0</ele><time>2026-04-23T12:10:38.999Z</time></trkpt><trkpt lat="36.96279878559643" lon="-4.513577446375323"><ele>961.0</ele><time>2026-04-23T12:10:39.999Z</time></trkpt><trkpt lat="36.96271625678262" lon="-4.513727839322843"><ele>964.0</ele><time>2026-04-23T12:10:40.999Z</time></trkpt><trkpt lat="36.962633293523226" lon="-4.5138770311080965"><ele>960.25</ele><time>2026-04-23T12:10:41.999Z</time></trkpt><trkpt lat="36.962546218720796" lon="-4.5140238118073714"><ele>956.5</ele><time>2026-04-23T12:10:42.999Z</time></trkpt><trkpt lat="36.96246046891412" lon="-4.514155649157764"><ele>952.75</ele><time>2026-04-23T12:10:43.999Z</time></trkpt><trkpt lat="36.96238056614678" lon="-4.514290641264734"><ele>949.0</ele><time>2026-04-23T12:10:44.999Z</time></trkpt><trkpt lat="36.96230498476455" lon="-4.51441825845283"><ele>949.0</ele><time>2026-04-23T12:10:45.999Z</time></trkpt><trkpt lat="36.96222740536579" lon="-4.51454747553332"><ele>949.0</ele><time>2026-04-23T12:10:46.999Z</time></trkpt><trkpt lat="36.96214139819833" lon="-4.514687645084459"><ele>949.0</ele><time>2026-04-23T12:10:47.999Z</time></trkpt><trkpt lat="36.96205076118225" lon="-4.514816335017777"><ele>949.0</ele><time>2026-04-23T12:10:48.999Z</time></trkpt><trkpt lat="36.96196182125704" lon="-4.514955311223749"><ele>949.75</ele><time>2026-04-23T12:10:49.999Z</time></trkpt><trkpt lat="36.961872764783806" lon="-4.515093806001504"><ele>950.5</ele><time>2026-04-23T12:10:50.999Z</time></trkpt><trkpt lat="36.96177842695181" lon="-4.515219563247419"><ele>951.25</ele><time>2026-04-23T12:10:51.999Z</time></trkpt><trkpt lat="36.961677659222154" lon="-4.5153241687982435"><ele>952.0</ele><time>2026-04-23T12:10:52.999Z</time></trkpt><trkpt lat="36.9615641100782" lon="-4.5154302748431805"><ele>952.0</ele><time>2026-04-23T12:10:53.999Z</time></trkpt><trkpt lat="36.961438384998736" lon="-4.515519120262897"><ele>952.0</ele><time>2026-04-23T12:10:54.999Z</time></trkpt><trkpt lat="36.961301838565866" lon="-4.515600706634647"><ele>952.0</ele><time>2026-04-23T12:10:55.999Z</time></trkpt><trkpt lat="36.961170409511205" lon="-4.515663337705599"><ele>952.0</ele><time>2026-04-23T12:10:56.999Z</time></trkpt><trkpt lat="36.96104537647432" lon="-4.515732455481068"><ele>952.0</ele><time>2026-04-23T12:10:57.999Z</time></trkpt><trkpt lat="36.96093503778364" lon="-4.515822477854372"><ele>952.0</ele><time>2026-04-23T12:10:58.999Z</time></trkpt><trkpt lat="36.960845731829636" lon="-4.515938994485381"><ele>952.0</ele><time>2026-04-23T12:10:59.999Z</time></trkpt><trkpt lat="36.96076906024855" lon="-4.516083713577401"><ele>952.0</ele><time>2026-04-23T12:11:00.999Z</time></trkpt><trkpt lat="36.96069070486173" lon="-4.516235418626969"><ele>950.75</ele><time>2026-04-23T12:11:01.999Z</time></trkpt><trkpt lat="36.96060829575851" lon="-4.516393194343629"><ele>949.5</ele><time>2026-04-23T12:11:02.999Z</time></trkpt><trkpt lat="36.96052419353453" lon="-4.516537690953115"><ele>948.25</ele><time>2026-04-23T12:11:03.999Z</time></trkpt><trkpt lat="36.96044368725311" lon="-4.5166696947575495"><ele>947.0</ele><time>2026-04-23T12:11:04.999Z</time></trkpt><trkpt lat="36.960350256148864" lon="-4.516793953821938"><ele>947.0</ele><time>2026-04-23T12:11:05.999Z</time></trkpt><trkpt lat="36.96024457232706" lon="-4.516915181505262"><ele>947.0</ele><time>2026-04-23T12:11:06.999Z</time></trkpt><trkpt lat="36.96013076626171" lon="-4.517022135230365"><ele>947.0</ele><time>2026-04-23T12:11:07.999Z</time></trkpt><trkpt lat="36.96001476573064" lon="-4.517114563031509"><ele>947.0</ele><time>2026-04-23T12:11:08.999Z</time></trkpt><trkpt lat="36.95989771791264" lon="-4.517196451783301"><ele>948.75</ele><time>2026-04-23T12:11:09.999Z</time></trkpt><trkpt lat="36.95978071568701" lon="-4.5172820724075855"><ele>950.5</ele><time>2026-04-23T12:11:10.999Z</time></trkpt><trkpt lat="36.95967286312188" lon="-4.5173818377034385"><ele>952.25</ele><time>2026-04-23T12:11:11.999Z</time></trkpt><trkpt lat="36.9595953380513" lon="-4.5175018355339684"><ele>954.0</ele><time>2026-04-23T12:11:12.999Z</time></trkpt><trkpt lat="36.95955862834762" lon="-4.517636730476808"><ele>954.0</ele><time>2026-04-23T12:11:13.999Z</time></trkpt><trkpt lat="36.95953663607809" lon="-4.517773508811573"><ele>954.0000000000001</ele><time>2026-04-23T12:11:14.999Z</time></trkpt><trkpt lat="36.959488410044855" lon="-4.517889431741339"><ele>954.0000000000001</ele><time>2026-04-23T12:11:15.999Z</time></trkpt><trkpt lat="36.959401072936444" lon="-4.51799970984723"><ele>954.0</ele><time>2026-04-23T12:11:16.999Z</time></trkpt><trkpt lat="36.95934068183601" lon="-4.518054308515434"><ele>954.0</ele><time>2026-04-23T12:11:17.999Z</time></trkpt><trkpt lat="36.95922386111907" lon="-4.5180896852821535"><ele>951.75</ele><time>2026-04-23T12:11:18.999Z</time></trkpt><trkpt lat="36.95909734628278" lon="-4.518105941953356"><ele>949.5</ele><time>2026-04-23T12:11:19.999Z</time></trkpt><trkpt lat="36.958970607076104" lon="-4.5181492891729516"><ele>947.25</ele><time>2026-04-23T12:11:20.999Z</time></trkpt><trkpt lat="36.958859885692625" lon="-4.518223449558668"><ele>945.0</ele><time>2026-04-23T12:11:21.999Z</time></trkpt><trkpt lat="36.958768212721566" lon="-4.518317062517074"><ele>945.0</ele><time>2026-04-23T12:11:22.999Z</time></trkpt><trkpt lat="36.95869927481047" lon="-4.518428204580422"><ele>945.0</ele><time>2026-04-23T12:11:23.999Z</time></trkpt><trkpt lat="36.95865055577776" lon="-4.518555315443749"><ele>945.0</ele><time>2026-04-23T12:11:24.999Z</time></trkpt><trkpt lat="36.958618765053785" lon="-4.51870783462323"><ele>945.0</ele><time>2026-04-23T12:11:25.999Z</time></trkpt><trkpt lat="36.95859597946617" lon="-4.518876605121873"><ele>945.6</ele><time>2026-04-23T12:11:26.999Z</time></trkpt><trkpt lat="36.958572484477145" lon="-4.5190242945485215"><ele>946.2</ele><time>2026-04-23T12:11:27.999Z</time></trkpt><trkpt lat="36.95853212846051" lon="-4.519150657581913"><ele>946.8</ele><time>2026-04-23T12:11:28.999Z</time></trkpt><trkpt lat="36.95847189058813" lon="-4.519261739017105"><ele>947.4</ele><time>2026-04-23T12:11:29.999Z</time></trkpt><trkpt lat="36.95839317881145" lon="-4.519355016245993"><ele>948.0</ele><time>2026-04-23T12:11:30.999Z</time></trkpt><trkpt lat="36.95827111723749" lon="-4.519388871961828"><ele>944.25</ele><time>2026-04-23T12:11:31.999Z</time></trkpt><trkpt lat="36.95814011571276" lon="-4.51938563590199"><ele>940.5</ele><time>2026-04-23T12:11:32.999Z</time></trkpt><trkpt lat="36.95801656195563" lon="-4.519395364363141"><ele>936.75</ele><time>2026-04-23T12:11:33.999Z</time></trkpt><trkpt lat="36.957882342939335" lon="-4.519392663288919"><ele>933.0</ele><time>2026-04-23T12:11:34.999Z</time></trkpt><trkpt lat="36.957748505134596" lon="-4.51941227447839"><ele>933.0</ele><time>2026-04-23T12:11:35.999Z</time></trkpt><trkpt lat="36.957617270859195" lon="-4.519454244897757"><ele>933.0</ele><time>2026-04-23T12:11:36.999Z</time></trkpt><trkpt lat="36.95748651643522" lon="-4.51951504775629"><ele>933.0</ele><time>2026-04-23T12:11:37.999Z</time></trkpt><trkpt lat="36.95735712001351" lon="-4.519599295521977"><ele>933.0</ele><time>2026-04-23T12:11:38.999Z</time></trkpt><trkpt lat="36.95723488539487" lon="-4.519703315777441"><ele>933.25</ele><time>2026-04-23T12:11:39.999Z</time></trkpt><trkpt lat="36.957121132103964" lon="-4.519826040450989"><ele>933.5</ele><time>2026-04-23T12:11:40.999Z</time></trkpt><trkpt lat="36.957023758812134" lon="-4.5199562083331095"><ele>933.75</ele><time>2026-04-23T12:11:41.999Z</time></trkpt><trkpt lat="36.95693846488333" lon="-4.5200991723712365"><ele>934.0</ele><time>2026-04-23T12:11:42.999Z</time></trkpt><trkpt lat="36.95686274283199" lon="-4.5202448608645085"><ele>934.0</ele><time>2026-04-23T12:11:43.999Z</time></trkpt><trkpt lat="36.956784726831785" lon="-4.520393390320926"><ele>934.0</ele><time>2026-04-23T12:11:44.999Z</time></trkpt><trkpt lat="36.95670659154961" lon="-4.520542517843098"><ele>934.0</ele><time>2026-04-23T12:11:45.999Z</time></trkpt><trkpt lat="36.95663249522645" lon="-4.520683664818623"><ele>934.0</ele><time>2026-04-23T12:11:47Z</time></trkpt><trkpt lat="36.95655626543144" lon="-4.520813721060046"><ele>935.0</ele><time>2026-04-23T12:11:48Z</time></trkpt><trkpt lat="36.95648805628016" lon="-4.520937196910706"><ele>936.0</ele><time>2026-04-23T12:11:49Z</time></trkpt><trkpt lat="36.95641583123361" lon="-4.5210552893021"><ele>937.0</ele><time>2026-04-23T12:11:50Z</time></trkpt><trkpt lat="36.9563379809045" lon="-4.521168958886546"><ele>938.0</ele><time>2026-04-23T12:11:51Z</time></trkpt><trkpt lat="36.95625812610959" lon="-4.521288971310579"><ele>938.0</ele><time>2026-04-23T12:11:52Z</time></trkpt><trkpt lat="36.956170193073895" lon="-4.521422168716184"><ele>938.0</ele><time>2026-04-23T12:11:53Z</time></trkpt><trkpt lat="36.95607559429509" lon="-4.521553839556542"><ele>938.0</ele><time>2026-04-23T12:11:54Z</time></trkpt><trkpt lat="36.95596571584511" lon="-4.521671372123068"><ele>938.0</ele><time>2026-04-23T12:11:55Z</time></trkpt><trkpt lat="36.95585510636711" lon="-4.521778389274588"><ele>935.0</ele><time>2026-04-23T12:11:56Z</time></trkpt><trkpt lat="36.955746346539286" lon="-4.521879769867636"><ele>932.0</ele><time>2026-04-23T12:11:57Z</time></trkpt><trkpt lat="36.955636086709205" lon="-4.521986725976971"><ele>929.0</ele><time>2026-04-23T12:11:58Z</time></trkpt><trkpt lat="36.95552840984507" lon="-4.522105933849348"><ele>926.0</ele><time>2026-04-23T12:11:59Z</time></trkpt><trkpt lat="36.9554254038224" lon="-4.522241587771154"><ele>926.0</ele><time>2026-04-23T12:12:00Z</time></trkpt><trkpt lat="36.95533015591982" lon="-4.522395905876151"><ele>926.0</ele><time>2026-04-23T12:12:01Z</time></trkpt><trkpt lat="36.9552367849932" lon="-4.522564450146629"><ele>926.0</ele><time>2026-04-23T12:12:02Z</time></trkpt><trkpt lat="36.95514518600783" lon="-4.522735886532025"><ele>926.0</ele><time>2026-04-23T12:12:03Z</time></trkpt><trkpt lat="36.955053638996176" lon="-4.522892308607197"><ele>926.0</ele><time>2026-04-23T12:12:04Z</time></trkpt><trkpt lat="36.954960725843115" lon="-4.5230429329036825"><ele>926.0</ele><time>2026-04-23T12:12:05Z</time></trkpt><trkpt lat="36.95486959899442" lon="-4.523196738994674"><ele>923.0</ele><time>2026-04-23T12:12:06Z</time></trkpt><trkpt lat="36.95478062357912" lon="-4.523353069605799"><ele>920.0</ele><time>2026-04-23T12:12:07Z</time></trkpt><trkpt lat="36.954693564459156" lon="-4.523514930735324"><ele>917.0</ele><time>2026-04-23T12:12:08Z</time></trkpt><trkpt lat="36.95460357432845" lon="-4.523676936926069"><ele>920.0</ele><time>2026-04-23T12:12:09Z</time></trkpt><trkpt lat="36.95450815589884" lon="-4.523834278126544"><ele>923.0</ele><time>2026-04-23T12:12:10Z</time></trkpt><trkpt lat="36.954412316963115" lon="-4.523978489524116"><ele>926.0</ele><time>2026-04-23T12:12:11Z</time></trkpt><trkpt lat="36.95430911422376" lon="-4.524120238485892"><ele>923.5</ele><time>2026-04-23T12:12:12Z</time></trkpt><trkpt lat="36.954198570667224" lon="-4.52425337299561"><ele>921.0</ele><time>2026-04-23T12:12:13Z</time></trkpt><trkpt lat="36.954088050004174" lon="-4.524376080777253"><ele>918.5</ele><time>2026-04-23T12:12:14Z</time></trkpt><trkpt lat="36.95398407508056" lon="-4.524493906651426"><ele>916.0</ele><time>2026-04-23T12:12:15Z</time></trkpt><trkpt lat="36.953888636459844" lon="-4.524606257181379"><ele>916.0</ele><time>2026-04-23T12:12:16Z</time></trkpt><trkpt lat="36.953804487372565" lon="-4.524729838523594"><ele>916.0</ele><time>2026-04-23T12:12:17Z</time></trkpt><trkpt lat="36.95373766106936" lon="-4.524876303645321"><ele>916.0</ele><time>2026-04-23T12:12:18Z</time></trkpt><trkpt lat="36.95367721067889" lon="-4.525043804407723"><ele>916.0</ele><time>2026-04-23T12:12:19Z</time></trkpt><trkpt lat="36.953622881219424" lon="-4.525223065814437"><ele>916.6666666666666</ele><time>2026-04-23T12:12:20Z</time></trkpt><trkpt lat="36.953583801810574" lon="-4.525411843235524"><ele>917.3333333333333</ele><time>2026-04-23T12:12:21Z</time></trkpt><trkpt lat="36.95355340372603" lon="-4.525604653797102"><ele>918.0</ele><time>2026-04-23T12:12:22Z</time></trkpt><trkpt lat="36.953541184023464" lon="-4.52582545712613"><ele>918.0</ele><time>2026-04-23T12:12:23Z</time></trkpt><trkpt lat="36.95347466601868" lon="-4.525993151813605"><ele>918.0</ele><time>2026-04-23T12:12:24Z</time></trkpt><trkpt lat="36.95341632939911" lon="-4.5261701593726835"><ele>918.0</ele><time>2026-04-23T12:12:25Z</time></trkpt><trkpt lat="36.953350026983045" lon="-4.526349746988748"><ele>911.6666666666667</ele><time>2026-04-23T12:12:26Z</time></trkpt><trkpt lat="36.95326767072915" lon="-4.526525774908122"><ele>905.3333333333334</ele><time>2026-04-23T12:12:27Z</time></trkpt><trkpt lat="36.95316671678945" lon="-4.526694161939558"><ele>899.0</ele><time>2026-04-23T12:12:28Z</time></trkpt><trkpt lat="36.953046601545346" lon="-4.526857214539981"><ele>899.0</ele><time>2026-04-23T12:12:29Z</time></trkpt><trkpt lat="36.952933009968525" lon="-4.527032798863822"><ele>899.0</ele><time>2026-04-23T12:12:30Z</time></trkpt><trkpt lat="36.95284423032488" lon="-4.527229586223733"><ele>899.0</ele><time>2026-04-23T12:12:31Z</time></trkpt><trkpt lat="36.95277853480486" lon="-4.527440125261873"><ele>898.6666666666667</ele><time>2026-04-23T12:12:32Z</time></trkpt><trkpt lat="36.95272299857638" lon="-4.5276544562669745"><ele>898.3333333333333</ele><time>2026-04-23T12:12:33Z</time></trkpt><trkpt lat="36.952667785789416" lon="-4.527848775913253"><ele>898.0</ele><time>2026-04-23T12:12:34Z</time></trkpt><trkpt lat="36.95261629860113" lon="-4.528028630054129"><ele>897.0</ele><time>2026-04-23T12:12:35Z</time></trkpt><trkpt lat="36.95256859804621" lon="-4.528199158979707"><ele>896.0</ele><time>2026-04-23T12:12:36Z</time></trkpt><trkpt lat="36.95251524217963" lon="-4.528352666708846"><ele>895.0</ele><time>2026-04-23T12:12:37Z</time></trkpt><trkpt lat="36.95243309739425" lon="-4.528487525116839"><ele>894.0</ele><time>2026-04-23T12:12:38Z</time></trkpt><trkpt lat="36.95232584282039" lon="-4.52861183152913"><ele>894.0</ele><time>2026-04-23T12:12:39Z</time></trkpt><trkpt lat="36.95221437081453" lon="-4.528723762448751"><ele>894.0</ele><time>2026-04-23T12:12:39.999Z</time></trkpt><trkpt lat="36.952100701426126" lon="-4.5288296216823705"><ele>894.0</ele><time>2026-04-23T12:12:40.999Z</time></trkpt><trkpt lat="36.95199305395116" lon="-4.528941364224629"><ele>894.0</ele><time>2026-04-23T12:12:41.999Z</time></trkpt><trkpt lat="36.95189386803224" lon="-4.5290532615406836"><ele>892.25</ele><time>2026-04-23T12:12:42.999Z</time></trkpt><trkpt lat="36.95179523491555" lon="-4.529157260069872"><ele>890.5</ele><time>2026-04-23T12:12:43.999Z</time></trkpt><trkpt lat="36.95170439708574" lon="-4.529266941449846"><ele>888.75</ele><time>2026-04-23T12:12:44.999Z</time></trkpt><trkpt lat="36.95160584471448" lon="-4.529377632555312"><ele>887.0</ele><time>2026-04-23T12:12:45.999Z</time></trkpt><trkpt lat="36.951522455102456" lon="-4.5294798981875415"><ele>886.6</ele><time>2026-04-23T12:12:46.999Z</time></trkpt><trkpt lat="36.951436310091374" lon="-4.529575248020658"><ele>886.2</ele><time>2026-04-23T12:12:47.999Z</time></trkpt><trkpt lat="36.95134952536534" lon="-4.529653972066392"><ele>885.8</ele><time>2026-04-23T12:12:48.999Z</time></trkpt><trkpt lat="36.95124926831366" lon="-4.5296965126910935"><ele>885.4</ele><time>2026-04-23T12:12:49.999Z</time></trkpt><trkpt lat="36.95113182161721" lon="-4.529705802221068"><ele>885.0</ele><time>2026-04-23T12:12:50.999Z</time></trkpt><trkpt lat="36.95101620971238" lon="-4.529671042621036"><ele>885.0</ele><time>2026-04-23T12:12:51.999Z</time></trkpt><trkpt lat="36.95090055306777" lon="-4.529656441000852"><ele>885.0</ele><time>2026-04-23T12:12:52.999Z</time></trkpt><trkpt lat="36.95078556637318" lon="-4.529659564094503"><ele>885.0</ele><time>2026-04-23T12:12:53.999Z</time></trkpt><trkpt lat="36.95067088451448" lon="-4.529670667232844"><ele>885.0</ele><time>2026-04-23T12:12:54.999Z</time></trkpt><trkpt lat="36.95057150639263" lon="-4.529746871783908"><ele>882.25</ele><time>2026-04-23T12:12:55.999Z</time></trkpt><trkpt lat="36.950493759253455" lon="-4.529839480097035"><ele>879.5</ele><time>2026-04-23T12:12:56.999Z</time></trkpt><trkpt lat="36.9504338007683" lon="-4.529973837877613"><ele>876.75</ele><time>2026-04-23T12:12:57.999Z</time></trkpt><trkpt lat="36.95036668056813" lon="-4.530138180487066"><ele>874.0</ele><time>2026-04-23T12:12:58.999Z</time></trkpt><trkpt lat="36.95029920206952" lon="-4.530320229264618"><ele>871.0</ele><time>2026-04-23T12:12:59.999Z</time></trkpt><trkpt lat="36.95022431167844" lon="-4.530498294813013"><ele>868.0</ele><time>2026-04-23T12:13:00.999Z</time></trkpt><trkpt lat="36.950157572479306" lon="-4.530675349734317"><ele>865.0</ele><time>2026-04-23T12:13:01.999Z</time></trkpt><trkpt lat="36.950090743762765" lon="-4.53085165315602"><ele>865.25</ele><time>2026-04-23T12:13:02.999Z</time></trkpt><trkpt lat="36.95003125454381" lon="-4.531020989876504"><ele>865.5</ele><time>2026-04-23T12:13:03.999Z</time></trkpt><trkpt lat="36.949967527034815" lon="-4.531177367509984"><ele>865.75</ele><time>2026-04-23T12:13:04.999Z</time></trkpt><trkpt lat="36.94990100315792" lon="-4.5313254783055905"><ele>866.0</ele><time>2026-04-23T12:13:05.999Z</time></trkpt><trkpt lat="36.94981696705255" lon="-4.531475326392243"><ele>864.0</ele><time>2026-04-23T12:13:06.999Z</time></trkpt><trkpt lat="36.949709789050125" lon="-4.531628147799699"><ele>862.0</ele><time>2026-04-23T12:13:07.999Z</time></trkpt><trkpt lat="36.9495957845938" lon="-4.53177082980225"><ele>860.0</ele><time>2026-04-23T12:13:08.999Z</time></trkpt><trkpt lat="36.94947176368735" lon="-4.5319018775228965"><ele>860.0</ele><time>2026-04-23T12:13:09.999Z</time></trkpt><trkpt lat="36.94934578669158" lon="-4.532019760871573"><ele>860.0</ele><time>2026-04-23T12:13:10.999Z</time></trkpt><trkpt lat="36.949214196075125" lon="-4.532140198499583"><ele>860.0</ele><time>2026-04-23T12:13:11.999Z</time></trkpt><trkpt lat="36.949077985789636" lon="-4.532263036447108"><ele>860.0</ele><time>2026-04-23T12:13:12.999Z</time></trkpt><trkpt lat="36.94894345571017" lon="-4.532383594040897"><ele>860.0</ele><time>2026-04-23T12:13:13.999Z</time></trkpt><trkpt lat="36.948817656927574" lon="-4.532491427331047"><ele>860.0</ele><time>2026-04-23T12:13:14.999Z</time></trkpt><trkpt lat="36.94869144435624" lon="-4.53257861232876"><ele>860.0</ele><time>2026-04-23T12:13:15.999Z</time></trkpt><trkpt lat="36.94856174529045" lon="-4.532637362205036"><ele>860.0</ele><time>2026-04-23T12:13:16.999Z</time></trkpt><trkpt lat="36.94843211634987" lon="-4.5326796810191015"><ele>860.0</ele><time>2026-04-23T12:13:17.999Z</time></trkpt><trkpt lat="36.94831418038192" lon="-4.532725449964587"><ele>860.0</ele><time>2026-04-23T12:13:18.999Z</time></trkpt><trkpt lat="36.948214630304236" lon="-4.532809201152189"><ele>859.0</ele><time>2026-04-23T12:13:19.999Z</time></trkpt><trkpt lat="36.94815231562374" lon="-4.532946245465882"><ele>858.0</ele><time>2026-04-23T12:13:20.999Z</time></trkpt><trkpt lat="36.94810711546769" lon="-4.533107839044923"><ele>857.0</ele><time>2026-04-23T12:13:21.999Z</time></trkpt><trkpt lat="36.94807189931637" lon="-4.533280936693953"><ele>856.0</ele><time>2026-04-23T12:13:22.999Z</time></trkpt><trkpt lat="36.94803702874304" lon="-4.533444615430591"><ele>856.0</ele><time>2026-04-23T12:13:23.999Z</time></trkpt><trkpt lat="36.94800325798747" lon="-4.5336020230320475"><ele>856.0</ele><time>2026-04-23T12:13:24.999Z</time></trkpt><trkpt lat="36.947952283965584" lon="-4.533762721996669"><ele>856.0</ele><time>2026-04-23T12:13:25.999Z</time></trkpt><trkpt lat="36.947868549837025" lon="-4.533901081286862"><ele>856.0</ele><time>2026-04-23T12:13:26.999Z</time></trkpt><trkpt lat="36.94775243405098" lon="-4.534007655629547"><ele>857.3333333333333</ele><time>2026-04-23T12:13:27.999Z</time></trkpt><trkpt lat="36.947611619023625" lon="-4.534076883126386"><ele>858.6666666666667</ele><time>2026-04-23T12:13:28.999Z</time></trkpt><trkpt lat="36.94746170249683" lon="-4.53411138047752"><ele>860.0</ele><time>2026-04-23T12:13:29.999Z</time></trkpt><trkpt lat="36.947314818327115" lon="-4.5341359735793105"><ele>859.3333333333334</ele><time>2026-04-23T12:13:30.999Z</time></trkpt><trkpt lat="36.947054874058956" lon="-4.5342862017248615"><ele>858.6666666666667</ele><time>2026-04-23T12:13:32.999Z</time></trkpt><trkpt lat="36.946958974807856" lon="-4.5344229735195505"><ele>858.0</ele><time>2026-04-23T12:13:33.999Z</time></trkpt><trkpt lat="36.94687336328234" lon="-4.534599406038491"><ele>858.0</ele><time>2026-04-23T12:13:34.999Z</time></trkpt><trkpt lat="36.94677472333884" lon="-4.534804668273088"><ele>858.0</ele><time>2026-04-23T12:13:35.999Z</time></trkpt><trkpt lat="36.94667388534997" lon="-4.535013432940061"><ele>858.0</ele><time>2026-04-23T12:13:36.999Z</time></trkpt><trkpt lat="36.94658010680124" lon="-4.535204588450609"><ele>857.3333333333333</ele><time>2026-04-23T12:13:37.999Z</time></trkpt><trkpt lat="36.94649038593392" lon="-4.535401828791641"><ele>856.6666666666666</ele><time>2026-04-23T12:13:38.999Z</time></trkpt><trkpt lat="36.94639948976506" lon="-4.535594325670994"><ele>856.0</ele><time>2026-04-23T12:13:39.999Z</time></trkpt><trkpt lat="36.946296132419384" lon="-4.535788648824144"><ele>856.0</ele><time>2026-04-23T12:13:40.999Z</time></trkpt><trkpt lat="36.94617779739068" lon="-4.535974865550482"><ele>856.0</ele><time>2026-04-23T12:13:41.999Z</time></trkpt><trkpt lat="36.94604765299854" lon="-4.536146443317664"><ele>856.0</ele><time>2026-04-23T12:13:42.999Z</time></trkpt><trkpt lat="36.94590899272932" lon="-4.536289232574621"><ele>853.3333333333333</ele><time>2026-04-23T12:13:43.999Z</time></trkpt><trkpt lat="36.94576240593392" lon="-4.53640994634024"><ele>850.6666666666667</ele><time>2026-04-23T12:13:44.999Z</time></trkpt><trkpt lat="36.94561682582294" lon="-4.53649672082952"><ele>848.0</ele><time>2026-04-23T12:13:45.999Z</time></trkpt><trkpt lat="36.945473434594895" lon="-4.536583710787917"><ele>848.0</ele><time>2026-04-23T12:13:46.999Z</time></trkpt><trkpt lat="36.94534666348536" lon="-4.536667895056379"><ele>848.0</ele><time>2026-04-23T12:13:47.999Z</time></trkpt><trkpt lat="36.94523959457804" lon="-4.536746625601584"><ele>848.0</ele><time>2026-04-23T12:13:48.999Z</time></trkpt><trkpt lat="36.945156457960834" lon="-4.5368093502358695"><ele>848.0</ele><time>2026-04-23T12:13:49.999Z</time></trkpt><trkpt lat="36.94508724292361" lon="-4.5368363720469915"><ele>848.0</ele><time>2026-04-23T12:13:50.999Z</time></trkpt><trkpt lat="36.94501815492" lon="-4.536814387682761"><ele>844.5999999999999</ele><time>2026-04-23T12:13:51.998Z</time></trkpt><trkpt lat="36.944964900661525" lon="-4.536727916898551"><ele>841.1999999999999</ele><time>2026-04-23T12:13:52.999Z</time></trkpt><trkpt lat="36.94495168092914" lon="-4.536605262840785"><ele>837.8</ele><time>2026-04-23T12:13:53.999Z</time></trkpt><trkpt lat="36.94496350061057" lon="-4.536471820037971"><ele>834.4</ele><time>2026-04-23T12:13:54.999Z</time></trkpt><trkpt lat="36.944960588885245" lon="-4.536337823281078"><ele>831.0</ele><time>2026-04-23T12:13:55.999Z</time></trkpt><trkpt lat="36.944953675761596" lon="-4.536244399653994"><ele>831.0</ele><time>2026-04-23T12:13:56.999Z</time></trkpt><trkpt lat="36.94494239206526" lon="-4.536165675035838"><ele>831.0</ele><time>2026-04-23T12:13:57.999Z</time></trkpt><trkpt lat="36.94487042642515" lon="-4.536114399660431"><ele>831.0</ele><time>2026-04-23T12:13:58.999Z</time></trkpt><trkpt lat="36.94476815049144" lon="-4.536131340931991"><ele>831.0</ele><time>2026-04-23T12:13:59.999Z</time></trkpt><trkpt lat="36.94463675358361" lon="-4.536196459502995"><ele>831.0</ele><time>2026-04-23T12:14:00.999Z</time></trkpt><trkpt lat="36.94449635650575" lon="-4.53625979128528"><ele>831.0</ele><time>2026-04-23T12:14:01.999Z</time></trkpt><trkpt lat="36.94434832939513" lon="-4.53630842450914"><ele>831.0</ele><time>2026-04-23T12:14:02.999Z</time></trkpt><trkpt lat="36.944204187597954" lon="-4.536344622650945"><ele>831.0</ele><time>2026-04-23T12:14:03.999Z</time></trkpt><trkpt lat="36.94407306144057" lon="-4.536374531340862"><ele>831.0</ele><time>2026-04-23T12:14:04.999Z</time></trkpt><trkpt lat="36.94395932427963" lon="-4.536391175104961"><ele>828.1999999999999</ele><time>2026-04-23T12:14:05.999Z</time></trkpt><trkpt lat="36.94386122902157" lon="-4.536369093788644"><ele>825.4</ele><time>2026-04-23T12:14:06.999Z</time></trkpt><trkpt lat="36.94377131799086" lon="-4.536300875297725"><ele>822.6</ele><time>2026-04-23T12:14:07.999Z</time></trkpt><trkpt lat="36.94369811131768" lon="-4.5361910183512615"><ele>819.8</ele><time>2026-04-23T12:14:08.999Z</time></trkpt><trkpt lat="36.943639270044606" lon="-4.536061098595349"><ele>817.0</ele><time>2026-04-23T12:14:09.999Z</time></trkpt><trkpt lat="36.94360034744545" lon="-4.5358973299962875"><ele>816.0</ele><time>2026-04-23T12:14:10.999Z</time></trkpt><trkpt lat="36.94359378731971" lon="-4.53571766245842"><ele>815.0</ele><time>2026-04-23T12:14:11.999Z</time></trkpt><trkpt lat="36.9436162169326" lon="-4.535540001085321"><ele>814.0</ele><time>2026-04-23T12:14:12.999Z</time></trkpt><trkpt lat="36.94364253628389" lon="-4.535376484351572"><ele>813.0</ele><time>2026-04-23T12:14:13.999Z</time></trkpt><trkpt lat="36.94363245061305" lon="-4.535233924728092"><ele>809.5</ele><time>2026-04-23T12:14:14.999Z</time></trkpt><trkpt lat="36.94362875426258" lon="-4.5350853737722305"><ele>806.0</ele><time>2026-04-23T12:14:15.999Z</time></trkpt><trkpt lat="36.94354199441311" lon="-4.534969479578215"><ele>802.5</ele><time>2026-04-23T12:14:16.999Z</time></trkpt><trkpt lat="36.943447077105745" lon="-4.534865452606062"><ele>799.0</ele><time>2026-04-23T12:14:17.999Z</time></trkpt><trkpt lat="36.943324717949324" lon="-4.534808874962622"><ele>795.3333333333333</ele><time>2026-04-23T12:14:18.999Z</time></trkpt><trkpt lat="36.943185639276564" lon="-4.534784303870478"><ele>791.6666666666667</ele><time>2026-04-23T12:14:19.999Z</time></trkpt><trkpt lat="36.94303130946636" lon="-4.534779490370616"><ele>788.0</ele><time>2026-04-23T12:14:20.999Z</time></trkpt><trkpt lat="36.94286887632268" lon="-4.53476688200536"><ele>788.0</ele><time>2026-04-23T12:14:21.999Z</time></trkpt><trkpt lat="36.942711096578655" lon="-4.534781482688884"><ele>788.0</ele><time>2026-04-23T12:14:22.999Z</time></trkpt><trkpt lat="36.94256873242783" lon="-4.534792694529971"><ele>788.0</ele><time>2026-04-23T12:14:23.999Z</time></trkpt><trkpt lat="36.94244612941836" lon="-4.53480007384893"><ele>788.0</ele><time>2026-04-23T12:14:24.999Z</time></trkpt><trkpt lat="36.94234607951163" lon="-4.534824105172619"><ele>787.2</ele><time>2026-04-23T12:14:25.999Z</time></trkpt><trkpt lat="36.942272058829744" lon="-4.534891834513147"><ele>786.4</ele><time>2026-04-23T12:14:26.999Z</time></trkpt><trkpt lat="36.942222517565945" lon="-4.534997090128117"><ele>785.6</ele><time>2026-04-23T12:14:27.999Z</time></trkpt><trkpt lat="36.942199240501225" lon="-4.535148816863761"><ele>784.8000000000001</ele><time>2026-04-23T12:14:28.999Z</time></trkpt><trkpt lat="36.94219524778219" lon="-4.535316132321408"><ele>784.0</ele><time>2026-04-23T12:14:29.999Z</time></trkpt><trkpt lat="36.942199423405526" lon="-4.535470481281089"><ele>783.9999999999999</ele><time>2026-04-23T12:14:30.999Z</time></trkpt><trkpt lat="36.942192207941254" lon="-4.535592509359397"><ele>784.0</ele><time>2026-04-23T12:14:31.999Z</time></trkpt><trkpt lat="36.942170889631974" lon="-4.535685043139653"><ele>784.0</ele><time>2026-04-23T12:14:32.999Z</time></trkpt><trkpt lat="36.942129725756764" lon="-4.535759595907441"><ele>784.0</ele><time>2026-04-23T12:14:33.999Z</time></trkpt><trkpt lat="36.942058892007374" lon="-4.535791519882309"><ele>783.9999999999999</ele><time>2026-04-23T12:14:34.999Z</time></trkpt><trkpt lat="36.94198097878126" lon="-4.535784390661797"><ele>784.0</ele><time>2026-04-23T12:14:35.999Z</time></trkpt><trkpt lat="36.941915513402094" lon="-4.535675970083543"><ele>784.0</ele><time>2026-04-23T12:14:36.999Z</time></trkpt><trkpt lat="36.94186151050427" lon="-4.535527496614742"><ele>784.0</ele><time>2026-04-23T12:14:37.999Z</time></trkpt><trkpt lat="36.94181060464567" lon="-4.535347573014636"><ele>784.0</ele><time>2026-04-23T12:14:38.999Z</time></trkpt><trkpt lat="36.94176361475155" lon="-4.535142231498235"><ele>778.0</ele><time>2026-04-23T12:14:39.999Z</time></trkpt><trkpt lat="36.94168866071064" lon="-4.534917796429027"><ele>772.0</ele><time>2026-04-23T12:14:40.999Z</time></trkpt><trkpt lat="36.94162239899046" lon="-4.53467202781232"><ele>766.0</ele><time>2026-04-23T12:14:41.999Z</time></trkpt><trkpt lat="36.941571737442665" lon="-4.53442117318715"><ele>764.3333333333334</ele><time>2026-04-23T12:14:42.999Z</time></trkpt><trkpt lat="36.9414941587693" lon="-4.534196824335945"><ele>762.6666666666666</ele><time>2026-04-23T12:14:43.999Z</time></trkpt><trkpt lat="36.941437133246595" lon="-4.533985512283787"><ele>761.0</ele><time>2026-04-23T12:14:44.999Z</time></trkpt><trkpt lat="36.94138280161886" lon="-4.533784182447055"><ele>759.3333333333333</ele><time>2026-04-23T12:14:45.999Z</time></trkpt><trkpt lat="36.94134630181422" lon="-4.533583962096263"><ele>757.6666666666666</ele><time>2026-04-23T12:14:46.999Z</time></trkpt><trkpt lat="36.941279942875376" lon="-4.533403032146809"><ele>756.0</ele><time>2026-04-23T12:14:47.999Z</time></trkpt><trkpt lat="36.9412303906977" lon="-4.533219413017908"><ele>756.0</ele><time>2026-04-23T12:14:48.999Z</time></trkpt><trkpt lat="36.941183924506475" lon="-4.533047229333215"><ele>756.0</ele><time>2026-04-23T12:14:49.999Z</time></trkpt><trkpt lat="36.94114260152793" lon="-4.532887353890316"><ele>756.0</ele><time>2026-04-23T12:14:50.999Z</time></trkpt><trkpt lat="36.941105876032935" lon="-4.5327431014919854"><ele>756.0</ele><time>2026-04-23T12:14:51.999Z</time></trkpt><trkpt lat="36.94107279311128" lon="-4.532631138945989"><ele>754.1999999999999</ele><time>2026-04-23T12:14:52.999Z</time></trkpt><trkpt lat="36.94103547475046" lon="-4.532534615842467"><ele>752.4</ele><time>2026-04-23T12:14:53.999Z</time></trkpt><trkpt lat="36.940966690512255" lon="-4.532457336799974"><ele>750.6</ele><time>2026-04-23T12:14:54.999Z</time></trkpt><trkpt lat="36.94084435173089" lon="-4.532465132746288"><ele>748.8</ele><time>2026-04-23T12:14:55.999Z</time></trkpt><trkpt lat="36.94070354319189" lon="-4.532451461040578"><ele>747.0</ele><time>2026-04-23T12:14:56.999Z</time></trkpt><trkpt lat="36.94055161982546" lon="-4.532493439553972"><ele>743.0</ele><time>2026-04-23T12:14:57.999Z</time></trkpt><trkpt lat="36.940421631735106" lon="-4.532605479263505"><ele>739.0</ele><time>2026-04-23T12:14:58.999Z</time></trkpt><trkpt lat="36.940286709035036" lon="-4.532705692498237"><ele>735.0</ele><time>2026-04-23T12:14:59.999Z</time></trkpt><trkpt lat="36.9401835414659" lon="-4.532831312336896"><ele>736.5</ele><time>2026-04-23T12:15:00.999Z</time></trkpt><trkpt lat="36.94007295260587" lon="-4.532910800827095"><ele>738.0</ele><time>2026-04-23T12:15:01.999Z</time></trkpt><trkpt lat="36.93995151398438" lon="-4.532936589353802"><ele>739.5</ele><time>2026-04-23T12:15:02.999Z</time></trkpt><trkpt lat="36.93981664286703" lon="-4.532926291534427"><ele>741.0</ele><time>2026-04-23T12:15:03.999Z</time></trkpt><trkpt lat="36.93968069852692" lon="-4.532884631543411"><ele>735.75</ele><time>2026-04-23T12:15:04.999Z</time></trkpt><trkpt lat="36.939549801727765" lon="-4.532823809804291"><ele>730.5</ele><time>2026-04-23T12:15:05.999Z</time></trkpt><trkpt lat="36.939432789437305" lon="-4.53273674732804"><ele>725.25</ele><time>2026-04-23T12:15:06.999Z</time></trkpt><trkpt lat="36.939337764087675" lon="-4.532604058041965"><ele>720.0</ele><time>2026-04-23T12:15:07.999Z</time></trkpt><trkpt lat="36.93924814651029" lon="-4.53244025229421"><ele>716.3333333333334</ele><time>2026-04-23T12:15:08.999Z</time></trkpt><trkpt lat="36.93915946193348" lon="-4.532276940804192"><ele>712.6666666666667</ele><time>2026-04-23T12:15:09.999Z</time></trkpt><trkpt lat="36.939072281151326" lon="-4.532124043805003"><ele>709.0</ele><time>2026-04-23T12:15:10.999Z</time></trkpt><trkpt lat="36.93898324310663" lon="-4.531980282269173"><ele>706.6666666666667</ele><time>2026-04-23T12:15:11.999Z</time></trkpt><trkpt lat="36.93888919005064" lon="-4.531837647662516"><ele>704.3333333333334</ele><time>2026-04-23T12:15:12.999Z</time></trkpt><trkpt lat="36.938769148508506" lon="-4.531714275982128"><ele>702.0</ele><time>2026-04-23T12:15:13.999Z</time></trkpt><trkpt lat="36.93865901852509" lon="-4.531566937098619"><ele>702.0</ele><time>2026-04-23T12:15:14.999Z</time></trkpt><trkpt lat="36.938532745688754" lon="-4.531443968852932"><ele>702.0</ele><time>2026-04-23T12:15:15.999Z</time></trkpt><trkpt lat="36.93844279740387" lon="-4.531287558568263"><ele>702.0</ele><time>2026-04-23T12:15:16.999Z</time></trkpt><trkpt lat="36.938325908241794" lon="-4.531171373440168"><ele>698.6666666666666</ele><time>2026-04-23T12:15:17.999Z</time></trkpt><trkpt lat="36.93819771143888" lon="-4.531052087251869"><ele>695.3333333333333</ele><time>2026-04-23T12:15:18.999Z</time></trkpt><trkpt lat="36.93806458754188" lon="-4.530910175579543"><ele>692.0</ele><time>2026-04-23T12:15:19.999Z</time></trkpt><trkpt lat="36.93792196551991" lon="-4.530787451480209"><ele>692.0</ele><time>2026-04-23T12:15:20.999Z</time></trkpt><trkpt lat="36.937817640436805" lon="-4.530613779189734"><ele>692.0</ele><time>2026-04-23T12:15:21.999Z</time></trkpt><trkpt lat="36.93773944250022" lon="-4.530433956670082"><ele>692.0</ele><time>2026-04-23T12:15:22.999Z</time></trkpt><trkpt lat="36.9376448666401" lon="-4.530261819760926"><ele>689.75</ele><time>2026-04-23T12:15:23.999Z</time></trkpt><trkpt lat="36.93756485747478" lon="-4.530090380116154"><ele>687.5</ele><time>2026-04-23T12:15:24.999Z</time></trkpt><trkpt lat="36.93749033348889" lon="-4.529938393809726"><ele>685.25</ele><time>2026-04-23T12:15:25.999Z</time></trkpt><trkpt lat="36.93742143828966" lon="-4.529799234057006"><ele>683.0</ele><time>2026-04-23T12:15:26.999Z</time></trkpt><trkpt lat="36.93736761582109" lon="-4.529670297826956"><ele>683.0</ele><time>2026-04-23T12:15:27.999Z</time></trkpt><trkpt lat="36.93728736767551" lon="-4.529574074648728"><ele>683.0</ele><time>2026-04-23T12:15:28.999Z</time></trkpt><trkpt lat="36.937189609390295" lon="-4.529507516497038"><ele>683.0</ele><time>2026-04-23T12:15:29.999Z</time></trkpt><trkpt lat="36.93707391872478" lon="-4.529489933252522"><ele>683.0</ele><time>2026-04-23T12:15:30.999Z</time></trkpt><trkpt lat="36.936946304283616" lon="-4.529504542640637"><ele>681.0</ele><time>2026-04-23T12:15:31.999Z</time></trkpt><trkpt lat="36.93682061865694" lon="-4.529525812473179"><ele>679.0</ele><time>2026-04-23T12:15:32.999Z</time></trkpt><trkpt lat="36.93668445064711" lon="-4.529569513824243"><ele>677.0</ele><time>2026-04-23T12:15:33.999Z</time></trkpt><trkpt lat="36.93656202488" lon="-4.5296788769818415"><ele>675.0</ele><time>2026-04-23T12:15:34.999Z</time></trkpt><trkpt lat="36.936451400317075" lon="-4.5297972706401515"><ele>675.0</ele><time>2026-04-23T12:15:35.999Z</time></trkpt><trkpt lat="36.9363414541042" lon="-4.529918722110616"><ele>675.0</ele><time>2026-04-23T12:15:36.999Z</time></trkpt><trkpt lat="36.93619496232456" lon="-4.530071092852636"><ele>675.0</ele><time>2026-04-23T12:15:37.999Z</time></trkpt><trkpt lat="36.93608921961923" lon="-4.530190948966472"><ele>675.0</ele><time>2026-04-23T12:15:38.999Z</time></trkpt><trkpt lat="36.935982650278795" lon="-4.530272883526084"><ele>675.0</ele><time>2026-04-23T12:15:39.998Z</time></trkpt><trkpt lat="36.935864574349424" lon="-4.530308826794944"><ele>675.0</ele><time>2026-04-23T12:15:40.998Z</time></trkpt><trkpt lat="36.93573513528472" lon="-4.530294316687575"><ele>675.0</ele><time>2026-04-23T12:15:41.998Z</time></trkpt><trkpt lat="36.93560056500828" lon="-4.530226733346602"><ele>672.0</ele><time>2026-04-23T12:15:42.998Z</time></trkpt><trkpt lat="36.93546316443084" lon="-4.530102460177991"><ele>669.0</ele><time>2026-04-23T12:15:43.998Z</time></trkpt><trkpt lat="36.93530928917311" lon="-4.529969879015408"><ele>666.0</ele><time>2026-04-23T12:15:44.998Z</time></trkpt><trkpt lat="36.93516200321672" lon="-4.529870908580604"><ele>661.75</ele><time>2026-04-23T12:15:45.998Z</time></trkpt><trkpt lat="36.93503347063205" lon="-4.529773347925172"><ele>657.5</ele><time>2026-04-23T12:15:46.998Z</time></trkpt><trkpt lat="36.934928645959594" lon="-4.529661789876221"><ele>653.25</ele><time>2026-04-23T12:15:47.998Z</time></trkpt><trkpt lat="36.93485276902404" lon="-4.529520606265869"><ele>649.0</ele><time>2026-04-23T12:15:48.998Z</time></trkpt><trkpt lat="36.93481693063944" lon="-4.529347302877277"><ele>648.3333333333334</ele><time>2026-04-23T12:15:49.998Z</time></trkpt><trkpt lat="36.93481409224317" lon="-4.52913795759023"><ele>647.6666666666666</ele><time>2026-04-23T12:15:50.998Z</time></trkpt><trkpt lat="36.934852312803066" lon="-4.528942226786207"><ele>647.0</ele><time>2026-04-23T12:15:51.998Z</time></trkpt><trkpt lat="36.93489902497606" lon="-4.528785871536902"><ele>645.0</ele><time>2026-04-23T12:15:52.998Z</time></trkpt><trkpt lat="36.934923094952204" lon="-4.52867073257462"><ele>643.0</ele><time>2026-04-23T12:15:53.998Z</time></trkpt><trkpt lat="36.934902037196785" lon="-4.528586749327606"><ele>641.0</ele><time>2026-04-23T12:15:54.998Z</time></trkpt><trkpt lat="36.934833771833546" lon="-4.5285176848945214"><ele>639.0</ele><time>2026-04-23T12:15:55.998Z</time></trkpt><trkpt lat="36.93471078722346" lon="-4.528552443009609"><ele>637.0</ele><time>2026-04-23T12:15:56.998Z</time></trkpt><trkpt lat="36.934570759713395" lon="-4.528568463858706"><ele>637.0</ele><time>2026-04-23T12:15:57.998Z</time></trkpt><trkpt lat="36.9344133810178" lon="-4.528576034744067"><ele>637.0</ele><time>2026-04-23T12:15:59Z</time></trkpt><trkpt lat="36.934264766430125" lon="-4.528564588565458"><ele>637.0</ele><time>2026-04-23T12:16:00Z</time></trkpt><trkpt lat="36.93412364017251" lon="-4.528567938115723"><ele>637.0</ele><time>2026-04-23T12:16:01Z</time></trkpt><trkpt lat="36.9339861137263" lon="-4.528564371781222"><ele>635.5</ele><time>2026-04-23T12:16:02Z</time></trkpt><trkpt lat="36.933855807094154" lon="-4.528544312945979"><ele>634.0</ele><time>2026-04-23T12:16:03Z</time></trkpt><trkpt lat="36.933742486149626" lon="-4.528508315174988"><ele>632.5</ele><time>2026-04-23T12:16:04Z</time></trkpt><trkpt lat="36.93365141248254" lon="-4.5284575100048405"><ele>631.0</ele><time>2026-04-23T12:16:05Z</time></trkpt><trkpt lat="36.933562703679165" lon="-4.528370645644493"><ele>631.0</ele><time>2026-04-23T12:16:06Z</time></trkpt><trkpt lat="36.93349168115425" lon="-4.5282448450510415"><ele>631.0</ele><time>2026-04-23T12:16:07Z</time></trkpt><trkpt lat="36.9334453035744" lon="-4.528092287087634"><ele>631.0</ele><time>2026-04-23T12:16:08Z</time></trkpt><trkpt lat="36.93342178818265" lon="-4.527949032549587"><ele>631.0</ele><time>2026-04-23T12:16:09Z</time></trkpt><trkpt lat="36.93338429647202" lon="-4.527844615993764"><ele>628.6</ele><time>2026-04-23T12:16:10Z</time></trkpt><trkpt lat="36.933323623553406" lon="-4.527781284825345"><ele>626.2</ele><time>2026-04-23T12:16:11Z</time></trkpt><trkpt lat="36.93322577198118" lon="-4.527808397573868"><ele>623.8</ele><time>2026-04-23T12:16:12Z</time></trkpt><trkpt lat="36.93314960305907" lon="-4.527875140542065"><ele>621.4</ele><time>2026-04-23T12:16:13Z</time></trkpt><trkpt lat="36.93308003721306" lon="-4.527993307348957"><ele>619.0</ele><time>2026-04-23T12:16:14Z</time></trkpt><trkpt lat="36.93298669992409" lon="-4.528118857281768"><ele>619.0</ele><time>2026-04-23T12:16:15Z</time></trkpt><trkpt lat="36.93290322501811" lon="-4.528215544839404"><ele>619.0</ele><time>2026-04-23T12:16:16Z</time></trkpt><trkpt lat="36.932847253991774" lon="-4.528321958744479"><ele>619.0</ele><time>2026-04-23T12:16:17Z</time></trkpt><trkpt lat="36.93278486524616" lon="-4.528415455216467"><ele>619.0</ele><time>2026-04-23T12:16:18Z</time></trkpt><trkpt lat="36.932717699805885" lon="-4.528502899336484"><ele>619.0</ele><time>2026-04-23T12:16:19Z</time></trkpt><trkpt lat="36.932655193206514" lon="-4.528591250278848"><ele>619.0</ele><time>2026-04-23T12:16:20Z</time></trkpt><trkpt lat="36.93259851601459" lon="-4.528678958260992"><ele>619.0</ele><time>2026-04-23T12:16:21Z</time></trkpt><trkpt lat="36.932542738154034" lon="-4.528755483057852"><ele>619.0</ele><time>2026-04-23T12:16:22Z</time></trkpt><trkpt lat="36.93248965427769" lon="-4.528825237247161"><ele>619.0</ele><time>2026-04-23T12:16:23Z</time></trkpt><trkpt lat="36.93243754445601" lon="-4.5288959376837825"><ele>619.0</ele><time>2026-04-23T12:16:24Z</time></trkpt><trkpt lat="36.93238955151062" lon="-4.528959696151051"><ele>619.0</ele><time>2026-04-23T12:16:25Z</time></trkpt><trkpt lat="36.932337173444395" lon="-4.529015080306733"><ele>617.5</ele><time>2026-04-23T12:16:26Z</time></trkpt><trkpt lat="36.932213983608015" lon="-4.529009261198199"><ele>616.0</ele><time>2026-04-23T12:16:28Z</time></trkpt><trkpt lat="36.93215341044686" lon="-4.528964839979577"><ele>614.5</ele><time>2026-04-23T12:16:29Z</time></trkpt><trkpt lat="36.932089533640855" lon="-4.528920608982769"><ele>613.0</ele><time>2026-04-23T12:16:30Z</time></trkpt><trkpt lat="36.93200469770301" lon="-4.528873400426285"><ele>611.5</ele><time>2026-04-23T12:16:31Z</time></trkpt><trkpt lat="36.931925182831336" lon="-4.528821393585052"><ele>610.0</ele><time>2026-04-23T12:16:32Z</time></trkpt><trkpt lat="36.931856917067606" lon="-4.528755718126574"><ele>610.1666666666667</ele><time>2026-04-23T12:16:33Z</time></trkpt><trkpt lat="36.931799689581474" lon="-4.528672782177866"><ele>610.3333333333334</ele><time>2026-04-23T12:16:34Z</time></trkpt><trkpt lat="36.93175020701055" lon="-4.528580184014367"><ele>610.5</ele><time>2026-04-23T12:16:35Z</time></trkpt><trkpt lat="36.93170179852811" lon="-4.5284964280302065"><ele>610.6666666666666</ele><time>2026-04-23T12:16:36Z</time></trkpt><trkpt lat="36.93164852885408" lon="-4.528405053573615"><ele>610.8333333333333</ele><time>2026-04-23T12:16:37Z</time></trkpt><trkpt lat="36.93159895986503" lon="-4.52830045807099"><ele>611.0</ele><time>2026-04-23T12:16:38Z</time></trkpt><trkpt lat="36.931553568986565" lon="-4.528196573089471"><ele>609.0</ele><time>2026-04-23T12:16:39Z</time></trkpt><trkpt lat="36.93150187829867" lon="-4.528106940135675"><ele>607.0</ele><time>2026-04-23T12:16:40Z</time></trkpt><trkpt lat="36.931429614143966" lon="-4.528017898498124"><ele>605.0</ele><time>2026-04-23T12:16:42Z</time></trkpt><trkpt lat="36.93134701911753" lon="-4.527893196175694"><ele>603.0</ele><time>2026-04-23T12:16:44Z</time></trkpt><trkpt lat="36.93126259848743" lon="-4.527830096533114"><ele>601.0</ele><time>2026-04-23T12:16:45Z</time></trkpt><trkpt lat="36.93117180323484" lon="-4.527771322454216"><ele>599.4</ele><time>2026-04-23T12:16:46Z</time></trkpt><trkpt lat="36.931080078554764" lon="-4.527750418827168"><ele>597.8</ele><time>2026-04-23T12:16:47Z</time></trkpt><trkpt lat="36.93099374148837" lon="-4.527691985713061"><ele>596.1999999999999</ele><time>2026-04-23T12:16:48Z</time></trkpt><trkpt lat="36.93091316627321" lon="-4.527651057654464"><ele>594.6</ele><time>2026-04-23T12:16:49Z</time></trkpt><trkpt lat="36.93083521677788" lon="-4.527611085945324"><ele>593.0</ele><time>2026-04-23T12:16:50Z</time></trkpt><trkpt lat="36.93075222254473" lon="-4.527573311104689"><ele>592.0</ele><time>2026-04-23T12:16:51Z</time></trkpt><trkpt lat="36.930669715639056" lon="-4.527537191473373"><ele>591.0</ele><time>2026-04-23T12:16:52Z</time></trkpt><trkpt lat="36.93057095454757" lon="-4.527523041652879"><ele>590.0</ele><time>2026-04-23T12:16:53Z</time></trkpt><trkpt lat="36.930460907648275" lon="-4.527500285836689"><ele>589.0</ele><time>2026-04-23T12:16:54Z</time></trkpt><trkpt lat="36.930357158506084" lon="-4.527467351727374"><ele>588.0</ele><time>2026-04-23T12:16:55Z</time></trkpt><trkpt lat="36.930256730752326" lon="-4.527462062705136"><ele>588.0</ele><time>2026-04-23T12:16:56Z</time></trkpt><trkpt lat="36.93016086139857" lon="-4.527459990226628"><ele>588.0</ele><time>2026-04-23T12:16:57Z</time></trkpt><trkpt lat="36.930075108950724" lon="-4.527458984074592"><ele>588.0</ele><time>2026-04-23T12:16:58Z</time></trkpt><trkpt lat="36.929992491606235" lon="-4.5274654298397135"><ele>588.0</ele><time>2026-04-23T12:16:58.999Z</time></trkpt><trkpt lat="36.92990941631909" lon="-4.527490547215596"><ele>588.0</ele><time>2026-04-23T12:16:59.999Z</time></trkpt><trkpt lat="36.929842804597214" lon="-4.527558484233609"><ele>588.0</ele><time>2026-04-23T12:17:00.999Z</time></trkpt><trkpt lat="36.929813352156465" lon="-4.527683720358946"><ele>586.0</ele><time>2026-04-23T12:17:01.999Z</time></trkpt><trkpt lat="36.92975445876455" lon="-4.527804157538292"><ele>584.0</ele><time>2026-04-23T12:17:02.999Z</time></trkpt><trkpt lat="36.929709596887065" lon="-4.527948940816134"><ele>582.0</ele><time>2026-04-23T12:17:03.999Z</time></trkpt><trkpt lat="36.92966064862666" lon="-4.528074904835298"><ele>580.0</ele><time>2026-04-23T12:17:04.999Z</time></trkpt><trkpt lat="36.929610487391216" lon="-4.528186280852953"><ele>580.0</ele><time>2026-04-23T12:17:05.999Z</time></trkpt><trkpt lat="36.92955669239942" lon="-4.528288533448379"><ele>580.0</ele><time>2026-04-23T12:17:06.999Z</time></trkpt><trkpt lat="36.929492887682265" lon="-4.528386854726249"><ele>580.0</ele><time>2026-04-23T12:17:07.999Z</time></trkpt><trkpt lat="36.92942093572254" lon="-4.528474710902989"><ele>580.0</ele><time>2026-04-23T12:17:08.999Z</time></trkpt><trkpt lat="36.929349469003256" lon="-4.5285454215968635"><ele>580.0</ele><time>2026-04-23T12:17:09.999Z</time></trkpt><trkpt lat="36.92926514488547" lon="-4.528599798221666"><ele>576.25</ele><time>2026-04-23T12:17:10.999Z</time></trkpt><trkpt lat="36.929170005771724" lon="-4.528638325656081"><ele>572.5</ele><time>2026-04-23T12:17:11.999Z</time></trkpt><trkpt lat="36.92905282639402" lon="-4.528662797170443"><ele>568.75</ele><time>2026-04-23T12:17:12.999Z</time></trkpt><trkpt lat="36.928928789608314" lon="-4.52867458973265"><ele>565.0</ele><time>2026-04-23T12:17:13.999Z</time></trkpt><trkpt lat="36.928795256385065" lon="-4.528647827623181"><ele>565.0</ele><time>2026-04-23T12:17:14.999Z</time></trkpt><trkpt lat="36.92866530107026" lon="-4.52858359438446"><ele>565.0</ele><time>2026-04-23T12:17:15.999Z</time></trkpt><trkpt lat="36.92853242009274" lon="-4.528494525338488"><ele>565.0</ele><time>2026-04-23T12:17:16.999Z</time></trkpt><trkpt lat="36.92839066899087" lon="-4.528427882184121"><ele>565.0</ele><time>2026-04-23T12:17:17.999Z</time></trkpt><trkpt lat="36.928244707546625" lon="-4.528405389478702"><ele>563.0</ele><time>2026-04-23T12:17:18.999Z</time></trkpt><trkpt lat="36.9281101748675" lon="-4.528437584258464"><ele>561.0</ele><time>2026-04-23T12:17:19.999Z</time></trkpt><trkpt lat="36.927983942102145" lon="-4.528467933739236"><ele>559.0</ele><time>2026-04-23T12:17:20.999Z</time></trkpt><trkpt lat="36.927866299532425" lon="-4.5284525769989665"><ele>557.0</ele><time>2026-04-23T12:17:21.999Z</time></trkpt><trkpt lat="36.927755438079345" lon="-4.528387369764594"><ele>557.0</ele><time>2026-04-23T12:17:22.999Z</time></trkpt><trkpt lat="36.927643244440446" lon="-4.528290377497299"><ele>557.0</ele><time>2026-04-23T12:17:23.999Z</time></trkpt><trkpt lat="36.9275193795114" lon="-4.528224366598749"><ele>557.0</ele><time>2026-04-23T12:17:24.999Z</time></trkpt><trkpt lat="36.92739084969562" lon="-4.528187977887634"><ele>557.0</ele><time>2026-04-23T12:17:25.999Z</time></trkpt><trkpt lat="36.92723740744951" lon="-4.5282133875854615"><ele>554.6666666666666</ele><time>2026-04-23T12:17:26.999Z</time></trkpt><trkpt lat="36.927069234012485" lon="-4.5282489021806835"><ele>552.3333333333334</ele><time>2026-04-23T12:17:27.999Z</time></trkpt><trkpt lat="36.92689665720878" lon="-4.528282742916254"><ele>550.0</ele><time>2026-04-23T12:17:28.999Z</time></trkpt><trkpt lat="36.926734368301844" lon="-4.528335422612465"><ele>548.25</ele><time>2026-04-23T12:17:29.999Z</time></trkpt><trkpt lat="36.92658368100971" lon="-4.528378685595401"><ele>546.5</ele><time>2026-04-23T12:17:30.999Z</time></trkpt><trkpt lat="36.92645008873067" lon="-4.528426938060031"><ele>544.75</ele><time>2026-04-23T12:17:31.999Z</time></trkpt><trkpt lat="36.926333384654995" lon="-4.528455529343894"><ele>543.0</ele><time>2026-04-23T12:17:32.999Z</time></trkpt><trkpt lat="36.926228939315706" lon="-4.5284520160214905"><ele>543.0</ele><time>2026-04-23T12:17:33.999Z</time></trkpt><trkpt lat="36.92613689424343" lon="-4.528382736389896"><ele>543.0</ele><time>2026-04-23T12:17:34.999Z</time></trkpt><trkpt lat="36.92605666777625" lon="-4.528250740186453"><ele>543.0</ele><time>2026-04-23T12:17:35.999Z</time></trkpt><trkpt lat="36.92597006236236" lon="-4.5280783305137655"><ele>543.0</ele><time>2026-04-23T12:17:36.999Z</time></trkpt><trkpt lat="36.92585644763643" lon="-4.527909228128304"><ele>539.25</ele><time>2026-04-23T12:17:37.999Z</time></trkpt><trkpt lat="36.92573103455247" lon="-4.5277915842798775"><ele>535.5</ele><time>2026-04-23T12:17:38.999Z</time></trkpt><trkpt lat="36.92561793728416" lon="-4.52768890736179"><ele>531.75</ele><time>2026-04-23T12:17:39.999Z</time></trkpt><trkpt lat="36.9255197212232" lon="-4.527580496547831"><ele>528.0</ele><time>2026-04-23T12:17:40.999Z</time></trkpt><trkpt lat="36.925419209126396" lon="-4.5275002996322185"><ele>528.0</ele><time>2026-04-23T12:17:41.999Z</time></trkpt><trkpt lat="36.925342532101325" lon="-4.527436746745641"><ele>528.0</ele><time>2026-04-23T12:17:42.999Z</time></trkpt><trkpt lat="36.92529279318136" lon="-4.527381706203736"><ele>528.0</ele><time>2026-04-23T12:17:43.999Z</time></trkpt><trkpt lat="36.92527427466495" lon="-4.527205276224103"><ele>528.0</ele><time>2026-04-23T12:17:45.999Z</time></trkpt><trkpt lat="36.92540287846822" lon="-4.527109043627393"><ele>525.0</ele><time>2026-04-23T12:17:46.999Z</time></trkpt><trkpt lat="36.92552586470936" lon="-4.5270378882890965"><ele>522.0</ele><time>2026-04-23T12:17:47.999Z</time></trkpt><trkpt lat="36.925661834963606" lon="-4.526975629849875"><ele>519.0</ele><time>2026-04-23T12:17:48.999Z</time></trkpt><trkpt lat="36.92579630548428" lon="-4.526922904763185"><ele>516.0</ele><time>2026-04-23T12:17:49.999Z</time></trkpt><trkpt lat="36.92589223115014" lon="-4.526860777134595"><ele>516.0</ele><time>2026-04-23T12:17:50.999Z</time></trkpt><trkpt lat="36.925963652395936" lon="-4.526773656646723"><ele>516.0</ele><time>2026-04-23T12:17:52.999Z</time></trkpt><trkpt lat="36.925920285405276" lon="-4.5266626013595275"><ele>516.0</ele><time>2026-04-23T12:17:53.999Z</time></trkpt><trkpt lat="36.92580646207273" lon="-4.52658095036485"><ele>516.0</ele><time>2026-04-23T12:17:54.999Z</time></trkpt><trkpt lat="36.92568705064488" lon="-4.526460677641919"><ele>516.0</ele><time>2026-04-23T12:17:55.999Z</time></trkpt><trkpt lat="36.925543179151894" lon="-4.526342323765666"><ele>516.0</ele><time>2026-04-23T12:17:56.999Z</time></trkpt><trkpt lat="36.925406777387906" lon="-4.5261920543820935"><ele>516.0</ele><time>2026-04-23T12:17:57.999Z</time></trkpt><trkpt lat="36.925279810724675" lon="-4.526062179964899"><ele>513.5</ele><time>2026-04-23T12:17:58.999Z</time></trkpt><trkpt lat="36.92514899784531" lon="-4.5259742019395475"><ele>511.0</ele><time>2026-04-23T12:17:59.999Z</time></trkpt><trkpt lat="36.9250103905168" lon="-4.525911266306741"><ele>508.5</ele><time>2026-04-23T12:18:00.999Z</time></trkpt><trkpt lat="36.924881513587316" lon="-4.525809991513602"><ele>506.0</ele><time>2026-04-23T12:18:01.999Z</time></trkpt><trkpt lat="36.92476881434269" lon="-4.5256960802325725"><ele>505.5</ele><time>2026-04-23T12:18:02.999Z</time></trkpt><trkpt lat="36.924681442237826" lon="-4.525559277942911"><ele>505.0</ele><time>2026-04-23T12:18:03.999Z</time></trkpt><trkpt lat="36.92459426082322" lon="-4.525455436636838"><ele>504.5</ele><time>2026-04-23T12:18:05Z</time></trkpt><trkpt lat="36.92451745748614" lon="-4.525377037585341"><ele>504.0</ele><time>2026-04-23T12:18:06Z</time></trkpt><trkpt lat="36.92442661716369" lon="-4.525351961874337"><ele>502.5</ele><time>2026-04-23T12:18:07Z</time></trkpt><trkpt lat="36.924319052805984" lon="-4.525359352137804"><ele>501.0</ele><time>2026-04-23T12:18:08Z</time></trkpt><trkpt lat="36.92419950636795" lon="-4.5254473283281405"><ele>499.5</ele><time>2026-04-23T12:18:09Z</time></trkpt><trkpt lat="36.92407742192358" lon="-4.52556907956953"><ele>498.0</ele><time>2026-04-23T12:18:10Z</time></trkpt><trkpt lat="36.923941187617714" lon="-4.525703257477522"><ele>498.0</ele><time>2026-04-23T12:18:11Z</time></trkpt><trkpt lat="36.923802485198195" lon="-4.525836333123655"><ele>498.0</ele><time>2026-04-23T12:18:12Z</time></trkpt><trkpt lat="36.92367700182823" lon="-4.525950624050455"><ele>498.0</ele><time>2026-04-23T12:18:13Z</time></trkpt><trkpt lat="36.92355210913817" lon="-4.5260522368783835"><ele>498.0</ele><time>2026-04-23T12:18:14Z</time></trkpt><trkpt lat="36.923422331743154" lon="-4.526117496063295"><ele>498.0</ele><time>2026-04-23T12:18:15Z</time></trkpt><trkpt lat="36.923286388590704" lon="-4.526144411377944"><ele>498.0</ele><time>2026-04-23T12:18:16Z</time></trkpt><trkpt lat="36.923148497320376" lon="-4.526141250388963"><ele>498.0</ele><time>2026-04-23T12:18:17Z</time></trkpt><trkpt lat="36.92300163928707" lon="-4.526132473867866"><ele>494.33333333333337</ele><time>2026-04-23T12:18:18Z</time></trkpt><trkpt lat="36.92284120522349" lon="-4.526126168279299"><ele>490.6666666666667</ele><time>2026-04-23T12:18:19Z</time></trkpt><trkpt lat="36.92268198277988" lon="-4.526122620073105"><ele>487.0</ele><time>2026-04-23T12:18:20Z</time></trkpt><trkpt lat="36.92252932873866" lon="-4.526109157891606"><ele>483.33333333333337</ele><time>2026-04-23T12:18:21Z</time></trkpt><trkpt lat="36.92237572636091" lon="-4.526094166410114"><ele>479.66666666666663</ele><time>2026-04-23T12:18:22Z</time></trkpt><trkpt lat="36.92221588092895" lon="-4.526078298947798"><ele>476.0</ele><time>2026-04-23T12:18:23Z</time></trkpt><trkpt lat="36.92205118280775" lon="-4.526069152090463"><ele>476.0</ele><time>2026-04-23T12:18:24Z</time></trkpt><trkpt lat="36.92189592522981" lon="-4.526068293551437"><ele>476.0</ele><time>2026-04-23T12:18:25Z</time></trkpt><trkpt lat="36.92173565174896" lon="-4.5260653124345644"><ele>476.0</ele><time>2026-04-23T12:18:26Z</time></trkpt><trkpt lat="36.92158452754264" lon="-4.526058694604389"><ele>474.5</ele><time>2026-04-23T12:18:27Z</time></trkpt><trkpt lat="36.921444154482195" lon="-4.5260579343613845"><ele>473.0</ele><time>2026-04-23T12:18:28Z</time></trkpt><trkpt lat="36.92130933495463" lon="-4.526055300163577"><ele>471.5</ele><time>2026-04-23T12:18:29Z</time></trkpt><trkpt lat="36.92118395657961" lon="-4.526016984163797"><ele>470.0</ele><time>2026-04-23T12:18:30Z</time></trkpt><trkpt lat="36.92106755989667" lon="-4.525950076607989"><ele>470.0</ele><time>2026-04-23T12:18:31Z</time></trkpt><trkpt lat="36.92096513864597" lon="-4.525838244511082"><ele>470.0</ele><time>2026-04-23T12:18:32Z</time></trkpt><trkpt lat="36.92087938387745" lon="-4.525719012911504"><ele>470.0</ele><time>2026-04-23T12:18:33Z</time></trkpt><trkpt lat="36.920779665627016" lon="-4.525631243450007"><ele>470.0</ele><time>2026-04-23T12:18:34Z</time></trkpt><trkpt lat="36.92068594507918" lon="-4.525549275920467"><ele>469.0</ele><time>2026-04-23T12:18:35Z</time></trkpt><trkpt lat="36.92059042673572" lon="-4.525490402709026"><ele>468.0</ele><time>2026-04-23T12:18:36Z</time></trkpt><trkpt lat="36.92048034381474" lon="-4.525451148550251"><ele>467.0</ele><time>2026-04-23T12:18:37Z</time></trkpt><trkpt lat="36.92036706629072" lon="-4.525434304259894"><ele>466.0</ele><time>2026-04-23T12:18:38Z</time></trkpt><trkpt lat="36.92024327798981" lon="-4.525457293935291"><ele>466.0</ele><time>2026-04-23T12:18:39Z</time></trkpt><trkpt lat="36.92012093317437" lon="-4.525479097076961"><ele>466.0</ele><time>2026-04-23T12:18:40Z</time></trkpt><trkpt lat="36.919999372863124" lon="-4.52549045081304"><ele>466.0</ele><time>2026-04-23T12:18:41Z</time></trkpt><trkpt lat="36.91988252658297" lon="-4.525507123707797"><ele>466.0</ele><time>2026-04-23T12:18:42Z</time></trkpt><trkpt lat="36.91977038559639" lon="-4.525525339835223"><ele>464.8</ele><time>2026-04-23T12:18:43Z</time></trkpt><trkpt lat="36.91966139754356" lon="-4.525540854754467"><ele>463.6</ele><time>2026-04-23T12:18:44Z</time></trkpt><trkpt lat="36.91955193543529" lon="-4.525543620656793"><ele>462.4</ele><time>2026-04-23T12:18:45Z</time></trkpt><trkpt lat="36.9194424820774" lon="-4.525528425634673"><ele>461.2</ele><time>2026-04-23T12:18:46Z</time></trkpt><trkpt lat="36.919335487519035" lon="-4.525511842530693"><ele>460.0</ele><time>2026-04-23T12:18:47Z</time></trkpt><trkpt lat="36.919227643370355" lon="-4.52549332021814"><ele>457.4</ele><time>2026-04-23T12:18:48Z</time></trkpt><trkpt lat="36.91912413466664" lon="-4.52549305407755"><ele>454.8</ele><time>2026-04-23T12:18:49Z</time></trkpt><trkpt lat="36.91902529570806" lon="-4.525525930703054"><ele>452.20000000000005</ele><time>2026-04-23T12:18:50Z</time></trkpt><trkpt lat="36.91894316743036" lon="-4.525600402346523"><ele>449.6</ele><time>2026-04-23T12:18:51Z</time></trkpt><trkpt lat="36.91884844175571" lon="-4.525645714161993"><ele>447.0</ele><time>2026-04-23T12:18:52Z</time></trkpt><trkpt lat="36.91876758340089" lon="-4.525711873007432"><ele>447.0</ele><time>2026-04-23T12:18:53Z</time></trkpt><trkpt lat="36.918688411289246" lon="-4.5257710494973145"><ele>447.00000000000006</ele><time>2026-04-23T12:18:54Z</time></trkpt><trkpt lat="36.918618603690895" lon="-4.525825310654608"><ele>447.00000000000006</ele><time>2026-04-23T12:18:55Z</time></trkpt><trkpt lat="36.91855764586544" lon="-4.525865092833603"><ele>447.0</ele><time>2026-04-23T12:18:56Z</time></trkpt><trkpt lat="36.91844580378359" lon="-4.525856240744435"><ele>447.0</ele><time>2026-04-23T12:18:58Z</time></trkpt><trkpt lat="36.9183828544522" lon="-4.52571909845526"><ele>447.0</ele><time>2026-04-23T12:19:00Z</time></trkpt><trkpt lat="36.91838973796493" lon="-4.525618173854885"><ele>447.0</ele><time>2026-04-23T12:19:01Z</time></trkpt><trkpt lat="36.91842512882926" lon="-4.525522894244898"><ele>447.0</ele><time>2026-04-23T12:19:02Z</time></trkpt><trkpt lat="36.91846438240024" lon="-4.525431686651927"><ele>447.0</ele><time>2026-04-23T12:19:03Z</time></trkpt><trkpt lat="36.91851014070015" lon="-4.525341685660659"><ele>447.0</ele><time>2026-04-23T12:19:04Z</time></trkpt><trkpt lat="36.918555201027054" lon="-4.52525799372068"><ele>447.0</ele><time>2026-04-23T12:19:05Z</time></trkpt><trkpt lat="36.918586380872526" lon="-4.525178612476831"><ele>445.6666666666667</ele><time>2026-04-23T12:19:06Z</time></trkpt><trkpt lat="36.918620882898956" lon="-4.525105366538498"><ele>444.33333333333337</ele><time>2026-04-23T12:19:07Z</time></trkpt><trkpt lat="36.91865900650816" lon="-4.525036357368495"><ele>443.0</ele><time>2026-04-23T12:19:08Z</time></trkpt><trkpt lat="36.91866298091396" lon="-4.524954291382416"><ele>441.6666666666667</ele><time>2026-04-23T12:19:09Z</time></trkpt><trkpt lat="36.918637074989576" lon="-4.524878722046507"><ele>440.33333333333337</ele><time>2026-04-23T12:19:10Z</time></trkpt><trkpt lat="36.918560948662254" lon="-4.524831553039511"><ele>439.0</ele><time>2026-04-23T12:19:11Z</time></trkpt><trkpt lat="36.918452753221345" lon="-4.5248499240959585"><ele>438.00000000000006</ele><time>2026-04-23T12:19:12Z</time></trkpt><trkpt lat="36.91835604831928" lon="-4.524813388804412"><ele>437.0</ele><time>2026-04-23T12:19:13Z</time></trkpt><trkpt lat="36.91826289140898" lon="-4.5247997402455145"><ele>436.0</ele><time>2026-04-23T12:19:14Z</time></trkpt><trkpt lat="36.91817485804718" lon="-4.524771170322349"><ele>435.0</ele><time>2026-04-23T12:19:15Z</time></trkpt><trkpt lat="36.918097597766476" lon="-4.524732350342976"><ele>434.00000000000006</ele><time>2026-04-23T12:19:16Z</time></trkpt><trkpt lat="36.91803067376217" lon="-4.524695911168773"><ele>433.0</ele><time>2026-04-23T12:19:17Z</time></trkpt><trkpt lat="36.917957278905085" lon="-4.524669301527401"><ele>433.00000000000006</ele><time>2026-04-23T12:19:18Z</time></trkpt><trkpt lat="36.91788883096847" lon="-4.524634574691671"><ele>433.0</ele><time>2026-04-23T12:19:19Z</time></trkpt><trkpt lat="36.91781608465764" lon="-4.524604465710119"><ele>433.0</ele><time>2026-04-23T12:19:19.999Z</time></trkpt><trkpt lat="36.9177366531872" lon="-4.5245678938251475"><ele>433.0</ele><time>2026-04-23T12:19:20.999Z</time></trkpt><trkpt lat="36.917654894236335" lon="-4.524530370617935"><ele>433.00000000000006</ele><time>2026-04-23T12:19:21.999Z</time></trkpt><trkpt lat="36.91757543758987" lon="-4.5245000431667375"><ele>433.0</ele><time>2026-04-23T12:19:22.999Z</time></trkpt><trkpt lat="36.917502265154724" lon="-4.524464767465219"><ele>431.4285714285714</ele><time>2026-04-23T12:19:23.999Z</time></trkpt><trkpt lat="36.91743685491041" lon="-4.524425984014447"><ele>429.85714285714283</ele><time>2026-04-23T12:19:24.999Z</time></trkpt><trkpt lat="36.917377199265765" lon="-4.524385862835991"><ele>428.2857142857143</ele><time>2026-04-23T12:19:25.999Z</time></trkpt><trkpt lat="36.91731806987892" lon="-4.524342358511883"><ele>426.71428571428567</ele><time>2026-04-23T12:19:26.999Z</time></trkpt><trkpt lat="36.917252508598665" lon="-4.524286941552517"><ele>425.14285714285717</ele><time>2026-04-23T12:19:27.999Z</time></trkpt><trkpt lat="36.91719365943622" lon="-4.524222563413578"><ele>423.57142857142856</ele><time>2026-04-23T12:19:28.999Z</time></trkpt><trkpt lat="36.9171407103197" lon="-4.524146318930271"><ele>422.0</ele><time>2026-04-23T12:19:29.999Z</time></trkpt><trkpt lat="36.917082899650616" lon="-4.524051653836074"><ele>422.0</ele><time>2026-04-23T12:19:30.999Z</time></trkpt><trkpt lat="36.917038199016325" lon="-4.523941772215079"><ele>422.0</ele><time>2026-04-23T12:19:31.999Z</time></trkpt><trkpt lat="36.91698916224" lon="-4.523824293918026"><ele>422.0</ele><time>2026-04-23T12:19:32.999Z</time></trkpt><trkpt lat="36.91696448807419" lon="-4.5237068652360755"><ele>422.0</ele><time>2026-04-23T12:19:33.999Z</time></trkpt><trkpt lat="36.916943870299335" lon="-4.523606864778443"><ele>422.0</ele><time>2026-04-23T12:19:34.999Z</time></trkpt><trkpt lat="36.91692031076705" lon="-4.523526487010675"><ele>422.0</ele><time>2026-04-23T12:19:35.999Z</time></trkpt><trkpt lat="36.91682597618966" lon="-4.523452599480887"><ele>422.0</ele><time>2026-04-23T12:19:37.999Z</time></trkpt><trkpt lat="36.91674532969878" lon="-4.523511144319437"><ele>422.0</ele><time>2026-04-23T12:19:38.999Z</time></trkpt><trkpt lat="36.91665448449348" lon="-4.523535612747158"><ele>422.0</ele><time>2026-04-23T12:19:39.999Z</time></trkpt><trkpt lat="36.91656584653893" lon="-4.523578145904745"><ele>422.0</ele><time>2026-04-23T12:19:40.999Z</time></trkpt><trkpt lat="36.91647393132642" lon="-4.523616487808048"><ele>422.0</ele><time>2026-04-23T12:19:41.999Z</time></trkpt><trkpt lat="36.91637426521598" lon="-4.523650327163321"><ele>422.0</ele><time>2026-04-23T12:19:42.999Z</time></trkpt><trkpt lat="36.91625801075606" lon="-4.523694211321693"><ele>422.0</ele><time>2026-04-23T12:19:43.999Z</time></trkpt><trkpt lat="36.916123289539755" lon="-4.523721800411047"><ele>422.0</ele><time>2026-04-23T12:19:44.999Z</time></trkpt><trkpt lat="36.915964585477546" lon="-4.523722735941444"><ele>422.66666666666663</ele><time>2026-04-23T12:19:45.999Z</time></trkpt><trkpt lat="36.91579299202813" lon="-4.523710765769702"><ele>423.33333333333337</ele><time>2026-04-23T12:19:46.999Z</time></trkpt><trkpt lat="36.91561169313343" lon="-4.523695000683535"><ele>424.0</ele><time>2026-04-23T12:19:47.999Z</time></trkpt><trkpt lat="36.91542054377347" lon="-4.523669873688335"><ele>424.0</ele><time>2026-04-23T12:19:48.999Z</time></trkpt><trkpt lat="36.91522179040547" lon="-4.52364641826654"><ele>424.0</ele><time>2026-04-23T12:19:49.999Z</time></trkpt><trkpt lat="36.915038865290256" lon="-4.523630999125538"><ele>424.0</ele><time>2026-04-23T12:19:50.999Z</time></trkpt><trkpt lat="36.91486084024992" lon="-4.523624446012295"><ele>422.0</ele><time>2026-04-23T12:19:51.999Z</time></trkpt><trkpt lat="36.91467352248517" lon="-4.523618163900222"><ele>420.0</ele><time>2026-04-23T12:19:52.999Z</time></trkpt><trkpt lat="36.914481447429985" lon="-4.523603707716869"><ele>418.0</ele><time>2026-04-23T12:19:53.999Z</time></trkpt><trkpt lat="36.91428264157996" lon="-4.523592011926665"><ele>416.0</ele><time>2026-04-23T12:19:54.999Z</time></trkpt><trkpt lat="36.914081941525794" lon="-4.523579654688063"><ele>414.0</ele><time>2026-04-23T12:19:55.999Z</time></trkpt><trkpt lat="36.91387433966113" lon="-4.523566572262485"><ele>412.0</ele><time>2026-04-23T12:19:56.999Z</time></trkpt><trkpt lat="36.91365936621056" lon="-4.523554029186328"><ele>412.0</ele><time>2026-04-23T12:19:57.999Z</time></trkpt><trkpt lat="36.91344140252341" lon="-4.523543819447123"><ele>412.0</ele><time>2026-04-23T12:19:58.999Z</time></trkpt><trkpt lat="36.91322464305429" lon="-4.523532152413875"><ele>412.0</ele><time>2026-04-23T12:19:59.999Z</time></trkpt><trkpt lat="36.913010334935045" lon="-4.523524844933192"><ele>412.0</ele><time>2026-04-23T12:20:00.999Z</time></trkpt><trkpt lat="36.91280160303505" lon="-4.523516658747597"><ele>412.0</ele><time>2026-04-23T12:20:01.999Z</time></trkpt><trkpt lat="36.91260502136274" lon="-4.523504344554845"><ele>412.0</ele><time>2026-04-23T12:20:02.999Z</time></trkpt><trkpt lat="36.912413964435295" lon="-4.523490713708014"><ele>412.0</ele><time>2026-04-23T12:20:03.999Z</time></trkpt><trkpt lat="36.91222211981584" lon="-4.523478883094641"><ele>412.0</ele><time>2026-04-23T12:20:04.999Z</time></trkpt><trkpt lat="36.912022746022245" lon="-4.523467085067657"><ele>412.0</ele><time>2026-04-23T12:20:05.999Z</time></trkpt><trkpt lat="36.91181987567321" lon="-4.523453228567923"><ele>412.0</ele><time>2026-04-23T12:20:06.999Z</time></trkpt><trkpt lat="36.91161094039261" lon="-4.523442252541302"><ele>412.0</ele><time>2026-04-23T12:20:07.999Z</time></trkpt><trkpt lat="36.91141439242261" lon="-4.523418790169675"><ele>412.0</ele><time>2026-04-23T12:20:08.999Z</time></trkpt><trkpt lat="36.911221567182736" lon="-4.5233798249525465"><ele>412.0</ele><time>2026-04-23T12:20:09.999Z</time></trkpt><trkpt lat="36.91103378880842" lon="-4.523323314084855"><ele>412.0</ele><time>2026-04-23T12:20:11.001Z</time></trkpt><trkpt lat="36.91084343833828" lon="-4.523258176493268"><ele>412.0</ele><time>2026-04-23T12:20:12.001Z</time></trkpt><trkpt lat="36.91065275535656" lon="-4.523190387583805"><ele>413.33333333333337</ele><time>2026-04-23T12:20:13.001Z</time></trkpt><trkpt lat="36.910463052852336" lon="-4.523128686912045"><ele>414.66666666666663</ele><time>2026-04-23T12:20:14.001Z</time></trkpt><trkpt lat="36.91028893572242" lon="-4.523073590485221"><ele>416.0</ele><time>2026-04-23T12:20:15.001Z</time></trkpt><trkpt lat="36.91011301819685" lon="-4.523023584441093"><ele>415.66666666666663</ele><time>2026-04-23T12:20:16.001Z</time></trkpt><trkpt lat="36.9099258187708" lon="-4.523000394802221"><ele>415.33333333333337</ele><time>2026-04-23T12:20:17.001Z</time></trkpt><trkpt lat="36.9097261113985" lon="-4.52301192409834"><ele>415.0</ele><time>2026-04-23T12:20:18.001Z</time></trkpt><trkpt lat="36.90952172608992" lon="-4.523068721326542"><ele>415.0</ele><time>2026-04-23T12:20:19.001Z</time></trkpt><trkpt lat="36.90930053700126" lon="-4.523092214331543"><ele>415.0</ele><time>2026-04-23T12:20:20.001Z</time></trkpt><trkpt lat="36.90907029510189" lon="-4.5231343309139715"><ele>414.0</ele><time>2026-04-23T12:20:21.001Z</time></trkpt><trkpt lat="36.90885129147773" lon="-4.523169842343622"><ele>413.0</ele><time>2026-04-23T12:20:22.001Z</time></trkpt><trkpt lat="36.90864891342444" lon="-4.523206819372112"><ele>412.0</ele><time>2026-04-23T12:20:23.001Z</time></trkpt><trkpt lat="36.908450983728436" lon="-4.523234785767707"><ele>412.33333333333337</ele><time>2026-04-23T12:20:24.001Z</time></trkpt><trkpt lat="36.90825548618994" lon="-4.52327045926991"><ele>412.66666666666663</ele><time>2026-04-23T12:20:25Z</time></trkpt><trkpt lat="36.90807559177446" lon="-4.523381156554835"><ele>413.0</ele><time>2026-04-23T12:20:26Z</time></trkpt><trkpt lat="36.90790462360176" lon="-4.523515913558596"><ele>413.0</ele><time>2026-04-23T12:20:27Z</time></trkpt><trkpt lat="36.907724503575274" lon="-4.523649519238741"><ele>413.0</ele><time>2026-04-23T12:20:28Z</time></trkpt><trkpt lat="36.907554466610364" lon="-4.5237896938008575"><ele>413.0</ele><time>2026-04-23T12:20:29Z</time></trkpt><trkpt lat="36.907392666946365" lon="-4.523908644328229"><ele>413.0</ele><time>2026-04-23T12:20:30Z</time></trkpt><trkpt lat="36.90723221898585" lon="-4.524024944167927"><ele>413.0</ele><time>2026-04-23T12:20:31Z</time></trkpt><trkpt lat="36.907075575805415" lon="-4.524148436578498"><ele>413.0</ele><time>2026-04-23T12:20:32Z</time></trkpt><trkpt lat="36.9069266591572" lon="-4.524275562853122"><ele>413.0</ele><time>2026-04-23T12:20:33Z</time></trkpt><trkpt lat="36.90677978522491" lon="-4.524412167617755"><ele>413.0</ele><time>2026-04-23T12:20:34Z</time></trkpt><trkpt lat="36.90663558944817" lon="-4.5245492917256405"><ele>413.0</ele><time>2026-04-23T12:20:35Z</time></trkpt><trkpt lat="36.90648733032333" lon="-4.524688413989473"><ele>412.66666666666663</ele><time>2026-04-23T12:20:36Z</time></trkpt><trkpt lat="36.9063412910083" lon="-4.524809660826702"><ele>412.33333333333337</ele><time>2026-04-23T12:20:37Z</time></trkpt><trkpt lat="36.906193655763296" lon="-4.524930696673611"><ele>412.0</ele><time>2026-04-23T12:20:38Z</time></trkpt><trkpt lat="36.90604162654668" lon="-4.525053560988318"><ele>413.33333333333337</ele><time>2026-04-23T12:20:39Z</time></trkpt><trkpt lat="36.90588832625504" lon="-4.525178654805067"><ele>414.66666666666663</ele><time>2026-04-23T12:20:40Z</time></trkpt><trkpt lat="36.90573048362211" lon="-4.525304118236755"><ele>416.0</ele><time>2026-04-23T12:20:41Z</time></trkpt><trkpt lat="36.90556739966363" lon="-4.525428226727671"><ele>412.3333333333333</ele><time>2026-04-23T12:20:42Z</time></trkpt><trkpt lat="36.905402205276125" lon="-4.525543128531385"><ele>408.66666666666663</ele><time>2026-04-23T12:20:43Z</time></trkpt><trkpt lat="36.905235591438796" lon="-4.525648899779006"><ele>405.0</ele><time>2026-04-23T12:20:44Z</time></trkpt><trkpt lat="36.9050781779725" lon="-4.525740954022098"><ele>405.0</ele><time>2026-04-23T12:20:45Z</time></trkpt><trkpt lat="36.90492648301753" lon="-4.525824481603515"><ele>405.0</ele><time>2026-04-23T12:20:46Z</time></trkpt><trkpt lat="36.9047712386626" lon="-4.525882985601558"><ele>405.0</ele><time>2026-04-23T12:20:47Z</time></trkpt><trkpt lat="36.90460207324047" lon="-4.525904246371413"><ele>405.0</ele><time>2026-04-23T12:20:48Z</time></trkpt><trkpt lat="36.904423796612306" lon="-4.525880905630047"><ele>405.0</ele><time>2026-04-23T12:20:49Z</time></trkpt><trkpt lat="36.9042449179251" lon="-4.5258345802858395"><ele>405.0</ele><time>2026-04-23T12:20:50Z</time></trkpt><trkpt lat="36.90407141147658" lon="-4.525765023522439"><ele>403.66666666666663</ele><time>2026-04-23T12:20:51Z</time></trkpt><trkpt lat="36.903892964010296" lon="-4.525734352173989"><ele>402.3333333333333</ele><time>2026-04-23T12:20:52Z</time></trkpt><trkpt lat="36.90370924762028" lon="-4.525761169215887"><ele>401.0</ele><time>2026-04-23T12:20:53Z</time></trkpt><trkpt lat="36.903530844766216" lon="-4.525831023816445"><ele>401.0</ele><time>2026-04-23T12:20:54Z</time></trkpt><trkpt lat="36.90335515199666" lon="-4.525933360625388"><ele>401.0</ele><time>2026-04-23T12:20:55Z</time></trkpt><trkpt lat="36.9031805356999" lon="-4.526046660486098"><ele>401.0</ele><time>2026-04-23T12:20:56Z</time></trkpt><trkpt lat="36.90300097295403" lon="-4.526162393564882"><ele>399.3333333333333</ele><time>2026-04-23T12:20:57Z</time></trkpt><trkpt lat="36.902820847978106" lon="-4.526275177846242"><ele>397.66666666666663</ele><time>2026-04-23T12:20:58Z</time></trkpt><trkpt lat="36.902645189952025" lon="-4.526381091129971"><ele>396.0</ele><time>2026-04-23T12:20:59Z</time></trkpt><trkpt lat="36.90247921683612" lon="-4.526480117569848"><ele>395.33333333333337</ele><time>2026-04-23T12:21:00Z</time></trkpt><trkpt lat="36.9023088217271" lon="-4.526579541843222"><ele>394.6666666666667</ele><time>2026-04-23T12:21:01Z</time></trkpt><trkpt lat="36.90212474313594" lon="-4.526663032570048"><ele>394.0</ele><time>2026-04-23T12:21:02Z</time></trkpt><trkpt lat="36.901923663917586" lon="-4.526724916129934"><ele>394.33333333333337</ele><time>2026-04-23T12:21:03Z</time></trkpt><trkpt lat="36.901710597215626" lon="-4.526764196267257"><ele>394.66666666666663</ele><time>2026-04-23T12:21:04Z</time></trkpt><trkpt lat="36.90150152166517" lon="-4.526796515724914"><ele>395.0</ele><time>2026-04-23T12:21:05Z</time></trkpt><trkpt lat="36.90130137553734" lon="-4.526828825334904"><ele>395.0</ele><time>2026-04-23T12:21:06Z</time></trkpt><trkpt lat="36.90109781135585" lon="-4.526862798911338"><ele>395.0</ele><time>2026-04-23T12:21:07Z</time></trkpt><trkpt lat="36.900891140111156" lon="-4.526894430988382"><ele>395.0</ele><time>2026-04-23T12:21:08Z</time></trkpt><trkpt lat="36.90067967565558" lon="-4.526934562938235"><ele>394.66666666666663</ele><time>2026-04-23T12:21:09Z</time></trkpt><trkpt lat="36.90047983380616" lon="-4.526975767456768"><ele>394.33333333333337</ele><time>2026-04-23T12:21:10Z</time></trkpt><trkpt lat="36.90029759024206" lon="-4.527011155000273"><ele>394.0</ele><time>2026-04-23T12:21:11Z</time></trkpt><trkpt lat="36.90012305375301" lon="-4.527046797212114"><ele>389.6666666666667</ele><time>2026-04-23T12:21:12Z</time></trkpt><trkpt lat="36.89994881874763" lon="-4.52708730353155"><ele>385.33333333333337</ele><time>2026-04-23T12:21:13Z</time></trkpt><trkpt lat="36.89977252907952" lon="-4.52712387150133"><ele>381.0</ele><time>2026-04-23T12:21:14Z</time></trkpt><trkpt lat="36.89959437316781" lon="-4.527149129851411"><ele>381.0</ele><time>2026-04-23T12:21:15Z</time></trkpt><trkpt lat="36.899426944458064" lon="-4.527174915478326"><ele>381.0</ele><time>2026-04-23T12:21:16Z</time></trkpt><trkpt lat="36.89927830293273" lon="-4.527191088463039"><ele>381.0</ele><time>2026-04-23T12:21:17Z</time></trkpt><trkpt lat="36.89913839411807" lon="-4.527185761061458"><ele>380.25</ele><time>2026-04-23T12:21:18Z</time></trkpt><trkpt lat="36.89900463875358" lon="-4.527156635648768"><ele>379.5</ele><time>2026-04-23T12:21:19Z</time></trkpt><trkpt lat="36.89888801125424" lon="-4.527087167010973"><ele>378.75</ele><time>2026-04-23T12:21:20Z</time></trkpt><trkpt lat="36.898802571744376" lon="-4.526968855944123"><ele>378.0</ele><time>2026-04-23T12:21:21Z</time></trkpt><trkpt lat="36.89873506935218" lon="-4.5268024781197544"><ele>381.0</ele><time>2026-04-23T12:21:22Z</time></trkpt><trkpt lat="36.8986744164152" lon="-4.526612743872776"><ele>384.0</ele><time>2026-04-23T12:21:23Z</time></trkpt><trkpt lat="36.89862205947816" lon="-4.52641409854873"><ele>387.0</ele><time>2026-04-23T12:21:23.999Z</time></trkpt><trkpt lat="36.89857396620977" lon="-4.52618888771064"><ele>388.33333333333337</ele><time>2026-04-23T12:21:24.999Z</time></trkpt><trkpt lat="36.898542343239775" lon="-4.525947440269691"><ele>389.6666666666667</ele><time>2026-04-23T12:21:25.999Z</time></trkpt><trkpt lat="36.89853254909024" lon="-4.52568999488258"><ele>391.0</ele><time>2026-04-23T12:21:26.999Z</time></trkpt><trkpt lat="36.89854492275783" lon="-4.525420623069645"><ele>390.0</ele><time>2026-04-23T12:21:27.999Z</time></trkpt><trkpt lat="36.89857384492258" lon="-4.525146736307567"><ele>389.0</ele><time>2026-04-23T12:21:28.999Z</time></trkpt><trkpt lat="36.898614591681905" lon="-4.524900026994393"><ele>388.0</ele><time>2026-04-23T12:21:29.999Z</time></trkpt><trkpt lat="36.898662022846125" lon="-4.524678894594397"><ele>387.33333333333337</ele><time>2026-04-23T12:21:30.999Z</time></trkpt><trkpt lat="36.89868932527472" lon="-4.5244724183496245"><ele>386.66666666666663</ele><time>2026-04-23T12:21:31.999Z</time></trkpt><trkpt lat="36.898681846490575" lon="-4.524259731037344"><ele>386.0</ele><time>2026-04-23T12:21:32.999Z</time></trkpt><trkpt lat="36.89862964797391" lon="-4.524047331998236"><ele>386.0</ele><time>2026-04-23T12:21:33.999Z</time></trkpt><trkpt lat="36.898529760200546" lon="-4.523850496659"><ele>386.0</ele><time>2026-04-23T12:21:34.999Z</time></trkpt><trkpt lat="36.89838677314014" lon="-4.5236969557815"><ele>386.0</ele><time>2026-04-23T12:21:35.999Z</time></trkpt><trkpt lat="36.89824670778761" lon="-4.523508146934366"><ele>387.0</ele><time>2026-04-23T12:21:36.999Z</time></trkpt><trkpt lat="36.89809587221233" lon="-4.5233034812081305"><ele>388.0</ele><time>2026-04-23T12:21:37.999Z</time></trkpt><trkpt lat="36.89795091659125" lon="-4.523101705941414"><ele>389.0</ele><time>2026-04-23T12:21:38.999Z</time></trkpt><trkpt lat="36.89781007494386" lon="-4.522888852484356"><ele>389.0</ele><time>2026-04-23T12:21:39.999Z</time></trkpt><trkpt lat="36.89768122472379" lon="-4.522656005430576"><ele>389.0</ele><time>2026-04-23T12:21:40.999Z</time></trkpt><trkpt lat="36.89755881368402" lon="-4.52243747487004"><ele>389.0</ele><time>2026-04-23T12:21:41.999Z</time></trkpt><trkpt lat="36.89743499197919" lon="-4.522225307145419"><ele>385.3333333333333</ele><time>2026-04-23T12:21:42.999Z</time></trkpt><trkpt lat="36.897311751460606" lon="-4.522014135252672"><ele>381.66666666666663</ele><time>2026-04-23T12:21:43.999Z</time></trkpt><trkpt lat="36.89718818230018" lon="-4.5218043805802575"><ele>378.0</ele><time>2026-04-23T12:21:44.999Z</time></trkpt><trkpt lat="36.89706112613224" lon="-4.521589573462274"><ele>378.0</ele><time>2026-04-23T12:21:45.999Z</time></trkpt><trkpt lat="36.89693806060347" lon="-4.5213814736124975"><ele>378.0</ele><time>2026-04-23T12:21:46.999Z</time></trkpt><trkpt lat="36.8968151454912" lon="-4.521173993881856"><ele>378.0</ele><time>2026-04-23T12:21:47.999Z</time></trkpt><trkpt lat="36.89669192465503" lon="-4.520967712055817"><ele>379.0</ele><time>2026-04-23T12:21:48.999Z</time></trkpt><trkpt lat="36.89656943518374" lon="-4.52076265468856"><ele>380.0</ele><time>2026-04-23T12:21:49.999Z</time></trkpt><trkpt lat="36.89644462010856" lon="-4.520553704066389"><ele>381.0</ele><time>2026-04-23T12:21:50.999Z</time></trkpt><trkpt lat="36.89632547776483" lon="-4.520354249964295"><ele>381.0</ele><time>2026-04-23T12:21:51.999Z</time></trkpt><trkpt lat="36.89621297619385" lon="-4.5201650185447395"><ele>381.0</ele><time>2026-04-23T12:21:52.999Z</time></trkpt><trkpt lat="36.896105449651614" lon="-4.519983335241289"><ele>381.0</ele><time>2026-04-23T12:21:53.999Z</time></trkpt><trkpt lat="36.89599534669605" lon="-4.519797298743729"><ele>376.6666666666667</ele><time>2026-04-23T12:21:54.999Z</time></trkpt><trkpt lat="36.895886021584246" lon="-4.519612576440808"><ele>372.33333333333337</ele><time>2026-04-23T12:21:55.999Z</time></trkpt><trkpt lat="36.89577748078398" lon="-4.519429179377783"><ele>368.0</ele><time>2026-04-23T12:21:56.999Z</time></trkpt><trkpt lat="36.89566429923246" lon="-4.519237941062722"><ele>368.0</ele><time>2026-04-23T12:21:57.999Z</time></trkpt><trkpt lat="36.89555385520736" lon="-4.519051328163812"><ele>368.0</ele><time>2026-04-23T12:21:58.999Z</time></trkpt><trkpt lat="36.89543822220105" lon="-4.518855305207555"><ele>368.0</ele><time>2026-04-23T12:21:59.999Z</time></trkpt><trkpt lat="36.895328043314386" lon="-4.518668522361448"><ele>366.0</ele><time>2026-04-23T12:22:00.999Z</time></trkpt><trkpt lat="36.89521727882927" lon="-4.518480746762732"><ele>364.0</ele><time>2026-04-23T12:22:01.999Z</time></trkpt><trkpt lat="36.89510407191764" lon="-4.518289399647396"><ele>362.0</ele><time>2026-04-23T12:22:02.999Z</time></trkpt><trkpt lat="36.894987678561925" lon="-4.518098206897757"><ele>363.6666666666667</ele><time>2026-04-23T12:22:03.999Z</time></trkpt><trkpt lat="36.89486218923649" lon="-4.51789936773101"><ele>365.3333333333333</ele><time>2026-04-23T12:22:04.999Z</time></trkpt><trkpt lat="36.89473648286521" lon="-4.517702181348384"><ele>367.0</ele><time>2026-04-23T12:22:05.999Z</time></trkpt><trkpt lat="36.89460065543912" lon="-4.5174948524891985"><ele>367.0</ele><time>2026-04-23T12:22:06.999Z</time></trkpt><trkpt lat="36.89445801803435" lon="-4.517304442440191"><ele>367.0</ele><time>2026-04-23T12:22:07.999Z</time></trkpt><trkpt lat="36.89430879002381" lon="-4.517117998159926"><ele>367.0</ele><time>2026-04-23T12:22:08.999Z</time></trkpt><trkpt lat="36.894148395204695" lon="-4.5169380073476795"><ele>365.3333333333333</ele><time>2026-04-23T12:22:09.999Z</time></trkpt><trkpt lat="36.89398169774317" lon="-4.516761590179666"><ele>363.6666666666667</ele><time>2026-04-23T12:22:10.999Z</time></trkpt><trkpt lat="36.893811780851095" lon="-4.516582485130238"><ele>362.0</ele><time>2026-04-23T12:22:11.999Z</time></trkpt><trkpt lat="36.893639133644065" lon="-4.516400502092232"><ele>361.33333333333337</ele><time>2026-04-23T12:22:12.999Z</time></trkpt><trkpt lat="36.89347061949854" lon="-4.516222875463747"><ele>360.6666666666667</ele><time>2026-04-23T12:22:13.999Z</time></trkpt><trkpt lat="36.89331396643575" lon="-4.5160563037887576"><ele>360.0</ele><time>2026-04-23T12:22:14.999Z</time></trkpt><trkpt lat="36.89317431415901" lon="-4.515910795916886"><ele>360.0</ele><time>2026-04-23T12:22:15.999Z</time></trkpt><trkpt lat="36.89304069869221" lon="-4.515788259007586"><ele>360.0</ele><time>2026-04-23T12:22:17Z</time></trkpt><trkpt lat="36.892883924936356" lon="-4.515690825324713"><ele>360.0</ele><time>2026-04-23T12:22:18Z</time></trkpt><trkpt lat="36.89271061857633" lon="-4.515610021880071"><ele>359.0</ele><time>2026-04-23T12:22:19Z</time></trkpt><trkpt lat="36.89252008554418" lon="-4.51555102957167"><ele>358.0</ele><time>2026-04-23T12:22:20Z</time></trkpt><trkpt lat="36.89232242577926" lon="-4.515482912767243"><ele>357.0</ele><time>2026-04-23T12:22:21Z</time></trkpt><trkpt lat="36.892116895366904" lon="-4.515467893575118"><ele>357.0</ele><time>2026-04-23T12:22:22Z</time></trkpt><trkpt lat="36.891906837275016" lon="-4.515423413164608"><ele>357.0</ele><time>2026-04-23T12:22:23Z</time></trkpt><trkpt lat="36.8917003725973" lon="-4.515441579411285"><ele>357.0</ele><time>2026-04-23T12:22:24Z</time></trkpt><trkpt lat="36.89152023777997" lon="-4.515451572886711"><ele>358.6666666666667</ele><time>2026-04-23T12:22:25Z</time></trkpt><trkpt lat="36.891346975602985" lon="-4.515496683784562"><ele>360.33333333333337</ele><time>2026-04-23T12:22:26Z</time></trkpt><trkpt lat="36.89120424983675" lon="-4.5155909619524195"><ele>362.0</ele><time>2026-04-23T12:22:27Z</time></trkpt><trkpt lat="36.891059026531266" lon="-4.515673712430594"><ele>362.0</ele><time>2026-04-23T12:22:28Z</time></trkpt><trkpt lat="36.890949292319966" lon="-4.515763989101212"><ele>362.0</ele><time>2026-04-23T12:22:29Z</time></trkpt><trkpt lat="36.89083742881747" lon="-4.515826168461686"><ele>362.0</ele><time>2026-04-23T12:22:30Z</time></trkpt><trkpt lat="36.890709684067154" lon="-4.515857901324987"><ele>362.0</ele><time>2026-04-23T12:22:31Z</time></trkpt><trkpt lat="36.89057126572902" lon="-4.515858661275169"><ele>364.0</ele><time>2026-04-23T12:22:32Z</time></trkpt><trkpt lat="36.89042592709193" lon="-4.515819178869259"><ele>366.0</ele><time>2026-04-23T12:22:33Z</time></trkpt><trkpt lat="36.890270613565164" lon="-4.515766879455265"><ele>368.0</ele><time>2026-04-23T12:22:34Z</time></trkpt><trkpt lat="36.890099041426716" lon="-4.515708593228501"><ele>366.0</ele><time>2026-04-23T12:22:35Z</time></trkpt><trkpt lat="36.88991791178703" lon="-4.515652276669542"><ele>364.0</ele><time>2026-04-23T12:22:36Z</time></trkpt><trkpt lat="36.88974309985226" lon="-4.515590472941291"><ele>362.0</ele><time>2026-04-23T12:22:37Z</time></trkpt><trkpt lat="36.88957611275458" lon="-4.515487640210549"><ele>362.33333333333337</ele><time>2026-04-23T12:22:38Z</time></trkpt><trkpt lat="36.88942057918494" lon="-4.515337059880666"><ele>362.6666666666667</ele><time>2026-04-23T12:22:39Z</time></trkpt><trkpt lat="36.88927256448505" lon="-4.515150939807069"><ele>363.0</ele><time>2026-04-23T12:22:40Z</time></trkpt><trkpt lat="36.889093314346724" lon="-4.515002189759315"><ele>363.0</ele><time>2026-04-23T12:22:41Z</time></trkpt><trkpt lat="36.888907746826376" lon="-4.514848198336787"><ele>363.0</ele><time>2026-04-23T12:22:42Z</time></trkpt><trkpt lat="36.88870754282055" lon="-4.514717171316678"><ele>363.0</ele><time>2026-04-23T12:22:43Z</time></trkpt><trkpt lat="36.88849970073535" lon="-4.514607369786949"><ele>364.3333333333333</ele><time>2026-04-23T12:22:44Z</time></trkpt><trkpt lat="36.88829895779881" lon="-4.514527540435085"><ele>365.66666666666663</ele><time>2026-04-23T12:22:45Z</time></trkpt><trkpt lat="36.888114726587304" lon="-4.5144700821389465"><ele>367.0</ele><time>2026-04-23T12:22:46Z</time></trkpt><trkpt lat="36.88794771809792" lon="-4.514447900989754"><ele>367.0</ele><time>2026-04-23T12:22:47Z</time></trkpt><trkpt lat="36.88779065211096" lon="-4.514458217860008"><ele>367.0</ele><time>2026-04-23T12:22:48Z</time></trkpt><trkpt lat="36.887647401802475" lon="-4.514512872662692"><ele>367.0</ele><time>2026-04-23T12:22:49Z</time></trkpt><trkpt lat="36.88750391620959" lon="-4.514560739196952"><ele>366.25</ele><time>2026-04-23T12:22:50Z</time></trkpt><trkpt lat="36.88737695285642" lon="-4.514592834999405"><ele>365.5</ele><time>2026-04-23T12:22:51Z</time></trkpt><trkpt lat="36.88725993468949" lon="-4.514579737269558"><ele>364.75</ele><time>2026-04-23T12:22:52Z</time></trkpt><trkpt lat="36.887143095237406" lon="-4.51452752100923"><ele>364.0</ele><time>2026-04-23T12:22:53Z</time></trkpt><trkpt lat="36.887024147683434" lon="-4.514425286561967"><ele>364.0</ele><time>2026-04-23T12:22:54Z</time></trkpt><trkpt lat="36.88690507605821" lon="-4.5142827506263155"><ele>364.0</ele><time>2026-04-23T12:22:55Z</time></trkpt><trkpt lat="36.886781142385104" lon="-4.514141847429877"><ele>364.0</ele><time>2026-04-23T12:22:56Z</time></trkpt><trkpt lat="36.886679857674956" lon="-4.514022046111262"><ele>363.0</ele><time>2026-04-23T12:22:57Z</time></trkpt><trkpt lat="36.886599149982715" lon="-4.513894594124891"><ele>362.0</ele><time>2026-04-23T12:22:58Z</time></trkpt><trkpt lat="36.88655332497934" lon="-4.513743457758516"><ele>361.0</ele><time>2026-04-23T12:22:59Z</time></trkpt><trkpt lat="36.88653355620662" lon="-4.513590977699127"><ele>360.0</ele><time>2026-04-23T12:23:00Z</time></trkpt><trkpt lat="36.88649729565162" lon="-4.513465348308933"><ele>360.0</ele><time>2026-04-23T12:23:01Z</time></trkpt><trkpt lat="36.886452110253025" lon="-4.5133670326089534"><ele>360.0</ele><time>2026-04-23T12:23:02Z</time></trkpt><trkpt lat="36.886387389248185" lon="-4.513296331504819"><ele>360.0</ele><time>2026-04-23T12:23:03Z</time></trkpt><trkpt lat="36.88630265453096" lon="-4.513261776521437"><ele>360.0</ele><time>2026-04-23T12:23:04Z</time></trkpt><trkpt lat="36.88620858227904" lon="-4.513272912146584"><ele>360.0</ele><time>2026-04-23T12:23:05Z</time></trkpt><trkpt lat="36.88612068572298" lon="-4.51336155685827"><ele>360.0</ele><time>2026-04-23T12:23:06Z</time></trkpt><trkpt lat="36.886059895187316" lon="-4.513494169780048"><ele>360.0</ele><time>2026-04-23T12:23:07Z</time></trkpt><trkpt lat="36.88601639407162" lon="-4.513637328633742"><ele>360.0</ele><time>2026-04-23T12:23:08Z</time></trkpt><trkpt lat="36.88596816053885" lon="-4.513785970572623"><ele>360.0</ele><time>2026-04-23T12:23:09Z</time></trkpt><trkpt lat="36.88591156577909" lon="-4.513929749628793"><ele>360.0</ele><time>2026-04-23T12:23:10Z</time></trkpt><trkpt lat="36.88585963082938" lon="-4.514063736099992"><ele>360.0</ele><time>2026-04-23T12:23:11Z</time></trkpt><trkpt lat="36.8858055317507" lon="-4.51420422214181"><ele>360.0</ele><time>2026-04-23T12:23:12Z</time></trkpt><trkpt lat="36.88575345300839" lon="-4.514334474812171"><ele>360.0</ele><time>2026-04-23T12:23:13Z</time></trkpt><trkpt lat="36.88569579112816" lon="-4.514450501886669"><ele>360.0</ele><time>2026-04-23T12:23:14Z</time></trkpt><trkpt lat="36.885627533721" lon="-4.51455963189802"><ele>360.0</ele><time>2026-04-23T12:23:15Z</time></trkpt><trkpt lat="36.885551957287525" lon="-4.514659608267683"><ele>360.0</ele><time>2026-04-23T12:23:16Z</time></trkpt><trkpt lat="36.8854786226291" lon="-4.514739159083154"><ele>360.0</ele><time>2026-04-23T12:23:17Z</time></trkpt><trkpt lat="36.88540854904297" lon="-4.5148201726487125"><ele>360.0</ele><time>2026-04-23T12:23:18Z</time></trkpt><trkpt lat="36.88534511061251" lon="-4.514894973344732"><ele>360.8333333333333</ele><time>2026-04-23T12:23:18.999Z</time></trkpt><trkpt lat="36.885286571463965" lon="-4.514957828695028"><ele>361.6666666666667</ele><time>2026-04-23T12:23:19.999Z</time></trkpt><trkpt lat="36.88523158092079" lon="-4.51499773910469"><ele>362.5</ele><time>2026-04-23T12:23:20.999Z</time></trkpt><trkpt lat="36.8851158957127" lon="-4.515003740969557"><ele>363.33333333333337</ele><time>2026-04-23T12:23:22.999Z</time></trkpt><trkpt lat="36.885050520387544" lon="-4.515013812849057"><ele>364.1666666666667</ele><time>2026-04-23T12:23:24.999Z</time></trkpt><trkpt lat="36.88500711108106" lon="-4.515132027312802"><ele>365.0</ele><time>2026-04-23T12:23:27.999Z</time></trkpt><trkpt lat="36.88495039253714" lon="-4.515245094811148"><ele>365.0</ele><time>2026-04-23T12:23:29.999Z</time></trkpt><trkpt lat="36.884909560953865" lon="-4.515308217437658"><ele>365.0</ele><time>2026-04-23T12:23:30.999Z</time></trkpt><trkpt lat="36.884865784066" lon="-4.5153773025566375"><ele>365.0</ele><time>2026-04-23T12:23:31.999Z</time></trkpt><trkpt lat="36.88483249085797" lon="-4.515448994157333"><ele>365.0</ele><time>2026-04-23T12:23:32.999Z</time></trkpt><trkpt lat="36.88481247580317" lon="-4.515527177164135"><ele>365.0</ele><time>2026-04-23T12:23:33.999Z</time></trkpt><trkpt lat="36.88483840463376" lon="-4.515665460601737"><ele>365.0</ele><time>2026-04-23T12:23:35.999Z</time></trkpt><trkpt lat="36.884857562222415" lon="-4.51577966474281"><ele>364.1666666666667</ele><time>2026-04-23T12:23:37.999Z</time></trkpt><trkpt lat="36.88485998665505" lon="-4.5159242129198525"><ele>363.33333333333337</ele><time>2026-04-23T12:23:39.999Z</time></trkpt><trkpt lat="36.88486593355453" lon="-4.516003956381073"><ele>362.5</ele><time>2026-04-23T12:23:40.999Z</time></trkpt><trkpt lat="36.88486722355547" lon="-4.516098365579206"><ele>361.6666666666667</ele><time>2026-04-23T12:23:41.999Z</time></trkpt><trkpt lat="36.88488386004828" lon="-4.51620121670923"><ele>360.8333333333333</ele><time>2026-04-23T12:23:42.999Z</time></trkpt><trkpt lat="36.884899425952746" lon="-4.516294059254069"><ele>360.0</ele><time>2026-04-23T12:23:43.999Z</time></trkpt><trkpt lat="36.884928432182164" lon="-4.516382348663477"><ele>358.5</ele><time>2026-04-23T12:23:44.999Z</time></trkpt><trkpt lat="36.88497198499699" lon="-4.516460923047686"><ele>357.0</ele><time>2026-04-23T12:23:45.999Z</time></trkpt><trkpt lat="36.88503484427929" lon="-4.516515558652628"><ele>355.5</ele><time>2026-04-23T12:23:46.999Z</time></trkpt><trkpt lat="36.88510793804627" lon="-4.516551272146571"><ele>354.0</ele><time>2026-04-23T12:23:47.999Z</time></trkpt><trkpt lat="36.88518154636762" lon="-4.516562568660875"><ele>352.5</ele><time>2026-04-23T12:23:48.999Z</time></trkpt><trkpt lat="36.88524772576604" lon="-4.516522865689253"><ele>351.0</ele><time>2026-04-23T12:23:49.999Z</time></trkpt><trkpt lat="36.88535710671149" lon="-4.51653030733473"><ele>350.25</ele><time>2026-04-23T12:23:51.999Z</time></trkpt><trkpt lat="36.88542929601657" lon="-4.516643862429679"><ele>349.5</ele><time>2026-04-23T12:23:53.999Z</time></trkpt><trkpt lat="36.88543598689875" lon="-4.516792648904381"><ele>348.75</ele><time>2026-04-23T12:23:55.999Z</time></trkpt><trkpt lat="36.885439812937456" lon="-4.516922300117797"><ele>348.0</ele><time>2026-04-23T12:23:57.999Z</time></trkpt><trkpt lat="36.885531179678665" lon="-4.517024798039452"><ele>348.0</ele><time>2026-04-23T12:23:59.999Z</time></trkpt><trkpt lat="36.88560129169653" lon="-4.517029989896296"><ele>348.0</ele><time>2026-04-23T12:24:00.999Z</time></trkpt><trkpt lat="36.88570252425258" lon="-4.517071179736281"><ele>348.0</ele><time>2026-04-23T12:24:02.999Z</time></trkpt><trkpt lat="36.885805471199966" lon="-4.517162866221819"><ele>348.0</ele><time>2026-04-23T12:24:04.999Z</time></trkpt><trkpt lat="36.88584937174713" lon="-4.517219802789237"><ele>348.0</ele><time>2026-04-23T12:24:05.999Z</time></trkpt><trkpt lat="36.885894939048335" lon="-4.517278431528689"><ele>348.0</ele><time>2026-04-23T12:24:06.999Z</time></trkpt><trkpt lat="36.88596323591472" lon="-4.517318534623574"><ele>348.0</ele><time>2026-04-23T12:24:07.999Z</time></trkpt><trkpt lat="36.886003993245644" lon="-4.517412658879987"><ele>348.0</ele><time>2026-04-23T12:24:08.999Z</time></trkpt><trkpt lat="36.88604670066767" lon="-4.517489053116698"><ele>348.0</ele><time>2026-04-23T12:24:09.999Z</time></trkpt><trkpt lat="36.88608862083942" lon="-4.51756826043516"><ele>348.0</ele><time>2026-04-23T12:24:10.999Z</time></trkpt><trkpt lat="36.88612851456983" lon="-4.517657486651537"><ele>348.0</ele><time>2026-04-23T12:24:11.999Z</time></trkpt><trkpt lat="36.886147410723055" lon="-4.517751465082165"><ele>348.0</ele><time>2026-04-23T12:24:12.999Z</time></trkpt><trkpt lat="36.88613578048766" lon="-4.517852931897887"><ele>348.3333333333333</ele><time>2026-04-23T12:24:13.999Z</time></trkpt><trkpt lat="36.886088048385226" lon="-4.517945628242622"><ele>348.6666666666667</ele><time>2026-04-23T12:24:14.999Z</time></trkpt><trkpt lat="36.88605447908184" lon="-4.5180354044194075"><ele>349.0</ele><time>2026-04-23T12:24:15.999Z</time></trkpt><trkpt lat="36.88602072728776" lon="-4.518106096610644"><ele>349.33333333333337</ele><time>2026-04-23T12:24:16.999Z</time></trkpt><trkpt lat="36.88599956282329" lon="-4.518258631548386"><ele>349.6666666666667</ele><time>2026-04-23T12:24:18.999Z</time></trkpt><trkpt lat="36.8860027930845" lon="-4.5183383748237125"><ele>350.0</ele><time>2026-04-23T12:24:19.999Z</time></trkpt><trkpt lat="36.88600769246318" lon="-4.518461820958727"><ele>350.0</ele><time>2026-04-23T12:24:21.999Z</time></trkpt><trkpt lat="36.88600183284247" lon="-4.518603115088625"><ele>350.0</ele><time>2026-04-23T12:24:24Z</time></trkpt><trkpt lat="36.8860241752829" lon="-4.5187006732717805"><ele>350.0</ele><time>2026-04-23T12:24:25Z</time></trkpt><trkpt lat="36.88605057385441" lon="-4.518796004330332"><ele>350.0</ele><time>2026-04-23T12:24:26Z</time></trkpt><trkpt lat="36.88608788251587" lon="-4.518884906656508"><ele>350.0</ele><time>2026-04-23T12:24:27Z</time></trkpt><trkpt lat="36.886128379847115" lon="-4.518954224693623"><ele>350.0</ele><time>2026-04-23T12:24:28Z</time></trkpt><trkpt lat="36.88618760420065" lon="-4.519078861076715"><ele>351.4</ele><time>2026-04-23T12:24:30Z</time></trkpt><trkpt lat="36.88619513647791" lon="-4.519231489630573"><ele>352.8</ele><time>2026-04-23T12:24:32Z</time></trkpt><trkpt lat="36.886187419920375" lon="-4.519325363516406"><ele>354.20000000000005</ele><time>2026-04-23T12:24:33Z</time></trkpt><trkpt lat="36.886181350202065" lon="-4.519428016300915"><ele>355.6</ele><time>2026-04-23T12:24:34Z</time></trkpt><trkpt lat="36.88617236446394" lon="-4.519532914300667"><ele>357.0</ele><time>2026-04-23T12:24:35Z</time></trkpt><trkpt lat="36.886158338168556" lon="-4.519638210002148"><ele>358.1666666666667</ele><time>2026-04-23T12:24:36Z</time></trkpt><trkpt lat="36.8861420283829" lon="-4.519737895761605"><ele>359.3333333333333</ele><time>2026-04-23T12:24:37Z</time></trkpt><trkpt lat="36.88613483095792" lon="-4.519838426328405"><ele>360.5</ele><time>2026-04-23T12:24:38Z</time></trkpt><trkpt lat="36.88611572266663" lon="-4.5199171739313115"><ele>361.66666666666663</ele><time>2026-04-23T12:24:39Z</time></trkpt><trkpt lat="36.8860965623716" lon="-4.519996133399005"><ele>362.8333333333333</ele><time>2026-04-23T12:24:40Z</time></trkpt><trkpt lat="36.886050757902446" lon="-4.52015583915118"><ele>364.0</ele><time>2026-04-23T12:24:42Z</time></trkpt><trkpt lat="36.886031321180305" lon="-4.5202555236525885"><ele>364.0</ele><time>2026-04-23T12:24:43Z</time></trkpt><trkpt lat="36.88601564032399" lon="-4.520342102508481"><ele>364.0</ele><time>2026-04-23T12:24:44Z</time></trkpt><trkpt lat="36.88600252471834" lon="-4.5204342253440215"><ele>364.0</ele><time>2026-04-23T12:24:45Z</time></trkpt><trkpt lat="36.88598708342629" lon="-4.520598623925057"><ele>364.0</ele><time>2026-04-23T12:24:47Z</time></trkpt><trkpt lat="36.885989871785746" lon="-4.520686926511667"><ele>364.0</ele><time>2026-04-23T12:24:48Z</time></trkpt><trkpt lat="36.88599822209452" lon="-4.520770931805485"><ele>364.0</ele><time>2026-04-23T12:24:49Z</time></trkpt><trkpt lat="36.88600076478029" lon="-4.520871099277355"><ele>366.2</ele><time>2026-04-23T12:24:50Z</time></trkpt><trkpt lat="36.886013095582065" lon="-4.520961553423226"><ele>368.4</ele><time>2026-04-23T12:24:51Z</time></trkpt><trkpt lat="36.88604459787725" lon="-4.521093493209867"><ele>370.6</ele><time>2026-04-23T12:24:53Z</time></trkpt><trkpt lat="36.8860735875363" lon="-4.521216928686193"><ele>372.8</ele><time>2026-04-23T12:24:55Z</time></trkpt><trkpt lat="36.88609672338362" lon="-4.52131482247635"><ele>375.0</ele><time>2026-04-23T12:24:57Z</time></trkpt><trkpt lat="36.88612496972589" lon="-4.521441975659427"><ele>375.6</ele><time>2026-04-23T12:24:59Z</time></trkpt><trkpt lat="36.88614482701409" lon="-4.521518856428066"><ele>376.2</ele><time>2026-04-23T12:25:00Z</time></trkpt><trkpt lat="36.886180340883975" lon="-4.521669369921426"><ele>376.79999999999995</ele><time>2026-04-23T12:25:02Z</time></trkpt><trkpt lat="36.88619749891393" lon="-4.521745542141535"><ele>377.4</ele><time>2026-04-23T12:25:03Z</time></trkpt><trkpt lat="36.88622850539562" lon="-4.521883611119349"><ele>378.0</ele><time>2026-04-23T12:25:05Z</time></trkpt><trkpt lat="36.88626537415134" lon="-4.52198531819152"><ele>378.0</ele><time>2026-04-23T12:25:07Z</time></trkpt><trkpt lat="36.88629896213178" lon="-4.522057646932962"><ele>378.0</ele><time>2026-04-23T12:25:10Z</time></trkpt><trkpt lat="36.886325269882725" lon="-4.52214839153464"><ele>378.0</ele><time>2026-04-23T12:30:42.001Z</time></trkpt><trkpt lat="36.88636564565392" lon="-4.522224774198223"><ele>378.0</ele><time>2026-04-23T12:30:43.001Z</time></trkpt><trkpt lat="36.886403379839805" lon="-4.522304449805278"><ele>378.0</ele><time>2026-04-23T12:30:44.001Z</time></trkpt><trkpt lat="36.88643446180072" lon="-4.522399170407504"><ele>378.0</ele><time>2026-04-23T12:30:45.001Z</time></trkpt><trkpt lat="36.886462260226416" lon="-4.522490723208161"><ele>378.0</ele><time>2026-04-23T12:30:46.001Z</time></trkpt><trkpt lat="36.8864882445895" lon="-4.522592860436421"><ele>378.0</ele><time>2026-04-23T12:30:47.001Z</time></trkpt><trkpt lat="36.886513081175735" lon="-4.522703253168687"><ele>378.0</ele><time>2026-04-23T12:30:48.001Z</time></trkpt><trkpt lat="36.88653724498669" lon="-4.522803818023684"><ele>378.0</ele><time>2026-04-23T12:30:49Z</time></trkpt><trkpt lat="36.88655981884325" lon="-4.522897725035261"><ele>378.0</ele><time>2026-04-23T12:30:50Z</time></trkpt><trkpt lat="36.886575252419654" lon="-4.5229961625495605"><ele>378.0</ele><time>2026-04-23T12:30:51Z</time></trkpt><trkpt lat="36.88657840505205" lon="-4.523089336970139"><ele>378.6666666666667</ele><time>2026-04-23T12:30:52Z</time></trkpt><trkpt lat="36.88657523079231" lon="-4.523186546375635"><ele>379.3333333333333</ele><time>2026-04-23T12:30:53Z</time></trkpt><trkpt lat="36.88655350141942" lon="-4.523291304817941"><ele>380.0</ele><time>2026-04-23T12:30:54Z</time></trkpt><trkpt lat="36.88651230761338" lon="-4.523383584443512"><ele>380.66666666666663</ele><time>2026-04-23T12:30:55Z</time></trkpt><trkpt lat="36.88646797259441" lon="-4.523482479030941"><ele>381.3333333333333</ele><time>2026-04-23T12:30:56Z</time></trkpt><trkpt lat="36.886432754901065" lon="-4.523583988462736"><ele>382.0</ele><time>2026-04-23T12:30:57Z</time></trkpt><trkpt lat="36.88640810014485" lon="-4.523694892631058"><ele>383.40000000000003</ele><time>2026-04-23T12:30:58Z</time></trkpt><trkpt lat="36.886398483998526" lon="-4.523821397581995"><ele>384.8</ele><time>2026-04-23T12:30:59Z</time></trkpt><trkpt lat="36.88638702166842" lon="-4.523961072988027"><ele>386.2</ele><time>2026-04-23T12:31:00Z</time></trkpt><trkpt lat="36.88637112467671" lon="-4.524105957426322"><ele>387.6</ele><time>2026-04-23T12:31:01Z</time></trkpt><trkpt lat="36.88634899684496" lon="-4.524250609913306"><ele>389.0</ele><time>2026-04-23T12:31:02Z</time></trkpt><trkpt lat="36.88632514813707" lon="-4.524378676741571"><ele>388.99999999999994</ele><time>2026-04-23T12:31:03Z</time></trkpt><trkpt lat="36.88631247156263" lon="-4.524485020454438"><ele>389.0</ele><time>2026-04-23T12:31:04Z</time></trkpt><trkpt lat="36.886310799623196" lon="-4.524567792830652"><ele>389.0</ele><time>2026-04-23T12:31:05Z</time></trkpt><trkpt lat="36.88632273835304" lon="-4.524668517049103"><ele>389.0</ele><time>2026-04-23T12:31:06Z</time></trkpt><trkpt lat="36.886340718354425" lon="-4.524783397270226"><ele>388.99999999999994</ele><time>2026-04-23T12:31:07Z</time></trkpt><trkpt lat="36.88636184766428" lon="-4.524903042913094"><ele>389.0</ele><time>2026-04-23T12:31:08Z</time></trkpt><trkpt lat="36.88637100834145" lon="-4.525018647948292"><ele>389.6</ele><time>2026-04-23T12:31:09Z</time></trkpt><trkpt lat="36.88636320511703" lon="-4.525134622592518"><ele>390.2</ele><time>2026-04-23T12:31:10Z</time></trkpt><trkpt lat="36.88632684620288" lon="-4.525246381602399"><ele>390.8</ele><time>2026-04-23T12:31:11Z</time></trkpt><trkpt lat="36.88627804845027" lon="-4.5253610185951425"><ele>391.40000000000003</ele><time>2026-04-23T12:31:12Z</time></trkpt><trkpt lat="36.88622578366733" lon="-4.52548353283392"><ele>392.0</ele><time>2026-04-23T12:31:13Z</time></trkpt><trkpt lat="36.88617866172668" lon="-4.525606576526448"><ele>392.6</ele><time>2026-04-23T12:31:14Z</time></trkpt><trkpt lat="36.88613119879946" lon="-4.525736349082165"><ele>393.20000000000005</ele><time>2026-04-23T12:31:15Z</time></trkpt><trkpt lat="36.886087573846496" lon="-4.525869154018901"><ele>393.8</ele><time>2026-04-23T12:31:16Z</time></trkpt><trkpt lat="36.886049278357675" lon="-4.526000558144427"><ele>394.4</ele><time>2026-04-23T12:31:17Z</time></trkpt><trkpt lat="36.886022871422405" lon="-4.526128840890482"><ele>395.0</ele><time>2026-04-23T12:31:18Z</time></trkpt><trkpt lat="36.88600362972864" lon="-4.526234059155694"><ele>395.99999999999994</ele><time>2026-04-23T12:31:19Z</time></trkpt><trkpt lat="36.88597868736929" lon="-4.526349523362032"><ele>397.0</ele><time>2026-04-23T12:31:20Z</time></trkpt><trkpt lat="36.8859481382076" lon="-4.526469997586527"><ele>398.0</ele><time>2026-04-23T12:31:21Z</time></trkpt><trkpt lat="36.885918628188875" lon="-4.526582686232871"><ele>399.0</ele><time>2026-04-23T12:31:22Z</time></trkpt><trkpt lat="36.88589586649827" lon="-4.526671503791331"><ele>399.99999999999994</ele><time>2026-04-23T12:31:23Z</time></trkpt><trkpt lat="36.88589158822649" lon="-4.526769873218077"><ele>401.0</ele><time>2026-04-23T12:31:24Z</time></trkpt><trkpt lat="36.8858967363866" lon="-4.526886577972406"><ele>402.4</ele><time>2026-04-23T12:31:25Z</time></trkpt><trkpt lat="36.88588606889588" lon="-4.5269967083262665"><ele>403.8</ele><time>2026-04-23T12:31:26Z</time></trkpt><trkpt lat="36.88585528126498" lon="-4.5271119731515155"><ele>405.2</ele><time>2026-04-23T12:31:27Z</time></trkpt><trkpt lat="36.88582696942928" lon="-4.527231923077068"><ele>406.59999999999997</ele><time>2026-04-23T12:31:28Z</time></trkpt><trkpt lat="36.885809333227684" lon="-4.527356214656989"><ele>408.0</ele><time>2026-04-23T12:31:29Z</time></trkpt><trkpt lat="36.88578208979373" lon="-4.527483617108912"><ele>409.25</ele><time>2026-04-23T12:31:30Z</time></trkpt><trkpt lat="36.885746260624366" lon="-4.527622504220162"><ele>410.5</ele><time>2026-04-23T12:31:31Z</time></trkpt><trkpt lat="36.885703719315636" lon="-4.5277723935333265"><ele>411.75</ele><time>2026-04-23T12:31:32Z</time></trkpt><trkpt lat="36.88565297761358" lon="-4.527921107174773"><ele>413.0</ele><time>2026-04-23T12:31:33Z</time></trkpt><trkpt lat="36.88559299753958" lon="-4.528061275864959"><ele>414.0</ele><time>2026-04-23T12:31:34Z</time></trkpt><trkpt lat="36.885532245146926" lon="-4.528207638669731"><ele>415.0</ele><time>2026-04-23T12:31:35Z</time></trkpt><trkpt lat="36.885473853742106" lon="-4.528347415027778"><ele>416.0</ele><time>2026-04-23T12:31:36Z</time></trkpt><trkpt lat="36.88541633534444" lon="-4.528480486120856"><ele>417.0</ele><time>2026-04-23T12:31:37Z</time></trkpt><trkpt lat="36.88537163370396" lon="-4.52860214304359"><ele>417.0</ele><time>2026-04-23T12:31:38Z</time></trkpt><trkpt lat="36.885338971203254" lon="-4.52871960905173"><ele>417.0</ele><time>2026-04-23T12:31:39Z</time></trkpt><trkpt lat="36.885308072973835" lon="-4.5288349983328455"><ele>417.0</ele><time>2026-04-23T12:31:39.999Z</time></trkpt><trkpt lat="36.88528663023717" lon="-4.528957562952615"><ele>417.0</ele><time>2026-04-23T12:31:40.999Z</time></trkpt><trkpt lat="36.885287604945844" lon="-4.52907861926797"><ele>417.0</ele><time>2026-04-23T12:31:41.999Z</time></trkpt><trkpt lat="36.88530893666174" lon="-4.5292247568892"><ele>419.75</ele><time>2026-04-23T12:31:42.999Z</time></trkpt><trkpt lat="36.88533522743924" lon="-4.529376866790712"><ele>422.5</ele><time>2026-04-23T12:31:43.999Z</time></trkpt><trkpt lat="36.8853535358134" lon="-4.529526485750881"><ele>425.25</ele><time>2026-04-23T12:31:44.999Z</time></trkpt><trkpt lat="36.885353289965096" lon="-4.52968268258329"><ele>428.0</ele><time>2026-04-23T12:31:45.999Z</time></trkpt><trkpt lat="36.885349327458655" lon="-4.529840291404628"><ele>428.25</ele><time>2026-04-23T12:31:46.999Z</time></trkpt><trkpt lat="36.8853384818269" lon="-4.529993020548606"><ele>428.5</ele><time>2026-04-23T12:31:47.999Z</time></trkpt><trkpt lat="36.88533199039047" lon="-4.530159024950094"><ele>428.75</ele><time>2026-04-23T12:31:48.999Z</time></trkpt><trkpt lat="36.88532724688901" lon="-4.530322909541947"><ele>429.0</ele><time>2026-04-23T12:31:49.999Z</time></trkpt><trkpt lat="36.885326257615276" lon="-4.530482789548995"><ele>428.0</ele><time>2026-04-23T12:31:50.999Z</time></trkpt><trkpt lat="36.88532781869381" lon="-4.530647306695749"><ele>427.0</ele><time>2026-04-23T12:31:51.999Z</time></trkpt><trkpt lat="36.885335922220776" lon="-4.530815310964949"><ele>426.0</ele><time>2026-04-23T12:31:52.999Z</time></trkpt><trkpt lat="36.88534685318702" lon="-4.530980606797908"><ele>425.0</ele><time>2026-04-23T12:31:53.999Z</time></trkpt><trkpt lat="36.88534849828857" lon="-4.531139076524167"><ele>424.25</ele><time>2026-04-23T12:31:54.999Z</time></trkpt><trkpt lat="36.88534880434898" lon="-4.531302237528312"><ele>423.5</ele><time>2026-04-23T12:31:55.999Z</time></trkpt><trkpt lat="36.885351449217616" lon="-4.531467125527707"><ele>422.75</ele><time>2026-04-23T12:31:56.999Z</time></trkpt><trkpt lat="36.885350459412734" lon="-4.531629890314422"><ele>422.0</ele><time>2026-04-23T12:31:57.999Z</time></trkpt><trkpt lat="36.8853346005829" lon="-4.531775043667828"><ele>422.0</ele><time>2026-04-23T12:31:58.999Z</time></trkpt><trkpt lat="36.885319194027794" lon="-4.531910295726307"><ele>422.0</ele><time>2026-04-23T12:31:59.999Z</time></trkpt><trkpt lat="36.885302666970304" lon="-4.532051865227648"><ele>422.0</ele><time>2026-04-23T12:32:00.999Z</time></trkpt><trkpt lat="36.88528350859477" lon="-4.532177735552147"><ele>422.0</ele><time>2026-04-23T12:32:01.999Z</time></trkpt><trkpt lat="36.88527339043311" lon="-4.532292274629435"><ele>422.0</ele><time>2026-04-23T12:32:02.999Z</time></trkpt><trkpt lat="36.88526542016925" lon="-4.532407108893235"><ele>421.20000000000005</ele><time>2026-04-23T12:32:03.999Z</time></trkpt><trkpt lat="36.88527167102681" lon="-4.532503178183239"><ele>420.4</ele><time>2026-04-23T12:32:04.999Z</time></trkpt><trkpt lat="36.885279755910986" lon="-4.53259414476087"><ele>419.6</ele><time>2026-04-23T12:32:05.999Z</time></trkpt><trkpt lat="36.88529895058362" lon="-4.532680819803594"><ele>418.79999999999995</ele><time>2026-04-23T12:32:07.999Z</time></trkpt><trkpt lat="36.88520880495122" lon="-4.532772042628059"><ele>418.0</ele><time>2026-04-23T12:32:11.999Z</time></trkpt><trkpt lat="36.8850960519682" lon="-4.532831968116173"><ele>416.33333333333337</ele><time>2026-04-23T12:32:13.999Z</time></trkpt><trkpt lat="36.885020808294776" lon="-4.532879685918439"><ele>414.6666666666667</ele><time>2026-04-23T12:32:14.999Z</time></trkpt><trkpt lat="36.88494012393382" lon="-4.5329320075780615"><ele>413.0</ele><time>2026-04-23T12:32:15.999Z</time></trkpt><trkpt lat="36.88485931989294" lon="-4.532977465001775"><ele>411.33333333333337</ele><time>2026-04-23T12:32:16.999Z</time></trkpt><trkpt lat="36.88477898687662" lon="-4.533028666917503"><ele>409.6666666666667</ele><time>2026-04-23T12:32:17.999Z</time></trkpt><trkpt lat="36.88469463297408" lon="-4.53307949057899"><ele>408.0</ele><time>2026-04-23T12:32:18.999Z</time></trkpt><trkpt lat="36.88461809045332" lon="-4.533131677801901"><ele>408.0</ele><time>2026-04-23T12:32:19.999Z</time></trkpt><trkpt lat="36.884546437011245" lon="-4.533163244863439"><ele>408.0</ele><time>2026-04-23T12:32:20.999Z</time></trkpt><trkpt lat="36.88448889291513" lon="-4.5331969130000855"><ele>408.0</ele><time>2026-04-23T12:32:21.999Z</time></trkpt><trkpt lat="36.88441454171242" lon="-4.5332088349696456"><ele>408.0</ele><time>2026-04-23T12:32:22.999Z</time></trkpt><trkpt lat="36.884345819672596" lon="-4.533216747681972"><ele>408.0</ele><time>2026-04-23T12:32:23.999Z</time></trkpt><trkpt lat="36.88428100333477" lon="-4.533223151520239"><ele>408.0</ele><time>2026-04-23T12:32:24.999Z</time></trkpt><trkpt lat="36.88421797774419" lon="-4.533233272221489"><ele>408.0</ele><time>2026-04-23T12:32:25.999Z</time></trkpt><trkpt lat="36.884099783130544" lon="-4.533286320686041"><ele>406.8333333333333</ele><time>2026-04-23T12:32:27.999Z</time></trkpt><trkpt lat="36.88399632862325" lon="-4.533341569264551"><ele>405.66666666666663</ele><time>2026-04-23T12:32:29.999Z</time></trkpt><trkpt lat="36.88395205675576" lon="-4.533402840055458"><ele>404.5</ele><time>2026-04-23T12:32:30.999Z</time></trkpt><trkpt lat="36.88388639186448" lon="-4.53345505302474"><ele>403.3333333333333</ele><time>2026-04-23T12:32:31.999Z</time></trkpt><trkpt lat="36.88380836625434" lon="-4.533486945573763"><ele>402.16666666666663</ele><time>2026-04-23T12:32:32.999Z</time></trkpt><trkpt lat="36.883722872279" lon="-4.533485084022599"><ele>401.0</ele><time>2026-04-23T12:32:33.999Z</time></trkpt><trkpt lat="36.883642265523584" lon="-4.533483416343224"><ele>401.0</ele><time>2026-04-23T12:32:34.999Z</time></trkpt><trkpt lat="36.88356101339202" lon="-4.5334658324942465"><ele>401.0</ele><time>2026-04-23T12:32:35.999Z</time></trkpt><trkpt lat="36.88349327729559" lon="-4.533439570359622"><ele>401.0</ele><time>2026-04-23T12:32:36.999Z</time></trkpt><trkpt lat="36.88343044584543" lon="-4.533393737390206"><ele>401.0</ele><time>2026-04-23T12:32:37.999Z</time></trkpt><trkpt lat="36.883391092839226" lon="-4.5333213828870615"><ele>401.0</ele><time>2026-04-23T12:32:38.999Z</time></trkpt><trkpt lat="36.88336228954819" lon="-4.5332472124177015"><ele>401.0</ele><time>2026-04-23T12:32:39.999Z</time></trkpt><trkpt lat="36.883331239766676" lon="-4.533158878499905"><ele>401.0</ele><time>2026-04-23T12:32:40.999Z</time></trkpt><trkpt lat="36.88330551119925" lon="-4.533045885796256"><ele>398.4</ele><time>2026-04-23T12:32:41.999Z</time></trkpt><trkpt lat="36.883284067741094" lon="-4.532929734830501"><ele>395.8</ele><time>2026-04-23T12:32:42.999Z</time></trkpt><trkpt lat="36.883266927749155" lon="-4.5328148008662446"><ele>393.2</ele><time>2026-04-23T12:32:43.998Z</time></trkpt><trkpt lat="36.88325199717267" lon="-4.5327160721902615"><ele>390.59999999999997</ele><time>2026-04-23T12:32:44.998Z</time></trkpt><trkpt lat="36.883229569658305" lon="-4.53262346688805"><ele>388.0</ele><time>2026-04-23T12:32:45.998Z</time></trkpt><trkpt lat="36.88316488649318" lon="-4.532500453491609"><ele>386.1666666666667</ele><time>2026-04-23T12:32:48Z</time></trkpt><trkpt lat="36.883078147049346" lon="-4.532490028496548"><ele>384.33333333333337</ele><time>2026-04-23T12:32:50Z</time></trkpt><trkpt lat="36.88301453892779" lon="-4.5324963712229795"><ele>382.5</ele><time>2026-04-23T12:32:51Z</time></trkpt><trkpt lat="36.882939669655876" lon="-4.5325345149965575"><ele>380.6666666666667</ele><time>2026-04-23T12:32:52Z</time></trkpt><trkpt lat="36.88286655738535" lon="-4.532597034596801"><ele>378.83333333333337</ele><time>2026-04-23T12:32:53Z</time></trkpt><trkpt lat="36.882806613853305" lon="-4.532678376610615"><ele>377.0</ele><time>2026-04-23T12:32:54Z</time></trkpt><trkpt lat="36.882749100433585" lon="-4.53275750170576"><ele>377.0</ele><time>2026-04-23T12:32:55Z</time></trkpt><trkpt lat="36.882706280384255" lon="-4.532865704838814"><ele>377.0</ele><time>2026-04-23T12:32:56Z</time></trkpt><trkpt lat="36.882674121712405" lon="-4.532977953407437"><ele>377.0</ele><time>2026-04-23T12:32:57Z</time></trkpt><trkpt lat="36.88265439642522" lon="-4.533092049113875"><ele>377.0</ele><time>2026-04-23T12:32:58Z</time></trkpt><trkpt lat="36.882639817577086" lon="-4.533196370385863"><ele>377.0</ele><time>2026-04-23T12:32:59Z</time></trkpt><trkpt lat="36.88262746507826" lon="-4.533293334203483"><ele>377.0</ele><time>2026-04-23T12:33:00Z</time></trkpt><trkpt lat="36.882618766614215" lon="-4.533381322406835"><ele>375.33333333333337</ele><time>2026-04-23T12:33:01Z</time></trkpt><trkpt lat="36.88260014547233" lon="-4.533463866182389"><ele>373.6666666666667</ele><time>2026-04-23T12:33:02Z</time></trkpt><trkpt lat="36.88257629748227" lon="-4.533538557807794"><ele>372.0</ele><time>2026-04-23T12:33:03Z</time></trkpt><trkpt lat="36.88253580836046" lon="-4.533600309183418"><ele>370.3333333333333</ele><time>2026-04-23T12:33:04Z</time></trkpt><trkpt lat="36.88244365104337" lon="-4.533701003241865"><ele>368.66666666666663</ele><time>2026-04-23T12:33:06Z</time></trkpt><trkpt lat="36.88236277727629" lon="-4.533720224927632"><ele>367.0</ele><time>2026-04-23T12:33:07Z</time></trkpt><trkpt lat="36.882267058538005" lon="-4.53368989461811"><ele>367.0</ele><time>2026-04-23T12:33:08Z</time></trkpt><trkpt lat="36.88216963751395" lon="-4.533662968588953"><ele>367.0</ele><time>2026-04-23T12:33:09Z</time></trkpt><trkpt lat="36.88208705258118" lon="-4.533650197932626"><ele>367.0</ele><time>2026-04-23T12:33:10Z</time></trkpt><trkpt lat="36.882016455363384" lon="-4.533644616789975"><ele>367.0</ele><time>2026-04-23T12:33:11Z</time></trkpt><trkpt lat="36.8819059376651" lon="-4.533625832116635"><ele>367.0</ele><time>2026-04-23T12:33:13Z</time></trkpt><trkpt lat="36.881826470435115" lon="-4.533525882561261"><ele>367.0</ele><time>2026-04-23T12:33:15Z</time></trkpt><trkpt lat="36.88178393008489" lon="-4.5334638995662795"><ele>367.0</ele><time>2026-04-23T12:33:16Z</time></trkpt><trkpt lat="36.88174863899121" lon="-4.533398700445921"><ele>367.0</ele><time>2026-04-23T12:33:17Z</time></trkpt><trkpt lat="36.88172103785791" lon="-4.53332615656808"><ele>367.0</ele><time>2026-04-23T12:33:18Z</time></trkpt><trkpt lat="36.88169979201068" lon="-4.533249538903754"><ele>367.0</ele><time>2026-04-23T12:33:19Z</time></trkpt><trkpt lat="36.88169286062278" lon="-4.533164195608932"><ele>367.0</ele><time>2026-04-23T12:33:20Z</time></trkpt><trkpt lat="36.88167079359399" lon="-4.5330780689323555"><ele>367.0</ele><time>2026-04-23T12:33:21Z</time></trkpt><trkpt lat="36.8816309886982" lon="-4.532993088954674"><ele>364.6</ele><time>2026-04-23T12:33:22Z</time></trkpt><trkpt lat="36.88160854560953" lon="-4.532911745472588"><ele>362.20000000000005</ele><time>2026-04-23T12:33:23Z</time></trkpt><trkpt lat="36.88155808612582" lon="-4.532784958995717"><ele>359.8</ele><time>2026-04-23T12:33:25Z</time></trkpt><trkpt lat="36.881500957877286" lon="-4.5326495867869125"><ele>357.4</ele><time>2026-04-23T12:33:26.999Z</time></trkpt><trkpt lat="36.88139595844005" lon="-4.532553523356786"><ele>355.0</ele><time>2026-04-23T12:33:28.999Z</time></trkpt><trkpt lat="36.88131351751219" lon="-4.532536343338326"><ele>354.8</ele><time>2026-04-23T12:33:29.999Z</time></trkpt><trkpt lat="36.88122511074269" lon="-4.532523168654125"><ele>354.6</ele><time>2026-04-23T12:33:30.999Z</time></trkpt><trkpt lat="36.88113759603963" lon="-4.532523657588625"><ele>354.4</ele><time>2026-04-23T12:33:31.999Z</time></trkpt><trkpt lat="36.8810446717092" lon="-4.53252553453986"><ele>354.2</ele><time>2026-04-23T12:33:32.999Z</time></trkpt><trkpt lat="36.88094838581582" lon="-4.5325339152587825"><ele>354.0</ele><time>2026-04-23T12:33:33.999Z</time></trkpt><trkpt lat="36.880861304201986" lon="-4.532559823980165"><ele>356.1666666666667</ele><time>2026-04-23T12:33:34.999Z</time></trkpt><trkpt lat="36.88078200359868" lon="-4.532604279100138"><ele>358.3333333333333</ele><time>2026-04-23T12:33:35.999Z</time></trkpt><trkpt lat="36.880696010757774" lon="-4.532647317591492"><ele>360.5</ele><time>2026-04-23T12:33:36.999Z</time></trkpt><trkpt lat="36.88060256886956" lon="-4.5326748735140026"><ele>362.66666666666663</ele><time>2026-04-23T12:33:37.999Z</time></trkpt><trkpt lat="36.88051664705491" lon="-4.532692644757007"><ele>364.8333333333333</ele><time>2026-04-23T12:33:38.999Z</time></trkpt><trkpt lat="36.880438173942345" lon="-4.5327113968859365"><ele>367.0</ele><time>2026-04-23T12:33:39.999Z</time></trkpt><trkpt lat="36.880349771527094" lon="-4.532727878314617"><ele>367.0</ele><time>2026-04-23T12:33:40.999Z</time></trkpt><trkpt lat="36.880252026255675" lon="-4.53271074076585"><ele>367.0</ele><time>2026-04-23T12:33:41.999Z</time></trkpt><trkpt lat="36.880153423509576" lon="-4.532728451633592"><ele>367.0</ele><time>2026-04-23T12:33:42.999Z</time></trkpt><trkpt lat="36.880062747190316" lon="-4.532730499871628"><ele>367.0</ele><time>2026-04-23T12:33:43.999Z</time></trkpt><trkpt lat="36.87997280862295" lon="-4.532747899007502"><ele>367.0</ele><time>2026-04-23T12:33:44.999Z</time></trkpt><trkpt lat="36.87988471894806" lon="-4.5327822260631665"><ele>369.40000000000003</ele><time>2026-04-23T12:33:45.999Z</time></trkpt><trkpt lat="36.8798002986412" lon="-4.532843775346976"><ele>371.8</ele><time>2026-04-23T12:33:46.999Z</time></trkpt><trkpt lat="36.87971216175312" lon="-4.532870820862932"><ele>374.2</ele><time>2026-04-23T12:33:47.999Z</time></trkpt><trkpt lat="36.8796155116592" lon="-4.532839687409298"><ele>376.6</ele><time>2026-04-23T12:33:48.999Z</time></trkpt><trkpt lat="36.879503572960864" lon="-4.532848850057701"><ele>379.0</ele><time>2026-04-23T12:33:49.999Z</time></trkpt><trkpt lat="36.87938652941524" lon="-4.532852419311624"><ele>379.6</ele><time>2026-04-23T12:33:50.999Z</time></trkpt><trkpt lat="36.87926215938877" lon="-4.532868161514664"><ele>380.2</ele><time>2026-04-23T12:33:51.999Z</time></trkpt><trkpt lat="36.87915550285379" lon="-4.5328570435917275"><ele>380.8</ele><time>2026-04-23T12:33:52.999Z</time></trkpt><trkpt lat="36.87907383022372" lon="-4.532803532676061"><ele>381.40000000000003</ele><time>2026-04-23T12:33:53.999Z</time></trkpt><trkpt lat="36.87899440013184" lon="-4.532815832263967"><ele>382.0</ele><time>2026-04-23T12:33:54.999Z</time></trkpt><trkpt lat="36.878895226915176" lon="-4.532825670172523"><ele>382.0</ele><time>2026-04-23T12:33:55.999Z</time></trkpt><trkpt lat="36.87878489831442" lon="-4.532869029173895"><ele>382.0</ele><time>2026-04-23T12:33:56.999Z</time></trkpt><trkpt lat="36.87868050084397" lon="-4.532906441960382"><ele>382.0</ele><time>2026-04-23T12:33:57.999Z</time></trkpt><trkpt lat="36.8786026514883" lon="-4.532942072774311"><ele>382.0</ele><time>2026-04-23T12:33:58.999Z</time></trkpt><trkpt lat="36.8785315701262" lon="-4.532983902863047"><ele>382.0</ele><time>2026-04-23T12:33:59.999Z</time></trkpt><trkpt lat="36.87847273363" lon="-4.533033140793638"><ele>382.66666666666663</ele><time>2026-04-23T12:34:00.999Z</time></trkpt><trkpt lat="36.8784260291044" lon="-4.53309679799188"><ele>383.3333333333333</ele><time>2026-04-23T12:34:01.999Z</time></trkpt><trkpt lat="36.87837780216212" lon="-4.533164997386292"><ele>384.0</ele><time>2026-04-23T12:34:02.999Z</time></trkpt><trkpt lat="36.87839472099938" lon="-4.533270772964081"><ele>384.66666666666663</ele><time>2026-04-23T12:34:03.999Z</time></trkpt><trkpt lat="36.87841865115896" lon="-4.53337836196733"><ele>385.3333333333333</ele><time>2026-04-23T12:34:04.999Z</time></trkpt><trkpt lat="36.87842241250374" lon="-4.533496036465971"><ele>386.0</ele><time>2026-04-23T12:34:05.999Z</time></trkpt><trkpt lat="36.878389090659354" lon="-4.533637501158708"><ele>387.0</ele><time>2026-04-23T12:34:06.999Z</time></trkpt><trkpt lat="36.87836766075523" lon="-4.533783920402077"><ele>388.0</ele><time>2026-04-23T12:34:07.999Z</time></trkpt><trkpt lat="36.87837986935063" lon="-4.533917128473339"><ele>389.0</ele><time>2026-04-23T12:34:08.999Z</time></trkpt><trkpt lat="36.878386023368044" lon="-4.534045856904028"><ele>390.0</ele><time>2026-04-23T12:34:09.999Z</time></trkpt><trkpt lat="36.87840712901887" lon="-4.534158453984406"><ele>391.0</ele><time>2026-04-23T12:34:10.999Z</time></trkpt><trkpt lat="36.87842423124677" lon="-4.534263838080013"><ele>392.83333333333337</ele><time>2026-04-23T12:34:11.999Z</time></trkpt><trkpt lat="36.878469251385866" lon="-4.53435882013342"><ele>394.6666666666667</ele><time>2026-04-23T12:34:12.999Z</time></trkpt><trkpt lat="36.87853963976238" lon="-4.53444227553584"><ele>396.5</ele><time>2026-04-23T12:34:13.999Z</time></trkpt><trkpt lat="36.87861119156695" lon="-4.534517157289437"><ele>398.33333333333337</ele><time>2026-04-23T12:34:14.999Z</time></trkpt><trkpt lat="36.87867021846174" lon="-4.534597808272568"><ele>400.1666666666667</ele><time>2026-04-23T12:34:15.999Z</time></trkpt><trkpt lat="36.87870105506724" lon="-4.534687172898647"><ele>402.0</ele><time>2026-04-23T12:34:16.999Z</time></trkpt><trkpt lat="36.87872706937488" lon="-4.534795471406565"><ele>402.0</ele><time>2026-04-23T12:34:17.999Z</time></trkpt><trkpt lat="36.87875002207374" lon="-4.534875872360497"><ele>402.0</ele><time>2026-04-23T12:34:18.999Z</time></trkpt><trkpt lat="36.87878044201717" lon="-4.534955913862439"><ele>402.0</ele><time>2026-04-23T12:34:20.999Z</time></trkpt><trkpt lat="36.87877675647253" lon="-4.535554135369518"><ele>404.33333333333337</ele><time>2026-04-23T12:34:22.999Z</time></trkpt><trkpt lat="36.8785135662334" lon="-4.53546367428492"><ele>406.6666666666667</ele><time>2026-04-23T12:34:23.999Z</time></trkpt><trkpt lat="36.878419030053514" lon="-4.5354479095955895"><ele>409.0</ele><time>2026-04-23T12:34:24.999Z</time></trkpt><trkpt lat="36.878302558975804" lon="-4.535425241677099"><ele>409.2</ele><time>2026-04-23T12:34:26.999Z</time></trkpt><trkpt lat="36.878239680278014" lon="-4.535413788765796"><ele>409.4</ele><time>2026-04-23T12:34:28.999Z</time></trkpt><trkpt lat="36.87825699806697" lon="-4.535176337188134"><ele>409.6</ele><time>2026-04-23T12:34:31.999Z</time></trkpt><trkpt lat="36.87828528705208" lon="-4.535257137329426"><ele>409.8</ele><time>2026-04-23T12:34:32.999Z</time></trkpt><trkpt lat="36.87836124062632" lon="-4.535279870599892"><ele>410.0</ele><time>2026-04-23T12:34:33.999Z</time></trkpt><trkpt lat="36.87842250816218" lon="-4.535317661677226"><ele>409.8333333333333</ele><time>2026-04-23T12:34:34.999Z</time></trkpt><trkpt lat="36.87847987668254" lon="-4.535411122263875"><ele>409.66666666666663</ele><time>2026-04-23T12:34:36.998Z</time></trkpt><trkpt lat="36.87854952142914" lon="-4.535476219760759"><ele>409.5</ele><time>2026-04-23T12:34:38.998Z</time></trkpt><trkpt lat="36.8786251296462" lon="-4.5354942942197205"><ele>409.33333333333337</ele><time>2026-04-23T12:34:39.998Z</time></trkpt><trkpt lat="36.87871201742501" lon="-4.535499881979725"><ele>409.1666666666667</ele><time>2026-04-23T12:34:40.998Z</time></trkpt><trkpt lat="36.878802431798704" lon="-4.535482253625786"><ele>409.0</ele><time>2026-04-23T12:34:41.998Z</time></trkpt><trkpt lat="36.87889698029921" lon="-4.53543879156407"><ele>409.0</ele><time>2026-04-23T12:34:42.998Z</time></trkpt><trkpt lat="36.878976163833535" lon="-4.535413001955622"><ele>409.0</ele><time>2026-04-23T12:34:43.998Z</time></trkpt><trkpt lat="36.879046911423785" lon="-4.535400620960757"><ele>409.0</ele><time>2026-04-23T12:34:44.998Z</time></trkpt><trkpt lat="36.87914990674191" lon="-4.535304608208634"><ele>409.0</ele><time>2026-04-23T12:34:46.998Z</time></trkpt><trkpt lat="36.8792446931863" lon="-4.535266194006575"><ele>409.0</ele><time>2026-04-23T12:34:48.998Z</time></trkpt><trkpt lat="36.879294444112666" lon="-4.5353382330900995"><ele>409.00000000000006</ele><time>2026-04-23T12:34:50.998Z</time></trkpt><trkpt lat="36.8793047966434" lon="-4.5354246017673265"><ele>409.0</ele><time>2026-04-23T12:34:51.998Z</time></trkpt><trkpt lat="36.87929365751007" lon="-4.535520915854774"><ele>409.0</ele><time>2026-04-23T12:34:52.999Z</time></trkpt><trkpt lat="36.879257686847055" lon="-4.535619718880154"><ele>409.0</ele><time>2026-04-23T12:34:53.999Z</time></trkpt><trkpt lat="36.87920560473316" lon="-4.535728202140897"><ele>409.00000000000006</ele><time>2026-04-23T12:34:54.999Z</time></trkpt><trkpt lat="36.879173562639885" lon="-4.535854008232886"><ele>409.0</ele><time>2026-04-23T12:34:55.999Z</time></trkpt><trkpt lat="36.87916088859348" lon="-4.535995227079717"><ele>409.0</ele><time>2026-04-23T12:34:56.999Z</time></trkpt><trkpt lat="36.87914632734136" lon="-4.536130203165472"><ele>409.0</ele><time>2026-04-23T12:34:57.999Z</time></trkpt><trkpt lat="36.87911354438923" lon="-4.5362438048981195"><ele>409.0</ele><time>2026-04-23T12:34:58.999Z</time></trkpt><trkpt lat="36.87905312549478" lon="-4.536360738898966"><ele>409.0</ele><time>2026-04-23T12:34:59.999Z</time></trkpt><trkpt lat="36.878965183829564" lon="-4.536481370921629"><ele>409.0</ele><time>2026-04-23T12:35:00.999Z</time></trkpt><trkpt lat="36.87886324867627" lon="-4.5366075842936695"><ele>408.6666666666667</ele><time>2026-04-23T12:35:01.999Z</time></trkpt><trkpt lat="36.87875919322295" lon="-4.536758597464749"><ele>408.33333333333337</ele><time>2026-04-23T12:35:02.999Z</time></trkpt><trkpt lat="36.87867410173961" lon="-4.536918441126799"><ele>408.0</ele><time>2026-04-23T12:35:03.999Z</time></trkpt><trkpt lat="36.878595412912176" lon="-4.537086786429113"><ele>408.0</ele><time>2026-04-23T12:35:04.999Z</time></trkpt><trkpt lat="36.87851388504367" lon="-4.537252252534767"><ele>408.0</ele><time>2026-04-23T12:35:05.999Z</time></trkpt><trkpt lat="36.878435946398426" lon="-4.537406305058899"><ele>408.0</ele><time>2026-04-23T12:35:06.999Z</time></trkpt><trkpt lat="36.87836048848141" lon="-4.537562995088682"><ele>408.0</ele><time>2026-04-23T12:35:07.999Z</time></trkpt><trkpt lat="36.87828908911454" lon="-4.537724934163119"><ele>414.33333333333337</ele><time>2026-04-23T12:35:08.999Z</time></trkpt><trkpt lat="36.878221465251855" lon="-4.537889306816664"><ele>420.6666666666667</ele><time>2026-04-23T12:35:09.999Z</time></trkpt><trkpt lat="36.8781505763131" lon="-4.5380581936921445"><ele>427.0</ele><time>2026-04-23T12:35:10.999Z</time></trkpt><trkpt lat="36.87807376043327" lon="-4.53822541250874"><ele>427.0</ele><time>2026-04-23T12:35:11.999Z</time></trkpt><trkpt lat="36.877992358311104" lon="-4.538404897552638"><ele>427.0</ele><time>2026-04-23T12:35:12.999Z</time></trkpt><trkpt lat="36.877914644347655" lon="-4.538581192634702"><ele>427.0</ele><time>2026-04-23T12:35:13.999Z</time></trkpt><trkpt lat="36.8778371634" lon="-4.538750520764435"><ele>427.0</ele><time>2026-04-23T12:35:14.999Z</time></trkpt><trkpt lat="36.87775945985581" lon="-4.53891254663223"><ele>427.0</ele><time>2026-04-23T12:35:15.999Z</time></trkpt><trkpt lat="36.87768336452018" lon="-4.539072027564898"><ele>427.0</ele><time>2026-04-23T12:35:16.999Z</time></trkpt><trkpt lat="36.877602826247646" lon="-4.539233794841341"><ele>429.33333333333337</ele><time>2026-04-23T12:35:17.999Z</time></trkpt><trkpt lat="36.87753298771237" lon="-4.5393901704988195"><ele>431.66666666666663</ele><time>2026-04-23T12:35:18.999Z</time></trkpt><trkpt lat="36.87744653795385" lon="-4.539566035849938"><ele>434.0</ele><time>2026-04-23T12:35:19.999Z</time></trkpt><trkpt lat="36.87737457423709" lon="-4.539738152506173"><ele>434.0</ele><time>2026-04-23T12:35:20.999Z</time></trkpt><trkpt lat="36.87729520135422" lon="-4.539906215676004"><ele>434.0</ele><time>2026-04-23T12:35:21.999Z</time></trkpt><trkpt lat="36.877219657797156" lon="-4.54007879919196"><ele>434.0</ele><time>2026-04-23T12:35:22.999Z</time></trkpt><trkpt lat="36.87714743658114" lon="-4.540240383897915"><ele>436.0</ele><time>2026-04-23T12:35:23.999Z</time></trkpt><trkpt lat="36.87707450382447" lon="-4.5403929250180814"><ele>438.0</ele><time>2026-04-23T12:35:24.999Z</time></trkpt><trkpt lat="36.87700637224015" lon="-4.540545509960693"><ele>440.0</ele><time>2026-04-23T12:35:25.999Z</time></trkpt><trkpt lat="36.8769397959596" lon="-4.540709963397214"><ele>442.0</ele><time>2026-04-23T12:35:26.999Z</time></trkpt><trkpt lat="36.87688108266681" lon="-4.540884667362668"><ele>442.0</ele><time>2026-04-23T12:35:27.999Z</time></trkpt><trkpt lat="36.87682886980751" lon="-4.541062542917902"><ele>442.0</ele><time>2026-04-23T12:35:28.999Z</time></trkpt><trkpt lat="36.8767773408071" lon="-4.541240085798981"><ele>442.0</ele><time>2026-04-23T12:35:29.999Z</time></trkpt><trkpt lat="36.87673243622188" lon="-4.541397550062094"><ele>442.0</ele><time>2026-04-23T12:35:30.999Z</time></trkpt><trkpt lat="36.8766971345008" lon="-4.541522673192625"><ele>443.20000000000005</ele><time>2026-04-23T12:35:31.999Z</time></trkpt><trkpt lat="36.87667352099732" lon="-4.541635060976732"><ele>444.40000000000003</ele><time>2026-04-23T12:35:32.999Z</time></trkpt><trkpt lat="36.87666394829429" lon="-4.541730818216183"><ele>445.59999999999997</ele><time>2026-04-23T12:35:33.999Z</time></trkpt><trkpt lat="36.87665794335961" lon="-4.541863713130425"><ele>446.79999999999995</ele><time>2026-04-23T12:35:34.999Z</time></trkpt><trkpt lat="36.87664786125129" lon="-4.541982671736264"><ele>448.0</ele><time>2026-04-23T12:35:35.999Z</time></trkpt><trkpt lat="36.876610550623305" lon="-4.5420920268134335"><ele>450.4</ele><time>2026-04-23T12:35:36.999Z</time></trkpt><trkpt lat="36.876547575301004" lon="-4.542192338229024"><ele>452.79999999999995</ele><time>2026-04-23T12:35:37.999Z</time></trkpt><trkpt lat="36.8764923072231" lon="-4.542292688578371"><ele>455.2</ele><time>2026-04-23T12:35:38.999Z</time></trkpt><trkpt lat="36.876451844145954" lon="-4.542400963907725"><ele>457.6</ele><time>2026-04-23T12:35:39.999Z</time></trkpt><trkpt lat="36.876415442040454" lon="-4.542530240664074"><ele>460.0</ele><time>2026-04-23T12:35:40.999Z</time></trkpt><trkpt lat="36.876397861154516" lon="-4.54267312329706"><ele>460.00000000000006</ele><time>2026-04-23T12:35:41.999Z</time></trkpt><trkpt lat="36.87637437091154" lon="-4.542801381499649"><ele>460.0</ele><time>2026-04-23T12:35:42.999Z</time></trkpt><trkpt lat="36.87634534140615" lon="-4.542900643238217"><ele>460.0</ele><time>2026-04-23T12:35:43.999Z</time></trkpt><trkpt lat="36.876300382233886" lon="-4.5429980551413545"><ele>460.0</ele><time>2026-04-23T12:35:44.999Z</time></trkpt><trkpt lat="36.87624277444896" lon="-4.543074488302343"><ele>460.00000000000006</ele><time>2026-04-23T12:35:45.999Z</time></trkpt><trkpt lat="36.87619515749311" lon="-4.543130104221643"><ele>460.0</ele><time>2026-04-23T12:35:46.999Z</time></trkpt><trkpt lat="36.87609692924149" lon="-4.5431291605844875"><ele>463.0</ele><time>2026-04-23T12:35:47.999Z</time></trkpt><trkpt lat="36.875986935756735" lon="-4.543162991509005"><ele>466.0</ele><time>2026-04-23T12:35:48.999Z</time></trkpt><trkpt lat="36.87586385269146" lon="-4.543189729927372"><ele>469.0</ele><time>2026-04-23T12:35:49.999Z</time></trkpt><trkpt lat="36.87572971721495" lon="-4.543219720828456"><ele>472.0</ele><time>2026-04-23T12:35:50.999Z</time></trkpt><trkpt lat="36.87560147556485" lon="-4.5432413921359815"><ele>472.40000000000003</ele><time>2026-04-23T12:35:51.999Z</time></trkpt><trkpt lat="36.87550510998428" lon="-4.54324932341679"><ele>472.80000000000007</ele><time>2026-04-23T12:35:52.999Z</time></trkpt><trkpt lat="36.87542621529184" lon="-4.543267675003398"><ele>473.2</ele><time>2026-04-23T12:35:53.999Z</time></trkpt><trkpt lat="36.875335723936246" lon="-4.543318266479303"><ele>473.6</ele><time>2026-04-23T12:35:54.999Z</time></trkpt><trkpt lat="36.87524072302821" lon="-4.543390877219976"><ele>474.0</ele><time>2026-04-23T12:35:55.999Z</time></trkpt><trkpt lat="36.875148103105374" lon="-4.543459934897845"><ele>474.6</ele><time>2026-04-23T12:35:56.999Z</time></trkpt><trkpt lat="36.87506275878184" lon="-4.543507301679433"><ele>475.2</ele><time>2026-04-23T12:35:57.999Z</time></trkpt><trkpt lat="36.87497532558479" lon="-4.543515269252028"><ele>475.80000000000007</ele><time>2026-04-23T12:35:58.999Z</time></trkpt><trkpt lat="36.874887077503196" lon="-4.543520002920803"><ele>476.40000000000003</ele><time>2026-04-23T12:35:59.999Z</time></trkpt><trkpt lat="36.874782246640414" lon="-4.543526655392663"><ele>477.0</ele><time>2026-04-23T12:36:00.999Z</time></trkpt><trkpt lat="36.87466254852315" lon="-4.543510903726587"><ele>477.0</ele><time>2026-04-23T12:36:01.999Z</time></trkpt><trkpt lat="36.87455297878368" lon="-4.543527851957722"><ele>477.00000000000006</ele><time>2026-04-23T12:36:02.999Z</time></trkpt><trkpt lat="36.87445401896322" lon="-4.543582644562735"><ele>477.00000000000006</ele><time>2026-04-23T12:36:03.999Z</time></trkpt><trkpt lat="36.87435229383242" lon="-4.543635287311894"><ele>477.0</ele><time>2026-04-23T12:36:04.999Z</time></trkpt><trkpt lat="36.874271238857126" lon="-4.543708160774469"><ele>477.0</ele><time>2026-04-23T12:36:05.999Z</time></trkpt><trkpt lat="36.87419020789269" lon="-4.5437941269523385"><ele>479.6</ele><time>2026-04-23T12:36:06.999Z</time></trkpt><trkpt lat="36.87410098485534" lon="-4.5438905632453235"><ele>482.20000000000005</ele><time>2026-04-23T12:36:07.999Z</time></trkpt><trkpt lat="36.87401075075852" lon="-4.543994761856658"><ele>484.8</ele><time>2026-04-23T12:36:08.999Z</time></trkpt><trkpt lat="36.873951396742115" lon="-4.5441052385318175"><ele>487.4</ele><time>2026-04-23T12:36:09.999Z</time></trkpt><trkpt lat="36.87388752901628" lon="-4.544180973737942"><ele>490.0</ele><time>2026-04-23T12:36:10.999Z</time></trkpt><trkpt lat="36.87385062999898" lon="-4.5442917655501835"><ele>490.0</ele><time>2026-04-23T12:36:11.999Z</time></trkpt><trkpt lat="36.87384677075451" lon="-4.544414120980527"><ele>490.0</ele><time>2026-04-23T12:36:12.999Z</time></trkpt><trkpt lat="36.87380791647235" lon="-4.544540386162457"><ele>490.0</ele><time>2026-04-23T12:36:13.999Z</time></trkpt><trkpt lat="36.873766893565076" lon="-4.544671611893921"><ele>490.0</ele><time>2026-04-23T12:36:14.999Z</time></trkpt><trkpt lat="36.87369605761385" lon="-4.544810406481908"><ele>491.75</ele><time>2026-04-23T12:36:15.999Z</time></trkpt><trkpt lat="36.87362266189521" lon="-4.544944238563608"><ele>493.5</ele><time>2026-04-23T12:36:16.999Z</time></trkpt><trkpt lat="36.87355468603812" lon="-4.545083793314941"><ele>495.25</ele><time>2026-04-23T12:36:17.999Z</time></trkpt><trkpt lat="36.87349746564009" lon="-4.545220087527091"><ele>497.0</ele><time>2026-04-23T12:36:18.999Z</time></trkpt><trkpt lat="36.873452995702245" lon="-4.5453548839843"><ele>498.0</ele><time>2026-04-23T12:36:19.999Z</time></trkpt><trkpt lat="36.8734235226058" lon="-4.545467114421562"><ele>499.00000000000006</ele><time>2026-04-23T12:36:20.999Z</time></trkpt><trkpt lat="36.87339454495539" lon="-4.545551415024135"><ele>500.00000000000006</ele><time>2026-04-23T12:36:21.999Z</time></trkpt><trkpt lat="36.873347014194565" lon="-4.545613126904327"><ele>501.0</ele><time>2026-04-23T12:36:22.999Z</time></trkpt><trkpt lat="36.87323136937755" lon="-4.545616287443706"><ele>502.0</ele><time>2026-04-23T12:36:24.999Z</time></trkpt><trkpt lat="36.87311979292778" lon="-4.545540436293932"><ele>502.0</ele><time>2026-04-23T12:36:26.999Z</time></trkpt><trkpt lat="36.873045299758175" lon="-4.545497506685956"><ele>502.00000000000006</ele><time>2026-04-23T12:36:27.999Z</time></trkpt><trkpt lat="36.87294789397625" lon="-4.545465109029378"><ele>502.00000000000006</ele><time>2026-04-23T12:36:28.999Z</time></trkpt><trkpt lat="36.87283444313746" lon="-4.5454330453304514"><ele>502.0</ele><time>2026-04-23T12:36:29.999Z</time></trkpt><trkpt lat="36.87272209682518" lon="-4.545396927002245"><ele>502.0</ele><time>2026-04-23T12:36:30.999Z</time></trkpt><trkpt lat="36.87262404231532" lon="-4.5453552699004005"><ele>502.40000000000003</ele><time>2026-04-23T12:36:31.999Z</time></trkpt><trkpt lat="36.87253262261171" lon="-4.545327612279829"><ele>502.80000000000007</ele><time>2026-04-23T12:36:32.999Z</time></trkpt><trkpt lat="36.87244385884567" lon="-4.545346967053755"><ele>503.2</ele><time>2026-04-23T12:36:33.999Z</time></trkpt><trkpt lat="36.87235479051381" lon="-4.545390077771781"><ele>503.6</ele><time>2026-04-23T12:36:34.998Z</time></trkpt><trkpt lat="36.87224387975291" lon="-4.545408152277245"><ele>504.0</ele><time>2026-04-23T12:36:35.998Z</time></trkpt><trkpt lat="36.87213759953054" lon="-4.545463881748958"><ele>504.4</ele><time>2026-04-23T12:36:36.998Z</time></trkpt><trkpt lat="36.87202271615682" lon="-4.545505169752363"><ele>504.79999999999995</ele><time>2026-04-23T12:36:37.998Z</time></trkpt><trkpt lat="36.87191629294232" lon="-4.545532683102729"><ele>505.20000000000005</ele><time>2026-04-23T12:36:38.998Z</time></trkpt><trkpt lat="36.87181217559117" lon="-4.545545303775113"><ele>505.6</ele><time>2026-04-23T12:36:39.998Z</time></trkpt><trkpt lat="36.87172506732403" lon="-4.545570487653"><ele>506.0</ele><time>2026-04-23T12:36:40.998Z</time></trkpt><trkpt lat="36.871639130936906" lon="-4.545558212059395"><ele>507.16666666666663</ele><time>2026-04-23T12:36:41.998Z</time></trkpt><trkpt lat="36.87156882160312" lon="-4.545531105244404"><ele>508.3333333333333</ele><time>2026-04-23T12:36:42.998Z</time></trkpt><trkpt lat="36.87150066665841" lon="-4.545506752512464"><ele>509.5</ele><time>2026-04-23T12:36:43.998Z</time></trkpt><trkpt lat="36.87143666938163" lon="-4.5454872321765265"><ele>510.66666666666663</ele><time>2026-04-23T12:36:44.998Z</time></trkpt><trkpt lat="36.87136580744774" lon="-4.545470711447618"><ele>511.8333333333333</ele><time>2026-04-23T12:36:45.998Z</time></trkpt><trkpt lat="36.87128627193743" lon="-4.545464748310292"><ele>513.0</ele><time>2026-04-23T12:36:46.998Z</time></trkpt><trkpt lat="36.87119508433702" lon="-4.545474824595876"><ele>513.0</ele><time>2026-04-23T12:36:47.998Z</time></trkpt><trkpt lat="36.87110863195884" lon="-4.5454903233532"><ele>513.0</ele><time>2026-04-23T12:36:48.998Z</time></trkpt><trkpt lat="36.871028700608235" lon="-4.545546614934838"><ele>513.0</ele><time>2026-04-23T12:36:49.998Z</time></trkpt><trkpt lat="36.87095991184467" lon="-4.545619867726018"><ele>513.0</ele><time>2026-04-23T12:36:50.998Z</time></trkpt><trkpt lat="36.870879313646064" lon="-4.545722514428134"><ele>513.0</ele><time>2026-04-23T12:36:51.998Z</time></trkpt><trkpt lat="36.87079722370181" lon="-4.545853388203531"><ele>512.0</ele><time>2026-04-23T12:36:52.998Z</time></trkpt><trkpt lat="36.870703237207266" lon="-4.545964185217918"><ele>510.99999999999994</ele><time>2026-04-23T12:36:53.998Z</time></trkpt><trkpt lat="36.87061375592387" lon="-4.546040043720911"><ele>509.99999999999994</ele><time>2026-04-23T12:36:54.998Z</time></trkpt><trkpt lat="36.87054166410714" lon="-4.546108354663144"><ele>509.0</ele><time>2026-04-23T12:36:55.998Z</time></trkpt><trkpt lat="36.870467495459344" lon="-4.546167134787279"><ele>508.0</ele><time>2026-04-23T12:36:56.998Z</time></trkpt><trkpt lat="36.8703859206926" lon="-4.546215032464257"><ele>508.00000000000006</ele><time>2026-04-23T12:36:57.998Z</time></trkpt><trkpt lat="36.87032713985858" lon="-4.546255305903446"><ele>508.0</ele><time>2026-04-23T12:36:58.999Z</time></trkpt><trkpt lat="36.870230058504994" lon="-4.546267468188169"><ele>508.0</ele><time>2026-04-23T12:37:00.999Z</time></trkpt><trkpt lat="36.87016059053642" lon="-4.5461758652341535"><ele>508.0</ele><time>2026-04-23T12:37:02.999Z</time></trkpt><trkpt lat="36.8701855182821" lon="-4.546079679104537"><ele>508.00000000000006</ele><time>2026-04-23T12:37:03.999Z</time></trkpt><trkpt lat="36.8702258891747" lon="-4.5460008716576406"><ele>508.0</ele><time>2026-04-23T12:37:04.999Z</time></trkpt><trkpt lat="36.87027789910241" lon="-4.54589509868042"><ele>508.0</ele><time>2026-04-23T12:37:05.999Z</time></trkpt><trkpt lat="36.87033062162501" lon="-4.545776604154935"><ele>507.99999999999994</ele><time>2026-04-23T12:37:06.999Z</time></trkpt><trkpt lat="36.870368408519234" lon="-4.545632389890476"><ele>507.99999999999994</ele><time>2026-04-23T12:37:07.999Z</time></trkpt><trkpt lat="36.87039054424449" lon="-4.5454908234532985"><ele>508.0</ele><time>2026-04-23T12:37:08.999Z</time></trkpt><trkpt lat="36.870381464372294" lon="-4.545384825598288"><ele>508.0</ele><time>2026-04-23T12:37:09.999Z</time></trkpt><trkpt lat="36.870344707434796" lon="-4.545262945149137"><ele>505.59999999999997</ele><time>2026-04-23T12:37:10.999Z</time></trkpt><trkpt lat="36.87033614874938" lon="-4.545126542786851"><ele>503.19999999999993</ele><time>2026-04-23T12:37:11.999Z</time></trkpt><trkpt lat="36.87035361965754" lon="-4.544981190295029"><ele>500.8</ele><time>2026-04-23T12:37:12.999Z</time></trkpt><trkpt lat="36.87037655597289" lon="-4.544846275885091"><ele>498.4</ele><time>2026-04-23T12:37:13.999Z</time></trkpt><trkpt lat="36.87034763148254" lon="-4.544765654558451"><ele>496.0</ele><time>2026-04-23T12:37:14.999Z</time></trkpt><trkpt lat="36.87029652416157" lon="-4.544643678123213"><ele>496.0</ele><time>2026-04-23T12:37:16.999Z</time></trkpt><trkpt lat="36.87020925491414" lon="-4.544642258129689"><ele>496.0</ele><time>2026-04-23T12:37:17.999Z</time></trkpt><trkpt lat="36.870109699192454" lon="-4.544620235732237"><ele>496.0</ele><time>2026-04-23T12:37:18.999Z</time></trkpt><trkpt lat="36.8699855101801" lon="-4.544598390019194"><ele>496.0</ele><time>2026-04-23T12:37:19.999Z</time></trkpt><trkpt lat="36.86985388846858" lon="-4.544585122009299"><ele>496.0</ele><time>2026-04-23T12:37:20.999Z</time></trkpt><trkpt lat="36.86974840384978" lon="-4.54459604146228"><ele>499.6666666666667</ele><time>2026-04-23T12:37:21.999Z</time></trkpt><trkpt lat="36.86965839847298" lon="-4.544637811180956"><ele>503.33333333333337</ele><time>2026-04-23T12:37:22.999Z</time></trkpt><trkpt lat="36.86956423234995" lon="-4.544689052082019"><ele>507.0</ele><time>2026-04-23T12:37:23.999Z</time></trkpt><trkpt lat="36.86946957016485" lon="-4.544700553615324"><ele>510.66666666666663</ele><time>2026-04-23T12:37:24.999Z</time></trkpt><trkpt lat="36.869389945895364" lon="-4.544706821765676"><ele>514.3333333333333</ele><time>2026-04-23T12:37:25.999Z</time></trkpt><trkpt lat="36.8693275240723" lon="-4.544674235888419"><ele>518.0</ele><time>2026-04-23T12:37:26.999Z</time></trkpt><trkpt lat="36.86928298881805" lon="-4.544612466784557"><ele>518.0</ele><time>2026-04-23T12:37:27.999Z</time></trkpt><trkpt lat="36.869278998232396" lon="-4.544442533849121"><ele>518.0</ele><time>2026-04-23T12:37:29.999Z</time></trkpt><trkpt lat="36.86930467199778" lon="-4.54433528011258"><ele>518.0</ele><time>2026-04-23T12:37:30.999Z</time></trkpt><trkpt lat="36.869273644397765" lon="-4.544216360671869"><ele>518.0</ele><time>2026-04-23T12:37:31.999Z</time></trkpt><trkpt lat="36.8692313421769" lon="-4.544078493934419"><ele>518.0</ele><time>2026-04-23T12:37:32.999Z</time></trkpt><trkpt lat="36.86919256732576" lon="-4.543930378416093"><ele>518.0</ele><time>2026-04-23T12:37:33.999Z</time></trkpt><trkpt lat="36.8691273733174" lon="-4.5438050733658"><ele>518.0</ele><time>2026-04-23T12:37:34.999Z</time></trkpt><trkpt lat="36.86907423906942" lon="-4.543699481375507"><ele>518.0</ele><time>2026-04-23T12:37:35.999Z</time></trkpt><trkpt lat="36.869007602667956" lon="-4.543612803647817"><ele>518.0</ele><time>2026-04-23T12:37:36.999Z</time></trkpt><trkpt lat="36.86891801321056" lon="-4.543532800140363"><ele>518.0</ele><time>2026-04-23T12:37:37.999Z</time></trkpt><trkpt lat="36.86886073770059" lon="-4.543395548041888"><ele>516.8</ele><time>2026-04-23T12:37:38.999Z</time></trkpt><trkpt lat="36.86881168033413" lon="-4.543290373576074"><ele>515.5999999999999</ele><time>2026-04-23T12:37:39.999Z</time></trkpt><trkpt lat="36.86875518944456" lon="-4.543234420901244"><ele>514.4000000000001</ele><time>2026-04-23T12:37:40.999Z</time></trkpt><trkpt lat="36.86862560947226" lon="-4.5431883991196305"><ele>513.2</ele><time>2026-04-23T12:37:42.999Z</time></trkpt><trkpt lat="36.86852687149909" lon="-4.543140694514247"><ele>512.0</ele><time>2026-04-23T12:37:43.999Z</time></trkpt><trkpt lat="36.86843504811842" lon="-4.543028457314981"><ele>510.0</ele><time>2026-04-23T12:37:44.999Z</time></trkpt><trkpt lat="36.86833156481125" lon="-4.542929745271383"><ele>508.0</ele><time>2026-04-23T12:37:45.999Z</time></trkpt><trkpt lat="36.8682105835596" lon="-4.542916739103693"><ele>506.0</ele><time>2026-04-23T12:37:46.999Z</time></trkpt><trkpt lat="36.8680852615451" lon="-4.542887000667457"><ele>504.0</ele><time>2026-04-23T12:37:47.999Z</time></trkpt><trkpt lat="36.867984679941216" lon="-4.542858023013327"><ele>504.0</ele><time>2026-04-23T12:37:48.999Z</time></trkpt><trkpt lat="36.86789930854562" lon="-4.542841713022851"><ele>504.0</ele><time>2026-04-23T12:37:49.999Z</time></trkpt><trkpt lat="36.8678234531128" lon="-4.542838764270678"><ele>504.0</ele><time>2026-04-23T12:37:50.999Z</time></trkpt><trkpt lat="36.86773672299335" lon="-4.542842679524266"><ele>504.0</ele><time>2026-04-23T12:37:51.999Z</time></trkpt><trkpt lat="36.867640042342956" lon="-4.542794874318655"><ele>504.0</ele><time>2026-04-23T12:37:52.999Z</time></trkpt><trkpt lat="36.867540504168026" lon="-4.542741917714333"><ele>506.0</ele><time>2026-04-23T12:37:53.999Z</time></trkpt><trkpt lat="36.867440673882605" lon="-4.542711103092799"><ele>508.0</ele><time>2026-04-23T12:37:54.999Z</time></trkpt><trkpt lat="36.86735775241517" lon="-4.542689833556548"><ele>510.0</ele><time>2026-04-23T12:37:55.999Z</time></trkpt><trkpt lat="36.867263549696474" lon="-4.5426897469456655"><ele>512.0</ele><time>2026-04-23T12:37:56.999Z</time></trkpt><trkpt lat="36.867154331281014" lon="-4.542705690332029"><ele>514.0</ele><time>2026-04-23T12:37:57.999Z</time></trkpt><trkpt lat="36.86703942741084" lon="-4.5427205749620425"><ele>514.0</ele><time>2026-04-23T12:37:58.999Z</time></trkpt><trkpt lat="36.86692432194357" lon="-4.542737645527248"><ele>514.0</ele><time>2026-04-23T12:37:59.999Z</time></trkpt><trkpt lat="36.86682630921102" lon="-4.542752818833827"><ele>514.0</ele><time>2026-04-23T12:38:00.999Z</time></trkpt><trkpt lat="36.866732922327216" lon="-4.542738398327702"><ele>514.0</ele><time>2026-04-23T12:38:01.999Z</time></trkpt><trkpt lat="36.86665771495203" lon="-4.542763149772657"><ele>514.0</ele><time>2026-04-23T12:38:02.999Z</time></trkpt><trkpt lat="36.866591468302055" lon="-4.542764864698446"><ele>512.8</ele><time>2026-04-23T12:38:03.999Z</time></trkpt><trkpt lat="36.86652355538342" lon="-4.542833198378428"><ele>511.59999999999997</ele><time>2026-04-23T12:38:04.999Z</time></trkpt><trkpt lat="36.866474816210754" lon="-4.542953736025643"><ele>510.4</ele><time>2026-04-23T12:38:05.999Z</time></trkpt><trkpt lat="36.86640765244211" lon="-4.543069132573213"><ele>509.2</ele><time>2026-04-23T12:38:06.999Z</time></trkpt><trkpt lat="36.8663705467676" lon="-4.543195896701876"><ele>508.0</ele><time>2026-04-23T12:38:07.999Z</time></trkpt><trkpt lat="36.86634746908892" lon="-4.543340127716834"><ele>511.75</ele><time>2026-04-23T12:38:08.999Z</time></trkpt><trkpt lat="36.866341141122206" lon="-4.543501621255457"><ele>515.5</ele><time>2026-04-23T12:38:09.999Z</time></trkpt><trkpt lat="36.8663424848645" lon="-4.5436672096317405"><ele>519.25</ele><time>2026-04-23T12:38:10.999Z</time></trkpt><trkpt lat="36.86634365027918" lon="-4.543812445515091"><ele>523.0</ele><time>2026-04-23T12:38:11.999Z</time></trkpt><trkpt lat="36.86634574177971" lon="-4.5439711632528645"><ele>523.5</ele><time>2026-04-23T12:38:12.999Z</time></trkpt><trkpt lat="36.86634893399465" lon="-4.544146713674528"><ele>524.0</ele><time>2026-04-23T12:38:13.999Z</time></trkpt><trkpt lat="36.866342440921656" lon="-4.544332021041371"><ele>524.5</ele><time>2026-04-23T12:38:14.999Z</time></trkpt><trkpt lat="36.86634032017573" lon="-4.544530838064809"><ele>525.0</ele><time>2026-04-23T12:38:15.999Z</time></trkpt><trkpt lat="36.866345608070375" lon="-4.54473697319766"><ele>525.0</ele><time>2026-04-23T12:38:16.999Z</time></trkpt><trkpt lat="36.86634618104821" lon="-4.544938915073316"><ele>525.0</ele><time>2026-04-23T12:38:17.999Z</time></trkpt><trkpt lat="36.86634308899145" lon="-4.5451302550023165"><ele>525.0</ele><time>2026-04-23T12:38:18.999Z</time></trkpt><trkpt lat="36.86634483748533" lon="-4.545333085284548"><ele>526.0</ele><time>2026-04-23T12:38:19.999Z</time></trkpt><trkpt lat="36.8663379040948" lon="-4.545528222225334"><ele>527.0</ele><time>2026-04-23T12:38:20.999Z</time></trkpt><trkpt lat="36.86632414228297" lon="-4.54570655179023"><ele>528.0</ele><time>2026-04-23T12:38:21.999Z</time></trkpt><trkpt lat="36.86629848969719" lon="-4.545867549142507"><ele>529.0</ele><time>2026-04-23T12:38:22.999Z</time></trkpt><trkpt lat="36.86625548364538" lon="-4.546020415431691"><ele>529.0</ele><time>2026-04-23T12:38:23.999Z</time></trkpt><trkpt lat="36.866198605893565" lon="-4.546171771812992"><ele>529.0</ele><time>2026-04-23T12:38:24.999Z</time></trkpt><trkpt lat="36.86612517175201" lon="-4.546308698868843"><ele>529.0</ele><time>2026-04-23T12:38:25.999Z</time></trkpt><trkpt lat="36.86606385148922" lon="-4.546418956158524"><ele>529.0</ele><time>2026-04-23T12:38:26.999Z</time></trkpt><trkpt lat="36.86601880186001" lon="-4.546536336148453"><ele>530.75</ele><time>2026-04-23T12:38:27.999Z</time></trkpt><trkpt lat="36.865992144934935" lon="-4.546677231241078"><ele>532.5</ele><time>2026-04-23T12:38:28.999Z</time></trkpt><trkpt lat="36.86599725831" lon="-4.546819732624448"><ele>534.25</ele><time>2026-04-23T12:38:29.999Z</time></trkpt><trkpt lat="36.86603041395943" lon="-4.546977438698329"><ele>536.0</ele><time>2026-04-23T12:38:30.999Z</time></trkpt><trkpt lat="36.86606554573865" lon="-4.547151139745198"><ele>536.0</ele><time>2026-04-23T12:38:31.999Z</time></trkpt><trkpt lat="36.86609812930644" lon="-4.547334960223833"><ele>536.0</ele><time>2026-04-23T12:38:32.999Z</time></trkpt><trkpt lat="36.86612414822002" lon="-4.547526017675056"><ele>536.0</ele><time>2026-04-23T12:38:33.999Z</time></trkpt><trkpt lat="36.866137374340425" lon="-4.547697393531336"><ele>536.0</ele><time>2026-04-23T12:38:34.999Z</time></trkpt><trkpt lat="36.86614079676456" lon="-4.547843821365512"><ele>535.25</ele><time>2026-04-23T12:38:35.999Z</time></trkpt><trkpt lat="36.86611958048393" lon="-4.547986033017907"><ele>534.5</ele><time>2026-04-23T12:38:36.999Z</time></trkpt><trkpt lat="36.866057964722835" lon="-4.548144453170283"><ele>533.75</ele><time>2026-04-23T12:38:37.999Z</time></trkpt><trkpt lat="36.86597610563216" lon="-4.548317811437736"><ele>533.0</ele><time>2026-04-23T12:38:38.999Z</time></trkpt><trkpt lat="36.86589931818833" lon="-4.548504227952211"><ele>529.25</ele><time>2026-04-23T12:38:39.999Z</time></trkpt><trkpt lat="36.86583226649049" lon="-4.548695280226608"><ele>525.5</ele><time>2026-04-23T12:38:40.999Z</time></trkpt><trkpt lat="36.86577104320073" lon="-4.548858809687668"><ele>521.75</ele><time>2026-04-23T12:38:41.999Z</time></trkpt><trkpt lat="36.865710419281655" lon="-4.548999635879793"><ele>518.0</ele><time>2026-04-23T12:38:42.999Z</time></trkpt><trkpt lat="36.865623754494145" lon="-4.549115688595681"><ele>518.0</ele><time>2026-04-23T12:38:43.999Z</time></trkpt><trkpt lat="36.865503112994254" lon="-4.549203025658789"><ele>518.0</ele><time>2026-04-23T12:38:44.999Z</time></trkpt><trkpt lat="36.86535839429849" lon="-4.5492748924314625"><ele>518.0</ele><time>2026-04-23T12:38:45.999Z</time></trkpt><trkpt lat="36.86520546161277" lon="-4.549331602959159"><ele>518.1999999999999</ele><time>2026-04-23T12:38:46.999Z</time></trkpt><trkpt lat="36.865057417133826" lon="-4.54938077272809"><ele>518.4</ele><time>2026-04-23T12:38:47.999Z</time></trkpt><trkpt lat="36.864947213253664" lon="-4.549419492812224"><ele>518.5999999999999</ele><time>2026-04-23T12:38:48.999Z</time></trkpt><trkpt lat="36.86486410135733" lon="-4.54944693799199"><ele>518.8</ele><time>2026-04-23T12:38:49.999Z</time></trkpt><trkpt lat="36.864793070591666" lon="-4.549508468773801"><ele>519.0</ele><time>2026-04-23T12:38:50.999Z</time></trkpt><trkpt lat="36.86471138712977" lon="-4.549607419354481"><ele>519.0</ele><time>2026-04-23T12:38:51.999Z</time></trkpt><trkpt lat="36.86459563309301" lon="-4.549722808088828"><ele>519.0</ele><time>2026-04-23T12:38:52.999Z</time></trkpt><trkpt lat="36.86447648346293" lon="-4.5498561823276855"><ele>519.0</ele><time>2026-04-23T12:38:53.999Z</time></trkpt><trkpt lat="36.86434338565508" lon="-4.549977254632483"><ele>513.5</ele><time>2026-04-23T12:38:54.999Z</time></trkpt><trkpt lat="36.86423021080049" lon="-4.550091209373459"><ele>508.0</ele><time>2026-04-23T12:38:55.999Z</time></trkpt><trkpt lat="36.86411738824008" lon="-4.550179455153462"><ele>502.5</ele><time>2026-04-23T12:38:56.999Z</time></trkpt><trkpt lat="36.863985770851805" lon="-4.550239306201359"><ele>497.0</ele><time>2026-04-23T12:38:57.999Z</time></trkpt><trkpt lat="36.863833886018405" lon="-4.550268131097726"><ele>497.0</ele><time>2026-04-23T12:38:58.999Z</time></trkpt><trkpt lat="36.863690208303495" lon="-4.550307255492669"><ele>497.0</ele><time>2026-04-23T12:38:59.999Z</time></trkpt><trkpt lat="36.86357513606446" lon="-4.55033069374875"><ele>497.0</ele><time>2026-04-23T12:39:00.999Z</time></trkpt><trkpt lat="36.86347425280981" lon="-4.550356897392814"><ele>497.0</ele><time>2026-04-23T12:39:01.998Z</time></trkpt><trkpt lat="36.863393682146054" lon="-4.55039396619034"><ele>497.20000000000005</ele><time>2026-04-23T12:39:02.998Z</time></trkpt><trkpt lat="36.86331656429394" lon="-4.550451623806742"><ele>497.40000000000003</ele><time>2026-04-23T12:39:03.998Z</time></trkpt><trkpt lat="36.863265165631255" lon="-4.550558843838213"><ele>497.59999999999997</ele><time>2026-04-23T12:39:05Z</time></trkpt><trkpt lat="36.86324383728177" lon="-4.5506616155972734"><ele>497.79999999999995</ele><time>2026-04-23T12:39:06Z</time></trkpt><trkpt lat="36.863254592977384" lon="-4.550784480039155"><ele>498.0</ele><time>2026-04-23T12:39:07Z</time></trkpt><trkpt lat="36.86330453707086" lon="-4.550896104804304"><ele>498.0</ele><time>2026-04-23T12:39:08Z</time></trkpt><trkpt lat="36.86337988639418" lon="-4.550975343647528"><ele>498.0</ele><time>2026-04-23T12:39:09Z</time></trkpt><trkpt lat="36.86348395282474" lon="-4.5510308429590385"><ele>498.0</ele><time>2026-04-23T12:39:10Z</time></trkpt><trkpt lat="36.86360863050492" lon="-4.551064836470462"><ele>498.0</ele><time>2026-04-23T12:39:11Z</time></trkpt><trkpt lat="36.86373786805006" lon="-4.5510972108744685"><ele>497.59999999999997</ele><time>2026-04-23T12:39:12Z</time></trkpt><trkpt lat="36.86384355752933" lon="-4.5511178435408555"><ele>497.19999999999993</ele><time>2026-04-23T12:39:13Z</time></trkpt><trkpt lat="36.863936079926766" lon="-4.55115513056984"><ele>496.8</ele><time>2026-04-23T12:39:14Z</time></trkpt><trkpt lat="36.864020382648626" lon="-4.551229927418678"><ele>496.4</ele><time>2026-04-23T12:39:15Z</time></trkpt><trkpt lat="36.86408513748022" lon="-4.551332329495727"><ele>496.0</ele><time>2026-04-23T12:39:16Z</time></trkpt><trkpt lat="36.8641388366357" lon="-4.551462408279183"><ele>496.0</ele><time>2026-04-23T12:39:17Z</time></trkpt><trkpt lat="36.864182159624974" lon="-4.551613856822286"><ele>496.0</ele><time>2026-04-23T12:39:18Z</time></trkpt><trkpt lat="36.86422731751328" lon="-4.551780762069876"><ele>496.0</ele><time>2026-04-23T12:39:19Z</time></trkpt><trkpt lat="36.86427961203723" lon="-4.5519530300946"><ele>496.0</ele><time>2026-04-23T12:39:20Z</time></trkpt><trkpt lat="36.86432353326067" lon="-4.552115186975091"><ele>498.75</ele><time>2026-04-23T12:39:21Z</time></trkpt><trkpt lat="36.86436146161307" lon="-4.552236732342829"><ele>501.5</ele><time>2026-04-23T12:39:22Z</time></trkpt><trkpt lat="36.86442311752003" lon="-4.552362975866634"><ele>504.25</ele><time>2026-04-23T12:39:23Z</time></trkpt><trkpt lat="36.864522743187194" lon="-4.552498361680259"><ele>507.0</ele><time>2026-04-23T12:39:24Z</time></trkpt><trkpt lat="36.86464101093868" lon="-4.552646717034158"><ele>507.0</ele><time>2026-04-23T12:39:25Z</time></trkpt><trkpt lat="36.864756150002556" lon="-4.552794452143659"><ele>507.0</ele><time>2026-04-23T12:39:26Z</time></trkpt><trkpt lat="36.86484465619188" lon="-4.552932201336383"><ele>507.0</ele><time>2026-04-23T12:39:27Z</time></trkpt><trkpt lat="36.864904836240825" lon="-4.5530892341311455"><ele>507.0</ele><time>2026-04-23T12:39:28Z</time></trkpt><trkpt lat="36.86494176981223" lon="-4.553265640832664"><ele>507.25</ele><time>2026-04-23T12:39:29Z</time></trkpt><trkpt lat="36.86496497765465" lon="-4.5534454772204045"><ele>507.5</ele><time>2026-04-23T12:39:30Z</time></trkpt><trkpt lat="36.86497472836731" lon="-4.553607477436983"><ele>507.75</ele><time>2026-04-23T12:39:31Z</time></trkpt><trkpt lat="36.864947292678046" lon="-4.5537763431862"><ele>508.0</ele><time>2026-04-23T12:39:32Z</time></trkpt><trkpt lat="36.864882540614694" lon="-4.553939669527992"><ele>509.75</ele><time>2026-04-23T12:39:33Z</time></trkpt><trkpt lat="36.86479541335865" lon="-4.5541009666562715"><ele>511.5</ele><time>2026-04-23T12:39:34Z</time></trkpt><trkpt lat="36.86471876307236" lon="-4.554234331285431"><ele>513.25</ele><time>2026-04-23T12:39:35Z</time></trkpt><trkpt lat="36.86465843561707" lon="-4.554333863992876"><ele>515.0</ele><time>2026-04-23T12:39:36Z</time></trkpt><trkpt lat="36.864597770801225" lon="-4.554398729997802"><ele>515.0</ele><time>2026-04-23T12:39:37Z</time></trkpt><trkpt lat="36.86452266205411" lon="-4.554442624148762"><ele>515.0</ele><time>2026-04-23T12:39:38Z</time></trkpt><trkpt lat="36.86442783219389" lon="-4.554467656965843"><ele>515.0</ele><time>2026-04-23T12:39:39Z</time></trkpt><trkpt lat="36.86432696338429" lon="-4.554518317176173"><ele>515.0</ele><time>2026-04-23T12:39:40Z</time></trkpt><trkpt lat="36.8642199907009" lon="-4.554594162828809"><ele>515.0</ele><time>2026-04-23T12:39:41Z</time></trkpt><trkpt lat="36.86410688504429" lon="-4.554683540043698"><ele>514.75</ele><time>2026-04-23T12:39:42Z</time></trkpt><trkpt lat="36.86398414370114" lon="-4.554769587989054"><ele>514.5</ele><time>2026-04-23T12:39:43Z</time></trkpt><trkpt lat="36.86385641877061" lon="-4.554855711096424"><ele>514.25</ele><time>2026-04-23T12:39:44Z</time></trkpt><trkpt lat="36.863725381163604" lon="-4.554942867100502"><ele>514.0</ele><time>2026-04-23T12:39:45Z</time></trkpt><trkpt lat="36.86359002462484" lon="-4.55503244882914"><ele>514.0</ele><time>2026-04-23T12:39:46Z</time></trkpt><trkpt lat="36.86345381452782" lon="-4.555130464364204"><ele>514.0</ele><time>2026-04-23T12:39:47Z</time></trkpt><trkpt lat="36.86332036126721" lon="-4.555247133506723"><ele>514.0</ele><time>2026-04-23T12:39:48Z</time></trkpt><trkpt lat="36.86320047532751" lon="-4.555366642010437"><ele>514.25</ele><time>2026-04-23T12:39:48.999Z</time></trkpt><trkpt lat="36.86309341752106" lon="-4.555470797678573"><ele>514.5</ele><time>2026-04-23T12:39:49.999Z</time></trkpt><trkpt lat="36.8629775434086" lon="-4.555547934644383"><ele>514.75</ele><time>2026-04-23T12:39:50.999Z</time></trkpt><trkpt lat="36.86283943758048" lon="-4.5555982555590395"><ele>515.0</ele><time>2026-04-23T12:39:51.999Z</time></trkpt><trkpt lat="36.86269021566276" lon="-4.555655637702439"><ele>512.6666666666666</ele><time>2026-04-23T12:39:52.999Z</time></trkpt><trkpt lat="36.86255170269711" lon="-4.555767490594076"><ele>510.33333333333337</ele><time>2026-04-23T12:39:53.999Z</time></trkpt><trkpt lat="36.862388109329565" lon="-4.555846517505076"><ele>508.0</ele><time>2026-04-23T12:39:54.999Z</time></trkpt><trkpt lat="36.86222426082961" lon="-4.555919035614512"><ele>508.0</ele><time>2026-04-23T12:39:55.999Z</time></trkpt><trkpt lat="36.862072992000414" lon="-4.555976245412501"><ele>508.0</ele><time>2026-04-23T12:39:56.999Z</time></trkpt><trkpt lat="36.8619358172432" lon="-4.556019175392176"><ele>508.0</ele><time>2026-04-23T12:39:57.999Z</time></trkpt><trkpt lat="36.861809318911554" lon="-4.556051880470433"><ele>508.0</ele><time>2026-04-23T12:39:58.999Z</time></trkpt><trkpt lat="36.861696408950436" lon="-4.556101401643626"><ele>508.79999999999995</ele><time>2026-04-23T12:39:59.999Z</time></trkpt><trkpt lat="36.86159282743758" lon="-4.556138335264654"><ele>509.59999999999997</ele><time>2026-04-23T12:40:00.999Z</time></trkpt><trkpt lat="36.86149587100827" lon="-4.55617287511265"><ele>510.40000000000003</ele><time>2026-04-23T12:40:01.999Z</time></trkpt><trkpt lat="36.86141722418298" lon="-4.556244264913287"><ele>511.20000000000005</ele><time>2026-04-23T12:40:02.999Z</time></trkpt><trkpt lat="36.86136879858748" lon="-4.556347856460193"><ele>512.0</ele><time>2026-04-23T12:40:03.999Z</time></trkpt><trkpt lat="36.861303419164265" lon="-4.556467122333165"><ele>512.0</ele><time>2026-04-23T12:40:04.999Z</time></trkpt><trkpt lat="36.861262338648345" lon="-4.556615438387878"><ele>512.0</ele><time>2026-04-23T12:40:05.999Z</time></trkpt><trkpt lat="36.861204777619015" lon="-4.5567352620934"><ele>512.0</ele><time>2026-04-23T12:40:06.999Z</time></trkpt><trkpt lat="36.86111368174503" lon="-4.556844827155573"><ele>512.0</ele><time>2026-04-23T12:40:07.999Z</time></trkpt><trkpt lat="36.86098897229527" lon="-4.556942122124929"><ele>507.25</ele><time>2026-04-23T12:40:08.999Z</time></trkpt><trkpt lat="36.86085617614569" lon="-4.557034075325811"><ele>502.5</ele><time>2026-04-23T12:40:09.999Z</time></trkpt><trkpt lat="36.86072688434947" lon="-4.557111148955681"><ele>497.75</ele><time>2026-04-23T12:40:10.999Z</time></trkpt><trkpt lat="36.86061081755783" lon="-4.557200788201153"><ele>493.0</ele><time>2026-04-23T12:40:11.999Z</time></trkpt><trkpt lat="36.860497269061995" lon="-4.557290195096965"><ele>493.0</ele><time>2026-04-23T12:40:12.999Z</time></trkpt><trkpt lat="36.86037639072995" lon="-4.557375515714798"><ele>493.0</ele><time>2026-04-23T12:40:13.999Z</time></trkpt><trkpt lat="36.86027423251448" lon="-4.557475651258051"><ele>493.0</ele><time>2026-04-23T12:40:14.999Z</time></trkpt><trkpt lat="36.86016367405119" lon="-4.557550124316784"><ele>493.0</ele><time>2026-04-23T12:40:15.999Z</time></trkpt><trkpt lat="36.86006454888493" lon="-4.557637908486056"><ele>491.2</ele><time>2026-04-23T12:40:16.999Z</time></trkpt><trkpt lat="36.859965509104285" lon="-4.557712199590992"><ele>489.4</ele><time>2026-04-23T12:40:17.999Z</time></trkpt><trkpt lat="36.85987171106214" lon="-4.557781011121378"><ele>487.59999999999997</ele><time>2026-04-23T12:40:18.999Z</time></trkpt><trkpt lat="36.85977829989949" lon="-4.5578251189138115"><ele>485.79999999999995</ele><time>2026-04-23T12:40:19.999Z</time></trkpt><trkpt lat="36.8596675667151" lon="-4.557872008903159"><ele>484.0</ele><time>2026-04-23T12:40:20.999Z</time></trkpt><trkpt lat="36.859528904450634" lon="-4.557868884343929"><ele>484.0</ele><time>2026-04-23T12:40:21.999Z</time></trkpt><trkpt lat="36.859376020324476" lon="-4.557860738406624"><ele>484.0</ele><time>2026-04-23T12:40:22.999Z</time></trkpt><trkpt lat="36.85921690448911" lon="-4.557838073150704"><ele>484.0</ele><time>2026-04-23T12:40:23.999Z</time></trkpt><trkpt lat="36.85905083238141" lon="-4.5578354804479"><ele>483.25</ele><time>2026-04-23T12:40:24.999Z</time></trkpt><trkpt lat="36.858898521583804" lon="-4.5578144421283895"><ele>482.5</ele><time>2026-04-23T12:40:25.999Z</time></trkpt><trkpt lat="36.85875896021391" lon="-4.557796195976027"><ele>481.75</ele><time>2026-04-23T12:40:26.999Z</time></trkpt><trkpt lat="36.858620763426224" lon="-4.557778970165521"><ele>481.0</ele><time>2026-04-23T12:40:27.999Z</time></trkpt><trkpt lat="36.8584906971975" lon="-4.557766860960423"><ele>478.0</ele><time>2026-04-23T12:40:28.999Z</time></trkpt><trkpt lat="36.85836530847532" lon="-4.557786006670433"><ele>475.0</ele><time>2026-04-23T12:40:29.999Z</time></trkpt><trkpt lat="36.85823294813808" lon="-4.557821915551636"><ele>472.0</ele><time>2026-04-23T12:40:30.999Z</time></trkpt><trkpt lat="36.85810995322801" lon="-4.557884657339978"><ele>469.0</ele><time>2026-04-23T12:40:31.999Z</time></trkpt><trkpt lat="36.85799488409443" lon="-4.557957258148109"><ele>468.2</ele><time>2026-04-23T12:40:32.999Z</time></trkpt><trkpt lat="36.85789849373179" lon="-4.558031076566372"><ele>467.4</ele><time>2026-04-23T12:40:33.999Z</time></trkpt><trkpt lat="36.85781020647452" lon="-4.558098622224021"><ele>466.6</ele><time>2026-04-23T12:40:34.999Z</time></trkpt><trkpt lat="36.85773557992783" lon="-4.558155870469182"><ele>465.8</ele><time>2026-04-23T12:40:35.999Z</time></trkpt><trkpt lat="36.8576701126842" lon="-4.558197226874438"><ele>465.0</ele><time>2026-04-23T12:40:36.999Z</time></trkpt><trkpt lat="36.85760355949137" lon="-4.558290645257921"><ele>465.0</ele><time>2026-04-23T12:40:38.999Z</time></trkpt><trkpt lat="36.857583106523386" lon="-4.558372505801739"><ele>465.0</ele><time>2026-04-23T12:40:41.999Z</time></trkpt><trkpt lat="36.857574057059196" lon="-4.558474923660518"><ele>465.0</ele><time>2026-04-23T12:40:43.999Z</time></trkpt><trkpt lat="36.857589779428075" lon="-4.558555490823911"><ele>465.0</ele><time>2026-04-23T12:40:46.999Z</time></trkpt><trkpt lat="36.85753731761514" lon="-4.558602817882242"><ele>465.0</ele><time>2026-04-23T12:40:49.999Z</time></trkpt><trkpt lat="36.85750610503345" lon="-4.558683284369748"><ele>465.0</ele><time>2026-04-23T12:44:22Z</time></trkpt><trkpt lat="36.857476833605155" lon="-4.558774685864367"><ele>465.0</ele><time>2026-04-23T12:44:24Z</time></trkpt><trkpt lat="36.85743257650812" lon="-4.55893029557387"><ele>465.0</ele><time>2026-04-23T12:44:26Z</time></trkpt><trkpt lat="36.85740397125886" lon="-4.559025255700454"><ele>465.0</ele><time>2026-04-23T12:44:27Z</time></trkpt><trkpt lat="36.85739110532093" lon="-4.559131198738862"><ele>465.0</ele><time>2026-04-23T12:44:28Z</time></trkpt><trkpt lat="36.85736302314208" lon="-4.559243885659365"><ele>465.0</ele><time>2026-04-23T12:44:29Z</time></trkpt><trkpt lat="36.85733176099142" lon="-4.559369357166113"><ele>465.0</ele><time>2026-04-23T12:44:30Z</time></trkpt><trkpt lat="36.857302156374935" lon="-4.5594988699494206"><ele>466.5</ele><time>2026-04-23T12:44:31Z</time></trkpt><trkpt lat="36.85726008232384" lon="-4.559626404180542"><ele>468.0</ele><time>2026-04-23T12:44:32Z</time></trkpt><trkpt lat="36.85720684436511" lon="-4.559758367230391"><ele>469.5</ele><time>2026-04-23T12:44:33Z</time></trkpt><trkpt lat="36.85713353461321" lon="-4.559887604222237"><ele>471.0</ele><time>2026-04-23T12:44:34Z</time></trkpt><trkpt lat="36.85704176705607" lon="-4.559999552402894"><ele>471.0</ele><time>2026-04-23T12:44:35Z</time></trkpt><trkpt lat="36.85694198927554" lon="-4.560097534220756"><ele>471.0</ele><time>2026-04-23T12:44:36Z</time></trkpt><trkpt lat="36.85683190606542" lon="-4.560195382846618"><ele>471.0</ele><time>2026-04-23T12:44:37Z</time></trkpt><trkpt lat="36.85671525921389" lon="-4.560299585211112"><ele>471.0</ele><time>2026-04-23T12:44:38Z</time></trkpt><trkpt lat="36.85659619538078" lon="-4.560411199118314"><ele>472.66666666666663</ele><time>2026-04-23T12:44:39Z</time></trkpt><trkpt lat="36.856472543917825" lon="-4.560522636800105"><ele>474.3333333333333</ele><time>2026-04-23T12:44:40Z</time></trkpt><trkpt lat="36.8563499571499" lon="-4.560645389644291"><ele>476.0</ele><time>2026-04-23T12:44:41Z</time></trkpt><trkpt lat="36.856225812083814" lon="-4.560763162700434"><ele>476.0</ele><time>2026-04-23T12:44:42Z</time></trkpt><trkpt lat="36.856095599804334" lon="-4.560865708411539"><ele>476.0</ele><time>2026-04-23T12:44:43Z</time></trkpt><trkpt lat="36.85597522903749" lon="-4.5609667507918905"><ele>476.0</ele><time>2026-04-23T12:44:44Z</time></trkpt><trkpt lat="36.855867516966526" lon="-4.56105467212931"><ele>476.0</ele><time>2026-04-23T12:44:45Z</time></trkpt><trkpt lat="36.85578599825448" lon="-4.561120305015942"><ele>477.20000000000005</ele><time>2026-04-23T12:44:45.999Z</time></trkpt><trkpt lat="36.85570392043464" lon="-4.561156977615864"><ele>478.40000000000003</ele><time>2026-04-23T12:44:46.999Z</time></trkpt><trkpt lat="36.85560847843235" lon="-4.561171400935935"><ele>479.6</ele><time>2026-04-23T12:44:47.999Z</time></trkpt><trkpt lat="36.855498678653" lon="-4.561159573024006"><ele>480.8</ele><time>2026-04-23T12:44:48.999Z</time></trkpt><trkpt lat="36.855374345058635" lon="-4.561136286306267"><ele>482.0</ele><time>2026-04-23T12:44:49.999Z</time></trkpt><trkpt lat="36.85524614098994" lon="-4.561134090923537"><ele>482.0</ele><time>2026-04-23T12:44:50.999Z</time></trkpt><trkpt lat="36.85511887043284" lon="-4.561159747685641"><ele>482.0</ele><time>2026-04-23T12:44:51.999Z</time></trkpt><trkpt lat="36.85497986135574" lon="-4.56120543896653"><ele>482.0</ele><time>2026-04-23T12:44:52.999Z</time></trkpt><trkpt lat="36.85488395684873" lon="-4.561220664184134"><ele>482.0</ele><time>2026-04-23T12:44:53.999Z</time></trkpt><trkpt lat="36.854749002382285" lon="-4.561261360150284"><ele>482.75</ele><time>2026-04-23T12:44:54.999Z</time></trkpt><trkpt lat="36.85461332628748" lon="-4.561304760217647"><ele>483.5</ele><time>2026-04-23T12:44:55.999Z</time></trkpt><trkpt lat="36.8544849528722" lon="-4.561334907796317"><ele>484.25</ele><time>2026-04-23T12:44:56.999Z</time></trkpt><trkpt lat="36.85436440176103" lon="-4.561326498794266"><ele>485.0</ele><time>2026-04-23T12:44:57.999Z</time></trkpt><trkpt lat="36.85427100688612" lon="-4.561367237887225"><ele>482.75</ele><time>2026-04-23T12:44:58.999Z</time></trkpt><trkpt lat="36.854180172688025" lon="-4.561407318703225"><ele>480.5</ele><time>2026-04-23T12:44:59.999Z</time></trkpt><trkpt lat="36.85408452199913" lon="-4.5614647822048475"><ele>478.25</ele><time>2026-04-23T12:45:00.999Z</time></trkpt><trkpt lat="36.85398493186352" lon="-4.56154564885473"><ele>476.0</ele><time>2026-04-23T12:45:01.999Z</time></trkpt><trkpt lat="36.85386512793945" lon="-4.561621015018702"><ele>476.0</ele><time>2026-04-23T12:45:02.999Z</time></trkpt><trkpt lat="36.85373657399601" lon="-4.56168314351484"><ele>476.0</ele><time>2026-04-23T12:45:03.999Z</time></trkpt><trkpt lat="36.85362591536255" lon="-4.561743047392151"><ele>476.0</ele><time>2026-04-23T12:45:04.999Z</time></trkpt><trkpt lat="36.853524749518336" lon="-4.561801074575818"><ele>476.0</ele><time>2026-04-23T12:45:05.999Z</time></trkpt><trkpt lat="36.85342617810208" lon="-4.561862414072876"><ele>475.0</ele><time>2026-04-23T12:45:06.999Z</time></trkpt><trkpt lat="36.85332226242301" lon="-4.561919800663042"><ele>474.0</ele><time>2026-04-23T12:45:07.999Z</time></trkpt><trkpt lat="36.8532200903192" lon="-4.561972230793161"><ele>473.0</ele><time>2026-04-23T12:45:08.999Z</time></trkpt><trkpt lat="36.85311891354263" lon="-4.562025293835827"><ele>472.0</ele><time>2026-04-23T12:45:09.999Z</time></trkpt><trkpt lat="36.853023398645135" lon="-4.562079025030039"><ele>471.0</ele><time>2026-04-23T12:45:10.999Z</time></trkpt><trkpt lat="36.852927989171896" lon="-4.562150790614365"><ele>471.0</ele><time>2026-04-23T12:45:11.999Z</time></trkpt><trkpt lat="36.85284271544318" lon="-4.562237744647825"><ele>471.0</ele><time>2026-04-23T12:45:12.999Z</time></trkpt><trkpt lat="36.852773077405836" lon="-4.562343028269596"><ele>471.0</ele><time>2026-04-23T12:45:13.999Z</time></trkpt><trkpt lat="36.85272345834703" lon="-4.562448051270418"><ele>471.0</ele><time>2026-04-23T12:45:14.999Z</time></trkpt><trkpt lat="36.852688599201244" lon="-4.5625822516672745"><ele>471.0</ele><time>2026-04-23T12:45:15.999Z</time></trkpt><trkpt lat="36.85263120756767" lon="-4.562722832938636"><ele>470.4</ele><time>2026-04-23T12:45:16.999Z</time></trkpt><trkpt lat="36.85256420498043" lon="-4.562819855067967"><ele>469.8</ele><time>2026-04-23T12:45:18.999Z</time></trkpt><trkpt lat="36.85248890406311" lon="-4.562923621311457"><ele>469.19999999999993</ele><time>2026-04-23T12:45:20.999Z</time></trkpt><trkpt lat="36.852416915761786" lon="-4.562999635317383"><ele>468.59999999999997</ele><time>2026-04-23T12:45:23.001Z</time></trkpt><trkpt lat="36.85233664699836" lon="-4.563065516007954"><ele>468.0</ele><time>2026-04-23T12:45:25.001Z</time></trkpt><trkpt lat="36.85224947457878" lon="-4.563146711152405"><ele>469.79999999999995</ele><time>2026-04-23T12:45:27.001Z</time></trkpt><trkpt lat="36.85218625218684" lon="-4.563212188570609"><ele>471.59999999999997</ele><time>2026-04-23T12:45:29Z</time></trkpt><trkpt lat="36.85211636300554" lon="-4.563301282177375"><ele>473.40000000000003</ele><time>2026-04-23T12:45:31Z</time></trkpt><trkpt lat="36.852036144505824" lon="-4.563415434152688"><ele>475.20000000000005</ele><time>2026-04-23T12:45:33Z</time></trkpt><trkpt lat="36.85192746420531" lon="-4.563515351910783"><ele>477.0</ele><time>2026-04-23T12:45:35Z</time></trkpt><trkpt lat="36.85181513365823" lon="-4.563469205635436"><ele>477.5</ele><time>2026-04-23T12:45:36Z</time></trkpt><trkpt lat="36.85172828825925" lon="-4.563488460705345"><ele>478.0</ele><time>2026-04-23T12:45:37Z</time></trkpt><trkpt lat="36.85165392690768" lon="-4.56350322334606"><ele>478.5</ele><time>2026-04-23T12:45:38Z</time></trkpt><trkpt lat="36.8515891306228" lon="-4.563508621218652"><ele>479.0</ele><time>2026-04-23T12:45:39Z</time></trkpt><trkpt lat="36.851535733962166" lon="-4.563567546588984"><ele>479.5</ele><time>2026-04-23T12:45:40Z</time></trkpt><trkpt lat="36.85148697547847" lon="-4.563618892635097"><ele>480.0</ele><time>2026-04-23T12:45:41Z</time></trkpt><trkpt lat="36.85141294035406" lon="-4.5637216409175725"><ele>480.0</ele><time>2026-04-23T12:45:43Z</time></trkpt><trkpt lat="36.85135429433327" lon="-4.563834018023537"><ele>480.0</ele><time>2026-04-23T12:45:45Z</time></trkpt><trkpt lat="36.851272463387595" lon="-4.563906061539935"><ele>480.0</ele><time>2026-04-23T12:45:47Z</time></trkpt><trkpt lat="36.85119990690857" lon="-4.563933209486411"><ele>480.0</ele><time>2026-04-23T12:45:48Z</time></trkpt><trkpt lat="36.85109905984288" lon="-4.563930041957428"><ele>480.0</ele><time>2026-04-23T12:45:49Z</time></trkpt><trkpt lat="36.8509975403253" lon="-4.563930041958733"><ele>479.1666666666667</ele><time>2026-04-23T12:45:50Z</time></trkpt><trkpt lat="36.85090782629854" lon="-4.5639328481648445"><ele>478.33333333333337</ele><time>2026-04-23T12:45:51Z</time></trkpt><trkpt lat="36.85083439225283" lon="-4.563964519252575"><ele>477.5</ele><time>2026-04-23T12:45:52Z</time></trkpt><trkpt lat="36.85078001883602" lon="-4.564025873966417"><ele>476.6666666666667</ele><time>2026-04-23T12:45:53Z</time></trkpt><trkpt lat="36.85074895823566" lon="-4.564127847597899"><ele>475.83333333333337</ele><time>2026-04-23T12:45:54Z</time></trkpt><trkpt lat="36.85071224530884" lon="-4.564246788204063"><ele>475.0</ele><time>2026-04-23T12:45:55Z</time></trkpt><trkpt lat="36.8506706936828" lon="-4.56435995383138"><ele>475.00000000000006</ele><time>2026-04-23T12:45:56Z</time></trkpt><trkpt lat="36.850638227028384" lon="-4.5644600745626045"><ele>475.0</ele><time>2026-04-23T12:45:57Z</time></trkpt><trkpt lat="36.85063345633946" lon="-4.564541462542841"><ele>475.0</ele><time>2026-04-23T12:45:58Z</time></trkpt><trkpt lat="36.85062613925108" lon="-4.564666433016234"><ele>475.0</ele><time>2026-04-23T12:46:00Z</time></trkpt><trkpt lat="36.850660958558066" lon="-4.564742404143715"><ele>475.00000000000006</ele><time>2026-04-23T12:46:01Z</time></trkpt><trkpt lat="36.85073070711107" lon="-4.564812652907452"><ele>475.0</ele><time>2026-04-23T12:46:02Z</time></trkpt><trkpt lat="36.85082826047128" lon="-4.564874994194008"><ele>474.2</ele><time>2026-04-23T12:46:03Z</time></trkpt><trkpt lat="36.85094018145129" lon="-4.5649159863091695"><ele>473.4</ele><time>2026-04-23T12:46:04Z</time></trkpt><trkpt lat="36.851041846168684" lon="-4.564945750391971"><ele>472.6</ele><time>2026-04-23T12:46:05Z</time></trkpt><trkpt lat="36.85114003190082" lon="-4.564958577284524"><ele>471.8</ele><time>2026-04-23T12:46:06Z</time></trkpt><trkpt lat="36.85123204690135" lon="-4.564973169382077"><ele>471.0</ele><time>2026-04-23T12:46:07Z</time></trkpt><trkpt lat="36.85132742083114" lon="-4.564997691188863"><ele>471.0</ele><time>2026-04-23T12:46:08Z</time></trkpt><trkpt lat="36.851419039745835" lon="-4.565026177151403"><ele>471.0</ele><time>2026-04-23T12:46:09Z</time></trkpt><trkpt lat="36.85150548977991" lon="-4.5650389673830105"><ele>471.0</ele><time>2026-04-23T12:46:10Z</time></trkpt><trkpt lat="36.85158788748714" lon="-4.5650563381435845"><ele>471.0</ele><time>2026-04-23T12:46:11Z</time></trkpt><trkpt lat="36.851668070170554" lon="-4.565080542316683"><ele>471.0</ele><time>2026-04-23T12:46:12Z</time></trkpt><trkpt lat="36.851750906500264" lon="-4.565146470325849"><ele>471.0</ele><time>2026-04-23T12:46:14Z</time></trkpt><trkpt lat="36.85175082669296" lon="-4.5652748787202135"><ele>471.0</ele><time>2026-04-23T12:46:16Z</time></trkpt><trkpt lat="36.8516516353712" lon="-4.5653500758506285"><ele>471.0</ele><time>2026-04-23T12:46:18Z</time></trkpt><trkpt lat="36.8515869422371" lon="-4.565382166150928"><ele>471.0</ele><time>2026-04-23T12:46:19Z</time></trkpt><trkpt lat="36.85152900406518" lon="-4.565439635504374"><ele>471.0</ele><time>2026-04-23T12:46:20Z</time></trkpt><trkpt lat="36.851483573481396" lon="-4.565538684703542"><ele>471.0</ele><time>2026-04-23T12:46:21Z</time></trkpt><trkpt lat="36.851477705869364" lon="-4.565655943601638"><ele>471.0</ele><time>2026-04-23T12:46:22Z</time></trkpt><trkpt lat="36.85148926165718" lon="-4.565744818548297"><ele>471.8</ele><time>2026-04-23T12:46:23Z</time></trkpt><trkpt lat="36.85146441214116" lon="-4.565856620050512"><ele>472.6</ele><time>2026-04-23T12:46:24.999Z</time></trkpt><trkpt lat="36.851321452117574" lon="-4.565818695173173"><ele>473.4</ele><time>2026-04-23T12:46:25.999Z</time></trkpt><trkpt lat="36.85123800895723" lon="-4.565836893211285"><ele>474.2</ele><time>2026-04-23T12:46:26.999Z</time></trkpt><trkpt lat="36.8511584156756" lon="-4.565857522845462"><ele>475.0</ele><time>2026-04-23T12:46:27.999Z</time></trkpt><trkpt lat="36.85108582185517" lon="-4.565906344149798"><ele>475.0</ele><time>2026-04-23T12:46:28.999Z</time></trkpt><trkpt lat="36.851071452835875" lon="-4.566080903860381"><ele>475.0</ele><time>2026-04-23T12:46:30.999Z</time></trkpt><trkpt lat="36.85110847310392" lon="-4.566196665351415"><ele>475.0</ele><time>2026-04-23T12:46:31.999Z</time></trkpt><trkpt lat="36.85117760022611" lon="-4.566314646286752"><ele>475.0</ele><time>2026-04-23T12:46:32.999Z</time></trkpt><trkpt lat="36.85125495920786" lon="-4.56642139201978"><ele>478.2</ele><time>2026-04-23T12:46:33.999Z</time></trkpt><trkpt lat="36.851300616778026" lon="-4.566515409911141"><ele>481.4</ele><time>2026-04-23T12:46:34.999Z</time></trkpt><trkpt lat="36.85131220215224" lon="-4.566608481273013"><ele>484.6</ele><time>2026-04-23T12:46:35.999Z</time></trkpt><trkpt lat="36.85128984003499" lon="-4.56669444129844"><ele>487.8</ele><time>2026-04-23T12:46:36.999Z</time></trkpt><trkpt lat="36.851178378582375" lon="-4.566788329224169"><ele>491.0</ele><time>2026-04-23T12:46:38.999Z</time></trkpt><trkpt lat="36.85107987712617" lon="-4.566714548326625"><ele>491.0</ele><time>2026-04-23T12:46:39.999Z</time></trkpt><trkpt lat="36.85097324005621" lon="-4.566695717306345"><ele>491.0</ele><time>2026-04-23T12:46:40.999Z</time></trkpt><trkpt lat="36.85084207385471" lon="-4.566656228983508"><ele>491.0</ele><time>2026-04-23T12:46:41.999Z</time></trkpt><trkpt lat="36.8507024186763" lon="-4.56661602885819"><ele>491.0</ele><time>2026-04-23T12:46:42.999Z</time></trkpt><trkpt lat="36.85059591171266" lon="-4.566595871269058"><ele>488.0</ele><time>2026-04-23T12:46:43.999Z</time></trkpt><trkpt lat="36.85052029005067" lon="-4.566584915906488"><ele>485.0</ele><time>2026-04-23T12:46:44.999Z</time></trkpt><trkpt lat="36.85041540696811" lon="-4.566633035883904"><ele>482.0</ele><time>2026-04-23T12:46:46.999Z</time></trkpt><trkpt lat="36.85036948555253" lon="-4.566703877899018"><ele>479.0</ele><time>2026-04-23T12:46:47.999Z</time></trkpt><trkpt lat="36.850363799834504" lon="-4.566843589125851"><ele>476.0</ele><time>2026-04-23T12:46:48.999Z</time></trkpt><trkpt lat="36.850355456057606" lon="-4.566988590769412"><ele>476.20000000000005</ele><time>2026-04-23T12:46:49.999Z</time></trkpt><trkpt lat="36.85033204142561" lon="-4.5670899975234995"><ele>476.40000000000003</ele><time>2026-04-23T12:46:50.999Z</time></trkpt><trkpt lat="36.85024665152899" lon="-4.567210500627533"><ele>476.6</ele><time>2026-04-23T12:46:52.999Z</time></trkpt><trkpt lat="36.85014129479778" lon="-4.567192826192403"><ele>476.8</ele><time>2026-04-23T12:46:53.999Z</time></trkpt><trkpt lat="36.850038256032676" lon="-4.567210259322493"><ele>477.0</ele><time>2026-04-23T12:46:54.999Z</time></trkpt><trkpt lat="36.849934836074205" lon="-4.567264795645248"><ele>477.0</ele><time>2026-04-23T12:46:55.999Z</time></trkpt><trkpt lat="36.84985183159289" lon="-4.567365860654747"><ele>477.00000000000006</ele><time>2026-04-23T12:46:56.999Z</time></trkpt><trkpt lat="36.84978800932314" lon="-4.567487824832792"><ele>477.00000000000006</ele><time>2026-04-23T12:46:57.999Z</time></trkpt><trkpt lat="36.84972175934481" lon="-4.567570407058632"><ele>477.0</ele><time>2026-04-23T12:46:58.999Z</time></trkpt><trkpt lat="36.84967855639346" lon="-4.567653952479002"><ele>477.0</ele><time>2026-04-23T12:46:59.999Z</time></trkpt><trkpt lat="36.849551339353425" lon="-4.56768616280869"><ele>477.0</ele><time>2026-04-23T12:47:00.999Z</time></trkpt><trkpt lat="36.84942290451185" lon="-4.56768967426829"><ele>477.00000000000006</ele><time>2026-04-23T12:47:01.999Z</time></trkpt><trkpt lat="36.84934159774593" lon="-4.567732041732334"><ele>477.00000000000006</ele><time>2026-04-23T12:47:02.999Z</time></trkpt><trkpt lat="36.84928331801609" lon="-4.567790630564916"><ele>477.0</ele><time>2026-04-23T12:47:03.999Z</time></trkpt><trkpt lat="36.84922777395234" lon="-4.567860029674153"><ele>477.0</ele><time>2026-04-23T12:47:04.999Z</time></trkpt><trkpt lat="36.84921815988894" lon="-4.567992141474261"><ele>478.6</ele><time>2026-04-23T12:47:05.999Z</time></trkpt><trkpt lat="36.849238829434185" lon="-4.568139548899433"><ele>480.20000000000005</ele><time>2026-04-23T12:47:06.999Z</time></trkpt><trkpt lat="36.84927770464361" lon="-4.56828910315873"><ele>481.8</ele><time>2026-04-23T12:47:07.999Z</time></trkpt><trkpt lat="36.84933110068591" lon="-4.568396693926514"><ele>483.4</ele><time>2026-04-23T12:47:08.999Z</time></trkpt><trkpt lat="36.849399295729384" lon="-4.568478746146256"><ele>485.0</ele><time>2026-04-23T12:47:09.999Z</time></trkpt><trkpt lat="36.84949541937242" lon="-4.56850899853547"><ele>485.0</ele><time>2026-04-23T12:47:10.999Z</time></trkpt><trkpt lat="36.849560916254" lon="-4.568560990431629"><ele>485.0</ele><time>2026-04-23T12:47:11.999Z</time></trkpt><trkpt lat="36.84960660480412" lon="-4.568682441473227"><ele>485.0</ele><time>2026-04-23T12:47:13.999Z</time></trkpt><trkpt lat="36.84955810013296" lon="-4.568761426390194"><ele>485.0</ele><time>2026-04-23T12:47:14.999Z</time></trkpt><trkpt lat="36.84946774845358" lon="-4.568827364613869"><ele>485.0</ele><time>2026-04-23T12:47:15.999Z</time></trkpt><trkpt lat="36.84936370648898" lon="-4.568901981740533"><ele>483.0</ele><time>2026-04-23T12:47:16.999Z</time></trkpt><trkpt lat="36.84923090310273" lon="-4.56897703876329"><ele>481.0</ele><time>2026-04-23T12:47:17.999Z</time></trkpt><trkpt lat="36.84908931307131" lon="-4.569018095089287"><ele>479.0</ele><time>2026-04-23T12:47:18.999Z</time></trkpt><trkpt lat="36.84898204035744" lon="-4.569092183590082"><ele>477.0</ele><time>2026-04-23T12:47:19.999Z</time></trkpt><trkpt lat="36.84888481819396" lon="-4.569145480402798"><ele>477.0</ele><time>2026-04-23T12:47:20.999Z</time></trkpt><trkpt lat="36.848796752547294" lon="-4.569227180645514"><ele>477.0</ele><time>2026-04-23T12:47:21.999Z</time></trkpt><trkpt lat="36.84871898982315" lon="-4.569334976107721"><ele>477.0</ele><time>2026-04-23T12:47:22.999Z</time></trkpt><trkpt lat="36.84866654348215" lon="-4.5694658447553556"><ele>477.0</ele><time>2026-04-23T12:47:23.999Z</time></trkpt><trkpt lat="36.848633104183335" lon="-4.569607816660637"><ele>477.3333333333333</ele><time>2026-04-23T12:47:24.999Z</time></trkpt><trkpt lat="36.848591192396775" lon="-4.569723944440086"><ele>477.66666666666663</ele><time>2026-04-23T12:47:25.999Z</time></trkpt><trkpt lat="36.848569191134395" lon="-4.569819983205304"><ele>478.0</ele><time>2026-04-23T12:47:26.999Z</time></trkpt><trkpt lat="36.84852975569632" lon="-4.569896777051817"><ele>478.3333333333333</ele><time>2026-04-23T12:47:27.999Z</time></trkpt><trkpt lat="36.84845560825553" lon="-4.569948239619915"><ele>478.66666666666663</ele><time>2026-04-23T12:47:28.998Z</time></trkpt><trkpt lat="36.84836071057472" lon="-4.569966958803909"><ele>479.0</ele><time>2026-04-23T12:47:29.998Z</time></trkpt><trkpt lat="36.848251412110216" lon="-4.569949163012722"><ele>479.0</ele><time>2026-04-23T12:47:30.998Z</time></trkpt><trkpt lat="36.84814178343313" lon="-4.569960826676177"><ele>479.0</ele><time>2026-04-23T12:47:31.998Z</time></trkpt><trkpt lat="36.84805186161315" lon="-4.569995192924778"><ele>479.0</ele><time>2026-04-23T12:47:32.998Z</time></trkpt><trkpt lat="36.84795632434927" lon="-4.570066314207451"><ele>479.0</ele><time>2026-04-23T12:47:33.998Z</time></trkpt><trkpt lat="36.84784836937385" lon="-4.570123646299585"><ele>479.0</ele><time>2026-04-23T12:47:34.998Z</time></trkpt><trkpt lat="36.84772332383361" lon="-4.570160192652312"><ele>479.25</ele><time>2026-04-23T12:47:35.998Z</time></trkpt><trkpt lat="36.84758766042152" lon="-4.570136273294984"><ele>479.5</ele><time>2026-04-23T12:47:36.998Z</time></trkpt><trkpt lat="36.84744920745192" lon="-4.570137964386989"><ele>479.75</ele><time>2026-04-23T12:47:37.998Z</time></trkpt><trkpt lat="36.84732324341977" lon="-4.570150255507031"><ele>480.0</ele><time>2026-04-23T12:47:38.999Z</time></trkpt><trkpt lat="36.84722305134238" lon="-4.570209128729368"><ele>480.0</ele><time>2026-04-23T12:47:39.999Z</time></trkpt><trkpt lat="36.84711446288249" lon="-4.570189275521688"><ele>480.0</ele><time>2026-04-23T12:47:40.999Z</time></trkpt><trkpt lat="36.84702524430502" lon="-4.570212761422806"><ele>480.0</ele><time>2026-04-23T12:47:41.999Z</time></trkpt><trkpt lat="36.84694897220114" lon="-4.570207334752597"><ele>480.0</ele><time>2026-04-23T12:47:42.999Z</time></trkpt><trkpt lat="36.84692222318156" lon="-4.570319518301546"><ele>480.0</ele><time>2026-04-23T12:47:43.999Z</time></trkpt><trkpt lat="36.84689919612233" lon="-4.570442947609775"><ele>479.75</ele><time>2026-04-23T12:47:44.999Z</time></trkpt><trkpt lat="36.84684724321282" lon="-4.570586385557589"><ele>479.5</ele><time>2026-04-23T12:47:45.999Z</time></trkpt><trkpt lat="36.84676054447704" lon="-4.570690055269309"><ele>479.25</ele><time>2026-04-23T12:47:46.999Z</time></trkpt><trkpt lat="36.846684284468786" lon="-4.5707875214306695"><ele>479.0</ele><time>2026-04-23T12:47:47.999Z</time></trkpt><trkpt lat="36.84657964300004" lon="-4.570821899641866"><ele>482.0</ele><time>2026-04-23T12:47:48.999Z</time></trkpt><trkpt lat="36.84646240444453" lon="-4.57079443634073"><ele>485.0</ele><time>2026-04-23T12:47:49.999Z</time></trkpt><trkpt lat="36.846341131273824" lon="-4.570809760021268"><ele>488.0</ele><time>2026-04-23T12:47:50.999Z</time></trkpt><trkpt lat="36.846223490337415" lon="-4.570842838669222"><ele>491.0</ele><time>2026-04-23T12:47:51.999Z</time></trkpt><trkpt lat="36.84609824625437" lon="-4.570905912959375"><ele>491.0</ele><time>2026-04-23T12:47:52.999Z</time></trkpt><trkpt lat="36.84596660628277" lon="-4.57096809738035"><ele>491.0</ele><time>2026-04-23T12:47:53.999Z</time></trkpt><trkpt lat="36.84584953032833" lon="-4.571084648680229"><ele>491.0</ele><time>2026-04-23T12:47:54.999Z</time></trkpt><trkpt lat="36.845722132771115" lon="-4.571197307435802"><ele>491.0</ele><time>2026-04-23T12:47:55.999Z</time></trkpt><trkpt lat="36.845599755894284" lon="-4.571265699263824"><ele>492.0</ele><time>2026-04-23T12:47:56.999Z</time></trkpt><trkpt lat="36.84550204867056" lon="-4.571335155940136"><ele>493.0</ele><time>2026-04-23T12:47:57.999Z</time></trkpt><trkpt lat="36.84539479496922" lon="-4.571366935843578"><ele>494.0</ele><time>2026-04-23T12:47:58.999Z</time></trkpt><trkpt lat="36.845271998500664" lon="-4.571364724721796"><ele>495.0</ele><time>2026-04-23T12:47:59.999Z</time></trkpt><trkpt lat="36.845125825815586" lon="-4.57133818839742"><ele>499.25</ele><time>2026-04-23T12:48:00.999Z</time></trkpt><trkpt lat="36.84497826837739" lon="-4.5713684231994565"><ele>503.5</ele><time>2026-04-23T12:48:01.999Z</time></trkpt><trkpt lat="36.84487283321778" lon="-4.571426738589494"><ele>507.75</ele><time>2026-04-23T12:48:02.999Z</time></trkpt><trkpt lat="36.844780211409144" lon="-4.571506831118442"><ele>512.0</ele><time>2026-04-23T12:48:03.999Z</time></trkpt><trkpt lat="36.84471830458285" lon="-4.5715976146701145"><ele>512.0</ele><time>2026-04-23T12:48:04.999Z</time></trkpt><trkpt lat="36.84467400963851" lon="-4.5717144867333825"><ele>512.0</ele><time>2026-04-23T12:48:05.999Z</time></trkpt><trkpt lat="36.84460554469301" lon="-4.57179099197347"><ele>512.0</ele><time>2026-04-23T12:48:06.999Z</time></trkpt><trkpt lat="36.84449717824376" lon="-4.5718691326759355"><ele>512.0</ele><time>2026-04-23T12:48:08.999Z</time></trkpt><trkpt lat="36.84440402707913" lon="-4.571774303632091"><ele>512.0</ele><time>2026-04-23T12:48:09.999Z</time></trkpt><trkpt lat="36.84433701087326" lon="-4.571675757850536"><ele>514.8000000000001</ele><time>2026-04-23T12:48:10.999Z</time></trkpt><trkpt lat="36.84424833443269" lon="-4.571603967789611"><ele>517.6</ele><time>2026-04-23T12:48:11.999Z</time></trkpt><trkpt lat="36.84416672246312" lon="-4.571561566627119"><ele>520.4000000000001</ele><time>2026-04-23T12:48:12.999Z</time></trkpt><trkpt lat="36.84408221131154" lon="-4.571562617975087"><ele>523.2</ele><time>2026-04-23T12:48:13.999Z</time></trkpt><trkpt lat="36.843976278595306" lon="-4.571593206157902"><ele>526.0</ele><time>2026-04-23T12:48:14.999Z</time></trkpt><trkpt lat="36.84384503731077" lon="-4.571624363676607"><ele>526.0</ele><time>2026-04-23T12:48:15.999Z</time></trkpt><trkpt lat="36.84370432646277" lon="-4.5716503405969195"><ele>526.0</ele><time>2026-04-23T12:48:16.999Z</time></trkpt><trkpt lat="36.84356517279872" lon="-4.571657165111518"><ele>526.0</ele><time>2026-04-23T12:48:17.999Z</time></trkpt><trkpt lat="36.84343220086791" lon="-4.571617333712075"><ele>526.0</ele><time>2026-04-23T12:48:18.999Z</time></trkpt><trkpt lat="36.84332854748351" lon="-4.57161016863532"><ele>528.4</ele><time>2026-04-23T12:48:19.999Z</time></trkpt><trkpt lat="36.84324967238052" lon="-4.571607412548214"><ele>530.8</ele><time>2026-04-23T12:48:20.999Z</time></trkpt><trkpt lat="36.84318130184871" lon="-4.571634381420271"><ele>533.1999999999999</ele><time>2026-04-23T12:48:21.999Z</time></trkpt><trkpt lat="36.84312052141212" lon="-4.571719236973254"><ele>535.6</ele><time>2026-04-23T12:48:22.999Z</time></trkpt><trkpt lat="36.84302515292576" lon="-4.571804856227504"><ele>538.0</ele><time>2026-04-23T12:48:23.999Z</time></trkpt><trkpt lat="36.842928004959894" lon="-4.571866296331287"><ele>538.0</ele><time>2026-04-23T12:48:24.999Z</time></trkpt><trkpt lat="36.84281764842335" lon="-4.5718510007485955"><ele>538.0</ele><time>2026-04-23T12:48:25.999Z</time></trkpt><trkpt lat="36.842727138058144" lon="-4.571860063331999"><ele>538.0</ele><time>2026-04-23T12:48:26.999Z</time></trkpt><trkpt lat="36.84266386490514" lon="-4.57188151334464"><ele>538.0</ele><time>2026-04-23T12:48:27.999Z</time></trkpt><trkpt lat="36.84262324212579" lon="-4.571945648813917"><ele>538.0</ele><time>2026-04-23T12:48:28.999Z</time></trkpt><trkpt lat="36.842624043852446" lon="-4.572044932165447"><ele>538.0</ele><time>2026-04-23T12:48:29.999Z</time></trkpt><trkpt lat="36.84262390440393" lon="-4.572160180263399"><ele>543.5</ele><time>2026-04-23T12:48:30.999Z</time></trkpt><trkpt lat="36.842628958816725" lon="-4.572297592544093"><ele>549.0</ele><time>2026-04-23T12:48:31.999Z</time></trkpt><trkpt lat="36.84260157910099" lon="-4.572421411866134"><ele>554.5</ele><time>2026-04-23T12:48:32.999Z</time></trkpt><trkpt lat="36.84251269796786" lon="-4.572526676934027"><ele>560.0</ele><time>2026-04-23T12:48:33.999Z</time></trkpt><trkpt lat="36.84239266429459" lon="-4.572573171442708"><ele>560.0</ele><time>2026-04-23T12:48:34.999Z</time></trkpt><trkpt lat="36.8422790215578" lon="-4.572663468855317"><ele>560.0</ele><time>2026-04-23T12:48:35.999Z</time></trkpt><trkpt lat="36.842144022724376" lon="-4.572750347134707"><ele>560.0</ele><time>2026-04-23T12:48:36.999Z</time></trkpt><trkpt lat="36.842019405006795" lon="-4.572842654103537"><ele>560.0</ele><time>2026-04-23T12:48:37.999Z</time></trkpt><trkpt lat="36.84192201493524" lon="-4.572912868670406"><ele>559.75</ele><time>2026-04-23T12:48:38.999Z</time></trkpt><trkpt lat="36.841803713927405" lon="-4.572927756291219"><ele>559.5</ele><time>2026-04-23T12:48:39.999Z</time></trkpt><trkpt lat="36.84168072152021" lon="-4.572917623383683"><ele>559.25</ele><time>2026-04-23T12:48:40.999Z</time></trkpt><trkpt lat="36.841568336540156" lon="-4.572857035471814"><ele>559.0</ele><time>2026-04-23T12:48:41.999Z</time></trkpt><trkpt lat="36.84145479231127" lon="-4.5727619115099785"><ele>559.0</ele><time>2026-04-23T12:48:42.999Z</time></trkpt><trkpt lat="36.841325255276885" lon="-4.572731712687282"><ele>559.0</ele><time>2026-04-23T12:48:43.999Z</time></trkpt><trkpt lat="36.84120531719989" lon="-4.572729787061132"><ele>559.0</ele><time>2026-04-23T12:48:44.999Z</time></trkpt><trkpt lat="36.84108106872977" lon="-4.572744313612184"><ele>559.0</ele><time>2026-04-23T12:48:45.999Z</time></trkpt><trkpt lat="36.84096335432936" lon="-4.5727770974650825"><ele>564.0</ele><time>2026-04-23T12:48:46.999Z</time></trkpt><trkpt lat="36.84087611001146" lon="-4.572819315357722"><ele>569.0</ele><time>2026-04-23T12:48:47.999Z</time></trkpt><trkpt lat="36.84080331698735" lon="-4.572874106287302"><ele>574.0</ele><time>2026-04-23T12:48:48.999Z</time></trkpt><trkpt lat="36.84073614327089" lon="-4.572968198024053"><ele>579.0</ele><time>2026-04-23T12:48:49.999Z</time></trkpt><trkpt lat="36.8406657088565" lon="-4.5730840715682834"><ele>584.0</ele><time>2026-04-23T12:48:50.999Z</time></trkpt><trkpt lat="36.8405907735248" lon="-4.573211332848405"><ele>585.0</ele><time>2026-04-23T12:48:51.999Z</time></trkpt><trkpt lat="36.840539716417574" lon="-4.573327112429473"><ele>586.0</ele><time>2026-04-23T12:48:52.999Z</time></trkpt><trkpt lat="36.8404813160869" lon="-4.573411543739341"><ele>587.0</ele><time>2026-04-23T12:48:53.999Z</time></trkpt><trkpt lat="36.84041530937343" lon="-4.573486882215485"><ele>588.0</ele><time>2026-04-23T12:48:54.999Z</time></trkpt><trkpt lat="36.84034021967519" lon="-4.57352695904684"><ele>589.0</ele><time>2026-04-23T12:48:55.999Z</time></trkpt><trkpt lat="36.840260697677294" lon="-4.5735260606819805"><ele>590.0</ele><time>2026-04-23T12:48:56.999Z</time></trkpt><trkpt lat="36.84017162348142" lon="-4.573433551327687"><ele>589.75</ele><time>2026-04-23T12:48:57.999Z</time></trkpt><trkpt lat="36.84006028415068" lon="-4.573368963715971"><ele>589.5</ele><time>2026-04-23T12:48:58.999Z</time></trkpt><trkpt lat="36.83991957965194" lon="-4.573376538931063"><ele>589.25</ele><time>2026-04-23T12:48:59.999Z</time></trkpt><trkpt lat="36.839767827627824" lon="-4.5734175043875664"><ele>589.0</ele><time>2026-04-23T12:49:00.999Z</time></trkpt><trkpt lat="36.83964158923442" lon="-4.573438705651677"><ele>589.0</ele><time>2026-04-23T12:49:01.999Z</time></trkpt><trkpt lat="36.83956641974864" lon="-4.573457946413803"><ele>589.0</ele><time>2026-04-23T12:49:02.999Z</time></trkpt><trkpt lat="36.839466872364106" lon="-4.573576364338537"><ele>589.0</ele><time>2026-04-23T12:49:04.999Z</time></trkpt><trkpt lat="36.83946642712882" lon="-4.573706740376087"><ele>589.0</ele><time>2026-04-23T12:49:05.999Z</time></trkpt><trkpt lat="36.839522890335246" lon="-4.573865047452529"><ele>586.5</ele><time>2026-04-23T12:49:06.999Z</time></trkpt><trkpt lat="36.83952476291196" lon="-4.574053733729239"><ele>584.0</ele><time>2026-04-23T12:49:07.999Z</time></trkpt><trkpt lat="36.839514443051016" lon="-4.5742437801059985"><ele>581.5</ele><time>2026-04-23T12:49:08.999Z</time></trkpt><trkpt lat="36.83948569413981" lon="-4.5744042572985935"><ele>579.0</ele><time>2026-04-23T12:49:09.999Z</time></trkpt><trkpt lat="36.83948282534039" lon="-4.574509730551712"><ele>578.4</ele><time>2026-04-23T12:49:10.999Z</time></trkpt><trkpt lat="36.839406529702494" lon="-4.574622211736181"><ele>577.8</ele><time>2026-04-23T12:49:12.999Z</time></trkpt><trkpt lat="36.839327455742726" lon="-4.574641062975339"><ele>577.2</ele><time>2026-04-23T12:49:13.999Z</time></trkpt><trkpt lat="36.83922045505087" lon="-4.574574473781022"><ele>576.6</ele><time>2026-04-23T12:49:14.999Z</time></trkpt><trkpt lat="36.83910263756501" lon="-4.574577038923016"><ele>576.0</ele><time>2026-04-23T12:49:15.999Z</time></trkpt><trkpt lat="36.839013102999445" lon="-4.57465870884922"><ele>578.4</ele><time>2026-04-23T12:49:16.999Z</time></trkpt><trkpt lat="36.83895376210977" lon="-4.574770973214048"><ele>580.8</ele><time>2026-04-23T12:49:17.998Z</time></trkpt><trkpt lat="36.838896959066524" lon="-4.5748984299669875"><ele>583.1999999999999</ele><time>2026-04-23T12:49:18.998Z</time></trkpt><trkpt lat="36.8388528065006" lon="-4.5750065252608305"><ele>585.6</ele><time>2026-04-23T12:49:19.998Z</time></trkpt><trkpt lat="36.83881049439812" lon="-4.575071784196489"><ele>588.0</ele><time>2026-04-23T12:49:20.998Z</time></trkpt><trkpt lat="36.838759100210744" lon="-4.575117458464809"><ele>588.0</ele><time>2026-04-23T12:49:21.998Z</time></trkpt><trkpt lat="36.83866304631023" lon="-4.575141258404102"><ele>588.0</ele><time>2026-04-23T12:49:22.998Z</time></trkpt><trkpt lat="36.83856678419436" lon="-4.575126241196251"><ele>588.0</ele><time>2026-04-23T12:49:23.998Z</time></trkpt><trkpt lat="36.838462735635595" lon="-4.5750610878358"><ele>588.0</ele><time>2026-04-23T12:49:24.998Z</time></trkpt><trkpt lat="36.838348217032326" lon="-4.575000243873096"><ele>588.0</ele><time>2026-04-23T12:49:25.998Z</time></trkpt><trkpt lat="36.83823557761146" lon="-4.57499813889491"><ele>590.5</ele><time>2026-04-23T12:49:26.998Z</time></trkpt><trkpt lat="36.83811691097113" lon="-4.575054324248017"><ele>593.0</ele><time>2026-04-23T12:49:27.998Z</time></trkpt><trkpt lat="36.83799256994706" lon="-4.575070649253073"><ele>595.5</ele><time>2026-04-23T12:49:28.998Z</time></trkpt><trkpt lat="36.83787937282786" lon="-4.575092580812859"><ele>598.0</ele><time>2026-04-23T12:49:29.998Z</time></trkpt><trkpt lat="36.83775679546568" lon="-4.57513262479497"><ele>596.75</ele><time>2026-04-23T12:49:30.998Z</time></trkpt><trkpt lat="36.837627661245406" lon="-4.575184189576289"><ele>595.5</ele><time>2026-04-23T12:49:31.998Z</time></trkpt><trkpt lat="36.83750277181033" lon="-4.575243111064441"><ele>594.25</ele><time>2026-04-23T12:49:32.998Z</time></trkpt><trkpt lat="36.83736983868483" lon="-4.5753126561490305"><ele>593.0</ele><time>2026-04-23T12:49:33.998Z</time></trkpt><trkpt lat="36.83723719313205" lon="-4.575392960555189"><ele>593.0</ele><time>2026-04-23T12:49:34.999Z</time></trkpt><trkpt lat="36.837130921121286" lon="-4.575478676875246"><ele>593.0</ele><time>2026-04-23T12:49:35.999Z</time></trkpt><trkpt lat="36.8370503984265" lon="-4.575570771827049"><ele>593.0</ele><time>2026-04-23T12:49:36.999Z</time></trkpt><trkpt lat="36.83697585114919" lon="-4.575664230316827"><ele>593.0</ele><time>2026-04-23T12:49:37.999Z</time></trkpt><trkpt lat="36.83694500348567" lon="-4.575799512197113"><ele>593.0</ele><time>2026-04-23T12:49:38.999Z</time></trkpt><trkpt lat="36.836995330184266" lon="-4.575943677749117"><ele>593.0</ele><time>2026-04-23T12:49:39.999Z</time></trkpt><trkpt lat="36.837031367208986" lon="-4.576110045941302"><ele>593.0</ele><time>2026-04-23T12:49:40.999Z</time></trkpt><trkpt lat="36.837068724675326" lon="-4.576288089758296"><ele>593.0</ele><time>2026-04-23T12:49:41.999Z</time></trkpt><trkpt lat="36.837129938542915" lon="-4.576420431350722"><ele>593.0</ele><time>2026-04-23T12:49:42.999Z</time></trkpt><trkpt lat="36.83716202606361" lon="-4.576510564920725"><ele>593.0</ele><time>2026-04-23T12:49:43.999Z</time></trkpt><trkpt lat="36.83716297548733" lon="-4.576595006722289"><ele>593.0</ele><time>2026-04-23T12:49:44.999Z</time></trkpt><trkpt lat="36.83708791989818" lon="-4.576720756674431"><ele>593.0</ele><time>2026-04-23T12:49:46.999Z</time></trkpt><trkpt lat="36.83699680006495" lon="-4.576737851526273"><ele>593.0</ele><time>2026-04-23T12:49:47.999Z</time></trkpt><trkpt lat="36.83689872940019" lon="-4.5766713108012835"><ele>596.5</ele><time>2026-04-23T12:49:48.999Z</time></trkpt><trkpt lat="36.83677993136772" lon="-4.576627380496443"><ele>600.0</ele><time>2026-04-23T12:49:49.999Z</time></trkpt><trkpt lat="36.83664470159356" lon="-4.576607502283775"><ele>603.5</ele><time>2026-04-23T12:49:51Z</time></trkpt><trkpt lat="36.83653048364634" lon="-4.576642486304517"><ele>607.0</ele><time>2026-04-23T12:49:52Z</time></trkpt><trkpt lat="36.83644017972764" lon="-4.576706596807102"><ele>607.0</ele><time>2026-04-23T12:49:53Z</time></trkpt><trkpt lat="36.836389394866025" lon="-4.576834161891558"><ele>607.0</ele><time>2026-04-23T12:49:54Z</time></trkpt><trkpt lat="36.83632683288723" lon="-4.576978714702576"><ele>607.0</ele><time>2026-04-23T12:49:55Z</time></trkpt><trkpt lat="36.83627432606282" lon="-4.577090630178306"><ele>607.0</ele><time>2026-04-23T12:49:56Z</time></trkpt><trkpt lat="36.83620647653449" lon="-4.577150952742205"><ele>607.0</ele><time>2026-04-23T12:49:57Z</time></trkpt><trkpt lat="36.83610224533825" lon="-4.577186102653761"><ele>606.75</ele><time>2026-04-23T12:49:58Z</time></trkpt><trkpt lat="36.83595266716483" lon="-4.577220982096102"><ele>606.5</ele><time>2026-04-23T12:49:59Z</time></trkpt><trkpt lat="36.83580426447466" lon="-4.577272094773192"><ele>606.25</ele><time>2026-04-23T12:50:00Z</time></trkpt><trkpt lat="36.83568953960775" lon="-4.577338956520687"><ele>606.0</ele><time>2026-04-23T12:50:01Z</time></trkpt><trkpt lat="36.835622632152926" lon="-4.577474856514141"><ele>606.0</ele><time>2026-04-23T12:50:02Z</time></trkpt><trkpt lat="36.83554623566808" lon="-4.577624581716177"><ele>606.0</ele><time>2026-04-23T12:50:03Z</time></trkpt><trkpt lat="36.83548350767958" lon="-4.5777692278145174"><ele>606.0</ele><time>2026-04-23T12:50:04Z</time></trkpt><trkpt lat="36.835375543772585" lon="-4.577871890309739"><ele>606.0</ele><time>2026-04-23T12:50:05Z</time></trkpt><trkpt lat="36.835241021487754" lon="-4.577976570865978"><ele>607.6666666666666</ele><time>2026-04-23T12:50:06Z</time></trkpt><trkpt lat="36.83511354510756" lon="-4.578090116614139"><ele>609.3333333333333</ele><time>2026-04-23T12:50:07Z</time></trkpt><trkpt lat="36.83500089066182" lon="-4.578235309609892"><ele>611.0</ele><time>2026-04-23T12:50:08Z</time></trkpt><trkpt lat="36.83489082007826" lon="-4.578366849232751"><ele>611.0</ele><time>2026-04-23T12:50:09Z</time></trkpt><trkpt lat="36.834796514572524" lon="-4.578486151695094"><ele>611.0</ele><time>2026-04-23T12:50:10Z</time></trkpt><trkpt lat="36.83473123752449" lon="-4.578584418399567"><ele>611.0</ele><time>2026-04-23T12:50:11Z</time></trkpt><trkpt lat="36.834682163875996" lon="-4.578664392478155"><ele>611.0</ele><time>2026-04-23T12:50:12Z</time></trkpt><trkpt lat="36.83469597777661" lon="-4.5787668546862745"><ele>611.0</ele><time>2026-04-23T12:50:13Z</time></trkpt><trkpt lat="36.83477535921608" lon="-4.578863924168558"><ele>613.0</ele><time>2026-04-23T12:50:14Z</time></trkpt><trkpt lat="36.834795230364286" lon="-4.578986277964933"><ele>615.0</ele><time>2026-04-23T12:50:15Z</time></trkpt><trkpt lat="36.83481159891508" lon="-4.5791459802003915"><ele>617.0</ele><time>2026-04-23T12:50:15.999Z</time></trkpt><trkpt lat="36.834800563971214" lon="-4.579291050577843"><ele>619.0</ele><time>2026-04-23T12:50:16.999Z</time></trkpt><trkpt lat="36.834772183974906" lon="-4.5793925673425475"><ele>621.0</ele><time>2026-04-23T12:50:17.999Z</time></trkpt><trkpt lat="36.83471032189585" lon="-4.5794801876129965"><ele>625.75</ele><time>2026-04-23T12:50:18.999Z</time></trkpt><trkpt lat="36.83461131232961" lon="-4.579546745453086"><ele>630.5</ele><time>2026-04-23T12:50:19.999Z</time></trkpt><trkpt lat="36.834519876085345" lon="-4.579659983377903"><ele>635.25</ele><time>2026-04-23T12:50:20.999Z</time></trkpt><trkpt lat="36.83442906852173" lon="-4.579777010148266"><ele>640.0</ele><time>2026-04-23T12:50:21.999Z</time></trkpt><trkpt lat="36.83435334057488" lon="-4.57990681224343"><ele>642.0</ele><time>2026-04-23T12:50:22.999Z</time></trkpt><trkpt lat="36.834283744714824" lon="-4.58006081723697"><ele>644.0</ele><time>2026-04-23T12:50:23.999Z</time></trkpt><trkpt lat="36.83419173391866" lon="-4.580207726438944"><ele>646.0</ele><time>2026-04-23T12:50:24.999Z</time></trkpt><trkpt lat="36.834095918029654" lon="-4.580355214427739"><ele>648.0</ele><time>2026-04-23T12:50:25.999Z</time></trkpt><trkpt lat="36.83397618893367" lon="-4.580471155953039"><ele>648.0</ele><time>2026-04-23T12:50:26.999Z</time></trkpt><trkpt lat="36.833849093967615" lon="-4.580565442906001"><ele>648.0</ele><time>2026-04-23T12:50:27.999Z</time></trkpt><trkpt lat="36.833752528955046" lon="-4.580688132662037"><ele>648.0</ele><time>2026-04-23T12:50:28.999Z</time></trkpt><trkpt lat="36.833674362164665" lon="-4.58078293698164"><ele>648.0</ele><time>2026-04-23T12:50:29.999Z</time></trkpt><trkpt lat="36.83362741646568" lon="-4.5808847690775005"><ele>648.0</ele><time>2026-04-23T12:50:30.999Z</time></trkpt><trkpt lat="36.833593002809955" lon="-4.580978169041083"><ele>648.0</ele><time>2026-04-23T12:50:31.999Z</time></trkpt><trkpt lat="36.8336046295804" lon="-4.581088942639986"><ele>648.0</ele><time>2026-04-23T12:50:32.999Z</time></trkpt><trkpt lat="36.83364859395839" lon="-4.581187213568326"><ele>648.0</ele><time>2026-04-23T12:50:33.999Z</time></trkpt><trkpt lat="36.8337132204694" lon="-4.581310584974885"><ele>648.0</ele><time>2026-04-23T12:50:34.999Z</time></trkpt><trkpt lat="36.83378281120553" lon="-4.58145834847288"><ele>650.0</ele><time>2026-04-23T12:50:35.999Z</time></trkpt><trkpt lat="36.83383463552936" lon="-4.581611655951667"><ele>652.0</ele><time>2026-04-23T12:50:36.999Z</time></trkpt><trkpt lat="36.83384787062209" lon="-4.581737408063607"><ele>654.0</ele><time>2026-04-23T12:50:37.999Z</time></trkpt><trkpt lat="36.83386206881026" lon="-4.581855212079468"><ele>656.0</ele><time>2026-04-23T12:50:38.999Z</time></trkpt><trkpt lat="36.83381659241254" lon="-4.582002768681985"><ele>659.5</ele><time>2026-04-23T12:50:39.999Z</time></trkpt><trkpt lat="36.83366444180314" lon="-4.582057120929307"><ele>663.0</ele><time>2026-04-23T12:50:40.999Z</time></trkpt><trkpt lat="36.83354079215613" lon="-4.582123830550468"><ele>666.5</ele><time>2026-04-23T12:50:41.999Z</time></trkpt><trkpt lat="36.83346984110007" lon="-4.582207841575738"><ele>670.0</ele><time>2026-04-23T12:50:42.999Z</time></trkpt><trkpt lat="36.83344206021899" lon="-4.582294010917451"><ele>663.6</ele><time>2026-04-23T12:50:43.999Z</time></trkpt><trkpt lat="36.83341412942757" lon="-4.582411874554486"><ele>657.2</ele><time>2026-04-23T12:50:44.999Z</time></trkpt><trkpt lat="36.833392464731055" lon="-4.582554964779777"><ele>650.8</ele><time>2026-04-23T12:50:45.999Z</time></trkpt><trkpt lat="36.83336553912387" lon="-4.582661042435943"><ele>644.4</ele><time>2026-04-23T12:50:46.999Z</time></trkpt><trkpt lat="36.83329320060225" lon="-4.582749129508992"><ele>638.0</ele><time>2026-04-23T12:50:47.999Z</time></trkpt><trkpt lat="36.83314092134815" lon="-4.582738083223506"><ele>638.0</ele><time>2026-04-23T12:50:48.999Z</time></trkpt><trkpt lat="36.833012716346566" lon="-4.582729888753197"><ele>638.0</ele><time>2026-04-23T12:50:49.999Z</time></trkpt><trkpt lat="36.83289359323751" lon="-4.5827428178338"><ele>638.0</ele><time>2026-04-23T12:50:50.999Z</time></trkpt><trkpt lat="36.83281659750389" lon="-4.582751463148532"><ele>638.0</ele><time>2026-04-23T12:50:51.999Z</time></trkpt><trkpt lat="36.83276317136362" lon="-4.582799677317858"><ele>638.0</ele><time>2026-04-23T12:50:52.999Z</time></trkpt><trkpt lat="36.832728264940855" lon="-4.582873914527358"><ele>644.5</ele><time>2026-04-23T12:50:53.999Z</time></trkpt><trkpt lat="36.83272984562865" lon="-4.583003947193223"><ele>651.0</ele><time>2026-04-23T12:50:54.999Z</time></trkpt><trkpt lat="36.83273532739226" lon="-4.583176753375152"><ele>657.5</ele><time>2026-04-23T12:50:55.999Z</time></trkpt><trkpt lat="36.83273779082794" lon="-4.583380194268027"><ele>664.0</ele><time>2026-04-23T12:50:56.999Z</time></trkpt><trkpt lat="36.83274555067254" lon="-4.583603688282181"><ele>665.3333333333334</ele><time>2026-04-23T12:50:57.999Z</time></trkpt><trkpt lat="36.83279621433337" lon="-4.583819403693929"><ele>666.6666666666666</ele><time>2026-04-23T12:50:58.999Z</time></trkpt><trkpt lat="36.83277348852152" lon="-4.584013736929396"><ele>668.0</ele><time>2026-04-23T12:50:59.999Z</time></trkpt><trkpt lat="36.83274609475753" lon="-4.584189611885726"><ele>668.0</ele><time>2026-04-23T12:51:00.999Z</time></trkpt><trkpt lat="36.832753604885134" lon="-4.58436962271629"><ele>668.0</ele><time>2026-04-23T12:51:01.999Z</time></trkpt><trkpt lat="36.832764431491974" lon="-4.584590908273078"><ele>668.0</ele><time>2026-04-23T12:51:02.999Z</time></trkpt><trkpt lat="36.83270488927639" lon="-4.584832016670146"><ele>663.3333333333333</ele><time>2026-04-23T12:51:03.999Z</time></trkpt><trkpt lat="36.83265140610746" lon="-4.585045987928539"><ele>658.6666666666666</ele><time>2026-04-23T12:51:04.999Z</time></trkpt><trkpt lat="36.83261250328241" lon="-4.585250745035238"><ele>654.0</ele><time>2026-04-23T12:51:05.999Z</time></trkpt><trkpt lat="36.83256416467351" lon="-4.585464306148159"><ele>654.0</ele><time>2026-04-23T12:51:06.999Z</time></trkpt><trkpt lat="36.832491835260406" lon="-4.585661779762191"><ele>654.0</ele><time>2026-04-23T12:51:07.999Z</time></trkpt><trkpt lat="36.83242397769639" lon="-4.585818012119055"><ele>654.0</ele><time>2026-04-23T12:51:08.999Z</time></trkpt><trkpt lat="36.8323672235961" lon="-4.585988342364944"><ele>652.75</ele><time>2026-04-23T12:51:09.999Z</time></trkpt><trkpt lat="36.832331189821055" lon="-4.5861832342862"><ele>651.5</ele><time>2026-04-23T12:51:10.999Z</time></trkpt><trkpt lat="36.83231572507043" lon="-4.586372051324445"><ele>650.25</ele><time>2026-04-23T12:51:11.999Z</time></trkpt><trkpt lat="36.83229129148183" lon="-4.586512814164524"><ele>649.0</ele><time>2026-04-23T12:51:12.999Z</time></trkpt><trkpt lat="36.832239551032565" lon="-4.586660541590818"><ele>649.0</ele><time>2026-04-23T12:51:13.999Z</time></trkpt><trkpt lat="36.83215554414993" lon="-4.586832968356425"><ele>649.0</ele><time>2026-04-23T12:51:14.999Z</time></trkpt><trkpt lat="36.832039272492246" lon="-4.5870166803655"><ele>649.0</ele><time>2026-04-23T12:51:15.999Z</time></trkpt><trkpt lat="36.83193263660458" lon="-4.58718684504994"><ele>649.6666666666667</ele><time>2026-04-23T12:51:16.999Z</time></trkpt><trkpt lat="36.83182063454188" lon="-4.58733675065613"><ele>650.3333333333334</ele><time>2026-04-23T12:51:17.999Z</time></trkpt><trkpt lat="36.83168154675934" lon="-4.587504197780583"><ele>651.0</ele><time>2026-04-23T12:51:18.999Z</time></trkpt><trkpt lat="36.8315452599677" lon="-4.587665470846173"><ele>651.0</ele><time>2026-04-23T12:51:19.999Z</time></trkpt><trkpt lat="36.831444697567925" lon="-4.587792740854142"><ele>651.0</ele><time>2026-04-23T12:51:20.999Z</time></trkpt><trkpt lat="36.831393347588055" lon="-4.587935710104952"><ele>651.0</ele><time>2026-04-23T12:51:21.999Z</time></trkpt><trkpt lat="36.831342130266684" lon="-4.5880830270488095"><ele>651.0</ele><time>2026-04-23T12:51:22.999Z</time></trkpt><trkpt lat="36.83131082030467" lon="-4.588258275963364"><ele>651.5</ele><time>2026-04-23T12:51:23.999Z</time></trkpt><trkpt lat="36.8312963849085" lon="-4.588451441764825"><ele>652.0</ele><time>2026-04-23T12:51:24.999Z</time></trkpt><trkpt lat="36.831305446714566" lon="-4.588626791513172"><ele>652.5</ele><time>2026-04-23T12:51:25.999Z</time></trkpt><trkpt lat="36.83133966692402" lon="-4.588786070297359"><ele>653.0</ele><time>2026-04-23T12:51:26.999Z</time></trkpt><trkpt lat="36.831345752869716" lon="-4.5888979127040175"><ele>653.5</ele><time>2026-04-23T12:51:27.999Z</time></trkpt><trkpt lat="36.831315493496795" lon="-4.589062945924612"><ele>654.0</ele><time>2026-04-23T12:51:29.999Z</time></trkpt><trkpt lat="36.831210223791274" lon="-4.589151689516297"><ele>654.5</ele><time>2026-04-23T12:51:30.999Z</time></trkpt><trkpt lat="36.83108492980448" lon="-4.589252585205846"><ele>655.0</ele><time>2026-04-23T12:51:31.999Z</time></trkpt><trkpt lat="36.830962157030264" lon="-4.589363188681899"><ele>655.3333333333334</ele><time>2026-04-23T12:51:32.999Z</time></trkpt><trkpt lat="36.830870047323046" lon="-4.589514469206045"><ele>655.6666666666666</ele><time>2026-04-23T12:51:33.999Z</time></trkpt><trkpt lat="36.83076158531208" lon="-4.589662678242697"><ele>656.0</ele><time>2026-04-23T12:51:34.999Z</time></trkpt><trkpt lat="36.830668322453235" lon="-4.589829503988012"><ele>656.0</ele><time>2026-04-23T12:51:35.999Z</time></trkpt><trkpt lat="36.830621200183984" lon="-4.589969315548388"><ele>656.0</ele><time>2026-04-23T12:51:36.999Z</time></trkpt><trkpt lat="36.830560009167826" lon="-4.5900676942859695"><ele>656.0</ele><time>2026-04-23T12:51:37.999Z</time></trkpt><trkpt lat="36.83050114075239" lon="-4.590160798915168"><ele>656.0</ele><time>2026-04-23T12:51:38.999Z</time></trkpt><trkpt lat="36.83039873118533" lon="-4.5902374947146365"><ele>656.0</ele><time>2026-04-23T12:51:39.999Z</time></trkpt><trkpt lat="36.83030050853124" lon="-4.590331653440983"><ele>656.0</ele><time>2026-04-23T12:51:41Z</time></trkpt><trkpt lat="36.830191856933176" lon="-4.590405556650235"><ele>656.0</ele><time>2026-04-23T12:51:42Z</time></trkpt><trkpt lat="36.83009969103702" lon="-4.590546852575432"><ele>656.0</ele><time>2026-04-23T12:51:43Z</time></trkpt><trkpt lat="36.8300273531034" lon="-4.590714850610859"><ele>656.0</ele><time>2026-04-23T12:51:44Z</time></trkpt><trkpt lat="36.82995316463499" lon="-4.590879347559304"><ele>656.0</ele><time>2026-04-23T12:51:45Z</time></trkpt><trkpt lat="36.829852373043934" lon="-4.591031235602788"><ele>656.0</ele><time>2026-04-23T12:51:46Z</time></trkpt><trkpt lat="36.82973011016195" lon="-4.591173547789009"><ele>656.0</ele><time>2026-04-23T12:51:47Z</time></trkpt><trkpt lat="36.829613019086175" lon="-4.591304781773089"><ele>655.1999999999999</ele><time>2026-04-23T12:51:48Z</time></trkpt><trkpt lat="36.82952411736358" lon="-4.591428462371527"><ele>654.4</ele><time>2026-04-23T12:51:49Z</time></trkpt><trkpt lat="36.82947840561309" lon="-4.591553359723603"><ele>653.6</ele><time>2026-04-23T12:51:50Z</time></trkpt><trkpt lat="36.82942261163072" lon="-4.591630533865086"><ele>652.8</ele><time>2026-04-23T12:51:51Z</time></trkpt><trkpt lat="36.82932941597262" lon="-4.591682753088431"><ele>652.0</ele><time>2026-04-23T12:51:52Z</time></trkpt><trkpt lat="36.8291983031911" lon="-4.59171735339361"><ele>656.0</ele><time>2026-04-23T12:51:53Z</time></trkpt><trkpt lat="36.82905619364671" lon="-4.5917954012118765"><ele>660.0</ele><time>2026-04-23T12:51:54Z</time></trkpt><trkpt lat="36.82888584785387" lon="-4.5918327794847595"><ele>664.0</ele><time>2026-04-23T12:51:55Z</time></trkpt><trkpt lat="36.82873639504787" lon="-4.591813747351089"><ele>664.0</ele><time>2026-04-23T12:51:56Z</time></trkpt><trkpt lat="36.828594051457166" lon="-4.591865604559607"><ele>664.0</ele><time>2026-04-23T12:51:57Z</time></trkpt><trkpt lat="36.82850650981441" lon="-4.592008144429299"><ele>664.0</ele><time>2026-04-23T12:51:58Z</time></trkpt><trkpt lat="36.82839042964983" lon="-4.592104648772009"><ele>664.0</ele><time>2026-04-23T12:51:59Z</time></trkpt><trkpt lat="36.82825745819659" lon="-4.592165699839665"><ele>666.6666666666667</ele><time>2026-04-23T12:52:00Z</time></trkpt><trkpt lat="36.82810777036191" lon="-4.592231448911031"><ele>669.3333333333334</ele><time>2026-04-23T12:52:01Z</time></trkpt><trkpt lat="36.827957334515055" lon="-4.5923219328315925"><ele>672.0</ele><time>2026-04-23T12:52:02Z</time></trkpt><trkpt lat="36.82781328870082" lon="-4.5924154825805825"><ele>672.0</ele><time>2026-04-23T12:52:03Z</time></trkpt><trkpt lat="36.82766997914114" lon="-4.592505053708551"><ele>672.0</ele><time>2026-04-23T12:52:04Z</time></trkpt><trkpt lat="36.82756826434564" lon="-4.592589641929495"><ele>672.0</ele><time>2026-04-23T12:52:05Z</time></trkpt><trkpt lat="36.82747112629711" lon="-4.592702728818839"><ele>672.0</ele><time>2026-04-23T12:52:06Z</time></trkpt><trkpt lat="36.8274450033592" lon="-4.592871801005452"><ele>677.0</ele><time>2026-04-23T12:52:07Z</time></trkpt><trkpt lat="36.82740738019602" lon="-4.593073438472115"><ele>682.0</ele><time>2026-04-23T12:52:08Z</time></trkpt><trkpt lat="36.82736497600523" lon="-4.593301933691622"><ele>687.0</ele><time>2026-04-23T12:52:09Z</time></trkpt><trkpt lat="36.82732939720603" lon="-4.593540864107801"><ele>689.6666666666666</ele><time>2026-04-23T12:52:10Z</time></trkpt><trkpt lat="36.82727876328533" lon="-4.593760376922504"><ele>692.3333333333333</ele><time>2026-04-23T12:52:11Z</time></trkpt><trkpt lat="36.82725177717826" lon="-4.593945212421561"><ele>695.0</ele><time>2026-04-23T12:52:12Z</time></trkpt><trkpt lat="36.82723903830832" lon="-4.5940896592557205"><ele>695.0</ele><time>2026-04-23T12:52:13Z</time></trkpt><trkpt lat="36.827249818346914" lon="-4.594226247459871"><ele>695.0</ele><time>2026-04-23T12:52:14Z</time></trkpt><trkpt lat="36.82730744307549" lon="-4.5943585708573575"><ele>695.0</ele><time>2026-04-23T12:52:15Z</time></trkpt><trkpt lat="36.82741512300173" lon="-4.594490540356755"><ele>695.0</ele><time>2026-04-23T12:52:16Z</time></trkpt><trkpt lat="36.82749604792107" lon="-4.594631770258627"><ele>697.6</ele><time>2026-04-23T12:52:17Z</time></trkpt><trkpt lat="36.82754695327979" lon="-4.594715244593789"><ele>700.2</ele><time>2026-04-23T12:52:18Z</time></trkpt><trkpt lat="36.82756569620259" lon="-4.594809995656893"><ele>702.8</ele><time>2026-04-23T12:52:19Z</time></trkpt><trkpt lat="36.827553836029224" lon="-4.594925361380486"><ele>705.4</ele><time>2026-04-23T12:52:20Z</time></trkpt><trkpt lat="36.82751766259494" lon="-4.595053959262504"><ele>708.0</ele><time>2026-04-23T12:52:21Z</time></trkpt><trkpt lat="36.82745606818128" lon="-4.5952027903407915"><ele>706.6666666666666</ele><time>2026-04-23T12:52:22Z</time></trkpt><trkpt lat="36.827378880795116" lon="-4.59537227476916"><ele>705.3333333333333</ele><time>2026-04-23T12:52:23Z</time></trkpt><trkpt lat="36.82733053355455" lon="-4.595562702214143"><ele>704.0</ele><time>2026-04-23T12:52:24Z</time></trkpt><trkpt lat="36.82726131982512" lon="-4.595749323771739"><ele>704.0</ele><time>2026-04-23T12:52:25Z</time></trkpt><trkpt lat="36.827227685078" lon="-4.595959653201997"><ele>704.0</ele><time>2026-04-23T12:52:26Z</time></trkpt><trkpt lat="36.82716834430355" lon="-4.596135226032034"><ele>704.0</ele><time>2026-04-23T12:52:27Z</time></trkpt><trkpt lat="36.827132120799014" lon="-4.596286782431775"><ele>702.5</ele><time>2026-04-23T12:52:28Z</time></trkpt><trkpt lat="36.82709780556174" lon="-4.596416087028464"><ele>701.0</ele><time>2026-04-23T12:52:29Z</time></trkpt><trkpt lat="36.82707040238762" lon="-4.59652638414088"><ele>699.5</ele><time>2026-04-23T12:52:30Z</time></trkpt><trkpt lat="36.82705082658276" lon="-4.596605189524985"><ele>698.0</ele><time>2026-04-23T12:52:31Z</time></trkpt><trkpt lat="36.827013197910865" lon="-4.596673622656174"><ele>696.5</ele><time>2026-04-23T12:52:32Z</time></trkpt><trkpt lat="36.82695048371146" lon="-4.596722225524928"><ele>695.0</ele><time>2026-04-23T12:52:33Z</time></trkpt><trkpt lat="36.826873726463404" lon="-4.596735112988399"><ele>700.4</ele><time>2026-04-23T12:52:34Z</time></trkpt><trkpt lat="36.82678722445681" lon="-4.596714877968985"><ele>705.8</ele><time>2026-04-23T12:52:35Z</time></trkpt><trkpt lat="36.826689524846806" lon="-4.59665802426855"><ele>711.2</ele><time>2026-04-23T12:52:36Z</time></trkpt><trkpt lat="36.82657639964229" lon="-4.596589149539845"><ele>716.6</ele><time>2026-04-23T12:52:37Z</time></trkpt><trkpt lat="36.82646228402228" lon="-4.596553331702931"><ele>722.0</ele><time>2026-04-23T12:52:38Z</time></trkpt><trkpt lat="36.82637226290068" lon="-4.596601739663959"><ele>722.0</ele><time>2026-04-23T12:52:39Z</time></trkpt><trkpt lat="36.82629952561682" lon="-4.5966652061383835"><ele>722.0</ele><time>2026-04-23T12:52:40Z</time></trkpt><trkpt lat="36.82626025215374" lon="-4.596814693153441"><ele>722.0</ele><time>2026-04-23T12:52:41Z</time></trkpt><trkpt lat="36.82618802935521" lon="-4.596989771595688"><ele>722.0</ele><time>2026-04-23T12:52:42Z</time></trkpt><trkpt lat="36.826131661320034" lon="-4.597208181049986"><ele>723.5</ele><time>2026-04-23T12:52:43Z</time></trkpt><trkpt lat="36.82606794314244" lon="-4.597404609659062"><ele>725.0</ele><time>2026-04-23T12:52:44Z</time></trkpt><trkpt lat="36.826019056079545" lon="-4.597555573653113"><ele>726.5</ele><time>2026-04-23T12:52:44.999Z</time></trkpt><trkpt lat="36.825980739237686" lon="-4.597682563634425"><ele>728.0</ele><time>2026-04-23T12:52:45.999Z</time></trkpt><trkpt lat="36.82594852990513" lon="-4.597768077307134"><ele>722.5</ele><time>2026-04-23T12:52:46.999Z</time></trkpt><trkpt lat="36.82583662634998" lon="-4.597865537188279"><ele>717.0</ele><time>2026-04-23T12:52:48.999Z</time></trkpt><trkpt lat="36.8257383017458" lon="-4.5978974927511"><ele>711.5</ele><time>2026-04-23T12:52:49.999Z</time></trkpt><trkpt lat="36.82560425995077" lon="-4.597908390720185"><ele>706.0</ele><time>2026-04-23T12:52:50.999Z</time></trkpt><trkpt lat="36.825454451772856" lon="-4.597945091922575"><ele>706.0</ele><time>2026-04-23T12:52:51.999Z</time></trkpt><trkpt lat="36.82531894241409" lon="-4.598017162236263"><ele>706.0</ele><time>2026-04-23T12:52:52.999Z</time></trkpt><trkpt lat="36.825187207504726" lon="-4.5981262801536635"><ele>706.0</ele><time>2026-04-23T12:52:53.999Z</time></trkpt><trkpt lat="36.82506430020962" lon="-4.598234898200403"><ele>707.0</ele><time>2026-04-23T12:52:54.999Z</time></trkpt><trkpt lat="36.82495284709416" lon="-4.598324299839362"><ele>708.0</ele><time>2026-04-23T12:52:55.999Z</time></trkpt><trkpt lat="36.82486676004809" lon="-4.598413703236909"><ele>709.0</ele><time>2026-04-23T12:52:56.999Z</time></trkpt><trkpt lat="36.82479266155005" lon="-4.598480207153006"><ele>710.0</ele><time>2026-04-23T12:52:57.999Z</time></trkpt><trkpt lat="36.824717430814886" lon="-4.598530331234161"><ele>711.0</ele><time>2026-04-23T12:52:58.999Z</time></trkpt><trkpt lat="36.824582165193945" lon="-4.598556795374631"><ele>711.0</ele><time>2026-04-23T12:53:00.999Z</time></trkpt><trkpt lat="36.824498058502" lon="-4.598512522013196"><ele>711.0</ele><time>2026-04-23T12:53:01.999Z</time></trkpt><trkpt lat="36.82443520880188" lon="-4.5984325955233505"><ele>711.0</ele><time>2026-04-23T12:53:02.999Z</time></trkpt><trkpt lat="36.824377735421805" lon="-4.598353281411272"><ele>711.0</ele><time>2026-04-23T12:53:03.999Z</time></trkpt><trkpt lat="36.82433192352911" lon="-4.598242814629096"><ele>711.0</ele><time>2026-04-23T12:53:04.999Z</time></trkpt><trkpt lat="36.82429928994305" lon="-4.598100563409026"><ele>711.4</ele><time>2026-04-23T12:53:05.999Z</time></trkpt><trkpt lat="36.82427735593829" lon="-4.597937343700991"><ele>711.8</ele><time>2026-04-23T12:53:06.999Z</time></trkpt><trkpt lat="36.824258563573004" lon="-4.597759466799823"><ele>712.1999999999999</ele><time>2026-04-23T12:53:07.999Z</time></trkpt><trkpt lat="36.82424979553019" lon="-4.597649520045025"><ele>712.5999999999999</ele><time>2026-04-23T12:53:08.999Z</time></trkpt><trkpt lat="36.82423622589969" lon="-4.597557649361466"><ele>713.0</ele><time>2026-04-23T12:53:09.999Z</time></trkpt><trkpt lat="36.824162342010744" lon="-4.5974904194627"><ele>713.0</ele><time>2026-04-23T12:53:11.999Z</time></trkpt><trkpt lat="36.824088761796794" lon="-4.597524118651704"><ele>713.0</ele><time>2026-04-23T12:53:12.999Z</time></trkpt><trkpt lat="36.824000302592616" lon="-4.5975823553080435"><ele>713.0</ele><time>2026-04-23T12:53:13.999Z</time></trkpt><trkpt lat="36.82386085300785" lon="-4.597653657188148"><ele>713.0</ele><time>2026-04-23T12:53:14.999Z</time></trkpt><trkpt lat="36.823708000694374" lon="-4.597728422412499"><ele>713.0</ele><time>2026-04-23T12:53:15.999Z</time></trkpt><trkpt lat="36.82357264046101" lon="-4.59779521000795"><ele>713.0</ele><time>2026-04-23T12:53:16.999Z</time></trkpt><trkpt lat="36.823449920251406" lon="-4.597889657062264"><ele>713.0</ele><time>2026-04-23T12:53:17.999Z</time></trkpt><trkpt lat="36.823328925563615" lon="-4.598024182972923"><ele>705.0</ele><time>2026-04-23T12:53:18.999Z</time></trkpt><trkpt lat="36.82322385707204" lon="-4.598192094022556"><ele>697.0</ele><time>2026-04-23T12:53:19.999Z</time></trkpt><trkpt lat="36.82313177589045" lon="-4.5983691570562515"><ele>689.0</ele><time>2026-04-23T12:53:20.999Z</time></trkpt><trkpt lat="36.82304433752263" lon="-4.598541070381062"><ele>683.6666666666666</ele><time>2026-04-23T12:53:21.999Z</time></trkpt><trkpt lat="36.82296471233329" lon="-4.598727525245334"><ele>678.3333333333334</ele><time>2026-04-23T12:53:22.999Z</time></trkpt><trkpt lat="36.82288318283981" lon="-4.598902638346464"><ele>673.0</ele><time>2026-04-23T12:53:23.999Z</time></trkpt><trkpt lat="36.822809241428395" lon="-4.5990756859777715"><ele>673.0</ele><time>2026-04-23T12:53:24.999Z</time></trkpt><trkpt lat="36.82273464876345" lon="-4.599228917776555"><ele>673.0</ele><time>2026-04-23T12:53:25.999Z</time></trkpt><trkpt lat="36.82267050455353" lon="-4.599377618462189"><ele>673.0</ele><time>2026-04-23T12:53:26.999Z</time></trkpt><trkpt lat="36.82262441619649" lon="-4.599530951453917"><ele>673.0</ele><time>2026-04-23T12:53:27.999Z</time></trkpt><trkpt lat="36.82258687492011" lon="-4.599679179234002"><ele>673.8</ele><time>2026-04-23T12:53:28.999Z</time></trkpt><trkpt lat="36.82255547641543" lon="-4.59981048673355"><ele>674.5999999999999</ele><time>2026-04-23T12:53:29.999Z</time></trkpt><trkpt lat="36.82252075805008" lon="-4.599924131125208"><ele>675.4000000000001</ele><time>2026-04-23T12:53:30.999Z</time></trkpt><trkpt lat="36.82246361402404" lon="-4.600019665736963"><ele>676.2</ele><time>2026-04-23T12:53:31.999Z</time></trkpt><trkpt lat="36.8224036956962" lon="-4.600107771101888"><ele>677.0</ele><time>2026-04-23T12:53:32.999Z</time></trkpt><trkpt lat="36.822313790867916" lon="-4.600143563732254"><ele>677.0</ele><time>2026-04-23T12:53:33.999Z</time></trkpt><trkpt lat="36.82225771079487" lon="-4.600198557538164"><ele>677.0</ele><time>2026-04-23T12:53:34.999Z</time></trkpt><trkpt lat="36.82222801104576" lon="-4.6002887543004"><ele>677.0</ele><time>2026-04-23T12:53:35.999Z</time></trkpt><trkpt lat="36.82223991960224" lon="-4.600393745151012"><ele>677.0</ele><time>2026-04-23T12:53:36.999Z</time></trkpt><trkpt lat="36.822290475280646" lon="-4.60048360198544"><ele>677.0</ele><time>2026-04-23T12:53:37.999Z</time></trkpt><trkpt lat="36.822313652445" lon="-4.600569189235566"><ele>677.0</ele><time>2026-04-23T12:53:38.999Z</time></trkpt><trkpt lat="36.82234350018556" lon="-4.600665033059446"><ele>675.8</ele><time>2026-04-23T12:53:39.999Z</time></trkpt><trkpt lat="36.82234914512345" lon="-4.600778673629544"><ele>674.6</ele><time>2026-04-23T12:53:40.999Z</time></trkpt><trkpt lat="36.82233817703417" lon="-4.60090326926414"><ele>673.4</ele><time>2026-04-23T12:53:41.999Z</time></trkpt><trkpt lat="36.822313408046426" lon="-4.601028616018288"><ele>672.1999999999999</ele><time>2026-04-23T12:53:42.999Z</time></trkpt><trkpt lat="36.82228416305625" lon="-4.601169325725549"><ele>671.0</ele><time>2026-04-23T12:53:43.999Z</time></trkpt><trkpt lat="36.82228090634973" lon="-4.601331509689661"><ele>671.0</ele><time>2026-04-23T12:53:44.999Z</time></trkpt><trkpt lat="36.82226317708795" lon="-4.601487848562044"><ele>671.0</ele><time>2026-04-23T12:53:45.999Z</time></trkpt><trkpt lat="36.82226910756126" lon="-4.601621132722753"><ele>671.0</ele><time>2026-04-23T12:53:47Z</time></trkpt><trkpt lat="36.82226361482867" lon="-4.601742088329825"><ele>671.0</ele><time>2026-04-23T12:53:48Z</time></trkpt><trkpt lat="36.822274847463845" lon="-4.601865251535095"><ele>671.0</ele><time>2026-04-23T12:53:49Z</time></trkpt><trkpt lat="36.82235633951907" lon="-4.601954057245221"><ele>673.5</ele><time>2026-04-23T12:53:50Z</time></trkpt><trkpt lat="36.82245940114308" lon="-4.60200640731782"><ele>676.0</ele><time>2026-04-23T12:53:51Z</time></trkpt><trkpt lat="36.82256210594946" lon="-4.602071598533499"><ele>678.5</ele><time>2026-04-23T12:53:52Z</time></trkpt><trkpt lat="36.822669063637676" lon="-4.602132450836604"><ele>681.0</ele><time>2026-04-23T12:53:53Z</time></trkpt><trkpt lat="36.82277639640884" lon="-4.602158642325725"><ele>677.0</ele><time>2026-04-23T12:53:54Z</time></trkpt><trkpt lat="36.82287492576506" lon="-4.602191001503852"><ele>673.0</ele><time>2026-04-23T12:53:55Z</time></trkpt><trkpt lat="36.82292998151257" lon="-4.602257916970731"><ele>669.0</ele><time>2026-04-23T12:53:56Z</time></trkpt><trkpt lat="36.82298618202566" lon="-4.602304415586786"><ele>665.0</ele><time>2026-04-23T12:53:57Z</time></trkpt><trkpt lat="36.823003826870476" lon="-4.6024377205850815"><ele>661.0</ele><time>2026-04-23T12:53:58Z</time></trkpt><trkpt lat="36.82302702910423" lon="-4.602583174036367"><ele>661.0</ele><time>2026-04-23T12:53:59Z</time></trkpt><trkpt lat="36.82306094541479" lon="-4.6027390630959735"><ele>661.0</ele><time>2026-04-23T12:54:00Z</time></trkpt><trkpt lat="36.82311069474405" lon="-4.602907414551815"><ele>661.0</ele><time>2026-04-23T12:54:01Z</time></trkpt><trkpt lat="36.823149457122334" lon="-4.603054548686355"><ele>661.0</ele><time>2026-04-23T12:54:02Z</time></trkpt><trkpt lat="36.823158977766866" lon="-4.603224067270318"><ele>661.5</ele><time>2026-04-23T12:54:03Z</time></trkpt><trkpt lat="36.82317102036605" lon="-4.603417169954692"><ele>662.0</ele><time>2026-04-23T12:54:04Z</time></trkpt><trkpt lat="36.823200509462716" lon="-4.603598469053183"><ele>662.5</ele><time>2026-04-23T12:54:05Z</time></trkpt><trkpt lat="36.823227998501004" lon="-4.603740993500946"><ele>663.0</ele><time>2026-04-23T12:54:06Z</time></trkpt><trkpt lat="36.8232668934082" lon="-4.6038541539421205"><ele>663.0</ele><time>2026-04-23T12:54:07Z</time></trkpt><trkpt lat="36.82333247646202" lon="-4.603963744906308"><ele>663.0</ele><time>2026-04-23T12:54:08Z</time></trkpt><trkpt lat="36.823439778503804" lon="-4.604103574775573"><ele>663.0</ele><time>2026-04-23T12:54:09Z</time></trkpt><trkpt lat="36.8235376684169" lon="-4.60423917190727"><ele>663.0</ele><time>2026-04-23T12:54:10Z</time></trkpt><trkpt lat="36.823595734919735" lon="-4.60434593261387"><ele>669.0</ele><time>2026-04-23T12:54:11Z</time></trkpt><trkpt lat="36.823625059154345" lon="-4.6044624968911325"><ele>675.0</ele><time>2026-04-23T12:54:12Z</time></trkpt><trkpt lat="36.82362197311714" lon="-4.604621468295508"><ele>681.0</ele><time>2026-04-23T12:54:13Z</time></trkpt><trkpt lat="36.82359967991421" lon="-4.604770794260334"><ele>687.0</ele><time>2026-04-23T12:54:14Z</time></trkpt><trkpt lat="36.82361120290572" lon="-4.604875748348989"><ele>693.0</ele><time>2026-04-23T12:54:15Z</time></trkpt><trkpt lat="36.82372974537308" lon="-4.604980195885003"><ele>693.25</ele><time>2026-04-23T12:54:17Z</time></trkpt><trkpt lat="36.823763787849025" lon="-4.605091006112774"><ele>693.5</ele><time>2026-04-23T12:54:18Z</time></trkpt><trkpt lat="36.82376397121253" lon="-4.605205678822057"><ele>693.75</ele><time>2026-04-23T12:54:19Z</time></trkpt><trkpt lat="36.823709086466955" lon="-4.605339759382184"><ele>694.0</ele><time>2026-04-23T12:54:20Z</time></trkpt><trkpt lat="36.82360749340688" lon="-4.605468787623266"><ele>692.4000000000001</ele><time>2026-04-23T12:54:21Z</time></trkpt><trkpt lat="36.82353852108871" lon="-4.605588106416961"><ele>690.8</ele><time>2026-04-23T12:54:22Z</time></trkpt><trkpt lat="36.823489246422966" lon="-4.60565300174153"><ele>689.2</ele><time>2026-04-23T12:54:23Z</time></trkpt><trkpt lat="36.823518715112634" lon="-4.605790443353632"><ele>687.5999999999999</ele><time>2026-04-23T12:54:25Z</time></trkpt><trkpt lat="36.823592570913625" lon="-4.605874617423388"><ele>686.0</ele><time>2026-04-23T12:54:26Z</time></trkpt><trkpt lat="36.823696327394025" lon="-4.605963281242322"><ele>686.0</ele><time>2026-04-23T12:54:27Z</time></trkpt><trkpt lat="36.823794529559045" lon="-4.606076621731487"><ele>686.0</ele><time>2026-04-23T12:54:28Z</time></trkpt><trkpt lat="36.82384634548153" lon="-4.606226968439711"><ele>686.0</ele><time>2026-04-23T12:54:29Z</time></trkpt><trkpt lat="36.823848559690525" lon="-4.606419978646752"><ele>686.0</ele><time>2026-04-23T12:54:30Z</time></trkpt><trkpt lat="36.823840771394245" lon="-4.606644595048402"><ele>676.3333333333333</ele><time>2026-04-23T12:54:31Z</time></trkpt><trkpt lat="36.823829152951866" lon="-4.606865091206788"><ele>666.6666666666666</ele><time>2026-04-23T12:54:32Z</time></trkpt><trkpt lat="36.82381782218906" lon="-4.607055401724786"><ele>657.0</ele><time>2026-04-23T12:54:33Z</time></trkpt><trkpt lat="36.82381119339481" lon="-4.607222694076424"><ele>651.25</ele><time>2026-04-23T12:54:34Z</time></trkpt><trkpt lat="36.823797414717" lon="-4.607370994175301"><ele>645.5</ele><time>2026-04-23T12:54:35Z</time></trkpt><trkpt lat="36.82377575710518" lon="-4.6075008430626045"><ele>639.75</ele><time>2026-04-23T12:54:36Z</time></trkpt><trkpt lat="36.823736100659424" lon="-4.60766561162693"><ele>634.0</ele><time>2026-04-23T12:54:37Z</time></trkpt><trkpt lat="36.823686526078674" lon="-4.607872601834433"><ele>628.0</ele><time>2026-04-23T12:54:38Z</time></trkpt><trkpt lat="36.823638754404875" lon="-4.608055261611279"><ele>622.0</ele><time>2026-04-23T12:54:39Z</time></trkpt><trkpt lat="36.823615220892314" lon="-4.608225197173906"><ele>616.0</ele><time>2026-04-23T12:54:40Z</time></trkpt><trkpt lat="36.82361479333287" lon="-4.6083872737973985"><ele>610.0</ele><time>2026-04-23T12:54:41Z</time></trkpt><trkpt lat="36.82362900855443" lon="-4.608522307232387"><ele>610.0</ele><time>2026-04-23T12:54:42Z</time></trkpt><trkpt lat="36.8236374230556" lon="-4.608641134732245"><ele>610.0</ele><time>2026-04-23T12:54:43Z</time></trkpt><trkpt lat="36.82361453778244" lon="-4.60875302932248"><ele>610.0</ele><time>2026-04-23T12:54:44Z</time></trkpt><trkpt lat="36.823562094426535" lon="-4.608844916722"><ele>610.0</ele><time>2026-04-23T12:54:45Z</time></trkpt><trkpt lat="36.823492289141726" lon="-4.608919035749015"><ele>610.0</ele><time>2026-04-23T12:54:46Z</time></trkpt><trkpt lat="36.823392686596144" lon="-4.608985189101808"><ele>612.25</ele><time>2026-04-23T12:54:47Z</time></trkpt><trkpt lat="36.823257823709895" lon="-4.6090559321302775"><ele>614.5</ele><time>2026-04-23T12:54:48Z</time></trkpt><trkpt lat="36.82310390020834" lon="-4.609101795796928"><ele>616.75</ele><time>2026-04-23T12:54:49Z</time></trkpt><trkpt lat="36.82297728421161" lon="-4.609141424178691"><ele>619.0</ele><time>2026-04-23T12:54:50Z</time></trkpt><trkpt lat="36.8228715249324" lon="-4.609187432214174"><ele>619.0</ele><time>2026-04-23T12:54:51Z</time></trkpt><trkpt lat="36.82279248550656" lon="-4.609281059384636"><ele>619.0</ele><time>2026-04-23T12:54:52Z</time></trkpt><trkpt lat="36.82271728820548" lon="-4.609406980384711"><ele>619.0</ele><time>2026-04-23T12:54:53Z</time></trkpt><trkpt lat="36.82261582487789" lon="-4.609553980322765"><ele>619.0</ele><time>2026-04-23T12:54:54Z</time></trkpt><trkpt lat="36.82252785631552" lon="-4.609727959872339"><ele>614.6666666666667</ele><time>2026-04-23T12:54:55Z</time></trkpt><trkpt lat="36.82245104196495" lon="-4.609906267325128"><ele>610.3333333333334</ele><time>2026-04-23T12:54:56Z</time></trkpt><trkpt lat="36.82238828626412" lon="-4.610069724884883"><ele>606.0</ele><time>2026-04-23T12:54:57Z</time></trkpt><trkpt lat="36.82231754022356" lon="-4.610226093525083"><ele>599.0</ele><time>2026-04-23T12:54:58Z</time></trkpt><trkpt lat="36.82224540123367" lon="-4.6103727605598905"><ele>592.0</ele><time>2026-04-23T12:54:59Z</time></trkpt><trkpt lat="36.82219023598688" lon="-4.610513520556923"><ele>585.0</ele><time>2026-04-23T12:55:00Z</time></trkpt><trkpt lat="36.82214401010766" lon="-4.610657951467281"><ele>578.0</ele><time>2026-04-23T12:55:01Z</time></trkpt><trkpt lat="36.82212021119919" lon="-4.610816714540295"><ele>578.0</ele><time>2026-04-23T12:55:02Z</time></trkpt><trkpt lat="36.822113380095324" lon="-4.610989069918878"><ele>578.0</ele><time>2026-04-23T12:55:03Z</time></trkpt><trkpt lat="36.822114461532905" lon="-4.6111490634946595"><ele>578.0</ele><time>2026-04-23T12:55:04Z</time></trkpt><trkpt lat="36.82213172444748" lon="-4.611290932208588"><ele>578.0</ele><time>2026-04-23T12:55:05Z</time></trkpt><trkpt lat="36.822169283829226" lon="-4.611431668292041"><ele>576.4</ele><time>2026-04-23T12:55:06Z</time></trkpt><trkpt lat="36.822214500501914" lon="-4.611549881200058"><ele>574.8</ele><time>2026-04-23T12:55:07Z</time></trkpt><trkpt lat="36.822266130938935" lon="-4.611662466779065"><ele>573.2</ele><time>2026-04-23T12:55:08Z</time></trkpt><trkpt lat="36.8223190477656" lon="-4.61175713708205"><ele>571.6</ele><time>2026-04-23T12:55:09Z</time></trkpt><trkpt lat="36.82235214175487" lon="-4.6118834791806655"><ele>570.0</ele><time>2026-04-23T12:55:11Z</time></trkpt><trkpt lat="36.82223386847105" lon="-4.611976363092164"><ele>570.0</ele><time>2026-04-23T12:55:13Z</time></trkpt><trkpt lat="36.82212184290006" lon="-4.61197521784394"><ele>570.0</ele><time>2026-04-23T12:55:14Z</time></trkpt><trkpt lat="36.82198722979662" lon="-4.611963998652049"><ele>570.0</ele><time>2026-04-23T12:55:15Z</time></trkpt><trkpt lat="36.8218688764858" lon="-4.611999780406496"><ele>570.0</ele><time>2026-04-23T12:55:16Z</time></trkpt><trkpt lat="36.82175647244289" lon="-4.612052631517901"><ele>566.0</ele><time>2026-04-23T12:55:17Z</time></trkpt><trkpt lat="36.82163037945571" lon="-4.612114696871322"><ele>562.0</ele><time>2026-04-23T12:55:18Z</time></trkpt><trkpt lat="36.82150492793428" lon="-4.612156719268148"><ele>558.0</ele><time>2026-04-23T12:55:19Z</time></trkpt><trkpt lat="36.82140151535579" lon="-4.612242051220047"><ele>554.0</ele><time>2026-04-23T12:55:20Z</time></trkpt><trkpt lat="36.82133399988648" lon="-4.612388149611156"><ele>554.0</ele><time>2026-04-23T12:55:21Z</time></trkpt><trkpt lat="36.821265686280526" lon="-4.61256074412387"><ele>554.0</ele><time>2026-04-23T12:55:22Z</time></trkpt><trkpt lat="36.821171841695545" lon="-4.612739618870404"><ele>554.0</ele><time>2026-04-23T12:55:23Z</time></trkpt><trkpt lat="36.821054661426636" lon="-4.612908708830126"><ele>554.6666666666666</ele><time>2026-04-23T12:55:24Z</time></trkpt><trkpt lat="36.82090829845749" lon="-4.613056028984796"><ele>555.3333333333334</ele><time>2026-04-23T12:55:25Z</time></trkpt><trkpt lat="36.82073876900958" lon="-4.613199463223181"><ele>556.0</ele><time>2026-04-23T12:55:26Z</time></trkpt><trkpt lat="36.82057957505061" lon="-4.613316229679038"><ele>556.0</ele><time>2026-04-23T12:55:27Z</time></trkpt><trkpt lat="36.820460161959495" lon="-4.613395738897984"><ele>556.0</ele><time>2026-04-23T12:55:28Z</time></trkpt><trkpt lat="36.82033196789965" lon="-4.613442768276998"><ele>556.0</ele><time>2026-04-23T12:55:29Z</time></trkpt><trkpt lat="36.820189550980615" lon="-4.6134800115683845"><ele>556.0</ele><time>2026-04-23T12:55:30Z</time></trkpt><trkpt lat="36.82006424369606" lon="-4.61354956792934"><ele>556.6666666666667</ele><time>2026-04-23T12:55:31Z</time></trkpt><trkpt lat="36.81991287147441" lon="-4.6136245142026056"><ele>557.3333333333334</ele><time>2026-04-23T12:55:32Z</time></trkpt><trkpt lat="36.819729454431226" lon="-4.613707480390401"><ele>558.0</ele><time>2026-04-23T12:55:33Z</time></trkpt><trkpt lat="36.81958099337108" lon="-4.613800663468615"><ele>557.0</ele><time>2026-04-23T12:55:34Z</time></trkpt><trkpt lat="36.81946801758804" lon="-4.613871880215919"><ele>556.0</ele><time>2026-04-23T12:55:35Z</time></trkpt><trkpt lat="36.819396688970826" lon="-4.613941387899778"><ele>555.0</ele><time>2026-04-23T12:55:36Z</time></trkpt><trkpt lat="36.819293118339395" lon="-4.614012120904952"><ele>554.0</ele><time>2026-04-23T12:55:37Z</time></trkpt><trkpt lat="36.81914397971596" lon="-4.614078001923287"><ele>556.6666666666666</ele><time>2026-04-23T12:55:38Z</time></trkpt><trkpt lat="36.81899460923232" lon="-4.614149511646752"><ele>559.3333333333334</ele><time>2026-04-23T12:55:39Z</time></trkpt><trkpt lat="36.81884642983913" lon="-4.614224695419734"><ele>562.0</ele><time>2026-04-23T12:55:40Z</time></trkpt><trkpt lat="36.81871420472577" lon="-4.614311603549028"><ele>562.0</ele><time>2026-04-23T12:55:41Z</time></trkpt><trkpt lat="36.81861833122798" lon="-4.614447522507474"><ele>562.0</ele><time>2026-04-23T12:55:42Z</time></trkpt><trkpt lat="36.81852614067167" lon="-4.614573155132646"><ele>562.0</ele><time>2026-04-23T12:55:43Z</time></trkpt><trkpt lat="36.81844195454478" lon="-4.614743868198086"><ele>562.0</ele><time>2026-04-23T12:55:44Z</time></trkpt><trkpt lat="36.81835945497623" lon="-4.614898982441587"><ele>558.75</ele><time>2026-04-23T12:55:45Z</time></trkpt><trkpt lat="36.8182710609508" lon="-4.61500847651995"><ele>555.5</ele><time>2026-04-23T12:55:46Z</time></trkpt><trkpt lat="36.81818789019236" lon="-4.6151104538204555"><ele>552.25</ele><time>2026-04-23T12:55:47Z</time></trkpt><trkpt lat="36.818097888823985" lon="-4.615189561210258"><ele>549.0</ele><time>2026-04-23T12:55:47.999Z</time></trkpt><trkpt lat="36.81799767889928" lon="-4.615277477835382"><ele>545.75</ele><time>2026-04-23T12:55:48.999Z</time></trkpt><trkpt lat="36.81789636730538" lon="-4.6153583003003416"><ele>542.5</ele><time>2026-04-23T12:55:49.999Z</time></trkpt><trkpt lat="36.81775949680533" lon="-4.615361422395026"><ele>539.25</ele><time>2026-04-23T12:55:50.999Z</time></trkpt><trkpt lat="36.817616219016394" lon="-4.615379695426749"><ele>536.0</ele><time>2026-04-23T12:55:51.999Z</time></trkpt><trkpt lat="36.81746532378475" lon="-4.61535965409769"><ele>536.0</ele><time>2026-04-23T12:55:53.001Z</time></trkpt><trkpt lat="36.817324016337416" lon="-4.615337604215184"><ele>536.0</ele><time>2026-04-23T12:55:54.001Z</time></trkpt><trkpt lat="36.81721463478665" lon="-4.615326032717042"><ele>536.0</ele><time>2026-04-23T12:55:55.001Z</time></trkpt><trkpt lat="36.81711309953342" lon="-4.61533915347408"><ele>536.0</ele><time>2026-04-23T12:55:56.001Z</time></trkpt><trkpt lat="36.81703340986591" lon="-4.615393787172263"><ele>536.0</ele><time>2026-04-23T12:55:57.001Z</time></trkpt><trkpt lat="36.8169439377139" lon="-4.615484614685812"><ele>536.0</ele><time>2026-04-23T12:55:58.001Z</time></trkpt><trkpt lat="36.816858223798505" lon="-4.615616005108031"><ele>536.0</ele><time>2026-04-23T12:55:59.001Z</time></trkpt><trkpt lat="36.81675634323149" lon="-4.615790595975958"><ele>536.0</ele><time>2026-04-23T12:56:00.001Z</time></trkpt><trkpt lat="36.81667070946298" lon="-4.615995674774002"><ele>537.25</ele><time>2026-04-23T12:56:01.001Z</time></trkpt><trkpt lat="36.816595566614566" lon="-4.6161791730939274"><ele>538.5</ele><time>2026-04-23T12:56:02.001Z</time></trkpt><trkpt lat="36.81654141711581" lon="-4.616337568674639"><ele>539.75</ele><time>2026-04-23T12:56:03.001Z</time></trkpt><trkpt lat="36.81649937553151" lon="-4.616471085511483"><ele>541.0</ele><time>2026-04-23T12:56:04.001Z</time></trkpt><trkpt lat="36.81644779357886" lon="-4.616588206004401"><ele>541.0</ele><time>2026-04-23T12:56:05.001Z</time></trkpt><trkpt lat="36.81638154632836" lon="-4.616692558298785"><ele>541.0</ele><time>2026-04-23T12:56:06.001Z</time></trkpt><trkpt lat="36.81625230426837" lon="-4.616748155200912"><ele>541.0</ele><time>2026-04-23T12:56:07.001Z</time></trkpt><trkpt lat="36.816106515471986" lon="-4.616816776921788"><ele>541.0</ele><time>2026-04-23T12:56:08.001Z</time></trkpt><trkpt lat="36.815970903905686" lon="-4.616891533771429"><ele>541.25</ele><time>2026-04-23T12:56:09.001Z</time></trkpt><trkpt lat="36.81586441855718" lon="-4.6169808603936096"><ele>541.5</ele><time>2026-04-23T12:56:10.001Z</time></trkpt><trkpt lat="36.815780172607575" lon="-4.617107873095328"><ele>541.75</ele><time>2026-04-23T12:56:11Z</time></trkpt><trkpt lat="36.81572765329369" lon="-4.6172646046918695"><ele>542.0</ele><time>2026-04-23T12:56:12Z</time></trkpt><trkpt lat="36.815725005478456" lon="-4.6174398928579174"><ele>542.25</ele><time>2026-04-23T12:56:13Z</time></trkpt><trkpt lat="36.815742882638375" lon="-4.617609439364894"><ele>542.5</ele><time>2026-04-23T12:56:14Z</time></trkpt><trkpt lat="36.81575011732921" lon="-4.617777408342488"><ele>542.75</ele><time>2026-04-23T12:56:15Z</time></trkpt><trkpt lat="36.81576491911921" lon="-4.617939834498563"><ele>543.0</ele><time>2026-04-23T12:56:16Z</time></trkpt><trkpt lat="36.815777199178854" lon="-4.61807435050782"><ele>542.0</ele><time>2026-04-23T12:56:17Z</time></trkpt><trkpt lat="36.81578078614315" lon="-4.618200578913468"><ele>541.0</ele><time>2026-04-23T12:56:18Z</time></trkpt><trkpt lat="36.81576752570189" lon="-4.618320502166582"><ele>540.0</ele><time>2026-04-23T12:56:19Z</time></trkpt><trkpt lat="36.815733423186934" lon="-4.618432736817813"><ele>539.0</ele><time>2026-04-23T12:56:20Z</time></trkpt><trkpt lat="36.815684294497395" lon="-4.618544029511041"><ele>538.0</ele><time>2026-04-23T12:56:21Z</time></trkpt><trkpt lat="36.81559712835423" lon="-4.618672503795568"><ele>534.6666666666667</ele><time>2026-04-23T12:56:22Z</time></trkpt><trkpt lat="36.81547909985253" lon="-4.618799486318332"><ele>531.3333333333334</ele><time>2026-04-23T12:56:23Z</time></trkpt><trkpt lat="36.81532231594448" lon="-4.6189264081806565"><ele>528.0</ele><time>2026-04-23T12:56:24Z</time></trkpt><trkpt lat="36.8151560942142" lon="-4.6190700754966425"><ele>531.6666666666666</ele><time>2026-04-23T12:56:25Z</time></trkpt><trkpt lat="36.81504334339601" lon="-4.619236721410029"><ele>535.3333333333333</ele><time>2026-04-23T12:56:26Z</time></trkpt><trkpt lat="36.81490609970664" lon="-4.619377590906985"><ele>539.0</ele><time>2026-04-23T12:56:27Z</time></trkpt><trkpt lat="36.81480119101623" lon="-4.619510023813816"><ele>539.0</ele><time>2026-04-23T12:56:28Z</time></trkpt><trkpt lat="36.81470700725739" lon="-4.619659245771458"><ele>539.0</ele><time>2026-04-23T12:56:29Z</time></trkpt><trkpt lat="36.8146687768107" lon="-4.6198182788872835"><ele>539.0</ele><time>2026-04-23T12:56:30Z</time></trkpt><trkpt lat="36.81461454255548" lon="-4.619991805375561"><ele>539.0</ele><time>2026-04-23T12:56:31Z</time></trkpt><trkpt lat="36.81457398651827" lon="-4.6201844385558655"><ele>539.25</ele><time>2026-04-23T12:56:32Z</time></trkpt><trkpt lat="36.81450903245981" lon="-4.620348659434506"><ele>539.5</ele><time>2026-04-23T12:56:33Z</time></trkpt><trkpt lat="36.81442438133798" lon="-4.620482135538107"><ele>539.75</ele><time>2026-04-23T12:56:34Z</time></trkpt><trkpt lat="36.814319583723" lon="-4.620581291959591"><ele>540.0</ele><time>2026-04-23T12:56:35Z</time></trkpt><trkpt lat="36.81421723540789" lon="-4.620644299260735"><ele>544.2</ele><time>2026-04-23T12:56:36Z</time></trkpt><trkpt lat="36.81416002984802" lon="-4.6207083980349655"><ele>548.4</ele><time>2026-04-23T12:56:37Z</time></trkpt><trkpt lat="36.81412762443108" lon="-4.62079606384465"><ele>552.6</ele><time>2026-04-23T12:56:38Z</time></trkpt><trkpt lat="36.81412016471249" lon="-4.62094497490446"><ele>556.8</ele><time>2026-04-23T12:56:39Z</time></trkpt><trkpt lat="36.814069824362015" lon="-4.621108019172879"><ele>561.0</ele><time>2026-04-23T12:56:40Z</time></trkpt><trkpt lat="36.81403683334287" lon="-4.62126392080577"><ele>564.0</ele><time>2026-04-23T12:56:41Z</time></trkpt><trkpt lat="36.8140203288058" lon="-4.621392908405323"><ele>567.0</ele><time>2026-04-23T12:56:42Z</time></trkpt><trkpt lat="36.814047433666246" lon="-4.621532196698156"><ele>570.0</ele><time>2026-04-23T12:56:43Z</time></trkpt><trkpt lat="36.814059399435564" lon="-4.62170045244227"><ele>573.0</ele><time>2026-04-23T12:56:44Z</time></trkpt><trkpt lat="36.8140781011471" lon="-4.621880762189152"><ele>572.75</ele><time>2026-04-23T12:56:45Z</time></trkpt><trkpt lat="36.814094137100255" lon="-4.622064694509037"><ele>572.5</ele><time>2026-04-23T12:56:46Z</time></trkpt><trkpt lat="36.81408113404966" lon="-4.622214441764993"><ele>572.25</ele><time>2026-04-23T12:56:47Z</time></trkpt><trkpt lat="36.814056927404685" lon="-4.622347368999471"><ele>572.0</ele><time>2026-04-23T12:56:48Z</time></trkpt><trkpt lat="36.813955058891246" lon="-4.622464264522801"><ele>572.0</ele><time>2026-04-23T12:56:49Z</time></trkpt><trkpt lat="36.81386864952737" lon="-4.622613690346962"><ele>572.0</ele><time>2026-04-23T12:56:50Z</time></trkpt><trkpt lat="36.81380585101207" lon="-4.622761170717242"><ele>572.0</ele><time>2026-04-23T12:56:51Z</time></trkpt><trkpt lat="36.81375905949433" lon="-4.622938723951541"><ele>572.0</ele><time>2026-04-23T12:56:52Z</time></trkpt><trkpt lat="36.81367268807828" lon="-4.623136700061972"><ele>572.3333333333333</ele><time>2026-04-23T12:56:53Z</time></trkpt><trkpt lat="36.81359085781639" lon="-4.623333926607204"><ele>572.6666666666666</ele><time>2026-04-23T12:56:54Z</time></trkpt><trkpt lat="36.813534444787095" lon="-4.623511994143199"><ele>573.0</ele><time>2026-04-23T12:56:55Z</time></trkpt><trkpt lat="36.81344864608724" lon="-4.623670559073454"><ele>573.0</ele><time>2026-04-23T12:56:56Z</time></trkpt><trkpt lat="36.813371703592885" lon="-4.6238583071447925"><ele>573.0</ele><time>2026-04-23T12:56:57Z</time></trkpt><trkpt lat="36.81326407044372" lon="-4.624025551725835"><ele>573.0</ele><time>2026-04-23T12:56:58Z</time></trkpt><trkpt lat="36.813189698731776" lon="-4.624189818475081"><ele>573.0</ele><time>2026-04-23T12:56:59Z</time></trkpt><trkpt lat="36.81315762528762" lon="-4.6243617703258035"><ele>573.0</ele><time>2026-04-23T12:57:00Z</time></trkpt><trkpt lat="36.81312075819036" lon="-4.624529069450758"><ele>573.0</ele><time>2026-04-23T12:57:01Z</time></trkpt><trkpt lat="36.813108695495195" lon="-4.62471205039167"><ele>573.0</ele><time>2026-04-23T12:57:02Z</time></trkpt><trkpt lat="36.81313641178097" lon="-4.624888751497202"><ele>573.8</ele><time>2026-04-23T12:57:03Z</time></trkpt><trkpt lat="36.81314718045498" lon="-4.625038619602527"><ele>574.5999999999999</ele><time>2026-04-23T12:57:04Z</time></trkpt><trkpt lat="36.81317807309911" lon="-4.625174824716479"><ele>575.4000000000001</ele><time>2026-04-23T12:57:05Z</time></trkpt><trkpt lat="36.813196278331425" lon="-4.625305486726597"><ele>576.2</ele><time>2026-04-23T12:57:06Z</time></trkpt><trkpt lat="36.813194558416605" lon="-4.625388167841582"><ele>577.0</ele><time>2026-04-23T12:57:07Z</time></trkpt><trkpt lat="36.813180483910294" lon="-4.625509444869834"><ele>577.75</ele><time>2026-04-23T12:57:09Z</time></trkpt><trkpt lat="36.8133038561162" lon="-4.625624712314845"><ele>578.5</ele><time>2026-04-23T12:57:11Z</time></trkpt><trkpt lat="36.813388161368145" lon="-4.625721888303508"><ele>579.25</ele><time>2026-04-23T12:57:12Z</time></trkpt><trkpt lat="36.81346889998171" lon="-4.625819130701814"><ele>580.0</ele><time>2026-04-23T12:57:13Z</time></trkpt><trkpt lat="36.81352821069284" lon="-4.625954141358023"><ele>579.25</ele><time>2026-04-23T12:57:14Z</time></trkpt><trkpt lat="36.8135722680711" lon="-4.62610792879153"><ele>578.5</ele><time>2026-04-23T12:57:15Z</time></trkpt><trkpt lat="36.81362640231989" lon="-4.626231935291976"><ele>577.75</ele><time>2026-04-23T12:57:16Z</time></trkpt><trkpt lat="36.8137080592696" lon="-4.62632267097591"><ele>577.0</ele><time>2026-04-23T12:57:17Z</time></trkpt><trkpt lat="36.81382300572748" lon="-4.626368065980255"><ele>577.0</ele><time>2026-04-23T12:57:18Z</time></trkpt><trkpt lat="36.813943500558665" lon="-4.626398646464765"><ele>577.0</ele><time>2026-04-23T12:57:19Z</time></trkpt><trkpt lat="36.814042559325124" lon="-4.6264622128717505"><ele>577.0</ele><time>2026-04-23T12:57:20Z</time></trkpt><trkpt lat="36.8141643093422" lon="-4.626512243508016"><ele>577.0</ele><time>2026-04-23T12:57:21Z</time></trkpt><trkpt lat="36.81428937640002" lon="-4.62658622880167"><ele>577.25</ele><time>2026-04-23T12:57:22Z</time></trkpt><trkpt lat="36.81439165211273" lon="-4.626659521986461"><ele>577.5</ele><time>2026-04-23T12:57:23Z</time></trkpt><trkpt lat="36.81445937769554" lon="-4.626723912123635"><ele>577.75</ele><time>2026-04-23T12:57:24Z</time></trkpt><trkpt lat="36.81451430907303" lon="-4.6268316069750695"><ele>578.0</ele><time>2026-04-23T12:57:25Z</time></trkpt><trkpt lat="36.814581101115174" lon="-4.626992729970449"><ele>578.0</ele><time>2026-04-23T12:57:26Z</time></trkpt><trkpt lat="36.81467113227006" lon="-4.627174247473013"><ele>578.0</ele><time>2026-04-23T12:57:27Z</time></trkpt><trkpt lat="36.814762485028" lon="-4.6273651670799385"><ele>578.0</ele><time>2026-04-23T12:57:28Z</time></trkpt><trkpt lat="36.81482991620938" lon="-4.6275455475810485"><ele>578.0</ele><time>2026-04-23T12:57:29Z</time></trkpt><trkpt lat="36.81490682159084" lon="-4.6276979648406344"><ele>578.0</ele><time>2026-04-23T12:57:30Z</time></trkpt><trkpt lat="36.81501626476454" lon="-4.627834761328903"><ele>578.0</ele><time>2026-04-23T12:57:31Z</time></trkpt><trkpt lat="36.815121496123766" lon="-4.627954025594345"><ele>578.0</ele><time>2026-04-23T12:57:32Z</time></trkpt><trkpt lat="36.815213905121155" lon="-4.628050486146793"><ele>580.3333333333333</ele><time>2026-04-23T12:57:33Z</time></trkpt><trkpt lat="36.815324713327335" lon="-4.628159079273584"><ele>582.6666666666666</ele><time>2026-04-23T12:57:34Z</time></trkpt><trkpt lat="36.81546693582385" lon="-4.628297165985262"><ele>585.0</ele><time>2026-04-23T12:57:34.999Z</time></trkpt><trkpt lat="36.81558590730922" lon="-4.628465222241924"><ele>582.6666666666666</ele><time>2026-04-23T12:57:35.999Z</time></trkpt><trkpt lat="36.81568631182652" lon="-4.628652019295061"><ele>580.3333333333333</ele><time>2026-04-23T12:57:36.999Z</time></trkpt><trkpt lat="36.81575326002384" lon="-4.628816101263098"><ele>578.0</ele><time>2026-04-23T12:57:37.999Z</time></trkpt><trkpt lat="36.81581158081009" lon="-4.628965511255477"><ele>578.0</ele><time>2026-04-23T12:57:38.999Z</time></trkpt><trkpt lat="36.815906177271735" lon="-4.62913513921506"><ele>578.0</ele><time>2026-04-23T12:57:39.999Z</time></trkpt><trkpt lat="36.816007900999196" lon="-4.629274595887026"><ele>578.0</ele><time>2026-04-23T12:57:40.999Z</time></trkpt><trkpt lat="36.81608850956993" lon="-4.629358122581386"><ele>578.0</ele><time>2026-04-23T12:57:41.999Z</time></trkpt><trkpt lat="36.816192606368155" lon="-4.629427680468286"><ele>579.75</ele><time>2026-04-23T12:57:42.999Z</time></trkpt><trkpt lat="36.816323860647245" lon="-4.629498013599717"><ele>581.5</ele><time>2026-04-23T12:57:43.999Z</time></trkpt><trkpt lat="36.81644775220546" lon="-4.629561683756999"><ele>583.25</ele><time>2026-04-23T12:57:44.999Z</time></trkpt><trkpt lat="36.81653707335229" lon="-4.629633074955974"><ele>585.0</ele><time>2026-04-23T12:57:45.999Z</time></trkpt><trkpt lat="36.8165973274889" lon="-4.6297351301807375"><ele>585.0</ele><time>2026-04-23T12:57:46.999Z</time></trkpt><trkpt lat="36.816641703899414" lon="-4.629883666739585"><ele>585.0</ele><time>2026-04-23T12:57:47.999Z</time></trkpt><trkpt lat="36.81665808862353" lon="-4.6300728368176225"><ele>585.0</ele><time>2026-04-23T12:57:48.999Z</time></trkpt><trkpt lat="36.81665150549529" lon="-4.630287687743155"><ele>586.0</ele><time>2026-04-23T12:57:49.999Z</time></trkpt><trkpt lat="36.81662818166901" lon="-4.630498680734371"><ele>587.0</ele><time>2026-04-23T12:57:50.999Z</time></trkpt><trkpt lat="36.81662291244692" lon="-4.63068305875928"><ele>588.0</ele><time>2026-04-23T12:57:51.999Z</time></trkpt><trkpt lat="36.81662407638151" lon="-4.630846854173441"><ele>589.0</ele><time>2026-04-23T12:57:52.999Z</time></trkpt><trkpt lat="36.816566669417675" lon="-4.630980724171358"><ele>589.0</ele><time>2026-04-23T12:57:53.999Z</time></trkpt><trkpt lat="36.81651428548895" lon="-4.631093307358946"><ele>589.0</ele><time>2026-04-23T12:57:54.999Z</time></trkpt><trkpt lat="36.81648397184994" lon="-4.63118464598844"><ele>589.0</ele><time>2026-04-23T12:57:55.999Z</time></trkpt><trkpt lat="36.81651681067822" lon="-4.631285432095602"><ele>589.0</ele><time>2026-04-23T12:57:56.999Z</time></trkpt><trkpt lat="36.81654541642675" lon="-4.631384295399144"><ele>589.0</ele><time>2026-04-23T12:57:57.999Z</time></trkpt><trkpt lat="36.816616277582526" lon="-4.631427336888914"><ele>589.0</ele><time>2026-04-23T12:57:59.001Z</time></trkpt><trkpt lat="36.81670984519605" lon="-4.631429116500408"><ele>588.75</ele><time>2026-04-23T12:58:00.001Z</time></trkpt><trkpt lat="36.81682976434293" lon="-4.631394274389965"><ele>588.5</ele><time>2026-04-23T12:58:01.001Z</time></trkpt><trkpt lat="36.81697028720561" lon="-4.631374910884847"><ele>588.25</ele><time>2026-04-23T12:58:02.001Z</time></trkpt><trkpt lat="36.81708178581141" lon="-4.631391437937361"><ele>588.0</ele><time>2026-04-23T12:58:03.001Z</time></trkpt><trkpt lat="36.81716862705989" lon="-4.631459671331222"><ele>588.0</ele><time>2026-04-23T12:58:04.001Z</time></trkpt><trkpt lat="36.81726220660124" lon="-4.631580153668433"><ele>588.0</ele><time>2026-04-23T12:58:05.001Z</time></trkpt><trkpt lat="36.817316822524184" lon="-4.631759924353404"><ele>588.0</ele><time>2026-04-23T12:58:06.001Z</time></trkpt><trkpt lat="36.8173821693954" lon="-4.631935740986113"><ele>588.0</ele><time>2026-04-23T12:58:07.001Z</time></trkpt><trkpt lat="36.817445076410195" lon="-4.632062063614076"><ele>584.6</ele><time>2026-04-23T12:58:08.001Z</time></trkpt><trkpt lat="36.81750019108988" lon="-4.632155394839702"><ele>581.1999999999999</ele><time>2026-04-23T12:58:09.001Z</time></trkpt><trkpt lat="36.81755238631854" lon="-4.632221772883849"><ele>577.8</ele><time>2026-04-23T12:58:10Z</time></trkpt><trkpt lat="36.81760308217052" lon="-4.6322810864734745"><ele>574.4</ele><time>2026-04-23T12:58:11Z</time></trkpt><trkpt lat="36.81765240547609" lon="-4.632385375018081"><ele>571.0</ele><time>2026-04-23T12:58:12Z</time></trkpt><trkpt lat="36.81771425255603" lon="-4.632509047222807"><ele>568.75</ele><time>2026-04-23T12:58:13Z</time></trkpt><trkpt lat="36.817756494707815" lon="-4.632636558456946"><ele>566.5</ele><time>2026-04-23T12:58:14Z</time></trkpt><trkpt lat="36.81776301189427" lon="-4.632783708311356"><ele>564.25</ele><time>2026-04-23T12:58:15Z</time></trkpt><trkpt lat="36.81774658940464" lon="-4.6329283566236406"><ele>562.0</ele><time>2026-04-23T12:58:16Z</time></trkpt><trkpt lat="36.81773386488484" lon="-4.63307705553593"><ele>562.0</ele><time>2026-04-23T12:58:17Z</time></trkpt><trkpt lat="36.81772847459293" lon="-4.633216521132114"><ele>562.0</ele><time>2026-04-23T12:58:18Z</time></trkpt><trkpt lat="36.81771951334473" lon="-4.633352926456036"><ele>562.0</ele><time>2026-04-23T12:58:19Z</time></trkpt><trkpt lat="36.817694220204935" lon="-4.633480507540615"><ele>562.0</ele><time>2026-04-23T12:58:20Z</time></trkpt><trkpt lat="36.8176653494342" lon="-4.633585474645303"><ele>562.0</ele><time>2026-04-23T12:58:21Z</time></trkpt><trkpt lat="36.81765823610834" lon="-4.63368174149448"><ele>559.8333333333334</ele><time>2026-04-23T12:58:22Z</time></trkpt><trkpt lat="36.81764602840066" lon="-4.633766242257856"><ele>557.6666666666667</ele><time>2026-04-23T12:58:23Z</time></trkpt><trkpt lat="36.817681120239044" lon="-4.633862835792542"><ele>555.5</ele><time>2026-04-23T12:58:24Z</time></trkpt><trkpt lat="36.81774688243796" lon="-4.633958970525396"><ele>553.3333333333334</ele><time>2026-04-23T12:58:25Z</time></trkpt><trkpt lat="36.81782069781301" lon="-4.634019701209028"><ele>551.1666666666666</ele><time>2026-04-23T12:58:26Z</time></trkpt><trkpt lat="36.81790373636627" lon="-4.634035911962874"><ele>549.0</ele><time>2026-04-23T12:58:27Z</time></trkpt><trkpt lat="36.818008023151386" lon="-4.634035108510884"><ele>549.0</ele><time>2026-04-23T12:58:28Z</time></trkpt><trkpt lat="36.81812214604726" lon="-4.63402891449723"><ele>549.0</ele><time>2026-04-23T12:58:29Z</time></trkpt><trkpt lat="36.818223128832344" lon="-4.63403932564589"><ele>549.0</ele><time>2026-04-23T12:58:30Z</time></trkpt><trkpt lat="36.818306853607375" lon="-4.634083975678397"><ele>549.0</ele><time>2026-04-23T12:58:31Z</time></trkpt><trkpt lat="36.818404355829436" lon="-4.6341691044802165"><ele>549.0</ele><time>2026-04-23T12:58:32Z</time></trkpt><trkpt lat="36.81849717384853" lon="-4.634274294396572"><ele>549.2</ele><time>2026-04-23T12:58:33Z</time></trkpt><trkpt lat="36.818580335129376" lon="-4.634368837709402"><ele>549.4</ele><time>2026-04-23T12:58:34Z</time></trkpt><trkpt lat="36.81866247411222" lon="-4.634442406814925"><ele>549.6</ele><time>2026-04-23T12:58:35Z</time></trkpt><trkpt lat="36.81874764263315" lon="-4.63449447052601"><ele>549.8</ele><time>2026-04-23T12:58:36Z</time></trkpt><trkpt lat="36.81883289294487" lon="-4.634524858031997"><ele>550.0</ele><time>2026-04-23T12:58:37Z</time></trkpt><trkpt lat="36.81891313153388" lon="-4.634551261284417"><ele>547.6666666666667</ele><time>2026-04-23T12:58:38Z</time></trkpt><trkpt lat="36.818985189511515" lon="-4.634599289143408"><ele>545.3333333333334</ele><time>2026-04-23T12:58:39Z</time></trkpt><trkpt lat="36.819039334898235" lon="-4.63466686073805"><ele>543.0</ele><time>2026-04-23T12:58:40Z</time></trkpt><trkpt lat="36.81909191009489" lon="-4.634736468451578"><ele>540.6666666666666</ele><time>2026-04-23T12:58:41Z</time></trkpt><trkpt lat="36.81913639365567" lon="-4.634814293541524"><ele>538.3333333333333</ele><time>2026-04-23T12:58:42Z</time></trkpt><trkpt lat="36.81916227860193" lon="-4.634920150356836"><ele>536.0</ele><time>2026-04-23T12:58:43Z</time></trkpt><trkpt lat="36.819159588193294" lon="-4.6350406178069745"><ele>536.0</ele><time>2026-04-23T12:58:44Z</time></trkpt><trkpt lat="36.81912840702323" lon="-4.63517897518491"><ele>536.0</ele><time>2026-04-23T12:58:45Z</time></trkpt><trkpt lat="36.81908716450312" lon="-4.635326055776879"><ele>536.0</ele><time>2026-04-23T12:58:46Z</time></trkpt><trkpt lat="36.819040978446125" lon="-4.635452942077907"><ele>536.0</ele><time>2026-04-23T12:58:47Z</time></trkpt><trkpt lat="36.81898471595931" lon="-4.635553157187899"><ele>536.0</ele><time>2026-04-23T12:58:48Z</time></trkpt><trkpt lat="36.81894161762925" lon="-4.635625896836666"><ele>532.2</ele><time>2026-04-23T12:58:49Z</time></trkpt><trkpt lat="36.818924790663566" lon="-4.635727359907837"><ele>528.4000000000001</ele><time>2026-04-23T12:58:50Z</time></trkpt><trkpt lat="36.81894238128695" lon="-4.635857818332384"><ele>524.6</ele><time>2026-04-23T12:58:51Z</time></trkpt><trkpt lat="36.81897037392105" lon="-4.6360033320762595"><ele>520.8000000000001</ele><time>2026-04-23T12:58:52Z</time></trkpt><trkpt lat="36.818988154954006" lon="-4.636140579016299"><ele>517.0</ele><time>2026-04-23T12:58:53Z</time></trkpt><trkpt lat="36.81901117051258" lon="-4.636281219713404"><ele>514.4</ele><time>2026-04-23T12:58:54Z</time></trkpt><trkpt lat="36.819050344200996" lon="-4.636411274494854"><ele>511.80000000000007</ele><time>2026-04-23T12:58:55Z</time></trkpt><trkpt lat="36.819089795696534" lon="-4.636516678715835"><ele>509.2</ele><time>2026-04-23T12:58:56Z</time></trkpt><trkpt lat="36.81913706656784" lon="-4.636631682579972"><ele>506.6</ele><time>2026-04-23T12:58:57Z</time></trkpt><trkpt lat="36.81918830741281" lon="-4.636777853815632"><ele>504.0</ele><time>2026-04-23T12:58:58Z</time></trkpt><trkpt lat="36.81923185973245" lon="-4.636919567231983"><ele>505.0</ele><time>2026-04-23T12:58:59Z</time></trkpt><trkpt lat="36.81928721600517" lon="-4.637076280314931"><ele>506.0</ele><time>2026-04-23T12:59:00Z</time></trkpt><trkpt lat="36.8193565968356" lon="-4.637225936807823"><ele>507.0</ele><time>2026-04-23T12:59:01Z</time></trkpt><trkpt lat="36.81942462724053" lon="-4.63735711884786"><ele>508.0</ele><time>2026-04-23T12:59:02Z</time></trkpt><trkpt lat="36.819479051347116" lon="-4.63746208343514"><ele>502.33333333333337</ele><time>2026-04-23T12:59:03Z</time></trkpt><trkpt lat="36.81951559073482" lon="-4.637546242694965"><ele>496.6666666666667</ele><time>2026-04-23T12:59:04Z</time></trkpt><trkpt lat="36.81953994373848" lon="-4.637644367331579"><ele>491.0</ele><time>2026-04-23T12:59:06Z</time></trkpt><trkpt lat="36.81948532828346" lon="-4.637709933816944"><ele>485.33333333333337</ele><time>2026-04-23T13:22:02.999Z</time></trkpt><trkpt lat="36.819457888476094" lon="-4.637825615660956"><ele>479.6666666666667</ele><time>2026-04-23T13:22:04.999Z</time></trkpt><trkpt lat="36.81944971008564" lon="-4.637920181882364"><ele>474.0</ele><time>2026-04-23T13:22:05.999Z</time></trkpt><trkpt lat="36.819429958993496" lon="-4.63802870721855"><ele>474.0</ele><time>2026-04-23T13:22:06.999Z</time></trkpt><trkpt lat="36.81940778369763" lon="-4.638151593037847"><ele>474.0</ele><time>2026-04-23T13:22:07.999Z</time></trkpt><trkpt lat="36.81938397794452" lon="-4.638276390980889"><ele>474.0</ele><time>2026-04-23T13:22:08.999Z</time></trkpt><trkpt lat="36.819367711192356" lon="-4.6383866744693725"><ele>474.0</ele><time>2026-04-23T13:22:09.999Z</time></trkpt><trkpt lat="36.81935572501376" lon="-4.638492459275305"><ele>474.0</ele><time>2026-04-23T13:22:10.999Z</time></trkpt><trkpt lat="36.8193397842939" lon="-4.638607495787855"><ele>473.8333333333333</ele><time>2026-04-23T13:22:11.999Z</time></trkpt><trkpt lat="36.8193243576786" lon="-4.638713243807795"><ele>473.66666666666663</ele><time>2026-04-23T13:22:12.999Z</time></trkpt><trkpt lat="36.81930588667519" lon="-4.638811860179475"><ele>473.5</ele><time>2026-04-23T13:22:13.999Z</time></trkpt><trkpt lat="36.819283930366396" lon="-4.6389067127420995"><ele>473.3333333333333</ele><time>2026-04-23T13:22:14.999Z</time></trkpt><trkpt lat="36.81926608171344" lon="-4.63900605418257"><ele>473.16666666666663</ele><time>2026-04-23T13:22:15.999Z</time></trkpt><trkpt lat="36.81925202326335" lon="-4.63911040025882"><ele>473.0</ele><time>2026-04-23T13:22:16.999Z</time></trkpt><trkpt lat="36.819236017462885" lon="-4.639215088556291"><ele>473.79999999999995</ele><time>2026-04-23T13:22:17.999Z</time></trkpt><trkpt lat="36.81922351828866" lon="-4.639321462478885"><ele>474.59999999999997</ele><time>2026-04-23T13:22:18.999Z</time></trkpt><trkpt lat="36.819206131105275" lon="-4.639450246733175"><ele>475.40000000000003</ele><time>2026-04-23T13:22:19.999Z</time></trkpt><trkpt lat="36.81919274321398" lon="-4.639580272609054"><ele>476.20000000000005</ele><time>2026-04-23T13:22:20.999Z</time></trkpt><trkpt lat="36.81918130499925" lon="-4.6397046484216835"><ele>477.0</ele><time>2026-04-23T13:22:21.999Z</time></trkpt><trkpt lat="36.819168563875785" lon="-4.63982945274556"><ele>477.0</ele><time>2026-04-23T13:22:22.999Z</time></trkpt><trkpt lat="36.819147266565835" lon="-4.639963815155272"><ele>477.00000000000006</ele><time>2026-04-23T13:22:23.999Z</time></trkpt><trkpt lat="36.81913296597307" lon="-4.64009875667101"><ele>477.00000000000006</ele><time>2026-04-23T13:22:24.999Z</time></trkpt><trkpt lat="36.819137559683774" lon="-4.640223797993201"><ele>477.0</ele><time>2026-04-23T13:22:25.999Z</time></trkpt><trkpt lat="36.81914521680082" lon="-4.640353275160842"><ele>477.0</ele><time>2026-04-23T13:22:26.999Z</time></trkpt><trkpt lat="36.81916416295741" lon="-4.640493165410369"><ele>475.20000000000005</ele><time>2026-04-23T13:22:27.999Z</time></trkpt><trkpt lat="36.81918864831257" lon="-4.640624277397153"><ele>473.40000000000003</ele><time>2026-04-23T13:22:28.999Z</time></trkpt><trkpt lat="36.81922110111305" lon="-4.640737982770559"><ele>471.59999999999997</ele><time>2026-04-23T13:22:29.999Z</time></trkpt><trkpt lat="36.819237082948796" lon="-4.640847604739083"><ele>469.79999999999995</ele><time>2026-04-23T13:22:30.999Z</time></trkpt><trkpt lat="36.819259707236114" lon="-4.640946596127896"><ele>468.0</ele><time>2026-04-23T13:22:31.999Z</time></trkpt><trkpt lat="36.81928873355987" lon="-4.64103993332028"><ele>463.0</ele><time>2026-04-23T13:22:32.999Z</time></trkpt><trkpt lat="36.81932581799002" lon="-4.641120638348291"><ele>457.99999999999994</ele><time>2026-04-23T13:22:33.999Z</time></trkpt><trkpt lat="36.81936588482651" lon="-4.641209568866301"><ele>452.99999999999994</ele><time>2026-04-23T13:22:34.999Z</time></trkpt><trkpt lat="36.81939365079994" lon="-4.6413083274347935"><ele>448.0</ele><time>2026-04-23T13:22:35.999Z</time></trkpt><trkpt lat="36.81940015160322" lon="-4.641442492155152"><ele>443.0</ele><time>2026-04-23T13:22:36.999Z</time></trkpt><trkpt lat="36.81938890438716" lon="-4.6415731001937415"><ele>443.0</ele><time>2026-04-23T13:22:37.999Z</time></trkpt><trkpt lat="36.81939096138917" lon="-4.641702254162719"><ele>442.99999999999994</ele><time>2026-04-23T13:22:38.999Z</time></trkpt><trkpt lat="36.81940439611637" lon="-4.641827141712766"><ele>442.99999999999994</ele><time>2026-04-23T13:22:39.999Z</time></trkpt><trkpt lat="36.81941161121841" lon="-4.6419382926972"><ele>443.0</ele><time>2026-04-23T13:22:40.999Z</time></trkpt><trkpt lat="36.81942292729771" lon="-4.6420370119477825"><ele>443.0</ele><time>2026-04-23T13:22:41.999Z</time></trkpt><trkpt lat="36.81945809743381" lon="-4.64213677414832"><ele>442.4</ele><time>2026-04-23T13:22:42.999Z</time></trkpt><trkpt lat="36.819508982299276" lon="-4.642228577488858"><ele>441.79999999999995</ele><time>2026-04-23T13:22:43.999Z</time></trkpt><trkpt lat="36.81956119467551" lon="-4.642312088883787"><ele>441.2</ele><time>2026-04-23T13:22:44.999Z</time></trkpt><trkpt lat="36.819606632457976" lon="-4.642398676268559"><ele>440.6</ele><time>2026-04-23T13:22:45.998Z</time></trkpt><trkpt lat="36.81968060000035" lon="-4.642468152974359"><ele>440.0</ele><time>2026-04-23T13:22:46.998Z</time></trkpt><trkpt lat="36.81977544395501" lon="-4.642520305899813"><ele>440.0</ele><time>2026-04-23T13:22:47.998Z</time></trkpt><trkpt lat="36.81985639080555" lon="-4.642572438573659"><ele>440.0</ele><time>2026-04-23T13:22:48.998Z</time></trkpt><trkpt lat="36.819920574321266" lon="-4.642636132483916"><ele>440.0</ele><time>2026-04-23T13:22:49.998Z</time></trkpt><trkpt lat="36.81996646122009" lon="-4.642692820926326"><ele>440.0</ele><time>2026-04-23T13:22:50.998Z</time></trkpt><trkpt lat="36.82001257775885" lon="-4.642845279435067"><ele>440.0</ele><time>2026-04-23T13:22:52.998Z</time></trkpt><trkpt lat="36.81999819655252" lon="-4.642968297034315"><ele>439.6</ele><time>2026-04-23T13:22:53.998Z</time></trkpt><trkpt lat="36.819977832209254" lon="-4.64309149404176"><ele>439.2</ele><time>2026-04-23T13:22:54.998Z</time></trkpt><trkpt lat="36.81998165838477" lon="-4.643226379142988"><ele>438.79999999999995</ele><time>2026-04-23T13:22:55.998Z</time></trkpt><trkpt lat="36.82001342224407" lon="-4.643350334769407"><ele>438.4</ele><time>2026-04-23T13:22:56.998Z</time></trkpt><trkpt lat="36.820065114521725" lon="-4.643470962795332"><ele>438.0</ele><time>2026-04-23T13:22:57.998Z</time></trkpt><trkpt lat="36.820109919777266" lon="-4.643582695221448"><ele>437.4</ele><time>2026-04-23T13:22:58.998Z</time></trkpt><trkpt lat="36.82013095442403" lon="-4.643694497546206"><ele>436.79999999999995</ele><time>2026-04-23T13:22:59.998Z</time></trkpt><trkpt lat="36.820123485766665" lon="-4.6438177265142455"><ele>436.2</ele><time>2026-04-23T13:23:00.998Z</time></trkpt><trkpt lat="36.82011165652705" lon="-4.64395913464814"><ele>435.6</ele><time>2026-04-23T13:23:01.998Z</time></trkpt><trkpt lat="36.820114431516416" lon="-4.644098966219863"><ele>435.0</ele><time>2026-04-23T13:23:02.998Z</time></trkpt><trkpt lat="36.82011570872425" lon="-4.644226747032351"><ele>435.0</ele><time>2026-04-23T13:23:03.998Z</time></trkpt><trkpt lat="36.82011480280193" lon="-4.644331515075789"><ele>435.0</ele><time>2026-04-23T13:23:04.998Z</time></trkpt><trkpt lat="36.82011660975393" lon="-4.6444321553303975"><ele>435.0</ele><time>2026-04-23T13:23:05.998Z</time></trkpt><trkpt lat="36.82014410737291" lon="-4.644526961543535"><ele>435.0</ele><time>2026-04-23T13:23:06.998Z</time></trkpt><trkpt lat="36.82020549677396" lon="-4.644649940474074"><ele>435.0</ele><time>2026-04-23T13:23:07.998Z</time></trkpt><trkpt lat="36.82029075462179" lon="-4.644771005676664"><ele>435.0</ele><time>2026-04-23T13:23:08.998Z</time></trkpt><trkpt lat="36.82037614777628" lon="-4.644896052115301"><ele>435.0</ele><time>2026-04-23T13:23:09.998Z</time></trkpt><trkpt lat="36.82043968346453" lon="-4.645037764839127"><ele>435.0</ele><time>2026-04-23T13:23:10.998Z</time></trkpt><trkpt lat="36.8204779971693" lon="-4.645187129012632"><ele>435.0</ele><time>2026-04-23T13:23:11.998Z</time></trkpt><trkpt lat="36.82050481192872" lon="-4.645341965463952"><ele>435.0</ele><time>2026-04-23T13:23:12.998Z</time></trkpt><trkpt lat="36.820538886691786" lon="-4.645496909938609"><ele>435.0</ele><time>2026-04-23T13:23:13.998Z</time></trkpt><trkpt lat="36.820599465884754" lon="-4.64565327805727"><ele>435.0</ele><time>2026-04-23T13:23:14.998Z</time></trkpt><trkpt lat="36.820663238913134" lon="-4.645792221192007"><ele>435.0</ele><time>2026-04-23T13:23:15.998Z</time></trkpt><trkpt lat="36.82071316991757" lon="-4.645934500368646"><ele>435.0</ele><time>2026-04-23T13:23:16.998Z</time></trkpt><trkpt lat="36.82073163687588" lon="-4.646085876872962"><ele>435.0</ele><time>2026-04-23T13:23:17.999Z</time></trkpt><trkpt lat="36.820736977111636" lon="-4.6462207580416806"><ele>435.0</ele><time>2026-04-23T13:23:18.999Z</time></trkpt><trkpt lat="36.820754649374166" lon="-4.646327347258473"><ele>435.0</ele><time>2026-04-23T13:23:19.999Z</time></trkpt><trkpt lat="36.82079614230807" lon="-4.646401682019698"><ele>435.0</ele><time>2026-04-23T13:23:20.999Z</time></trkpt><trkpt lat="36.82085763631131" lon="-4.646470753313366"><ele>434.0</ele><time>2026-04-23T13:23:21.999Z</time></trkpt><trkpt lat="36.82092620104124" lon="-4.646547246314556"><ele>433.0</ele><time>2026-04-23T13:23:22.999Z</time></trkpt><trkpt lat="36.8209844275335" lon="-4.646631874714015"><ele>432.0</ele><time>2026-04-23T13:23:23.999Z</time></trkpt><trkpt lat="36.82103284235967" lon="-4.646734240582015"><ele>431.0</ele><time>2026-04-23T13:23:24.999Z</time></trkpt><trkpt lat="36.82107086358303" lon="-4.646853886473239"><ele>430.0</ele><time>2026-04-23T13:23:25.999Z</time></trkpt><trkpt lat="36.82110716581231" lon="-4.646992722985553"><ele>424.25</ele><time>2026-04-23T13:23:26.999Z</time></trkpt><trkpt lat="36.82114430862651" lon="-4.647119494083458"><ele>418.5</ele><time>2026-04-23T13:23:27.999Z</time></trkpt><trkpt lat="36.82119073468109" lon="-4.64725106125959"><ele>412.75</ele><time>2026-04-23T13:23:28.999Z</time></trkpt><trkpt lat="36.82125124254769" lon="-4.64737321856529"><ele>407.0</ele><time>2026-04-23T13:23:29.999Z</time></trkpt><trkpt lat="36.82132251076796" lon="-4.6474852617251585"><ele>407.0</ele><time>2026-04-23T13:23:30.999Z</time></trkpt><trkpt lat="36.82139064057127" lon="-4.647594197461899"><ele>407.0</ele><time>2026-04-23T13:23:31.999Z</time></trkpt><trkpt lat="36.821455588266716" lon="-4.647707850577182"><ele>407.0</ele><time>2026-04-23T13:23:32.999Z</time></trkpt><trkpt lat="36.821506381070094" lon="-4.647831712144265"><ele>407.0</ele><time>2026-04-23T13:23:33.999Z</time></trkpt><trkpt lat="36.82155737894715" lon="-4.647956892397001"><ele>407.0</ele><time>2026-04-23T13:23:34.999Z</time></trkpt><trkpt lat="36.821624707202844" lon="-4.648064122009482"><ele>406.5</ele><time>2026-04-23T13:23:35.999Z</time></trkpt><trkpt lat="36.82171877754535" lon="-4.648144573198031"><ele>406.0</ele><time>2026-04-23T13:23:36.999Z</time></trkpt><trkpt lat="36.821803529649586" lon="-4.6482524760004855"><ele>405.5</ele><time>2026-04-23T13:23:37.999Z</time></trkpt><trkpt lat="36.82191576142575" lon="-4.648349396073516"><ele>405.0</ele><time>2026-04-23T13:23:38.999Z</time></trkpt><trkpt lat="36.822018937281676" lon="-4.648454630806081"><ele>405.0</ele><time>2026-04-23T13:23:39.999Z</time></trkpt><trkpt lat="36.822117520121175" lon="-4.648558679354994"><ele>405.0</ele><time>2026-04-23T13:23:40.999Z</time></trkpt><trkpt lat="36.82222261358057" lon="-4.648654550592873"><ele>405.0</ele><time>2026-04-23T13:23:41.999Z</time></trkpt><trkpt lat="36.82232009549132" lon="-4.648739018968985"><ele>405.0</ele><time>2026-04-23T13:23:42.999Z</time></trkpt><trkpt lat="36.822405411571" lon="-4.648810117783335"><ele>405.0</ele><time>2026-04-23T13:23:43.999Z</time></trkpt><trkpt lat="36.82249086689742" lon="-4.648894044444622"><ele>405.0</ele><time>2026-04-23T13:23:44.999Z</time></trkpt><trkpt lat="36.822564343580396" lon="-4.649013213514138"><ele>405.0</ele><time>2026-04-23T13:23:45.999Z</time></trkpt><trkpt lat="36.82262704606213" lon="-4.64915964400136"><ele>405.0</ele><time>2026-04-23T13:23:46.999Z</time></trkpt><trkpt lat="36.82267262744694" lon="-4.649304675379707"><ele>403.8</ele><time>2026-04-23T13:23:47.999Z</time></trkpt><trkpt lat="36.82270859536871" lon="-4.649430736280712"><ele>402.6</ele><time>2026-04-23T13:23:48.999Z</time></trkpt><trkpt lat="36.82275357411843" lon="-4.649525566151155"><ele>401.4</ele><time>2026-04-23T13:23:49.999Z</time></trkpt><trkpt lat="36.82281350436834" lon="-4.649615072565727"><ele>400.2</ele><time>2026-04-23T13:23:50.999Z</time></trkpt><trkpt lat="36.82290930650256" lon="-4.649697758142807"><ele>399.0</ele><time>2026-04-23T13:23:51.999Z</time></trkpt><trkpt lat="36.82300253451265" lon="-4.649792996111179"><ele>399.0</ele><time>2026-04-23T13:23:52.999Z</time></trkpt><trkpt lat="36.823071824653454" lon="-4.649915663996507"><ele>399.0</ele><time>2026-04-23T13:23:53.999Z</time></trkpt><trkpt lat="36.8231198985933" lon="-4.650050868369138"><ele>399.0</ele><time>2026-04-23T13:23:54.999Z</time></trkpt><trkpt lat="36.82315471804513" lon="-4.650194451108316"><ele>399.0</ele><time>2026-04-23T13:23:55.999Z</time></trkpt><trkpt lat="36.82317723774721" lon="-4.650335310172993"><ele>400.0</ele><time>2026-04-23T13:23:56.999Z</time></trkpt><trkpt lat="36.82318013029633" lon="-4.650481669904249"><ele>401.0</ele><time>2026-04-23T13:23:57.999Z</time></trkpt><trkpt lat="36.823185709355094" lon="-4.650631380394256"><ele>402.0</ele><time>2026-04-23T13:23:58.999Z</time></trkpt><trkpt lat="36.82321447789109" lon="-4.650782858708625"><ele>403.0</ele><time>2026-04-23T13:23:59.999Z</time></trkpt><trkpt lat="36.82328606540839" lon="-4.650895704695798"><ele>403.0</ele><time>2026-04-23T13:24:00.999Z</time></trkpt><trkpt lat="36.82331811818714" lon="-4.651026105415812"><ele>403.0</ele><time>2026-04-23T13:24:01.999Z</time></trkpt><trkpt lat="36.823362249522525" lon="-4.651157895705707"><ele>403.0</ele><time>2026-04-23T13:24:02.999Z</time></trkpt><trkpt lat="36.82339218823744" lon="-4.651306405877494"><ele>403.0</ele><time>2026-04-23T13:24:03.999Z</time></trkpt><trkpt lat="36.823411373647424" lon="-4.65145693045479"><ele>403.4</ele><time>2026-04-23T13:24:04.999Z</time></trkpt><trkpt lat="36.82342982357435" lon="-4.651587672184203"><ele>403.79999999999995</ele><time>2026-04-23T13:24:05.999Z</time></trkpt><trkpt lat="36.82345201734249" lon="-4.6517102492803115"><ele>404.2</ele><time>2026-04-23T13:24:06.999Z</time></trkpt><trkpt lat="36.82349963802699" lon="-4.651826075408898"><ele>404.6</ele><time>2026-04-23T13:24:07.999Z</time></trkpt><trkpt lat="36.823589306201434" lon="-4.651908674234724"><ele>405.0</ele><time>2026-04-23T13:24:08.999Z</time></trkpt><trkpt lat="36.82368826893283" lon="-4.651995922134452"><ele>410.0</ele><time>2026-04-23T13:24:09.999Z</time></trkpt><trkpt lat="36.82380827066589" lon="-4.6520430687155425"><ele>415.0</ele><time>2026-04-23T13:24:10.999Z</time></trkpt><trkpt lat="36.82392794467498" lon="-4.65208627333056"><ele>420.0</ele><time>2026-04-23T13:24:11.999Z</time></trkpt><trkpt lat="36.82403153733345" lon="-4.652155933896048"><ele>425.0</ele><time>2026-04-23T13:24:12.999Z</time></trkpt><trkpt lat="36.82413110875168" lon="-4.652253835060428"><ele>425.0</ele><time>2026-04-23T13:24:13.999Z</time></trkpt><trkpt lat="36.824240610161326" lon="-4.652321910232413"><ele>425.0</ele><time>2026-04-23T13:24:14.999Z</time></trkpt><trkpt lat="36.8243603506916" lon="-4.652318689238326"><ele>425.0</ele><time>2026-04-23T13:24:15.999Z</time></trkpt><trkpt lat="36.82446042866007" lon="-4.652356453296635"><ele>425.0</ele><time>2026-04-23T13:24:16.999Z</time></trkpt><trkpt lat="36.82455455366099" lon="-4.652413664502689"><ele>424.4</ele><time>2026-04-23T13:24:17.999Z</time></trkpt><trkpt lat="36.824639839444416" lon="-4.652494705759577"><ele>423.8</ele><time>2026-04-23T13:24:18.999Z</time></trkpt><trkpt lat="36.82472348434947" lon="-4.652576506588912"><ele>423.20000000000005</ele><time>2026-04-23T13:24:19.999Z</time></trkpt><trkpt lat="36.82481815275118" lon="-4.652626724407182"><ele>422.6</ele><time>2026-04-23T13:24:20.998Z</time></trkpt><trkpt lat="36.82490987879935" lon="-4.652610818520922"><ele>422.0</ele><time>2026-04-23T13:24:21.998Z</time></trkpt><trkpt lat="36.82499835001335" lon="-4.652534227343712"><ele>422.0</ele><time>2026-04-23T13:24:22.998Z</time></trkpt><trkpt lat="36.82510042653324" lon="-4.6524711259244675"><ele>422.0</ele><time>2026-04-23T13:24:23.998Z</time></trkpt><trkpt lat="36.8251848068605" lon="-4.652409697851558"><ele>422.0</ele><time>2026-04-23T13:24:24.998Z</time></trkpt><trkpt lat="36.82526029822355" lon="-4.65237783273368"><ele>422.0</ele><time>2026-04-23T13:24:25.998Z</time></trkpt><trkpt lat="36.825346232462735" lon="-4.652391717594659"><ele>422.0</ele><time>2026-04-23T13:24:26.998Z</time></trkpt><trkpt lat="36.82544858455158" lon="-4.652446750484796"><ele>423.5</ele><time>2026-04-23T13:24:27.998Z</time></trkpt><trkpt lat="36.82555091829486" lon="-4.652546278930529"><ele>425.0</ele><time>2026-04-23T13:24:28.998Z</time></trkpt><trkpt lat="36.82564669657916" lon="-4.65265538557628"><ele>426.5</ele><time>2026-04-23T13:24:29.998Z</time></trkpt><trkpt lat="36.825745145422665" lon="-4.652775906089973"><ele>428.0</ele><time>2026-04-23T13:24:30.998Z</time></trkpt><trkpt lat="36.82583046627268" lon="-4.652914526949624"><ele>428.75</ele><time>2026-04-23T13:24:31.998Z</time></trkpt><trkpt lat="36.82591017929401" lon="-4.653041499559049"><ele>429.5</ele><time>2026-04-23T13:24:32.998Z</time></trkpt><trkpt lat="36.82599417648544" lon="-4.653148091778617"><ele>430.25</ele><time>2026-04-23T13:24:33.998Z</time></trkpt><trkpt lat="36.826070523367676" lon="-4.653236696982757"><ele>431.0</ele><time>2026-04-23T13:24:34.998Z</time></trkpt><trkpt lat="36.826124809046526" lon="-4.653350697694902"><ele>431.6</ele><time>2026-04-23T13:24:35.998Z</time></trkpt><trkpt lat="36.826150764246684" lon="-4.653484694325072"><ele>432.20000000000005</ele><time>2026-04-23T13:24:36.998Z</time></trkpt><trkpt lat="36.82614399239723" lon="-4.653609545823653"><ele>432.79999999999995</ele><time>2026-04-23T13:24:37.998Z</time></trkpt><trkpt lat="36.8260948112482" lon="-4.653726556539672"><ele>433.4</ele><time>2026-04-23T13:24:38.998Z</time></trkpt><trkpt lat="36.826038471323336" lon="-4.653834144259319"><ele>434.0</ele><time>2026-04-23T13:24:39.998Z</time></trkpt><trkpt lat="36.82601405942763" lon="-4.653939984023168"><ele>434.2</ele><time>2026-04-23T13:24:40.998Z</time></trkpt><trkpt lat="36.82603223913844" lon="-4.654060581416723"><ele>434.4</ele><time>2026-04-23T13:24:41.998Z</time></trkpt><trkpt lat="36.826073018535766" lon="-4.65418479063212"><ele>434.6</ele><time>2026-04-23T13:24:42.998Z</time></trkpt><trkpt lat="36.826124501941386" lon="-4.654303406838802"><ele>434.8</ele><time>2026-04-23T13:24:43.998Z</time></trkpt><trkpt lat="36.826210460188" lon="-4.65440207358344"><ele>435.0</ele><time>2026-04-23T13:24:44.998Z</time></trkpt><trkpt lat="36.82629784789795" lon="-4.654493471883938"><ele>438.25</ele><time>2026-04-23T13:24:45.998Z</time></trkpt><trkpt lat="36.826372968801934" lon="-4.654609010454454"><ele>441.5</ele><time>2026-04-23T13:24:46.998Z</time></trkpt><trkpt lat="36.826436243527965" lon="-4.65474232272993"><ele>444.75</ele><time>2026-04-23T13:24:47.998Z</time></trkpt><trkpt lat="36.8264966157424" lon="-4.654886308880738"><ele>448.0</ele><time>2026-04-23T13:24:48.998Z</time></trkpt><trkpt lat="36.826544759356786" lon="-4.655030833307733"><ele>448.0</ele><time>2026-04-23T13:24:49.998Z</time></trkpt><trkpt lat="36.82658338405946" lon="-4.655158263249972"><ele>447.99999999999994</ele><time>2026-04-23T13:24:50.998Z</time></trkpt><trkpt lat="36.826631813956354" lon="-4.65527268012466"><ele>447.99999999999994</ele><time>2026-04-23T13:24:51.998Z</time></trkpt><trkpt lat="36.826711062297186" lon="-4.655377894857838"><ele>448.0</ele><time>2026-04-23T13:24:52.998Z</time></trkpt><trkpt lat="36.82679730933337" lon="-4.655464944081536"><ele>448.0</ele><time>2026-04-23T13:24:53.998Z</time></trkpt><trkpt lat="36.82686163517624" lon="-4.65552488302546"><ele>448.0</ele><time>2026-04-23T13:24:54.998Z</time></trkpt><trkpt lat="36.8268755463797" lon="-4.655682177588537"><ele>447.99999999999994</ele><time>2026-04-23T13:24:56.998Z</time></trkpt><trkpt lat="36.826834470695196" lon="-4.655786079678946"><ele>447.99999999999994</ele><time>2026-04-23T13:24:57.998Z</time></trkpt><trkpt lat="36.826787471596944" lon="-4.655905815193227"><ele>448.0</ele><time>2026-04-23T13:24:58.998Z</time></trkpt><trkpt lat="36.826750465659345" lon="-4.656038777487226"><ele>448.0</ele><time>2026-04-23T13:24:59.998Z</time></trkpt><trkpt lat="36.826723463119244" lon="-4.656179779085953"><ele>444.0</ele><time>2026-04-23T13:25:00.998Z</time></trkpt><trkpt lat="36.826713093943766" lon="-4.656324374157697"><ele>440.0</ele><time>2026-04-23T13:25:01.998Z</time></trkpt><trkpt lat="36.82672592320981" lon="-4.656467885795957"><ele>436.0</ele><time>2026-04-23T13:25:02.998Z</time></trkpt><trkpt lat="36.826746858724356" lon="-4.656604305571595"><ele>432.0</ele><time>2026-04-23T13:25:03.998Z</time></trkpt><trkpt lat="36.82676157161555" lon="-4.656736423196749"><ele>432.0</ele><time>2026-04-23T13:25:04.998Z</time></trkpt><trkpt lat="36.82676428045587" lon="-4.656861931811502"><ele>432.00000000000006</ele><time>2026-04-23T13:25:05.998Z</time></trkpt><trkpt lat="36.82678764992466" lon="-4.656973700857435"><ele>432.00000000000006</ele><time>2026-04-23T13:25:06.998Z</time></trkpt><trkpt lat="36.82687256816628" lon="-4.657076690135132"><ele>432.0</ele><time>2026-04-23T13:25:07.998Z</time></trkpt><trkpt lat="36.82696417699493" lon="-4.657205490781124"><ele>432.0</ele><time>2026-04-23T13:25:08.998Z</time></trkpt><trkpt lat="36.827065392415086" lon="-4.657314948696598"><ele>432.25</ele><time>2026-04-23T13:25:09.998Z</time></trkpt><trkpt lat="36.827184286346075" lon="-4.657415577225486"><ele>432.5</ele><time>2026-04-23T13:25:10.998Z</time></trkpt><trkpt lat="36.82729935888918" lon="-4.6575132135173645"><ele>432.75</ele><time>2026-04-23T13:25:11.998Z</time></trkpt><trkpt lat="36.827408436282425" lon="-4.657607685326789"><ele>433.0</ele><time>2026-04-23T13:25:12.998Z</time></trkpt><trkpt lat="36.82751219206438" lon="-4.657704345658714"><ele>432.25</ele><time>2026-04-23T13:25:13.998Z</time></trkpt><trkpt lat="36.82760986119775" lon="-4.657802230282431"><ele>431.5</ele><time>2026-04-23T13:25:14.998Z</time></trkpt><trkpt lat="36.82770125284" lon="-4.657895334344331"><ele>430.75</ele><time>2026-04-23T13:25:15.998Z</time></trkpt><trkpt lat="36.827788549101214" lon="-4.657980806126576"><ele>430.0</ele><time>2026-04-23T13:25:16.998Z</time></trkpt><trkpt lat="36.82787175754589" lon="-4.658056749548495"><ele>430.0</ele><time>2026-04-23T13:25:17.998Z</time></trkpt><trkpt lat="36.82794053296064" lon="-4.6581430513080875"><ele>430.0</ele><time>2026-04-23T13:25:18.998Z</time></trkpt><trkpt lat="36.82800305168674" lon="-4.6582549919676035"><ele>430.0</ele><time>2026-04-23T13:25:19.998Z</time></trkpt><trkpt lat="36.82806828879582" lon="-4.658367117171801"><ele>430.0</ele><time>2026-04-23T13:25:20.998Z</time></trkpt><trkpt lat="36.828162319859736" lon="-4.658456405490799"><ele>430.0</ele><time>2026-04-23T13:25:21.998Z</time></trkpt><trkpt lat="36.82826764329186" lon="-4.6585526452610475"><ele>428.5</ele><time>2026-04-23T13:25:22.998Z</time></trkpt><trkpt lat="36.82838173492535" lon="-4.658648983102935"><ele>427.0</ele><time>2026-04-23T13:25:23.998Z</time></trkpt><trkpt lat="36.828505143092045" lon="-4.658733970038671"><ele>425.5</ele><time>2026-04-23T13:25:24.998Z</time></trkpt><trkpt lat="36.8286193447159" lon="-4.658826761392473"><ele>424.0</ele><time>2026-04-23T13:25:25.998Z</time></trkpt><trkpt lat="36.82871771613045" lon="-4.6589249475349375"><ele>424.0</ele><time>2026-04-23T13:25:26.998Z</time></trkpt><trkpt lat="36.82881300779512" lon="-4.658996678032965"><ele>424.0</ele><time>2026-04-23T13:25:27.998Z</time></trkpt><trkpt lat="36.828910170995876" lon="-4.6590620014415265"><ele>424.0</ele><time>2026-04-23T13:25:28.998Z</time></trkpt><trkpt lat="36.829007765449425" lon="-4.659143004494849"><ele>424.0</ele><time>2026-04-23T13:25:29.998Z</time></trkpt><trkpt lat="36.82910232671601" lon="-4.659234066890488"><ele>424.0</ele><time>2026-04-23T13:25:30.998Z</time></trkpt><trkpt lat="36.82920716169054" lon="-4.659331341062841"><ele>424.0</ele><time>2026-04-23T13:25:31.999Z</time></trkpt><trkpt lat="36.82930850078986" lon="-4.659420578131972"><ele>424.0</ele><time>2026-04-23T13:25:32.999Z</time></trkpt><trkpt lat="36.82940215516954" lon="-4.659507124645634"><ele>424.0</ele><time>2026-04-23T13:25:33.999Z</time></trkpt><trkpt lat="36.82948086394418" lon="-4.659602523416324"><ele>421.79999999999995</ele><time>2026-04-23T13:25:34.999Z</time></trkpt><trkpt lat="36.82954326462303" lon="-4.659707197407245"><ele>419.59999999999997</ele><time>2026-04-23T13:25:35.999Z</time></trkpt><trkpt lat="36.829598934474824" lon="-4.659804568292104"><ele>417.4</ele><time>2026-04-23T13:25:36.999Z</time></trkpt><trkpt lat="36.82967288732385" lon="-4.659886695444829"><ele>415.2</ele><time>2026-04-23T13:25:37.999Z</time></trkpt><trkpt lat="36.829771589471854" lon="-4.659954047034104"><ele>413.0</ele><time>2026-04-23T13:25:38.999Z</time></trkpt><trkpt lat="36.82988178426069" lon="-4.659999222856973"><ele>413.0</ele><time>2026-04-23T13:25:39.999Z</time></trkpt><trkpt lat="36.82997062790794" lon="-4.660035605981305"><ele>413.0</ele><time>2026-04-23T13:25:40.999Z</time></trkpt><trkpt lat="36.83005684344395" lon="-4.660083407851795"><ele>413.0</ele><time>2026-04-23T13:25:41.999Z</time></trkpt><trkpt lat="36.83014651436211" lon="-4.660162998660023"><ele>413.0</ele><time>2026-04-23T13:25:42.999Z</time></trkpt><trkpt lat="36.83020831143537" lon="-4.66024439619748"><ele>413.0</ele><time>2026-04-23T13:25:43.999Z</time></trkpt><trkpt lat="36.830253415285945" lon="-4.660312592197629"><ele>409.25</ele><time>2026-04-23T13:25:44.999Z</time></trkpt><trkpt lat="36.830249330017146" lon="-4.66045430845698"><ele>405.5</ele><time>2026-04-23T13:25:46.999Z</time></trkpt><trkpt lat="36.830087285058106" lon="-4.660502919983692"><ele>401.75</ele><time>2026-04-23T13:25:48.999Z</time></trkpt><trkpt lat="36.829974613725554" lon="-4.660471627990577"><ele>398.0</ele><time>2026-04-23T13:25:49.999Z</time></trkpt><trkpt lat="36.82984765580011" lon="-4.660426712494133"><ele>398.0</ele><time>2026-04-23T13:25:50.999Z</time></trkpt><trkpt lat="36.829724412454546" lon="-4.660418257083292"><ele>398.0</ele><time>2026-04-23T13:25:51.999Z</time></trkpt><trkpt lat="36.82961912015285" lon="-4.660403148650689"><ele>398.0</ele><time>2026-04-23T13:25:52.999Z</time></trkpt><trkpt lat="36.829528087813905" lon="-4.660401276238681"><ele>398.0</ele><time>2026-04-23T13:25:53.999Z</time></trkpt><trkpt lat="36.829457981123745" lon="-4.66041564162805"><ele>398.0</ele><time>2026-04-23T13:25:54.999Z</time></trkpt><trkpt lat="36.82938095962056" lon="-4.660502289257559"><ele>398.0</ele><time>2026-04-23T13:25:56.999Z</time></trkpt><trkpt lat="36.82946504445875" lon="-4.66064970909846"><ele>398.0</ele><time>2026-04-23T13:25:58.999Z</time></trkpt><trkpt lat="36.82951258864389" lon="-4.660772888712042"><ele>398.0</ele><time>2026-04-23T13:25:59.999Z</time></trkpt><trkpt lat="36.82956909085265" lon="-4.660916993146212"><ele>398.0</ele><time>2026-04-23T13:26:00.999Z</time></trkpt><trkpt lat="36.829627064625534" lon="-4.661069962573582"><ele>394.75</ele><time>2026-04-23T13:26:01.999Z</time></trkpt><trkpt lat="36.82967354268333" lon="-4.661253306199179"><ele>391.5</ele><time>2026-04-23T13:26:02.999Z</time></trkpt><trkpt lat="36.82972935901232" lon="-4.661428284704524"><ele>388.25</ele><time>2026-04-23T13:26:03.999Z</time></trkpt><trkpt lat="36.82976254833346" lon="-4.6615829721522"><ele>385.0</ele><time>2026-04-23T13:26:04.999Z</time></trkpt><trkpt lat="36.829784345005976" lon="-4.661744426772907"><ele>385.0</ele><time>2026-04-23T13:26:05.999Z</time></trkpt><trkpt lat="36.829794594722344" lon="-4.6619046320979"><ele>385.0</ele><time>2026-04-23T13:26:06.999Z</time></trkpt><trkpt lat="36.82979528070691" lon="-4.662064757862815"><ele>385.0</ele><time>2026-04-23T13:26:07.999Z</time></trkpt><trkpt lat="36.82979162302663" lon="-4.662217835414003"><ele>385.0</ele><time>2026-04-23T13:26:08.999Z</time></trkpt><trkpt lat="36.82978453783037" lon="-4.662354345287521"><ele>384.00000000000006</ele><time>2026-04-23T13:26:09.999Z</time></trkpt><trkpt lat="36.829780332786335" lon="-4.662469850283103"><ele>383.0</ele><time>2026-04-23T13:26:10.999Z</time></trkpt><trkpt lat="36.829786545661065" lon="-4.662562113758853"><ele>382.0</ele><time>2026-04-23T13:26:11.999Z</time></trkpt><trkpt lat="36.82982557984246" lon="-4.662650954420602"><ele>381.0</ele><time>2026-04-23T13:26:12.999Z</time></trkpt><trkpt lat="36.82985856302536" lon="-4.662748484971378"><ele>380.0</ele><time>2026-04-23T13:26:13.999Z</time></trkpt><trkpt lat="36.829903240974254" lon="-4.662857911141209"><ele>379.0</ele><time>2026-04-23T13:26:14.999Z</time></trkpt><trkpt lat="36.829966813551806" lon="-4.662957088811159"><ele>378.75</ele><time>2026-04-23T13:26:15.999Z</time></trkpt><trkpt lat="36.83004883249465" lon="-4.663048764442261"><ele>378.5</ele><time>2026-04-23T13:26:16.999Z</time></trkpt><trkpt lat="36.83013816152307" lon="-4.6631384625658825"><ele>378.25</ele><time>2026-04-23T13:26:17.999Z</time></trkpt><trkpt lat="36.83022481190168" lon="-4.663244458289344"><ele>378.0</ele><time>2026-04-23T13:26:18.999Z</time></trkpt><trkpt lat="36.83029037173882" lon="-4.663362438584418"><ele>378.0</ele><time>2026-04-23T13:26:19.999Z</time></trkpt><trkpt lat="36.83033231627399" lon="-4.663475577238554"><ele>378.0</ele><time>2026-04-23T13:26:20.999Z</time></trkpt><trkpt lat="36.8303799028789" lon="-4.663576043545131"><ele>378.0</ele><time>2026-04-23T13:26:21.999Z</time></trkpt><trkpt lat="36.830435867867955" lon="-4.663666838835904"><ele>378.0</ele><time>2026-04-23T13:26:22.999Z</time></trkpt><trkpt lat="36.83050909992757" lon="-4.663738691985616"><ele>378.0</ele><time>2026-04-23T13:26:23.999Z</time></trkpt><trkpt lat="36.83060734504836" lon="-4.663777630530135"><ele>374.25</ele><time>2026-04-23T13:26:24.999Z</time></trkpt><trkpt lat="36.83072500111586" lon="-4.66378630492648"><ele>370.5</ele><time>2026-04-23T13:26:25.999Z</time></trkpt><trkpt lat="36.83085313457985" lon="-4.663786578970259"><ele>366.75</ele><time>2026-04-23T13:26:26.999Z</time></trkpt><trkpt lat="36.830976075674236" lon="-4.663800951991618"><ele>363.0</ele><time>2026-04-23T13:26:27.999Z</time></trkpt><trkpt lat="36.83109404076208" lon="-4.663803020030928"><ele>363.0</ele><time>2026-04-23T13:26:28.999Z</time></trkpt><trkpt lat="36.831206458926175" lon="-4.663800056119593"><ele>363.0</ele><time>2026-04-23T13:26:29.999Z</time></trkpt><trkpt lat="36.83131143372017" lon="-4.663797641325092"><ele>363.0</ele><time>2026-04-23T13:26:30.999Z</time></trkpt><trkpt lat="36.831403108376705" lon="-4.663810698038159"><ele>363.0</ele><time>2026-04-23T13:26:31.999Z</time></trkpt><trkpt lat="36.831476627850584" lon="-4.6638523923725375"><ele>363.0</ele><time>2026-04-23T13:26:32.999Z</time></trkpt><trkpt lat="36.83152550497653" lon="-4.663941290644421"><ele>363.0</ele><time>2026-04-23T13:26:33.999Z</time></trkpt><trkpt lat="36.83156319134011" lon="-4.664066146611507"><ele>363.0</ele><time>2026-04-23T13:26:34.999Z</time></trkpt><trkpt lat="36.831590283831964" lon="-4.664208406916693"><ele>363.0</ele><time>2026-04-23T13:26:35.999Z</time></trkpt><trkpt lat="36.83161195239444" lon="-4.664340268963409"><ele>363.0</ele><time>2026-04-23T13:26:36.999Z</time></trkpt><trkpt lat="36.83165064847307" lon="-4.6644663482053"><ele>363.0</ele><time>2026-04-23T13:26:37.999Z</time></trkpt><trkpt lat="36.83171509188481" lon="-4.664577024437984"><ele>359.0</ele><time>2026-04-23T13:26:38.999Z</time></trkpt><trkpt lat="36.83180404889668" lon="-4.664690024964334"><ele>355.0</ele><time>2026-04-23T13:26:39.999Z</time></trkpt><trkpt lat="36.83190421929457" lon="-4.6648096157621"><ele>351.0</ele><time>2026-04-23T13:26:40.999Z</time></trkpt><trkpt lat="36.832000294960544" lon="-4.664919482730862"><ele>347.0</ele><time>2026-04-23T13:26:41.999Z</time></trkpt><trkpt lat="36.832083179560684" lon="-4.6650096265997005"><ele>346.0</ele><time>2026-04-23T13:26:42.999Z</time></trkpt><trkpt lat="36.83215738399733" lon="-4.665098343978752"><ele>345.0</ele><time>2026-04-23T13:26:43.999Z</time></trkpt><trkpt lat="36.832233134672215" lon="-4.665217250820804"><ele>344.0</ele><time>2026-04-23T13:26:44.999Z</time></trkpt><trkpt lat="36.832290207239126" lon="-4.66535615975941"><ele>343.0</ele><time>2026-04-23T13:26:45.999Z</time></trkpt><trkpt lat="36.83232757651867" lon="-4.665491391724012"><ele>342.59999999999997</ele><time>2026-04-23T13:26:46.999Z</time></trkpt><trkpt lat="36.832376200144196" lon="-4.6656032704418955"><ele>342.2</ele><time>2026-04-23T13:26:47.999Z</time></trkpt><trkpt lat="36.832410295843204" lon="-4.665710363419567"><ele>341.8</ele><time>2026-04-23T13:26:48.999Z</time></trkpt><trkpt lat="36.83244854580037" lon="-4.665803425379076"><ele>341.4</ele><time>2026-04-23T13:26:50.999Z</time></trkpt><trkpt lat="36.83241840213213" lon="-4.66568478116479"><ele>341.0</ele><time>2026-04-23T13:26:55.999Z</time></trkpt><trkpt lat="36.832389360150614" lon="-4.665589011364048"><ele>341.0</ele><time>2026-04-23T13:26:56.999Z</time></trkpt><trkpt lat="36.83235286976991" lon="-4.665487110886698"><ele>341.0</ele><time>2026-04-23T13:26:57.999Z</time></trkpt><trkpt lat="36.83231443776562" lon="-4.665379784887092"><ele>341.0</ele><time>2026-04-23T13:26:58.999Z</time></trkpt><trkpt lat="36.83227259545384" lon="-4.665264750583504"><ele>341.0</ele><time>2026-04-23T13:26:59.999Z</time></trkpt><trkpt lat="36.832280035831474" lon="-4.665082092113099"><ele>341.0</ele><time>2026-04-23T13:27:00.999Z</time></trkpt><trkpt lat="36.83228653976078" lon="-4.664921318146207"><ele>341.5</ele><time>2026-04-23T13:27:01.999Z</time></trkpt><trkpt lat="36.83229108400282" lon="-4.664769878729241"><ele>342.0</ele><time>2026-04-23T13:27:02.999Z</time></trkpt><trkpt lat="36.83231682385213" lon="-4.664612190192007"><ele>342.5</ele><time>2026-04-23T13:27:03.999Z</time></trkpt><trkpt lat="36.83235417170119" lon="-4.664451398890306"><ele>343.0</ele><time>2026-04-23T13:27:04.999Z</time></trkpt><trkpt lat="36.83238964044779" lon="-4.664298235746945"><ele>344.59999999999997</ele><time>2026-04-23T13:27:05.999Z</time></trkpt><trkpt lat="36.8324235783742" lon="-4.664156231436376"><ele>346.2</ele><time>2026-04-23T13:27:06.999Z</time></trkpt><trkpt lat="36.832464180424864" lon="-4.6640364310966"><ele>347.8</ele><time>2026-04-23T13:27:07.999Z</time></trkpt><trkpt lat="36.83250019204796" lon="-4.663939145127784"><ele>349.4</ele><time>2026-04-23T13:27:08.999Z</time></trkpt><trkpt lat="36.83253870470973" lon="-4.663844975205354"><ele>351.0</ele><time>2026-04-23T13:27:09.999Z</time></trkpt><trkpt lat="36.83260735208555" lon="-4.663773257266161"><ele>347.8</ele><time>2026-04-23T13:27:10.999Z</time></trkpt><trkpt lat="36.83269448312783" lon="-4.663709149730324"><ele>344.6</ele><time>2026-04-23T13:27:11.999Z</time></trkpt><trkpt lat="36.8327804772318" lon="-4.663649647814778"><ele>341.4</ele><time>2026-04-23T13:27:12.999Z</time></trkpt><trkpt lat="36.83284193088056" lon="-4.66356083850998"><ele>338.2</ele><time>2026-04-23T13:27:13.999Z</time></trkpt><trkpt lat="36.83286989218357" lon="-4.663420200012442"><ele>335.0</ele><time>2026-04-23T13:27:14.999Z</time></trkpt><trkpt lat="36.83294050053315" lon="-4.663285529712482"><ele>335.0</ele><time>2026-04-23T13:27:15.998Z</time></trkpt><trkpt lat="36.833004518557956" lon="-4.663143588716508"><ele>335.0</ele><time>2026-04-23T13:27:16.998Z</time></trkpt><trkpt lat="36.833081367446596" lon="-4.6630103975274855"><ele>335.0</ele><time>2026-04-23T13:27:17.998Z</time></trkpt><trkpt lat="36.833146055434256" lon="-4.662889560950443"><ele>335.0</ele><time>2026-04-23T13:27:18.998Z</time></trkpt><trkpt lat="36.83319633964747" lon="-4.662788541459133"><ele>336.1666666666667</ele><time>2026-04-23T13:27:19.998Z</time></trkpt><trkpt lat="36.83324436769647" lon="-4.662693219798861"><ele>337.33333333333337</ele><time>2026-04-23T13:27:20.998Z</time></trkpt><trkpt lat="36.83327629015385" lon="-4.66260196338203"><ele>338.5</ele><time>2026-04-23T13:27:21.999Z</time></trkpt><trkpt lat="36.833275101747624" lon="-4.6625037450537805"><ele>339.6666666666667</ele><time>2026-04-23T13:27:22.999Z</time></trkpt><trkpt lat="36.83322840708588" lon="-4.6624187415688185"><ele>340.8333333333333</ele><time>2026-04-23T13:27:23.999Z</time></trkpt><trkpt lat="36.83316327651863" lon="-4.662347697843358"><ele>342.0</ele><time>2026-04-23T13:27:24.999Z</time></trkpt><trkpt lat="36.83308448710176" lon="-4.662265795667945"><ele>342.0</ele><time>2026-04-23T13:27:25.999Z</time></trkpt><trkpt lat="36.83298672602522" lon="-4.662200381106987"><ele>342.0</ele><time>2026-04-23T13:27:26.999Z</time></trkpt><trkpt lat="36.83288745243573" lon="-4.662167775338497"><ele>342.0</ele><time>2026-04-23T13:27:27.999Z</time></trkpt><trkpt lat="36.83278313704359" lon="-4.662170393143278"><ele>342.0</ele><time>2026-04-23T13:27:28.999Z</time></trkpt><trkpt lat="36.83267879527024" lon="-4.6621716610256"><ele>342.0</ele><time>2026-04-23T13:27:29.999Z</time></trkpt><trkpt lat="36.83259482528453" lon="-4.662172681369443"><ele>341.6</ele><time>2026-04-23T13:27:30.999Z</time></trkpt><trkpt lat="36.83253460216438" lon="-4.6621397476390785"><ele>341.20000000000005</ele><time>2026-04-23T13:27:31.999Z</time></trkpt><trkpt lat="36.83247764427679" lon="-4.662018896469033"><ele>340.8</ele><time>2026-04-23T13:27:33.999Z</time></trkpt><trkpt lat="36.83250083040168" lon="-4.661931132193506"><ele>340.4</ele><time>2026-04-23T13:27:34.999Z</time></trkpt><trkpt lat="36.83264920108625" lon="-4.661789447984185"><ele>340.0</ele><time>2026-04-23T13:27:36.999Z</time></trkpt><trkpt lat="36.83273662604636" lon="-4.661699863287258"><ele>340.0</ele><time>2026-04-23T13:27:37.999Z</time></trkpt><trkpt lat="36.83283044302417" lon="-4.661598066732073"><ele>340.0</ele><time>2026-04-23T13:27:38.999Z</time></trkpt><trkpt lat="36.832919305868614" lon="-4.661514836315303"><ele>340.0</ele><time>2026-04-23T13:27:39.999Z</time></trkpt><trkpt lat="36.83298611353151" lon="-4.661453239364253"><ele>340.0</ele><time>2026-04-23T13:27:40.999Z</time></trkpt><trkpt lat="36.83306566645428" lon="-4.66134118095419"><ele>340.0</ele><time>2026-04-23T13:27:42.999Z</time></trkpt><trkpt lat="36.83299190053823" lon="-4.6611988850716335"><ele>340.0</ele><time>2026-04-23T13:27:44.999Z</time></trkpt><trkpt lat="36.83290255563936" lon="-4.661117483940047"><ele>340.0</ele><time>2026-04-23T13:27:45.999Z</time></trkpt><trkpt lat="36.832845185825654" lon="-4.6610034707530295"><ele>340.0</ele><time>2026-04-23T13:27:46.999Z</time></trkpt><trkpt lat="36.83279071608088" lon="-4.660931106664754"><ele>340.0</ele><time>2026-04-23T13:27:47.999Z</time></trkpt><trkpt lat="36.83278013915967" lon="-4.66080057458931"><ele>340.0</ele><time>2026-04-23T13:27:49.999Z</time></trkpt><trkpt lat="36.832846604418435" lon="-4.660741982734371"><ele>341.2</ele><time>2026-04-23T13:27:50.999Z</time></trkpt><trkpt lat="36.832912437625644" lon="-4.660730696486968"><ele>342.4</ele><time>2026-04-23T13:27:51.999Z</time></trkpt><trkpt lat="36.83302370494628" lon="-4.660786396423852"><ele>343.6</ele><time>2026-04-23T13:27:53.999Z</time></trkpt><trkpt lat="36.833109101926325" lon="-4.660795901252374"><ele>344.8</ele><time>2026-04-23T13:27:54.999Z</time></trkpt><trkpt lat="36.83321106782158" lon="-4.660773993928562"><ele>346.0</ele><time>2026-04-23T13:27:55.999Z</time></trkpt><trkpt lat="36.83331827755368" lon="-4.660724798844182"><ele>346.0</ele><time>2026-04-23T13:27:56.999Z</time></trkpt><trkpt lat="36.83342968118624" lon="-4.66065236142005"><ele>346.0</ele><time>2026-04-23T13:27:57.999Z</time></trkpt><trkpt lat="36.833549600765224" lon="-4.6605982100537116"><ele>346.0</ele><time>2026-04-23T13:27:58.999Z</time></trkpt><trkpt lat="36.83364861570976" lon="-4.660561401475885"><ele>346.0</ele><time>2026-04-23T13:27:59.999Z</time></trkpt><trkpt lat="36.83373207043415" lon="-4.6605099693361"><ele>346.0</ele><time>2026-04-23T13:28:00.999Z</time></trkpt><trkpt lat="36.83380839253244" lon="-4.660450154905106"><ele>346.0</ele><time>2026-04-23T13:28:01.999Z</time></trkpt><trkpt lat="36.83386282560517" lon="-4.660368582458502"><ele>346.0</ele><time>2026-04-23T13:28:02.999Z</time></trkpt><trkpt lat="36.833895012706364" lon="-4.6602542527922814"><ele>346.0</ele><time>2026-04-23T13:28:03.999Z</time></trkpt><trkpt lat="36.83395082644184" lon="-4.6601579461188996"><ele>346.0</ele><time>2026-04-23T13:28:04.999Z</time></trkpt><trkpt lat="36.834004794285775" lon="-4.660097429287489"><ele>346.0</ele><time>2026-04-23T13:28:05.999Z</time></trkpt><trkpt lat="36.83410395525919" lon="-4.660075143316063"><ele>346.0</ele><time>2026-04-23T13:28:06.999Z</time></trkpt><trkpt lat="36.834211955688346" lon="-4.660089600334582"><ele>346.0</ele><time>2026-04-23T13:28:07.999Z</time></trkpt><trkpt lat="36.83429351025665" lon="-4.660175830148247"><ele>346.0</ele><time>2026-04-23T13:28:08.999Z</time></trkpt><trkpt lat="36.83440391294954" lon="-4.660245294691718"><ele>346.0</ele><time>2026-04-23T13:28:09.999Z</time></trkpt><trkpt lat="36.83452460371564" lon="-4.660333906583873"><ele>345.8333333333333</ele><time>2026-04-23T13:28:10.999Z</time></trkpt><trkpt lat="36.83463849283002" lon="-4.6603598730473825"><ele>345.66666666666663</ele><time>2026-04-23T13:28:11.999Z</time></trkpt><trkpt lat="36.83470442409358" lon="-4.660360783972924"><ele>345.5</ele><time>2026-04-23T13:28:12.999Z</time></trkpt><trkpt lat="36.83476791835495" lon="-4.660344462735373"><ele>345.3333333333333</ele><time>2026-04-23T13:28:14.999Z</time></trkpt><trkpt lat="36.83482545533413" lon="-4.660395448215917"><ele>345.1666666666667</ele><time>2026-04-23T13:28:15.999Z</time></trkpt><trkpt lat="36.8348720936728" lon="-4.66033746124582"><ele>345.0</ele><time>2026-04-23T13:28:16.999Z</time></trkpt><trkpt lat="36.83499259295717" lon="-4.660304921614495"><ele>345.0</ele><time>2026-04-23T13:28:18.999Z</time></trkpt><trkpt lat="36.835065822276704" lon="-4.66030495596357"><ele>345.0</ele><time>2026-04-23T13:28:19.999Z</time></trkpt><trkpt lat="36.835145544305064" lon="-4.66032348175992"><ele>345.0</ele><time>2026-04-23T13:28:20.999Z</time></trkpt><trkpt lat="36.83523965104928" lon="-4.6603583473949834"><ele>345.0</ele><time>2026-04-23T13:28:21.999Z</time></trkpt><trkpt lat="36.835351154028125" lon="-4.66040088628705"><ele>345.0</ele><time>2026-04-23T13:28:22.999Z</time></trkpt><trkpt lat="36.83545997765381" lon="-4.6604383118733805"><ele>347.0</ele><time>2026-04-23T13:28:23.999Z</time></trkpt><trkpt lat="36.83556079058972" lon="-4.660469383099355"><ele>349.0</ele><time>2026-04-23T13:28:24.999Z</time></trkpt><trkpt lat="36.83566241862272" lon="-4.660506870081364"><ele>351.0</ele><time>2026-04-23T13:28:25.999Z</time></trkpt><trkpt lat="36.83577502311522" lon="-4.660542590787087"><ele>353.0</ele><time>2026-04-23T13:28:26.999Z</time></trkpt><trkpt lat="36.83589443886066" lon="-4.660586207914817"><ele>353.4</ele><time>2026-04-23T13:28:27.999Z</time></trkpt><trkpt lat="36.83600819546806" lon="-4.660646159857835"><ele>353.79999999999995</ele><time>2026-04-23T13:28:28.999Z</time></trkpt><trkpt lat="36.83610148690567" lon="-4.6606978222436215"><ele>354.2</ele><time>2026-04-23T13:28:29.999Z</time></trkpt><trkpt lat="36.83618553017974" lon="-4.660694300967199"><ele>354.6</ele><time>2026-04-23T13:28:30.999Z</time></trkpt><trkpt lat="36.83628054003693" lon="-4.660719211200263"><ele>355.0</ele><time>2026-04-23T13:28:31.999Z</time></trkpt><trkpt lat="36.83638987324835" lon="-4.660740961363727"><ele>355.0</ele><time>2026-04-23T13:28:32.999Z</time></trkpt><trkpt lat="36.83648779159074" lon="-4.660774849738639"><ele>355.0</ele><time>2026-04-23T13:28:33.999Z</time></trkpt><trkpt lat="36.836572008915915" lon="-4.660769037808757"><ele>355.0</ele><time>2026-04-23T13:28:34.999Z</time></trkpt><trkpt lat="36.83664628647686" lon="-4.660699605728904"><ele>355.0</ele><time>2026-04-23T13:28:35.999Z</time></trkpt><trkpt lat="36.83671487125833" lon="-4.660626559488897"><ele>355.0</ele><time>2026-04-23T13:28:36.999Z</time></trkpt><trkpt lat="36.836778420877316" lon="-4.660544598621317"><ele>349.8</ele><time>2026-04-23T13:28:37.999Z</time></trkpt><trkpt lat="36.83684248729932" lon="-4.6604744549926425"><ele>344.6</ele><time>2026-04-23T13:28:38.999Z</time></trkpt><trkpt lat="36.8369379995526" lon="-4.660404288526933"><ele>339.4</ele><time>2026-04-23T13:28:40.999Z</time></trkpt><trkpt lat="36.83699098723731" lon="-4.660328178051778"><ele>334.2</ele><time>2026-04-23T13:28:43.999Z</time></trkpt><trkpt lat="36.837061250457836" lon="-4.660286784864351"><ele>329.0</ele><time>2026-04-23T13:28:45.999Z</time></trkpt><trkpt lat="36.837079994198604" lon="-4.660092890018616"><ele>329.0</ele><time>2026-04-23T13:28:47.999Z</time></trkpt><trkpt lat="36.83711921553464" lon="-4.659992251398198"><ele>329.0</ele><time>2026-04-23T13:28:49.999Z</time></trkpt><trkpt lat="36.837162991730295" lon="-4.659912056173903"><ele>329.0</ele><time>2026-04-23T13:28:51.999Z</time></trkpt><trkpt lat="36.837218991577146" lon="-4.659813246648452"><ele>329.0</ele><time>2026-04-23T13:28:53.999Z</time></trkpt><trkpt lat="36.83724269035479" lon="-4.659737062510526"><ele>329.0</ele><time>2026-04-23T13:28:55.999Z</time></trkpt><trkpt lat="36.8371713292418" lon="-4.659885662925754"><ele>329.0</ele><time>2026-04-23T13:33:36Z</time></trkpt><trkpt lat="36.83713208193272" lon="-4.659969891277895"><ele>329.0</ele><time>2026-04-23T13:33:37Z</time></trkpt><trkpt lat="36.837100964174596" lon="-4.660046338897371"><ele>329.0</ele><time>2026-04-23T13:33:38Z</time></trkpt><trkpt lat="36.83707168655384" lon="-4.660124738240644"><ele>329.0</ele><time>2026-04-23T13:33:39Z</time></trkpt><trkpt lat="36.83703800664976" lon="-4.660214457966465"><ele>329.0</ele><time>2026-04-23T13:33:40.001Z</time></trkpt><trkpt lat="36.83700758516322" lon="-4.660285639970077"><ele>329.0</ele><time>2026-04-23T13:33:41.001Z</time></trkpt><trkpt lat="36.836967862393635" lon="-4.660389635977701"><ele>328.6666666666667</ele><time>2026-04-23T13:33:43.001Z</time></trkpt><trkpt lat="36.83699819452866" lon="-4.660497467861705"><ele>328.33333333333337</ele><time>2026-04-23T13:33:45.001Z</time></trkpt><trkpt lat="36.83702527389912" lon="-4.660587879126448"><ele>328.0</ele><time>2026-04-23T13:33:46.001Z</time></trkpt><trkpt lat="36.83704142029963" lon="-4.660691847863494"><ele>327.6666666666667</ele><time>2026-04-23T13:33:47.001Z</time></trkpt><trkpt lat="36.83705064374263" lon="-4.660793105678118"><ele>327.3333333333333</ele><time>2026-04-23T13:33:48.001Z</time></trkpt><trkpt lat="36.83706284874997" lon="-4.660893845815375"><ele>327.0</ele><time>2026-04-23T13:33:49.001Z</time></trkpt><trkpt lat="36.83708279411818" lon="-4.660974978404738"><ele>327.0</ele><time>2026-04-23T13:33:50.001Z</time></trkpt><trkpt lat="36.837116056037594" lon="-4.661049231745342"><ele>327.0</ele><time>2026-04-23T13:33:51.001Z</time></trkpt><trkpt lat="36.83718536278656" lon="-4.661100195076776"><ele>327.0</ele><time>2026-04-23T13:33:52.001Z</time></trkpt><trkpt lat="36.837265593911866" lon="-4.66114940482811"><ele>327.0</ele><time>2026-04-23T13:33:53.001Z</time></trkpt><trkpt lat="36.83734178686297" lon="-4.6612095457439695"><ele>327.0</ele><time>2026-04-23T13:33:54.001Z</time></trkpt><trkpt lat="36.83740118917855" lon="-4.661287980281459"><ele>327.0</ele><time>2026-04-23T13:33:55.001Z</time></trkpt><trkpt lat="36.837451941183524" lon="-4.661368197032662"><ele>326.8333333333333</ele><time>2026-04-23T13:33:56.001Z</time></trkpt><trkpt lat="36.837503694110325" lon="-4.661462133935893"><ele>326.6666666666667</ele><time>2026-04-23T13:33:57.001Z</time></trkpt><trkpt lat="36.83755176449806" lon="-4.661541856241404"><ele>326.5</ele><time>2026-04-23T13:33:58.001Z</time></trkpt><trkpt lat="36.8375951253089" lon="-4.6616093812309005"><ele>326.33333333333337</ele><time>2026-04-23T13:33:59.001Z</time></trkpt><trkpt lat="36.83769650436475" lon="-4.661680326328947"><ele>326.1666666666667</ele><time>2026-04-23T13:34:01.001Z</time></trkpt><trkpt lat="36.83777223078238" lon="-4.6616862431473285"><ele>326.0</ele><time>2026-04-23T13:34:02.001Z</time></trkpt><trkpt lat="36.837842013437765" lon="-4.66170339109562"><ele>326.0</ele><time>2026-04-23T13:34:03.001Z</time></trkpt><trkpt lat="36.8379136939079" lon="-4.661703867908106"><ele>326.0</ele><time>2026-04-23T13:34:04.001Z</time></trkpt><trkpt lat="36.83797354979625" lon="-4.6616475228787655"><ele>326.0</ele><time>2026-04-23T13:34:05.001Z</time></trkpt><trkpt lat="36.83804340044265" lon="-4.661619683342098"><ele>326.0</ele><time>2026-04-23T13:34:06.001Z</time></trkpt><trkpt lat="36.83816018209775" lon="-4.661589333973098"><ele>326.0</ele><time>2026-04-23T13:34:08.001Z</time></trkpt><trkpt lat="36.83824042472182" lon="-4.6616008324252"><ele>326.0</ele><time>2026-04-23T13:34:09.001Z</time></trkpt><trkpt lat="36.838318718240636" lon="-4.661631109067872"><ele>326.0</ele><time>2026-04-23T13:34:10.001Z</time></trkpt><trkpt lat="36.83839884453865" lon="-4.661638319716804"><ele>326.0</ele><time>2026-04-23T13:34:11.001Z</time></trkpt><trkpt lat="36.83847683568251" lon="-4.661623757012588"><ele>326.0</ele><time>2026-04-23T13:34:12.001Z</time></trkpt><trkpt lat="36.838562064769384" lon="-4.661588888833697"><ele>326.0</ele><time>2026-04-23T13:34:13.001Z</time></trkpt><trkpt lat="36.838627479421945" lon="-4.661539386844958"><ele>326.0</ele><time>2026-04-23T13:34:14.001Z</time></trkpt><trkpt lat="36.83869700775543" lon="-4.6615208225944516"><ele>326.0</ele><time>2026-04-23T13:34:15.001Z</time></trkpt><trkpt lat="36.83879028525961" lon="-4.66144738521271"><ele>323.5714285714286</ele><time>2026-04-23T13:34:17Z</time></trkpt><trkpt lat="36.83886072498649" lon="-4.661401974318491"><ele>321.1428571428571</ele><time>2026-04-23T13:34:19Z</time></trkpt><trkpt lat="36.83892984555618" lon="-4.661418624038816"><ele>318.7142857142857</ele><time>2026-04-23T13:34:21Z</time></trkpt><trkpt lat="36.838968044005014" lon="-4.661505062051229"><ele>316.28571428571433</ele><time>2026-04-23T13:34:24Z</time></trkpt><trkpt lat="36.839009643598665" lon="-4.661587017128095"><ele>313.8571428571429</ele><time>2026-04-23T13:34:27Z</time></trkpt><trkpt lat="36.83905019219767" lon="-4.661652541882101"><ele>311.42857142857144</ele><time>2026-04-23T13:34:33Z</time></trkpt><trkpt lat="36.83908855936237" lon="-4.661716292726911"><ele>309.0</ele><time>2026-04-23T13:35:07Z</time></trkpt><trkpt lat="36.83914577606383" lon="-4.661784410118767"><ele>309.00000000000006</ele><time>2026-04-23T13:35:26Z</time></trkpt><trkpt lat="36.83919500489626" lon="-4.6618366239952564"><ele>309.0</ele><time>2026-04-23T13:35:30Z</time></trkpt><trkpt lat="36.8392532717018" lon="-4.661867297443411"><ele>309.0</ele><time>2026-04-23T13:35:38Z</time></trkpt><trkpt lat="36.839305160569616" lon="-4.661929693376176"><ele>309.0</ele><time>2026-04-23T13:36:07Z</time></trkpt><trkpt lat="36.839341947877095" lon="-4.662001028285132"><ele>309.0</ele><time>2026-04-23T13:36:24Z</time></trkpt><trkpt lat="36.83935771855026" lon="-4.662080073735793"><ele>309.00000000000006</ele><time>2026-04-23T13:36:30Z</time></trkpt><trkpt lat="36.83932889419575" lon="-4.662180781811842"><ele>309.0</ele><time>2026-04-23T13:36:32Z</time></trkpt><trkpt lat="36.839265673361744" lon="-4.66226843185092"><ele>309.4</ele><time>2026-04-23T13:36:34Z</time></trkpt><trkpt lat="36.839192652849974" lon="-4.662336868258971"><ele>309.79999999999995</ele><time>2026-04-23T13:36:37Z</time></trkpt><trkpt lat="36.839133461368554" lon="-4.662394260525408"><ele>310.20000000000005</ele><time>2026-04-23T13:36:39Z</time></trkpt><trkpt lat="36.83908078341467" lon="-4.662519292976969"><ele>310.6</ele><time>2026-04-23T13:36:41Z</time></trkpt><trkpt lat="36.839038287078175" lon="-4.662643326826781"><ele>311.0</ele><time>2026-04-23T13:36:43Z</time></trkpt><trkpt lat="36.839004531534044" lon="-4.662762254877248"><ele>309.40000000000003</ele><time>2026-04-23T13:36:45Z</time></trkpt><trkpt lat="36.83908820006149" lon="-4.662850266900769"><ele>307.8</ele><time>2026-04-23T13:36:47Z</time></trkpt><trkpt lat="36.83917436587829" lon="-4.662985233519534"><ele>306.20000000000005</ele><time>2026-04-23T13:36:49Z</time></trkpt><trkpt lat="36.839227544695675" lon="-4.6630595251371085"><ele>304.6</ele><time>2026-04-23T13:36:50Z</time></trkpt><trkpt lat="36.83930294314964" lon="-4.663162559163411"><ele>303.0</ele><time>2026-04-23T13:36:51Z</time></trkpt><trkpt lat="36.83939753785401" lon="-4.663261989074068"><ele>303.0</ele><time>2026-04-23T13:36:52Z</time></trkpt><trkpt lat="36.83948040265262" lon="-4.6633647985339985"><ele>303.0</ele><time>2026-04-23T13:36:53Z</time></trkpt><trkpt lat="36.83955445507216" lon="-4.663442016455313"><ele>303.0</ele><time>2026-04-23T13:36:54Z</time></trkpt><trkpt lat="36.839627925245175" lon="-4.663484264499791"><ele>303.0</ele><time>2026-04-23T13:36:55Z</time></trkpt><trkpt lat="36.83970028954182" lon="-4.663549032767034"><ele>303.0</ele><time>2026-04-23T13:36:56Z</time></trkpt><trkpt lat="36.83976707756717" lon="-4.663594808967598"><ele>301.4</ele><time>2026-04-23T13:36:57Z</time></trkpt><trkpt lat="36.83986839821944" lon="-4.663672663094177"><ele>299.8</ele><time>2026-04-23T13:36:59Z</time></trkpt><trkpt lat="36.83996938985004" lon="-4.663750019589143"><ele>298.2</ele><time>2026-04-23T13:37:01Z</time></trkpt><trkpt lat="36.84002476774347" lon="-4.663802553450561"><ele>296.6</ele><time>2026-04-23T13:37:02Z</time></trkpt><trkpt lat="36.84009433659621" lon="-4.663833852214294"><ele>295.0</ele><time>2026-04-23T13:37:03Z</time></trkpt><trkpt lat="36.840158902341834" lon="-4.663868989100059"><ele>295.0</ele><time>2026-04-23T13:37:04Z</time></trkpt><trkpt lat="36.84026378479943" lon="-4.663940387594729"><ele>295.0</ele><time>2026-04-23T13:37:06Z</time></trkpt><trkpt lat="36.84031473102583" lon="-4.663987862650427"><ele>295.0</ele><time>2026-04-23T13:37:07Z</time></trkpt><trkpt lat="36.84036910078583" lon="-4.664048924550817"><ele>295.0</ele><time>2026-04-23T13:37:08Z</time></trkpt><trkpt lat="36.84041766475943" lon="-4.664120671417853"><ele>295.0</ele><time>2026-04-23T13:37:09Z</time></trkpt><trkpt lat="36.84047544981508" lon="-4.664167722692364"><ele>295.0</ele><time>2026-04-23T13:37:10Z</time></trkpt><trkpt lat="36.840526624344555" lon="-4.664219982096093"><ele>295.00000000000006</ele><time>2026-04-23T13:37:11Z</time></trkpt><trkpt lat="36.840578326639175" lon="-4.664276633578264"><ele>295.0</ele><time>2026-04-23T13:37:12Z</time></trkpt><trkpt lat="36.840636301631385" lon="-4.6643294166592835"><ele>295.0</ele><time>2026-04-23T13:37:13Z</time></trkpt><trkpt lat="36.84070567621077" lon="-4.664370638232906"><ele>295.0</ele><time>2026-04-23T13:37:14Z</time></trkpt><trkpt lat="36.840760361729046" lon="-4.664437872869611"><ele>295.0</ele><time>2026-04-23T13:37:15Z</time></trkpt><trkpt lat="36.84081432660999" lon="-4.6645004539705734"><ele>295.00000000000006</ele><time>2026-04-23T13:37:16Z</time></trkpt><trkpt lat="36.84086224360355" lon="-4.664552177367619"><ele>295.0</ele><time>2026-04-23T13:37:17Z</time></trkpt><trkpt lat="36.84091334662221" lon="-4.664611407576123"><ele>290.3333333333333</ele><time>2026-04-23T13:37:18Z</time></trkpt><trkpt lat="36.84097564851479" lon="-4.66468140003836"><ele>285.66666666666663</ele><time>2026-04-23T13:37:19Z</time></trkpt><trkpt lat="36.841032452447024" lon="-4.664748473642223"><ele>281.0</ele><time>2026-04-23T13:37:20Z</time></trkpt><trkpt lat="36.841101651446095" lon="-4.66479914431351"><ele>276.3333333333333</ele><time>2026-04-23T13:37:21Z</time></trkpt><trkpt lat="36.84114414023911" lon="-4.664860632265198"><ele>271.6666666666667</ele><time>2026-04-23T13:37:22Z</time></trkpt><trkpt lat="36.84121221592007" lon="-4.664891301579553"><ele>267.0</ele><time>2026-04-23T13:37:23Z</time></trkpt><trkpt lat="36.841285911739824" lon="-4.664935299152629"><ele>267.0</ele><time>2026-04-23T13:37:24Z</time></trkpt><trkpt lat="36.841362988351285" lon="-4.6649797950702165"><ele>267.0</ele><time>2026-04-23T13:37:25Z</time></trkpt><trkpt lat="36.8414261242063" lon="-4.665041210894399"><ele>267.0</ele><time>2026-04-23T13:37:26Z</time></trkpt><trkpt lat="36.8414797390458" lon="-4.665098398229498"><ele>267.0</ele><time>2026-04-23T13:37:27Z</time></trkpt><trkpt lat="36.841531311981804" lon="-4.665168247802372"><ele>267.0</ele><time>2026-04-23T13:37:27.999Z</time></trkpt><trkpt lat="36.841577229133094" lon="-4.6652488877817495"><ele>267.0</ele><time>2026-04-23T13:37:28.999Z</time></trkpt><trkpt lat="36.84160989637379" lon="-4.665319693429642"><ele>267.0</ele><time>2026-04-23T13:37:29.999Z</time></trkpt><trkpt lat="36.841634736132434" lon="-4.665463760440586"><ele>267.0</ele><time>2026-04-23T13:37:31.999Z</time></trkpt><trkpt lat="36.841557458085596" lon="-4.665565623965628"><ele>267.0</ele><time>2026-04-23T13:37:33.999Z</time></trkpt><trkpt lat="36.841486536254784" lon="-4.665550339149337"><ele>267.0</ele><time>2026-04-23T13:37:34.999Z</time></trkpt><trkpt lat="36.841410731453855" lon="-4.665578988687755"><ele>267.0</ele><time>2026-04-23T13:37:35.999Z</time></trkpt><trkpt lat="36.84133341358229" lon="-4.665602956530522"><ele>267.00000000000006</ele><time>2026-04-23T13:37:36.999Z</time></trkpt><trkpt lat="36.84126603292584" lon="-4.665633883007544"><ele>267.0</ele><time>2026-04-23T13:37:37.999Z</time></trkpt><trkpt lat="36.84120779790518" lon="-4.665664623150263"><ele>267.0</ele><time>2026-04-23T13:37:38.999Z</time></trkpt><trkpt lat="36.84114991840748" lon="-4.665698166863442"><ele>267.0</ele><time>2026-04-23T13:37:39.999Z</time></trkpt><trkpt lat="36.84105886889685" lon="-4.665762745522005"><ele>267.0</ele><time>2026-04-23T13:37:41.999Z</time></trkpt><trkpt lat="36.841094316988276" lon="-4.665835035065602"><ele>267.00000000000006</ele><time>2026-04-23T13:37:44.999Z</time></trkpt><trkpt lat="36.841149185324184" lon="-4.665780306410306"><ele>267.0</ele><time>2026-04-23T13:37:45.999Z</time></trkpt><trkpt lat="36.8412296720154" lon="-4.665776132689826"><ele>267.0</ele><time>2026-04-23T13:37:46.999Z</time></trkpt><trkpt lat="36.84130547506652" lon="-4.6657660713831515"><ele>267.0</ele><time>2026-04-23T13:37:47.999Z</time></trkpt><trkpt lat="36.84138503250085" lon="-4.665789875104497"><ele>267.0</ele><time>2026-04-23T13:37:48.999Z</time></trkpt><trkpt lat="36.84146531387204" lon="-4.665839964858359"><ele>267.0</ele><time>2026-04-23T13:37:49.999Z</time></trkpt><trkpt lat="36.84153457111878" lon="-4.665917945792369"><ele>267.0</ele><time>2026-04-23T13:37:50.999Z</time></trkpt><trkpt lat="36.8415962908924" lon="-4.666011355950446"><ele>267.0</ele><time>2026-04-23T13:37:52Z</time></trkpt><trkpt lat="36.84165588304104" lon="-4.6660843821914275"><ele>264.1666666666667</ele><time>2026-04-23T13:37:53Z</time></trkpt><trkpt lat="36.84170430121993" lon="-4.666142533022334"><ele>261.3333333333333</ele><time>2026-04-23T13:37:54Z</time></trkpt><trkpt lat="36.841750581156084" lon="-4.666195970420747"><ele>258.5</ele><time>2026-04-23T13:37:55Z</time></trkpt><trkpt lat="36.84184591177853" lon="-4.666257400897376"><ele>255.66666666666666</ele><time>2026-04-23T13:37:57Z</time></trkpt><trkpt lat="36.84192319275053" lon="-4.666250469451546"><ele>252.83333333333331</ele><time>2026-04-23T13:37:58Z</time></trkpt><trkpt lat="36.84198829177134" lon="-4.666217077654502"><ele>250.0</ele><time>2026-04-23T13:37:59Z</time></trkpt><trkpt lat="36.84207621938574" lon="-4.666154333072199"><ele>249.83333333333331</ele><time>2026-04-23T13:38:01Z</time></trkpt><trkpt lat="36.84212990856174" lon="-4.666098196515861"><ele>249.66666666666666</ele><time>2026-04-23T13:38:03Z</time></trkpt><trkpt lat="36.842203368566516" lon="-4.666161359535515"><ele>249.5</ele><time>2026-04-23T13:38:06Z</time></trkpt><trkpt lat="36.8421570727195" lon="-4.666248638479751"><ele>249.33333333333331</ele><time>2026-04-23T13:38:07Z</time></trkpt><trkpt lat="36.84210533957167" lon="-4.6663368248609"><ele>249.16666666666666</ele><time>2026-04-23T13:38:08Z</time></trkpt><trkpt lat="36.842072424425595" lon="-4.666432594266471"><ele>249.0</ele><time>2026-04-23T13:38:09Z</time></trkpt><trkpt lat="36.84205650679149" lon="-4.666536362491112"><ele>247.7142857142857</ele><time>2026-04-23T13:38:10Z</time></trkpt><trkpt lat="36.8420522449774" lon="-4.666631139799819"><ele>246.4285714285714</ele><time>2026-04-23T13:38:11Z</time></trkpt><trkpt lat="36.842057285835416" lon="-4.666726469814509"><ele>245.14285714285714</ele><time>2026-04-23T13:38:12Z</time></trkpt><trkpt lat="36.842063751268775" lon="-4.666816002244492"><ele>243.85714285714283</ele><time>2026-04-23T13:38:13Z</time></trkpt><trkpt lat="36.8421008677896" lon="-4.666891540790943"><ele>242.57142857142856</ele><time>2026-04-23T13:38:14Z</time></trkpt><trkpt lat="36.84214407382634" lon="-4.666965037311843"><ele>241.28571428571428</ele><time>2026-04-23T13:38:15Z</time></trkpt><trkpt lat="36.84218609123616" lon="-4.667037573673945"><ele>240.0</ele><time>2026-04-23T13:38:16Z</time></trkpt><trkpt lat="36.84228295844039" lon="-4.667113038981845"><ele>240.0</ele><time>2026-04-23T13:38:18Z</time></trkpt><trkpt lat="36.842406440196484" lon="-4.667108865638656"><ele>240.0</ele><time>2026-04-23T13:38:20Z</time></trkpt><trkpt lat="36.84247138163809" lon="-4.667082465201152"><ele>240.0</ele><time>2026-04-23T13:38:21Z</time></trkpt><trkpt lat="36.84252893211052" lon="-4.667022539402966"><ele>240.0</ele><time>2026-04-23T13:38:22Z</time></trkpt><trkpt lat="36.84255935479519" lon="-4.666927482496464"><ele>240.0</ele><time>2026-04-23T13:38:23Z</time></trkpt><trkpt lat="36.8425780451208" lon="-4.666834684891427"><ele>240.0</ele><time>2026-04-23T13:38:24Z</time></trkpt><trkpt lat="36.84257694131222" lon="-4.666740886339313"><ele>240.0</ele><time>2026-04-23T13:38:25Z</time></trkpt><trkpt lat="36.842629964290786" lon="-4.666631078846099"><ele>240.0</ele><time>2026-04-23T13:38:27Z</time></trkpt><trkpt lat="36.84275006576843" lon="-4.666594399339315"><ele>240.0</ele><time>2026-04-23T13:38:29Z</time></trkpt><trkpt lat="36.84280820843447" lon="-4.666538425558481"><ele>240.0</ele><time>2026-04-23T13:38:30Z</time></trkpt><trkpt lat="36.84280587558336" lon="-4.6664573665674975"><ele>240.0</ele><time>2026-04-23T13:38:31Z</time></trkpt><trkpt lat="36.84277302185908" lon="-4.6663418726616825"><ele>235.0</ele><time>2026-04-23T13:38:33Z</time></trkpt><trkpt lat="36.84278261975397" lon="-4.666261188776574"><ele>230.0</ele><time>2026-04-23T13:38:34Z</time></trkpt><trkpt lat="36.84272471876772" lon="-4.666062968914574"><ele>225.0</ele><time>2026-04-23T13:38:35Z</time></trkpt><trkpt lat="36.842902148262255" lon="-4.665888408656001"><ele>225.0</ele><time>2026-04-23T13:38:36Z</time></trkpt><trkpt lat="36.84298465802463" lon="-4.6658420145691055"><ele>225.0</ele><time>2026-04-23T13:38:38Z</time></trkpt><trkpt lat="36.84324217861319" lon="-4.666433655641571"><ele>223.8571428571429</ele><time>2026-04-23T13:38:40Z</time></trkpt><trkpt lat="36.8432928740737" lon="-4.666500514263442"><ele>222.71428571428572</ele><time>2026-04-23T13:38:41Z</time></trkpt><trkpt lat="36.843349559682146" lon="-4.666537580681776"><ele>221.57142857142858</ele><time>2026-04-23T13:38:42Z</time></trkpt><trkpt lat="36.843416392159185" lon="-4.666540085187696"><ele>220.42857142857144</ele><time>2026-04-23T13:38:43Z</time></trkpt><trkpt lat="36.84347959777997" lon="-4.666516568604558"><ele>219.28571428571428</ele><time>2026-04-23T13:38:44Z</time></trkpt><trkpt lat="36.84353678143651" lon="-4.666469071110906"><ele>218.14285714285714</ele><time>2026-04-23T13:38:45Z</time></trkpt><trkpt lat="36.84358750596635" lon="-4.6663966278106015"><ele>217.0</ele><time>2026-04-23T13:38:46Z</time></trkpt><trkpt lat="36.84363960671879" lon="-4.666307027226573"><ele>211.99999999999997</ele><time>2026-04-23T13:38:47Z</time></trkpt><trkpt lat="36.843682651067724" lon="-4.6662133257796965"><ele>207.0</ele><time>2026-04-23T13:38:48Z</time></trkpt><trkpt lat="36.843728008680074" lon="-4.666113668968264"><ele>202.0</ele><time>2026-04-23T13:38:49Z</time></trkpt><trkpt lat="36.843775075466226" lon="-4.666023328991751"><ele>197.0</ele><time>2026-04-23T13:38:50Z</time></trkpt><trkpt lat="36.84380463170443" lon="-4.665940326307073"><ele>192.0</ele><time>2026-04-23T13:38:51Z</time></trkpt><trkpt lat="36.84380489060594" lon="-4.665849566093773"><ele>187.0</ele><time>2026-04-23T13:38:52Z</time></trkpt><trkpt lat="36.84376241541598" lon="-4.665696300628364"><ele>187.0</ele><time>2026-04-23T13:38:54Z</time></trkpt><trkpt lat="36.8437088731818" lon="-4.665617887184702"><ele>187.0</ele><time>2026-04-23T13:38:55Z</time></trkpt><trkpt lat="36.84366096492849" lon="-4.665539237652338"><ele>187.0</ele><time>2026-04-23T13:38:56Z</time></trkpt><trkpt lat="36.84361748615591" lon="-4.665459382416438"><ele>187.0</ele><time>2026-04-23T13:38:57Z</time></trkpt><trkpt lat="36.84358363304353" lon="-4.665367844135999"><ele>187.0</ele><time>2026-04-23T13:38:58Z</time></trkpt><trkpt lat="36.843552124554364" lon="-4.665277445569331"><ele>187.0</ele><time>2026-04-23T13:38:59Z</time></trkpt><trkpt lat="36.843530068782094" lon="-4.665180884180988"><ele>187.83333333333334</ele><time>2026-04-23T13:39:00Z</time></trkpt><trkpt lat="36.84352417462371" lon="-4.66507961832973"><ele>188.66666666666669</ele><time>2026-04-23T13:39:01Z</time></trkpt><trkpt lat="36.8435198554055" lon="-4.6649790879403605"><ele>189.5</ele><time>2026-04-23T13:39:02Z</time></trkpt><trkpt lat="36.84350251470447" lon="-4.664879891732014"><ele>190.33333333333334</ele><time>2026-04-23T13:39:03Z</time></trkpt><trkpt lat="36.843474729677496" lon="-4.664785311426457"><ele>191.16666666666666</ele><time>2026-04-23T13:39:04Z</time></trkpt><trkpt lat="36.8434426553604" lon="-4.664704818537265"><ele>192.0</ele><time>2026-04-23T13:39:05Z</time></trkpt><trkpt lat="36.84342121604287" lon="-4.664623123336926"><ele>192.0</ele><time>2026-04-23T13:39:06Z</time></trkpt><trkpt lat="36.8434177985622" lon="-4.664490819016481"><ele>192.0</ele><time>2026-04-23T13:39:08Z</time></trkpt><trkpt lat="36.843489592741875" lon="-4.66442661161797"><ele>192.0</ele><time>2026-04-23T13:39:09.999Z</time></trkpt><trkpt lat="36.84360306236036" lon="-4.664522560416138"><ele>192.0</ele><time>2026-04-23T13:39:11.999Z</time></trkpt><trkpt lat="36.843655760737335" lon="-4.664613764319001"><ele>192.0</ele><time>2026-04-23T13:39:12.999Z</time></trkpt><trkpt lat="36.84371016758124" lon="-4.664726736178431"><ele>192.0</ele><time>2026-04-23T13:39:13.999Z</time></trkpt><trkpt lat="36.843750408903155" lon="-4.6648102032113306"><ele>192.0</ele><time>2026-04-23T13:39:14.999Z</time></trkpt><trkpt lat="36.84378275658906" lon="-4.664904503180786"><ele>192.0</ele><time>2026-04-23T13:39:15.999Z</time></trkpt><trkpt lat="36.84380113810372" lon="-4.664997863812538"><ele>192.0</ele><time>2026-04-23T13:39:16.999Z</time></trkpt><trkpt lat="36.843831899505574" lon="-4.665067775954568"><ele>192.0</ele><time>2026-04-23T13:39:17.999Z</time></trkpt><trkpt lat="36.84392250551207" lon="-4.665149374134451"><ele>192.0</ele><time>2026-04-23T13:39:19.999Z</time></trkpt><trkpt lat="36.8440280942534" lon="-4.665180125586482"><ele>192.0</ele><time>2026-04-23T13:39:20.999Z</time></trkpt><trkpt lat="36.8441448607186" lon="-4.665236358642909"><ele>192.0</ele><time>2026-04-23T13:39:21.999Z</time></trkpt><trkpt lat="36.84423872214695" lon="-4.665300372200091"><ele>192.0</ele><time>2026-04-23T13:39:22.999Z</time></trkpt><trkpt lat="36.84431668752346" lon="-4.665373783092829"><ele>192.0</ele><time>2026-04-23T13:39:23.999Z</time></trkpt><trkpt lat="36.844383991236704" lon="-4.6654591435077775"><ele>192.0</ele><time>2026-04-23T13:39:24.999Z</time></trkpt><trkpt lat="36.84445302701696" lon="-4.665526425187077"><ele>187.6</ele><time>2026-04-23T13:39:25.999Z</time></trkpt><trkpt lat="36.84452788197641" lon="-4.6655713536282635"><ele>183.2</ele><time>2026-04-23T13:39:26.999Z</time></trkpt><trkpt lat="36.844624972467784" lon="-4.6655905368115755"><ele>178.8</ele><time>2026-04-23T13:39:27.999Z</time></trkpt><trkpt lat="36.84472442884411" lon="-4.665585576011188"><ele>174.4</ele><time>2026-04-23T13:39:28.999Z</time></trkpt><trkpt lat="36.84481148526633" lon="-4.665595695328899"><ele>170.0</ele><time>2026-04-23T13:39:29.999Z</time></trkpt><trkpt lat="36.84489273177208" lon="-4.665604151155842"><ele>170.0</ele><time>2026-04-23T13:39:30.999Z</time></trkpt><trkpt lat="36.84496647495756" lon="-4.665591236689837"><ele>170.0</ele><time>2026-04-23T13:39:31.999Z</time></trkpt><trkpt lat="36.84504356921321" lon="-4.665530175264872"><ele>170.0</ele><time>2026-04-23T13:39:32.999Z</time></trkpt><trkpt lat="36.845123125625946" lon="-4.665494295418245"><ele>170.0</ele><time>2026-04-23T13:39:33.999Z</time></trkpt><trkpt lat="36.84521523728348" lon="-4.665495784097461"><ele>170.0</ele><time>2026-04-23T13:39:34.999Z</time></trkpt><trkpt lat="36.845325254456746" lon="-4.66551933411501"><ele>168.33333333333331</ele><time>2026-04-23T13:39:35.999Z</time></trkpt><trkpt lat="36.84541188726915" lon="-4.665520107606598"><ele>166.66666666666666</ele><time>2026-04-23T13:39:36.999Z</time></trkpt><trkpt lat="36.845495326621545" lon="-4.665506453862737"><ele>165.0</ele><time>2026-04-23T13:39:37.999Z</time></trkpt><trkpt lat="36.84559579114051" lon="-4.66548991722534"><ele>163.33333333333334</ele><time>2026-04-23T13:39:38.999Z</time></trkpt><trkpt lat="36.845687183625046" lon="-4.665498311362798"><ele>161.66666666666669</ele><time>2026-04-23T13:39:39.999Z</time></trkpt><trkpt lat="36.845762832187866" lon="-4.665508673301686"><ele>160.0</ele><time>2026-04-23T13:39:40.999Z</time></trkpt><trkpt lat="36.84586687973001" lon="-4.665456606873048"><ele>160.0</ele><time>2026-04-23T13:39:42.999Z</time></trkpt><trkpt lat="36.8458733198443" lon="-4.665374763586206"><ele>160.0</ele><time>2026-04-23T13:39:43.999Z</time></trkpt><trkpt lat="36.84585968346701" lon="-4.66527110933029"><ele>160.0</ele><time>2026-04-23T13:39:44.999Z</time></trkpt><trkpt lat="36.84587896859232" lon="-4.665121921011093"><ele>160.0</ele><time>2026-04-23T13:39:45.999Z</time></trkpt><trkpt lat="36.84589536813779" lon="-4.6649955790274715"><ele>160.0</ele><time>2026-04-23T13:39:46.999Z</time></trkpt><trkpt lat="36.84590642385463" lon="-4.664879085597364"><ele>161.2</ele><time>2026-04-23T13:39:47.999Z</time></trkpt><trkpt lat="36.845917030244" lon="-4.664784245621837"><ele>162.4</ele><time>2026-04-23T13:39:48.999Z</time></trkpt><trkpt lat="36.845938706633746" lon="-4.664645536327904"><ele>163.60000000000002</ele><time>2026-04-23T13:39:50.999Z</time></trkpt><trkpt lat="36.84598044430811" lon="-4.664542398304775"><ele>164.8</ele><time>2026-04-23T13:39:52.999Z</time></trkpt><trkpt lat="36.84605664941823" lon="-4.664533701898213"><ele>166.0</ele><time>2026-04-23T13:39:54.999Z</time></trkpt><trkpt lat="36.84613468269921" lon="-4.664673677491376"><ele>166.20000000000002</ele><time>2026-04-23T13:39:56.999Z</time></trkpt><trkpt lat="36.84613995832111" lon="-4.664758239337664"><ele>166.4</ele><time>2026-04-23T13:39:58Z</time></trkpt><trkpt lat="36.84615016497675" lon="-4.664873055834937"><ele>166.6</ele><time>2026-04-23T13:39:59Z</time></trkpt><trkpt lat="36.84618201298231" lon="-4.665002285635073"><ele>166.8</ele><time>2026-04-23T13:40:00Z</time></trkpt><trkpt lat="36.846213670214595" lon="-4.665135154706591"><ele>167.0</ele><time>2026-04-23T13:40:01Z</time></trkpt><trkpt lat="36.846210851243995" lon="-4.6652536079587"><ele>165.0</ele><time>2026-04-23T13:40:02Z</time></trkpt><trkpt lat="36.84621389443078" lon="-4.6653672983966175"><ele>163.0</ele><time>2026-04-23T13:40:03Z</time></trkpt><trkpt lat="36.846228715531836" lon="-4.6654817106367314"><ele>161.0</ele><time>2026-04-23T13:40:04Z</time></trkpt><trkpt lat="36.846211837954634" lon="-4.6655973023210136"><ele>159.0</ele><time>2026-04-23T13:40:05Z</time></trkpt><trkpt lat="36.84620975891114" lon="-4.6656861207802445"><ele>157.0</ele><time>2026-04-23T13:40:06Z</time></trkpt><trkpt lat="36.846205140683914" lon="-4.665811498564548"><ele>155.0</ele><time>2026-04-23T13:40:08Z</time></trkpt><trkpt lat="36.84619663880424" lon="-4.665918394646236"><ele>155.0</ele><time>2026-04-23T13:40:10Z</time></trkpt><trkpt lat="36.846176533690006" lon="-4.666035801404268"><ele>155.0</ele><time>2026-04-23T13:40:12Z</time></trkpt><trkpt lat="36.84613404439638" lon="-4.6661609950011"><ele>155.0</ele><time>2026-04-23T13:40:14Z</time></trkpt><trkpt lat="36.84608027049843" lon="-4.666281601653769"><ele>155.0</ele><time>2026-04-23T13:40:16Z</time></trkpt><trkpt lat="36.846133534928235" lon="-4.666176982848777"><ele>155.0</ele><time>2026-04-23T13:40:26Z</time></trkpt><trkpt lat="36.84622877073119" lon="-4.666107532387662"><ele>155.0</ele><time>2026-04-23T13:40:28Z</time></trkpt><trkpt lat="36.846247100298044" lon="-4.665985155195198"><ele>155.0</ele><time>2026-04-23T13:40:30Z</time></trkpt><trkpt lat="36.84627003765662" lon="-4.6658743971236785"><ele>155.0</ele><time>2026-04-23T13:40:32Z</time></trkpt><trkpt lat="36.846267179203956" lon="-4.665776442619368"><ele>155.0</ele><time>2026-04-23T13:40:34Z</time></trkpt><trkpt lat="36.846278903472765" lon="-4.665879576780703"><ele>155.0</ele><time>2026-04-23T13:40:55.999Z</time></trkpt><trkpt lat="36.84625241847397" lon="-4.666034358698649"><ele>155.0</ele><time>2026-04-23T13:40:57.999Z</time></trkpt><trkpt lat="36.84616565451856" lon="-4.666073697371231"><ele>155.0</ele><time>2026-04-23T13:40:58.999Z</time></trkpt><trkpt lat="36.84613004062978" lon="-4.66617120602295"><ele>155.0</ele><time>2026-04-23T13:41:00.999Z</time></trkpt><trkpt lat="36.84609842616426" lon="-4.666242363679016"><ele>155.0</ele><time>2026-04-23T13:41:03.999Z</time></trkpt><trkpt lat="36.8460507089311" lon="-4.6663454904015005"><ele>155.0</ele><time>2026-04-23T13:41:22.999Z</time></trkpt><trkpt lat="36.84597766201194" lon="-4.666477678588201"><ele>155.0</ele><time>2026-04-23T13:41:24.999Z</time></trkpt><trkpt lat="36.84593256407582" lon="-4.6665556929178"><ele>155.0</ele><time>2026-04-23T13:41:25.999Z</time></trkpt><trkpt lat="36.84589421196885" lon="-4.666638162221027"><ele>155.0</ele><time>2026-04-23T13:41:26.999Z</time></trkpt><trkpt lat="36.8458596590025" lon="-4.6667175967591"><ele>155.0</ele><time>2026-04-23T13:41:27.999Z</time></trkpt><trkpt lat="36.84585529851497" lon="-4.666825336355805"><ele>155.0</ele><time>2026-04-23T13:41:28.999Z</time></trkpt><trkpt lat="36.84585178028957" lon="-4.666907924058079"><ele>155.0</ele><time>2026-04-23T13:41:29.999Z</time></trkpt><trkpt lat="36.84587084137915" lon="-4.667040837789236"><ele>154.0</ele><time>2026-04-23T13:41:31.999Z</time></trkpt><trkpt lat="36.84592665859111" lon="-4.667188891703163"><ele>153.0</ele><time>2026-04-23T13:41:33.999Z</time></trkpt><trkpt lat="36.845912828612754" lon="-4.667325524154936"><ele>152.0</ele><time>2026-04-23T13:41:35.999Z</time></trkpt><trkpt lat="36.84590094146976" lon="-4.667456898629833"><ele>151.0</ele><time>2026-04-23T13:41:37.999Z</time></trkpt><trkpt lat="36.84589436805766" lon="-4.66757091110966"><ele>150.0</ele><time>2026-04-23T13:41:39.999Z</time></trkpt><trkpt lat="36.845891623965684" lon="-4.667712945150782"><ele>149.7142857142857</ele><time>2026-04-23T13:41:41.999Z</time></trkpt><trkpt lat="36.84590100027539" lon="-4.667839572821947"><ele>149.42857142857142</ele><time>2026-04-23T13:41:43.999Z</time></trkpt><trkpt lat="36.84591344645408" lon="-4.667921509125143"><ele>149.14285714285714</ele><time>2026-04-23T13:41:44.999Z</time></trkpt><trkpt lat="36.84592648856452" lon="-4.668007366041972"><ele>148.85714285714283</ele><time>2026-04-23T13:41:45.999Z</time></trkpt><trkpt lat="36.845970750154414" lon="-4.668096056789858"><ele>148.57142857142856</ele><time>2026-04-23T13:41:47.999Z</time></trkpt><trkpt lat="36.845997196425756" lon="-4.668167475124609"><ele>148.28571428571428</ele><time>2026-04-23T13:41:48.999Z</time></trkpt><trkpt lat="36.845997196425756" lon="-4.668167475124609"><ele>148.0</ele><time>2026-04-23T13:41:48.999Z</time></trkpt><trkpt lat="36.84613825353073" lon="-4.668564700856192"><ele>149.0</ele><time>2026-04-23T13:41:53.999Z</time></trkpt><trkpt lat="36.84617765234189" lon="-4.668692555182151"><ele>150.0</ele><time>2026-04-23T13:41:55.999Z</time></trkpt><trkpt lat="36.84621013579768" lon="-4.668842963010019"><ele>151.0</ele><time>2026-04-23T13:41:57.999Z</time></trkpt><trkpt lat="36.84622001925542" lon="-4.66895833104348"><ele>152.0</ele><time>2026-04-23T13:41:58.999Z</time></trkpt><trkpt lat="36.84621297362811" lon="-4.669062780745993"><ele>153.0</ele><time>2026-04-23T13:41:59.999Z</time></trkpt><trkpt lat="36.84620992665323" lon="-4.6691435589185355"><ele>153.0</ele><time>2026-04-23T13:42:00.999Z</time></trkpt><trkpt lat="36.846187921946466" lon="-4.669265743038823"><ele>153.0</ele><time>2026-04-23T13:42:02.999Z</time></trkpt><trkpt lat="36.84619659051615" lon="-4.669365672630424"><ele>153.0</ele><time>2026-04-23T13:42:04.999Z</time></trkpt><trkpt lat="36.846187205985345" lon="-4.6694716974672215"><ele>153.0</ele><time>2026-04-23T13:42:06.999Z</time></trkpt><trkpt lat="36.84618495650165" lon="-4.669587583309237"><ele>153.0</ele><time>2026-04-23T13:42:08.999Z</time></trkpt><trkpt lat="36.84619438817818" lon="-4.6697283263874025"><ele>152.4</ele><time>2026-04-23T13:42:10.999Z</time></trkpt><trkpt lat="36.84616856571752" lon="-4.66984659879515"><ele>151.8</ele><time>2026-04-23T13:42:12.999Z</time></trkpt><trkpt lat="36.84615612447509" lon="-4.670004512144854"><ele>151.2</ele><time>2026-04-23T13:42:14.999Z</time></trkpt><trkpt lat="36.846148434993424" lon="-4.670100047314916"><ele>150.6</ele><time>2026-04-23T13:42:15.999Z</time></trkpt><trkpt lat="36.846137379896724" lon="-4.670237397131082"><ele>150.0</ele><time>2026-04-23T13:42:17.999Z</time></trkpt><trkpt lat="36.846133140179354" lon="-4.670387552071204"><ele>149.66666666666666</ele><time>2026-04-23T13:42:19.999Z</time></trkpt><trkpt lat="36.846133393593746" lon="-4.670476652259225"><ele>149.33333333333334</ele><time>2026-04-23T13:42:20.999Z</time></trkpt><trkpt lat="36.84613676936992" lon="-4.670583192881009"><ele>149.0</ele><time>2026-04-23T13:42:21.999Z</time></trkpt><trkpt lat="36.84615349064205" lon="-4.6706789611323485"><ele>148.66666666666669</ele><time>2026-04-23T13:42:22.999Z</time></trkpt><trkpt lat="36.84618155451875" lon="-4.670787580719757"><ele>148.33333333333334</ele><time>2026-04-23T13:42:23.999Z</time></trkpt><trkpt lat="36.846215373738254" lon="-4.670892982727827"><ele>148.0</ele><time>2026-04-23T13:42:24.999Z</time></trkpt><trkpt lat="36.8462484330844" lon="-4.670999200923859"><ele>148.0</ele><time>2026-04-23T13:42:25.999Z</time></trkpt><trkpt lat="36.846280038131304" lon="-4.671103425073291"><ele>148.0</ele><time>2026-04-23T13:42:27Z</time></trkpt><trkpt lat="36.84631278693561" lon="-4.6712107488669625"><ele>148.0</ele><time>2026-04-23T13:42:28Z</time></trkpt><trkpt lat="36.8463449579017" lon="-4.671315338748756"><ele>148.0</ele><time>2026-04-23T13:42:29Z</time></trkpt><trkpt lat="36.84638177103935" lon="-4.671427307015385"><ele>148.0</ele><time>2026-04-23T13:42:30Z</time></trkpt><trkpt lat="36.84641925461333" lon="-4.6715414303181895"><ele>147.4</ele><time>2026-04-23T13:42:31Z</time></trkpt><trkpt lat="36.84645452480772" lon="-4.671647950937014"><ele>146.8</ele><time>2026-04-23T13:42:32Z</time></trkpt><trkpt lat="36.84649938133065" lon="-4.671770641943531"><ele>146.2</ele><time>2026-04-23T13:42:33Z</time></trkpt><trkpt lat="36.84653917668495" lon="-4.671871996915215"><ele>145.6</ele><time>2026-04-23T13:42:34Z</time></trkpt><trkpt lat="36.8465762698068" lon="-4.671967558590137"><ele>145.0</ele><time>2026-04-23T13:42:35Z</time></trkpt><trkpt lat="36.84661626576231" lon="-4.672058913674375"><ele>144.83333333333334</ele><time>2026-04-23T13:42:36Z</time></trkpt><trkpt lat="36.846640361881505" lon="-4.672156815986716"><ele>144.66666666666669</ele><time>2026-04-23T13:42:37Z</time></trkpt><trkpt lat="36.84666558017163" lon="-4.67225536880792"><ele>144.5</ele><time>2026-04-23T13:42:38Z</time></trkpt><trkpt lat="36.84671865054678" lon="-4.6723428296101055"><ele>144.33333333333334</ele><time>2026-04-23T13:42:38.999Z</time></trkpt><trkpt lat="36.84676694581384" lon="-4.67244230568769"><ele>144.16666666666666</ele><time>2026-04-23T13:42:39.999Z</time></trkpt><trkpt lat="36.84681665820643" lon="-4.672539369976294"><ele>144.0</ele><time>2026-04-23T13:42:40.999Z</time></trkpt><trkpt lat="36.84686900145613" lon="-4.672637205183761"><ele>144.2</ele><time>2026-04-23T13:42:41.999Z</time></trkpt><trkpt lat="36.84692348403801" lon="-4.6727365933327345"><ele>144.4</ele><time>2026-04-23T13:42:42.999Z</time></trkpt><trkpt lat="36.84697922659679" lon="-4.672838280212787"><ele>144.6</ele><time>2026-04-23T13:42:43.999Z</time></trkpt><trkpt lat="36.84703672204371" lon="-4.672939374009778"><ele>144.8</ele><time>2026-04-23T13:42:44.999Z</time></trkpt><trkpt lat="36.84708805011359" lon="-4.673026715151676"><ele>145.0</ele><time>2026-04-23T13:42:45.999Z</time></trkpt><trkpt lat="36.84713713019804" lon="-4.673106900164277"><ele>145.0</ele><time>2026-04-23T13:42:46.999Z</time></trkpt><trkpt lat="36.847176943171235" lon="-4.673171944947417"><ele>145.0</ele><time>2026-04-23T13:42:47.999Z</time></trkpt><trkpt lat="36.847218195312934" lon="-4.6732414566407865"><ele>145.0</ele><time>2026-04-23T13:42:48.999Z</time></trkpt><trkpt lat="36.84728590679492" lon="-4.6733620094141815"><ele>145.0</ele><time>2026-04-23T13:42:50.999Z</time></trkpt><trkpt lat="36.84732846834267" lon="-4.673454108353612"><ele>145.0</ele><time>2026-04-23T13:42:52.999Z</time></trkpt><trkpt lat="36.847387788920244" lon="-4.673560608737325"><ele>145.0</ele><time>2026-04-23T13:42:54.999Z</time></trkpt><trkpt lat="36.84743681214731" lon="-4.673677552907435"><ele>145.0</ele><time>2026-04-23T13:42:56.999Z</time></trkpt><trkpt lat="36.84751742274463" lon="-4.673800680702215"><ele>145.0</ele><time>2026-04-23T13:42:58.999Z</time></trkpt><trkpt lat="36.84754559840296" lon="-4.673877790335394"><ele>145.0</ele><time>2026-04-23T13:42:59.999Z</time></trkpt><trkpt lat="36.847584030010765" lon="-4.673947494057917"><ele>145.0</ele><time>2026-04-23T13:43:00.999Z</time></trkpt><trkpt lat="36.84763269192226" lon="-4.674009728072302"><ele>145.0</ele><time>2026-04-23T13:43:01.999Z</time></trkpt><trkpt lat="36.84773204812927" lon="-4.67409987565941"><ele>144.6</ele><time>2026-04-23T13:43:03.999Z</time></trkpt><trkpt lat="36.84782582809698" lon="-4.674146183071226"><ele>144.2</ele><time>2026-04-23T13:43:05.999Z</time></trkpt><trkpt lat="36.84789855934845" lon="-4.674208816585689"><ele>143.8</ele><time>2026-04-23T13:43:07.999Z</time></trkpt><trkpt lat="36.847992511516445" lon="-4.674264091736869"><ele>143.4</ele><time>2026-04-23T13:43:09.999Z</time></trkpt><trkpt lat="36.84809238663329" lon="-4.6743351850179025"><ele>143.0</ele><time>2026-04-23T13:43:11.999Z</time></trkpt><trkpt lat="36.84818273507056" lon="-4.674404390426344"><ele>142.16666666666666</ele><time>2026-04-23T13:43:13.999Z</time></trkpt><trkpt lat="36.84824136598862" lon="-4.674440827985516"><ele>141.33333333333331</ele><time>2026-04-23T13:43:14.999Z</time></trkpt><trkpt lat="36.848294360007266" lon="-4.674486983911107"><ele>140.5</ele><time>2026-04-23T13:43:15.999Z</time></trkpt><trkpt lat="36.848344365930195" lon="-4.6746237321206365"><ele>139.66666666666666</ele><time>2026-04-23T13:43:17.999Z</time></trkpt><trkpt lat="36.84837279864456" lon="-4.674718522335465"><ele>138.83333333333334</ele><time>2026-04-23T13:43:18.999Z</time></trkpt><trkpt lat="36.84841922956501" lon="-4.674792466224205"><ele>138.0</ele><time>2026-04-23T13:43:19.999Z</time></trkpt><trkpt lat="36.84845284304227" lon="-4.674860126912553"><ele>137.75</ele><time>2026-04-23T13:43:20.999Z</time></trkpt><trkpt lat="36.848501747361055" lon="-4.674950588370468"><ele>137.5</ele><time>2026-04-23T13:43:21.999Z</time></trkpt><trkpt lat="36.84858055297491" lon="-4.675084753652695"><ele>137.25</ele><time>2026-04-23T13:43:23.999Z</time></trkpt><trkpt lat="36.84863473403643" lon="-4.675168721712515"><ele>137.0</ele><time>2026-04-23T13:43:24.999Z</time></trkpt><trkpt lat="36.848789183382394" lon="-4.675292297292324"><ele>136.83333333333331</ele><time>2026-04-23T13:43:25.999Z</time></trkpt><trkpt lat="36.84891592929729" lon="-4.675366514632648"><ele>136.66666666666666</ele><time>2026-04-23T13:43:27.999Z</time></trkpt><trkpt lat="36.848994301711826" lon="-4.675440592616374"><ele>136.5</ele><time>2026-04-23T13:43:29.999Z</time></trkpt><trkpt lat="36.84898836367837" lon="-4.675519256901808"><ele>136.33333333333334</ele><time>2026-04-23T13:43:34.999Z</time></trkpt><trkpt lat="36.84902569011562" lon="-4.675604789175788"><ele>136.16666666666669</ele><time>2026-04-23T13:43:36.999Z</time></trkpt><trkpt lat="36.84905670588221" lon="-4.675675861704641"><ele>136.0</ele><time>2026-04-23T13:43:38.999Z</time></trkpt><trkpt lat="36.849079498933335" lon="-4.67575242952374"><ele>136.0</ele><time>2026-04-23T13:43:41.999Z</time></trkpt><trkpt lat="36.84910633112908" lon="-4.675828683149323"><ele>136.0</ele><time>2026-04-23T13:43:43.999Z</time></trkpt><trkpt lat="36.84912655836294" lon="-4.675944796878965"><ele>136.0</ele><time>2026-04-23T13:43:47.999Z</time></trkpt><trkpt lat="36.84913685469565" lon="-4.676024294405183"><ele>136.0</ele><time>2026-04-23T13:43:49.999Z</time></trkpt><trkpt lat="36.84916784830866" lon="-4.676127424553229"><ele>136.0</ele><time>2026-04-23T13:43:51.999Z</time></trkpt><trkpt lat="36.84983599872198" lon="-4.67626210755751"><ele>136.16666666666669</ele><time>2026-04-23T13:43:56.999Z</time></trkpt><trkpt lat="36.849896374567116" lon="-4.676396805028022"><ele>136.33333333333334</ele><time>2026-04-23T13:43:58.999Z</time></trkpt><trkpt lat="36.849925366948256" lon="-4.676468413745499"><ele>136.5</ele><time>2026-04-23T13:43:59.999Z</time></trkpt><trkpt lat="36.84997869731415" lon="-4.676612152204681"><ele>136.66666666666666</ele><time>2026-04-23T13:44:01.999Z</time></trkpt><trkpt lat="36.85000724303863" lon="-4.676686310947923"><ele>136.83333333333331</ele><time>2026-04-23T13:44:02.999Z</time></trkpt><trkpt lat="36.85003479171015" lon="-4.676759012736081"><ele>137.0</ele><time>2026-04-23T13:44:03.999Z</time></trkpt><trkpt lat="36.85008600876487" lon="-4.676901424146577"><ele>137.0</ele><time>2026-04-23T13:44:05.999Z</time></trkpt><trkpt lat="36.8501136568809" lon="-4.676981008876867"><ele>137.0</ele><time>2026-04-23T13:44:06.999Z</time></trkpt><trkpt lat="36.85014325244725" lon="-4.677122688442774"><ele>137.0</ele><time>2026-04-23T13:44:08.999Z</time></trkpt><trkpt lat="36.85016385422585" lon="-4.677210513835984"><ele>137.0</ele><time>2026-04-23T13:44:11Z</time></trkpt><trkpt lat="36.850101558702185" lon="-4.677272091073211"><ele>137.0</ele><time>2026-04-23T13:44:14Z</time></trkpt><trkpt lat="36.850007008164184" lon="-4.677247031295306"><ele>137.0</ele><time>2026-04-23T13:44:16Z</time></trkpt><trkpt lat="36.84992650257569" lon="-4.677290774615004"><ele>136.85714285714286</ele><time>2026-04-23T13:44:18Z</time></trkpt><trkpt lat="36.84986004004685" lon="-4.677393843711261"><ele>136.71428571428572</ele><time>2026-04-23T13:44:20Z</time></trkpt><trkpt lat="36.8498254566918" lon="-4.677462063616678"><ele>136.57142857142856</ele><time>2026-04-23T13:44:21Z</time></trkpt><trkpt lat="36.84978999745159" lon="-4.677530465501282"><ele>136.42857142857144</ele><time>2026-04-23T13:44:22Z</time></trkpt><trkpt lat="36.84974349042199" lon="-4.677598164813567"><ele>136.28571428571428</ele><time>2026-04-23T13:44:23Z</time></trkpt><trkpt lat="36.8496919238566" lon="-4.6776611324263415"><ele>136.14285714285714</ele><time>2026-04-23T13:44:24Z</time></trkpt><trkpt lat="36.84964774417801" lon="-4.677721436696613"><ele>136.0</ele><time>2026-04-23T13:44:25Z</time></trkpt><trkpt lat="36.84959213134443" lon="-4.677782945236508"><ele>135.99999999999997</ele><time>2026-04-23T13:44:26Z</time></trkpt><trkpt lat="36.8495408027906" lon="-4.677845627640182"><ele>136.0</ele><time>2026-04-23T13:44:27Z</time></trkpt><trkpt lat="36.849488166177025" lon="-4.677896618087006"><ele>136.0</ele><time>2026-04-23T13:44:28Z</time></trkpt><trkpt lat="36.84941723662061" lon="-4.677945902527366"><ele>136.0</ele><time>2026-04-23T13:44:29Z</time></trkpt><trkpt lat="36.849348747256144" lon="-4.677995464834362"><ele>136.0</ele><time>2026-04-23T13:44:30Z</time></trkpt><trkpt lat="36.84928815821975" lon="-4.678031452649339"><ele>135.99999999999997</ele><time>2026-04-23T13:44:31Z</time></trkpt><trkpt lat="36.849226152620865" lon="-4.678074816833061"><ele>136.0</ele><time>2026-04-23T13:44:32Z</time></trkpt><trkpt lat="36.84916765692991" lon="-4.67812253038426"><ele>136.0</ele><time>2026-04-23T13:44:33Z</time></trkpt><trkpt lat="36.849111082765894" lon="-4.678172147057085"><ele>136.0</ele><time>2026-04-23T13:44:34Z</time></trkpt><trkpt lat="36.849057111809344" lon="-4.6782174517311885"><ele>136.0</ele><time>2026-04-23T13:44:35Z</time></trkpt><trkpt lat="36.848960428504164" lon="-4.678294113235946"><ele>136.0</ele><time>2026-04-23T13:44:37Z</time></trkpt><trkpt lat="36.84885772910563" lon="-4.678307434723908"><ele>136.0</ele><time>2026-04-23T13:44:39Z</time></trkpt><trkpt lat="36.84880086055248" lon="-4.6783856487804245"><ele>136.0</ele><time>2026-04-23T13:44:41Z</time></trkpt><trkpt lat="36.848734658700494" lon="-4.67847326394402"><ele>136.0</ele><time>2026-04-23T13:44:43Z</time></trkpt><trkpt lat="36.84866547400189" lon="-4.678514438107814"><ele>136.0</ele><time>2026-04-23T13:44:45Z</time></trkpt><trkpt lat="36.84860926314926" lon="-4.678570470959343"><ele>136.0</ele><time>2026-04-23T13:44:47Z</time></trkpt><trkpt lat="36.84853263719526" lon="-4.678646840581761"><ele>136.0</ele><time>2026-04-23T13:44:49Z</time></trkpt><trkpt lat="36.84845089429566" lon="-4.678728083803647"><ele>136.0</ele><time>2026-04-23T13:44:51Z</time></trkpt><trkpt lat="36.84837149268893" lon="-4.6788069983023055"><ele>135.66666666666669</ele><time>2026-04-23T13:44:53Z</time></trkpt><trkpt lat="36.848300728967715" lon="-4.678891702340201"><ele>135.33333333333334</ele><time>2026-04-23T13:44:55Z</time></trkpt><trkpt lat="36.8482360710117" lon="-4.678966337283692"><ele>135.0</ele><time>2026-04-23T13:44:57Z</time></trkpt><trkpt lat="36.84815763517403" lon="-4.679056875077137"><ele>134.66666666666666</ele><time>2026-04-23T13:44:59Z</time></trkpt><trkpt lat="36.8480981228447" lon="-4.679117671043798"><ele>134.33333333333331</ele><time>2026-04-23T13:45:00Z</time></trkpt><trkpt lat="36.84804905461773" lon="-4.679167895667984"><ele>134.0</ele><time>2026-04-23T13:45:01Z</time></trkpt><trkpt lat="36.84796200512715" lon="-4.679258894220937"><ele>134.0</ele><time>2026-04-23T13:45:03Z</time></trkpt><trkpt lat="36.847863564029154" lon="-4.6793483100552145"><ele>134.0</ele><time>2026-04-23T13:45:05Z</time></trkpt><trkpt lat="36.847774268613236" lon="-4.679396378648615"><ele>134.0</ele><time>2026-04-23T13:45:07Z</time></trkpt><trkpt lat="36.84770899282396" lon="-4.679423717419093"><ele>134.0</ele><time>2026-04-23T13:45:08Z</time></trkpt><trkpt lat="36.84756618616705" lon="-4.6794601637135935"><ele>134.0</ele><time>2026-04-23T13:45:10Z</time></trkpt><trkpt lat="36.847493284344125" lon="-4.679464956863796"><ele>133.71428571428572</ele><time>2026-04-23T13:45:10.999Z</time></trkpt><trkpt lat="36.847426042001395" lon="-4.679471368640012"><ele>133.42857142857142</ele><time>2026-04-23T13:45:11.999Z</time></trkpt><trkpt lat="36.84735131505661" lon="-4.6794783705631104"><ele>133.14285714285714</ele><time>2026-04-23T13:45:12.999Z</time></trkpt><trkpt lat="36.847271196238786" lon="-4.679476833798217"><ele>132.85714285714286</ele><time>2026-04-23T13:45:13.999Z</time></trkpt><trkpt lat="36.84719821841368" lon="-4.679483632617048"><ele>132.57142857142858</ele><time>2026-04-23T13:45:14.999Z</time></trkpt><trkpt lat="36.847134373591" lon="-4.679475438451569"><ele>132.28571428571428</ele><time>2026-04-23T13:45:15.999Z</time></trkpt><trkpt lat="36.84707290679127" lon="-4.679496536379309"><ele>132.0</ele><time>2026-04-23T13:45:16.999Z</time></trkpt><trkpt lat="36.846959039249846" lon="-4.67950039420082"><ele>132.0</ele><time>2026-04-23T13:45:18.999Z</time></trkpt><trkpt lat="36.84683856661149" lon="-4.679503226382105"><ele>132.0</ele><time>2026-04-23T13:45:20.999Z</time></trkpt><trkpt lat="36.846720672853365" lon="-4.679504442007607"><ele>132.0</ele><time>2026-04-23T13:45:22.999Z</time></trkpt><trkpt lat="36.84665530430252" lon="-4.679504625640234"><ele>132.0</ele><time>2026-04-23T13:45:23.999Z</time></trkpt><trkpt lat="36.84652865202919" lon="-4.679499960181272"><ele>132.0</ele><time>2026-04-23T13:45:25.999Z</time></trkpt><trkpt lat="36.84646494418099" lon="-4.679495976428062"><ele>132.33333333333334</ele><time>2026-04-23T13:45:26.999Z</time></trkpt><trkpt lat="36.84639849744835" lon="-4.679491202014985"><ele>132.66666666666666</ele><time>2026-04-23T13:45:27.999Z</time></trkpt><trkpt lat="36.84628384111139" lon="-4.679478376166993"><ele>133.0</ele><time>2026-04-23T13:45:29.999Z</time></trkpt><trkpt lat="36.846207506354126" lon="-4.679469837129644"><ele>133.33333333333331</ele><time>2026-04-23T13:45:31.999Z</time></trkpt><trkpt lat="36.846138903412644" lon="-4.679462162995587"><ele>133.66666666666666</ele><time>2026-04-23T13:45:34.999Z</time></trkpt><trkpt lat="36.84607721640351" lon="-4.6794790738952"><ele>134.0</ele><time>2026-04-23T13:45:36.999Z</time></trkpt><trkpt lat="36.84599956926147" lon="-4.679473315277829"><ele>133.83333333333331</ele><time>2026-04-23T13:45:38.999Z</time></trkpt><trkpt lat="36.84592662463237" lon="-4.679468020272702"><ele>133.66666666666666</ele><time>2026-04-23T13:45:40.999Z</time></trkpt><trkpt lat="36.84585520697276" lon="-4.679463646899802"><ele>133.5</ele><time>2026-04-23T13:45:42.999Z</time></trkpt><trkpt lat="36.84577967404025" lon="-4.679477867718517"><ele>133.33333333333334</ele><time>2026-04-23T13:45:44.999Z</time></trkpt><trkpt lat="36.84571302305549" lon="-4.679465233838368"><ele>133.16666666666669</ele><time>2026-04-23T13:47:01Z</time></trkpt><trkpt lat="36.84563617029429" lon="-4.679431834492049"><ele>133.0</ele><time>2026-04-23T13:47:03Z</time></trkpt><trkpt lat="36.845503242787814" lon="-4.679437861538089"><ele>133.0</ele><time>2026-04-23T13:47:05Z</time></trkpt><trkpt lat="36.84543180485059" lon="-4.679437012853868"><ele>133.0</ele><time>2026-04-23T13:47:06Z</time></trkpt><trkpt lat="36.84534971471579" lon="-4.679432753870511"><ele>133.0</ele><time>2026-04-23T13:47:07Z</time></trkpt><trkpt lat="36.845274468046405" lon="-4.679422374948264"><ele>133.0</ele><time>2026-04-23T13:47:08Z</time></trkpt><trkpt lat="36.84519134078492" lon="-4.679404264053889"><ele>133.0</ele><time>2026-04-23T13:47:09Z</time></trkpt><trkpt lat="36.84511482216397" lon="-4.679382566094951"><ele>133.0</ele><time>2026-04-23T13:47:10Z</time></trkpt><trkpt lat="36.84503197488749" lon="-4.679377188972403"><ele>132.6</ele><time>2026-04-23T13:47:11Z</time></trkpt><trkpt lat="36.844945010707" lon="-4.679386945947145"><ele>132.20000000000002</ele><time>2026-04-23T13:47:12Z</time></trkpt><trkpt lat="36.84485496457001" lon="-4.67938646027863"><ele>131.8</ele><time>2026-04-23T13:47:13Z</time></trkpt><trkpt lat="36.84476571202445" lon="-4.6794051769501035"><ele>131.4</ele><time>2026-04-23T13:47:14Z</time></trkpt><trkpt lat="36.844673003930055" lon="-4.679414944867974"><ele>131.0</ele><time>2026-04-23T13:47:15Z</time></trkpt><trkpt lat="36.84457968483702" lon="-4.679419570136463"><ele>131.0</ele><time>2026-04-23T13:47:16Z</time></trkpt><trkpt lat="36.844486603285496" lon="-4.679407873750882"><ele>131.0</ele><time>2026-04-23T13:47:17Z</time></trkpt><trkpt lat="36.84440095926293" lon="-4.6794491283801225"><ele>131.0</ele><time>2026-04-23T13:47:18Z</time></trkpt><trkpt lat="36.84431317527684" lon="-4.679494552452423"><ele>131.0</ele><time>2026-04-23T13:47:19Z</time></trkpt><trkpt lat="36.84421554849746" lon="-4.679501656314177"><ele>131.0</ele><time>2026-04-23T13:47:20Z</time></trkpt><trkpt lat="36.84412617818347" lon="-4.67952756332158"><ele>131.0</ele><time>2026-04-23T13:47:21Z</time></trkpt><trkpt lat="36.84402923068176" lon="-4.679555725227575"><ele>131.0</ele><time>2026-04-23T13:47:22Z</time></trkpt><trkpt lat="36.84393887878637" lon="-4.6795937017128315"><ele>131.0</ele><time>2026-04-23T13:47:23Z</time></trkpt><trkpt lat="36.84385041238437" lon="-4.6796390667909975"><ele>131.0</ele><time>2026-04-23T13:47:24Z</time></trkpt><trkpt lat="36.8437640691628" lon="-4.679686403862437"><ele>131.0</ele><time>2026-04-23T13:47:25Z</time></trkpt><trkpt lat="36.843675967454175" lon="-4.679739020556895"><ele>131.0</ele><time>2026-04-23T13:47:26Z</time></trkpt><trkpt lat="36.84359205899088" lon="-4.679793081200686"><ele>131.0</ele><time>2026-04-23T13:47:27Z</time></trkpt><trkpt lat="36.84353323837012" lon="-4.679842371794541"><ele>131.0</ele><time>2026-04-23T13:47:28Z</time></trkpt><trkpt lat="36.84347749824729" lon="-4.6798877320437"><ele>131.0</ele><time>2026-04-23T13:47:29Z</time></trkpt><trkpt lat="36.84342515210256" lon="-4.679952937339764"><ele>131.0</ele><time>2026-04-23T13:47:30Z</time></trkpt><trkpt lat="36.84339243747774" lon="-4.680025660874893"><ele>131.0</ele><time>2026-04-23T13:47:31Z</time></trkpt><trkpt lat="36.84341043473888" lon="-4.680125133216729"><ele>131.2</ele><time>2026-04-23T13:47:32Z</time></trkpt><trkpt lat="36.843396061334325" lon="-4.680247492825454"><ele>131.39999999999998</ele><time>2026-04-23T13:47:33Z</time></trkpt><trkpt lat="36.84335913710422" lon="-4.680359057307185"><ele>131.6</ele><time>2026-04-23T13:47:34Z</time></trkpt><trkpt lat="36.84329856262854" lon="-4.6804709082664"><ele>131.79999999999998</ele><time>2026-04-23T13:47:35Z</time></trkpt><trkpt lat="36.843230145935024" lon="-4.680580430872089"><ele>132.0</ele><time>2026-04-23T13:47:36Z</time></trkpt><trkpt lat="36.843155094629864" lon="-4.680700397121242"><ele>131.5</ele><time>2026-04-23T13:47:37Z</time></trkpt><trkpt lat="36.84307776907699" lon="-4.68082399888969"><ele>131.0</ele><time>2026-04-23T13:47:38Z</time></trkpt><trkpt lat="36.842984396399245" lon="-4.680941281814784"><ele>130.5</ele><time>2026-04-23T13:47:39Z</time></trkpt><trkpt lat="36.842911924363676" lon="-4.681073094157927"><ele>130.0</ele><time>2026-04-23T13:47:40Z</time></trkpt><trkpt lat="36.84283430411273" lon="-4.681196811194514"><ele>129.75</ele><time>2026-04-23T13:47:41Z</time></trkpt><trkpt lat="36.84276028925088" lon="-4.681336513528625"><ele>129.5</ele><time>2026-04-23T13:47:42Z</time></trkpt><trkpt lat="36.84268383879995" lon="-4.68147558898664"><ele>129.25</ele><time>2026-04-23T13:47:43Z</time></trkpt><trkpt lat="36.84260640279787" lon="-4.681594759506118"><ele>129.0</ele><time>2026-04-23T13:47:44Z</time></trkpt><trkpt lat="36.84254680181671" lon="-4.681705807104948"><ele>129.0</ele><time>2026-04-23T13:47:45Z</time></trkpt><trkpt lat="36.84246675179999" lon="-4.681810702467157"><ele>129.0</ele><time>2026-04-23T13:47:46Z</time></trkpt><trkpt lat="36.842430646774275" lon="-4.681925036452815"><ele>129.0</ele><time>2026-04-23T13:47:47Z</time></trkpt><trkpt lat="36.842413286179" lon="-4.682021752980758"><ele>129.0</ele><time>2026-04-23T13:47:48Z</time></trkpt><trkpt lat="36.84238866695386" lon="-4.682122149626707"><ele>129.0</ele><time>2026-04-23T13:47:49Z</time></trkpt><trkpt lat="36.84235597626768" lon="-4.682211384026702"><ele>129.33333333333334</ele><time>2026-04-23T13:47:50Z</time></trkpt><trkpt lat="36.84232839656644" lon="-4.682304482104312"><ele>129.66666666666666</ele><time>2026-04-23T13:47:51Z</time></trkpt><trkpt lat="36.84229582672936" lon="-4.682419540533014"><ele>130.0</ele><time>2026-04-23T13:47:52Z</time></trkpt><trkpt lat="36.84226046792212" lon="-4.6825321817263355"><ele>130.33333333333331</ele><time>2026-04-23T13:47:53Z</time></trkpt><trkpt lat="36.84222155190289" lon="-4.682641606886208"><ele>130.66666666666666</ele><time>2026-04-23T13:47:54Z</time></trkpt><trkpt lat="36.84218603315275" lon="-4.68272699913121"><ele>131.0</ele><time>2026-04-23T13:47:55Z</time></trkpt><trkpt lat="36.84214767634706" lon="-4.682861866119367"><ele>131.0</ele><time>2026-04-23T13:47:57Z</time></trkpt><trkpt lat="36.84221800853506" lon="-4.6829270655354405"><ele>131.0</ele><time>2026-04-23T13:47:59Z</time></trkpt><trkpt lat="36.84228812153858" lon="-4.683036213984417"><ele>131.0</ele><time>2026-04-23T13:48:00.999Z</time></trkpt><trkpt lat="36.8423292035597" lon="-4.683100913983957"><ele>131.0</ele><time>2026-04-23T13:48:01.999Z</time></trkpt><trkpt lat="36.8423809480663" lon="-4.6831916317548234"><ele>131.0</ele><time>2026-04-23T13:48:02.999Z</time></trkpt><trkpt lat="36.84242623777345" lon="-4.6832726344277305"><ele>131.0</ele><time>2026-04-23T13:48:03.999Z</time></trkpt><trkpt lat="36.842477220630215" lon="-4.683370705908616"><ele>131.0</ele><time>2026-04-23T13:48:04.999Z</time></trkpt><trkpt lat="36.84252004850883" lon="-4.683482920976212"><ele>131.0</ele><time>2026-04-23T13:48:05.999Z</time></trkpt><trkpt lat="36.84258006839584" lon="-4.683598681950395"><ele>131.0</ele><time>2026-04-23T13:48:06.999Z</time></trkpt><trkpt lat="36.84265028538724" lon="-4.6837117789397755"><ele>131.0</ele><time>2026-04-23T13:48:07.999Z</time></trkpt><trkpt lat="36.842716389148904" lon="-4.683830303078046"><ele>131.0</ele><time>2026-04-23T13:48:08.999Z</time></trkpt><trkpt lat="36.84277525353404" lon="-4.683952646904614"><ele>130.75</ele><time>2026-04-23T13:48:09.999Z</time></trkpt><trkpt lat="36.84284123806163" lon="-4.684087784917212"><ele>130.5</ele><time>2026-04-23T13:48:10.999Z</time></trkpt><trkpt lat="36.8429009247766" lon="-4.684234923019485"><ele>130.25</ele><time>2026-04-23T13:48:11.999Z</time></trkpt><trkpt lat="36.842956857538674" lon="-4.684387748925027"><ele>130.0</ele><time>2026-04-23T13:48:12.999Z</time></trkpt><trkpt lat="36.84301545585139" lon="-4.684535405969007"><ele>130.0</ele><time>2026-04-23T13:48:13.999Z</time></trkpt><trkpt lat="36.84305921193471" lon="-4.684694442241659"><ele>130.0</ele><time>2026-04-23T13:48:14.999Z</time></trkpt><trkpt lat="36.84311456040511" lon="-4.684850839364393"><ele>130.0</ele><time>2026-04-23T13:48:15.999Z</time></trkpt><trkpt lat="36.84317599518117" lon="-4.685005327213631"><ele>130.0</ele><time>2026-04-23T13:48:16.999Z</time></trkpt><trkpt lat="36.843233462350845" lon="-4.685164101871856"><ele>130.5</ele><time>2026-04-23T13:48:17.999Z</time></trkpt><trkpt lat="36.843295355450024" lon="-4.685321727621016"><ele>131.0</ele><time>2026-04-23T13:48:18.999Z</time></trkpt><trkpt lat="36.84336100718936" lon="-4.685457577915847"><ele>131.5</ele><time>2026-04-23T13:48:19.999Z</time></trkpt><trkpt lat="36.84342962828219" lon="-4.685587611293382"><ele>132.0</ele><time>2026-04-23T13:48:20.999Z</time></trkpt><trkpt lat="36.84351602511809" lon="-4.685713436904379"><ele>132.0</ele><time>2026-04-23T13:48:22Z</time></trkpt><trkpt lat="36.84360833956471" lon="-4.685840064022342"><ele>132.0</ele><time>2026-04-23T13:48:23Z</time></trkpt><trkpt lat="36.843708459615286" lon="-4.685955935132717"><ele>132.0</ele><time>2026-04-23T13:48:24Z</time></trkpt><trkpt lat="36.8438159243213" lon="-4.686066778201733"><ele>132.0</ele><time>2026-04-23T13:48:25Z</time></trkpt><trkpt lat="36.84393504841037" lon="-4.68617717273222"><ele>131.25</ele><time>2026-04-23T13:48:26Z</time></trkpt><trkpt lat="36.84404935658628" lon="-4.6862811000843125"><ele>130.5</ele><time>2026-04-23T13:48:27Z</time></trkpt><trkpt lat="36.84415199750259" lon="-4.6863797864002095"><ele>129.75</ele><time>2026-04-23T13:48:28Z</time></trkpt><trkpt lat="36.844238102652334" lon="-4.686476242835745"><ele>129.0</ele><time>2026-04-23T13:48:29Z</time></trkpt><trkpt lat="36.84431761836034" lon="-4.686568785875811"><ele>129.0</ele><time>2026-04-23T13:48:30Z</time></trkpt><trkpt lat="36.84439293257873" lon="-4.686657503310451"><ele>129.0</ele><time>2026-04-23T13:48:31Z</time></trkpt><trkpt lat="36.84446220358049" lon="-4.686729529835947"><ele>129.0</ele><time>2026-04-23T13:48:32Z</time></trkpt><trkpt lat="36.84454404345738" lon="-4.6868055463009375"><ele>129.0</ele><time>2026-04-23T13:48:33Z</time></trkpt><trkpt lat="36.844633845996164" lon="-4.6869044824600135"><ele>129.0</ele><time>2026-04-23T13:48:34Z</time></trkpt><trkpt lat="36.84473819113107" lon="-4.686999219718011"><ele>129.33333333333334</ele><time>2026-04-23T13:48:35Z</time></trkpt><trkpt lat="36.844870337490825" lon="-4.687054953072286"><ele>129.66666666666669</ele><time>2026-04-23T13:48:36Z</time></trkpt><trkpt lat="36.84505591220121" lon="-4.687052466761187"><ele>130.0</ele><time>2026-04-23T13:48:37Z</time></trkpt><trkpt lat="36.84521801710002" lon="-4.687079563775219"><ele>130.0</ele><time>2026-04-23T13:48:38Z</time></trkpt><trkpt lat="36.84535233761806" lon="-4.687120495590094"><ele>130.0</ele><time>2026-04-23T13:48:39Z</time></trkpt><trkpt lat="36.8454355418983" lon="-4.687186954329842"><ele>130.0</ele><time>2026-04-23T13:48:40Z</time></trkpt><trkpt lat="36.84553841707783" lon="-4.687296254382081"><ele>130.0</ele><time>2026-04-23T13:48:41Z</time></trkpt><trkpt lat="36.84565275309965" lon="-4.687420089851069"><ele>130.0</ele><time>2026-04-23T13:48:42Z</time></trkpt><trkpt lat="36.84576583028246" lon="-4.6875322632708425"><ele>130.0</ele><time>2026-04-23T13:48:43Z</time></trkpt><trkpt lat="36.84583756232428" lon="-4.6876418545469685"><ele>130.0</ele><time>2026-04-23T13:48:44Z</time></trkpt><trkpt lat="36.845880970825725" lon="-4.687749002373983"><ele>130.0</ele><time>2026-04-23T13:48:45Z</time></trkpt><trkpt lat="36.84591657618893" lon="-4.687850385737553"><ele>130.0</ele><time>2026-04-23T13:48:46Z</time></trkpt><trkpt lat="36.84593882383459" lon="-4.687945120588252"><ele>130.8</ele><time>2026-04-23T13:48:49Z</time></trkpt><trkpt lat="36.84605788823085" lon="-4.687821944591256"><ele>131.6</ele><time>2026-04-23T13:48:50Z</time></trkpt><trkpt lat="36.846130058360636" lon="-4.687704403665293"><ele>132.4</ele><time>2026-04-23T13:48:52Z</time></trkpt><trkpt lat="36.84613289744611" lon="-4.68762365122899"><ele>133.2</ele><time>2026-04-23T13:48:53Z</time></trkpt><trkpt lat="36.846156165491664" lon="-4.687537826384584"><ele>134.0</ele><time>2026-04-23T13:48:54Z</time></trkpt><trkpt lat="36.846204918754" lon="-4.687471251608243"><ele>134.0</ele><time>2026-04-23T13:48:55Z</time></trkpt><trkpt lat="36.8462658463799" lon="-4.687401887243519"><ele>134.0</ele><time>2026-04-23T13:48:56Z</time></trkpt><trkpt lat="36.846351152350344" lon="-4.687348683401786"><ele>134.0</ele><time>2026-04-23T13:48:57Z</time></trkpt><trkpt lat="36.84644383508343" lon="-4.687302226348616"><ele>134.0</ele><time>2026-04-23T13:48:58Z</time></trkpt><trkpt lat="36.84651309394984" lon="-4.6872646259627"><ele>134.0</ele><time>2026-04-23T13:48:59Z</time></trkpt><trkpt lat="36.846536867917976" lon="-4.68716206508654"><ele>134.0</ele><time>2026-04-23T13:49:00Z</time></trkpt><trkpt lat="36.84659455088113" lon="-4.687051850940592"><ele>134.0</ele><time>2026-04-23T13:49:01Z</time></trkpt><trkpt lat="36.84666847776875" lon="-4.6869106000671605"><ele>134.0</ele><time>2026-04-23T13:49:02Z</time></trkpt><trkpt lat="36.84674451164683" lon="-4.68675312763646"><ele>134.0</ele><time>2026-04-23T13:49:03Z</time></trkpt><trkpt lat="36.8468096207541" lon="-4.686569903725839"><ele>134.0</ele><time>2026-04-23T13:49:04Z</time></trkpt><trkpt lat="36.846865546672" lon="-4.686354100215159"><ele>134.0</ele><time>2026-04-23T13:49:05Z</time></trkpt><trkpt lat="36.84690907650604" lon="-4.686182559567241"><ele>134.0</ele><time>2026-04-23T13:49:06Z</time></trkpt><trkpt lat="36.84694412704033" lon="-4.686060113056727"><ele>134.0</ele><time>2026-04-23T13:49:07Z</time></trkpt><trkpt lat="36.846978907079745" lon="-4.6859768050696005"><ele>134.0</ele><time>2026-04-23T13:49:08Z</time></trkpt><trkpt lat="36.84700174720274" lon="-4.685900971666296"><ele>134.0</ele><time>2026-04-23T13:49:09Z</time></trkpt><trkpt lat="36.84705803304917" lon="-4.685779719510461"><ele>133.66666666666666</ele><time>2026-04-23T13:49:11Z</time></trkpt><trkpt lat="36.84711391306604" lon="-4.685730728104857"><ele>133.33333333333331</ele><time>2026-04-23T13:49:13Z</time></trkpt><trkpt lat="36.84719155840313" lon="-4.6856916423117445"><ele>133.0</ele><time>2026-04-23T13:49:19Z</time></trkpt><trkpt lat="36.847251370905816" lon="-4.6857427959663465"><ele>132.66666666666666</ele><time>2026-04-23T13:49:27Z</time></trkpt><trkpt lat="36.84735233301496" lon="-4.685788357790571"><ele>132.33333333333334</ele><time>2026-04-23T13:49:29Z</time></trkpt><trkpt lat="36.847421037761904" lon="-4.685816593985678"><ele>132.0</ele><time>2026-04-23T13:49:30Z</time></trkpt><trkpt lat="36.84748814032309" lon="-4.685855552048769"><ele>132.0</ele><time>2026-04-23T13:49:31Z</time></trkpt><trkpt lat="36.84756341249657" lon="-4.685892536108467"><ele>132.0</ele><time>2026-04-23T13:49:32Z</time></trkpt><trkpt lat="36.84764214114671" lon="-4.6859304835221"><ele>132.0</ele><time>2026-04-23T13:49:33Z</time></trkpt><trkpt lat="36.84772351266391" lon="-4.685963233118705"><ele>132.0</ele><time>2026-04-23T13:49:34Z</time></trkpt><trkpt lat="36.84781659214201" lon="-4.686009924423299"><ele>132.0</ele><time>2026-04-23T13:49:35Z</time></trkpt><trkpt lat="36.84792584640584" lon="-4.686056758731758"><ele>132.2</ele><time>2026-04-23T13:49:36Z</time></trkpt><trkpt lat="36.84804460537854" lon="-4.686087455075221"><ele>132.39999999999998</ele><time>2026-04-23T13:49:37Z</time></trkpt><trkpt lat="36.848142793615075" lon="-4.68611704750716"><ele>132.60000000000002</ele><time>2026-04-23T13:49:38Z</time></trkpt><trkpt lat="36.848224808610496" lon="-4.686125252633726"><ele>132.8</ele><time>2026-04-23T13:49:39Z</time></trkpt><trkpt lat="36.84830592358625" lon="-4.686148921210142"><ele>133.0</ele><time>2026-04-23T13:49:40Z</time></trkpt><trkpt lat="36.848398783891774" lon="-4.686103074089037"><ele>133.20000000000002</ele><time>2026-04-23T13:49:41Z</time></trkpt><trkpt lat="36.848505790795535" lon="-4.6860940428465865"><ele>133.4</ele><time>2026-04-23T13:49:42Z</time></trkpt><trkpt lat="36.84861274962107" lon="-4.686072066511846"><ele>133.60000000000002</ele><time>2026-04-23T13:49:43Z</time></trkpt><trkpt lat="36.84871264660636" lon="-4.686042357716982"><ele>133.8</ele><time>2026-04-23T13:49:44Z</time></trkpt><trkpt lat="36.84879968329127" lon="-4.686014343389711"><ele>134.0</ele><time>2026-04-23T13:49:45Z</time></trkpt><trkpt lat="36.848864545164666" lon="-4.685992030649546"><ele>134.0</ele><time>2026-04-23T13:49:46Z</time></trkpt><trkpt lat="36.848924776609664" lon="-4.686041361024318"><ele>134.0</ele><time>2026-04-23T13:49:47Z</time></trkpt><trkpt lat="36.848991846094" lon="-4.6860371398287555"><ele>134.0</ele><time>2026-04-23T13:49:48Z</time></trkpt><trkpt lat="36.849071495857515" lon="-4.686028743094322"><ele>134.0</ele><time>2026-04-23T13:49:49Z</time></trkpt><trkpt lat="36.849152206867124" lon="-4.685994999460539"><ele>134.0</ele><time>2026-04-23T13:49:50Z</time></trkpt><trkpt lat="36.849227868133795" lon="-4.685938117602391"><ele>134.0</ele><time>2026-04-23T13:49:51Z</time></trkpt><trkpt lat="36.84932280992293" lon="-4.685907058355737"><ele>135.0</ele><time>2026-04-23T13:49:52Z</time></trkpt><trkpt lat="36.849385172906906" lon="-4.685886166956564"><ele>136.0</ele><time>2026-04-23T13:49:53Z</time></trkpt><trkpt lat="36.849529287647385" lon="-4.686132031260379"><ele>137.0</ele><time>2026-04-23T13:49:54Z</time></trkpt><trkpt lat="36.849628473039786" lon="-4.686187998150628"><ele>138.0</ele><time>2026-04-23T13:49:55Z</time></trkpt><trkpt lat="36.8497386651056" lon="-4.686243201098757"><ele>139.4</ele><time>2026-04-23T13:49:56Z</time></trkpt><trkpt lat="36.84985337916389" lon="-4.6862991954464945"><ele>140.8</ele><time>2026-04-23T13:49:57Z</time></trkpt><trkpt lat="36.84995469107868" lon="-4.6863539361466975"><ele>142.2</ele><time>2026-04-23T13:49:58Z</time></trkpt><trkpt lat="36.85004219840616" lon="-4.686398061231013"><ele>143.6</ele><time>2026-04-23T13:49:59Z</time></trkpt><trkpt lat="36.85014241539867" lon="-4.686453887595707"><ele>145.0</ele><time>2026-04-23T13:50:00Z</time></trkpt><trkpt lat="36.85024337871534" lon="-4.686509139980727"><ele>145.25</ele><time>2026-04-23T13:50:01Z</time></trkpt><trkpt lat="36.85034468646102" lon="-4.686567878552993"><ele>145.5</ele><time>2026-04-23T13:50:02Z</time></trkpt><trkpt lat="36.8504533670862" lon="-4.68662264700437"><ele>145.75</ele><time>2026-04-23T13:50:02.999Z</time></trkpt><trkpt lat="36.85056866049192" lon="-4.686678568712375"><ele>146.0</ele><time>2026-04-23T13:50:03.999Z</time></trkpt><trkpt lat="36.850680468842434" lon="-4.686738401637077"><ele>146.0</ele><time>2026-04-23T13:50:04.999Z</time></trkpt><trkpt lat="36.85079754978637" lon="-4.686800754755959"><ele>146.0</ele><time>2026-04-23T13:50:05.999Z</time></trkpt><trkpt lat="36.85089782453487" lon="-4.686858436054498"><ele>146.0</ele><time>2026-04-23T13:50:06.999Z</time></trkpt><trkpt lat="36.850992888178546" lon="-4.686915820654624"><ele>146.0</ele><time>2026-04-23T13:50:07.999Z</time></trkpt><trkpt lat="36.85109280250292" lon="-4.6869898336797995"><ele>147.6</ele><time>2026-04-23T13:50:08.999Z</time></trkpt><trkpt lat="36.851188917741446" lon="-4.687047477347182"><ele>149.2</ele><time>2026-04-23T13:50:09.999Z</time></trkpt><trkpt lat="36.851292819770826" lon="-4.687107076733676"><ele>150.8</ele><time>2026-04-23T13:50:10.999Z</time></trkpt><trkpt lat="36.85139444960338" lon="-4.687139958157502"><ele>152.4</ele><time>2026-04-23T13:50:11.999Z</time></trkpt><trkpt lat="36.85148643951313" lon="-4.687196414268189"><ele>154.0</ele><time>2026-04-23T13:50:12.999Z</time></trkpt><trkpt lat="36.851576210371746" lon="-4.687280402645446"><ele>154.0</ele><time>2026-04-23T13:50:13.999Z</time></trkpt><trkpt lat="36.85169697917315" lon="-4.6873619086086915"><ele>154.0</ele><time>2026-04-23T13:50:14.999Z</time></trkpt><trkpt lat="36.851824894586834" lon="-4.687431747000566"><ele>154.0</ele><time>2026-04-23T13:50:15.999Z</time></trkpt><trkpt lat="36.851938168108695" lon="-4.687499397058401"><ele>154.0</ele><time>2026-04-23T13:50:16.999Z</time></trkpt><trkpt lat="36.852044862517886" lon="-4.687572887673129"><ele>154.25</ele><time>2026-04-23T13:50:17.999Z</time></trkpt><trkpt lat="36.85214651334031" lon="-4.687651476644425"><ele>154.5</ele><time>2026-04-23T13:50:18.999Z</time></trkpt><trkpt lat="36.85225138090394" lon="-4.687717162618593"><ele>154.75</ele><time>2026-04-23T13:50:19.999Z</time></trkpt><trkpt lat="36.85235338677295" lon="-4.68775612996638"><ele>155.0</ele><time>2026-04-23T13:50:20.999Z</time></trkpt><trkpt lat="36.85247378742518" lon="-4.687787948600538"><ele>156.8</ele><time>2026-04-23T13:50:21.999Z</time></trkpt><trkpt lat="36.852597915009696" lon="-4.687852163186686"><ele>158.6</ele><time>2026-04-23T13:50:22.999Z</time></trkpt><trkpt lat="36.852703138223276" lon="-4.687914204482687"><ele>160.39999999999998</ele><time>2026-04-23T13:50:23.999Z</time></trkpt><trkpt lat="36.85279062153359" lon="-4.6879733988845125"><ele>162.2</ele><time>2026-04-23T13:50:24.999Z</time></trkpt><trkpt lat="36.852850535636776" lon="-4.688036773928203"><ele>164.0</ele><time>2026-04-23T13:50:25.999Z</time></trkpt><trkpt lat="36.85291050116186" lon="-4.688113800173695"><ele>164.79999999999998</ele><time>2026-04-23T13:50:26.999Z</time></trkpt><trkpt lat="36.85295149951436" lon="-4.6881931750423185"><ele>165.6</ele><time>2026-04-23T13:50:27.999Z</time></trkpt><trkpt lat="36.85299090196865" lon="-4.6882657703411255"><ele>166.4</ele><time>2026-04-23T13:50:28.999Z</time></trkpt><trkpt lat="36.85305166431609" lon="-4.688357356900838"><ele>167.2</ele><time>2026-04-23T13:50:29.999Z</time></trkpt><trkpt lat="36.853118469955646" lon="-4.688464978275603"><ele>168.0</ele><time>2026-04-23T13:50:30.999Z</time></trkpt><trkpt lat="36.85318913783374" lon="-4.688581258992242"><ele>169.83333333333334</ele><time>2026-04-23T13:50:31.999Z</time></trkpt><trkpt lat="36.853239435831334" lon="-4.688664457656091"><ele>171.66666666666666</ele><time>2026-04-23T13:50:32.999Z</time></trkpt><trkpt lat="36.8533488456718" lon="-4.6887481254261205"><ele>173.5</ele><time>2026-04-23T13:50:34.999Z</time></trkpt><trkpt lat="36.85341910715522" lon="-4.6887734566387245"><ele>175.33333333333331</ele><time>2026-04-23T13:50:35.999Z</time></trkpt><trkpt lat="36.85348779404027" lon="-4.688790530218673"><ele>177.16666666666666</ele><time>2026-04-23T13:50:36.999Z</time></trkpt><trkpt lat="36.85355553962766" lon="-4.688820622519169"><ele>179.0</ele><time>2026-04-23T13:50:38.999Z</time></trkpt><trkpt lat="36.85343833853108" lon="-4.688781290668842"><ele>179.0</ele><time>2026-04-23T13:50:55Z</time></trkpt><trkpt lat="36.85336099481081" lon="-4.688738841132822"><ele>179.0</ele><time>2026-04-23T13:50:56Z</time></trkpt><trkpt lat="36.853292525254076" lon="-4.688702200871121"><ele>179.0</ele><time>2026-04-23T13:50:57Z</time></trkpt><trkpt lat="36.85320518673389" lon="-4.688628037797532"><ele>179.0</ele><time>2026-04-23T13:50:59Z</time></trkpt><trkpt lat="36.85313483624177" lon="-4.68849236659205"><ele>179.0</ele><time>2026-04-23T13:51:01Z</time></trkpt><trkpt lat="36.853094820256324" lon="-4.688411861195404"><ele>177.16666666666666</ele><time>2026-04-23T13:51:02Z</time></trkpt><trkpt lat="36.85304616261672" lon="-4.688332572969774"><ele>175.33333333333331</ele><time>2026-04-23T13:51:03Z</time></trkpt><trkpt lat="36.85300064326222" lon="-4.68827376294649"><ele>173.5</ele><time>2026-04-23T13:51:04Z</time></trkpt><trkpt lat="36.852940617941684" lon="-4.688198601190755"><ele>171.66666666666666</ele><time>2026-04-23T13:51:06Z</time></trkpt><trkpt lat="36.85298701937956" lon="-4.688134589272453"><ele>169.83333333333334</ele><time>2026-04-23T13:51:09Z</time></trkpt><trkpt lat="36.853096415039396" lon="-4.688127560872785"><ele>168.0</ele><time>2026-04-23T13:51:11Z</time></trkpt><trkpt lat="36.853184830303086" lon="-4.68812638688406"><ele>168.0</ele><time>2026-04-23T13:51:12Z</time></trkpt><trkpt lat="36.85328141089252" lon="-4.68811701920541"><ele>168.0</ele><time>2026-04-23T13:51:13Z</time></trkpt><trkpt lat="36.85339721621107" lon="-4.688113943113887"><ele>168.0</ele><time>2026-04-23T13:51:14Z</time></trkpt><trkpt lat="36.85351228154796" lon="-4.688119060499147"><ele>168.0</ele><time>2026-04-23T13:51:15Z</time></trkpt><trkpt lat="36.8536209834137" lon="-4.688134220748233"><ele>168.0</ele><time>2026-04-23T13:51:16Z</time></trkpt><trkpt lat="36.85373504542879" lon="-4.688155159118779"><ele>168.75</ele><time>2026-04-23T13:51:17Z</time></trkpt><trkpt lat="36.8538305205106" lon="-4.688228919171491"><ele>169.5</ele><time>2026-04-23T13:51:18Z</time></trkpt><trkpt lat="36.85391893475073" lon="-4.688327320239354"><ele>170.25</ele><time>2026-04-23T13:51:19Z</time></trkpt><trkpt lat="36.85399780528757" lon="-4.688442268643739"><ele>171.0</ele><time>2026-04-23T13:51:20Z</time></trkpt><trkpt lat="36.854081228116264" lon="-4.688554617491534"><ele>174.0</ele><time>2026-04-23T13:51:21Z</time></trkpt><trkpt lat="36.85419095356331" lon="-4.688628739844206"><ele>177.0</ele><time>2026-04-23T13:51:22Z</time></trkpt><trkpt lat="36.85431459595751" lon="-4.688677387374917"><ele>180.0</ele><time>2026-04-23T13:51:23Z</time></trkpt><trkpt lat="36.854435914083545" lon="-4.688721555737739"><ele>183.0</ele><time>2026-04-23T13:51:24Z</time></trkpt><trkpt lat="36.85456000135444" lon="-4.688778282975641"><ele>183.0</ele><time>2026-04-23T13:51:25Z</time></trkpt><trkpt lat="36.854692584757416" lon="-4.688852335183552"><ele>183.0</ele><time>2026-04-23T13:51:26Z</time></trkpt><trkpt lat="36.85483363863736" lon="-4.688933458867179"><ele>183.0</ele><time>2026-04-23T13:51:27Z</time></trkpt><trkpt lat="36.854987126542035" lon="-4.689019212544374"><ele>181.33333333333334</ele><time>2026-04-23T13:51:28Z</time></trkpt><trkpt lat="36.85514017331221" lon="-4.689104429439622"><ele>179.66666666666669</ele><time>2026-04-23T13:51:29Z</time></trkpt><trkpt lat="36.85529180323491" lon="-4.689194094753672"><ele>178.0</ele><time>2026-04-23T13:51:30Z</time></trkpt><trkpt lat="36.85545251565573" lon="-4.689283138687993"><ele>178.0</ele><time>2026-04-23T13:51:31Z</time></trkpt><trkpt lat="36.85560918414733" lon="-4.689377935930061"><ele>178.0</ele><time>2026-04-23T13:51:32Z</time></trkpt><trkpt lat="36.85576921490085" lon="-4.68947198881884"><ele>178.0</ele><time>2026-04-23T13:51:33Z</time></trkpt><trkpt lat="36.85592521006271" lon="-4.689558419882079"><ele>180.0</ele><time>2026-04-23T13:51:34Z</time></trkpt><trkpt lat="36.856071671196176" lon="-4.689637792461704"><ele>182.0</ele><time>2026-04-23T13:51:35Z</time></trkpt><trkpt lat="36.85621931919796" lon="-4.689725197335928"><ele>184.0</ele><time>2026-04-23T13:51:36Z</time></trkpt><trkpt lat="36.85637138243905" lon="-4.689811149148168"><ele>184.0</ele><time>2026-04-23T13:51:37Z</time></trkpt><trkpt lat="36.856524287571965" lon="-4.6899009114539965"><ele>184.0</ele><time>2026-04-23T13:51:38Z</time></trkpt><trkpt lat="36.8566754809915" lon="-4.689992620785695"><ele>184.0</ele><time>2026-04-23T13:51:38.999Z</time></trkpt><trkpt lat="36.85682121071759" lon="-4.690084969372543"><ele>183.33333333333334</ele><time>2026-04-23T13:51:39.999Z</time></trkpt><trkpt lat="36.856970857717286" lon="-4.690179691487654"><ele>182.66666666666666</ele><time>2026-04-23T13:51:40.999Z</time></trkpt><trkpt lat="36.857090006793726" lon="-4.690272981076621"><ele>182.0</ele><time>2026-04-23T13:51:41.999Z</time></trkpt><trkpt lat="36.85721872138795" lon="-4.690359122275266"><ele>182.0</ele><time>2026-04-23T13:51:42.999Z</time></trkpt><trkpt lat="36.857321489478004" lon="-4.690427414287346"><ele>182.0</ele><time>2026-04-23T13:51:43.999Z</time></trkpt><trkpt lat="36.857421475542814" lon="-4.690485353655002"><ele>182.0</ele><time>2026-04-23T13:51:44.999Z</time></trkpt><trkpt lat="36.85751626041588" lon="-4.690536558684531"><ele>182.0</ele><time>2026-04-23T13:51:45.999Z</time></trkpt><trkpt lat="36.857594193979864" lon="-4.69057964269955"><ele>182.0</ele><time>2026-04-23T13:51:46.999Z</time></trkpt><trkpt lat="36.85767484682269" lon="-4.69061600708118"><ele>182.2</ele><time>2026-04-23T13:51:47.999Z</time></trkpt><trkpt lat="36.85774820929167" lon="-4.690655369601861"><ele>182.39999999999998</ele><time>2026-04-23T13:51:48.999Z</time></trkpt><trkpt lat="36.857811455757236" lon="-4.690669104510008"><ele>182.60000000000002</ele><time>2026-04-23T13:51:49.999Z</time></trkpt><trkpt lat="36.85790236455191" lon="-4.690719720721674"><ele>182.8</ele><time>2026-04-23T13:51:51.999Z</time></trkpt><trkpt lat="36.857964760991216" lon="-4.690779665896105"><ele>183.0</ele><time>2026-04-23T13:51:53.999Z</time></trkpt><trkpt lat="36.85809072976019" lon="-4.690846547506548"><ele>183.0</ele><time>2026-04-23T13:51:55.999Z</time></trkpt><trkpt lat="36.85815992184804" lon="-4.690909668023648"><ele>183.0</ele><time>2026-04-23T13:51:56.999Z</time></trkpt><trkpt lat="36.858235676795154" lon="-4.690968061344367"><ele>183.0</ele><time>2026-04-23T13:51:57.999Z</time></trkpt><trkpt lat="36.85831850742423" lon="-4.691019976084949"><ele>183.0</ele><time>2026-04-23T13:51:58.999Z</time></trkpt><trkpt lat="36.85840463170764" lon="-4.69106750382902"><ele>183.0</ele><time>2026-04-23T13:51:59.999Z</time></trkpt><trkpt lat="36.85849223991594" lon="-4.6910917446665215"><ele>183.60000000000002</ele><time>2026-04-23T13:52:00.999Z</time></trkpt><trkpt lat="36.85859785408869" lon="-4.691121308726534"><ele>184.20000000000002</ele><time>2026-04-23T13:52:01.999Z</time></trkpt><trkpt lat="36.85871055219617" lon="-4.691167255037678"><ele>184.8</ele><time>2026-04-23T13:52:02.999Z</time></trkpt><trkpt lat="36.85880888094177" lon="-4.691204609445501"><ele>185.4</ele><time>2026-04-23T13:52:03.999Z</time></trkpt><trkpt lat="36.85889236159594" lon="-4.691224383034783"><ele>186.0</ele><time>2026-04-23T13:52:04.999Z</time></trkpt><trkpt lat="36.858967912414336" lon="-4.691215003660292"><ele>186.0</ele><time>2026-04-23T13:52:05.999Z</time></trkpt><trkpt lat="36.85903958991767" lon="-4.69114646369148"><ele>186.0</ele><time>2026-04-23T13:52:06.999Z</time></trkpt><trkpt lat="36.85912531991067" lon="-4.691111252272056"><ele>186.0</ele><time>2026-04-23T13:52:07.999Z</time></trkpt><trkpt lat="36.85920219101654" lon="-4.691055988022619"><ele>186.0</ele><time>2026-04-23T13:52:08.999Z</time></trkpt><trkpt lat="36.85929184559332" lon="-4.6910288200124155"><ele>186.0</ele><time>2026-04-23T13:52:09.999Z</time></trkpt><trkpt lat="36.859396429164654" lon="-4.691029171055678"><ele>189.20000000000002</ele><time>2026-04-23T13:52:10.999Z</time></trkpt><trkpt lat="36.85949510894274" lon="-4.690985402754881"><ele>192.4</ele><time>2026-04-23T13:52:11.999Z</time></trkpt><trkpt lat="36.85960318305617" lon="-4.6909314959663595"><ele>195.6</ele><time>2026-04-23T13:52:12.999Z</time></trkpt><trkpt lat="36.859707931332444" lon="-4.690873542042949"><ele>198.8</ele><time>2026-04-23T13:52:13.999Z</time></trkpt><trkpt lat="36.859798350582004" lon="-4.690798084572091"><ele>202.0</ele><time>2026-04-23T13:52:14.999Z</time></trkpt><trkpt lat="36.85985711357477" lon="-4.690687382760493"><ele>202.0</ele><time>2026-04-23T13:52:15.999Z</time></trkpt><trkpt lat="36.85992159483133" lon="-4.690580061345372"><ele>202.0</ele><time>2026-04-23T13:52:16.999Z</time></trkpt><trkpt lat="36.85998588093882" lon="-4.690452549176255"><ele>202.0</ele><time>2026-04-23T13:52:17.999Z</time></trkpt><trkpt lat="36.86006798252056" lon="-4.690340671551876"><ele>202.0</ele><time>2026-04-23T13:52:18.999Z</time></trkpt><trkpt lat="36.86013399788662" lon="-4.690228049895081"><ele>205.25</ele><time>2026-04-23T13:52:19.999Z</time></trkpt><trkpt lat="36.86022312711696" lon="-4.69013270448209"><ele>208.5</ele><time>2026-04-23T13:52:20.999Z</time></trkpt><trkpt lat="36.860313283868045" lon="-4.6900529633197"><ele>211.75</ele><time>2026-04-23T13:52:21.999Z</time></trkpt><trkpt lat="36.860417350126085" lon="-4.689974255158074"><ele>215.0</ele><time>2026-04-23T13:52:22.999Z</time></trkpt><trkpt lat="36.86050926304105" lon="-4.689897468033185"><ele>215.0</ele><time>2026-04-23T13:52:23.999Z</time></trkpt><trkpt lat="36.86059042834028" lon="-4.689840267638008"><ele>215.0</ele><time>2026-04-23T13:52:24.999Z</time></trkpt><trkpt lat="36.860669018569084" lon="-4.68980581274224"><ele>215.0</ele><time>2026-04-23T13:52:25.999Z</time></trkpt><trkpt lat="36.860766934132556" lon="-4.6897829225030225"><ele>215.0</ele><time>2026-04-23T13:52:26.999Z</time></trkpt><trkpt lat="36.86088520323449" lon="-4.68979208604761"><ele>215.0</ele><time>2026-04-23T13:52:27.999Z</time></trkpt><trkpt lat="36.8610085817474" lon="-4.689813680798307"><ele>215.75</ele><time>2026-04-23T13:52:28.999Z</time></trkpt><trkpt lat="36.86113950601354" lon="-4.689815085463749"><ele>216.5</ele><time>2026-04-23T13:52:29.999Z</time></trkpt><trkpt lat="36.86125697230316" lon="-4.689820391192341"><ele>217.25</ele><time>2026-04-23T13:52:30.999Z</time></trkpt><trkpt lat="36.861360216223545" lon="-4.689811386764165"><ele>218.0</ele><time>2026-04-23T13:52:31.999Z</time></trkpt><trkpt lat="36.86146799803907" lon="-4.6898094222837825"><ele>218.0</ele><time>2026-04-23T13:52:32.999Z</time></trkpt><trkpt lat="36.86158429956209" lon="-4.689809450557"><ele>218.0</ele><time>2026-04-23T13:52:33.999Z</time></trkpt><trkpt lat="36.86171404270669" lon="-4.689792343712914"><ele>218.0</ele><time>2026-04-23T13:52:34.999Z</time></trkpt><trkpt lat="36.86183040784232" lon="-4.689816013996557"><ele>218.0</ele><time>2026-04-23T13:52:35.999Z</time></trkpt><trkpt lat="36.86191548619162" lon="-4.68981358673481"><ele>217.4</ele><time>2026-04-23T13:52:36.999Z</time></trkpt><trkpt lat="36.86200014022953" lon="-4.689810151092246"><ele>216.8</ele><time>2026-04-23T13:52:37.999Z</time></trkpt><trkpt lat="36.86210756731285" lon="-4.689864288238313"><ele>216.2</ele><time>2026-04-23T13:52:38.999Z</time></trkpt><trkpt lat="36.86220458218938" lon="-4.689914737947323"><ele>215.6</ele><time>2026-04-23T13:52:39.999Z</time></trkpt><trkpt lat="36.86228504432835" lon="-4.689955508786216"><ele>215.0</ele><time>2026-04-23T13:52:40.999Z</time></trkpt><trkpt lat="36.862376610149305" lon="-4.689991067322557"><ele>215.0</ele><time>2026-04-23T13:52:41.999Z</time></trkpt><trkpt lat="36.86246202002221" lon="-4.690022401025024"><ele>215.0</ele><time>2026-04-23T13:52:42.999Z</time></trkpt><trkpt lat="36.86254435419826" lon="-4.690048479285543"><ele>215.0</ele><time>2026-04-23T13:52:43.999Z</time></trkpt><trkpt lat="36.86263433457419" lon="-4.690073818574592"><ele>215.0</ele><time>2026-04-23T13:52:45Z</time></trkpt><trkpt lat="36.86272988998467" lon="-4.690112404553941"><ele>215.0</ele><time>2026-04-23T13:52:46Z</time></trkpt><trkpt lat="36.86280976227965" lon="-4.6901601071383014"><ele>215.66666666666669</ele><time>2026-04-23T13:52:47Z</time></trkpt><trkpt lat="36.86287379621363" lon="-4.690195982908037"><ele>216.33333333333334</ele><time>2026-04-23T13:52:48Z</time></trkpt><trkpt lat="36.862944083733794" lon="-4.690214202368027"><ele>217.0</ele><time>2026-04-23T13:52:49Z</time></trkpt><trkpt lat="36.86302823308327" lon="-4.690205853783326"><ele>217.66666666666669</ele><time>2026-04-23T13:52:50Z</time></trkpt><trkpt lat="36.8631143045154" lon="-4.690192090303961"><ele>218.33333333333334</ele><time>2026-04-23T13:52:51Z</time></trkpt><trkpt lat="36.863202950989496" lon="-4.690181961191144"><ele>219.0</ele><time>2026-04-23T13:52:52Z</time></trkpt><trkpt lat="36.863273825979704" lon="-4.69017565470609"><ele>219.0</ele><time>2026-04-23T13:52:53Z</time></trkpt><trkpt lat="36.863354705453474" lon="-4.69015822899756"><ele>219.0</ele><time>2026-04-23T13:52:54Z</time></trkpt><trkpt lat="36.86344436654905" lon="-4.6901325245547625"><ele>219.0</ele><time>2026-04-23T13:52:55Z</time></trkpt><trkpt lat="36.86352256459972" lon="-4.69010094519861"><ele>219.0</ele><time>2026-04-23T13:52:56Z</time></trkpt><trkpt lat="36.8635904384204" lon="-4.690089425357534"><ele>219.0</ele><time>2026-04-23T13:52:57Z</time></trkpt><trkpt lat="36.86366020144702" lon="-4.69008545460938"><ele>219.0</ele><time>2026-04-23T13:52:58Z</time></trkpt><trkpt lat="36.863733809309124" lon="-4.69009558504354"><ele>219.66666666666666</ele><time>2026-04-23T13:52:59Z</time></trkpt><trkpt lat="36.86381442252623" lon="-4.690111080073514"><ele>220.33333333333331</ele><time>2026-04-23T13:53:00Z</time></trkpt><trkpt lat="36.86389782513729" lon="-4.690136347207755"><ele>221.0</ele><time>2026-04-23T13:53:01Z</time></trkpt><trkpt lat="36.86397615791623" lon="-4.690167827596506"><ele>221.66666666666666</ele><time>2026-04-23T13:53:02Z</time></trkpt><trkpt lat="36.86405608356655" lon="-4.690198884057645"><ele>222.33333333333331</ele><time>2026-04-23T13:53:03Z</time></trkpt><trkpt lat="36.86412178617629" lon="-4.690223591461717"><ele>223.0</ele><time>2026-04-23T13:53:04Z</time></trkpt><trkpt lat="36.864235690968044" lon="-4.690261922089769"><ele>223.14285714285714</ele><time>2026-04-23T13:53:06Z</time></trkpt><trkpt lat="36.864297411700804" lon="-4.690281750347726"><ele>223.28571428571428</ele><time>2026-04-23T13:53:07Z</time></trkpt><trkpt lat="36.864365586313916" lon="-4.690296777886828"><ele>223.42857142857144</ele><time>2026-04-23T13:53:08Z</time></trkpt><trkpt lat="36.86443214256464" lon="-4.690321258190781"><ele>223.57142857142856</ele><time>2026-04-23T13:53:09Z</time></trkpt><trkpt lat="36.864503696598845" lon="-4.690341027157083"><ele>223.71428571428572</ele><time>2026-04-23T13:53:10Z</time></trkpt><trkpt lat="36.864587310216045" lon="-4.690353740014286"><ele>223.85714285714286</ele><time>2026-04-23T13:53:11Z</time></trkpt><trkpt lat="36.86465682509537" lon="-4.690369451920297"><ele>224.0</ele><time>2026-04-23T13:53:12Z</time></trkpt><trkpt lat="36.864755993503465" lon="-4.690421048167259"><ele>224.00000000000003</ele><time>2026-04-23T13:53:14Z</time></trkpt><trkpt lat="36.86480388599612" lon="-4.690481786617883"><ele>224.0</ele><time>2026-04-23T13:53:15Z</time></trkpt><trkpt lat="36.86486977470441" lon="-4.690554079640495"><ele>224.0</ele><time>2026-04-23T13:53:16Z</time></trkpt><trkpt lat="36.864930808121926" lon="-4.690616426454428"><ele>224.0</ele><time>2026-04-23T13:53:17Z</time></trkpt><trkpt lat="36.864989674261885" lon="-4.690651701235596"><ele>224.00000000000003</ele><time>2026-04-23T13:53:18Z</time></trkpt><trkpt lat="36.86507438269801" lon="-4.690655606542856"><ele>224.0</ele><time>2026-04-23T13:53:19Z</time></trkpt><trkpt lat="36.86517431915997" lon="-4.690660095077617"><ele>224.0</ele><time>2026-04-23T13:53:20Z</time></trkpt><trkpt lat="36.86528014828739" lon="-4.690661080189525"><ele>223.99999999999997</ele><time>2026-04-23T13:53:21Z</time></trkpt><trkpt lat="36.86536067485777" lon="-4.690647969251895"><ele>223.99999999999997</ele><time>2026-04-23T13:53:22Z</time></trkpt><trkpt lat="36.86544720934845" lon="-4.690628109683813"><ele>224.0</ele><time>2026-04-23T13:53:23Z</time></trkpt><trkpt lat="36.86554735108982" lon="-4.690631373374759"><ele>224.0</ele><time>2026-04-23T13:53:24Z</time></trkpt><trkpt lat="36.865640676364045" lon="-4.690649949219508"><ele>224.0</ele><time>2026-04-23T13:53:25Z</time></trkpt><trkpt lat="36.86573291766979" lon="-4.6906769311305405"><ele>223.99999999999997</ele><time>2026-04-23T13:53:26Z</time></trkpt><trkpt lat="36.86581921780672" lon="-4.690695181436733"><ele>223.99999999999997</ele><time>2026-04-23T13:53:27Z</time></trkpt><trkpt lat="36.865907990532165" lon="-4.690710989476603"><ele>224.0</ele><time>2026-04-23T13:53:28Z</time></trkpt><trkpt lat="36.866011366772625" lon="-4.690725122472334"><ele>224.0</ele><time>2026-04-23T13:53:29Z</time></trkpt><trkpt lat="36.86612021745346" lon="-4.690743396798534"><ele>223.50000000000003</ele><time>2026-04-23T13:53:30Z</time></trkpt><trkpt lat="36.86620752025569" lon="-4.690760423944184"><ele>223.0</ele><time>2026-04-23T13:53:31Z</time></trkpt><trkpt lat="36.8662832242608" lon="-4.6907751151777894"><ele>222.5</ele><time>2026-04-23T13:53:32Z</time></trkpt><trkpt lat="36.86635098588585" lon="-4.690787865825007"><ele>222.0</ele><time>2026-04-23T13:53:33Z</time></trkpt><trkpt lat="36.866429199598315" lon="-4.6907913566100925"><ele>221.50000000000003</ele><time>2026-04-23T13:53:34Z</time></trkpt><trkpt lat="36.86651581689413" lon="-4.6907835620480345"><ele>221.0</ele><time>2026-04-23T13:53:35Z</time></trkpt><trkpt lat="36.86661872629544" lon="-4.690780017765419"><ele>221.00000000000003</ele><time>2026-04-23T13:53:36Z</time></trkpt><trkpt lat="36.866704087409104" lon="-4.690779457268502"><ele>221.0</ele><time>2026-04-23T13:53:37Z</time></trkpt><trkpt lat="36.86678213507841" lon="-4.69077821416606"><ele>221.0</ele><time>2026-04-23T13:53:38Z</time></trkpt><trkpt lat="36.866846282556885" lon="-4.6907860011405855"><ele>221.0</ele><time>2026-04-23T13:53:39Z</time></trkpt><trkpt lat="36.8669096791724" lon="-4.690816416310469"><ele>221.00000000000003</ele><time>2026-04-23T13:53:40Z</time></trkpt><trkpt lat="36.867036445039744" lon="-4.69087585698098"><ele>221.0</ele><time>2026-04-23T13:53:42Z</time></trkpt><trkpt lat="36.86713216550116" lon="-4.69090014856877"><ele>221.4</ele><time>2026-04-23T13:53:43Z</time></trkpt><trkpt lat="36.86723976053297" lon="-4.6909230393855745"><ele>221.8</ele><time>2026-04-23T13:53:44Z</time></trkpt><trkpt lat="36.86733716091469" lon="-4.690941972538759"><ele>222.20000000000002</ele><time>2026-04-23T13:53:45Z</time></trkpt><trkpt lat="36.867427104351485" lon="-4.6909581489618235"><ele>222.60000000000002</ele><time>2026-04-23T13:53:46Z</time></trkpt><trkpt lat="36.867522427519766" lon="-4.690971460000796"><ele>223.0</ele><time>2026-04-23T13:53:47Z</time></trkpt><trkpt lat="36.86761713915591" lon="-4.69098546312161"><ele>221.99999999999997</ele><time>2026-04-23T13:53:48Z</time></trkpt><trkpt lat="36.867694991673055" lon="-4.69099947908949"><ele>221.0</ele><time>2026-04-23T13:53:49Z</time></trkpt><trkpt lat="36.86778285252229" lon="-4.691006509298423"><ele>220.0</ele><time>2026-04-23T13:53:50Z</time></trkpt><trkpt lat="36.86787627382451" lon="-4.69100938748029"><ele>219.0</ele><time>2026-04-23T13:53:51Z</time></trkpt><trkpt lat="36.86795521810749" lon="-4.691011212214301"><ele>217.99999999999997</ele><time>2026-04-23T13:53:52Z</time></trkpt><trkpt lat="36.86803216869514" lon="-4.691003228539993"><ele>217.0</ele><time>2026-04-23T13:53:53Z</time></trkpt><trkpt lat="36.86810871751136" lon="-4.690999858036598"><ele>216.99999999999997</ele><time>2026-04-23T13:53:54Z</time></trkpt><trkpt lat="36.86819892019159" lon="-4.690989386718588"><ele>217.0</ele><time>2026-04-23T13:53:55Z</time></trkpt><trkpt lat="36.86828038179551" lon="-4.690977451864286"><ele>217.0</ele><time>2026-04-23T13:53:56Z</time></trkpt><trkpt lat="36.86836302521071" lon="-4.690965733046563"><ele>217.0</ele><time>2026-04-23T13:53:57Z</time></trkpt><trkpt lat="36.86845360326812" lon="-4.690963296248793"><ele>216.99999999999997</ele><time>2026-04-23T13:53:58Z</time></trkpt><trkpt lat="36.86854867857742" lon="-4.690965860775428"><ele>217.0</ele><time>2026-04-23T13:53:59Z</time></trkpt><trkpt lat="36.8686232762447" lon="-4.6909814687397695"><ele>217.16666666666666</ele><time>2026-04-23T13:54:00Z</time></trkpt><trkpt lat="36.86875198680522" lon="-4.691016636624388"><ele>217.33333333333331</ele><time>2026-04-23T13:54:02Z</time></trkpt><trkpt lat="36.8688249354307" lon="-4.691031691190135"><ele>217.5</ele><time>2026-04-23T13:54:03Z</time></trkpt><trkpt lat="36.86890261848787" lon="-4.691051995198395"><ele>217.66666666666669</ele><time>2026-04-23T13:54:04Z</time></trkpt><trkpt lat="36.868974546663075" lon="-4.691075428400854"><ele>217.83333333333334</ele><time>2026-04-23T13:54:05Z</time></trkpt><trkpt lat="36.869052166322305" lon="-4.691094575982952"><ele>218.0</ele><time>2026-04-23T13:54:06Z</time></trkpt><trkpt lat="36.86912104526312" lon="-4.691118837998834"><ele>218.0</ele><time>2026-04-23T13:54:07Z</time></trkpt><trkpt lat="36.869207969816415" lon="-4.69114319151667"><ele>218.0</ele><time>2026-04-23T13:54:08Z</time></trkpt><trkpt lat="36.86929080784294" lon="-4.691170243626181"><ele>218.0</ele><time>2026-04-23T13:54:09Z</time></trkpt><trkpt lat="36.86938403947775" lon="-4.691203366659378"><ele>218.0</ele><time>2026-04-23T13:54:10Z</time></trkpt><trkpt lat="36.869485924417084" lon="-4.6912425791902095"><ele>218.0</ele><time>2026-04-23T13:54:11Z</time></trkpt><trkpt lat="36.86958352408884" lon="-4.691291306116677"><ele>219.0</ele><time>2026-04-23T13:54:12Z</time></trkpt><trkpt lat="36.86967559717422" lon="-4.69133338308437"><ele>220.0</ele><time>2026-04-23T13:54:13Z</time></trkpt><trkpt lat="36.869761122264435" lon="-4.691373271791884"><ele>221.0</ele><time>2026-04-23T13:54:14Z</time></trkpt><trkpt lat="36.869846952253305" lon="-4.691411763069069"><ele>222.0</ele><time>2026-04-23T13:54:15Z</time></trkpt><trkpt lat="36.86993865614377" lon="-4.691453182793504"><ele>223.0</ele><time>2026-04-23T13:54:16Z</time></trkpt><trkpt lat="36.87003111363769" lon="-4.691493135506382"><ele>223.99999999999997</ele><time>2026-04-23T13:54:17Z</time></trkpt><trkpt lat="36.87012709654681" lon="-4.691535928855857"><ele>225.0</ele><time>2026-04-23T13:54:18Z</time></trkpt><trkpt lat="36.8702124827397" lon="-4.691568303327113"><ele>226.0</ele><time>2026-04-23T13:54:19Z</time></trkpt><trkpt lat="36.87029754088857" lon="-4.691593063779987"><ele>227.0</ele><time>2026-04-23T13:54:20Z</time></trkpt><trkpt lat="36.870371605948606" lon="-4.691615350520135"><ele>227.99999999999997</ele><time>2026-04-23T13:54:21Z</time></trkpt><trkpt lat="36.870445058679074" lon="-4.691639110224356"><ele>229.0</ele><time>2026-04-23T13:54:22Z</time></trkpt><trkpt lat="36.87052825144429" lon="-4.691664614134282"><ele>229.0</ele><time>2026-04-23T13:54:23Z</time></trkpt><trkpt lat="36.87063312178219" lon="-4.691682079324856"><ele>228.99999999999997</ele><time>2026-04-23T13:54:24Z</time></trkpt><trkpt lat="36.870730334289" lon="-4.6916828934960835"><ele>228.99999999999997</ele><time>2026-04-23T13:54:25Z</time></trkpt><trkpt lat="36.87082905786556" lon="-4.691663651257706"><ele>229.0</ele><time>2026-04-23T13:54:26Z</time></trkpt><trkpt lat="36.870911705843696" lon="-4.691633922390794"><ele>229.0</ele><time>2026-04-23T13:54:27Z</time></trkpt><trkpt lat="36.870995762979604" lon="-4.691616540596817"><ele>230.2</ele><time>2026-04-23T13:54:28Z</time></trkpt><trkpt lat="36.871091205503646" lon="-4.691572065011492"><ele>231.39999999999998</ele><time>2026-04-23T13:54:29Z</time></trkpt><trkpt lat="36.87118461150132" lon="-4.691513905200017"><ele>232.6</ele><time>2026-04-23T13:54:30Z</time></trkpt><trkpt lat="36.871284647579905" lon="-4.691448006898881"><ele>233.8</ele><time>2026-04-23T13:54:31Z</time></trkpt><trkpt lat="36.871388220456794" lon="-4.691381733055777"><ele>235.0</ele><time>2026-04-23T13:54:32Z</time></trkpt><trkpt lat="36.87149023910637" lon="-4.691318201862673"><ele>235.0</ele><time>2026-04-23T13:54:33Z</time></trkpt><trkpt lat="36.871583610177986" lon="-4.69126353456475"><ele>235.0</ele><time>2026-04-23T13:54:34Z</time></trkpt><trkpt lat="36.87167242588848" lon="-4.691213427990725"><ele>235.0</ele><time>2026-04-23T13:54:35Z</time></trkpt><trkpt lat="36.871764977698206" lon="-4.691136978819721"><ele>235.0</ele><time>2026-04-23T13:54:36Z</time></trkpt><trkpt lat="36.87184859022423" lon="-4.691072762817625"><ele>235.0</ele><time>2026-04-23T13:54:37Z</time></trkpt><trkpt lat="36.87193852421885" lon="-4.691039009829718"><ele>236.8</ele><time>2026-04-23T13:54:38Z</time></trkpt><trkpt lat="36.87202691580826" lon="-4.691006234735985"><ele>238.6</ele><time>2026-04-23T13:54:39Z</time></trkpt><trkpt lat="36.87213063424687" lon="-4.690925956280875"><ele>240.39999999999998</ele><time>2026-04-23T13:54:41Z</time></trkpt><trkpt lat="36.87220463929202" lon="-4.6908725762960275"><ele>242.2</ele><time>2026-04-23T13:54:42Z</time></trkpt><trkpt lat="36.87230735841022" lon="-4.690823170883178"><ele>244.0</ele><time>2026-04-23T13:54:43Z</time></trkpt><trkpt lat="36.872418151536834" lon="-4.690757803537284"><ele>244.0</ele><time>2026-04-23T13:54:44Z</time></trkpt><trkpt lat="36.87251874300741" lon="-4.690695223707423"><ele>244.0</ele><time>2026-04-23T13:54:45Z</time></trkpt><trkpt lat="36.87261665093693" lon="-4.690619101077177"><ele>244.0</ele><time>2026-04-23T13:54:46Z</time></trkpt><trkpt lat="36.87272278644094" lon="-4.690563718543824"><ele>244.0</ele><time>2026-04-23T13:54:47Z</time></trkpt><trkpt lat="36.872843428411564" lon="-4.690528867487505"><ele>244.39999999999998</ele><time>2026-04-23T13:54:48Z</time></trkpt><trkpt lat="36.87294466863568" lon="-4.690494872895347"><ele>244.79999999999998</ele><time>2026-04-23T13:54:49Z</time></trkpt><trkpt lat="36.87303379557411" lon="-4.690434354225053"><ele>245.20000000000002</ele><time>2026-04-23T13:54:50Z</time></trkpt><trkpt lat="36.87311533914674" lon="-4.690359598057928"><ele>245.60000000000002</ele><time>2026-04-23T13:54:51Z</time></trkpt><trkpt lat="36.87320082704344" lon="-4.690273880529285"><ele>246.0</ele><time>2026-04-23T13:54:52Z</time></trkpt><trkpt lat="36.87330283233164" lon="-4.690190317990315"><ele>247.5</ele><time>2026-04-23T13:54:53Z</time></trkpt><trkpt lat="36.87340421385858" lon="-4.690109855622061"><ele>249.0</ele><time>2026-04-23T13:54:54Z</time></trkpt><trkpt lat="36.87351065812631" lon="-4.690030030939123"><ele>250.5</ele><time>2026-04-23T13:54:55Z</time></trkpt><trkpt lat="36.87360635991678" lon="-4.689952389169848"><ele>252.0</ele><time>2026-04-23T13:54:56Z</time></trkpt><trkpt lat="36.87369793575436" lon="-4.689890726802445"><ele>252.8</ele><time>2026-04-23T13:54:57Z</time></trkpt><trkpt lat="36.87378560660533" lon="-4.689837794107666"><ele>253.6</ele><time>2026-04-23T13:54:58Z</time></trkpt><trkpt lat="36.873877434075986" lon="-4.689766985978239"><ele>254.40000000000003</ele><time>2026-04-23T13:54:59Z</time></trkpt><trkpt lat="36.87397036173307" lon="-4.689698359821745"><ele>255.20000000000002</ele><time>2026-04-23T13:55:00Z</time></trkpt><trkpt lat="36.87406791636061" lon="-4.689626458995587"><ele>256.0</ele><time>2026-04-23T13:55:01Z</time></trkpt><trkpt lat="36.87417094935444" lon="-4.6895339463155254"><ele>256.0</ele><time>2026-04-23T13:55:02Z</time></trkpt><trkpt lat="36.874266481559886" lon="-4.689441178937367"><ele>256.0</ele><time>2026-04-23T13:55:03Z</time></trkpt><trkpt lat="36.87435146463848" lon="-4.689364078887972"><ele>256.0</ele><time>2026-04-23T13:55:04Z</time></trkpt><trkpt lat="36.87445413666735" lon="-4.689298550270389"><ele>256.0</ele><time>2026-04-23T13:55:05Z</time></trkpt><trkpt lat="36.87457015700911" lon="-4.689226337209054"><ele>257.2</ele><time>2026-04-23T13:55:06Z</time></trkpt><trkpt lat="36.87467820721055" lon="-4.689146637447572"><ele>258.40000000000003</ele><time>2026-04-23T13:55:07Z</time></trkpt><trkpt lat="36.874774550925444" lon="-4.689081435124489"><ele>259.6</ele><time>2026-04-23T13:55:08Z</time></trkpt><trkpt lat="36.87486016270589" lon="-4.689028962940908"><ele>260.8</ele><time>2026-04-23T13:55:09Z</time></trkpt><trkpt lat="36.8749447395198" lon="-4.688968075446002"><ele>262.0</ele><time>2026-04-23T13:55:10Z</time></trkpt><trkpt lat="36.87502800338832" lon="-4.688885032810791"><ele>262.0</ele><time>2026-04-23T13:55:11Z</time></trkpt><trkpt lat="36.87509436876701" lon="-4.688799835571715"><ele>262.0</ele><time>2026-04-23T13:55:12Z</time></trkpt><trkpt lat="36.87515896870416" lon="-4.688734028407878"><ele>262.0</ele><time>2026-04-23T13:55:13Z</time></trkpt><trkpt lat="36.87522686608013" lon="-4.688672207787091"><ele>262.0</ele><time>2026-04-23T13:55:14Z</time></trkpt><trkpt lat="36.875309071481894" lon="-4.688626323007484"><ele>262.0</ele><time>2026-04-23T13:55:15Z</time></trkpt><trkpt lat="36.875405400539236" lon="-4.6885739829876645"><ele>262.6</ele><time>2026-04-23T13:55:16Z</time></trkpt><trkpt lat="36.87549777848013" lon="-4.688490590820585"><ele>263.2</ele><time>2026-04-23T13:55:17Z</time></trkpt><trkpt lat="36.875573900678624" lon="-4.688415454252525"><ele>263.8</ele><time>2026-04-23T13:55:18Z</time></trkpt><trkpt lat="36.875640239811396" lon="-4.688369602921476"><ele>264.4</ele><time>2026-04-23T13:55:19Z</time></trkpt><trkpt lat="36.875716530351795" lon="-4.688345237205543"><ele>265.0</ele><time>2026-04-23T13:55:20Z</time></trkpt><trkpt lat="36.8757911816416" lon="-4.688294049190742"><ele>265.0</ele><time>2026-04-23T13:55:21Z</time></trkpt><trkpt lat="36.875858053458686" lon="-4.688224427337794"><ele>265.0</ele><time>2026-04-23T13:55:22Z</time></trkpt><trkpt lat="36.87595773072019" lon="-4.688121564588107"><ele>265.0</ele><time>2026-04-23T13:55:24Z</time></trkpt><trkpt lat="36.87602238356035" lon="-4.688089808991864"><ele>265.0</ele><time>2026-04-23T13:55:25Z</time></trkpt><trkpt lat="36.87610347978725" lon="-4.6880608328657365"><ele>265.0</ele><time>2026-04-23T13:55:26Z</time></trkpt><trkpt lat="36.876203650664884" lon="-4.688039416083429"><ele>265.6</ele><time>2026-04-23T13:55:27Z</time></trkpt><trkpt lat="36.87631151598813" lon="-4.688036153790465"><ele>266.2</ele><time>2026-04-23T13:55:28Z</time></trkpt><trkpt lat="36.87642102421379" lon="-4.688033778774264"><ele>266.8</ele><time>2026-04-23T13:55:29Z</time></trkpt><trkpt lat="36.87652879046982" lon="-4.688052337976008"><ele>267.4</ele><time>2026-04-23T13:55:30Z</time></trkpt><trkpt lat="36.87664587166153" lon="-4.688066057560936"><ele>268.0</ele><time>2026-04-23T13:55:31Z</time></trkpt><trkpt lat="36.87676119344455" lon="-4.688066606056623"><ele>269.3333333333333</ele><time>2026-04-23T13:55:32Z</time></trkpt><trkpt lat="36.87685951824697" lon="-4.688073294805042"><ele>270.66666666666663</ele><time>2026-04-23T13:55:33Z</time></trkpt><trkpt lat="36.87693927386652" lon="-4.688094456431164"><ele>272.0</ele><time>2026-04-23T13:55:34Z</time></trkpt><trkpt lat="36.8770178991012" lon="-4.688106708837992"><ele>273.3333333333333</ele><time>2026-04-23T13:55:35Z</time></trkpt><trkpt lat="36.877110659638454" lon="-4.68812176078992"><ele>274.6666666666667</ele><time>2026-04-23T13:55:36Z</time></trkpt><trkpt lat="36.87719860475614" lon="-4.6881141662913794"><ele>276.0</ele><time>2026-04-23T13:55:37Z</time></trkpt><trkpt lat="36.87729375712937" lon="-4.688098425819431"><ele>276.0</ele><time>2026-04-23T13:55:38Z</time></trkpt><trkpt lat="36.87738726915685" lon="-4.688104281769418"><ele>276.0</ele><time>2026-04-23T13:55:39Z</time></trkpt><trkpt lat="36.87745047101106" lon="-4.68811247426272"><ele>276.0</ele><time>2026-04-23T13:55:40Z</time></trkpt><trkpt lat="36.87758251688223" lon="-4.688165880134148"><ele>276.0</ele><time>2026-04-23T13:55:42Z</time></trkpt><trkpt lat="36.87765494663164" lon="-4.688202453059105"><ele>276.0</ele><time>2026-04-23T13:55:43Z</time></trkpt><trkpt lat="36.87772923165848" lon="-4.688215320783778"><ele>276.0</ele><time>2026-04-23T13:55:44Z</time></trkpt><trkpt lat="36.87781255564254" lon="-4.688203791842702"><ele>276.6</ele><time>2026-04-23T13:55:45Z</time></trkpt><trkpt lat="36.87791522738097" lon="-4.68821399060596"><ele>277.20000000000005</ele><time>2026-04-23T13:55:46Z</time></trkpt><trkpt lat="36.87800998589296" lon="-4.68824029229213"><ele>277.79999999999995</ele><time>2026-04-23T13:55:47Z</time></trkpt><trkpt lat="36.8780925824886" lon="-4.688264623749464"><ele>278.4</ele><time>2026-04-23T13:55:48Z</time></trkpt><trkpt lat="36.87818249043349" lon="-4.688291043276205"><ele>279.0</ele><time>2026-04-23T13:55:49Z</time></trkpt><trkpt lat="36.87828054404808" lon="-4.688298039962682"><ele>279.0</ele><time>2026-04-23T13:55:50Z</time></trkpt><trkpt lat="36.8783806780952" lon="-4.688311465721213"><ele>279.0</ele><time>2026-04-23T13:55:51Z</time></trkpt><trkpt lat="36.878480034765175" lon="-4.688331316646682"><ele>279.0</ele><time>2026-04-23T13:55:52Z</time></trkpt><trkpt lat="36.87856798130263" lon="-4.688358325007105"><ele>279.0</ele><time>2026-04-23T13:55:53Z</time></trkpt><trkpt lat="36.87865216777703" lon="-4.68840045109277"><ele>279.0</ele><time>2026-04-23T13:55:54Z</time></trkpt><trkpt lat="36.878725200860245" lon="-4.688448399640764"><ele>279.0</ele><time>2026-04-23T13:55:55Z</time></trkpt><trkpt lat="36.878819509070055" lon="-4.688486766387209"><ele>279.0</ele><time>2026-04-23T13:55:56Z</time></trkpt><trkpt lat="36.878923727590326" lon="-4.688525306982731"><ele>279.0</ele><time>2026-04-23T13:55:57Z</time></trkpt><trkpt lat="36.879028409559986" lon="-4.688566020856853"><ele>279.0</ele><time>2026-04-23T13:55:58Z</time></trkpt><trkpt lat="36.879131377058194" lon="-4.688608455877647"><ele>279.0</ele><time>2026-04-23T13:55:59Z</time></trkpt><trkpt lat="36.879239183273334" lon="-4.688637352293519"><ele>281.4</ele><time>2026-04-23T13:56:00Z</time></trkpt><trkpt lat="36.87933819799573" lon="-4.688654016225887"><ele>283.79999999999995</ele><time>2026-04-23T13:56:01Z</time></trkpt><trkpt lat="36.879431105007576" lon="-4.68866902504549"><ele>286.20000000000005</ele><time>2026-04-23T13:56:02Z</time></trkpt><trkpt lat="36.87952066768302" lon="-4.688690104834926"><ele>288.6</ele><time>2026-04-23T13:56:03Z</time></trkpt><trkpt lat="36.879609311866226" lon="-4.688706928050562"><ele>291.0</ele><time>2026-04-23T13:56:04Z</time></trkpt><trkpt lat="36.87971783227618" lon="-4.688678174068956"><ele>291.0</ele><time>2026-04-23T13:56:06Z</time></trkpt><trkpt lat="36.879866164787074" lon="-4.688703779023957"><ele>291.0</ele><time>2026-04-23T13:56:08Z</time></trkpt><trkpt lat="36.879949090908696" lon="-4.688710571488523"><ele>291.0</ele><time>2026-04-23T13:56:09Z</time></trkpt><trkpt lat="36.88001600072391" lon="-4.688721960116549"><ele>291.0</ele><time>2026-04-23T13:56:10Z</time></trkpt><trkpt lat="36.88011407530965" lon="-4.688698070642279"><ele>291.0</ele><time>2026-04-23T13:56:11Z</time></trkpt><trkpt lat="36.88022477606579" lon="-4.688669196089959"><ele>290.3333333333333</ele><time>2026-04-23T13:56:12Z</time></trkpt><trkpt lat="36.880295794292344" lon="-4.688663415889922"><ele>289.6666666666667</ele><time>2026-04-23T13:56:13Z</time></trkpt><trkpt lat="36.88042087303051" lon="-4.688699822265787"><ele>289.0</ele><time>2026-04-23T13:56:15Z</time></trkpt><trkpt lat="36.88049123021523" lon="-4.688727520976056"><ele>288.33333333333337</ele><time>2026-04-23T13:56:16Z</time></trkpt><trkpt lat="36.88056486952474" lon="-4.688755671995539"><ele>287.6666666666667</ele><time>2026-04-23T13:56:17Z</time></trkpt><trkpt lat="36.88063476593288" lon="-4.688794214492219"><ele>287.0</ele><time>2026-04-23T13:56:18Z</time></trkpt><trkpt lat="36.880723269049646" lon="-4.688841437458675"><ele>287.0</ele><time>2026-04-23T13:56:19Z</time></trkpt><trkpt lat="36.88082577289559" lon="-4.688864985844485"><ele>287.0</ele><time>2026-04-23T13:56:20Z</time></trkpt><trkpt lat="36.88092795183207" lon="-4.688881081110496"><ele>287.0</ele><time>2026-04-23T13:56:21Z</time></trkpt><trkpt lat="36.88100881804842" lon="-4.688894299298863"><ele>287.0</ele><time>2026-04-23T13:56:22Z</time></trkpt><trkpt lat="36.881087081554966" lon="-4.68891166173232"><ele>287.0</ele><time>2026-04-23T13:56:23Z</time></trkpt><trkpt lat="36.88116517154489" lon="-4.688949172972666"><ele>285.83333333333337</ele><time>2026-04-23T13:56:25Z</time></trkpt><trkpt lat="36.88122107403068" lon="-4.68891045672886"><ele>284.6666666666667</ele><time>2026-04-23T13:56:27Z</time></trkpt><trkpt lat="36.88132221198509" lon="-4.688929363505184"><ele>283.5</ele><time>2026-04-23T13:56:29Z</time></trkpt><trkpt lat="36.8813996622518" lon="-4.6889663923176075"><ele>282.3333333333333</ele><time>2026-04-23T13:56:30Z</time></trkpt><trkpt lat="36.88149516063694" lon="-4.6889908910663145"><ele>281.16666666666663</ele><time>2026-04-23T13:56:31Z</time></trkpt><trkpt lat="36.88159569643039" lon="-4.6890158147261785"><ele>280.0</ele><time>2026-04-23T13:56:32Z</time></trkpt><trkpt lat="36.88168058729848" lon="-4.689036543946848"><ele>280.0</ele><time>2026-04-23T13:56:33Z</time></trkpt><trkpt lat="36.88176006505867" lon="-4.689059260321087"><ele>280.0</ele><time>2026-04-23T13:56:34Z</time></trkpt><trkpt lat="36.88184384094861" lon="-4.689097458422672"><ele>280.0</ele><time>2026-04-23T13:56:35Z</time></trkpt><trkpt lat="36.881934676689774" lon="-4.689128055831668"><ele>280.0</ele><time>2026-04-23T13:56:36Z</time></trkpt><trkpt lat="36.882034974930924" lon="-4.689143233908418"><ele>280.0</ele><time>2026-04-23T13:56:37Z</time></trkpt><trkpt lat="36.882127237550876" lon="-4.689161470453739"><ele>279.0</ele><time>2026-04-23T13:56:38Z</time></trkpt><trkpt lat="36.88221827918362" lon="-4.689187313375588"><ele>278.0</ele><time>2026-04-23T13:56:39Z</time></trkpt><trkpt lat="36.882306872602044" lon="-4.689211127463815"><ele>277.0</ele><time>2026-04-23T13:56:40Z</time></trkpt><trkpt lat="36.88237762536941" lon="-4.689220549491237"><ele>276.0</ele><time>2026-04-23T13:56:41Z</time></trkpt><trkpt lat="36.88245350476419" lon="-4.689201607896568"><ele>275.0</ele><time>2026-04-23T13:56:42Z</time></trkpt><trkpt lat="36.882542027572356" lon="-4.689185659784744"><ele>274.0</ele><time>2026-04-23T13:56:43Z</time></trkpt><trkpt lat="36.88263453070909" lon="-4.689182311020209"><ele>273.3333333333333</ele><time>2026-04-23T13:56:44Z</time></trkpt><trkpt lat="36.882719607294874" lon="-4.689188371329748"><ele>272.66666666666663</ele><time>2026-04-23T13:56:45Z</time></trkpt><trkpt lat="36.88280262470743" lon="-4.689197370003753"><ele>272.0</ele><time>2026-04-23T13:56:46Z</time></trkpt><trkpt lat="36.88289161218254" lon="-4.689215096397344"><ele>271.3333333333333</ele><time>2026-04-23T13:56:47Z</time></trkpt><trkpt lat="36.88298646254293" lon="-4.68924230059848"><ele>270.6666666666667</ele><time>2026-04-23T13:56:48Z</time></trkpt><trkpt lat="36.88307582348634" lon="-4.689257489134461"><ele>270.0</ele><time>2026-04-23T13:56:49Z</time></trkpt><trkpt lat="36.883170744579544" lon="-4.689296503967602"><ele>270.0</ele><time>2026-04-23T13:56:50Z</time></trkpt><trkpt lat="36.883250220269204" lon="-4.6893710696509565"><ele>270.0</ele><time>2026-04-23T13:56:51Z</time></trkpt><trkpt lat="36.88333379006475" lon="-4.689483934235401"><ele>270.0</ele><time>2026-04-23T13:56:52Z</time></trkpt><trkpt lat="36.88342826477606" lon="-4.689566991813373"><ele>270.0</ele><time>2026-04-23T13:56:53Z</time></trkpt><trkpt lat="36.88354035616516" lon="-4.689609120262953"><ele>272.75</ele><time>2026-04-23T13:56:54Z</time></trkpt><trkpt lat="36.883669903839184" lon="-4.6896335652984105"><ele>275.5</ele><time>2026-04-23T13:56:55Z</time></trkpt><trkpt lat="36.883806604904265" lon="-4.689658805715363"><ele>278.25</ele><time>2026-04-23T13:56:56Z</time></trkpt><trkpt lat="36.8839217242982" lon="-4.689708314527204"><ele>281.0</ele><time>2026-04-23T13:56:57Z</time></trkpt><trkpt lat="36.88403692121121" lon="-4.68977229147227"><ele>281.0</ele><time>2026-04-23T13:56:58Z</time></trkpt><trkpt lat="36.8841681133402" lon="-4.689799080624609"><ele>281.0</ele><time>2026-04-23T13:56:59Z</time></trkpt><trkpt lat="36.88431431044147" lon="-4.689817245903347"><ele>281.0</ele><time>2026-04-23T13:57:00Z</time></trkpt><trkpt lat="36.88443305049204" lon="-4.689849933697149"><ele>281.0</ele><time>2026-04-23T13:57:01Z</time></trkpt><trkpt lat="36.88453018059568" lon="-4.689931720483114"><ele>282.5</ele><time>2026-04-23T13:57:02Z</time></trkpt><trkpt lat="36.884637271151995" lon="-4.690039752251456"><ele>284.0</ele><time>2026-04-23T13:57:03Z</time></trkpt><trkpt lat="36.88475858004958" lon="-4.690160066952779"><ele>285.5</ele><time>2026-04-23T13:57:04Z</time></trkpt><trkpt lat="36.88488264224789" lon="-4.690271748509743"><ele>287.0</ele><time>2026-04-23T13:57:05Z</time></trkpt><trkpt lat="36.8850222665045" lon="-4.690380568580036"><ele>290.0</ele><time>2026-04-23T13:57:06Z</time></trkpt><trkpt lat="36.8851662960306" lon="-4.6904876680807925"><ele>293.0</ele><time>2026-04-23T13:57:07Z</time></trkpt><trkpt lat="36.88530402503498" lon="-4.690593597728192"><ele>296.0</ele><time>2026-04-23T13:57:08Z</time></trkpt><trkpt lat="36.88544834249004" lon="-4.69070972973789"><ele>296.0</ele><time>2026-04-23T13:57:09Z</time></trkpt><trkpt lat="36.8855704154232" lon="-4.6908175692733325"><ele>296.0</ele><time>2026-04-23T13:57:10Z</time></trkpt><trkpt lat="36.88568907481105" lon="-4.690932959667534"><ele>296.0</ele><time>2026-04-23T13:57:11Z</time></trkpt><trkpt lat="36.885779690519236" lon="-4.691024846099866"><ele>296.0</ele><time>2026-04-23T13:57:12Z</time></trkpt><trkpt lat="36.885862404824984" lon="-4.691072568626432"><ele>295.75</ele><time>2026-04-23T13:57:13Z</time></trkpt><trkpt lat="36.88596040125717" lon="-4.691102357305643"><ele>295.5</ele><time>2026-04-23T13:57:14Z</time></trkpt><trkpt lat="36.886088170861164" lon="-4.691115684094564"><ele>295.25</ele><time>2026-04-23T13:57:15Z</time></trkpt><trkpt lat="36.88622031392003" lon="-4.691132286629178"><ele>295.0</ele><time>2026-04-23T13:57:16Z</time></trkpt><trkpt lat="36.88633576230711" lon="-4.691103967569945"><ele>295.75</ele><time>2026-04-23T13:57:17Z</time></trkpt><trkpt lat="36.8864494866879" lon="-4.69107252462006"><ele>296.5</ele><time>2026-04-23T13:57:18Z</time></trkpt><trkpt lat="36.88657149298676" lon="-4.691006237117528"><ele>297.25</ele><time>2026-04-23T13:57:19Z</time></trkpt><trkpt lat="36.88670354202179" lon="-4.690915218994752"><ele>298.0</ele><time>2026-04-23T13:57:20Z</time></trkpt><trkpt lat="36.88683700740833" lon="-4.69083256763908"><ele>300.3333333333333</ele><time>2026-04-23T13:57:21Z</time></trkpt><trkpt lat="36.88697558440387" lon="-4.690762482754055"><ele>302.6666666666667</ele><time>2026-04-23T13:57:22Z</time></trkpt><trkpt lat="36.88712201223265" lon="-4.690705690584312"><ele>305.0</ele><time>2026-04-23T13:57:23Z</time></trkpt><trkpt lat="36.887273836517544" lon="-4.69066446243533"><ele>305.0</ele><time>2026-04-23T13:57:24Z</time></trkpt><trkpt lat="36.887413210810706" lon="-4.690651509178659"><ele>305.0</ele><time>2026-04-23T13:57:25Z</time></trkpt><trkpt lat="36.88752901379535" lon="-4.690654811209627"><ele>305.0</ele><time>2026-04-23T13:57:26Z</time></trkpt><trkpt lat="36.887627799444594" lon="-4.690694340702987"><ele>305.0</ele><time>2026-04-23T13:57:27Z</time></trkpt><trkpt lat="36.88770855356179" lon="-4.690725119313511"><ele>305.0</ele><time>2026-04-23T13:57:28Z</time></trkpt><trkpt lat="36.8877902562459" lon="-4.690759837801809"><ele>309.2</ele><time>2026-04-23T13:57:29Z</time></trkpt><trkpt lat="36.88788853455527" lon="-4.690808186949281"><ele>313.4</ele><time>2026-04-23T13:57:30Z</time></trkpt><trkpt lat="36.88799437156591" lon="-4.690850358844016"><ele>317.6</ele><time>2026-04-23T13:57:31Z</time></trkpt><trkpt lat="36.88808866755931" lon="-4.690914938363457"><ele>321.8</ele><time>2026-04-23T13:57:32Z</time></trkpt><trkpt lat="36.8881803697648" lon="-4.690984532652331"><ele>326.0</ele><time>2026-04-23T13:57:33Z</time></trkpt><trkpt lat="36.888277123485715" lon="-4.691046228194571"><ele>326.0</ele><time>2026-04-23T13:57:34Z</time></trkpt><trkpt lat="36.88838140296384" lon="-4.691081382769041"><ele>326.0</ele><time>2026-04-23T13:57:35Z</time></trkpt><trkpt lat="36.88848370241527" lon="-4.691110930966449"><ele>326.0</ele><time>2026-04-23T13:57:36Z</time></trkpt><trkpt lat="36.88858163754003" lon="-4.69116579865445"><ele>326.0</ele><time>2026-04-23T13:57:37Z</time></trkpt><trkpt lat="36.88867040591058" lon="-4.691271254432346"><ele>326.0</ele><time>2026-04-23T13:57:38Z</time></trkpt><trkpt lat="36.888752171519364" lon="-4.691359649718943"><ele>326.83333333333337</ele><time>2026-04-23T13:57:39Z</time></trkpt><trkpt lat="36.88883448239349" lon="-4.691422767169694"><ele>327.6666666666667</ele><time>2026-04-23T13:57:40Z</time></trkpt><trkpt lat="36.888894806058545" lon="-4.6914773551587095"><ele>328.5</ele><time>2026-04-23T13:57:41Z</time></trkpt><trkpt lat="36.888967412110496" lon="-4.691485218572924"><ele>329.3333333333333</ele><time>2026-04-23T13:57:42Z</time></trkpt><trkpt lat="36.88906056316877" lon="-4.691467619829857"><ele>330.16666666666663</ele><time>2026-04-23T13:57:43Z</time></trkpt><trkpt lat="36.88916254684416" lon="-4.691431022195861"><ele>331.0</ele><time>2026-04-23T13:57:44Z</time></trkpt><trkpt lat="36.88929349381432" lon="-4.691391607088122"><ele>333.75</ele><time>2026-04-23T13:57:45Z</time></trkpt><trkpt lat="36.88942598144462" lon="-4.691348842812579"><ele>336.5</ele><time>2026-04-23T13:57:46Z</time></trkpt><trkpt lat="36.88956505430468" lon="-4.6913409268178405"><ele>339.25</ele><time>2026-04-23T13:57:47Z</time></trkpt><trkpt lat="36.889668772837766" lon="-4.691294781974754"><ele>342.0</ele><time>2026-04-23T13:57:48Z</time></trkpt><trkpt lat="36.88979107831839" lon="-4.691266093630015"><ele>342.0</ele><time>2026-04-23T13:57:49Z</time></trkpt><trkpt lat="36.88992984346918" lon="-4.691257240008719"><ele>342.0</ele><time>2026-04-23T13:57:50Z</time></trkpt><trkpt lat="36.890042210815466" lon="-4.691256341634974"><ele>342.0</ele><time>2026-04-23T13:57:51Z</time></trkpt><trkpt lat="36.890140146300865" lon="-4.691259069797176"><ele>342.0</ele><time>2026-04-23T13:57:52Z</time></trkpt><trkpt lat="36.89022862798805" lon="-4.691275142007663"><ele>342.0</ele><time>2026-04-23T13:57:53Z</time></trkpt><trkpt lat="36.89031154298322" lon="-4.691225184162262"><ele>343.8</ele><time>2026-04-23T13:57:54Z</time></trkpt><trkpt lat="36.89040966743504" lon="-4.69120187605755"><ele>345.6</ele><time>2026-04-23T13:57:55Z</time></trkpt><trkpt lat="36.89049765233033" lon="-4.691150383663171"><ele>347.40000000000003</ele><time>2026-04-23T13:57:56Z</time></trkpt><trkpt lat="36.89058406149501" lon="-4.691114239606473"><ele>349.20000000000005</ele><time>2026-04-23T13:57:57Z</time></trkpt><trkpt lat="36.890699481060615" lon="-4.691102692872568"><ele>351.0</ele><time>2026-04-23T13:57:58Z</time></trkpt><trkpt lat="36.890833297481755" lon="-4.691102622043505"><ele>350.75</ele><time>2026-04-23T13:57:59Z</time></trkpt><trkpt lat="36.890967914861456" lon="-4.691094702970196"><ele>350.5</ele><time>2026-04-23T13:58:00Z</time></trkpt><trkpt lat="36.89109917409859" lon="-4.6910722305944255"><ele>350.25</ele><time>2026-04-23T13:58:01Z</time></trkpt><trkpt lat="36.89123228011389" lon="-4.691031718047816"><ele>350.0</ele><time>2026-04-23T13:58:02Z</time></trkpt><trkpt lat="36.89138014598064" lon="-4.690991355584697"><ele>350.75</ele><time>2026-04-23T13:58:03Z</time></trkpt><trkpt lat="36.89152363419599" lon="-4.690946538314287"><ele>351.5</ele><time>2026-04-23T13:58:04Z</time></trkpt><trkpt lat="36.89164445719301" lon="-4.690895879927792"><ele>352.25</ele><time>2026-04-23T13:58:05Z</time></trkpt><trkpt lat="36.89175787132909" lon="-4.69084193587433"><ele>353.0</ele><time>2026-04-23T13:58:06Z</time></trkpt><trkpt lat="36.89185152097099" lon="-4.690743225308724"><ele>354.0</ele><time>2026-04-23T13:58:07Z</time></trkpt><trkpt lat="36.891962523790646" lon="-4.6906352884416105"><ele>355.0</ele><time>2026-04-23T13:58:08Z</time></trkpt><trkpt lat="36.892038950805265" lon="-4.690520075243209"><ele>356.0</ele><time>2026-04-23T13:58:09Z</time></trkpt><trkpt lat="36.89208686329232" lon="-4.690388076450285"><ele>357.0</ele><time>2026-04-23T13:58:10Z</time></trkpt><trkpt lat="36.89212333990109" lon="-4.690229655187252"><ele>358.25</ele><time>2026-04-23T13:58:11Z</time></trkpt><trkpt lat="36.89216599232821" lon="-4.690063820093752"><ele>359.5</ele><time>2026-04-23T13:58:12Z</time></trkpt><trkpt lat="36.89221806584396" lon="-4.689919022414125"><ele>360.75</ele><time>2026-04-23T13:58:13Z</time></trkpt><trkpt lat="36.892293680625464" lon="-4.689803181113926"><ele>362.0</ele><time>2026-04-23T13:58:14Z</time></trkpt><trkpt lat="36.89238436415438" lon="-4.689669465693913"><ele>362.0</ele><time>2026-04-23T13:58:15Z</time></trkpt><trkpt lat="36.892452573271164" lon="-4.689509384100036"><ele>362.0</ele><time>2026-04-23T13:58:16Z</time></trkpt><trkpt lat="36.892528266873356" lon="-4.68933855551001"><ele>362.0</ele><time>2026-04-23T13:58:17Z</time></trkpt><trkpt lat="36.89257950071986" lon="-4.689177574713744"><ele>362.0</ele><time>2026-04-23T13:58:18Z</time></trkpt><trkpt lat="36.892624873675395" lon="-4.6890053509975065"><ele>365.5</ele><time>2026-04-23T13:58:19Z</time></trkpt><trkpt lat="36.89266147563518" lon="-4.68882603704481"><ele>369.0</ele><time>2026-04-23T13:58:20Z</time></trkpt><trkpt lat="36.892713262215146" lon="-4.68865161567262"><ele>372.5</ele><time>2026-04-23T13:58:21Z</time></trkpt><trkpt lat="36.89278418879912" lon="-4.688485902093037"><ele>376.0</ele><time>2026-04-23T13:58:22Z</time></trkpt><trkpt lat="36.89282928527123" lon="-4.688303333331435"><ele>376.0</ele><time>2026-04-23T13:58:23Z</time></trkpt><trkpt lat="36.892854015066085" lon="-4.688117728677893"><ele>376.0</ele><time>2026-04-23T13:58:24Z</time></trkpt><trkpt lat="36.89288028338502" lon="-4.687911563606798"><ele>376.0</ele><time>2026-04-23T13:58:25Z</time></trkpt><trkpt lat="36.8929204772234" lon="-4.687723346636736"><ele>376.0</ele><time>2026-04-23T13:58:26Z</time></trkpt><trkpt lat="36.892921662522326" lon="-4.687565986627112"><ele>376.0</ele><time>2026-04-23T13:58:27Z</time></trkpt><trkpt lat="36.892948934962284" lon="-4.687418121337047"><ele>376.0</ele><time>2026-04-23T13:58:28Z</time></trkpt><trkpt lat="36.89295710397948" lon="-4.68729105585484"><ele>376.0</ele><time>2026-04-23T13:58:29Z</time></trkpt><trkpt lat="36.89297310736877" lon="-4.687170190464202"><ele>376.0</ele><time>2026-04-23T13:58:30Z</time></trkpt><trkpt lat="36.893052107010014" lon="-4.687057318685186"><ele>376.0</ele><time>2026-04-23T13:58:31Z</time></trkpt><trkpt lat="36.89312069374567" lon="-4.686943922962633"><ele>376.0</ele><time>2026-04-23T13:58:32Z</time></trkpt><trkpt lat="36.893204157194695" lon="-4.686848031142326"><ele>376.0</ele><time>2026-04-23T13:58:33Z</time></trkpt><trkpt lat="36.89331595551135" lon="-4.686801857955851"><ele>376.0</ele><time>2026-04-23T13:58:34Z</time></trkpt><trkpt lat="36.893439730162065" lon="-4.686713778525965"><ele>377.0</ele><time>2026-04-23T13:58:35Z</time></trkpt><trkpt lat="36.89357099621104" lon="-4.68661972930627"><ele>378.0</ele><time>2026-04-23T13:58:36Z</time></trkpt><trkpt lat="36.893702476384476" lon="-4.686532282284928"><ele>379.0</ele><time>2026-04-23T13:58:37Z</time></trkpt><trkpt lat="36.893818284413136" lon="-4.686431035676487"><ele>380.0</ele><time>2026-04-23T13:58:38Z</time></trkpt><trkpt lat="36.89391598678102" lon="-4.6863253773527545"><ele>380.0</ele><time>2026-04-23T13:58:39Z</time></trkpt><trkpt lat="36.893988359637895" lon="-4.686175965516468"><ele>380.0</ele><time>2026-04-23T13:58:40Z</time></trkpt><trkpt lat="36.89405224301702" lon="-4.686027313420823"><ele>380.0</ele><time>2026-04-23T13:58:41Z</time></trkpt><trkpt lat="36.89410208740502" lon="-4.685854886889704"><ele>380.0</ele><time>2026-04-23T13:58:42Z</time></trkpt><trkpt lat="36.894149264441474" lon="-4.6856718661777865"><ele>376.5</ele><time>2026-04-23T13:58:43Z</time></trkpt><trkpt lat="36.89418120317798" lon="-4.6854992698240805"><ele>373.0</ele><time>2026-04-23T13:58:44Z</time></trkpt><trkpt lat="36.89418613064372" lon="-4.685348178643238"><ele>369.5</ele><time>2026-04-23T13:58:45Z</time></trkpt><trkpt lat="36.89418406934386" lon="-4.685191951149804"><ele>366.0</ele><time>2026-04-23T13:58:46Z</time></trkpt><trkpt lat="36.89420500702663" lon="-4.685065518382286"><ele>366.5</ele><time>2026-04-23T13:58:47Z</time></trkpt><trkpt lat="36.89425309765364" lon="-4.684956855569599"><ele>367.0</ele><time>2026-04-23T13:58:48Z</time></trkpt><trkpt lat="36.89431549774994" lon="-4.684831928553781"><ele>367.5</ele><time>2026-04-23T13:58:49Z</time></trkpt><trkpt lat="36.89439437920307" lon="-4.684710299677099"><ele>368.0</ele><time>2026-04-23T13:58:50Z</time></trkpt><trkpt lat="36.894483958239476" lon="-4.684605228292275"><ele>368.0</ele><time>2026-04-23T13:58:51Z</time></trkpt><trkpt lat="36.89456786386131" lon="-4.6845358827764825"><ele>368.0</ele><time>2026-04-23T13:58:52.001Z</time></trkpt><trkpt lat="36.894632501409696" lon="-4.684491941296321"><ele>368.0</ele><time>2026-04-23T13:58:53.001Z</time></trkpt><trkpt lat="36.894710720483964" lon="-4.684451405967829"><ele>368.0</ele><time>2026-04-23T13:58:55.001Z</time></trkpt><trkpt lat="36.89479190869975" lon="-4.6844033291185845"><ele>368.0</ele><time>2026-04-23T13:58:58Z</time></trkpt><trkpt lat="36.89488445771081" lon="-4.684385023887738"><ele>368.0</ele><time>2026-04-23T14:14:27Z</time></trkpt><trkpt lat="36.894980801329" lon="-4.684434828114561"><ele>366.59999999999997</ele><time>2026-04-23T14:14:29Z</time></trkpt><trkpt lat="36.89508920100839" lon="-4.684460289911311"><ele>365.2</ele><time>2026-04-23T14:14:31Z</time></trkpt><trkpt lat="36.89519379907402" lon="-4.684472659474208"><ele>363.8</ele><time>2026-04-23T14:14:33Z</time></trkpt><trkpt lat="36.89530256156534" lon="-4.684452991334704"><ele>362.4</ele><time>2026-04-23T14:14:35Z</time></trkpt><trkpt lat="36.895413499654474" lon="-4.684417261993159"><ele>361.0</ele><time>2026-04-23T14:14:37Z</time></trkpt><trkpt lat="36.895531410288655" lon="-4.684390757239408"><ele>361.0</ele><time>2026-04-23T14:14:39Z</time></trkpt><trkpt lat="36.89559376700864" lon="-4.684375429706887"><ele>361.0</ele><time>2026-04-23T14:14:40Z</time></trkpt><trkpt lat="36.895703106717676" lon="-4.684369843333348"><ele>361.0</ele><time>2026-04-23T14:14:42Z</time></trkpt><trkpt lat="36.895807265888465" lon="-4.684395643335413"><ele>361.0</ele><time>2026-04-23T14:14:44Z</time></trkpt><trkpt lat="36.89589459361973" lon="-4.684433610892759"><ele>361.0</ele><time>2026-04-23T14:14:46Z</time></trkpt><trkpt lat="36.895996968892604" lon="-4.684479267869702"><ele>357.8</ele><time>2026-04-23T14:14:48Z</time></trkpt><trkpt lat="36.89609329676541" lon="-4.684536205532037"><ele>354.6</ele><time>2026-04-23T14:14:50Z</time></trkpt><trkpt lat="36.896202478577045" lon="-4.684582777609063"><ele>351.4</ele><time>2026-04-23T14:14:52Z</time></trkpt><trkpt lat="36.89632224034769" lon="-4.684613954623389"><ele>348.2</ele><time>2026-04-23T14:14:54Z</time></trkpt><trkpt lat="36.8963888704112" lon="-4.684613392373964"><ele>345.0</ele><time>2026-04-23T14:14:55Z</time></trkpt><trkpt lat="36.896460483369395" lon="-4.684592715616848"><ele>345.0</ele><time>2026-04-23T14:14:56Z</time></trkpt><trkpt lat="36.89652777590726" lon="-4.684550906316364"><ele>345.0</ele><time>2026-04-23T14:14:57Z</time></trkpt><trkpt lat="36.89659974028334" lon="-4.684484782497851"><ele>345.0</ele><time>2026-04-23T14:14:58Z</time></trkpt><trkpt lat="36.89665714064707" lon="-4.684407297860794"><ele>345.0</ele><time>2026-04-23T14:14:59Z</time></trkpt><trkpt lat="36.89669233857552" lon="-4.684310731829699"><ele>345.0</ele><time>2026-04-23T14:15:00Z</time></trkpt><trkpt lat="36.896752154737925" lon="-4.684238397971052"><ele>345.0</ele><time>2026-04-23T14:15:01Z</time></trkpt><trkpt lat="36.89680221057762" lon="-4.684160241398307"><ele>344.5</ele><time>2026-04-23T14:15:02Z</time></trkpt><trkpt lat="36.896860308804" lon="-4.684102076865775"><ele>344.0</ele><time>2026-04-23T14:15:03Z</time></trkpt><trkpt lat="36.896921857376434" lon="-4.684066528144408"><ele>343.5</ele><time>2026-04-23T14:15:04Z</time></trkpt><trkpt lat="36.89698888411067" lon="-4.684049081584412"><ele>343.0</ele><time>2026-04-23T14:15:05Z</time></trkpt><trkpt lat="36.897089149915224" lon="-4.683982157181582"><ele>342.5</ele><time>2026-04-23T14:15:07Z</time></trkpt><trkpt lat="36.89714809631339" lon="-4.683945542706836"><ele>342.0</ele><time>2026-04-23T14:15:08Z</time></trkpt><trkpt lat="36.89720938789692" lon="-4.683914538480301"><ele>342.0</ele><time>2026-04-23T14:15:09Z</time></trkpt><trkpt lat="36.897270207647495" lon="-4.683888830050429"><ele>342.0</ele><time>2026-04-23T14:15:10Z</time></trkpt><trkpt lat="36.897440461298885" lon="-4.683806298455772"><ele>342.0</ele><time>2026-04-23T14:15:13Z</time></trkpt><trkpt lat="36.89750467930232" lon="-4.683781917501063"><ele>342.0</ele><time>2026-04-23T14:15:14Z</time></trkpt><trkpt lat="36.89758378065499" lon="-4.683763061818354"><ele>342.0</ele><time>2026-04-23T14:15:15Z</time></trkpt><trkpt lat="36.89767453232833" lon="-4.683749493330746"><ele>343.0</ele><time>2026-04-23T14:15:16Z</time></trkpt><trkpt lat="36.897755809396855" lon="-4.683740301711654"><ele>344.0</ele><time>2026-04-23T14:15:17Z</time></trkpt><trkpt lat="36.89782129345178" lon="-4.68372770597458"><ele>345.0</ele><time>2026-04-23T14:15:18Z</time></trkpt><trkpt lat="36.8978911740771" lon="-4.6837063322976125"><ele>346.0</ele><time>2026-04-23T14:15:19Z</time></trkpt><trkpt lat="36.89795313539989" lon="-4.683675212984511"><ele>347.0</ele><time>2026-04-23T14:15:20Z</time></trkpt><trkpt lat="36.898045833546654" lon="-4.6836179834573075"><ele>348.0</ele><time>2026-04-23T14:15:22Z</time></trkpt><trkpt lat="36.898180494343734" lon="-4.683667173199536"><ele>348.0</ele><time>2026-04-23T14:15:25Z</time></trkpt><trkpt lat="36.89826264694591" lon="-4.683690604358395"><ele>348.0</ele><time>2026-04-23T14:15:26Z</time></trkpt><trkpt lat="36.89835232751257" lon="-4.6837168238717615"><ele>348.0</ele><time>2026-04-23T14:15:27Z</time></trkpt><trkpt lat="36.89846231116268" lon="-4.683740949054165"><ele>348.0</ele><time>2026-04-23T14:15:28Z</time></trkpt><trkpt lat="36.89857915164049" lon="-4.683759426928356"><ele>348.0</ele><time>2026-04-23T14:15:29Z</time></trkpt><trkpt lat="36.89869518353934" lon="-4.683773604448775"><ele>349.0</ele><time>2026-04-23T14:15:30Z</time></trkpt><trkpt lat="36.89881836975876" lon="-4.68377911505048"><ele>350.0</ele><time>2026-04-23T14:15:31Z</time></trkpt><trkpt lat="36.89894329943544" lon="-4.683785273857139"><ele>351.0</ele><time>2026-04-23T14:15:32Z</time></trkpt><trkpt lat="36.89906918412965" lon="-4.683792581290329"><ele>352.0</ele><time>2026-04-23T14:15:33Z</time></trkpt><trkpt lat="36.89919714673244" lon="-4.683798190477689"><ele>351.75</ele><time>2026-04-23T14:15:34Z</time></trkpt><trkpt lat="36.89932579250609" lon="-4.683794129198355"><ele>351.5</ele><time>2026-04-23T14:15:35Z</time></trkpt><trkpt lat="36.899457616302264" lon="-4.683778699514565"><ele>351.25</ele><time>2026-04-23T14:15:36Z</time></trkpt><trkpt lat="36.89958407023955" lon="-4.6837530496556665"><ele>351.0</ele><time>2026-04-23T14:15:37Z</time></trkpt><trkpt lat="36.89971570241814" lon="-4.683729973181395"><ele>351.0</ele><time>2026-04-23T14:15:38Z</time></trkpt><trkpt lat="36.89984600165765" lon="-4.683700372739799"><ele>351.0</ele><time>2026-04-23T14:15:39Z</time></trkpt><trkpt lat="36.89997993515551" lon="-4.683663086619448"><ele>351.0</ele><time>2026-04-23T14:15:40Z</time></trkpt><trkpt lat="36.90009914377184" lon="-4.683628875911842"><ele>351.0</ele><time>2026-04-23T14:15:41Z</time></trkpt><trkpt lat="36.90022942638844" lon="-4.683587506973842"><ele>348.5</ele><time>2026-04-23T14:15:42Z</time></trkpt><trkpt lat="36.900358003193965" lon="-4.683546862652356"><ele>346.0</ele><time>2026-04-23T14:15:43Z</time></trkpt><trkpt lat="36.900486130762054" lon="-4.683508924282826"><ele>343.5</ele><time>2026-04-23T14:15:44Z</time></trkpt><trkpt lat="36.90061550367437" lon="-4.683474378986731"><ele>341.0</ele><time>2026-04-23T14:15:45Z</time></trkpt><trkpt lat="36.90075040358228" lon="-4.683453755608448"><ele>341.0</ele><time>2026-04-23T14:15:46Z</time></trkpt><trkpt lat="36.900895234197925" lon="-4.683450671103569"><ele>341.0</ele><time>2026-04-23T14:15:47Z</time></trkpt><trkpt lat="36.90104239890349" lon="-4.683458917440466"><ele>341.0</ele><time>2026-04-23T14:15:48Z</time></trkpt><trkpt lat="36.901191469905164" lon="-4.683474164710904"><ele>341.0</ele><time>2026-04-23T14:15:49Z</time></trkpt><trkpt lat="36.90133857407298" lon="-4.683497887057654"><ele>341.75</ele><time>2026-04-23T14:15:50Z</time></trkpt><trkpt lat="36.90148155740411" lon="-4.683522066300628"><ele>342.5</ele><time>2026-04-23T14:15:51Z</time></trkpt><trkpt lat="36.90161240284111" lon="-4.6835501035400515"><ele>343.25</ele><time>2026-04-23T14:15:52Z</time></trkpt><trkpt lat="36.90173648326047" lon="-4.683584106349453"><ele>344.0</ele><time>2026-04-23T14:15:53Z</time></trkpt><trkpt lat="36.901854235906754" lon="-4.683634091908358"><ele>344.0</ele><time>2026-04-23T14:15:54Z</time></trkpt><trkpt lat="36.901970072157525" lon="-4.683724498089312"><ele>344.0</ele><time>2026-04-23T14:15:55Z</time></trkpt><trkpt lat="36.902078829285266" lon="-4.683850371107981"><ele>344.0</ele><time>2026-04-23T14:15:56Z</time></trkpt><trkpt lat="36.902176484705926" lon="-4.68400102306711"><ele>344.0</ele><time>2026-04-23T14:15:57Z</time></trkpt><trkpt lat="36.90226946461178" lon="-4.684165171568382"><ele>344.0</ele><time>2026-04-23T14:15:58Z</time></trkpt><trkpt lat="36.90237710769894" lon="-4.6843164719789065"><ele>344.0</ele><time>2026-04-23T14:15:59Z</time></trkpt><trkpt lat="36.9024826988092" lon="-4.68446332096822"><ele>344.0</ele><time>2026-04-23T14:16:00Z</time></trkpt><trkpt lat="36.902582507282915" lon="-4.684591139113161"><ele>344.75</ele><time>2026-04-23T14:16:01Z</time></trkpt><trkpt lat="36.90269226760021" lon="-4.684695529405519"><ele>345.5</ele><time>2026-04-23T14:16:02Z</time></trkpt><trkpt lat="36.90279342877346" lon="-4.6847660617587055"><ele>346.25</ele><time>2026-04-23T14:16:03Z</time></trkpt><trkpt lat="36.90287211797833" lon="-4.684847238353918"><ele>347.0</ele><time>2026-04-23T14:16:04Z</time></trkpt><trkpt lat="36.902914435884696" lon="-4.684961975806038"><ele>347.0</ele><time>2026-04-23T14:16:05Z</time></trkpt><trkpt lat="36.90292075309808" lon="-4.685102576677412"><ele>347.0</ele><time>2026-04-23T14:16:06Z</time></trkpt><trkpt lat="36.902879190714344" lon="-4.685251522371848"><ele>347.0</ele><time>2026-04-23T14:16:07Z</time></trkpt><trkpt lat="36.90282879529093" lon="-4.6853839309318435"><ele>347.0</ele><time>2026-04-23T14:16:08Z</time></trkpt><trkpt lat="36.902821771737095" lon="-4.6855097845908995"><ele>345.0</ele><time>2026-04-23T14:16:09Z</time></trkpt><trkpt lat="36.90286768474141" lon="-4.685617197601391"><ele>343.0</ele><time>2026-04-23T14:16:10Z</time></trkpt><trkpt lat="36.902959447921866" lon="-4.685698665607005"><ele>341.0</ele><time>2026-04-23T14:16:11Z</time></trkpt><trkpt lat="36.903065312002866" lon="-4.685746542390492"><ele>339.0</ele><time>2026-04-23T14:16:12Z</time></trkpt><trkpt lat="36.90313342769943" lon="-4.6858275188125065"><ele>337.0</ele><time>2026-04-23T14:16:13Z</time></trkpt><trkpt lat="36.9031491456667" lon="-4.685945240971529"><ele>337.0</ele><time>2026-04-23T14:16:14Z</time></trkpt><trkpt lat="36.90311511722037" lon="-4.68608208500242"><ele>337.0</ele><time>2026-04-23T14:16:15Z</time></trkpt><trkpt lat="36.90303460141339" lon="-4.686205396417173"><ele>337.0</ele><time>2026-04-23T14:16:16Z</time></trkpt><trkpt lat="36.902949612233854" lon="-4.686323068875727"><ele>337.0</ele><time>2026-04-23T14:16:17Z</time></trkpt><trkpt lat="36.902889752655554" lon="-4.686453420331084"><ele>336.75</ele><time>2026-04-23T14:16:18Z</time></trkpt><trkpt lat="36.90286693674669" lon="-4.686591233037693"><ele>336.5</ele><time>2026-04-23T14:16:19Z</time></trkpt><trkpt lat="36.90290319234207" lon="-4.6867244690604855"><ele>336.25</ele><time>2026-04-23T14:16:20Z</time></trkpt><trkpt lat="36.90298701416172" lon="-4.686843130781424"><ele>336.0</ele><time>2026-04-23T14:16:21Z</time></trkpt><trkpt lat="36.903081150877746" lon="-4.686947096300053"><ele>333.75</ele><time>2026-04-23T14:16:22Z</time></trkpt><trkpt lat="36.90314490555069" lon="-4.687058758740839"><ele>331.5</ele><time>2026-04-23T14:16:23Z</time></trkpt><trkpt lat="36.9031707771576" lon="-4.687207953166859"><ele>329.25</ele><time>2026-04-23T14:16:24Z</time></trkpt><trkpt lat="36.903163164947784" lon="-4.68738182137293"><ele>327.0</ele><time>2026-04-23T14:16:25Z</time></trkpt><trkpt lat="36.90315519953582" lon="-4.687560484283425"><ele>327.0</ele><time>2026-04-23T14:16:26Z</time></trkpt><trkpt lat="36.903174959784074" lon="-4.687726326729047"><ele>327.0</ele><time>2026-04-23T14:16:27Z</time></trkpt><trkpt lat="36.9032278736606" lon="-4.687863727025957"><ele>327.0</ele><time>2026-04-23T14:16:28Z</time></trkpt><trkpt lat="36.90329024397265" lon="-4.687971479611807"><ele>327.0</ele><time>2026-04-23T14:16:29Z</time></trkpt><trkpt lat="36.903308504278236" lon="-4.688077934773819"><ele>327.0</ele><time>2026-04-23T14:16:30Z</time></trkpt><trkpt lat="36.903279692493534" lon="-4.6882105540066"><ele>326.25</ele><time>2026-04-23T14:16:31Z</time></trkpt><trkpt lat="36.903217127817214" lon="-4.688352577404297"><ele>325.5</ele><time>2026-04-23T14:16:32Z</time></trkpt><trkpt lat="36.90317532709091" lon="-4.688510499536134"><ele>324.75</ele><time>2026-04-23T14:16:33Z</time></trkpt><trkpt lat="36.90316726733838" lon="-4.68868757396758"><ele>324.0</ele><time>2026-04-23T14:16:34Z</time></trkpt><trkpt lat="36.903188385450896" lon="-4.688871039619273"><ele>322.0</ele><time>2026-04-23T14:16:35Z</time></trkpt><trkpt lat="36.90321167008155" lon="-4.68904085611119"><ele>320.0</ele><time>2026-04-23T14:16:36Z</time></trkpt><trkpt lat="36.90323013434406" lon="-4.689186876472814"><ele>318.0</ele><time>2026-04-23T14:16:37Z</time></trkpt><trkpt lat="36.90324757254398" lon="-4.68930383152483"><ele>316.0</ele><time>2026-04-23T14:16:38Z</time></trkpt><trkpt lat="36.90326134772631" lon="-4.689399090763992"><ele>314.0</ele><time>2026-04-23T14:16:39Z</time></trkpt><trkpt lat="36.903284072882414" lon="-4.6895378605610105"><ele>313.0</ele><time>2026-04-23T14:16:41Z</time></trkpt><trkpt lat="36.90326622043529" lon="-4.68963213836136"><ele>312.0</ele><time>2026-04-23T14:16:43Z</time></trkpt><trkpt lat="36.903233703510374" lon="-4.689719556558544"><ele>311.0</ele><time>2026-04-23T14:16:45Z</time></trkpt><trkpt lat="36.90319806155218" lon="-4.689792962569043"><ele>310.0</ele><time>2026-04-23T14:16:47Z</time></trkpt><trkpt lat="36.9031554409359" lon="-4.689859817249112"><ele>309.0</ele><time>2026-04-23T14:16:49Z</time></trkpt><trkpt lat="36.90311838324876" lon="-4.689925392480406"><ele>308.0</ele><time>2026-04-23T14:17:20.999Z</time></trkpt><trkpt lat="36.90307698526127" lon="-4.690030536571327"><ele>308.0</ele><time>2026-04-23T14:17:24.999Z</time></trkpt><trkpt lat="36.90301809766213" lon="-4.69012069532833"><ele>308.0</ele><time>2026-04-23T14:17:25.999Z</time></trkpt><trkpt lat="36.90294919254764" lon="-4.690198133658331"><ele>308.0</ele><time>2026-04-23T14:17:26.999Z</time></trkpt><trkpt lat="36.90286458119075" lon="-4.690270650532724"><ele>308.0</ele><time>2026-04-23T14:17:27.999Z</time></trkpt><trkpt lat="36.90278117965999" lon="-4.690357662412909"><ele>308.0</ele><time>2026-04-23T14:17:28.999Z</time></trkpt><trkpt lat="36.902707198200844" lon="-4.690449878788277"><ele>307.6</ele><time>2026-04-23T14:17:29.999Z</time></trkpt><trkpt lat="36.90264689379109" lon="-4.690558949657826"><ele>307.20000000000005</ele><time>2026-04-23T14:17:30.999Z</time></trkpt><trkpt lat="36.90260053564778" lon="-4.6906654201788065"><ele>306.8</ele><time>2026-04-23T14:17:31.999Z</time></trkpt><trkpt lat="36.90256731752443" lon="-4.690779464694831"><ele>306.40000000000003</ele><time>2026-04-23T14:17:32.999Z</time></trkpt><trkpt lat="36.90254768641583" lon="-4.690888308707989"><ele>306.0</ele><time>2026-04-23T14:17:33.999Z</time></trkpt><trkpt lat="36.9025390825951" lon="-4.690988211616366"><ele>305.1666666666667</ele><time>2026-04-23T14:17:34.999Z</time></trkpt><trkpt lat="36.90255498762308" lon="-4.691091702910026"><ele>304.3333333333333</ele><time>2026-04-23T14:17:35.999Z</time></trkpt><trkpt lat="36.90258032668866" lon="-4.691195477146974"><ele>303.5</ele><time>2026-04-23T14:17:36.999Z</time></trkpt><trkpt lat="36.902607278067116" lon="-4.691282044596875"><ele>302.66666666666663</ele><time>2026-04-23T14:17:37.999Z</time></trkpt><trkpt lat="36.90261867946487" lon="-4.6913979602371585"><ele>301.8333333333333</ele><time>2026-04-23T14:17:38.999Z</time></trkpt><trkpt lat="36.90260364833986" lon="-4.691520081653034"><ele>301.0</ele><time>2026-04-23T14:17:39.999Z</time></trkpt><trkpt lat="36.90257554085268" lon="-4.691652654534948"><ele>301.0</ele><time>2026-04-23T14:17:40.999Z</time></trkpt><trkpt lat="36.902544295644226" lon="-4.6917756843119705"><ele>301.0</ele><time>2026-04-23T14:17:41.999Z</time></trkpt><trkpt lat="36.9025243807569" lon="-4.691890035515498"><ele>301.0</ele><time>2026-04-23T14:17:42.999Z</time></trkpt><trkpt lat="36.902515478019154" lon="-4.691994941319624"><ele>301.0</ele><time>2026-04-23T14:17:43.999Z</time></trkpt><trkpt lat="36.902508706006934" lon="-4.692100719883157"><ele>301.0</ele><time>2026-04-23T14:17:44.999Z</time></trkpt><trkpt lat="36.902504469819675" lon="-4.69220819497464"><ele>300.16666666666663</ele><time>2026-04-23T14:17:45.999Z</time></trkpt><trkpt lat="36.90251021318713" lon="-4.692316102320934"><ele>299.3333333333333</ele><time>2026-04-23T14:17:46.999Z</time></trkpt><trkpt lat="36.902516113795336" lon="-4.692432326386877"><ele>298.5</ele><time>2026-04-23T14:17:47.999Z</time></trkpt><trkpt lat="36.902505358898814" lon="-4.692547296188595"><ele>297.6666666666667</ele><time>2026-04-23T14:17:48.999Z</time></trkpt><trkpt lat="36.90248402185406" lon="-4.6926444028238725"><ele>296.83333333333337</ele><time>2026-04-23T14:17:49.999Z</time></trkpt><trkpt lat="36.90245559343815" lon="-4.692721302022837"><ele>296.0</ele><time>2026-04-23T14:17:50.999Z</time></trkpt><trkpt lat="36.90242374317252" lon="-4.692812690211174"><ele>294.2</ele><time>2026-04-23T14:17:52Z</time></trkpt><trkpt lat="36.90233955149922" lon="-4.6928837498002505"><ele>292.40000000000003</ele><time>2026-04-23T14:17:53Z</time></trkpt><trkpt lat="36.90228358662123" lon="-4.69298538296704"><ele>290.6</ele><time>2026-04-23T14:17:54Z</time></trkpt><trkpt lat="36.90222609591723" lon="-4.6930679397068324"><ele>288.8</ele><time>2026-04-23T14:17:55Z</time></trkpt><trkpt lat="36.90218138641636" lon="-4.693169645322625"><ele>287.0</ele><time>2026-04-23T14:17:56Z</time></trkpt><trkpt lat="36.902137726866165" lon="-4.6932831528354475"><ele>287.0</ele><time>2026-04-23T14:17:57Z</time></trkpt><trkpt lat="36.90208879153174" lon="-4.693404925228524"><ele>287.0</ele><time>2026-04-23T14:17:58Z</time></trkpt><trkpt lat="36.902074662948074" lon="-4.693527052906263"><ele>287.0</ele><time>2026-04-23T14:17:59Z</time></trkpt><trkpt lat="36.90207550665878" lon="-4.693643269447001"><ele>287.0</ele><time>2026-04-23T14:18:00Z</time></trkpt><trkpt lat="36.902076043729934" lon="-4.693754426621703"><ele>287.0</ele><time>2026-04-23T14:18:01Z</time></trkpt><trkpt lat="36.902061577590054" lon="-4.69386087590185"><ele>285.83333333333337</ele><time>2026-04-23T14:18:02Z</time></trkpt><trkpt lat="36.90203632623917" lon="-4.693943254099023"><ele>284.6666666666667</ele><time>2026-04-23T14:18:03Z</time></trkpt><trkpt lat="36.90196205478143" lon="-4.694016813776822"><ele>283.5</ele><time>2026-04-23T14:18:04Z</time></trkpt><trkpt lat="36.90190398724785" lon="-4.694073891104115"><ele>282.3333333333333</ele><time>2026-04-23T14:18:05Z</time></trkpt><trkpt lat="36.90184354599756" lon="-4.694160063262438"><ele>281.16666666666663</ele><time>2026-04-23T14:18:06Z</time></trkpt><trkpt lat="36.9017877441582" lon="-4.6942456950335805"><ele>280.0</ele><time>2026-04-23T14:18:07Z</time></trkpt><trkpt lat="36.90173990181626" lon="-4.6943463122886575"><ele>280.0</ele><time>2026-04-23T14:18:08Z</time></trkpt><trkpt lat="36.90170492798653" lon="-4.694467244165235"><ele>280.0</ele><time>2026-04-23T14:18:09Z</time></trkpt><trkpt lat="36.90166459577206" lon="-4.69458429715804"><ele>280.0</ele><time>2026-04-23T14:18:10Z</time></trkpt><trkpt lat="36.90159333601507" lon="-4.694677503690228"><ele>280.0</ele><time>2026-04-23T14:18:11Z</time></trkpt><trkpt lat="36.90150207464176" lon="-4.694760223579775"><ele>280.0</ele><time>2026-04-23T14:18:12Z</time></trkpt><trkpt lat="36.90140288352721" lon="-4.694856663843906"><ele>280.0</ele><time>2026-04-23T14:18:13Z</time></trkpt><trkpt lat="36.90130684063433" lon="-4.6949693728963595"><ele>280.0</ele><time>2026-04-23T14:18:14Z</time></trkpt><trkpt lat="36.901210167889126" lon="-4.695071411552693"><ele>280.0</ele><time>2026-04-23T14:18:15Z</time></trkpt><trkpt lat="36.90112550060043" lon="-4.695151105800122"><ele>280.0</ele><time>2026-04-23T14:18:16Z</time></trkpt><trkpt lat="36.901044159287274" lon="-4.6952076177541"><ele>279.8</ele><time>2026-04-23T14:18:17Z</time></trkpt><trkpt lat="36.900984202864244" lon="-4.695277342104749"><ele>279.6</ele><time>2026-04-23T14:18:18Z</time></trkpt><trkpt lat="36.9009146242213" lon="-4.695343945276064"><ele>279.4</ele><time>2026-04-23T14:18:19Z</time></trkpt><trkpt lat="36.90087882517284" lon="-4.695456627938452"><ele>279.2</ele><time>2026-04-23T14:18:20Z</time></trkpt><trkpt lat="36.900826436170654" lon="-4.695561653799105"><ele>279.0</ele><time>2026-04-23T14:18:21Z</time></trkpt><trkpt lat="36.9007915705317" lon="-4.6956891917964025"><ele>279.0</ele><time>2026-04-23T14:18:22Z</time></trkpt><trkpt lat="36.90075249751836" lon="-4.695812938251433"><ele>279.0</ele><time>2026-04-23T14:18:23Z</time></trkpt><trkpt lat="36.900714439708" lon="-4.695920659435996"><ele>279.0</ele><time>2026-04-23T14:18:24Z</time></trkpt><trkpt lat="36.90068506877612" lon="-4.696021004476261"><ele>279.0</ele><time>2026-04-23T14:18:25Z</time></trkpt><trkpt lat="36.900629499481916" lon="-4.696105108082179"><ele>279.0</ele><time>2026-04-23T14:18:26Z</time></trkpt><trkpt lat="36.9005646980366" lon="-4.69618017657273"><ele>280.8333333333333</ele><time>2026-04-23T14:18:27Z</time></trkpt><trkpt lat="36.90048956205397" lon="-4.696247574312898"><ele>282.6666666666667</ele><time>2026-04-23T14:18:28Z</time></trkpt><trkpt lat="36.90041278529793" lon="-4.696293992309215"><ele>284.5</ele><time>2026-04-23T14:18:29Z</time></trkpt><trkpt lat="36.90033653801026" lon="-4.696333283723816"><ele>286.33333333333337</ele><time>2026-04-23T14:18:30Z</time></trkpt><trkpt lat="36.90026180988992" lon="-4.696359728851347"><ele>288.1666666666667</ele><time>2026-04-23T14:18:31Z</time></trkpt><trkpt lat="36.90018437535989" lon="-4.696398129118533"><ele>290.0</ele><time>2026-04-23T14:18:32Z</time></trkpt><trkpt lat="36.90009117615428" lon="-4.696369700701134"><ele>287.33333333333337</ele><time>2026-04-23T14:18:33Z</time></trkpt><trkpt lat="36.89998507869704" lon="-4.6963266219438164"><ele>284.6666666666667</ele><time>2026-04-23T14:18:34Z</time></trkpt><trkpt lat="36.89988902789897" lon="-4.696287060748501"><ele>282.0</ele><time>2026-04-23T14:18:35Z</time></trkpt><trkpt lat="36.899810504398445" lon="-4.696258755395859"><ele>279.3333333333333</ele><time>2026-04-23T14:18:36Z</time></trkpt><trkpt lat="36.89974385047151" lon="-4.696262454595345"><ele>276.66666666666663</ele><time>2026-04-23T14:18:37Z</time></trkpt><trkpt lat="36.899672923543" lon="-4.696297474564435"><ele>274.0</ele><time>2026-04-23T14:18:38Z</time></trkpt><trkpt lat="36.89957670540591" lon="-4.696340447511788"><ele>274.0</ele><time>2026-04-23T14:18:39Z</time></trkpt><trkpt lat="36.89948753664236" lon="-4.6963652087555126"><ele>274.0</ele><time>2026-04-23T14:18:40Z</time></trkpt><trkpt lat="36.89940246171356" lon="-4.696339350553365"><ele>274.0</ele><time>2026-04-23T14:18:41Z</time></trkpt><trkpt lat="36.89934078151434" lon="-4.696387393419645"><ele>274.0</ele><time>2026-04-23T14:18:42Z</time></trkpt><trkpt lat="36.8992879858986" lon="-4.696439329147794"><ele>274.0</ele><time>2026-04-23T14:18:43Z</time></trkpt><trkpt lat="36.899273305544696" lon="-4.6965506273473725"><ele>274.0</ele><time>2026-04-23T14:18:44Z</time></trkpt><trkpt lat="36.89922902639058" lon="-4.69666068938196"><ele>270.66666666666663</ele><time>2026-04-23T14:18:45Z</time></trkpt><trkpt lat="36.89919477305461" lon="-4.696770879852545"><ele>267.3333333333333</ele><time>2026-04-23T14:18:46Z</time></trkpt><trkpt lat="36.89915987392768" lon="-4.696854725972414"><ele>264.0</ele><time>2026-04-23T14:18:47Z</time></trkpt><trkpt lat="36.89912170648785" lon="-4.696921873900142"><ele>260.6666666666667</ele><time>2026-04-23T14:18:48Z</time></trkpt><trkpt lat="36.89904747312071" lon="-4.697028790900523"><ele>257.33333333333337</ele><time>2026-04-23T14:18:50Z</time></trkpt><trkpt lat="36.898975372126515" lon="-4.697048445897881"><ele>254.0</ele><time>2026-04-23T14:18:51Z</time></trkpt><trkpt lat="36.89889235049939" lon="-4.69704742819544"><ele>253.79999999999998</ele><time>2026-04-23T14:18:52Z</time></trkpt><trkpt lat="36.8988198265023" lon="-4.697065014212083"><ele>253.59999999999997</ele><time>2026-04-23T14:18:53Z</time></trkpt><trkpt lat="36.89872574631163" lon="-4.697107161051279"><ele>253.4</ele><time>2026-04-23T14:18:55Z</time></trkpt><trkpt lat="36.898665947497825" lon="-4.697249634693115"><ele>253.2</ele><time>2026-04-23T14:18:57Z</time></trkpt><trkpt lat="36.89867110423441" lon="-4.697355612408096"><ele>253.0</ele><time>2026-04-23T14:18:58Z</time></trkpt><trkpt lat="36.89869302010401" lon="-4.697469826190671"><ele>252.99999999999997</ele><time>2026-04-23T14:18:59Z</time></trkpt><trkpt lat="36.89871811368557" lon="-4.6975647932842355"><ele>253.0</ele><time>2026-04-23T14:19:00Z</time></trkpt><trkpt lat="36.89874672605862" lon="-4.697662224903909"><ele>253.0</ele><time>2026-04-23T14:19:01Z</time></trkpt><trkpt lat="36.898758385898674" lon="-4.697748465691374"><ele>253.0</ele><time>2026-04-23T14:19:02Z</time></trkpt><trkpt lat="36.89874742038721" lon="-4.697836598394769"><ele>252.99999999999997</ele><time>2026-04-23T14:19:03Z</time></trkpt><trkpt lat="36.89871876690114" lon="-4.697937643210077"><ele>253.0</ele><time>2026-04-23T14:19:04Z</time></trkpt><trkpt lat="36.898687332436694" lon="-4.6980393053849125"><ele>250.99999999999997</ele><time>2026-04-23T14:19:05Z</time></trkpt><trkpt lat="36.89864511090664" lon="-4.698134627874755"><ele>249.0</ele><time>2026-04-23T14:19:06Z</time></trkpt><trkpt lat="36.89859987622475" lon="-4.6982235664710315"><ele>247.0</ele><time>2026-04-23T14:19:07Z</time></trkpt><trkpt lat="36.898559444904414" lon="-4.698324663823321"><ele>245.0</ele><time>2026-04-23T14:19:08Z</time></trkpt><trkpt lat="36.898509203679495" lon="-4.698420267261793"><ele>242.99999999999997</ele><time>2026-04-23T14:19:09Z</time></trkpt><trkpt lat="36.898465475571356" lon="-4.698516410430794"><ele>241.0</ele><time>2026-04-23T14:19:10Z</time></trkpt><trkpt lat="36.898426280330746" lon="-4.698602931938321"><ele>237.0</ele><time>2026-04-23T14:19:11Z</time></trkpt><trkpt lat="36.898391373563534" lon="-4.698694131767183"><ele>233.00000000000003</ele><time>2026-04-23T14:19:12Z</time></trkpt><trkpt lat="36.89838872338479" lon="-4.698782550829616"><ele>229.0</ele><time>2026-04-23T14:19:13Z</time></trkpt><trkpt lat="36.89838524559488" lon="-4.698870556269754"><ele>225.0</ele><time>2026-04-23T14:19:14Z</time></trkpt><trkpt lat="36.89836713632368" lon="-4.698960710993613"><ele>221.0</ele><time>2026-04-23T14:19:15Z</time></trkpt><trkpt lat="36.89834655301637" lon="-4.699051140960188"><ele>217.0</ele><time>2026-04-23T14:19:16Z</time></trkpt><trkpt lat="36.898318930421205" lon="-4.699140861295291"><ele>213.0</ele><time>2026-04-23T14:19:17Z</time></trkpt><trkpt lat="36.89829243441064" lon="-4.699229356847487"><ele>213.0</ele><time>2026-04-23T14:19:18Z</time></trkpt><trkpt lat="36.89826173274733" lon="-4.69931534672192"><ele>213.0</ele><time>2026-04-23T14:19:19Z</time></trkpt><trkpt lat="36.89822221022614" lon="-4.699402157904074"><ele>213.0</ele><time>2026-04-23T14:19:20Z</time></trkpt><trkpt lat="36.89819965456232" lon="-4.69951203546894"><ele>213.0</ele><time>2026-04-23T14:19:21Z</time></trkpt><trkpt lat="36.89815877978408" lon="-4.699618518026852"><ele>213.0</ele><time>2026-04-23T14:19:22Z</time></trkpt><trkpt lat="36.898148583021204" lon="-4.699718586177873"><ele>213.0</ele><time>2026-04-23T14:19:23Z</time></trkpt><trkpt lat="36.89813549475796" lon="-4.699835175508091"><ele>211.33333333333334</ele><time>2026-04-23T14:19:24Z</time></trkpt><trkpt lat="36.898112086447725" lon="-4.699931196581475"><ele>209.66666666666669</ele><time>2026-04-23T14:19:25Z</time></trkpt><trkpt lat="36.89810484986339" lon="-4.700017823946471"><ele>208.0</ele><time>2026-04-23T14:19:26Z</time></trkpt><trkpt lat="36.89806354807882" lon="-4.700097704359227"><ele>206.33333333333334</ele><time>2026-04-23T14:19:27Z</time></trkpt><trkpt lat="36.897998121054066" lon="-4.700150863298294"><ele>204.66666666666669</ele><time>2026-04-23T14:19:28Z</time></trkpt><trkpt lat="36.89790836782584" lon="-4.700191749223353"><ele>203.0</ele><time>2026-04-23T14:19:29Z</time></trkpt><trkpt lat="36.89783519932855" lon="-4.700265101949675"><ele>201.66666666666669</ele><time>2026-04-23T14:19:30Z</time></trkpt><trkpt lat="36.89776900334711" lon="-4.700358166114998"><ele>200.33333333333334</ele><time>2026-04-23T14:19:31Z</time></trkpt><trkpt lat="36.89771158347716" lon="-4.700438351690881"><ele>199.0</ele><time>2026-04-23T14:19:32Z</time></trkpt><trkpt lat="36.89767756453798" lon="-4.700531426350626"><ele>197.66666666666669</ele><time>2026-04-23T14:19:33Z</time></trkpt><trkpt lat="36.897642094259" lon="-4.700630713378103"><ele>196.33333333333334</ele><time>2026-04-23T14:19:34Z</time></trkpt><trkpt lat="36.89761744611964" lon="-4.7007214120203855"><ele>195.0</ele><time>2026-04-23T14:19:35Z</time></trkpt><trkpt lat="36.89760318015672" lon="-4.700804662419912"><ele>195.0</ele><time>2026-04-23T14:19:36Z</time></trkpt><trkpt lat="36.89759801606802" lon="-4.700888642052305"><ele>195.0</ele><time>2026-04-23T14:19:37Z</time></trkpt><trkpt lat="36.897600345789456" lon="-4.700979925859558"><ele>195.0</ele><time>2026-04-23T14:19:38Z</time></trkpt><trkpt lat="36.8976101740315" lon="-4.7010715421572655"><ele>195.0</ele><time>2026-04-23T14:19:39Z</time></trkpt><trkpt lat="36.897624084984244" lon="-4.701166233220745"><ele>195.0</ele><time>2026-04-23T14:19:40Z</time></trkpt><trkpt lat="36.89764467609079" lon="-4.70126082804254"><ele>195.0</ele><time>2026-04-23T14:19:41Z</time></trkpt><trkpt lat="36.89766082517356" lon="-4.701349790316317"><ele>195.0</ele><time>2026-04-23T14:19:42Z</time></trkpt><trkpt lat="36.8976741936078" lon="-4.701429379822854"><ele>194.0</ele><time>2026-04-23T14:19:43Z</time></trkpt><trkpt lat="36.89769732918128" lon="-4.70155022739483"><ele>193.0</ele><time>2026-04-23T14:19:45Z</time></trkpt><trkpt lat="36.897748752223904" lon="-4.701643613153752"><ele>192.0</ele><time>2026-04-23T14:19:47Z</time></trkpt><trkpt lat="36.897804980383" lon="-4.70169671676715"><ele>191.0</ele><time>2026-04-23T14:19:49Z</time></trkpt><trkpt lat="36.89782576379257" lon="-4.701798022088813"><ele>190.0</ele><time>2026-04-23T14:19:52Z</time></trkpt><trkpt lat="36.897742932232795" lon="-4.701841172765159"><ele>189.0</ele><time>2026-04-23T14:19:56Z</time></trkpt><trkpt lat="36.89765712111115" lon="-4.701899538625431"><ele>189.16666666666666</ele><time>2026-04-23T14:22:03.001Z</time></trkpt><trkpt lat="36.89758932946634" lon="-4.7019778388341935"><ele>189.33333333333334</ele><time>2026-04-23T14:22:05.001Z</time></trkpt><trkpt lat="36.897507496425455" lon="-4.7020704774557105"><ele>189.5</ele><time>2026-04-23T14:22:07.001Z</time></trkpt><trkpt lat="36.897438395382686" lon="-4.702141472835342"><ele>189.66666666666669</ele><time>2026-04-23T14:22:09.001Z</time></trkpt><trkpt lat="36.89738229509914" lon="-4.702179526696882"><ele>189.83333333333334</ele><time>2026-04-23T14:22:11.001Z</time></trkpt><trkpt lat="36.897325929191894" lon="-4.702247226308773"><ele>190.0</ele><time>2026-04-23T14:22:13.001Z</time></trkpt><trkpt lat="36.89728346558544" lon="-4.702353558278995"><ele>190.0</ele><time>2026-04-23T14:22:15.001Z</time></trkpt><trkpt lat="36.8972346706635" lon="-4.702452715692735"><ele>190.0</ele><time>2026-04-23T14:22:17.001Z</time></trkpt><trkpt lat="36.897174049754824" lon="-4.702547191187407"><ele>190.0</ele><time>2026-04-23T14:22:19.001Z</time></trkpt><trkpt lat="36.89712544268672" lon="-4.702624485353193"><ele>190.0</ele><time>2026-04-23T14:22:21.001Z</time></trkpt><trkpt lat="36.897084104111734" lon="-4.702716193524003"><ele>190.0</ele><time>2026-04-23T14:22:23.001Z</time></trkpt><trkpt lat="36.89709221025032" lon="-4.702856152347538"><ele>189.8</ele><time>2026-04-23T14:22:25Z</time></trkpt><trkpt lat="36.897055771661776" lon="-4.702978512992744"><ele>189.6</ele><time>2026-04-23T14:22:27Z</time></trkpt><trkpt lat="36.89697228764247" lon="-4.702998902431737"><ele>189.39999999999998</ele><time>2026-04-23T14:22:29Z</time></trkpt><trkpt lat="36.89687398109739" lon="-4.703007308364766"><ele>189.2</ele><time>2026-04-23T14:22:31Z</time></trkpt><trkpt lat="36.896788248597865" lon="-4.703042860467093"><ele>189.0</ele><time>2026-04-23T14:22:33Z</time></trkpt><trkpt lat="36.896685947873515" lon="-4.703083471017882"><ele>189.0</ele><time>2026-04-23T14:22:35Z</time></trkpt><trkpt lat="36.89656916942937" lon="-4.703127353685765"><ele>189.0</ele><time>2026-04-23T14:22:37Z</time></trkpt><trkpt lat="36.89650702732208" lon="-4.703168683459053"><ele>189.0</ele><time>2026-04-23T14:22:38Z</time></trkpt><trkpt lat="36.896448616329494" lon="-4.703220151079256"><ele>189.0</ele><time>2026-04-23T14:22:39Z</time></trkpt><trkpt lat="36.89639134634686" lon="-4.703263021252214"><ele>189.0</ele><time>2026-04-23T14:22:40Z</time></trkpt><trkpt lat="36.89632188319935" lon="-4.703318576620446"><ele>189.0</ele><time>2026-04-23T14:22:41Z</time></trkpt><trkpt lat="36.896262166889954" lon="-4.703369533056146"><ele>189.0</ele><time>2026-04-23T14:22:42Z</time></trkpt><trkpt lat="36.896198802536986" lon="-4.703417301652343"><ele>189.0</ele><time>2026-04-23T14:22:43Z</time></trkpt><trkpt lat="36.89613659734893" lon="-4.703463697130559"><ele>189.0</ele><time>2026-04-23T14:22:44Z</time></trkpt><trkpt lat="36.896070374904404" lon="-4.703527264639362"><ele>189.0</ele><time>2026-04-23T14:22:45Z</time></trkpt><trkpt lat="36.896005735218345" lon="-4.703585036772788"><ele>189.0</ele><time>2026-04-23T14:22:46Z</time></trkpt><trkpt lat="36.895939584760136" lon="-4.7036567600527235"><ele>189.0</ele><time>2026-04-23T14:22:47Z</time></trkpt><trkpt lat="36.89587945800223" lon="-4.703732560451196"><ele>187.79999999999998</ele><time>2026-04-23T14:22:48Z</time></trkpt><trkpt lat="36.8958252226848" lon="-4.703811749463069"><ele>186.6</ele><time>2026-04-23T14:22:49Z</time></trkpt><trkpt lat="36.895792403285625" lon="-4.703920452047556"><ele>185.4</ele><time>2026-04-23T14:22:50Z</time></trkpt><trkpt lat="36.89577020315492" lon="-4.7040159263872035"><ele>184.2</ele><time>2026-04-23T14:22:51Z</time></trkpt><trkpt lat="36.895671251512674" lon="-4.704101959457406"><ele>183.0</ele><time>2026-04-23T14:22:52Z</time></trkpt><trkpt lat="36.89562034451028" lon="-4.704210120685616"><ele>183.0</ele><time>2026-04-23T14:22:53Z</time></trkpt><trkpt lat="36.89557619462498" lon="-4.704322048589208"><ele>183.0</ele><time>2026-04-23T14:22:54Z</time></trkpt><trkpt lat="36.89553011322403" lon="-4.704423076668096"><ele>183.0</ele><time>2026-04-23T14:22:55Z</time></trkpt><trkpt lat="36.895476033907194" lon="-4.704530396451241"><ele>183.0</ele><time>2026-04-23T14:22:56Z</time></trkpt><trkpt lat="36.89543071005926" lon="-4.704629224639749"><ele>183.0</ele><time>2026-04-23T14:22:57Z</time></trkpt><trkpt lat="36.89538373985137" lon="-4.704729917063019"><ele>183.60000000000002</ele><time>2026-04-23T14:22:58Z</time></trkpt><trkpt lat="36.89534109507445" lon="-4.704839742100821"><ele>184.20000000000002</ele><time>2026-04-23T14:22:59Z</time></trkpt><trkpt lat="36.895300725563175" lon="-4.704949361071721"><ele>184.8</ele><time>2026-04-23T14:23:00Z</time></trkpt><trkpt lat="36.89525765311208" lon="-4.705059560266336"><ele>185.4</ele><time>2026-04-23T14:23:01Z</time></trkpt><trkpt lat="36.89521463456843" lon="-4.705170024015232"><ele>186.0</ele><time>2026-04-23T14:23:02Z</time></trkpt><trkpt lat="36.89516741315123" lon="-4.705277186383509"><ele>185.33333333333334</ele><time>2026-04-23T14:23:03Z</time></trkpt><trkpt lat="36.89511879372712" lon="-4.7053757522855335"><ele>184.66666666666666</ele><time>2026-04-23T14:23:04Z</time></trkpt><trkpt lat="36.89506197349066" lon="-4.7054625172071525"><ele>184.0</ele><time>2026-04-23T14:23:05Z</time></trkpt><trkpt lat="36.89500869830309" lon="-4.705535210411803"><ele>183.33333333333331</ele><time>2026-04-23T14:23:06Z</time></trkpt><trkpt lat="36.894961360082355" lon="-4.705595118736201"><ele>182.66666666666666</ele><time>2026-04-23T14:23:07Z</time></trkpt><trkpt lat="36.89490394050406" lon="-4.7056539201961565"><ele>182.0</ele><time>2026-04-23T14:23:08Z</time></trkpt><trkpt lat="36.89484942315968" lon="-4.705707574114236"><ele>182.0</ele><time>2026-04-23T14:23:09Z</time></trkpt><trkpt lat="36.89480157146643" lon="-4.705761121772815"><ele>182.0</ele><time>2026-04-23T14:23:10Z</time></trkpt><trkpt lat="36.89475386032127" lon="-4.705820546535966"><ele>182.0</ele><time>2026-04-23T14:23:11Z</time></trkpt><trkpt lat="36.894708189580555" lon="-4.7058838529709"><ele>182.0</ele><time>2026-04-23T14:23:12Z</time></trkpt><trkpt lat="36.89466107193335" lon="-4.705945393134735"><ele>182.0</ele><time>2026-04-23T14:23:13Z</time></trkpt><trkpt lat="36.89460568774812" lon="-4.7060149414195624"><ele>182.0</ele><time>2026-04-23T14:23:14Z</time></trkpt><trkpt lat="36.89455104727914" lon="-4.7060795220276965"><ele>182.0</ele><time>2026-04-23T14:23:15Z</time></trkpt><trkpt lat="36.89448176286044" lon="-4.706120940718755"><ele>182.33333333333331</ele><time>2026-04-23T14:23:16Z</time></trkpt><trkpt lat="36.894401821500814" lon="-4.7061462286869284"><ele>182.66666666666666</ele><time>2026-04-23T14:23:17Z</time></trkpt><trkpt lat="36.89431459403269" lon="-4.706168985254743"><ele>183.0</ele><time>2026-04-23T14:23:18Z</time></trkpt><trkpt lat="36.89422366218362" lon="-4.706177331038363"><ele>183.33333333333334</ele><time>2026-04-23T14:23:19Z</time></trkpt><trkpt lat="36.89414450420013" lon="-4.70617351728376"><ele>183.66666666666669</ele><time>2026-04-23T14:23:20Z</time></trkpt><trkpt lat="36.894051005352196" lon="-4.706165507223744"><ele>184.0</ele><time>2026-04-23T14:23:21Z</time></trkpt><trkpt lat="36.893966381357444" lon="-4.706155883995972"><ele>184.0</ele><time>2026-04-23T14:23:22Z</time></trkpt><trkpt lat="36.893868854394945" lon="-4.70614204640066"><ele>184.0</ele><time>2026-04-23T14:23:23Z</time></trkpt><trkpt lat="36.89376953972097" lon="-4.706143898000424"><ele>184.0</ele><time>2026-04-23T14:23:24Z</time></trkpt><trkpt lat="36.89367744823978" lon="-4.706170884668135"><ele>184.0</ele><time>2026-04-23T14:23:25Z</time></trkpt><trkpt lat="36.89358876614179" lon="-4.706212451296501"><ele>184.0</ele><time>2026-04-23T14:23:26Z</time></trkpt><trkpt lat="36.893493325561664" lon="-4.706232287243165"><ele>183.2</ele><time>2026-04-23T14:23:27Z</time></trkpt><trkpt lat="36.89340252517492" lon="-4.70624043230731"><ele>182.39999999999998</ele><time>2026-04-23T14:23:28Z</time></trkpt><trkpt lat="36.89331490741826" lon="-4.706269729401803"><ele>181.6</ele><time>2026-04-23T14:23:29Z</time></trkpt><trkpt lat="36.89323423602565" lon="-4.706324505064706"><ele>180.8</ele><time>2026-04-23T14:23:30Z</time></trkpt><trkpt lat="36.89315744289714" lon="-4.706398954747669"><ele>180.0</ele><time>2026-04-23T14:23:31Z</time></trkpt><trkpt lat="36.8930812458137" lon="-4.706486712395567"><ele>180.0</ele><time>2026-04-23T14:23:32Z</time></trkpt><trkpt lat="36.89300828199531" lon="-4.706576283465882"><ele>180.0</ele><time>2026-04-23T14:23:33Z</time></trkpt><trkpt lat="36.89293529202351" lon="-4.70667069440135"><ele>180.0</ele><time>2026-04-23T14:23:34Z</time></trkpt><trkpt lat="36.892862610400016" lon="-4.706776679278205"><ele>180.0</ele><time>2026-04-23T14:23:35Z</time></trkpt><trkpt lat="36.892788068077124" lon="-4.706872527012383"><ele>180.0</ele><time>2026-04-23T14:23:36Z</time></trkpt><trkpt lat="36.89270550261753" lon="-4.706966164345117"><ele>179.8</ele><time>2026-04-23T14:23:37Z</time></trkpt><trkpt lat="36.89262271077809" lon="-4.7070511048122645"><ele>179.6</ele><time>2026-04-23T14:23:38Z</time></trkpt><trkpt lat="36.892549367871396" lon="-4.707129094444653"><ele>179.39999999999998</ele><time>2026-04-23T14:23:39Z</time></trkpt><trkpt lat="36.89247952789222" lon="-4.707205166086209"><ele>179.2</ele><time>2026-04-23T14:23:40Z</time></trkpt><trkpt lat="36.89240259703441" lon="-4.707272763257037"><ele>179.0</ele><time>2026-04-23T14:23:41Z</time></trkpt><trkpt lat="36.89232092182329" lon="-4.707316865763513"><ele>179.0</ele><time>2026-04-23T14:23:42Z</time></trkpt><trkpt lat="36.892231564836706" lon="-4.707337120456175"><ele>179.0</ele><time>2026-04-23T14:23:43Z</time></trkpt><trkpt lat="36.892138098103345" lon="-4.707353946346976"><ele>179.0</ele><time>2026-04-23T14:23:44Z</time></trkpt><trkpt lat="36.89204383238552" lon="-4.707375737513696"><ele>179.0</ele><time>2026-04-23T14:23:45Z</time></trkpt><trkpt lat="36.89195449312659" lon="-4.7073890960260805"><ele>179.0</ele><time>2026-04-23T14:23:46Z</time></trkpt><trkpt lat="36.891879070779176" lon="-4.707379544752766"><ele>179.0</ele><time>2026-04-23T14:23:47Z</time></trkpt><trkpt lat="36.891796330420966" lon="-4.7073615698668165"><ele>178.66666666666666</ele><time>2026-04-23T14:23:48Z</time></trkpt><trkpt lat="36.891722919622644" lon="-4.707313736881268"><ele>178.33333333333331</ele><time>2026-04-23T14:23:49Z</time></trkpt><trkpt lat="36.891654596620654" lon="-4.707239791996645"><ele>178.0</ele><time>2026-04-23T14:23:50Z</time></trkpt><trkpt lat="36.89159677471274" lon="-4.707142562560322"><ele>177.66666666666666</ele><time>2026-04-23T14:23:51Z</time></trkpt><trkpt lat="36.89153261673031" lon="-4.707069572999054"><ele>177.33333333333334</ele><time>2026-04-23T14:23:52Z</time></trkpt><trkpt lat="36.891451886594844" lon="-4.707028425495314"><ele>177.0</ele><time>2026-04-23T14:23:53Z</time></trkpt><trkpt lat="36.89136095719783" lon="-4.707027093511395"><ele>177.0</ele><time>2026-04-23T14:23:54Z</time></trkpt><trkpt lat="36.89127222025197" lon="-4.707044452911124"><ele>177.0</ele><time>2026-04-23T14:23:55Z</time></trkpt><trkpt lat="36.89119148805133" lon="-4.707068480256149"><ele>177.0</ele><time>2026-04-23T14:23:56Z</time></trkpt><trkpt lat="36.89112443810198" lon="-4.70715214988071"><ele>177.0</ele><time>2026-04-23T14:23:57Z</time></trkpt><trkpt lat="36.89103461836356" lon="-4.707183656641699"><ele>177.0</ele><time>2026-04-23T14:23:58Z</time></trkpt><trkpt lat="36.8909372204836" lon="-4.707202515024147"><ele>177.2</ele><time>2026-04-23T14:23:59Z</time></trkpt><trkpt lat="36.89086129449454" lon="-4.707275952185841"><ele>177.39999999999998</ele><time>2026-04-23T14:24:00Z</time></trkpt><trkpt lat="36.89077472810556" lon="-4.707331345400123"><ele>177.60000000000002</ele><time>2026-04-23T14:24:01Z</time></trkpt><trkpt lat="36.89068607862236" lon="-4.707362796238856"><ele>177.8</ele><time>2026-04-23T14:24:02Z</time></trkpt><trkpt lat="36.890591534588935" lon="-4.707418321809017"><ele>178.0</ele><time>2026-04-23T14:24:03Z</time></trkpt><trkpt lat="36.8905013747918" lon="-4.707473030535621"><ele>178.0</ele><time>2026-04-23T14:24:04Z</time></trkpt><trkpt lat="36.89040963615175" lon="-4.707523101526171"><ele>178.0</ele><time>2026-04-23T14:24:05Z</time></trkpt><trkpt lat="36.89031515279555" lon="-4.707568329139737"><ele>178.0</ele><time>2026-04-23T14:24:06Z</time></trkpt><trkpt lat="36.89022286813186" lon="-4.707625547204989"><ele>178.0</ele><time>2026-04-23T14:24:07Z</time></trkpt><trkpt lat="36.89013037751056" lon="-4.707687845585062"><ele>178.0</ele><time>2026-04-23T14:24:08Z</time></trkpt><trkpt lat="36.890035671223906" lon="-4.707731986267145"><ele>177.8</ele><time>2026-04-23T14:24:09Z</time></trkpt><trkpt lat="36.88994005696919" lon="-4.707785203587655"><ele>177.60000000000002</ele><time>2026-04-23T14:24:10Z</time></trkpt><trkpt lat="36.889825752753346" lon="-4.707707692760699"><ele>177.39999999999998</ele><time>2026-04-23T14:24:11Z</time></trkpt><trkpt lat="36.88972920405894" lon="-4.707638110427953"><ele>177.2</ele><time>2026-04-23T14:24:12Z</time></trkpt><trkpt lat="36.889632247684084" lon="-4.707611383942615"><ele>177.0</ele><time>2026-04-23T14:24:13Z</time></trkpt><trkpt lat="36.88953518902445" lon="-4.707594120559915"><ele>177.0</ele><time>2026-04-23T14:24:14Z</time></trkpt><trkpt lat="36.88943185174051" lon="-4.7075871493182495"><ele>177.0</ele><time>2026-04-23T14:24:15Z</time></trkpt><trkpt lat="36.88931487973804" lon="-4.707588349477772"><ele>177.0</ele><time>2026-04-23T14:24:16Z</time></trkpt><trkpt lat="36.889198599155925" lon="-4.70759483929011"><ele>177.0</ele><time>2026-04-23T14:24:17Z</time></trkpt><trkpt lat="36.889076192013455" lon="-4.70760674414247"><ele>177.8</ele><time>2026-04-23T14:24:18Z</time></trkpt><trkpt lat="36.88896186228735" lon="-4.707624015302973"><ele>178.6</ele><time>2026-04-23T14:24:19Z</time></trkpt><trkpt lat="36.88885330122754" lon="-4.70765022085963"><ele>179.4</ele><time>2026-04-23T14:24:20Z</time></trkpt><trkpt lat="36.88875688926812" lon="-4.707696317673299"><ele>180.20000000000002</ele><time>2026-04-23T14:24:21Z</time></trkpt><trkpt lat="36.88866577874764" lon="-4.707726905250627"><ele>181.0</ele><time>2026-04-23T14:24:22Z</time></trkpt><trkpt lat="36.88856943421335" lon="-4.7077570211654605"><ele>181.0</ele><time>2026-04-23T14:24:23Z</time></trkpt><trkpt lat="36.888461291960404" lon="-4.707722607620228"><ele>181.0</ele><time>2026-04-23T14:24:24Z</time></trkpt><trkpt lat="36.88835585566784" lon="-4.70768476096914"><ele>181.0</ele><time>2026-04-23T14:24:25Z</time></trkpt><trkpt lat="36.888252516479284" lon="-4.70765584080852"><ele>181.0</ele><time>2026-04-23T14:24:26Z</time></trkpt><trkpt lat="36.88815183755786" lon="-4.707641877055875"><ele>181.0</ele><time>2026-04-23T14:24:27Z</time></trkpt><trkpt lat="36.88804857799746" lon="-4.707655581461606"><ele>181.20000000000002</ele><time>2026-04-23T14:24:28Z</time></trkpt><trkpt lat="36.88794538538987" lon="-4.707682690447294"><ele>181.4</ele><time>2026-04-23T14:24:29Z</time></trkpt><trkpt lat="36.887851879054594" lon="-4.707715081626918"><ele>181.6</ele><time>2026-04-23T14:24:30Z</time></trkpt><trkpt lat="36.8877442591562" lon="-4.7077166537102775"><ele>181.8</ele><time>2026-04-23T14:24:31Z</time></trkpt><trkpt lat="36.887630420812336" lon="-4.707660933148508"><ele>182.0</ele><time>2026-04-23T14:24:32Z</time></trkpt><trkpt lat="36.88751672585335" lon="-4.7075991494916085"><ele>182.2</ele><time>2026-04-23T14:24:33Z</time></trkpt><trkpt lat="36.88739739967702" lon="-4.7075542382082425"><ele>182.39999999999998</ele><time>2026-04-23T14:24:34Z</time></trkpt><trkpt lat="36.887296473338566" lon="-4.707505337243845"><ele>182.60000000000002</ele><time>2026-04-23T14:24:35Z</time></trkpt><trkpt lat="36.88720348176929" lon="-4.7074764800903095"><ele>182.8</ele><time>2026-04-23T14:24:36Z</time></trkpt><trkpt lat="36.88710670141931" lon="-4.707461072774544"><ele>183.0</ele><time>2026-04-23T14:24:37Z</time></trkpt><trkpt lat="36.88700687168204" lon="-4.707468943976628"><ele>183.0</ele><time>2026-04-23T14:24:38Z</time></trkpt><trkpt lat="36.88690251279233" lon="-4.707507461864805"><ele>183.0</ele><time>2026-04-23T14:24:39Z</time></trkpt><trkpt lat="36.88679472787566" lon="-4.707565860498646"><ele>183.0</ele><time>2026-04-23T14:24:40Z</time></trkpt><trkpt lat="36.88668157462099" lon="-4.707637353884152"><ele>183.0</ele><time>2026-04-23T14:24:41Z</time></trkpt><trkpt lat="36.88657094077374" lon="-4.707715199123724"><ele>184.60000000000002</ele><time>2026-04-23T14:24:42Z</time></trkpt><trkpt lat="36.88647475576084" lon="-4.707767929991702"><ele>186.20000000000002</ele><time>2026-04-23T14:24:43Z</time></trkpt><trkpt lat="36.88640515243645" lon="-4.707831708286124"><ele>187.8</ele><time>2026-04-23T14:24:44Z</time></trkpt><trkpt lat="36.8863363867725" lon="-4.707897821840556"><ele>189.4</ele><time>2026-04-23T14:24:45Z</time></trkpt><trkpt lat="36.886268305074026" lon="-4.707997100624759"><ele>191.0</ele><time>2026-04-23T14:24:46Z</time></trkpt><trkpt lat="36.88620811804367" lon="-4.708114753079201"><ele>191.0</ele><time>2026-04-23T14:24:47Z</time></trkpt><trkpt lat="36.886141369547985" lon="-4.708211878823218"><ele>191.0</ele><time>2026-04-23T14:24:48Z</time></trkpt><trkpt lat="36.88604392611908" lon="-4.708265473076672"><ele>191.0</ele><time>2026-04-23T14:24:49Z</time></trkpt><trkpt lat="36.88594906782889" lon="-4.708289681245413"><ele>191.0</ele><time>2026-04-23T14:24:50Z</time></trkpt><trkpt lat="36.885841352277794" lon="-4.70834386686401"><ele>191.0</ele><time>2026-04-23T14:24:51Z</time></trkpt><trkpt lat="36.88573974598258" lon="-4.708439024563171"><ele>188.75</ele><time>2026-04-23T14:24:52Z</time></trkpt><trkpt lat="36.885626307867206" lon="-4.7084759187905885"><ele>186.5</ele><time>2026-04-23T14:24:53Z</time></trkpt><trkpt lat="36.88552353729251" lon="-4.708480069886912"><ele>184.25</ele><time>2026-04-23T14:24:54Z</time></trkpt><trkpt lat="36.88540740468119" lon="-4.708457904791161"><ele>182.0</ele><time>2026-04-23T14:24:55Z</time></trkpt><trkpt lat="36.88528935137625" lon="-4.708451644143922"><ele>182.0</ele><time>2026-04-23T14:24:56Z</time></trkpt><trkpt lat="36.88517186600727" lon="-4.708428916851794"><ele>182.0</ele><time>2026-04-23T14:24:57Z</time></trkpt><trkpt lat="36.88505993836732" lon="-4.708416328215706"><ele>182.0</ele><time>2026-04-23T14:24:58Z</time></trkpt><trkpt lat="36.88496216323455" lon="-4.708421984978127"><ele>182.0</ele><time>2026-04-23T14:24:59Z</time></trkpt><trkpt lat="36.884859210737005" lon="-4.708432647850207"><ele>182.0</ele><time>2026-04-23T14:25:00Z</time></trkpt><trkpt lat="36.88476404172659" lon="-4.7084771060743424"><ele>181.5</ele><time>2026-04-23T14:25:01Z</time></trkpt><trkpt lat="36.88467362513205" lon="-4.708528746455642"><ele>181.0</ele><time>2026-04-23T14:25:02Z</time></trkpt><trkpt lat="36.88460892788168" lon="-4.708574307087753"><ele>180.5</ele><time>2026-04-23T14:25:03Z</time></trkpt><trkpt lat="36.884548387062146" lon="-4.708638252158724"><ele>180.0</ele><time>2026-04-23T14:25:04Z</time></trkpt><trkpt lat="36.88450391782697" lon="-4.708733618240878"><ele>179.5</ele><time>2026-04-23T14:25:05Z</time></trkpt><trkpt lat="36.88444762007472" lon="-4.708839293451987"><ele>179.0</ele><time>2026-04-23T14:25:06Z</time></trkpt><trkpt lat="36.884394229329274" lon="-4.708916624064681"><ele>180.0</ele><time>2026-04-23T14:25:07Z</time></trkpt><trkpt lat="36.88433898186367" lon="-4.7090201654833"><ele>181.0</ele><time>2026-04-23T14:25:09Z</time></trkpt><trkpt lat="36.88427459942141" lon="-4.709059876760767"><ele>182.0</ele><time>2026-04-23T14:25:12Z</time></trkpt><trkpt lat="36.88421126842168" lon="-4.709122427522356"><ele>183.0</ele><time>2026-04-23T14:25:14Z</time></trkpt><trkpt lat="36.8841988066671" lon="-4.709257217092783"><ele>184.0</ele><time>2026-04-23T14:25:16Z</time></trkpt><trkpt lat="36.884207803643854" lon="-4.709388991411812"><ele>186.5</ele><time>2026-04-23T14:25:18Z</time></trkpt><trkpt lat="36.88418107162695" lon="-4.709526871415592"><ele>189.0</ele><time>2026-04-23T14:25:20Z</time></trkpt><trkpt lat="36.884097754825014" lon="-4.709633491579561"><ele>191.5</ele><time>2026-04-23T14:25:22Z</time></trkpt><trkpt lat="36.884030021169984" lon="-4.709753092886477"><ele>194.0</ele><time>2026-04-23T14:25:24Z</time></trkpt><trkpt lat="36.883962460858164" lon="-4.7098476674841825"><ele>194.00000000000003</ele><time>2026-04-23T14:25:26Z</time></trkpt><trkpt lat="36.88389677048938" lon="-4.709946823799004"><ele>194.0</ele><time>2026-04-23T14:25:28Z</time></trkpt><trkpt lat="36.883836190874874" lon="-4.710065405172641"><ele>194.0</ele><time>2026-04-23T14:25:30Z</time></trkpt><trkpt lat="36.883796291002504" lon="-4.7101360766776175"><ele>194.0</ele><time>2026-04-23T14:25:31Z</time></trkpt><trkpt lat="36.88377725536693" lon="-4.710228770252225"><ele>194.00000000000003</ele><time>2026-04-23T14:25:32Z</time></trkpt><trkpt lat="36.883767530981395" lon="-4.7103255581276775"><ele>194.0</ele><time>2026-04-23T14:25:33Z</time></trkpt><trkpt lat="36.883757447654176" lon="-4.710413590918868"><ele>195.33333333333334</ele><time>2026-04-23T14:25:34Z</time></trkpt><trkpt lat="36.883742979412624" lon="-4.710496039704837"><ele>196.66666666666669</ele><time>2026-04-23T14:25:35Z</time></trkpt><trkpt lat="36.883732075266565" lon="-4.710655641033253"><ele>198.0</ele><time>2026-04-23T14:25:37Z</time></trkpt><trkpt lat="36.8837224405619" lon="-4.710745039851443"><ele>199.33333333333331</ele><time>2026-04-23T14:25:38Z</time></trkpt><trkpt lat="36.88371591615538" lon="-4.710825095910586"><ele>200.66666666666666</ele><time>2026-04-23T14:25:39Z</time></trkpt><trkpt lat="36.883713747633756" lon="-4.710920470478438"><ele>202.0</ele><time>2026-04-23T14:25:40Z</time></trkpt><trkpt lat="36.88371868047038" lon="-4.7110103310197164"><ele>202.49999999999997</ele><time>2026-04-23T14:25:41Z</time></trkpt><trkpt lat="36.88373051961572" lon="-4.71111035772496"><ele>203.0</ele><time>2026-04-23T14:25:42Z</time></trkpt><trkpt lat="36.88374351161397" lon="-4.711202698454935"><ele>203.5</ele><time>2026-04-23T14:25:43Z</time></trkpt><trkpt lat="36.88375848334522" lon="-4.7112988150382185"><ele>204.0</ele><time>2026-04-23T14:25:44Z</time></trkpt><trkpt lat="36.88376076750058" lon="-4.711400185031008"><ele>204.49999999999997</ele><time>2026-04-23T14:25:45Z</time></trkpt><trkpt lat="36.88374728921636" lon="-4.71151355356135"><ele>205.0</ele><time>2026-04-23T14:25:46Z</time></trkpt><trkpt lat="36.88370559375235" lon="-4.71160255839494"><ele>205.0</ele><time>2026-04-23T14:25:47Z</time></trkpt><trkpt lat="36.883649464189816" lon="-4.71169181711482"><ele>205.0</ele><time>2026-04-23T14:25:48Z</time></trkpt><trkpt lat="36.88361263921592" lon="-4.711792238185338"><ele>205.0</ele><time>2026-04-23T14:25:49Z</time></trkpt><trkpt lat="36.88356679282155" lon="-4.7118970682662615"><ele>205.0</ele><time>2026-04-23T14:25:50Z</time></trkpt><trkpt lat="36.883527510597844" lon="-4.712002013662545"><ele>205.0</ele><time>2026-04-23T14:25:51Z</time></trkpt><trkpt lat="36.88347096068035" lon="-4.7121105199444875"><ele>205.8</ele><time>2026-04-23T14:25:52Z</time></trkpt><trkpt lat="36.88343243314621" lon="-4.712240131609794"><ele>206.6</ele><time>2026-04-23T14:25:53Z</time></trkpt><trkpt lat="36.883395900951776" lon="-4.712356177160557"><ele>207.39999999999998</ele><time>2026-04-23T14:25:54Z</time></trkpt><trkpt lat="36.8833674573458" lon="-4.712468651993148"><ele>208.2</ele><time>2026-04-23T14:25:55Z</time></trkpt><trkpt lat="36.88333750194179" lon="-4.712592113466462"><ele>209.0</ele><time>2026-04-23T14:25:56Z</time></trkpt><trkpt lat="36.883311045573905" lon="-4.7127165966434825"><ele>207.83333333333334</ele><time>2026-04-23T14:25:57Z</time></trkpt><trkpt lat="36.883288007725056" lon="-4.712825008866868"><ele>206.66666666666669</ele><time>2026-04-23T14:25:58Z</time></trkpt><trkpt lat="36.88327743829218" lon="-4.712925170375456"><ele>205.5</ele><time>2026-04-23T14:25:59Z</time></trkpt><trkpt lat="36.88328940567773" lon="-4.713011931690675"><ele>204.33333333333331</ele><time>2026-04-23T14:26:00Z</time></trkpt><trkpt lat="36.883238828447446" lon="-4.713151862623626"><ele>203.16666666666666</ele><time>2026-04-23T14:26:01.999Z</time></trkpt><trkpt lat="36.88318345234104" lon="-4.713227155667052"><ele>202.0</ele><time>2026-04-23T14:26:02.999Z</time></trkpt><trkpt lat="36.88309210754091" lon="-4.713233926136476"><ele>202.0</ele><time>2026-04-23T14:26:03.999Z</time></trkpt><trkpt lat="36.883036131811195" lon="-4.713278151509439"><ele>202.0</ele><time>2026-04-23T14:26:04.999Z</time></trkpt><trkpt lat="36.882969754088585" lon="-4.713311871814133"><ele>202.0</ele><time>2026-04-23T14:26:05.999Z</time></trkpt><trkpt lat="36.88286252486479" lon="-4.7133866492054475"><ele>202.0</ele><time>2026-04-23T14:26:07.999Z</time></trkpt><trkpt lat="36.88275790379032" lon="-4.713476099063344"><ele>202.0</ele><time>2026-04-23T14:26:10Z</time></trkpt><trkpt lat="36.88267614013787" lon="-4.713585277621238"><ele>201.49999999999997</ele><time>2026-04-23T14:26:12Z</time></trkpt><trkpt lat="36.882588458621626" lon="-4.7136997919226715"><ele>201.0</ele><time>2026-04-23T14:26:14Z</time></trkpt><trkpt lat="36.88254628506544" lon="-4.713759600040744"><ele>200.5</ele><time>2026-04-23T14:26:15Z</time></trkpt><trkpt lat="36.882509155939715" lon="-4.713824073460121"><ele>200.0</ele><time>2026-04-23T14:26:16Z</time></trkpt><trkpt lat="36.88246688792407" lon="-4.713888356485951"><ele>199.49999999999997</ele><time>2026-04-23T14:26:17Z</time></trkpt><trkpt lat="36.88237680042417" lon="-4.713995303155399"><ele>199.0</ele><time>2026-04-23T14:26:19Z</time></trkpt><trkpt lat="36.88233268006804" lon="-4.714055912952837"><ele>198.99999999999997</ele><time>2026-04-23T14:26:20Z</time></trkpt><trkpt lat="36.882293034818034" lon="-4.714117958426637"><ele>199.0</ele><time>2026-04-23T14:26:21Z</time></trkpt><trkpt lat="36.882205676454134" lon="-4.71422929633411"><ele>199.0</ele><time>2026-04-23T14:26:23Z</time></trkpt><trkpt lat="36.88215433158808" lon="-4.7142816737879185"><ele>199.0</ele><time>2026-04-23T14:26:24Z</time></trkpt><trkpt lat="36.88211375652174" lon="-4.714349804469193"><ele>198.99999999999997</ele><time>2026-04-23T14:26:25Z</time></trkpt><trkpt lat="36.882064460839125" lon="-4.714404127953252"><ele>199.0</ele><time>2026-04-23T14:26:26Z</time></trkpt><trkpt lat="36.88200858201796" lon="-4.714443048540463"><ele>200.0</ele><time>2026-04-23T14:26:27Z</time></trkpt><trkpt lat="36.88196393262455" lon="-4.714511999544485"><ele>201.0</ele><time>2026-04-23T14:26:28Z</time></trkpt><trkpt lat="36.88189032405244" lon="-4.714575514976955"><ele>202.0</ele><time>2026-04-23T14:26:29Z</time></trkpt><trkpt lat="36.88180982097292" lon="-4.714660376909712"><ele>203.0</ele><time>2026-04-23T14:26:30Z</time></trkpt><trkpt lat="36.88173524983956" lon="-4.714747298969059"><ele>204.0</ele><time>2026-04-23T14:26:31Z</time></trkpt><trkpt lat="36.88165716913061" lon="-4.714830790685994"><ele>202.39999999999998</ele><time>2026-04-23T14:26:32Z</time></trkpt><trkpt lat="36.88158242522117" lon="-4.714924232998822"><ele>200.8</ele><time>2026-04-23T14:26:33Z</time></trkpt><trkpt lat="36.88151268571651" lon="-4.715021113745592"><ele>199.2</ele><time>2026-04-23T14:26:34Z</time></trkpt><trkpt lat="36.88145031633124" lon="-4.715121458360395"><ele>197.60000000000002</ele><time>2026-04-23T14:26:35Z</time></trkpt><trkpt lat="36.88138916629993" lon="-4.7152234608299395"><ele>196.0</ele><time>2026-04-23T14:26:36Z</time></trkpt><trkpt lat="36.881333942171466" lon="-4.715332676424927"><ele>196.0</ele><time>2026-04-23T14:26:37Z</time></trkpt><trkpt lat="36.88128427529915" lon="-4.71544461308361"><ele>196.0</ele><time>2026-04-23T14:26:38Z</time></trkpt><trkpt lat="36.88122950187382" lon="-4.715569550514915"><ele>196.0</ele><time>2026-04-23T14:26:39Z</time></trkpt><trkpt lat="36.88117678831917" lon="-4.715691072174196"><ele>196.0</ele><time>2026-04-23T14:26:40Z</time></trkpt><trkpt lat="36.88113180785533" lon="-4.715814678114933"><ele>196.0</ele><time>2026-04-23T14:26:41Z</time></trkpt><trkpt lat="36.88109767894858" lon="-4.715928895079889"><ele>196.0</ele><time>2026-04-23T14:26:42Z</time></trkpt><trkpt lat="36.88105886530197" lon="-4.7160468448600685"><ele>196.0</ele><time>2026-04-23T14:26:43Z</time></trkpt><trkpt lat="36.88101664827465" lon="-4.716159229128253"><ele>196.0</ele><time>2026-04-23T14:26:44Z</time></trkpt><trkpt lat="36.880965011170666" lon="-4.716262849380216"><ele>196.0</ele><time>2026-04-23T14:26:45Z</time></trkpt><trkpt lat="36.88088870319918" lon="-4.716343574903744"><ele>196.0</ele><time>2026-04-23T14:26:46Z</time></trkpt><trkpt lat="36.880793887721445" lon="-4.716393579392435"><ele>194.0</ele><time>2026-04-23T14:26:47Z</time></trkpt><trkpt lat="36.880684585886364" lon="-4.716427180761048"><ele>192.0</ele><time>2026-04-23T14:26:48Z</time></trkpt><trkpt lat="36.88057821926208" lon="-4.716471352448779"><ele>190.0</ele><time>2026-04-23T14:26:49Z</time></trkpt><trkpt lat="36.88048362146895" lon="-4.716537042380298"><ele>188.0</ele><time>2026-04-23T14:26:50Z</time></trkpt><trkpt lat="36.88039848295114" lon="-4.716612794166121"><ele>186.0</ele><time>2026-04-23T14:26:51Z</time></trkpt><trkpt lat="36.88031338309817" lon="-4.716697479399761"><ele>186.0</ele><time>2026-04-23T14:26:52Z</time></trkpt><trkpt lat="36.88022735698113" lon="-4.716795061555379"><ele>186.0</ele><time>2026-04-23T14:26:53Z</time></trkpt><trkpt lat="36.88014949665635" lon="-4.716903649463794"><ele>186.0</ele><time>2026-04-23T14:26:54Z</time></trkpt><trkpt lat="36.88007610886735" lon="-4.71701806255868"><ele>186.0</ele><time>2026-04-23T14:26:55Z</time></trkpt><trkpt lat="36.87999869340064" lon="-4.717136647790995"><ele>185.8</ele><time>2026-04-23T14:26:56Z</time></trkpt><trkpt lat="36.879926213437926" lon="-4.717252107118236"><ele>185.60000000000002</ele><time>2026-04-23T14:26:57Z</time></trkpt><trkpt lat="36.87985857635518" lon="-4.717357303980889"><ele>185.4</ele><time>2026-04-23T14:26:58Z</time></trkpt><trkpt lat="36.8797946679338" lon="-4.717455840520879"><ele>185.2</ele><time>2026-04-23T14:26:59Z</time></trkpt><trkpt lat="36.87973542927711" lon="-4.717559537714499"><ele>185.0</ele><time>2026-04-23T14:27:00Z</time></trkpt><trkpt lat="36.87969871760743" lon="-4.717681718476768"><ele>185.5</ele><time>2026-04-23T14:27:01Z</time></trkpt><trkpt lat="36.87963546594845" lon="-4.717800234119662"><ele>186.0</ele><time>2026-04-23T14:27:02Z</time></trkpt><trkpt lat="36.87959345587894" lon="-4.7179366630712645"><ele>186.5</ele><time>2026-04-23T14:27:03Z</time></trkpt><trkpt lat="36.8795494733021" lon="-4.7180744487058925"><ele>187.0</ele><time>2026-04-23T14:27:04Z</time></trkpt><trkpt lat="36.87949125334895" lon="-4.7182044253209465"><ele>187.0</ele><time>2026-04-23T14:27:05Z</time></trkpt><trkpt lat="36.87943130282484" lon="-4.718330037148545"><ele>187.0</ele><time>2026-04-23T14:27:06Z</time></trkpt><trkpt lat="36.879381321064024" lon="-4.7184463036640425"><ele>187.0</ele><time>2026-04-23T14:27:07Z</time></trkpt><trkpt lat="36.879335604716225" lon="-4.71855302196713"><ele>187.0</ele><time>2026-04-23T14:27:08Z</time></trkpt><trkpt lat="36.879292113694206" lon="-4.718643007441252"><ele>187.0</ele><time>2026-04-23T14:27:09Z</time></trkpt><trkpt lat="36.87924525111916" lon="-4.718724451883608"><ele>186.33333333333334</ele><time>2026-04-23T14:27:10Z</time></trkpt><trkpt lat="36.87920026668009" lon="-4.718788477744355"><ele>185.66666666666669</ele><time>2026-04-23T14:27:11Z</time></trkpt><trkpt lat="36.879160753244335" lon="-4.718851759727572"><ele>185.0</ele><time>2026-04-23T14:27:12Z</time></trkpt><trkpt lat="36.879138131432114" lon="-4.718925636526326"><ele>184.33333333333334</ele><time>2026-04-23T14:27:13Z</time></trkpt><trkpt lat="36.87916150114498" lon="-4.719066542376984"><ele>183.66666666666666</ele><time>2026-04-23T14:27:15Z</time></trkpt><trkpt lat="36.87921673028351" lon="-4.719129004795564"><ele>183.0</ele><time>2026-04-23T14:27:18Z</time></trkpt><trkpt lat="36.87928495090559" lon="-4.719135663254288"><ele>183.0</ele><time>2026-04-23T14:27:20Z</time></trkpt><trkpt lat="36.879396454581496" lon="-4.719105876809848"><ele>183.0</ele><time>2026-04-23T14:27:22Z</time></trkpt><trkpt lat="36.87946350580401" lon="-4.71908722345778"><ele>183.0</ele><time>2026-04-23T14:27:23Z</time></trkpt><trkpt lat="36.879546155099426" lon="-4.719062197382067"><ele>183.0</ele><time>2026-04-23T14:27:24Z</time></trkpt><trkpt lat="36.87962075667209" lon="-4.719029042932085"><ele>183.0</ele><time>2026-04-23T14:27:25Z</time></trkpt><trkpt lat="36.87969592488311" lon="-4.719000012086115"><ele>183.0</ele><time>2026-04-23T14:27:26Z</time></trkpt><trkpt lat="36.879781752261316" lon="-4.7189745617462195"><ele>183.0</ele><time>2026-04-23T14:27:27Z</time></trkpt><trkpt lat="36.87985924916833" lon="-4.718978512968095"><ele>183.0</ele><time>2026-04-23T14:27:28Z</time></trkpt><trkpt lat="36.87991837974958" lon="-4.719024534812764"><ele>183.0</ele><time>2026-04-23T14:27:30Z</time></trkpt><trkpt lat="36.8798722254445" lon="-4.719196832378395"><ele>183.0</ele><time>2026-04-23T14:28:57Z</time></trkpt><trkpt lat="36.87986504761858" lon="-4.719330479531541"><ele>183.0</ele><time>2026-04-23T14:28:59Z</time></trkpt><trkpt lat="36.87992026483853" lon="-4.7194800902569565"><ele>182.5</ele><time>2026-04-23T14:29:01Z</time></trkpt><trkpt lat="36.879977816221434" lon="-4.719536995104683"><ele>182.0</ele><time>2026-04-23T14:29:02Z</time></trkpt><trkpt lat="36.88005463149021" lon="-4.719579934990146"><ele>181.5</ele><time>2026-04-23T14:29:03Z</time></trkpt><trkpt lat="36.88013972062581" lon="-4.719604569943614"><ele>181.0</ele><time>2026-04-23T14:29:04Z</time></trkpt><trkpt lat="36.880229602279805" lon="-4.719638434467825"><ele>180.5</ele><time>2026-04-23T14:29:05Z</time></trkpt><trkpt lat="36.88031557823589" lon="-4.719676025998838"><ele>180.0</ele><time>2026-04-23T14:29:06Z</time></trkpt><trkpt lat="36.88039382923542" lon="-4.71972634582353"><ele>180.0</ele><time>2026-04-23T14:29:07Z</time></trkpt><trkpt lat="36.88045793214061" lon="-4.719797052565203"><ele>180.0</ele><time>2026-04-23T14:29:08Z</time></trkpt><trkpt lat="36.88049828879936" lon="-4.719888867993276"><ele>180.0</ele><time>2026-04-23T14:29:09Z</time></trkpt><trkpt lat="36.88051083977392" lon="-4.71998999176014"><ele>180.0</ele><time>2026-04-23T14:29:10Z</time></trkpt><trkpt lat="36.88049829655846" lon="-4.720093020475184"><ele>180.0</ele><time>2026-04-23T14:29:11Z</time></trkpt><trkpt lat="36.88046490597446" lon="-4.720188845574853"><ele>180.0</ele><time>2026-04-23T14:29:12Z</time></trkpt><trkpt lat="36.8804037499745" lon="-4.720269480416151"><ele>177.0</ele><time>2026-04-23T14:29:13Z</time></trkpt><trkpt lat="36.880332859964064" lon="-4.720336441685672"><ele>174.0</ele><time>2026-04-23T14:29:14Z</time></trkpt><trkpt lat="36.88024171867393" lon="-4.720365800750508"><ele>171.0</ele><time>2026-04-23T14:29:15Z</time></trkpt><trkpt lat="36.88014266986241" lon="-4.720353501746304"><ele>168.0</ele><time>2026-04-23T14:29:16Z</time></trkpt><trkpt lat="36.88003204312022" lon="-4.720348050791146"><ele>165.0</ele><time>2026-04-23T14:29:17Z</time></trkpt><trkpt lat="36.87991539205838" lon="-4.720324648991844"><ele>164.5</ele><time>2026-04-23T14:29:18Z</time></trkpt><trkpt lat="36.87979645092955" lon="-4.720300787772052"><ele>164.0</ele><time>2026-04-23T14:29:19Z</time></trkpt><trkpt lat="36.87968153941347" lon="-4.720277734950253"><ele>163.5</ele><time>2026-04-23T14:29:20Z</time></trkpt><trkpt lat="36.8795620515188" lon="-4.720253918126226"><ele>163.0</ele><time>2026-04-23T14:29:21Z</time></trkpt><trkpt lat="36.87943883110197" lon="-4.720228856349502"><ele>163.75</ele><time>2026-04-23T14:29:22Z</time></trkpt><trkpt lat="36.87931146376056" lon="-4.720202976300924"><ele>164.5</ele><time>2026-04-23T14:29:23Z</time></trkpt><trkpt lat="36.879187020150056" lon="-4.720178371098831"><ele>165.25</ele><time>2026-04-23T14:29:24Z</time></trkpt><trkpt lat="36.87906513267693" lon="-4.72015569327264"><ele>166.0</ele><time>2026-04-23T14:29:25Z</time></trkpt><trkpt lat="36.87894404902922" lon="-4.720132796711561"><ele>166.0</ele><time>2026-04-23T14:29:26Z</time></trkpt><trkpt lat="36.87882462846925" lon="-4.7201081950655945"><ele>166.0</ele><time>2026-04-23T14:29:27Z</time></trkpt><trkpt lat="36.87870768885429" lon="-4.720082011002567"><ele>166.0</ele><time>2026-04-23T14:29:28Z</time></trkpt><trkpt lat="36.87858706823467" lon="-4.720053289402945"><ele>166.0</ele><time>2026-04-23T14:29:29Z</time></trkpt><trkpt lat="36.878468546378585" lon="-4.7200218247416865"><ele>163.8</ele><time>2026-04-23T14:29:30Z</time></trkpt><trkpt lat="36.878357904243224" lon="-4.719988263961403"><ele>161.60000000000002</ele><time>2026-04-23T14:29:31Z</time></trkpt><trkpt lat="36.87825230990091" lon="-4.719954615424879"><ele>159.4</ele><time>2026-04-23T14:29:32Z</time></trkpt><trkpt lat="36.878153726401486" lon="-4.719915866298744"><ele>157.2</ele><time>2026-04-23T14:29:33Z</time></trkpt><trkpt lat="36.878067697383294" lon="-4.719860409028832"><ele>155.0</ele><time>2026-04-23T14:29:34Z</time></trkpt><trkpt lat="36.877979777049475" lon="-4.719838149331548"><ele>155.0</ele><time>2026-04-23T14:29:35Z</time></trkpt><trkpt lat="36.8778927316897" lon="-4.719811102153096"><ele>155.0</ele><time>2026-04-23T14:29:36Z</time></trkpt><trkpt lat="36.877813096684285" lon="-4.719835176766126"><ele>155.0</ele><time>2026-04-23T14:29:37Z</time></trkpt><trkpt lat="36.87774253353972" lon="-4.719854694033319"><ele>155.0</ele><time>2026-04-23T14:29:37.999Z</time></trkpt><trkpt lat="36.87768089128117" lon="-4.719886399638737"><ele>155.0</ele><time>2026-04-23T14:29:38.999Z</time></trkpt><trkpt lat="36.877612710402374" lon="-4.719916359243828"><ele>155.0</ele><time>2026-04-23T14:29:39.999Z</time></trkpt><trkpt lat="36.87751684570307" lon="-4.719982948528165"><ele>153.5</ele><time>2026-04-23T14:29:41.999Z</time></trkpt><trkpt lat="36.87746565203222" lon="-4.720035891634846"><ele>152.0</ele><time>2026-04-23T14:29:42.999Z</time></trkpt><trkpt lat="36.877404616139415" lon="-4.720061713285902"><ele>150.5</ele><time>2026-04-23T14:29:43.999Z</time></trkpt><trkpt lat="36.87733937277356" lon="-4.720064379656087"><ele>149.0</ele><time>2026-04-23T14:29:44.999Z</time></trkpt><trkpt lat="36.877219400095285" lon="-4.720053922508304"><ele>147.5</ele><time>2026-04-23T14:29:46.999Z</time></trkpt><trkpt lat="36.87714926392021" lon="-4.720034321831348"><ele>146.0</ele><time>2026-04-23T14:29:47.999Z</time></trkpt><trkpt lat="36.87708406195802" lon="-4.720011114956225"><ele>146.0</ele><time>2026-04-23T14:29:48.999Z</time></trkpt><trkpt lat="36.87696695518338" lon="-4.719955102636943"><ele>146.0</ele><time>2026-04-23T14:29:50.999Z</time></trkpt><trkpt lat="36.876906626969934" lon="-4.71992814306722"><ele>146.0</ele><time>2026-04-23T14:29:51.999Z</time></trkpt><trkpt lat="36.876787211379835" lon="-4.719914082942743"><ele>146.0</ele><time>2026-04-23T14:29:53.999Z</time></trkpt><trkpt lat="36.876664109816886" lon="-4.719953364361446"><ele>146.0</ele><time>2026-04-23T14:29:55.999Z</time></trkpt><trkpt lat="36.87660443333169" lon="-4.7199882673529245"><ele>145.66666666666666</ele><time>2026-04-23T14:29:56.999Z</time></trkpt><trkpt lat="36.8765377138159" lon="-4.719988508876139"><ele>145.33333333333331</ele><time>2026-04-23T14:29:57.999Z</time></trkpt><trkpt lat="36.87647631286984" lon="-4.719936470477652"><ele>145.0</ele><time>2026-04-23T14:29:58.999Z</time></trkpt><trkpt lat="36.87639602770708" lon="-4.719904247849724"><ele>144.66666666666666</ele><time>2026-04-23T14:29:59.999Z</time></trkpt><trkpt lat="36.876315861695396" lon="-4.719863530239604"><ele>144.33333333333334</ele><time>2026-04-23T14:30:00.999Z</time></trkpt><trkpt lat="36.87622216258763" lon="-4.719826691963823"><ele>144.0</ele><time>2026-04-23T14:30:01.999Z</time></trkpt><trkpt lat="36.87610080382069" lon="-4.71979469530987"><ele>144.0</ele><time>2026-04-23T14:30:02.999Z</time></trkpt><trkpt lat="36.87596602911646" lon="-4.719742263105588"><ele>144.0</ele><time>2026-04-23T14:30:03.999Z</time></trkpt><trkpt lat="36.875864074609694" lon="-4.719683363344436"><ele>144.0</ele><time>2026-04-23T14:30:04.999Z</time></trkpt><trkpt lat="36.87576127591986" lon="-4.719678851229896"><ele>144.0</ele><time>2026-04-23T14:30:05.999Z</time></trkpt><trkpt lat="36.87565424794026" lon="-4.719658569754454"><ele>143.8</ele><time>2026-04-23T14:30:06.999Z</time></trkpt><trkpt lat="36.8755524420129" lon="-4.719640985055198"><ele>143.60000000000002</ele><time>2026-04-23T14:30:07.999Z</time></trkpt><trkpt lat="36.8754550721258" lon="-4.719627363810141"><ele>143.4</ele><time>2026-04-23T14:30:08.999Z</time></trkpt><trkpt lat="36.875361808500415" lon="-4.719616366875702"><ele>143.20000000000002</ele><time>2026-04-23T14:30:09.999Z</time></trkpt><trkpt lat="36.8752691604642" lon="-4.719609923490355"><ele>143.0</ele><time>2026-04-23T14:30:10.999Z</time></trkpt><trkpt lat="36.87518221306925" lon="-4.719605555877729"><ele>144.0</ele><time>2026-04-23T14:30:11.999Z</time></trkpt><trkpt lat="36.87510033826429" lon="-4.719601524979998"><ele>145.0</ele><time>2026-04-23T14:30:12.999Z</time></trkpt><trkpt lat="36.87501982846802" lon="-4.719598706825048"><ele>146.0</ele><time>2026-04-23T14:30:13.999Z</time></trkpt><trkpt lat="36.874940979878794" lon="-4.7195983290150885"><ele>147.0</ele><time>2026-04-23T14:30:14.999Z</time></trkpt><trkpt lat="36.87486808267869" lon="-4.719600035175253"><ele>148.0</ele><time>2026-04-23T14:30:15.999Z</time></trkpt><trkpt lat="36.87478544478613" lon="-4.719605711636446"><ele>149.0</ele><time>2026-04-23T14:30:16.999Z</time></trkpt><trkpt lat="36.87470791559539" lon="-4.719597657215249"><ele>149.0</ele><time>2026-04-23T14:30:17.999Z</time></trkpt><trkpt lat="36.87463941566913" lon="-4.719608413909224"><ele>149.0</ele><time>2026-04-23T14:30:18.999Z</time></trkpt><trkpt lat="36.87457403447298" lon="-4.719622826651527"><ele>149.0</ele><time>2026-04-23T14:30:19.999Z</time></trkpt><trkpt lat="36.874472011228036" lon="-4.719607939493879"><ele>149.0</ele><time>2026-04-23T14:30:22Z</time></trkpt><trkpt lat="36.87440518888643" lon="-4.719612114504213"><ele>149.0</ele><time>2026-04-23T14:30:25Z</time></trkpt><trkpt lat="36.87438836064264" lon="-4.719716411671137"><ele>149.0</ele><time>2026-04-23T14:30:26Z</time></trkpt><trkpt lat="36.87437026537416" lon="-4.7198294618945855"><ele>149.0</ele><time>2026-04-23T14:30:34Z</time></trkpt><trkpt lat="36.87431185649434" lon="-4.7199032910610885"><ele>149.0</ele><time>2026-04-23T14:30:36Z</time></trkpt><trkpt lat="36.8742259382453" lon="-4.71991769238962"><ele>149.0</ele><time>2026-04-23T14:30:38Z</time></trkpt><trkpt lat="36.874171135095374" lon="-4.7200182993240505"><ele>149.0</ele><time>2026-04-23T14:30:40Z</time></trkpt><trkpt lat="36.87410180197237" lon="-4.7200966802754065"><ele>149.0</ele><time>2026-04-23T14:30:42Z</time></trkpt><trkpt lat="36.87402967994163" lon="-4.720126190042616"><ele>149.0</ele><time>2026-04-23T14:30:44Z</time></trkpt><trkpt lat="36.87396043155572" lon="-4.720209273027841"><ele>149.83333333333331</ele><time>2026-04-23T14:30:47Z</time></trkpt><trkpt lat="36.873918374761395" lon="-4.72033495269986"><ele>150.66666666666666</ele><time>2026-04-23T14:30:49Z</time></trkpt><trkpt lat="36.87389977802102" lon="-4.720418971514992"><ele>151.5</ele><time>2026-04-23T14:30:50Z</time></trkpt><trkpt lat="36.873871851026294" lon="-4.7204996480876025"><ele>152.33333333333334</ele><time>2026-04-23T14:30:51Z</time></trkpt><trkpt lat="36.873824329564094" lon="-4.7205678644814215"><ele>153.16666666666669</ele><time>2026-04-23T14:30:52Z</time></trkpt><trkpt lat="36.873776963582685" lon="-4.720667048466274"><ele>154.0</ele><time>2026-04-23T14:30:53Z</time></trkpt><trkpt lat="36.873726901052784" lon="-4.720742709580681"><ele>154.0</ele><time>2026-04-23T14:30:54Z</time></trkpt><trkpt lat="36.87367671511709" lon="-4.720825684446852"><ele>154.0</ele><time>2026-04-23T14:30:55Z</time></trkpt><trkpt lat="36.87360139708134" lon="-4.720888998934867"><ele>154.0</ele><time>2026-04-23T14:30:56Z</time></trkpt><trkpt lat="36.87353215131213" lon="-4.720948557194744"><ele>154.0</ele><time>2026-04-23T14:30:57Z</time></trkpt><trkpt lat="36.87347711351017" lon="-4.721011465212575"><ele>154.0</ele><time>2026-04-23T14:30:58Z</time></trkpt><trkpt lat="36.87341657798543" lon="-4.721083334020289"><ele>154.0</ele><time>2026-04-23T14:30:59Z</time></trkpt><trkpt lat="36.87334981992329" lon="-4.7211578045284925"><ele>155.66666666666669</ele><time>2026-04-23T14:31:00Z</time></trkpt><trkpt lat="36.87328933210328" lon="-4.7212387507248685"><ele>157.33333333333334</ele><time>2026-04-23T14:31:01Z</time></trkpt><trkpt lat="36.87322521357409" lon="-4.721321665918778"><ele>159.0</ele><time>2026-04-23T14:31:02Z</time></trkpt><trkpt lat="36.87317766097987" lon="-4.721420184291542"><ele>160.66666666666666</ele><time>2026-04-23T14:31:03Z</time></trkpt><trkpt lat="36.873140072557696" lon="-4.721514643368984"><ele>162.33333333333331</ele><time>2026-04-23T14:31:04Z</time></trkpt><trkpt lat="36.87309914141506" lon="-4.721607345196362"><ele>164.0</ele><time>2026-04-23T14:31:05Z</time></trkpt><trkpt lat="36.87305774546175" lon="-4.721698461416345"><ele>164.0</ele><time>2026-04-23T14:31:06Z</time></trkpt><trkpt lat="36.87302412150621" lon="-4.721797189732006"><ele>164.0</ele><time>2026-04-23T14:31:07Z</time></trkpt><trkpt lat="36.872990051668985" lon="-4.721892790457175"><ele>164.0</ele><time>2026-04-23T14:31:08Z</time></trkpt><trkpt lat="36.87296054551385" lon="-4.721981416307242"><ele>164.0</ele><time>2026-04-23T14:31:09Z</time></trkpt><trkpt lat="36.872930873566354" lon="-4.722073131075828"><ele>164.0</ele><time>2026-04-23T14:31:10Z</time></trkpt><trkpt lat="36.8729041135966" lon="-4.722161223627969"><ele>164.0</ele><time>2026-04-23T14:31:11Z</time></trkpt><trkpt lat="36.87285822408928" lon="-4.722286047802194"><ele>162.6</ele><time>2026-04-23T14:31:13Z</time></trkpt><trkpt lat="36.872807285316796" lon="-4.722407010006453"><ele>161.2</ele><time>2026-04-23T14:31:15Z</time></trkpt><trkpt lat="36.87271423726187" lon="-4.722531260362829"><ele>159.79999999999998</ele><time>2026-04-23T14:31:17Z</time></trkpt><trkpt lat="36.87264869871572" lon="-4.722580962668955"><ele>158.39999999999998</ele><time>2026-04-23T14:31:18Z</time></trkpt><trkpt lat="36.87259625061374" lon="-4.722660879948354"><ele>157.0</ele><time>2026-04-23T14:31:19Z</time></trkpt><trkpt lat="36.8725392077284" lon="-4.722718463471296"><ele>158.28571428571428</ele><time>2026-04-23T14:31:20Z</time></trkpt><trkpt lat="36.87249530735803" lon="-4.722790413668285"><ele>159.57142857142856</ele><time>2026-04-23T14:31:21Z</time></trkpt><trkpt lat="36.87244620215531" lon="-4.722848540830371"><ele>160.85714285714283</ele><time>2026-04-23T14:31:22Z</time></trkpt><trkpt lat="36.8723996290235" lon="-4.722905568430166"><ele>162.14285714285714</ele><time>2026-04-23T14:31:23Z</time></trkpt><trkpt lat="36.87235418871757" lon="-4.722961871684225"><ele>163.42857142857144</ele><time>2026-04-23T14:31:24Z</time></trkpt><trkpt lat="36.872308506550596" lon="-4.723018474735481"><ele>164.7142857142857</ele><time>2026-04-23T14:31:25Z</time></trkpt><trkpt lat="36.87226288886293" lon="-4.723081232002347"><ele>166.0</ele><time>2026-04-23T14:31:26Z</time></trkpt><trkpt lat="36.8722192301813" lon="-4.723142282251774"><ele>166.0</ele><time>2026-04-23T14:31:27Z</time></trkpt><trkpt lat="36.8721395143433" lon="-4.723251071148556"><ele>166.0</ele><time>2026-04-23T14:31:29Z</time></trkpt><trkpt lat="36.87207946077189" lon="-4.723360899241411"><ele>166.0</ele><time>2026-04-23T14:31:31Z</time></trkpt><trkpt lat="36.872010131881815" lon="-4.7234664164166515"><ele>166.0</ele><time>2026-04-23T14:31:33Z</time></trkpt><trkpt lat="36.87194636600711" lon="-4.723597379173572"><ele>165.66666666666669</ele><time>2026-04-23T14:31:35Z</time></trkpt><trkpt lat="36.87193443512891" lon="-4.72367978497822"><ele>165.33333333333334</ele><time>2026-04-23T14:31:36Z</time></trkpt><trkpt lat="36.87191424130092" lon="-4.723766286377234"><ele>165.0</ele><time>2026-04-23T14:31:37Z</time></trkpt><trkpt lat="36.87189097971209" lon="-4.723849934339779"><ele>164.66666666666666</ele><time>2026-04-23T14:31:38Z</time></trkpt><trkpt lat="36.871849431574695" lon="-4.7239661880685615"><ele>164.33333333333331</ele><time>2026-04-23T14:31:40Z</time></trkpt><trkpt lat="36.87181706433431" lon="-4.724040054176281"><ele>164.0</ele><time>2026-04-23T14:31:43.999Z</time></trkpt><trkpt lat="36.871893021322556" lon="-4.724171015163561"><ele>164.0</ele><time>2026-04-23T14:31:46.999Z</time></trkpt><trkpt lat="36.871935480322065" lon="-4.724307802901819"><ele>164.0</ele><time>2026-04-23T14:31:48.999Z</time></trkpt><trkpt lat="36.87197612284935" lon="-4.724379612841424"><ele>164.0</ele><time>2026-04-23T14:31:50.999Z</time></trkpt><trkpt lat="36.87200174683287" lon="-4.724474372485062"><ele>164.0</ele><time>2026-04-23T14:31:55.999Z</time></trkpt><trkpt lat="36.87203316804887" lon="-4.7245832499255815"><ele>164.0</ele><time>2026-04-23T14:31:58.999Z</time></trkpt><trkpt lat="36.87206354113715" lon="-4.7247393293182345"><ele>165.16666666666666</ele><time>2026-04-23T14:32:00.999Z</time></trkpt><trkpt lat="36.87209497847932" lon="-4.72482629882834"><ele>166.33333333333331</ele><time>2026-04-23T14:32:01.999Z</time></trkpt><trkpt lat="36.87213593654478" lon="-4.724910554855794"><ele>167.5</ele><time>2026-04-23T14:32:02.999Z</time></trkpt><trkpt lat="36.87218380909734" lon="-4.7250033641559455"><ele>168.66666666666666</ele><time>2026-04-23T14:32:03.999Z</time></trkpt><trkpt lat="36.87223596601186" lon="-4.7250934442014305"><ele>169.83333333333334</ele><time>2026-04-23T14:32:04.999Z</time></trkpt><trkpt lat="36.87229294143921" lon="-4.725183523571141"><ele>171.0</ele><time>2026-04-23T14:32:05.999Z</time></trkpt><trkpt lat="36.87235719428663" lon="-4.725282985525475"><ele>171.8</ele><time>2026-04-23T14:32:06.999Z</time></trkpt><trkpt lat="36.8724163874253" lon="-4.725397079783845"><ele>172.60000000000002</ele><time>2026-04-23T14:32:07.999Z</time></trkpt><trkpt lat="36.87246231028033" lon="-4.7255164605808995"><ele>173.4</ele><time>2026-04-23T14:32:08.999Z</time></trkpt><trkpt lat="36.872503349767626" lon="-4.725634770726311"><ele>174.2</ele><time>2026-04-23T14:32:09.999Z</time></trkpt><trkpt lat="36.87254997448999" lon="-4.72575075040789"><ele>175.0</ele><time>2026-04-23T14:32:10.999Z</time></trkpt><trkpt lat="36.87260012917264" lon="-4.725873580642583"><ele>174.5</ele><time>2026-04-23T14:32:11.999Z</time></trkpt><trkpt lat="36.87265377689951" lon="-4.726002805102297"><ele>174.0</ele><time>2026-04-23T14:32:12.999Z</time></trkpt><trkpt lat="36.87271458090048" lon="-4.72613173178618"><ele>173.5</ele><time>2026-04-23T14:32:13.999Z</time></trkpt><trkpt lat="36.87278812258034" lon="-4.726250109544805"><ele>173.0</ele><time>2026-04-23T14:32:14.999Z</time></trkpt><trkpt lat="36.872876043788025" lon="-4.7263608212474475"><ele>173.0</ele><time>2026-04-23T14:32:15.999Z</time></trkpt><trkpt lat="36.87296763626059" lon="-4.726469706079435"><ele>173.0</ele><time>2026-04-23T14:32:16.999Z</time></trkpt><trkpt lat="36.8730577090832" lon="-4.726576435331394"><ele>173.0</ele><time>2026-04-23T14:32:17.999Z</time></trkpt><trkpt lat="36.87314588661445" lon="-4.726688624760347"><ele>173.0</ele><time>2026-04-23T14:32:18.999Z</time></trkpt><trkpt lat="36.87323544574918" lon="-4.726799506916343"><ele>174.5</ele><time>2026-04-23T14:32:19.999Z</time></trkpt><trkpt lat="36.873318431200225" lon="-4.726917123267969"><ele>176.0</ele><time>2026-04-23T14:32:20.999Z</time></trkpt><trkpt lat="36.87338602827019" lon="-4.7270508709406265"><ele>177.5</ele><time>2026-04-23T14:32:21.999Z</time></trkpt><trkpt lat="36.873436775299616" lon="-4.72719417308944"><ele>179.0</ele><time>2026-04-23T14:32:22.999Z</time></trkpt><trkpt lat="36.87347508327021" lon="-4.727340866751136"><ele>179.0</ele><time>2026-04-23T14:32:23.999Z</time></trkpt><trkpt lat="36.87350321445196" lon="-4.727475667798247"><ele>179.0</ele><time>2026-04-23T14:32:24.999Z</time></trkpt><trkpt lat="36.87354415638337" lon="-4.727611212713186"><ele>179.0</ele><time>2026-04-23T14:32:25.999Z</time></trkpt><trkpt lat="36.87359335281844" lon="-4.727733521300537"><ele>179.0</ele><time>2026-04-23T14:32:26.999Z</time></trkpt><trkpt lat="36.873656672406355" lon="-4.727841742215298"><ele>179.0</ele><time>2026-04-23T14:32:28Z</time></trkpt><trkpt lat="36.87371966651926" lon="-4.727944758846926"><ele>181.6</ele><time>2026-04-23T14:32:29Z</time></trkpt><trkpt lat="36.87378769448506" lon="-4.728038828222173"><ele>184.2</ele><time>2026-04-23T14:32:30Z</time></trkpt><trkpt lat="36.87384754679258" lon="-4.72813676901198"><ele>186.79999999999998</ele><time>2026-04-23T14:32:31Z</time></trkpt><trkpt lat="36.873900792393684" lon="-4.72823679113694"><ele>189.39999999999998</ele><time>2026-04-23T14:32:32Z</time></trkpt><trkpt lat="36.873948163685085" lon="-4.728341805417849"><ele>192.0</ele><time>2026-04-23T14:32:33Z</time></trkpt><trkpt lat="36.87398939246335" lon="-4.72845545412598"><ele>192.0</ele><time>2026-04-23T14:32:34Z</time></trkpt><trkpt lat="36.87402910522789" lon="-4.728578622968822"><ele>192.0</ele><time>2026-04-23T14:32:35Z</time></trkpt><trkpt lat="36.874073134839314" lon="-4.728704315645445"><ele>192.0</ele><time>2026-04-23T14:32:36Z</time></trkpt><trkpt lat="36.87412744930292" lon="-4.72883208202119"><ele>192.0</ele><time>2026-04-23T14:32:37Z</time></trkpt><trkpt lat="36.87419096653022" lon="-4.728953736119302"><ele>192.0</ele><time>2026-04-23T14:32:38Z</time></trkpt><trkpt lat="36.874234472556786" lon="-4.7290960626171525"><ele>192.39999999999998</ele><time>2026-04-23T14:32:39Z</time></trkpt><trkpt lat="36.87427478460568" lon="-4.729231378580691"><ele>192.79999999999998</ele><time>2026-04-23T14:32:40Z</time></trkpt><trkpt lat="36.87431122677707" lon="-4.729350542048647"><ele>193.2</ele><time>2026-04-23T14:32:41Z</time></trkpt><trkpt lat="36.874319096238374" lon="-4.7294802143693095"><ele>193.6</ele><time>2026-04-23T14:32:42Z</time></trkpt><trkpt lat="36.874364655965714" lon="-4.729591082201139"><ele>194.0</ele><time>2026-04-23T14:32:42.999Z</time></trkpt><trkpt lat="36.87440489818162" lon="-4.729705204963647"><ele>195.6</ele><time>2026-04-23T14:32:43.999Z</time></trkpt><trkpt lat="36.874451944190085" lon="-4.729817240498001"><ele>197.2</ele><time>2026-04-23T14:32:44.999Z</time></trkpt><trkpt lat="36.87449993207789" lon="-4.729919474784467"><ele>198.79999999999998</ele><time>2026-04-23T14:32:45.999Z</time></trkpt><trkpt lat="36.874555458747054" lon="-4.730018079668836"><ele>200.39999999999998</ele><time>2026-04-23T14:32:46.999Z</time></trkpt><trkpt lat="36.874617618651875" lon="-4.73011864464348"><ele>202.0</ele><time>2026-04-23T14:32:47.999Z</time></trkpt><trkpt lat="36.874681190489014" lon="-4.7302205151229675"><ele>202.39999999999998</ele><time>2026-04-23T14:32:48.999Z</time></trkpt><trkpt lat="36.874740891264125" lon="-4.73032934178512"><ele>202.79999999999998</ele><time>2026-04-23T14:32:49.999Z</time></trkpt><trkpt lat="36.874798846659445" lon="-4.730442865683553"><ele>203.2</ele><time>2026-04-23T14:32:50.999Z</time></trkpt><trkpt lat="36.87485145222366" lon="-4.730561741812545"><ele>203.6</ele><time>2026-04-23T14:32:51.999Z</time></trkpt><trkpt lat="36.87489922278671" lon="-4.73067421443631"><ele>204.0</ele><time>2026-04-23T14:32:52.999Z</time></trkpt><trkpt lat="36.87494407120755" lon="-4.730776089665822"><ele>204.0</ele><time>2026-04-23T14:32:53.999Z</time></trkpt><trkpt lat="36.87499353301166" lon="-4.7308885452015"><ele>204.0</ele><time>2026-04-23T14:32:54.999Z</time></trkpt><trkpt lat="36.87505455497526" lon="-4.7309885944388155"><ele>204.0</ele><time>2026-04-23T14:32:55.999Z</time></trkpt><trkpt lat="36.87512999875439" lon="-4.731034599046529"><ele>204.0</ele><time>2026-04-23T14:32:56.998Z</time></trkpt><trkpt lat="36.87519672163117" lon="-4.731040829632238"><ele>204.0</ele><time>2026-04-23T14:32:57.998Z</time></trkpt><trkpt lat="36.87530093776093" lon="-4.731020443727017"><ele>204.0</ele><time>2026-04-23T14:32:59.998Z</time></trkpt><trkpt lat="36.8753670525036" lon="-4.731019882374337"><ele>204.0</ele><time>2026-04-23T14:33:00.998Z</time></trkpt><trkpt lat="36.87545300533542" lon="-4.730981872252082"><ele>204.0</ele><time>2026-04-23T14:33:01.998Z</time></trkpt><trkpt lat="36.875553058375125" lon="-4.730954818735728"><ele>204.0</ele><time>2026-04-23T14:33:02.998Z</time></trkpt><trkpt lat="36.87566727746807" lon="-4.730919901327533"><ele>204.0</ele><time>2026-04-23T14:33:03.998Z</time></trkpt><trkpt lat="36.875816143669695" lon="-4.73088356420491"><ele>203.5</ele><time>2026-04-23T14:33:04.998Z</time></trkpt><trkpt lat="36.875941119763624" lon="-4.73087624629306"><ele>203.0</ele><time>2026-04-23T14:33:05.998Z</time></trkpt><trkpt lat="36.876067263441115" lon="-4.730908146797122"><ele>202.5</ele><time>2026-04-23T14:33:06.998Z</time></trkpt><trkpt lat="36.876189384670425" lon="-4.730963134360002"><ele>202.0</ele><time>2026-04-23T14:33:07.998Z</time></trkpt><trkpt lat="36.876311942291274" lon="-4.7310249550946475"><ele>201.5</ele><time>2026-04-23T14:33:08.998Z</time></trkpt><trkpt lat="36.8764322541379" lon="-4.731074325744374"><ele>201.0</ele><time>2026-04-23T14:33:09.998Z</time></trkpt><trkpt lat="36.87654992336176" lon="-4.731108317017061"><ele>200.5</ele><time>2026-04-23T14:33:10.998Z</time></trkpt><trkpt lat="36.876666862728165" lon="-4.731134746067064"><ele>200.0</ele><time>2026-04-23T14:33:11.998Z</time></trkpt><trkpt lat="36.87678547869514" lon="-4.731158808729399"><ele>200.0</ele><time>2026-04-23T14:33:12.998Z</time></trkpt><trkpt lat="36.876901807553836" lon="-4.731183143360794"><ele>200.0</ele><time>2026-04-23T14:33:13.998Z</time></trkpt><trkpt lat="36.87701552048076" lon="-4.731207844921083"><ele>200.0</ele><time>2026-04-23T14:33:14.998Z</time></trkpt><trkpt lat="36.87713658780238" lon="-4.731233527161528"><ele>200.0</ele><time>2026-04-23T14:33:15.998Z</time></trkpt><trkpt lat="36.877262798340226" lon="-4.7312568300269815"><ele>200.0</ele><time>2026-04-23T14:33:16.998Z</time></trkpt><trkpt lat="36.87739118546725" lon="-4.7312828009846495"><ele>200.0</ele><time>2026-04-23T14:33:17.998Z</time></trkpt><trkpt lat="36.877512430408544" lon="-4.731311356498"><ele>200.0</ele><time>2026-04-23T14:33:18.998Z</time></trkpt><trkpt lat="36.877630669289424" lon="-4.731335756796397"><ele>200.0</ele><time>2026-04-23T14:33:19.998Z</time></trkpt><trkpt lat="36.877745373190955" lon="-4.731358287154513"><ele>198.2</ele><time>2026-04-23T14:33:20.998Z</time></trkpt><trkpt lat="36.87785772943213" lon="-4.731380099215953"><ele>196.4</ele><time>2026-04-23T14:33:21.998Z</time></trkpt><trkpt lat="36.877967020133156" lon="-4.7314023962031"><ele>194.60000000000002</ele><time>2026-04-23T14:33:22.998Z</time></trkpt><trkpt lat="36.878076199335986" lon="-4.7314246701296625"><ele>192.8</ele><time>2026-04-23T14:33:23.998Z</time></trkpt><trkpt lat="36.87818733529981" lon="-4.731449412135006"><ele>191.0</ele><time>2026-04-23T14:33:24.998Z</time></trkpt><trkpt lat="36.87829917291063" lon="-4.731470101891254"><ele>191.0</ele><time>2026-04-23T14:33:25.998Z</time></trkpt><trkpt lat="36.878409789297116" lon="-4.731488769950396"><ele>191.0</ele><time>2026-04-23T14:33:26.998Z</time></trkpt><trkpt lat="36.878519537439914" lon="-4.731505727359013"><ele>191.0</ele><time>2026-04-23T14:33:27.998Z</time></trkpt><trkpt lat="36.87862851126086" lon="-4.731521259175032"><ele>191.0</ele><time>2026-04-23T14:33:28.998Z</time></trkpt><trkpt lat="36.87873578486021" lon="-4.731544167987375"><ele>191.0</ele><time>2026-04-23T14:33:29.998Z</time></trkpt><trkpt lat="36.87884359527414" lon="-4.73157178963974"><ele>191.25</ele><time>2026-04-23T14:33:30.998Z</time></trkpt><trkpt lat="36.8789619408957" lon="-4.73159938453687"><ele>191.5</ele><time>2026-04-23T14:33:31.998Z</time></trkpt><trkpt lat="36.87908343098305" lon="-4.731621694964653"><ele>191.75</ele><time>2026-04-23T14:33:32.998Z</time></trkpt><trkpt lat="36.87920148718476" lon="-4.731630135149592"><ele>192.0</ele><time>2026-04-23T14:33:33.998Z</time></trkpt><trkpt lat="36.87932291080527" lon="-4.731618834917472"><ele>191.5</ele><time>2026-04-23T14:33:34.998Z</time></trkpt><trkpt lat="36.8794487796244" lon="-4.731584900622502"><ele>191.0</ele><time>2026-04-23T14:33:35.998Z</time></trkpt><trkpt lat="36.879571100545846" lon="-4.731546026009956"><ele>190.5</ele><time>2026-04-23T14:33:36.998Z</time></trkpt><trkpt lat="36.87968487802745" lon="-4.731519825508134"><ele>190.0</ele><time>2026-04-23T14:33:37.998Z</time></trkpt><trkpt lat="36.87978731536254" lon="-4.731487260976044"><ele>190.0</ele><time>2026-04-23T14:33:38.998Z</time></trkpt><trkpt lat="36.879879102142915" lon="-4.731436592328524"><ele>190.0</ele><time>2026-04-23T14:33:39.998Z</time></trkpt><trkpt lat="36.87996457525007" lon="-4.731367591421289"><ele>190.0</ele><time>2026-04-23T14:33:40.998Z</time></trkpt><trkpt lat="36.88004426752114" lon="-4.731298576535712"><ele>190.0</ele><time>2026-04-23T14:33:41.998Z</time></trkpt><trkpt lat="36.88012825803023" lon="-4.7312563327028965"><ele>190.0</ele><time>2026-04-23T14:33:42.998Z</time></trkpt><trkpt lat="36.880222315982316" lon="-4.73125386986619"><ele>186.5</ele><time>2026-04-23T14:33:43.998Z</time></trkpt><trkpt lat="36.880318749544806" lon="-4.731307066774934"><ele>183.0</ele><time>2026-04-23T14:33:44.998Z</time></trkpt><trkpt lat="36.88039845026983" lon="-4.7314121857580185"><ele>179.5</ele><time>2026-04-23T14:33:45.998Z</time></trkpt><trkpt lat="36.88044965519578" lon="-4.731549372672236"><ele>176.0</ele><time>2026-04-23T14:33:46.998Z</time></trkpt><trkpt lat="36.88046381810571" lon="-4.731705814397893"><ele>176.0</ele><time>2026-04-23T14:33:47.998Z</time></trkpt><trkpt lat="36.88045766009534" lon="-4.731856370625957"><ele>176.0</ele><time>2026-04-23T14:33:48.998Z</time></trkpt><trkpt lat="36.88046942761746" lon="-4.731999635816968"><ele>176.0</ele><time>2026-04-23T14:33:49.998Z</time></trkpt><trkpt lat="36.8805240425327" lon="-4.732122316246063"><ele>176.0</ele><time>2026-04-23T14:33:50.998Z</time></trkpt><trkpt lat="36.88061419461818" lon="-4.732201410683913"><ele>176.8</ele><time>2026-04-23T14:33:51.998Z</time></trkpt><trkpt lat="36.880717720648526" lon="-4.7322387728643776"><ele>177.60000000000002</ele><time>2026-04-23T14:33:52.998Z</time></trkpt><trkpt lat="36.88082032200102" lon="-4.732226555475269"><ele>178.4</ele><time>2026-04-23T14:33:53.998Z</time></trkpt><trkpt lat="36.88091300451112" lon="-4.7321607022250864"><ele>179.2</ele><time>2026-04-23T14:33:54.998Z</time></trkpt><trkpt lat="36.8809965147275" lon="-4.732089038822393"><ele>180.0</ele><time>2026-04-23T14:33:55.998Z</time></trkpt><trkpt lat="36.88108375962934" lon="-4.73199320895116"><ele>180.0</ele><time>2026-04-23T14:33:56.998Z</time></trkpt><trkpt lat="36.88116100986779" lon="-4.7318860674795635"><ele>180.0</ele><time>2026-04-23T14:33:57.997Z</time></trkpt><trkpt lat="36.88123864958689" lon="-4.73177963088371"><ele>180.0</ele><time>2026-04-23T14:33:58.997Z</time></trkpt><trkpt lat="36.88132294927896" lon="-4.731669526665381"><ele>180.0</ele><time>2026-04-23T14:33:59.997Z</time></trkpt><trkpt lat="36.88141162919142" lon="-4.731558795792393"><ele>180.0</ele><time>2026-04-23T14:34:00.997Z</time></trkpt><trkpt lat="36.881494826084975" lon="-4.731438523681485"><ele>180.0</ele><time>2026-04-23T14:34:01.997Z</time></trkpt><trkpt lat="36.88154168980431" lon="-4.7313018483644305"><ele>180.0</ele><time>2026-04-23T14:34:02.997Z</time></trkpt><trkpt lat="36.88158663737684" lon="-4.731178144995047"><ele>180.0</ele><time>2026-04-23T14:34:03.997Z</time></trkpt><trkpt lat="36.88163187364331" lon="-4.731063333597617"><ele>178.75</ele><time>2026-04-23T14:34:04.997Z</time></trkpt><trkpt lat="36.88171479088544" lon="-4.730962851739394"><ele>177.5</ele><time>2026-04-23T14:34:05.997Z</time></trkpt><trkpt lat="36.881823067906474" lon="-4.730888494776852"><ele>176.25</ele><time>2026-04-23T14:34:06.997Z</time></trkpt><trkpt lat="36.88192973831228" lon="-4.730823640875448"><ele>175.0</ele><time>2026-04-23T14:34:07.997Z</time></trkpt><trkpt lat="36.882024224554655" lon="-4.7307664129409455"><ele>173.0</ele><time>2026-04-23T14:34:08.997Z</time></trkpt><trkpt lat="36.88211051957773" lon="-4.73072033382729"><ele>171.0</ele><time>2026-04-23T14:34:09.997Z</time></trkpt><trkpt lat="36.882197137554634" lon="-4.730700485783943"><ele>169.0</ele><time>2026-04-23T14:34:10.997Z</time></trkpt><trkpt lat="36.88228522774951" lon="-4.730724193051691"><ele>167.0</ele><time>2026-04-23T14:34:11.997Z</time></trkpt><trkpt lat="36.88236401269013" lon="-4.730798015600356"><ele>165.0</ele><time>2026-04-23T14:34:12.997Z</time></trkpt><trkpt lat="36.88242400065498" lon="-4.730907116528134"><ele>165.0</ele><time>2026-04-23T14:34:13.997Z</time></trkpt><trkpt lat="36.882444481194405" lon="-4.731039594845276"><ele>165.0</ele><time>2026-04-23T14:34:14.997Z</time></trkpt><trkpt lat="36.88242716078992" lon="-4.731191018806245"><ele>165.0</ele><time>2026-04-23T14:34:15.997Z</time></trkpt><trkpt lat="36.88238384679978" lon="-4.731336457383147"><ele>165.0</ele><time>2026-04-23T14:34:16.997Z</time></trkpt><trkpt lat="36.88234920727558" lon="-4.731480869223106"><ele>164.25</ele><time>2026-04-23T14:34:17.997Z</time></trkpt><trkpt lat="36.882313604815586" lon="-4.731631957837916"><ele>163.5</ele><time>2026-04-23T14:34:18.997Z</time></trkpt><trkpt lat="36.882273467784096" lon="-4.7317883575150415"><ele>162.75</ele><time>2026-04-23T14:34:19.997Z</time></trkpt><trkpt lat="36.88223391840975" lon="-4.7319514313277455"><ele>162.0</ele><time>2026-04-23T14:34:20.997Z</time></trkpt><trkpt lat="36.88219546396277" lon="-4.732119245863443"><ele>161.5</ele><time>2026-04-23T14:34:21.997Z</time></trkpt><trkpt lat="36.882164933474776" lon="-4.732288260172985"><ele>161.0</ele><time>2026-04-23T14:34:22.997Z</time></trkpt><trkpt lat="36.882158552750916" lon="-4.732461857771094"><ele>160.5</ele><time>2026-04-23T14:34:23.997Z</time></trkpt><trkpt lat="36.88218677245455" lon="-4.732623269783755"><ele>160.0</ele><time>2026-04-23T14:34:24.997Z</time></trkpt><trkpt lat="36.88224477977311" lon="-4.732787417643385"><ele>162.0</ele><time>2026-04-23T14:34:25.997Z</time></trkpt><trkpt lat="36.882318654263315" lon="-4.732943595430574"><ele>164.0</ele><time>2026-04-23T14:34:26.997Z</time></trkpt><trkpt lat="36.882390591973575" lon="-4.733098763567848"><ele>166.0</ele><time>2026-04-23T14:34:27.997Z</time></trkpt><trkpt lat="36.88246115345596" lon="-4.733255014001397"><ele>168.0</ele><time>2026-04-23T14:34:28.997Z</time></trkpt><trkpt lat="36.88252944933029" lon="-4.733411426979385"><ele>169.25</ele><time>2026-04-23T14:34:29.997Z</time></trkpt><trkpt lat="36.882590445941254" lon="-4.733573733866602"><ele>170.5</ele><time>2026-04-23T14:34:30.997Z</time></trkpt><trkpt lat="36.882640395188695" lon="-4.733741262491848"><ele>171.75</ele><time>2026-04-23T14:34:31.997Z</time></trkpt><trkpt lat="36.882681530695656" lon="-4.73390706778102"><ele>173.0</ele><time>2026-04-23T14:34:32.997Z</time></trkpt><trkpt lat="36.88271264227949" lon="-4.734082727460487"><ele>171.0</ele><time>2026-04-23T14:34:33.997Z</time></trkpt><trkpt lat="36.882731103853274" lon="-4.734262044139734"><ele>169.0</ele><time>2026-04-23T14:34:34.997Z</time></trkpt><trkpt lat="36.8827535366025" lon="-4.734440812435708"><ele>167.0</ele><time>2026-04-23T14:34:35.997Z</time></trkpt><trkpt lat="36.882784422689" lon="-4.734614216598751"><ele>165.0</ele><time>2026-04-23T14:34:36.997Z</time></trkpt><trkpt lat="36.88282437719705" lon="-4.734785555511118"><ele>165.0</ele><time>2026-04-23T14:34:37.997Z</time></trkpt><trkpt lat="36.882885547309115" lon="-4.734948434853922"><ele>165.0</ele><time>2026-04-23T14:34:38.998Z</time></trkpt><trkpt lat="36.882963863562026" lon="-4.735094892638949"><ele>165.0</ele><time>2026-04-23T14:34:39.998Z</time></trkpt><trkpt lat="36.8830512579147" lon="-4.735229333712302"><ele>165.0</ele><time>2026-04-23T14:34:40.998Z</time></trkpt><trkpt lat="36.88314977409124" lon="-4.735351986509561"><ele>163.75</ele><time>2026-04-23T14:34:41.998Z</time></trkpt><trkpt lat="36.88325928131164" lon="-4.735457989321386"><ele>162.5</ele><time>2026-04-23T14:34:42.998Z</time></trkpt><trkpt lat="36.883369903593106" lon="-4.735551123534319"><ele>161.25</ele><time>2026-04-23T14:34:43.998Z</time></trkpt><trkpt lat="36.88347200841969" lon="-4.735643142445248"><ele>160.0</ele><time>2026-04-23T14:34:44.998Z</time></trkpt><trkpt lat="36.883571466453546" lon="-4.735744434954789"><ele>160.0</ele><time>2026-04-23T14:34:45.998Z</time></trkpt><trkpt lat="36.8836674762684" lon="-4.735857376947249"><ele>160.0</ele><time>2026-04-23T14:34:46.998Z</time></trkpt><trkpt lat="36.88375025454737" lon="-4.735977096219717"><ele>160.0</ele><time>2026-04-23T14:34:47.998Z</time></trkpt><trkpt lat="36.88381851887628" lon="-4.736102885083195"><ele>160.0</ele><time>2026-04-23T14:34:48.999Z</time></trkpt><trkpt lat="36.8838783089263" lon="-4.736228290119358"><ele>161.33333333333334</ele><time>2026-04-23T14:34:49.999Z</time></trkpt><trkpt lat="36.88392464173302" lon="-4.736338123391494"><ele>162.66666666666669</ele><time>2026-04-23T14:34:50.999Z</time></trkpt><trkpt lat="36.883965675716354" lon="-4.736435763429755"><ele>164.0</ele><time>2026-04-23T14:34:51.999Z</time></trkpt><trkpt lat="36.883984999695045" lon="-4.736520016562595"><ele>165.33333333333334</ele><time>2026-04-23T14:34:52.999Z</time></trkpt><trkpt lat="36.88399808353357" lon="-4.736602538128279"><ele>166.66666666666666</ele><time>2026-04-23T14:34:54.999Z</time></trkpt><trkpt lat="36.88388973944733" lon="-4.73663526153058"><ele>168.0</ele><time>2026-04-23T14:34:55.999Z</time></trkpt><trkpt lat="36.883773753724505" lon="-4.736656122387962"><ele>168.0</ele><time>2026-04-23T14:34:57.999Z</time></trkpt><trkpt lat="36.883698530667026" lon="-4.736660225119894"><ele>168.0</ele><time>2026-04-23T14:34:59.999Z</time></trkpt><trkpt lat="36.88367315733629" lon="-4.736566043720378"><ele>168.0</ele><time>2026-04-23T14:35:01.999Z</time></trkpt><trkpt lat="36.88367522220903" lon="-4.736473135955525"><ele>168.0</ele><time>2026-04-23T14:35:02.999Z</time></trkpt><trkpt lat="36.88364543841241" lon="-4.736375216313487"><ele>168.0</ele><time>2026-04-23T14:35:03.999Z</time></trkpt><trkpt lat="36.88359183130843" lon="-4.736287034045611"><ele>168.0</ele><time>2026-04-23T14:35:04.999Z</time></trkpt><trkpt lat="36.88351686170921" lon="-4.736212642543982"><ele>168.0</ele><time>2026-04-23T14:35:05.999Z</time></trkpt><trkpt lat="36.88343242868781" lon="-4.736113307082005"><ele>168.0</ele><time>2026-04-23T14:35:06.999Z</time></trkpt><trkpt lat="36.88336274434675" lon="-4.736013201079984"><ele>168.0</ele><time>2026-04-23T14:35:07.999Z</time></trkpt><trkpt lat="36.88323890851996" lon="-4.735942480531778"><ele>168.0</ele><time>2026-04-23T14:35:09.999Z</time></trkpt><trkpt lat="36.88315921619045" lon="-4.735893244050985"><ele>168.0</ele><time>2026-04-23T14:35:10.999Z</time></trkpt><trkpt lat="36.883087694772264" lon="-4.735830969247829"><ele>169.4</ele><time>2026-04-23T14:35:11.999Z</time></trkpt><trkpt lat="36.88304087342643" lon="-4.735753581184087"><ele>170.8</ele><time>2026-04-23T14:35:12.999Z</time></trkpt><trkpt lat="36.88298407241582" lon="-4.7356646880607265"><ele>172.2</ele><time>2026-04-23T14:35:13.999Z</time></trkpt><trkpt lat="36.88291977708077" lon="-4.735580217854073"><ele>173.6</ele><time>2026-04-23T14:35:14.999Z</time></trkpt><trkpt lat="36.88283988340169" lon="-4.735494762563573"><ele>175.0</ele><time>2026-04-23T14:35:15.999Z</time></trkpt><trkpt lat="36.88276835790709" lon="-4.735417604737455"><ele>175.0</ele><time>2026-04-23T14:35:16.999Z</time></trkpt><trkpt lat="36.88271570823724" lon="-4.7353431272042945"><ele>175.0</ele><time>2026-04-23T14:35:17.999Z</time></trkpt><trkpt lat="36.88267682791904" lon="-4.735269601613528"><ele>175.0</ele><time>2026-04-23T14:35:18.999Z</time></trkpt><trkpt lat="36.88264015048186" lon="-4.735181807327771"><ele>175.0</ele><time>2026-04-23T14:35:19.999Z</time></trkpt><trkpt lat="36.882607728913555" lon="-4.735081359975436"><ele>175.0</ele><time>2026-04-23T14:35:20.999Z</time></trkpt><trkpt lat="36.882567551493885" lon="-4.734983182554957"><ele>175.0</ele><time>2026-04-23T14:35:21.999Z</time></trkpt><trkpt lat="36.882513010104105" lon="-4.73486921706188"><ele>175.4</ele><time>2026-04-23T14:35:22.999Z</time></trkpt><trkpt lat="36.88246590129026" lon="-4.734747978212093"><ele>175.8</ele><time>2026-04-23T14:35:23.999Z</time></trkpt><trkpt lat="36.88242579087796" lon="-4.734630280875861"><ele>176.2</ele><time>2026-04-23T14:35:24.999Z</time></trkpt><trkpt lat="36.88238381423808" lon="-4.734513751916662"><ele>176.6</ele><time>2026-04-23T14:35:25.999Z</time></trkpt><trkpt lat="36.88235072573312" lon="-4.734410880197528"><ele>177.0</ele><time>2026-04-23T14:35:26.999Z</time></trkpt><trkpt lat="36.882311897731135" lon="-4.734314635360344"><ele>176.2</ele><time>2026-04-23T14:35:27.999Z</time></trkpt><trkpt lat="36.88223725270222" lon="-4.734243244782084"><ele>175.39999999999998</ele><time>2026-04-23T14:35:29.999Z</time></trkpt><trkpt lat="36.882139002665795" lon="-4.734244997085927"><ele>174.60000000000002</ele><time>2026-04-23T14:35:31.999Z</time></trkpt><trkpt lat="36.88204537484204" lon="-4.734275415218074"><ele>173.8</ele><time>2026-04-23T14:35:33.999Z</time></trkpt><trkpt lat="36.881943704624184" lon="-4.734308813208874"><ele>173.0</ele><time>2026-04-23T14:35:35.999Z</time></trkpt><trkpt lat="36.88187541003318" lon="-4.73432222945433"><ele>173.0</ele><time>2026-04-23T14:35:36.999Z</time></trkpt><trkpt lat="36.88180968231004" lon="-4.734333839565754"><ele>173.0</ele><time>2026-04-23T14:35:38.999Z</time></trkpt><trkpt lat="36.881767331525886" lon="-4.73425500724147"><ele>173.0</ele><time>2026-04-23T14:36:44Z</time></trkpt><trkpt lat="36.88166099805243" lon="-4.734236931007304"><ele>173.0</ele><time>2026-04-23T14:36:46Z</time></trkpt><trkpt lat="36.8815918404257" lon="-4.734233233093973"><ele>173.0</ele><time>2026-04-23T14:36:47Z</time></trkpt><trkpt lat="36.88149167046009" lon="-4.7342815154784486"><ele>173.0</ele><time>2026-04-23T14:36:49Z</time></trkpt><trkpt lat="36.88142169053134" lon="-4.734282093589501"><ele>176.83333333333331</ele><time>2026-04-23T14:36:52Z</time></trkpt><trkpt lat="36.88132224275277" lon="-4.734299758949787"><ele>180.66666666666666</ele><time>2026-04-23T14:36:54Z</time></trkpt><trkpt lat="36.88124651595325" lon="-4.734322351923936"><ele>184.5</ele><time>2026-04-23T14:36:55Z</time></trkpt><trkpt lat="36.88116604987577" lon="-4.734345759701116"><ele>188.33333333333331</ele><time>2026-04-23T14:36:56Z</time></trkpt><trkpt lat="36.88109085985866" lon="-4.734374181152726"><ele>192.16666666666666</ele><time>2026-04-23T14:36:57Z</time></trkpt><trkpt lat="36.8810268086872" lon="-4.734422865685656"><ele>196.0</ele><time>2026-04-23T14:36:58Z</time></trkpt><trkpt lat="36.88096704050976" lon="-4.734492478315392"><ele>196.16666666666666</ele><time>2026-04-23T14:36:59Z</time></trkpt><trkpt lat="36.880920428538566" lon="-4.734573793928866"><ele>196.33333333333331</ele><time>2026-04-23T14:37:00Z</time></trkpt><trkpt lat="36.88087653886993" lon="-4.73466505186197"><ele>196.5</ele><time>2026-04-23T14:37:01Z</time></trkpt><trkpt lat="36.88083628965515" lon="-4.734761990732636"><ele>196.66666666666669</ele><time>2026-04-23T14:37:02Z</time></trkpt><trkpt lat="36.880809355811174" lon="-4.7348689053946575"><ele>196.83333333333334</ele><time>2026-04-23T14:37:03Z</time></trkpt><trkpt lat="36.88080425716392" lon="-4.734983208400265"><ele>197.0</ele><time>2026-04-23T14:37:04Z</time></trkpt><trkpt lat="36.880808955148424" lon="-4.735095035985075"><ele>197.0</ele><time>2026-04-23T14:37:05Z</time></trkpt><trkpt lat="36.88082690655402" lon="-4.735204059945121"><ele>197.0</ele><time>2026-04-23T14:37:06Z</time></trkpt><trkpt lat="36.88085503833764" lon="-4.735305478234058"><ele>197.0</ele><time>2026-04-23T14:37:07Z</time></trkpt><trkpt lat="36.88087048456478" lon="-4.735396360671379"><ele>197.0</ele><time>2026-04-23T14:37:08Z</time></trkpt><trkpt lat="36.88087472089085" lon="-4.735475554817459"><ele>197.0</ele><time>2026-04-23T14:37:09Z</time></trkpt><trkpt lat="36.88086921452162" lon="-4.735555444554412"><ele>197.0</ele><time>2026-04-23T14:37:10Z</time></trkpt><trkpt lat="36.88085824385673" lon="-4.735633244715057"><ele>197.0</ele><time>2026-04-23T14:37:11Z</time></trkpt><trkpt lat="36.88083975472248" lon="-4.735715179627965"><ele>197.33333333333334</ele><time>2026-04-23T14:37:12Z</time></trkpt><trkpt lat="36.880814870254625" lon="-4.735799756226707"><ele>197.66666666666669</ele><time>2026-04-23T14:37:13Z</time></trkpt><trkpt lat="36.880781300088394" lon="-4.73589444109208"><ele>198.0</ele><time>2026-04-23T14:37:14Z</time></trkpt><trkpt lat="36.88074982515038" lon="-4.735985051696923"><ele>198.33333333333331</ele><time>2026-04-23T14:37:15Z</time></trkpt><trkpt lat="36.8807085586343" lon="-4.736073791736344"><ele>198.66666666666666</ele><time>2026-04-23T14:37:16Z</time></trkpt><trkpt lat="36.8806768742746" lon="-4.7361718588352"><ele>199.0</ele><time>2026-04-23T14:37:17Z</time></trkpt><trkpt lat="36.88066624705166" lon="-4.736279245195202"><ele>199.66666666666666</ele><time>2026-04-23T14:37:18Z</time></trkpt><trkpt lat="36.88066252874335" lon="-4.736383666701759"><ele>200.33333333333331</ele><time>2026-04-23T14:37:19Z</time></trkpt><trkpt lat="36.88066962767341" lon="-4.736484029609424"><ele>201.0</ele><time>2026-04-23T14:37:20Z</time></trkpt><trkpt lat="36.8806871355025" lon="-4.736593244411513"><ele>201.66666666666669</ele><time>2026-04-23T14:37:21Z</time></trkpt><trkpt lat="36.88071885164952" lon="-4.73669783545778"><ele>202.33333333333334</ele><time>2026-04-23T14:37:22Z</time></trkpt><trkpt lat="36.880751819529586" lon="-4.736782038402445"><ele>203.0</ele><time>2026-04-23T14:37:23Z</time></trkpt><trkpt lat="36.88073300128169" lon="-4.736920221389159"><ele>204.33333333333334</ele><time>2026-04-23T14:37:25Z</time></trkpt><trkpt lat="36.88068050699808" lon="-4.736996718871057"><ele>205.66666666666669</ele><time>2026-04-23T14:37:26Z</time></trkpt><trkpt lat="36.8806123082666" lon="-4.737069566119614"><ele>207.0</ele><time>2026-04-23T14:37:27Z</time></trkpt><trkpt lat="36.88054493906253" lon="-4.737131585349239"><ele>208.33333333333331</ele><time>2026-04-23T14:37:28Z</time></trkpt><trkpt lat="36.88047752062757" lon="-4.737201305071575"><ele>209.66666666666666</ele><time>2026-04-23T14:37:29Z</time></trkpt><trkpt lat="36.88041689571311" lon="-4.737276125809363"><ele>211.0</ele><time>2026-04-23T14:37:30Z</time></trkpt><trkpt lat="36.88037515747031" lon="-4.737354121510343"><ele>211.0</ele><time>2026-04-23T14:37:31Z</time></trkpt><trkpt lat="36.880333112483356" lon="-4.737436990545887"><ele>211.0</ele><time>2026-04-23T14:37:32Z</time></trkpt><trkpt lat="36.88029331963148" lon="-4.737535221578447"><ele>211.0</ele><time>2026-04-23T14:37:33Z</time></trkpt><trkpt lat="36.88027498354295" lon="-4.737662776421577"><ele>211.0</ele><time>2026-04-23T14:37:34Z</time></trkpt><trkpt lat="36.88027381763679" lon="-4.737812367444184"><ele>211.0</ele><time>2026-04-23T14:37:35Z</time></trkpt><trkpt lat="36.88028587461504" lon="-4.737950626396932"><ele>212.66666666666666</ele><time>2026-04-23T14:37:36Z</time></trkpt><trkpt lat="36.8802943738655" lon="-4.738080773024196"><ele>214.33333333333331</ele><time>2026-04-23T14:37:37Z</time></trkpt><trkpt lat="36.88028545176844" lon="-4.73820512767169"><ele>216.0</ele><time>2026-04-23T14:37:38Z</time></trkpt><trkpt lat="36.880261449025646" lon="-4.738288554219187"><ele>217.66666666666669</ele><time>2026-04-23T14:37:39Z</time></trkpt><trkpt lat="36.880215901609255" lon="-4.738343249201194"><ele>219.33333333333334</ele><time>2026-04-23T14:37:42Z</time></trkpt><trkpt lat="36.8801769967995" lon="-4.7384134393513575"><ele>221.0</ele><time>2026-04-23T14:38:12Z</time></trkpt><trkpt lat="36.880125243794986" lon="-4.738464317983229"><ele>219.20000000000002</ele><time>2026-04-23T14:38:13Z</time></trkpt><trkpt lat="36.880054778429965" lon="-4.738478865773634"><ele>217.40000000000003</ele><time>2026-04-23T14:38:14Z</time></trkpt><trkpt lat="36.879964647855665" lon="-4.738475782409939"><ele>215.6</ele><time>2026-04-23T14:38:15Z</time></trkpt><trkpt lat="36.87987605649988" lon="-4.7384637587030864"><ele>213.8</ele><time>2026-04-23T14:38:16Z</time></trkpt><trkpt lat="36.879766984281524" lon="-4.73847381430794"><ele>212.0</ele><time>2026-04-23T14:38:18Z</time></trkpt><trkpt lat="36.87965092054047" lon="-4.7384969765862115"><ele>212.00000000000003</ele><time>2026-04-23T14:38:20Z</time></trkpt><trkpt lat="36.87959567045702" lon="-4.738538478763014"><ele>212.0</ele><time>2026-04-23T14:38:21Z</time></trkpt><trkpt lat="36.8795520156222" lon="-4.738605882849358"><ele>212.0</ele><time>2026-04-23T14:38:22Z</time></trkpt><trkpt lat="36.87952051718264" lon="-4.738703191565006"><ele>212.0</ele><time>2026-04-23T14:38:23Z</time></trkpt><trkpt lat="36.879499790120626" lon="-4.73882664164946"><ele>212.00000000000003</ele><time>2026-04-23T14:38:24Z</time></trkpt><trkpt lat="36.879477668203506" lon="-4.738942412072023"><ele>212.0</ele><time>2026-04-23T14:38:25Z</time></trkpt><trkpt lat="36.87946546068176" lon="-4.739046519415422"><ele>214.16666666666669</ele><time>2026-04-23T14:38:26Z</time></trkpt><trkpt lat="36.879465499625226" lon="-4.739163396109764"><ele>216.33333333333334</ele><time>2026-04-23T14:38:27Z</time></trkpt><trkpt lat="36.87947512627028" lon="-4.739260667660583"><ele>218.5</ele><time>2026-04-23T14:38:28Z</time></trkpt><trkpt lat="36.879498684298134" lon="-4.739358248898568"><ele>220.66666666666669</ele><time>2026-04-23T14:38:29Z</time></trkpt><trkpt lat="36.87953131313259" lon="-4.739459133383921"><ele>222.83333333333334</ele><time>2026-04-23T14:38:30Z</time></trkpt><trkpt lat="36.87956347784489" lon="-4.739552163722881"><ele>225.0</ele><time>2026-04-23T14:38:31Z</time></trkpt><trkpt lat="36.87958121195532" lon="-4.739636272134639"><ele>226.0</ele><time>2026-04-23T14:38:32Z</time></trkpt><trkpt lat="36.87959842452436" lon="-4.739746202300039"><ele>227.0</ele><time>2026-04-23T14:38:33Z</time></trkpt><trkpt lat="36.879610969487096" lon="-4.739849995543048"><ele>228.0</ele><time>2026-04-23T14:38:34Z</time></trkpt><trkpt lat="36.879622447769215" lon="-4.739950335806059"><ele>229.0</ele><time>2026-04-23T14:38:35Z</time></trkpt><trkpt lat="36.8796308079791" lon="-4.740061543268753"><ele>230.0</ele><time>2026-04-23T14:38:36Z</time></trkpt><trkpt lat="36.87963353183457" lon="-4.740171182968584"><ele>231.0</ele><time>2026-04-23T14:38:37Z</time></trkpt><trkpt lat="36.879633921696474" lon="-4.740277211951811"><ele>232.0</ele><time>2026-04-23T14:38:38Z</time></trkpt><trkpt lat="36.87963253035712" lon="-4.740390906636034"><ele>233.0</ele><time>2026-04-23T14:38:39Z</time></trkpt><trkpt lat="36.879626188720586" lon="-4.740489060503775"><ele>234.0</ele><time>2026-04-23T14:38:40Z</time></trkpt><trkpt lat="36.879619340163984" lon="-4.740575418608573"><ele>235.0</ele><time>2026-04-23T14:38:41Z</time></trkpt><trkpt lat="36.879619265115004" lon="-4.7406562884098395"><ele>236.0</ele><time>2026-04-23T14:38:42Z</time></trkpt><trkpt lat="36.87962046430343" lon="-4.7407380555919385"><ele>237.0</ele><time>2026-04-23T14:38:43Z</time></trkpt><trkpt lat="36.87961618059763" lon="-4.7408863329220585"><ele>237.0</ele><time>2026-04-23T14:38:45Z</time></trkpt><trkpt lat="36.879594617728486" lon="-4.741041183104326"><ele>237.0</ele><time>2026-04-23T14:38:47Z</time></trkpt><trkpt lat="36.87955450054352" lon="-4.741186421935787"><ele>237.0</ele><time>2026-04-23T14:38:49Z</time></trkpt><trkpt lat="36.87951455023644" lon="-4.741316505515076"><ele>237.0</ele><time>2026-04-23T14:38:51Z</time></trkpt><trkpt lat="36.87946837444108" lon="-4.741444418223533"><ele>237.66666666666666</ele><time>2026-04-23T14:38:53Z</time></trkpt><trkpt lat="36.87943762454022" lon="-4.741520048394948"><ele>238.33333333333331</ele><time>2026-04-23T14:38:54Z</time></trkpt><trkpt lat="36.87940108829623" lon="-4.741597197433973"><ele>239.0</ele><time>2026-04-23T14:38:55Z</time></trkpt><trkpt lat="36.87936613384074" lon="-4.741686143432524"><ele>239.66666666666666</ele><time>2026-04-23T14:38:56Z</time></trkpt><trkpt lat="36.879344102842104" lon="-4.741765493461825"><ele>240.33333333333331</ele><time>2026-04-23T14:38:57Z</time></trkpt><trkpt lat="36.879319355961485" lon="-4.741858843759564"><ele>241.0</ele><time>2026-04-23T14:38:58Z</time></trkpt><trkpt lat="36.87930574910647" lon="-4.741965679109357"><ele>241.33333333333331</ele><time>2026-04-23T14:38:59Z</time></trkpt><trkpt lat="36.87930678800818" lon="-4.742056847648701"><ele>241.66666666666666</ele><time>2026-04-23T14:39:00Z</time></trkpt><trkpt lat="36.879240075262096" lon="-4.742172018216515"><ele>242.0</ele><time>2026-04-23T14:39:02Z</time></trkpt><trkpt lat="36.87917466743129" lon="-4.742204428362022"><ele>242.33333333333331</ele><time>2026-04-23T14:39:03Z</time></trkpt><trkpt lat="36.87910043575987" lon="-4.742212209196876"><ele>242.66666666666666</ele><time>2026-04-23T14:39:04Z</time></trkpt><trkpt lat="36.87902663115033" lon="-4.742249147307415"><ele>243.0</ele><time>2026-04-23T14:39:05Z</time></trkpt><trkpt lat="36.8789685553191" lon="-4.742311545691954"><ele>242.33333333333334</ele><time>2026-04-23T14:39:06Z</time></trkpt><trkpt lat="36.878934334545264" lon="-4.742400643106986"><ele>241.66666666666669</ele><time>2026-04-23T14:39:07Z</time></trkpt><trkpt lat="36.87889655079435" lon="-4.7425044609503155"><ele>241.0</ele><time>2026-04-23T14:39:08Z</time></trkpt><trkpt lat="36.878845002429514" lon="-4.742605398237424"><ele>240.33333333333334</ele><time>2026-04-23T14:39:09Z</time></trkpt><trkpt lat="36.878785571005366" lon="-4.742691861739816"><ele>239.66666666666669</ele><time>2026-04-23T14:39:10Z</time></trkpt><trkpt lat="36.87872116014977" lon="-4.742769703782206"><ele>239.0</ele><time>2026-04-23T14:39:11Z</time></trkpt><trkpt lat="36.878654264620074" lon="-4.742822413668938"><ele>239.6</ele><time>2026-04-23T14:39:12Z</time></trkpt><trkpt lat="36.878595107059354" lon="-4.74286446328288"><ele>240.2</ele><time>2026-04-23T14:39:13Z</time></trkpt><trkpt lat="36.87848794277087" lon="-4.742928552406691"><ele>240.79999999999998</ele><time>2026-04-23T14:39:15Z</time></trkpt><trkpt lat="36.8783853506272" lon="-4.742999576063033"><ele>241.39999999999998</ele><time>2026-04-23T14:39:17Z</time></trkpt><trkpt lat="36.87837091619123" lon="-4.743145064772154"><ele>242.0</ele><time>2026-04-23T14:39:19Z</time></trkpt><trkpt lat="36.8783962917968" lon="-4.743238405239032"><ele>242.0</ele><time>2026-04-23T14:39:20Z</time></trkpt><trkpt lat="36.87841341640586" lon="-4.7433418563647916"><ele>241.99999999999997</ele><time>2026-04-23T14:39:21Z</time></trkpt><trkpt lat="36.878417333669574" lon="-4.743441773709403"><ele>242.0</ele><time>2026-04-23T14:39:22Z</time></trkpt><trkpt lat="36.87840244208813" lon="-4.743531937222312"><ele>242.0</ele><time>2026-04-23T14:39:23Z</time></trkpt><trkpt lat="36.87837488756985" lon="-4.743615931025649"><ele>241.99999999999997</ele><time>2026-04-23T14:39:24Z</time></trkpt><trkpt lat="36.878335655585204" lon="-4.743687271168241"><ele>242.0</ele><time>2026-04-23T14:39:25Z</time></trkpt><trkpt lat="36.878289815249936" lon="-4.743751304293952"><ele>242.0</ele><time>2026-04-23T14:39:26Z</time></trkpt><trkpt lat="36.87822929188151" lon="-4.743811021413044"><ele>246.6</ele><time>2026-04-23T14:39:27Z</time></trkpt><trkpt lat="36.87816730020287" lon="-4.743870251841647"><ele>251.2</ele><time>2026-04-23T14:39:28Z</time></trkpt><trkpt lat="36.878097017094035" lon="-4.74396896448612"><ele>255.8</ele><time>2026-04-23T14:39:30Z</time></trkpt><trkpt lat="36.878069950028205" lon="-4.744082077616099"><ele>260.4</ele><time>2026-04-23T14:39:32Z</time></trkpt><trkpt lat="36.87801959359017" lon="-4.744192575335359"><ele>265.0</ele><time>2026-04-23T14:39:34Z</time></trkpt><trkpt lat="36.877951160057876" lon="-4.74425143388029"><ele>265.0</ele><time>2026-04-23T14:39:36Z</time></trkpt><trkpt lat="36.877858199237906" lon="-4.744310513344868"><ele>265.0</ele><time>2026-04-23T14:39:38Z</time></trkpt><trkpt lat="36.87776824976119" lon="-4.744348093254088"><ele>265.0</ele><time>2026-04-23T14:39:40Z</time></trkpt><trkpt lat="36.87773293048619" lon="-4.74441416169974"><ele>265.0</ele><time>2026-04-23T14:39:43Z</time></trkpt><trkpt lat="36.87772073340866" lon="-4.7445240479363004"><ele>265.0</ele><time>2026-04-23T14:40:29Z</time></trkpt><trkpt lat="36.87769494385254" lon="-4.744603550403737"><ele>265.0</ele><time>2026-04-23T14:40:30Z</time></trkpt><trkpt lat="36.87765009445124" lon="-4.744687984935828"><ele>268.4</ele><time>2026-04-23T14:40:31Z</time></trkpt><trkpt lat="36.87761753819592" lon="-4.744781469191713"><ele>271.8</ele><time>2026-04-23T14:40:32Z</time></trkpt><trkpt lat="36.87760411487067" lon="-4.744885125739214"><ele>275.2</ele><time>2026-04-23T14:40:33Z</time></trkpt><trkpt lat="36.877627340740396" lon="-4.7449900200171"><ele>278.6</ele><time>2026-04-23T14:40:34Z</time></trkpt><trkpt lat="36.87769042883405" lon="-4.745078723504859"><ele>282.0</ele><time>2026-04-23T14:40:35Z</time></trkpt><trkpt lat="36.87777711136258" lon="-4.745155041896099"><ele>285.0</ele><time>2026-04-23T14:40:36Z</time></trkpt><trkpt lat="36.87786989695055" lon="-4.745224202825132"><ele>288.0</ele><time>2026-04-23T14:40:37Z</time></trkpt><trkpt lat="36.87778097711959" lon="-4.745312739680435"><ele>291.0</ele><time>2026-04-23T14:40:38Z</time></trkpt><trkpt lat="36.87782300340369" lon="-4.745378625504658"><ele>294.0</ele><time>2026-04-23T14:40:39Z</time></trkpt><trkpt lat="36.87783261137769" lon="-4.745518347082441"><ele>297.0</ele><time>2026-04-23T14:40:41Z</time></trkpt><trkpt lat="36.87775455687214" lon="-4.7456359701077995"><ele>297.0</ele><time>2026-04-23T14:40:43Z</time></trkpt><trkpt lat="36.877689776552074" lon="-4.745639799845553"><ele>297.0</ele><time>2026-04-23T14:40:44Z</time></trkpt><trkpt lat="36.877613440488986" lon="-4.7456008119590285"><ele>297.0</ele><time>2026-04-23T14:40:45Z</time></trkpt><trkpt lat="36.87753669825319" lon="-4.745533534243534"><ele>297.0</ele><time>2026-04-23T14:40:46Z</time></trkpt><trkpt lat="36.87745345960939" lon="-4.745476871083749"><ele>297.0</ele><time>2026-04-23T14:40:47Z</time></trkpt><trkpt lat="36.87736318982417" lon="-4.745478787088604"><ele>297.0</ele><time>2026-04-23T14:40:48Z</time></trkpt><trkpt lat="36.87727610477404" lon="-4.74552379214312"><ele>295.4</ele><time>2026-04-23T14:40:49Z</time></trkpt><trkpt lat="36.877195549716596" lon="-4.745599749515418"><ele>293.79999999999995</ele><time>2026-04-23T14:40:50Z</time></trkpt><trkpt lat="36.877118117813815" lon="-4.745683943698698"><ele>292.2</ele><time>2026-04-23T14:40:51Z</time></trkpt><trkpt lat="36.87705398734406" lon="-4.745784424429085"><ele>290.59999999999997</ele><time>2026-04-23T14:40:52.001Z</time></trkpt><trkpt lat="36.877017420682634" lon="-4.7458831322709125"><ele>289.0</ele><time>2026-04-23T14:40:53.001Z</time></trkpt><trkpt lat="36.87694670554579" lon="-4.745958524752002"><ele>289.0</ele><time>2026-04-23T14:40:55.001Z</time></trkpt><trkpt lat="36.87684488350314" lon="-4.7458620923204045"><ele>289.0</ele><time>2026-04-23T14:40:57.001Z</time></trkpt><trkpt lat="36.87680796444763" lon="-4.745771416912425"><ele>289.0</ele><time>2026-04-23T14:40:58.001Z</time></trkpt><trkpt lat="36.87678235751891" lon="-4.745662407054837"><ele>289.0</ele><time>2026-04-23T14:40:59Z</time></trkpt><trkpt lat="36.87674948474141" lon="-4.745524743647905"><ele>289.0</ele><time>2026-04-23T14:41:00Z</time></trkpt><trkpt lat="36.87669952804127" lon="-4.745334399503202"><ele>287.5</ele><time>2026-04-23T14:41:01Z</time></trkpt><trkpt lat="36.87663821713277" lon="-4.745198082838106"><ele>286.0</ele><time>2026-04-23T14:41:02Z</time></trkpt><trkpt lat="36.87656733801228" lon="-4.7450980908541185"><ele>284.5</ele><time>2026-04-23T14:41:03Z</time></trkpt><trkpt lat="36.876473016211385" lon="-4.745016566454586"><ele>283.0</ele><time>2026-04-23T14:41:04Z</time></trkpt><trkpt lat="36.87635284339573" lon="-4.744967537252791"><ele>283.0</ele><time>2026-04-23T14:41:05Z</time></trkpt><trkpt lat="36.8762153225871" lon="-4.744930689253244"><ele>283.0</ele><time>2026-04-23T14:41:06Z</time></trkpt><trkpt lat="36.876075856664265" lon="-4.744897662712287"><ele>283.0</ele><time>2026-04-23T14:41:07Z</time></trkpt><trkpt lat="36.87594736442514" lon="-4.744885737300457"><ele>283.0</ele><time>2026-04-23T14:41:08Z</time></trkpt><trkpt lat="36.87583540763382" lon="-4.744870233861789"><ele>285.8333333333333</ele><time>2026-04-23T14:41:09Z</time></trkpt><trkpt lat="36.875742817662" lon="-4.744827119818349"><ele>288.66666666666663</ele><time>2026-04-23T14:41:10Z</time></trkpt><trkpt lat="36.875663165517096" lon="-4.74479460863781"><ele>291.5</ele><time>2026-04-23T14:41:11Z</time></trkpt><trkpt lat="36.87559754061046" lon="-4.744789698931639"><ele>294.3333333333333</ele><time>2026-04-23T14:41:12Z</time></trkpt><trkpt lat="36.87552966212545" lon="-4.744810787592241"><ele>297.1666666666667</ele><time>2026-04-23T14:41:13Z</time></trkpt><trkpt lat="36.87547156721834" lon="-4.744876164838508"><ele>300.0</ele><time>2026-04-23T14:41:14Z</time></trkpt><trkpt lat="36.87540252706533" lon="-4.744986962066713"><ele>300.0</ele><time>2026-04-23T14:41:15Z</time></trkpt><trkpt lat="36.875311955628675" lon="-4.745057714640747"><ele>300.0</ele><time>2026-04-23T14:41:16Z</time></trkpt><trkpt lat="36.87521176605024" lon="-4.745103129309129"><ele>300.0</ele><time>2026-04-23T14:41:17Z</time></trkpt><trkpt lat="36.87509920357216" lon="-4.745145567984728"><ele>300.0</ele><time>2026-04-23T14:41:18Z</time></trkpt><trkpt lat="36.87498599995702" lon="-4.745170345582639"><ele>300.0</ele><time>2026-04-23T14:41:19Z</time></trkpt><trkpt lat="36.87487844599343" lon="-4.745215095241125"><ele>308.2</ele><time>2026-04-23T14:41:20Z</time></trkpt><trkpt lat="36.8747792454931" lon="-4.745271061731183"><ele>316.4</ele><time>2026-04-23T14:41:21Z</time></trkpt><trkpt lat="36.87467925585561" lon="-4.745328603351606"><ele>324.6</ele><time>2026-04-23T14:41:22Z</time></trkpt><trkpt lat="36.87458341434041" lon="-4.74538366634369"><ele>332.8</ele><time>2026-04-23T14:41:23Z</time></trkpt><trkpt lat="36.87449587866833" lon="-4.745439757521193"><ele>341.0</ele><time>2026-04-23T14:41:24Z</time></trkpt><trkpt lat="36.87441262150056" lon="-4.745492589158382"><ele>341.0</ele><time>2026-04-23T14:41:25Z</time></trkpt><trkpt lat="36.87432576890128" lon="-4.745544788570793"><ele>341.0</ele><time>2026-04-23T14:41:26Z</time></trkpt><trkpt lat="36.87423976948898" lon="-4.745613636671378"><ele>341.0</ele><time>2026-04-23T14:41:27Z</time></trkpt><trkpt lat="36.87415738045739" lon="-4.7456960028920685"><ele>341.0</ele><time>2026-04-23T14:41:28Z</time></trkpt><trkpt lat="36.87408493834093" lon="-4.745789673026042"><ele>341.0</ele><time>2026-04-23T14:41:29Z</time></trkpt><trkpt lat="36.874023554987076" lon="-4.745894262560519"><ele>338.83333333333337</ele><time>2026-04-23T14:41:30Z</time></trkpt><trkpt lat="36.87397969161789" lon="-4.7459948169042825"><ele>336.6666666666667</ele><time>2026-04-23T14:41:31Z</time></trkpt><trkpt lat="36.87394383140461" lon="-4.7460985380399325"><ele>334.5</ele><time>2026-04-23T14:41:32Z</time></trkpt><trkpt lat="36.87389253954064" lon="-4.74618913372395"><ele>332.3333333333333</ele><time>2026-04-23T14:41:33Z</time></trkpt><trkpt lat="36.87382043677603" lon="-4.746259888178355"><ele>330.16666666666663</ele><time>2026-04-23T14:41:34Z</time></trkpt><trkpt lat="36.873742592347206" lon="-4.746302085066234"><ele>328.0</ele><time>2026-04-23T14:41:35Z</time></trkpt><trkpt lat="36.873659207414" lon="-4.74636486244354"><ele>328.4</ele><time>2026-04-23T14:41:36Z</time></trkpt><trkpt lat="36.87359495755128" lon="-4.7464491365040224"><ele>328.79999999999995</ele><time>2026-04-23T14:41:37Z</time></trkpt><trkpt lat="36.873536912569065" lon="-4.746546719304384"><ele>329.2</ele><time>2026-04-23T14:41:38Z</time></trkpt><trkpt lat="36.873476845035775" lon="-4.746633950256323"><ele>329.6</ele><time>2026-04-23T14:41:39Z</time></trkpt><trkpt lat="36.873429259475095" lon="-4.7467468582986365"><ele>330.0</ele><time>2026-04-23T14:41:40Z</time></trkpt><trkpt lat="36.873381518175734" lon="-4.7468540745440855"><ele>334.2</ele><time>2026-04-23T14:41:41Z</time></trkpt><trkpt lat="36.87333527893014" lon="-4.746959884269409"><ele>338.4</ele><time>2026-04-23T14:41:42Z</time></trkpt><trkpt lat="36.87329509474689" lon="-4.74707270848682"><ele>342.6</ele><time>2026-04-23T14:41:43Z</time></trkpt><trkpt lat="36.87326410406515" lon="-4.747189263378623"><ele>346.8</ele><time>2026-04-23T14:41:44Z</time></trkpt><trkpt lat="36.87323304513089" lon="-4.747305593726316"><ele>351.0</ele><time>2026-04-23T14:41:45Z</time></trkpt><trkpt lat="36.8731997412741" lon="-4.747431578128344"><ele>351.0</ele><time>2026-04-23T14:41:46Z</time></trkpt><trkpt lat="36.87316505548459" lon="-4.747554448844561"><ele>351.0</ele><time>2026-04-23T14:41:47Z</time></trkpt><trkpt lat="36.873137108397245" lon="-4.747672187820126"><ele>351.0</ele><time>2026-04-23T14:41:48Z</time></trkpt><trkpt lat="36.873125466391286" lon="-4.747799486629506"><ele>351.0</ele><time>2026-04-23T14:41:49Z</time></trkpt><trkpt lat="36.87312206559332" lon="-4.7479322878896655"><ele>351.0</ele><time>2026-04-23T14:41:50Z</time></trkpt><trkpt lat="36.87311847608814" lon="-4.748056669226933"><ele>353.8</ele><time>2026-04-23T14:41:51Z</time></trkpt><trkpt lat="36.8731218868808" lon="-4.748191305442393"><ele>356.6</ele><time>2026-04-23T14:41:52Z</time></trkpt><trkpt lat="36.87313441388225" lon="-4.7483232588109"><ele>359.4</ele><time>2026-04-23T14:41:53Z</time></trkpt><trkpt lat="36.87313859906161" lon="-4.748454837362393"><ele>362.2</ele><time>2026-04-23T14:41:54Z</time></trkpt><trkpt lat="36.87313501019675" lon="-4.748590156643184"><ele>365.0</ele><time>2026-04-23T14:41:55Z</time></trkpt><trkpt lat="36.873123983160724" lon="-4.7487203703593925"><ele>365.0</ele><time>2026-04-23T14:41:56Z</time></trkpt><trkpt lat="36.8731157131366" lon="-4.7488423167904195"><ele>365.0</ele><time>2026-04-23T14:41:57Z</time></trkpt><trkpt lat="36.87312676739654" lon="-4.7489641364548545"><ele>365.0</ele><time>2026-04-23T14:41:58Z</time></trkpt><trkpt lat="36.87315445626681" lon="-4.749087663345748"><ele>365.0</ele><time>2026-04-23T14:41:59Z</time></trkpt><trkpt lat="36.8731906644715" lon="-4.749215392288045"><ele>365.0</ele><time>2026-04-23T14:42:00Z</time></trkpt><trkpt lat="36.87323288486352" lon="-4.749345421073263"><ele>363.4</ele><time>2026-04-23T14:42:01Z</time></trkpt><trkpt lat="36.873297145345425" lon="-4.749463720360716"><ele>361.8</ele><time>2026-04-23T14:42:02Z</time></trkpt><trkpt lat="36.87337598095773" lon="-4.749567581284259"><ele>360.20000000000005</ele><time>2026-04-23T14:42:03Z</time></trkpt><trkpt lat="36.873470610670566" lon="-4.7496538714974275"><ele>358.6</ele><time>2026-04-23T14:42:04Z</time></trkpt><trkpt lat="36.873562662650954" lon="-4.749709582341494"><ele>357.0</ele><time>2026-04-23T14:42:05Z</time></trkpt><trkpt lat="36.87363809271063" lon="-4.749747633693103"><ele>365.6</ele><time>2026-04-23T14:42:06Z</time></trkpt><trkpt lat="36.87370322491863" lon="-4.749827996563976"><ele>374.20000000000005</ele><time>2026-04-23T14:42:08Z</time></trkpt><trkpt lat="36.87369908623786" lon="-4.749964425889386"><ele>382.8</ele><time>2026-04-23T14:42:10Z</time></trkpt><trkpt lat="36.873666504901834" lon="-4.750112646207812"><ele>391.4</ele><time>2026-04-23T14:42:12Z</time></trkpt><trkpt lat="36.87363379910822" lon="-4.750190585419811"><ele>400.0</ele><time>2026-04-23T14:42:13Z</time></trkpt><trkpt lat="36.87356897642806" lon="-4.75030377865825"><ele>400.33333333333337</ele><time>2026-04-23T14:42:15Z</time></trkpt><trkpt lat="36.873521509483524" lon="-4.750409772239159"><ele>400.6666666666667</ele><time>2026-04-23T14:42:17Z</time></trkpt><trkpt lat="36.873496718479" lon="-4.750534749068408"><ele>401.0</ele><time>2026-04-23T14:42:19Z</time></trkpt><trkpt lat="36.873517498258636" lon="-4.750637804092109"><ele>401.33333333333337</ele><time>2026-04-23T14:42:21Z</time></trkpt><trkpt lat="36.873544673434125" lon="-4.750714146019124"><ele>401.6666666666667</ele><time>2026-04-23T14:42:24Z</time></trkpt><trkpt lat="36.87357772857611" lon="-4.750815400161931"><ele>402.0</ele><time>2026-04-23T14:42:26Z</time></trkpt><trkpt lat="36.873655428886245" lon="-4.750937073130654"><ele>402.0</ele><time>2026-04-23T14:42:28Z</time></trkpt><trkpt lat="36.87371698415362" lon="-4.750993756395792"><ele>402.0</ele><time>2026-04-23T14:42:29Z</time></trkpt><trkpt lat="36.87379070202245" lon="-4.751037200921827"><ele>402.0</ele><time>2026-04-23T14:42:30Z</time></trkpt><trkpt lat="36.873860898752035" lon="-4.751078164391804"><ele>402.0</ele><time>2026-04-23T14:42:31Z</time></trkpt><trkpt lat="36.87392311580157" lon="-4.751173864272906"><ele>402.0</ele><time>2026-04-23T14:42:33Z</time></trkpt><trkpt lat="36.87390441693829" lon="-4.751323528118867"><ele>401.6666666666667</ele><time>2026-04-23T14:42:35Z</time></trkpt><trkpt lat="36.873865843877454" lon="-4.751403228877362"><ele>401.33333333333337</ele><time>2026-04-23T14:42:36Z</time></trkpt><trkpt lat="36.87381889005673" lon="-4.751500558742674"><ele>401.0</ele><time>2026-04-23T14:42:37Z</time></trkpt><trkpt lat="36.87375959824955" lon="-4.751600505357672"><ele>400.6666666666667</ele><time>2026-04-23T14:42:38Z</time></trkpt><trkpt lat="36.87369234192354" lon="-4.751686935758801"><ele>400.33333333333337</ele><time>2026-04-23T14:42:39Z</time></trkpt><trkpt lat="36.87363622846739" lon="-4.75175299644729"><ele>400.0</ele><time>2026-04-23T14:42:40Z</time></trkpt><trkpt lat="36.87359235903182" lon="-4.751816357611017"><ele>400.00000000000006</ele><time>2026-04-23T14:42:41Z</time></trkpt><trkpt lat="36.87355569193648" lon="-4.751894066064073"><ele>400.0</ele><time>2026-04-23T14:42:42Z</time></trkpt><trkpt lat="36.873527534518864" lon="-4.751965650198514"><ele>400.0</ele><time>2026-04-23T14:42:43Z</time></trkpt><trkpt lat="36.873493899100225" lon="-4.752039811022869"><ele>400.0</ele><time>2026-04-23T14:42:44Z</time></trkpt><trkpt lat="36.87344618584552" lon="-4.752101481609177"><ele>400.00000000000006</ele><time>2026-04-23T14:42:45Z</time></trkpt><trkpt lat="36.87338986620255" lon="-4.752146654339719"><ele>400.0</ele><time>2026-04-23T14:42:46Z</time></trkpt><trkpt lat="36.87328309446517" lon="-4.752207322491234"><ele>400.0</ele><time>2026-04-23T14:42:48Z</time></trkpt><trkpt lat="36.873199636863" lon="-4.752299390290054"><ele>400.0</ele><time>2026-04-23T14:42:50Z</time></trkpt><trkpt lat="36.87309770898633" lon="-4.752352136938119"><ele>400.0</ele><time>2026-04-23T14:42:52Z</time></trkpt><trkpt lat="36.87298277572462" lon="-4.7523477008062205"><ele>400.0</ele><time>2026-04-23T14:42:54Z</time></trkpt><trkpt lat="36.87287442741183" lon="-4.752337171835638"><ele>400.0</ele><time>2026-04-23T14:42:56Z</time></trkpt><trkpt lat="36.872765854952405" lon="-4.75234094077389"><ele>400.0</ele><time>2026-04-23T14:42:58Z</time></trkpt><trkpt lat="36.87265808258901" lon="-4.75234503162915"><ele>400.0</ele><time>2026-04-23T14:43:00Z</time></trkpt><trkpt lat="36.872552759442684" lon="-4.752342104100595"><ele>400.0</ele><time>2026-04-23T14:43:02Z</time></trkpt><trkpt lat="36.872485593378805" lon="-4.752379919232752"><ele>400.0</ele><time>2026-04-23T14:43:04Z</time></trkpt><trkpt lat="36.87248313846673" lon="-4.752496395221404"><ele>400.0</ele><time>2026-04-23T14:58:28.999Z</time></trkpt><trkpt lat="36.872503189080604" lon="-4.752634257670394"><ele>401.28571428571433</ele><time>2026-04-23T14:58:30.999Z</time></trkpt><trkpt lat="36.872522422685066" lon="-4.752719867225115"><ele>402.57142857142856</ele><time>2026-04-23T14:58:31.999Z</time></trkpt><trkpt lat="36.87254675448789" lon="-4.7528047896503445"><ele>403.8571428571429</ele><time>2026-04-23T14:58:32.999Z</time></trkpt><trkpt lat="36.87258314954286" lon="-4.7528778157225675"><ele>405.14285714285717</ele><time>2026-04-23T14:58:33.999Z</time></trkpt><trkpt lat="36.872622060814955" lon="-4.752943664615411"><ele>406.42857142857144</ele><time>2026-04-23T14:58:34.999Z</time></trkpt><trkpt lat="36.872664066319345" lon="-4.753017886650146"><ele>407.7142857142857</ele><time>2026-04-23T14:58:35.999Z</time></trkpt><trkpt lat="36.872706844406615" lon="-4.7530948478231405"><ele>409.0</ele><time>2026-04-23T14:58:36.999Z</time></trkpt><trkpt lat="36.87274297913588" lon="-4.753174008990815"><ele>409.00000000000006</ele><time>2026-04-23T14:58:37.999Z</time></trkpt><trkpt lat="36.87277233478506" lon="-4.75326159151558"><ele>409.0</ele><time>2026-04-23T14:58:38.999Z</time></trkpt><trkpt lat="36.87279618105853" lon="-4.7533477235524595"><ele>409.0</ele><time>2026-04-23T14:58:39.999Z</time></trkpt><trkpt lat="36.87282398911028" lon="-4.753438366020362"><ele>409.0</ele><time>2026-04-23T14:58:40.999Z</time></trkpt><trkpt lat="36.87283812122792" lon="-4.75352720398367"><ele>409.00000000000006</ele><time>2026-04-23T14:58:41.999Z</time></trkpt><trkpt lat="36.87285725832041" lon="-4.75361940617425"><ele>409.0</ele><time>2026-04-23T14:58:42.999Z</time></trkpt><trkpt lat="36.8728674818293" lon="-4.753714495380699"><ele>408.85714285714283</ele><time>2026-04-23T14:58:43.999Z</time></trkpt><trkpt lat="36.87286344176662" lon="-4.753811273484486"><ele>408.7142857142857</ele><time>2026-04-23T14:58:44.999Z</time></trkpt><trkpt lat="36.872841704951576" lon="-4.753899119458766"><ele>408.57142857142856</ele><time>2026-04-23T14:58:45.999Z</time></trkpt><trkpt lat="36.87280985461062" lon="-4.753979653951937"><ele>408.42857142857144</ele><time>2026-04-23T14:58:46.999Z</time></trkpt><trkpt lat="36.87277271716385" lon="-4.754061298639461"><ele>408.28571428571433</ele><time>2026-04-23T14:58:47.999Z</time></trkpt><trkpt lat="36.872726142878705" lon="-4.754127551671267"><ele>408.14285714285717</ele><time>2026-04-23T14:58:48.999Z</time></trkpt><trkpt lat="36.872665248098436" lon="-4.754182871479482"><ele>408.0</ele><time>2026-04-23T14:58:49.999Z</time></trkpt><trkpt lat="36.872596359682724" lon="-4.754213028512378"><ele>408.0</ele><time>2026-04-23T14:58:50.999Z</time></trkpt><trkpt lat="36.872515629171964" lon="-4.754214398226542"><ele>408.0</ele><time>2026-04-23T14:58:51.999Z</time></trkpt><trkpt lat="36.872431702212694" lon="-4.7541961785843405"><ele>408.0</ele><time>2026-04-23T14:58:52.999Z</time></trkpt><trkpt lat="36.87235893969291" lon="-4.7541779905094375"><ele>408.0</ele><time>2026-04-23T14:58:53.999Z</time></trkpt><trkpt lat="36.87228501185118" lon="-4.754172885560276"><ele>408.0</ele><time>2026-04-23T14:58:54.999Z</time></trkpt><trkpt lat="36.872210648606064" lon="-4.754179564362828"><ele>408.0</ele><time>2026-04-23T14:58:55.999Z</time></trkpt><trkpt lat="36.87213970482151" lon="-4.754192100796066"><ele>408.0</ele><time>2026-04-23T14:58:56.999Z</time></trkpt><trkpt lat="36.87206932935948" lon="-4.754219600514631"><ele>408.0</ele><time>2026-04-23T14:58:57.999Z</time></trkpt><trkpt lat="36.87200444837201" lon="-4.7542601357081855"><ele>408.0</ele><time>2026-04-23T14:58:58.999Z</time></trkpt><trkpt lat="36.87194887869958" lon="-4.754325220286539"><ele>408.0</ele><time>2026-04-23T14:58:59.999Z</time></trkpt><trkpt lat="36.871907676325286" lon="-4.754406473136233"><ele>408.0</ele><time>2026-04-23T14:59:00.999Z</time></trkpt><trkpt lat="36.87187326010806" lon="-4.7544877389480416"><ele>408.0</ele><time>2026-04-23T14:59:01.999Z</time></trkpt><trkpt lat="36.87185154516201" lon="-4.75457265128336"><ele>408.0</ele><time>2026-04-23T14:59:02.999Z</time></trkpt><trkpt lat="36.8718359460628" lon="-4.754654260328307"><ele>410.8333333333333</ele><time>2026-04-23T14:59:03.999Z</time></trkpt><trkpt lat="36.87184339055654" lon="-4.754743431420494"><ele>413.66666666666663</ele><time>2026-04-23T14:59:04.999Z</time></trkpt><trkpt lat="36.87187230387956" lon="-4.754840797762634"><ele>416.5</ele><time>2026-04-23T14:59:05.999Z</time></trkpt><trkpt lat="36.87190731890635" lon="-4.75494027965837"><ele>419.3333333333333</ele><time>2026-04-23T14:59:06.999Z</time></trkpt><trkpt lat="36.87193855734515" lon="-4.755033665186991"><ele>422.16666666666663</ele><time>2026-04-23T14:59:07.999Z</time></trkpt><trkpt lat="36.871964630900486" lon="-4.755122287564078"><ele>425.0</ele><time>2026-04-23T14:59:08.999Z</time></trkpt><trkpt lat="36.8719788673675" lon="-4.755208279547827"><ele>424.99999999999994</ele><time>2026-04-23T14:59:09.999Z</time></trkpt><trkpt lat="36.87199053186452" lon="-4.755302155503422"><ele>425.0</ele><time>2026-04-23T14:59:10.999Z</time></trkpt><trkpt lat="36.87200266966405" lon="-4.7554034213758465"><ele>425.0</ele><time>2026-04-23T14:59:11.999Z</time></trkpt><trkpt lat="36.87202043854316" lon="-4.755500599530598"><ele>425.0</ele><time>2026-04-23T14:59:12.999Z</time></trkpt><trkpt lat="36.87202761701294" lon="-4.755596291157747"><ele>424.99999999999994</ele><time>2026-04-23T14:59:13.999Z</time></trkpt><trkpt lat="36.87203503006339" lon="-4.755688960812838"><ele>425.0</ele><time>2026-04-23T14:59:14.999Z</time></trkpt><trkpt lat="36.87203849054612" lon="-4.755874858230821"><ele>424.99999999999994</ele><time>2026-04-23T14:59:16.999Z</time></trkpt><trkpt lat="36.872043356875245" lon="-4.755965897255133"><ele>425.0</ele><time>2026-04-23T14:59:17.999Z</time></trkpt><trkpt lat="36.87204373189457" lon="-4.756058714356475"><ele>425.0</ele><time>2026-04-23T14:59:18.999Z</time></trkpt><trkpt lat="36.87204278035912" lon="-4.756157026543103"><ele>425.0</ele><time>2026-04-23T14:59:19.999Z</time></trkpt><trkpt lat="36.87204433800733" lon="-4.756256292550716"><ele>424.99999999999994</ele><time>2026-04-23T14:59:20.999Z</time></trkpt><trkpt lat="36.872050416388234" lon="-4.756359935324572"><ele>425.0</ele><time>2026-04-23T14:59:21.999Z</time></trkpt><trkpt lat="36.87205838185238" lon="-4.756467187150746"><ele>424.16666666666663</ele><time>2026-04-23T14:59:22.999Z</time></trkpt><trkpt lat="36.872070781130965" lon="-4.75657640261613"><ele>423.3333333333333</ele><time>2026-04-23T14:59:23.999Z</time></trkpt><trkpt lat="36.87207203830736" lon="-4.756687215458667"><ele>422.5</ele><time>2026-04-23T14:59:24.999Z</time></trkpt><trkpt lat="36.87206669051716" lon="-4.756802942394508"><ele>421.66666666666663</ele><time>2026-04-23T14:59:25.999Z</time></trkpt><trkpt lat="36.872060301446105" lon="-4.756917446873617"><ele>420.8333333333333</ele><time>2026-04-23T14:59:26.999Z</time></trkpt><trkpt lat="36.872055068564684" lon="-4.75702483285497"><ele>420.0</ele><time>2026-04-23T14:59:27.999Z</time></trkpt><trkpt lat="36.87204816033331" lon="-4.757131188672923"><ele>420.0</ele><time>2026-04-23T14:59:28.999Z</time></trkpt><trkpt lat="36.87203803698142" lon="-4.757240277101381"><ele>420.0</ele><time>2026-04-23T14:59:29.999Z</time></trkpt><trkpt lat="36.87201444261014" lon="-4.757346621260768"><ele>420.0</ele><time>2026-04-23T14:59:30.999Z</time></trkpt><trkpt lat="36.87199827197176" lon="-4.757459608128592"><ele>420.0</ele><time>2026-04-23T14:59:31.999Z</time></trkpt><trkpt lat="36.87199051827626" lon="-4.757573504039536"><ele>420.0</ele><time>2026-04-23T14:59:32.999Z</time></trkpt><trkpt lat="36.87199666466265" lon="-4.757692168092302"><ele>422.6666666666667</ele><time>2026-04-23T14:59:33.999Z</time></trkpt><trkpt lat="36.87202217417085" lon="-4.757805736316114"><ele>425.33333333333337</ele><time>2026-04-23T14:59:34.999Z</time></trkpt><trkpt lat="36.87204464397837" lon="-4.757902828791614"><ele>428.0</ele><time>2026-04-23T14:59:35.999Z</time></trkpt><trkpt lat="36.872067512874274" lon="-4.758019112520534"><ele>430.6666666666667</ele><time>2026-04-23T14:59:36.999Z</time></trkpt><trkpt lat="36.87210234409973" lon="-4.758119681703862"><ele>433.33333333333337</ele><time>2026-04-23T14:59:37.999Z</time></trkpt><trkpt lat="36.872136395688784" lon="-4.758224252587442"><ele>436.0</ele><time>2026-04-23T14:59:38.999Z</time></trkpt><trkpt lat="36.872174607640886" lon="-4.758331148470972"><ele>436.0</ele><time>2026-04-23T14:59:39.999Z</time></trkpt><trkpt lat="36.87222274477272" lon="-4.758432325820805"><ele>436.0</ele><time>2026-04-23T14:59:40.999Z</time></trkpt><trkpt lat="36.872272271372736" lon="-4.758529415654637"><ele>436.0</ele><time>2026-04-23T14:59:41.999Z</time></trkpt><trkpt lat="36.87232899634542" lon="-4.7586288152921155"><ele>436.0</ele><time>2026-04-23T14:59:42.999Z</time></trkpt><trkpt lat="36.87238534815058" lon="-4.7587369548453"><ele>436.0</ele><time>2026-04-23T14:59:43.999Z</time></trkpt><trkpt lat="36.872435999525784" lon="-4.758840216607065"><ele>436.6666666666667</ele><time>2026-04-23T14:59:44.999Z</time></trkpt><trkpt lat="36.872479030228774" lon="-4.758936420123883"><ele>437.33333333333337</ele><time>2026-04-23T14:59:45.998Z</time></trkpt><trkpt lat="36.87251681295167" lon="-4.759015711563994"><ele>438.0</ele><time>2026-04-23T14:59:46.998Z</time></trkpt><trkpt lat="36.87256000349334" lon="-4.759085758879268"><ele>438.66666666666663</ele><time>2026-04-23T14:59:47.998Z</time></trkpt><trkpt lat="36.8726108772339" lon="-4.759141370979622"><ele>439.3333333333333</ele><time>2026-04-23T14:59:48.998Z</time></trkpt><trkpt lat="36.87267922605848" lon="-4.75918444119257"><ele>440.0</ele><time>2026-04-23T14:59:49.998Z</time></trkpt><trkpt lat="36.872764765842405" lon="-4.759227159058503"><ele>439.99999999999994</ele><time>2026-04-23T14:59:50.998Z</time></trkpt><trkpt lat="36.87284628126902" lon="-4.759280182971514"><ele>440.0</ele><time>2026-04-23T14:59:51.998Z</time></trkpt><trkpt lat="36.87292611619181" lon="-4.759321713525331"><ele>440.0</ele><time>2026-04-23T14:59:52.998Z</time></trkpt><trkpt lat="36.87300833915207" lon="-4.75935165746752"><ele>440.0</ele><time>2026-04-23T14:59:53.998Z</time></trkpt><trkpt lat="36.87308002509749" lon="-4.759387578803121"><ele>439.99999999999994</ele><time>2026-04-23T14:59:54.998Z</time></trkpt><trkpt lat="36.87313279022419" lon="-4.759437021258937"><ele>440.0</ele><time>2026-04-23T14:59:55.998Z</time></trkpt><trkpt lat="36.873146464344956" lon="-4.759590768238093"><ele>443.16666666666663</ele><time>2026-04-23T14:59:57.998Z</time></trkpt><trkpt lat="36.87312642490145" lon="-4.759691194524662"><ele>446.3333333333333</ele><time>2026-04-23T14:59:58.998Z</time></trkpt><trkpt lat="36.873103815918505" lon="-4.759791359306155"><ele>449.5</ele><time>2026-04-23T14:59:59.998Z</time></trkpt><trkpt lat="36.87308679113476" lon="-4.759899046149004"><ele>452.66666666666663</ele><time>2026-04-23T15:00:00.998Z</time></trkpt><trkpt lat="36.873071095243965" lon="-4.760000371526972"><ele>455.8333333333333</ele><time>2026-04-23T15:00:01.999Z</time></trkpt><trkpt lat="36.873054916762825" lon="-4.7601114001783085"><ele>459.0</ele><time>2026-04-23T15:00:02.999Z</time></trkpt><trkpt lat="36.873044865024454" lon="-4.760215058639973"><ele>460.1666666666667</ele><time>2026-04-23T15:00:03.999Z</time></trkpt><trkpt lat="36.87304536784919" lon="-4.760325708144861"><ele>461.33333333333337</ele><time>2026-04-23T15:00:04.999Z</time></trkpt><trkpt lat="36.87304818568955" lon="-4.760437522595576"><ele>462.5</ele><time>2026-04-23T15:00:05.999Z</time></trkpt><trkpt lat="36.87306747188419" lon="-4.7605497837856925"><ele>463.6666666666667</ele><time>2026-04-23T15:00:06.999Z</time></trkpt><trkpt lat="36.87308234613428" lon="-4.760653845407615"><ele>464.83333333333337</ele><time>2026-04-23T15:00:07.999Z</time></trkpt><trkpt lat="36.8730842239329" lon="-4.760765311908053"><ele>466.0</ele><time>2026-04-23T15:00:08.999Z</time></trkpt><trkpt lat="36.873069519575076" lon="-4.760870263534942"><ele>466.0</ele><time>2026-04-23T15:00:09.999Z</time></trkpt><trkpt lat="36.87304955038765" lon="-4.760955934866496"><ele>466.0</ele><time>2026-04-23T15:00:10.999Z</time></trkpt><trkpt lat="36.872989691034256" lon="-4.76103722714983"><ele>466.0</ele><time>2026-04-23T15:00:12.999Z</time></trkpt><trkpt lat="36.872854526866995" lon="-4.761066689804853"><ele>466.0</ele><time>2026-04-23T15:00:14.999Z</time></trkpt><trkpt lat="36.87277707700601" lon="-4.7610878792885085"><ele>466.0</ele><time>2026-04-23T15:00:15.999Z</time></trkpt><trkpt lat="36.872695988258364" lon="-4.761124263403308"><ele>468.57142857142856</ele><time>2026-04-23T15:00:16.999Z</time></trkpt><trkpt lat="36.8726210825802" lon="-4.761181515199256"><ele>471.1428571428571</ele><time>2026-04-23T15:00:17.999Z</time></trkpt><trkpt lat="36.872565405207865" lon="-4.761245939209126"><ele>473.71428571428567</ele><time>2026-04-23T15:00:18.999Z</time></trkpt><trkpt lat="36.8725152613139" lon="-4.7613229492813005"><ele>476.2857142857143</ele><time>2026-04-23T15:00:19.999Z</time></trkpt><trkpt lat="36.872467238168575" lon="-4.761400187364678"><ele>478.8571428571428</ele><time>2026-04-23T15:00:20.999Z</time></trkpt><trkpt lat="36.87242173608478" lon="-4.761456344408968"><ele>481.4285714285714</ele><time>2026-04-23T15:00:21.999Z</time></trkpt><trkpt lat="36.872372477158024" lon="-4.761507243507058"><ele>484.0</ele><time>2026-04-23T15:00:22.999Z</time></trkpt><trkpt lat="36.872306872646405" lon="-4.761527484369712"><ele>485.79999999999995</ele><time>2026-04-23T15:00:23.999Z</time></trkpt><trkpt lat="36.872239805588514" lon="-4.761546243915018"><ele>487.59999999999997</ele><time>2026-04-23T15:00:24.999Z</time></trkpt><trkpt lat="36.87215423624908" lon="-4.761608236083275"><ele>489.4</ele><time>2026-04-23T15:00:26.999Z</time></trkpt><trkpt lat="36.87212302296265" lon="-4.761726922830891"><ele>491.2</ele><time>2026-04-23T15:00:28.999Z</time></trkpt><trkpt lat="36.872094921627735" lon="-4.76187791587092"><ele>493.0</ele><time>2026-04-23T15:00:30.999Z</time></trkpt><trkpt lat="36.87208228210108" lon="-4.762004832931437"><ele>498.4</ele><time>2026-04-23T15:00:32.999Z</time></trkpt><trkpt lat="36.872167511537796" lon="-4.76205936493274"><ele>503.79999999999995</ele><time>2026-04-23T15:00:34.999Z</time></trkpt><trkpt lat="36.87228225622764" lon="-4.762000284013811"><ele>509.2</ele><time>2026-04-23T15:00:36.999Z</time></trkpt><trkpt lat="36.87238277597858" lon="-4.7619483070468664"><ele>514.6</ele><time>2026-04-23T15:00:38.999Z</time></trkpt><trkpt lat="36.87249079523707" lon="-4.761991194847553"><ele>520.0</ele><time>2026-04-23T15:00:40.999Z</time></trkpt><trkpt lat="36.87255158589114" lon="-4.7620174982675145"><ele>520.0000000000001</ele><time>2026-04-23T15:00:41.999Z</time></trkpt><trkpt lat="36.87262265046277" lon="-4.762035179583136"><ele>520.0</ele><time>2026-04-23T15:00:42.999Z</time></trkpt><trkpt lat="36.87269637336158" lon="-4.762021986023201"><ele>520.0</ele><time>2026-04-23T15:00:43.999Z</time></trkpt><trkpt lat="36.87277015475439" lon="-4.762000459755176"><ele>520.0</ele><time>2026-04-23T15:00:44.999Z</time></trkpt><trkpt lat="36.87283447692182" lon="-4.761974310484117"><ele>520.0</ele><time>2026-04-23T15:00:45.999Z</time></trkpt><trkpt lat="36.87290401550219" lon="-4.761927640596632"><ele>520.0000000000001</ele><time>2026-04-23T15:00:46.999Z</time></trkpt><trkpt lat="36.87298250243715" lon="-4.76191891214831"><ele>520.0</ele><time>2026-04-23T15:00:47.999Z</time></trkpt><trkpt lat="36.87306243895452" lon="-4.761945257622036"><ele>520.0</ele><time>2026-04-23T15:00:48.999Z</time></trkpt><trkpt lat="36.873144039768015" lon="-4.761974899369713"><ele>520.0</ele><time>2026-04-23T15:00:49.999Z</time></trkpt><trkpt lat="36.87322084397286" lon="-4.762005563749792"><ele>520.0</ele><time>2026-04-23T15:00:50.999Z</time></trkpt><trkpt lat="36.87329338815842" lon="-4.76203872952789"><ele>520.0</ele><time>2026-04-23T15:00:51.999Z</time></trkpt><trkpt lat="36.87336412269439" lon="-4.762071589623562"><ele>520.0</ele><time>2026-04-23T15:00:52.999Z</time></trkpt><trkpt lat="36.873439919219095" lon="-4.762090750979246"><ele>520.0</ele><time>2026-04-23T15:00:53.999Z</time></trkpt><trkpt lat="36.87351395984792" lon="-4.762094169189631"><ele>518.0</ele><time>2026-04-23T15:00:54.999Z</time></trkpt><trkpt lat="36.873590345050054" lon="-4.762082384608571"><ele>516.0</ele><time>2026-04-23T15:00:55.999Z</time></trkpt><trkpt lat="36.87366518751162" lon="-4.7620645320290045"><ele>514.0</ele><time>2026-04-23T15:00:56.999Z</time></trkpt><trkpt lat="36.87373687386915" lon="-4.762019661913396"><ele>512.0</ele><time>2026-04-23T15:00:57.999Z</time></trkpt><trkpt lat="36.873787631433906" lon="-4.761941810758907"><ele>510.00000000000006</ele><time>2026-04-23T15:00:58.999Z</time></trkpt><trkpt lat="36.87384823285843" lon="-4.7618643030353915"><ele>508.0</ele><time>2026-04-23T15:00:59.999Z</time></trkpt><trkpt lat="36.87391000470191" lon="-4.761786320194723"><ele>508.00000000000006</ele><time>2026-04-23T15:01:00.999Z</time></trkpt><trkpt lat="36.87396681247866" lon="-4.761706426695618"><ele>508.0</ele><time>2026-04-23T15:01:01.999Z</time></trkpt><trkpt lat="36.87401423051777" lon="-4.761622023329356"><ele>508.0</ele><time>2026-04-23T15:01:02.999Z</time></trkpt><trkpt lat="36.87406372933866" lon="-4.761539887732344"><ele>508.0</ele><time>2026-04-23T15:01:03.999Z</time></trkpt><trkpt lat="36.87412312983858" lon="-4.7614738669406576"><ele>508.00000000000006</ele><time>2026-04-23T15:01:04.999Z</time></trkpt><trkpt lat="36.87419287448138" lon="-4.761420167794969"><ele>508.0</ele><time>2026-04-23T15:01:05.999Z</time></trkpt><trkpt lat="36.874264107289704" lon="-4.761388864483799"><ele>508.83333333333337</ele><time>2026-04-23T15:01:06.999Z</time></trkpt><trkpt lat="36.874339888233266" lon="-4.761387793932095"><ele>509.6666666666667</ele><time>2026-04-23T15:01:07.999Z</time></trkpt><trkpt lat="36.87442019515796" lon="-4.76140910831741"><ele>510.5</ele><time>2026-04-23T15:01:08.999Z</time></trkpt><trkpt lat="36.87451266678109" lon="-4.761428266842764"><ele>511.33333333333337</ele><time>2026-04-23T15:01:09.999Z</time></trkpt><trkpt lat="36.87460953992383" lon="-4.7614331512565995"><ele>512.1666666666666</ele><time>2026-04-23T15:01:10.999Z</time></trkpt><trkpt lat="36.87470400745848" lon="-4.761428206542726"><ele>513.0</ele><time>2026-04-23T15:01:11.999Z</time></trkpt><trkpt lat="36.87479337617463" lon="-4.761438188882447"><ele>513.0</ele><time>2026-04-23T15:01:12.999Z</time></trkpt><trkpt lat="36.87487549013047" lon="-4.76147021685399"><ele>513.0</ele><time>2026-04-23T15:01:13.999Z</time></trkpt><trkpt lat="36.87495354885037" lon="-4.761525615612459"><ele>513.0</ele><time>2026-04-23T15:01:14.999Z</time></trkpt><trkpt lat="36.87502041832652" lon="-4.7615959485305925"><ele>513.0</ele><time>2026-04-23T15:01:15.999Z</time></trkpt><trkpt lat="36.87509222622387" lon="-4.761652016099426"><ele>513.0</ele><time>2026-04-23T15:01:16.999Z</time></trkpt><trkpt lat="36.8751659602338" lon="-4.761678280485278"><ele>513.0</ele><time>2026-04-23T15:01:17.999Z</time></trkpt><trkpt lat="36.875241167002606" lon="-4.7616775537225875"><ele>511.8333333333333</ele><time>2026-04-23T15:01:18.999Z</time></trkpt><trkpt lat="36.875310950858115" lon="-4.7616381752228785"><ele>510.66666666666663</ele><time>2026-04-23T15:01:19.999Z</time></trkpt><trkpt lat="36.87537557139837" lon="-4.761579245304452"><ele>509.5</ele><time>2026-04-23T15:01:20.999Z</time></trkpt><trkpt lat="36.875436038378744" lon="-4.761514787509546"><ele>508.3333333333333</ele><time>2026-04-23T15:01:21.999Z</time></trkpt><trkpt lat="36.87548828454166" lon="-4.761459021843693"><ele>507.16666666666663</ele><time>2026-04-23T15:01:22.999Z</time></trkpt><trkpt lat="36.87556508166889" lon="-4.761358044903595"><ele>506.0</ele><time>2026-04-23T15:01:24.999Z</time></trkpt><trkpt lat="36.875640387464685" lon="-4.761265976707999"><ele>506.0</ele><time>2026-04-23T15:01:26.999Z</time></trkpt><trkpt lat="36.87575563572671" lon="-4.761195297452618"><ele>506.0</ele><time>2026-04-23T15:01:28.999Z</time></trkpt><trkpt lat="36.87582656910157" lon="-4.761186290372478"><ele>506.0</ele><time>2026-04-23T15:01:29.999Z</time></trkpt><trkpt lat="36.87589291072044" lon="-4.76119476808469"><ele>506.0</ele><time>2026-04-23T15:01:30.999Z</time></trkpt><trkpt lat="36.87597329258986" lon="-4.761272813861616"><ele>506.0</ele><time>2026-04-23T15:01:32.999Z</time></trkpt><trkpt lat="36.8759525732781" lon="-4.761422933563103"><ele>505.99999999999994</ele><time>2026-04-23T15:01:34.999Z</time></trkpt><trkpt lat="36.875929126337745" lon="-4.761511017081333"><ele>506.0</ele><time>2026-04-23T15:01:35.999Z</time></trkpt><trkpt lat="36.87590228306343" lon="-4.761598775929006"><ele>506.0</ele><time>2026-04-23T15:01:36.999Z</time></trkpt><trkpt lat="36.87587745170271" lon="-4.76167689055196"><ele>506.0</ele><time>2026-04-23T15:01:37.999Z</time></trkpt><trkpt lat="36.875822483256314" lon="-4.7618149469949795"><ele>505.99999999999994</ele><time>2026-04-23T15:01:39.999Z</time></trkpt><trkpt lat="36.875775994130244" lon="-4.761890599321137"><ele>506.0</ele><time>2026-04-23T15:01:40.999Z</time></trkpt><trkpt lat="36.875716940820894" lon="-4.7619763774760315"><ele>503.8333333333333</ele><time>2026-04-23T15:01:41.999Z</time></trkpt><trkpt lat="36.87564598197075" lon="-4.762055719892462"><ele>501.66666666666663</ele><time>2026-04-23T15:01:42.999Z</time></trkpt><trkpt lat="36.87557738794043" lon="-4.762132099320253"><ele>499.5</ele><time>2026-04-23T15:01:43.999Z</time></trkpt><trkpt lat="36.87550813037581" lon="-4.762206042671053"><ele>497.33333333333337</ele><time>2026-04-23T15:01:44.999Z</time></trkpt><trkpt lat="36.875441655127105" lon="-4.762267272345859"><ele>495.1666666666667</ele><time>2026-04-23T15:01:45.999Z</time></trkpt><trkpt lat="36.875389465125416" lon="-4.762333083986677"><ele>493.0</ele><time>2026-04-23T15:01:46.999Z</time></trkpt><trkpt lat="36.875338335838734" lon="-4.76240350332322"><ele>493.00000000000006</ele><time>2026-04-23T15:01:47.999Z</time></trkpt><trkpt lat="36.87530064570578" lon="-4.762495779895025"><ele>493.0</ele><time>2026-04-23T15:01:48.999Z</time></trkpt><trkpt lat="36.87528689154266" lon="-4.762605603561916"><ele>493.0</ele><time>2026-04-23T15:01:49.999Z</time></trkpt><trkpt lat="36.875287054951436" lon="-4.762714414349538"><ele>493.0</ele><time>2026-04-23T15:01:50.999Z</time></trkpt><trkpt lat="36.875287272658305" lon="-4.762825759030382"><ele>493.00000000000006</ele><time>2026-04-23T15:01:51.998Z</time></trkpt><trkpt lat="36.8752854371222" lon="-4.76292993972494"><ele>493.0</ele><time>2026-04-23T15:01:52.998Z</time></trkpt><trkpt lat="36.87529909273719" lon="-4.763022266896436"><ele>492.33333333333337</ele><time>2026-04-23T15:01:53.998Z</time></trkpt><trkpt lat="36.87532314825394" lon="-4.763116216295419"><ele>491.6666666666667</ele><time>2026-04-23T15:01:54.999Z</time></trkpt><trkpt lat="36.87536274576631" lon="-4.76320725421709"><ele>491.0</ele><time>2026-04-23T15:01:55.999Z</time></trkpt><trkpt lat="36.87541209980014" lon="-4.763298085443972"><ele>490.33333333333337</ele><time>2026-04-23T15:01:56.999Z</time></trkpt><trkpt lat="36.87547379631938" lon="-4.763389255964339"><ele>489.6666666666667</ele><time>2026-04-23T15:01:57.999Z</time></trkpt><trkpt lat="36.87552993833772" lon="-4.763457462551113"><ele>489.0</ele><time>2026-04-23T15:01:58.999Z</time></trkpt><trkpt lat="36.87557909786808" lon="-4.763506726632827"><ele>488.2</ele><time>2026-04-23T15:01:59.999Z</time></trkpt><trkpt lat="36.875648744534665" lon="-4.763592185322263"><ele>487.4</ele><time>2026-04-23T15:02:01.999Z</time></trkpt><trkpt lat="36.875673717177825" lon="-4.7636765617788495"><ele>486.6</ele><time>2026-04-23T15:02:04.999Z</time></trkpt><trkpt lat="36.87563774988662" lon="-4.763767919271519"><ele>485.8</ele><time>2026-04-23T15:03:27.999Z</time></trkpt><trkpt lat="36.87557392401985" lon="-4.763883326092734"><ele>485.0</ele><time>2026-04-23T15:03:29.999Z</time></trkpt><trkpt lat="36.8754806922913" lon="-4.763950820656523"><ele>484.99999999999994</ele><time>2026-04-23T15:03:31.999Z</time></trkpt><trkpt lat="36.87540976529616" lon="-4.763966600802319"><ele>485.0</ele><time>2026-04-23T15:03:32.999Z</time></trkpt><trkpt lat="36.87534414601773" lon="-4.763968287685496"><ele>485.0</ele><time>2026-04-23T15:03:33.999Z</time></trkpt><trkpt lat="36.875220015923084" lon="-4.763940415917008"><ele>485.0</ele><time>2026-04-23T15:03:35.999Z</time></trkpt><trkpt lat="36.87515356384739" lon="-4.7639137781877885"><ele>484.99999999999994</ele><time>2026-04-23T15:03:36.999Z</time></trkpt><trkpt lat="36.87508712874757" lon="-4.763878948987881"><ele>485.0</ele><time>2026-04-23T15:03:37.999Z</time></trkpt><trkpt lat="36.87501675851663" lon="-4.7638421565167475"><ele>486.6</ele><time>2026-04-23T15:03:38.999Z</time></trkpt><trkpt lat="36.874884339976276" lon="-4.76385118844342"><ele>488.2</ele><time>2026-04-23T15:03:40.999Z</time></trkpt><trkpt lat="36.874808242495206" lon="-4.763904740286409"><ele>489.79999999999995</ele><time>2026-04-23T15:03:41.999Z</time></trkpt><trkpt lat="36.87472981767694" lon="-4.763958008164121"><ele>491.4</ele><time>2026-04-23T15:03:42.999Z</time></trkpt><trkpt lat="36.87465909305183" lon="-4.764016783393384"><ele>493.0</ele><time>2026-04-23T15:03:43.999Z</time></trkpt><trkpt lat="36.8745789766903" lon="-4.764077064866723"><ele>493.00000000000006</ele><time>2026-04-23T15:03:44.999Z</time></trkpt><trkpt lat="36.874510823271834" lon="-4.764140709669686"><ele>493.0</ele><time>2026-04-23T15:03:45.999Z</time></trkpt><trkpt lat="36.874449997116386" lon="-4.764195486244111"><ele>493.0</ele><time>2026-04-23T15:03:46.999Z</time></trkpt><trkpt lat="36.8743957031315" lon="-4.764237608636325"><ele>493.0</ele><time>2026-04-23T15:03:47.999Z</time></trkpt><trkpt lat="36.87426463427797" lon="-4.7642554171238345"><ele>493.00000000000006</ele><time>2026-04-23T15:03:49.999Z</time></trkpt><trkpt lat="36.87419166810212" lon="-4.764213925789599"><ele>493.0</ele><time>2026-04-23T15:03:50.999Z</time></trkpt><trkpt lat="36.87412333756031" lon="-4.764151378245809"><ele>493.83333333333337</ele><time>2026-04-23T15:03:51.999Z</time></trkpt><trkpt lat="36.87406105656908" lon="-4.764083930234045"><ele>494.6666666666667</ele><time>2026-04-23T15:03:52.999Z</time></trkpt><trkpt lat="36.874016675981245" lon="-4.764011577933931"><ele>495.5</ele><time>2026-04-23T15:03:53.999Z</time></trkpt><trkpt lat="36.873976237269254" lon="-4.763949544212121"><ele>496.33333333333337</ele><time>2026-04-23T15:03:54.999Z</time></trkpt><trkpt lat="36.8738601600688" lon="-4.7639258811600484"><ele>497.1666666666667</ele><time>2026-04-23T15:03:56.999Z</time></trkpt><trkpt lat="36.8737884737434" lon="-4.763967664022984"><ele>498.0</ele><time>2026-04-23T15:03:57.996Z</time></trkpt><trkpt lat="36.873707167620005" lon="-4.764019443363006"><ele>498.0</ele><time>2026-04-23T15:03:58.996Z</time></trkpt><trkpt lat="36.873635056833194" lon="-4.7640539370041575"><ele>498.0</ele><time>2026-04-23T15:03:59.997Z</time></trkpt><trkpt lat="36.873552516379874" lon="-4.764071001926274"><ele>498.0</ele><time>2026-04-23T15:04:00.997Z</time></trkpt><trkpt lat="36.87347824007285" lon="-4.76406929478227"><ele>498.0</ele><time>2026-04-23T15:04:01.997Z</time></trkpt><trkpt lat="36.87340813563861" lon="-4.764063004081854"><ele>498.0</ele><time>2026-04-23T15:04:02.997Z</time></trkpt><trkpt lat="36.87329052977236" lon="-4.7640861473596"><ele>498.0</ele><time>2026-04-23T15:04:04.997Z</time></trkpt><trkpt lat="36.87321523888567" lon="-4.7642060203954095"><ele>498.6666666666667</ele><time>2026-04-23T15:04:06.997Z</time></trkpt><trkpt lat="36.87319014025457" lon="-4.764300457297452"><ele>499.33333333333337</ele><time>2026-04-23T15:04:07.997Z</time></trkpt><trkpt lat="36.87315967955333" lon="-4.764401333167484"><ele>500.0</ele><time>2026-04-23T15:04:08.997Z</time></trkpt><trkpt lat="36.8731044417428" lon="-4.764487948578401"><ele>500.6666666666667</ele><time>2026-04-23T15:04:09.997Z</time></trkpt><trkpt lat="36.873035459273055" lon="-4.764567707454322"><ele>501.33333333333337</ele><time>2026-04-23T15:04:10.997Z</time></trkpt><trkpt lat="36.872973818371065" lon="-4.764653286107136"><ele>502.0</ele><time>2026-04-23T15:04:11.997Z</time></trkpt><trkpt lat="36.87293032254415" lon="-4.764740351529318"><ele>501.8571428571428</ele><time>2026-04-23T15:04:12.997Z</time></trkpt><trkpt lat="36.8728976619728" lon="-4.76481805940682"><ele>501.71428571428567</ele><time>2026-04-23T15:04:13.998Z</time></trkpt><trkpt lat="36.87285485351879" lon="-4.764894730083809"><ele>501.57142857142856</ele><time>2026-04-23T15:04:14.998Z</time></trkpt><trkpt lat="36.872810443305454" lon="-4.7649685103625234"><ele>501.4285714285714</ele><time>2026-04-23T15:04:15.998Z</time></trkpt><trkpt lat="36.87275874705259" lon="-4.765019950549659"><ele>501.2857142857142</ele><time>2026-04-23T15:04:16.998Z</time></trkpt><trkpt lat="36.872698749354214" lon="-4.7650509972508095"><ele>501.14285714285717</ele><time>2026-04-23T15:04:17.998Z</time></trkpt><trkpt lat="36.87262614581696" lon="-4.76505478508574"><ele>501.0</ele><time>2026-04-23T15:04:18.998Z</time></trkpt><trkpt lat="36.87254906042454" lon="-4.765042920431038"><ele>501.0</ele><time>2026-04-23T15:04:19.998Z</time></trkpt><trkpt lat="36.87246079526518" lon="-4.765020592110224"><ele>501.0</ele><time>2026-04-23T15:04:20.998Z</time></trkpt><trkpt lat="36.872373872935306" lon="-4.765001432170514"><ele>501.0</ele><time>2026-04-23T15:04:21.998Z</time></trkpt><trkpt lat="36.87230299846023" lon="-4.764992082383215"><ele>501.0</ele><time>2026-04-23T15:04:22.998Z</time></trkpt><trkpt lat="36.872237280030696" lon="-4.7649920148846014"><ele>501.0</ele><time>2026-04-23T15:04:23.998Z</time></trkpt><trkpt lat="36.87214183502559" lon="-4.765082100613303"><ele>501.0</ele><time>2026-04-23T15:04:25.998Z</time></trkpt><trkpt lat="36.8721255940536" lon="-4.765161656397985"><ele>496.5</ele><time>2026-04-23T15:04:26.998Z</time></trkpt><trkpt lat="36.87212739348479" lon="-4.765261961459861"><ele>492.0</ele><time>2026-04-23T15:04:27.998Z</time></trkpt><trkpt lat="36.872149975487936" lon="-4.765361229867758"><ele>487.5</ele><time>2026-04-23T15:04:28.998Z</time></trkpt><trkpt lat="36.872180339309686" lon="-4.765450739417154"><ele>483.0</ele><time>2026-04-23T15:04:29.998Z</time></trkpt><trkpt lat="36.872198421759656" lon="-4.765534329030302"><ele>478.5</ele><time>2026-04-23T15:04:30.998Z</time></trkpt><trkpt lat="36.872198447811506" lon="-4.7656246481067805"><ele>474.0</ele><time>2026-04-23T15:04:31.999Z</time></trkpt><trkpt lat="36.87218767860975" lon="-4.765719785955568"><ele>474.0</ele><time>2026-04-23T15:04:32.999Z</time></trkpt><trkpt lat="36.872174921124504" lon="-4.765819545572085"><ele>474.0</ele><time>2026-04-23T15:04:33.999Z</time></trkpt><trkpt lat="36.8721618143826" lon="-4.765920323534262"><ele>474.0</ele><time>2026-04-23T15:04:34.999Z</time></trkpt><trkpt lat="36.87213903940258" lon="-4.766018538547333"><ele>474.0</ele><time>2026-04-23T15:04:35.999Z</time></trkpt><trkpt lat="36.87211106569956" lon="-4.766123588915726"><ele>474.0</ele><time>2026-04-23T15:04:36.999Z</time></trkpt><trkpt lat="36.872084272851595" lon="-4.766223208170987"><ele>474.0</ele><time>2026-04-23T15:04:37.999Z</time></trkpt><trkpt lat="36.8720617063534" lon="-4.766322983578156"><ele>472.99999999999994</ele><time>2026-04-23T15:04:38.999Z</time></trkpt><trkpt lat="36.87204213069155" lon="-4.766402547139289"><ele>472.0</ele><time>2026-04-23T15:04:39.999Z</time></trkpt><trkpt lat="36.87201500520677" lon="-4.766484501365854"><ele>470.99999999999994</ele><time>2026-04-23T15:04:40.999Z</time></trkpt><trkpt lat="36.871989216653816" lon="-4.766563923162673"><ele>469.99999999999994</ele><time>2026-04-23T15:04:41.999Z</time></trkpt><trkpt lat="36.87197872033018" lon="-4.766642843366703"><ele>469.0</ele><time>2026-04-23T15:04:42.999Z</time></trkpt><trkpt lat="36.87196318217703" lon="-4.766732738366272"><ele>467.99999999999994</ele><time>2026-04-23T15:04:43.999Z</time></trkpt><trkpt lat="36.87193383366723" lon="-4.766825415734329"><ele>466.99999999999994</ele><time>2026-04-23T15:04:44.999Z</time></trkpt><trkpt lat="36.87188945339498" lon="-4.766909516092595"><ele>466.99999999999994</ele><time>2026-04-23T15:04:45.999Z</time></trkpt><trkpt lat="36.87184677198362" lon="-4.766991028435452"><ele>467.0</ele><time>2026-04-23T15:04:46.999Z</time></trkpt><trkpt lat="36.87179712084032" lon="-4.76707697706218"><ele>466.99999999999994</ele><time>2026-04-23T15:04:47.999Z</time></trkpt><trkpt lat="36.87174259980092" lon="-4.767148914432369"><ele>466.99999999999994</ele><time>2026-04-23T15:04:48.999Z</time></trkpt><trkpt lat="36.87168662477869" lon="-4.767212144178781"><ele>467.0</ele><time>2026-04-23T15:04:49.999Z</time></trkpt><trkpt lat="36.87164012552859" lon="-4.767269283992989"><ele>466.99999999999994</ele><time>2026-04-23T15:04:50.999Z</time></trkpt><trkpt lat="36.87159222379002" lon="-4.767321790613614"><ele>466.99999999999994</ele><time>2026-04-23T15:04:51.999Z</time></trkpt><trkpt lat="36.87159108003633" lon="-4.767444889006373"><ele>467.0</ele><time>2026-04-23T15:04:53.999Z</time></trkpt><trkpt lat="36.87167929390298" lon="-4.767560993902772"><ele>467.0</ele><time>2026-04-23T15:04:55.999Z</time></trkpt><trkpt lat="36.87174104316258" lon="-4.767603993602451"><ele>467.0</ele><time>2026-04-23T15:04:56.999Z</time></trkpt><trkpt lat="36.87186316108825" lon="-4.767662108627905"><ele>467.0</ele><time>2026-04-23T15:04:58.999Z</time></trkpt><trkpt lat="36.87198769485798" lon="-4.767689159327357"><ele>468.49999999999994</ele><time>2026-04-23T15:05:00.999Z</time></trkpt><trkpt lat="36.87211305770425" lon="-4.767706310037648"><ele>470.0</ele><time>2026-04-23T15:05:02.999Z</time></trkpt><trkpt lat="36.872187201425135" lon="-4.767758498062246"><ele>471.5</ele><time>2026-04-23T15:05:04.999Z</time></trkpt><trkpt lat="36.872250653712264" lon="-4.7677863346262255"><ele>473.0</ele><time>2026-04-23T15:05:05.999Z</time></trkpt><trkpt lat="36.87231923293385" lon="-4.767811878784925"><ele>474.49999999999994</ele><time>2026-04-23T15:05:06.999Z</time></trkpt><trkpt lat="36.87238830304704" lon="-4.767837779774572"><ele>476.0</ele><time>2026-04-23T15:05:07.999Z</time></trkpt><trkpt lat="36.872466050177934" lon="-4.767829330319135"><ele>476.0</ele><time>2026-04-23T15:05:08.999Z</time></trkpt><trkpt lat="36.87252341162531" lon="-4.767873195150907"><ele>476.0</ele><time>2026-04-23T15:05:09.999Z</time></trkpt><trkpt lat="36.87258680448549" lon="-4.7678930318949595"><ele>476.0</ele><time>2026-04-23T15:05:10.999Z</time></trkpt><trkpt lat="36.872656694282874" lon="-4.767908037132058"><ele>476.0</ele><time>2026-04-23T15:05:11.999Z</time></trkpt><trkpt lat="36.87271888927819" lon="-4.767929278656464"><ele>476.0</ele><time>2026-04-23T15:05:12.999Z</time></trkpt><trkpt lat="36.87278366472089" lon="-4.76794724170283"><ele>476.0</ele><time>2026-04-23T15:05:13.999Z</time></trkpt><trkpt lat="36.87287922612604" lon="-4.768003972875766"><ele>476.0</ele><time>2026-04-23T15:05:15.999Z</time></trkpt><trkpt lat="36.87289935735141" lon="-4.76812470118172"><ele>470.6</ele><time>2026-04-23T15:05:17.999Z</time></trkpt><trkpt lat="36.87284380000976" lon="-4.7682748659476"><ele>465.20000000000005</ele><time>2026-04-23T15:05:19.999Z</time></trkpt><trkpt lat="36.872796100216554" lon="-4.768353209363885"><ele>459.79999999999995</ele><time>2026-04-23T15:05:20.999Z</time></trkpt><trkpt lat="36.87273770730885" lon="-4.76844397826359"><ele>454.4</ele><time>2026-04-23T15:05:21.999Z</time></trkpt><trkpt lat="36.87268107684143" lon="-4.768542789536691"><ele>449.0</ele><time>2026-04-23T15:05:22.999Z</time></trkpt><trkpt lat="36.87262094884311" lon="-4.768642413467654"><ele>452.4</ele><time>2026-04-23T15:05:23.999Z</time></trkpt><trkpt lat="36.87256698600997" lon="-4.768746103164513"><ele>455.79999999999995</ele><time>2026-04-23T15:05:24.999Z</time></trkpt><trkpt lat="36.8725230533207" lon="-4.7688570266945405"><ele>459.20000000000005</ele><time>2026-04-23T15:05:25.999Z</time></trkpt><trkpt lat="36.87246786801532" lon="-4.768965992804676"><ele>462.6</ele><time>2026-04-23T15:05:26.999Z</time></trkpt><trkpt lat="36.87240572719032" lon="-4.769075531287222"><ele>466.0</ele><time>2026-04-23T15:05:27.999Z</time></trkpt><trkpt lat="36.87234257204327" lon="-4.7691750827313415"><ele>466.00000000000006</ele><time>2026-04-23T15:05:28.999Z</time></trkpt><trkpt lat="36.87228419520745" lon="-4.7692630668024085"><ele>466.0</ele><time>2026-04-23T15:05:29.999Z</time></trkpt><trkpt lat="36.872236328600856" lon="-4.7693440703721866"><ele>466.0</ele><time>2026-04-23T15:05:30.999Z</time></trkpt><trkpt lat="36.87219822814388" lon="-4.7694218666254065"><ele>466.0</ele><time>2026-04-23T15:05:31.999Z</time></trkpt><trkpt lat="36.872214246213964" lon="-4.769574707356757"><ele>466.00000000000006</ele><time>2026-04-23T15:05:33.999Z</time></trkpt><trkpt lat="36.87226559333939" lon="-4.7696389733739135"><ele>466.0</ele><time>2026-04-23T15:05:34.999Z</time></trkpt><trkpt lat="36.872331009135905" lon="-4.769692770885848"><ele>464.1666666666667</ele><time>2026-04-23T15:05:35.999Z</time></trkpt><trkpt lat="36.87239485860406" lon="-4.769746267848676"><ele>462.33333333333337</ele><time>2026-04-23T15:05:36.999Z</time></trkpt><trkpt lat="36.872469756550096" lon="-4.769777708391239"><ele>460.5</ele><time>2026-04-23T15:05:37.999Z</time></trkpt><trkpt lat="36.87254866194053" lon="-4.769829858533575"><ele>458.66666666666663</ele><time>2026-04-23T15:05:38.999Z</time></trkpt><trkpt lat="36.872620121345705" lon="-4.769885571942357"><ele>456.8333333333333</ele><time>2026-04-23T15:05:39.999Z</time></trkpt><trkpt lat="36.87268953939676" lon="-4.769952793066292"><ele>455.0</ele><time>2026-04-23T15:05:41Z</time></trkpt><trkpt lat="36.872751543210896" lon="-4.770041966759662"><ele>455.0</ele><time>2026-04-23T15:05:42Z</time></trkpt><trkpt lat="36.87280520986262" lon="-4.770136984176198"><ele>455.0</ele><time>2026-04-23T15:05:43Z</time></trkpt><trkpt lat="36.87287441248932" lon="-4.770230894096836"><ele>455.0</ele><time>2026-04-23T15:05:44Z</time></trkpt><trkpt lat="36.872951067172345" lon="-4.7703054269903795"><ele>455.0</ele><time>2026-04-23T15:05:45Z</time></trkpt><trkpt lat="36.87303276011102" lon="-4.7703593834184455"><ele>455.0</ele><time>2026-04-23T15:05:46Z</time></trkpt><trkpt lat="36.87311420227027" lon="-4.770377121949168"><ele>456.49999999999994</ele><time>2026-04-23T15:05:47Z</time></trkpt><trkpt lat="36.873200157213226" lon="-4.7703647942231795"><ele>458.0</ele><time>2026-04-23T15:05:48Z</time></trkpt><trkpt lat="36.873274558292074" lon="-4.770376091333318"><ele>459.5</ele><time>2026-04-23T15:05:49Z</time></trkpt><trkpt lat="36.873329866336384" lon="-4.770430326429781"><ele>461.0</ele><time>2026-04-23T15:05:50Z</time></trkpt><trkpt lat="36.87335023749711" lon="-4.7705163384853915"><ele>462.49999999999994</ele><time>2026-04-23T15:05:51Z</time></trkpt><trkpt lat="36.87333303583697" lon="-4.770601556195709"><ele>464.0</ele><time>2026-04-23T15:05:52Z</time></trkpt><trkpt lat="36.87328597006686" lon="-4.770686212683584"><ele>463.99999999999994</ele><time>2026-04-23T15:05:53Z</time></trkpt><trkpt lat="36.87322656128127" lon="-4.770771142513774"><ele>464.0</ele><time>2026-04-23T15:05:54Z</time></trkpt><trkpt lat="36.87316597739719" lon="-4.770865043489555"><ele>464.0</ele><time>2026-04-23T15:05:55Z</time></trkpt><trkpt lat="36.87311034731648" lon="-4.770940223972031"><ele>464.0</ele><time>2026-04-23T15:05:56Z</time></trkpt><trkpt lat="36.87305170765466" lon="-4.770969523971876"><ele>463.99999999999994</ele><time>2026-04-23T15:05:57Z</time></trkpt><trkpt lat="36.87297850689797" lon="-4.770961466679896"><ele>464.0</ele><time>2026-04-23T15:05:58Z</time></trkpt><trkpt lat="36.87288591543493" lon="-4.770946056476383"><ele>463.99999999999994</ele><time>2026-04-23T15:05:59Z</time></trkpt><trkpt lat="36.87278808610442" lon="-4.770953615978694"><ele>464.0</ele><time>2026-04-23T15:06:00Z</time></trkpt><trkpt lat="36.872694722408184" lon="-4.770974705139089"><ele>464.0</ele><time>2026-04-23T15:06:01Z</time></trkpt><trkpt lat="36.87261158788304" lon="-4.771011880548051"><ele>464.0</ele><time>2026-04-23T15:06:02Z</time></trkpt><trkpt lat="36.87253560413842" lon="-4.771066373198012"><ele>463.99999999999994</ele><time>2026-04-23T15:06:03Z</time></trkpt><trkpt lat="36.872472070057846" lon="-4.771126247755915"><ele>464.0</ele><time>2026-04-23T15:06:03.999Z</time></trkpt><trkpt lat="36.87241883050976" lon="-4.771179086663058"><ele>464.49999999999994</ele><time>2026-04-23T15:06:04.999Z</time></trkpt><trkpt lat="36.872364285177376" lon="-4.771230572893815"><ele>465.0</ele><time>2026-04-23T15:06:05.999Z</time></trkpt><trkpt lat="36.87230540183547" lon="-4.771277934622274"><ele>465.5</ele><time>2026-04-23T15:06:06.999Z</time></trkpt><trkpt lat="36.872241847827524" lon="-4.771315567875627"><ele>466.0</ele><time>2026-04-23T15:06:07.999Z</time></trkpt><trkpt lat="36.872181361987415" lon="-4.771346312011037"><ele>466.49999999999994</ele><time>2026-04-23T15:06:08.999Z</time></trkpt><trkpt lat="36.87208744561536" lon="-4.7714202913662955"><ele>467.0</ele><time>2026-04-23T15:06:10.999Z</time></trkpt><trkpt lat="36.872003854368586" lon="-4.77152408157016"><ele>466.99999999999994</ele><time>2026-04-23T15:06:12.999Z</time></trkpt><trkpt lat="36.87196342396104" lon="-4.7716064374430704"><ele>467.0</ele><time>2026-04-23T15:06:13.999Z</time></trkpt><trkpt lat="36.87192114325502" lon="-4.771695728943875"><ele>467.0</ele><time>2026-04-23T15:06:14.999Z</time></trkpt><trkpt lat="36.87186914015431" lon="-4.771761050672505"><ele>467.0</ele><time>2026-04-23T15:06:15.999Z</time></trkpt><trkpt lat="36.87183074173205" lon="-4.771839944197174"><ele>466.99999999999994</ele><time>2026-04-23T15:06:16.999Z</time></trkpt><trkpt lat="36.87181520315589" lon="-4.771935496432365"><ele>467.0</ele><time>2026-04-23T15:06:17.999Z</time></trkpt><trkpt lat="36.87182388149574" lon="-4.7720248007038055"><ele>463.16666666666663</ele><time>2026-04-23T15:06:19Z</time></trkpt><trkpt lat="36.87183075426446" lon="-4.77211260924196"><ele>459.3333333333333</ele><time>2026-04-23T15:06:20Z</time></trkpt><trkpt lat="36.87182731876582" lon="-4.77220622685574"><ele>455.5</ele><time>2026-04-23T15:06:21Z</time></trkpt><trkpt lat="36.87181980239407" lon="-4.7723062694701675"><ele>451.66666666666663</ele><time>2026-04-23T15:06:22Z</time></trkpt><trkpt lat="36.87180776012364" lon="-4.772413395064704"><ele>447.8333333333333</ele><time>2026-04-23T15:06:23Z</time></trkpt><trkpt lat="36.87178574493507" lon="-4.772510759792311"><ele>444.0</ele><time>2026-04-23T15:06:24Z</time></trkpt><trkpt lat="36.87175289461392" lon="-4.77259849713342"><ele>450.8333333333333</ele><time>2026-04-23T15:06:25Z</time></trkpt><trkpt lat="36.871714885286245" lon="-4.772679514149931"><ele>457.66666666666663</ele><time>2026-04-23T15:06:26Z</time></trkpt><trkpt lat="36.87166582227832" lon="-4.772770906078497"><ele>464.5</ele><time>2026-04-23T15:06:27Z</time></trkpt><trkpt lat="36.87162169690813" lon="-4.772854909825923"><ele>471.3333333333333</ele><time>2026-04-23T15:06:28Z</time></trkpt><trkpt lat="36.871574245858525" lon="-4.772942395063121"><ele>478.16666666666663</ele><time>2026-04-23T15:06:29Z</time></trkpt><trkpt lat="36.871538713173706" lon="-4.7730357893866335"><ele>485.0</ele><time>2026-04-23T15:06:30Z</time></trkpt><trkpt lat="36.871521935687475" lon="-4.773136384731848"><ele>484.99999999999994</ele><time>2026-04-23T15:06:31Z</time></trkpt><trkpt lat="36.8715317048659" lon="-4.773248382758235"><ele>485.0</ele><time>2026-04-23T15:06:32Z</time></trkpt><trkpt lat="36.87155261782532" lon="-4.773340954166602"><ele>485.0</ele><time>2026-04-23T15:06:33Z</time></trkpt><trkpt lat="36.87156374309919" lon="-4.77342349672809"><ele>485.0</ele><time>2026-04-23T15:06:34Z</time></trkpt><trkpt lat="36.87153183780598" lon="-4.773548424803439"><ele>484.99999999999994</ele><time>2026-04-23T15:06:36Z</time></trkpt><trkpt lat="36.87148126230906" lon="-4.773601609038559"><ele>485.0</ele><time>2026-04-23T15:06:37Z</time></trkpt><trkpt lat="36.87141861902208" lon="-4.77365488619466"><ele>481.8333333333333</ele><time>2026-04-23T15:06:38Z</time></trkpt><trkpt lat="36.871350147158424" lon="-4.773721774443492"><ele>478.66666666666663</ele><time>2026-04-23T15:06:39Z</time></trkpt><trkpt lat="36.87128687725234" lon="-4.773810610338149"><ele>475.5</ele><time>2026-04-23T15:06:40Z</time></trkpt><trkpt lat="36.87125212365502" lon="-4.773916874345662"><ele>472.33333333333337</ele><time>2026-04-23T15:06:41Z</time></trkpt><trkpt lat="36.871223280862274" lon="-4.774011697950624"><ele>469.1666666666667</ele><time>2026-04-23T15:06:42Z</time></trkpt><trkpt lat="36.87119015105462" lon="-4.774085546427434"><ele>466.0</ele><time>2026-04-23T15:06:43Z</time></trkpt><trkpt lat="36.871144665620704" lon="-4.774141878033016"><ele>466.00000000000006</ele><time>2026-04-23T15:06:44Z</time></trkpt><trkpt lat="36.87107199666322" lon="-4.774184983576763"><ele>466.0</ele><time>2026-04-23T15:06:45Z</time></trkpt><trkpt lat="36.87098696398421" lon="-4.774221265605651"><ele>466.0</ele><time>2026-04-23T15:06:46Z</time></trkpt><trkpt lat="36.870905480342024" lon="-4.774236558389728"><ele>466.0</ele><time>2026-04-23T15:06:47Z</time></trkpt><trkpt lat="36.87083893704826" lon="-4.774235712786067"><ele>466.00000000000006</ele><time>2026-04-23T15:06:48Z</time></trkpt><trkpt lat="36.87076966871998" lon="-4.774230699487019"><ele>466.0</ele><time>2026-04-23T15:06:49Z</time></trkpt><trkpt lat="36.87064515355503" lon="-4.774222816248639"><ele>471.50000000000006</ele><time>2026-04-23T15:06:51Z</time></trkpt><trkpt lat="36.87052817965502" lon="-4.774214766144612"><ele>477.0</ele><time>2026-04-23T15:06:53Z</time></trkpt><trkpt lat="36.8704639682562" lon="-4.77420832578232"><ele>482.5</ele><time>2026-04-23T15:06:54Z</time></trkpt><trkpt lat="36.8703886124257" lon="-4.774198431504386"><ele>488.0</ele><time>2026-04-23T15:06:55Z</time></trkpt><trkpt lat="36.87031228499527" lon="-4.7741903186805565"><ele>493.50000000000006</ele><time>2026-04-23T15:06:56Z</time></trkpt><trkpt lat="36.870231699908636" lon="-4.774201986061437"><ele>499.0</ele><time>2026-04-23T15:06:57Z</time></trkpt><trkpt lat="36.87015741548068" lon="-4.774207080974557"><ele>500.50000000000006</ele><time>2026-04-23T15:06:58Z</time></trkpt><trkpt lat="36.870076837275064" lon="-4.774209639373388"><ele>502.0</ele><time>2026-04-23T15:06:59Z</time></trkpt><trkpt lat="36.86999658095732" lon="-4.774203914441299"><ele>503.5</ele><time>2026-04-23T15:07:00Z</time></trkpt><trkpt lat="36.86991742260932" lon="-4.7741977828068505"><ele>505.0</ele><time>2026-04-23T15:07:01Z</time></trkpt><trkpt lat="36.86982879222373" lon="-4.774191799673058"><ele>506.50000000000006</ele><time>2026-04-23T15:07:02Z</time></trkpt><trkpt lat="36.86973395096761" lon="-4.774179574894181"><ele>508.0</ele><time>2026-04-23T15:07:03Z</time></trkpt><trkpt lat="36.86963354250374" lon="-4.774168611542423"><ele>508.0</ele><time>2026-04-23T15:07:04Z</time></trkpt><trkpt lat="36.86953111090799" lon="-4.774167080886801"><ele>507.99999999999994</ele><time>2026-04-23T15:07:05Z</time></trkpt><trkpt lat="36.86943558045181" lon="-4.774169599477753"><ele>507.99999999999994</ele><time>2026-04-23T15:07:06Z</time></trkpt><trkpt lat="36.869342246043836" lon="-4.7741796995378865"><ele>508.0</ele><time>2026-04-23T15:07:07Z</time></trkpt><trkpt lat="36.86924853957864" lon="-4.774205245034341"><ele>508.0</ele><time>2026-04-23T15:07:08Z</time></trkpt><trkpt lat="36.86916389586865" lon="-4.774236436882995"><ele>508.6666666666667</ele><time>2026-04-23T15:07:09Z</time></trkpt><trkpt lat="36.86909118545638" lon="-4.774248373481507"><ele>509.33333333333337</ele><time>2026-04-23T15:07:10Z</time></trkpt><trkpt lat="36.86898100318866" lon="-4.774201699055338"><ele>510.0</ele><time>2026-04-23T15:07:12Z</time></trkpt><trkpt lat="36.86893888266958" lon="-4.774134112621551"><ele>510.66666666666663</ele><time>2026-04-23T15:07:13Z</time></trkpt><trkpt lat="36.86890214533085" lon="-4.774044592234755"><ele>511.3333333333333</ele><time>2026-04-23T15:07:14Z</time></trkpt><trkpt lat="36.868857316626524" lon="-4.773944550501968"><ele>512.0</ele><time>2026-04-23T15:07:15Z</time></trkpt><trkpt lat="36.86881345527663" lon="-4.773837926093547"><ele>511.99999999999994</ele><time>2026-04-23T15:07:16Z</time></trkpt><trkpt lat="36.868769102167605" lon="-4.77373097314628"><ele>512.0</ele><time>2026-04-23T15:07:17Z</time></trkpt><trkpt lat="36.86873600031465" lon="-4.773634778178398"><ele>512.0</ele><time>2026-04-23T15:07:18Z</time></trkpt><trkpt lat="36.86868394887408" lon="-4.773544757910117"><ele>512.0</ele><time>2026-04-23T15:07:19Z</time></trkpt><trkpt lat="36.868624941221334" lon="-4.773468021120483"><ele>511.99999999999994</ele><time>2026-04-23T15:07:20Z</time></trkpt><trkpt lat="36.868553097481886" lon="-4.773402952410957"><ele>512.0</ele><time>2026-04-23T15:07:21Z</time></trkpt><trkpt lat="36.8684820328131" lon="-4.773330058046503"><ele>514.3333333333333</ele><time>2026-04-23T15:07:22Z</time></trkpt><trkpt lat="36.868427915593806" lon="-4.7732605562022705"><ele>516.6666666666666</ele><time>2026-04-23T15:07:23Z</time></trkpt><trkpt lat="36.86836548906779" lon="-4.773212492185328"><ele>519.0</ele><time>2026-04-23T15:07:24Z</time></trkpt><trkpt lat="36.86828376146442" lon="-4.773170343616204"><ele>521.3333333333334</ele><time>2026-04-23T15:07:26.001Z</time></trkpt><trkpt lat="36.8682047362607" lon="-4.773230313771207"><ele>523.6666666666667</ele><time>2026-04-23T15:07:28.001Z</time></trkpt><trkpt lat="36.86817701777613" lon="-4.773355017417268"><ele>526.0</ele><time>2026-04-23T15:07:30.001Z</time></trkpt><trkpt lat="36.86819873849468" lon="-4.773497786444169"><ele>523.8333333333334</ele><time>2026-04-23T15:07:32.001Z</time></trkpt><trkpt lat="36.86819039980853" lon="-4.773581785025511"><ele>521.6666666666667</ele><time>2026-04-23T15:07:33.001Z</time></trkpt><trkpt lat="36.868159553052855" lon="-4.7736659096269936"><ele>519.5</ele><time>2026-04-23T15:07:34.001Z</time></trkpt><trkpt lat="36.86811002905874" lon="-4.773734649411531"><ele>517.3333333333334</ele><time>2026-04-23T15:07:35.001Z</time></trkpt><trkpt lat="36.868061920053044" lon="-4.773818539495912"><ele>515.1666666666666</ele><time>2026-04-23T15:07:36.001Z</time></trkpt><trkpt lat="36.868041748287034" lon="-4.7739291776818495"><ele>513.0</ele><time>2026-04-23T15:07:37.001Z</time></trkpt><trkpt lat="36.86804378778216" lon="-4.774030483639905"><ele>513.0</ele><time>2026-04-23T15:07:38.001Z</time></trkpt><trkpt lat="36.86805590427488" lon="-4.774125849405693"><ele>513.0</ele><time>2026-04-23T15:07:39.001Z</time></trkpt><trkpt lat="36.86805995384757" lon="-4.774271937336829"><ele>513.0</ele><time>2026-04-23T15:07:41.001Z</time></trkpt><trkpt lat="36.868047664856974" lon="-4.774397201907256"><ele>513.0</ele><time>2026-04-23T15:07:43.001Z</time></trkpt><trkpt lat="36.86803536633255" lon="-4.7745103793728045"><ele>513.0</ele><time>2026-04-23T15:07:45.001Z</time></trkpt><trkpt lat="36.86803400577973" lon="-4.774633693465254"><ele>511.8333333333333</ele><time>2026-04-23T15:07:47.001Z</time></trkpt><trkpt lat="36.86803087551729" lon="-4.774723958097499"><ele>510.66666666666663</ele><time>2026-04-23T15:07:48.001Z</time></trkpt><trkpt lat="36.86801687059859" lon="-4.774814963427002"><ele>509.5</ele><time>2026-04-23T15:07:49.001Z</time></trkpt><trkpt lat="36.86800198730478" lon="-4.774896704915307"><ele>508.3333333333333</ele><time>2026-04-23T15:07:50.001Z</time></trkpt><trkpt lat="36.867974209698815" lon="-4.775004764544348"><ele>507.16666666666663</ele><time>2026-04-23T15:07:51.001Z</time></trkpt><trkpt lat="36.86794688104892" lon="-4.775101491503734"><ele>506.0</ele><time>2026-04-23T15:07:52.001Z</time></trkpt><trkpt lat="36.86789977547157" lon="-4.775187812008278"><ele>503.8333333333333</ele><time>2026-04-23T15:07:53.001Z</time></trkpt><trkpt lat="36.86784608856662" lon="-4.775268582100721"><ele>501.66666666666663</ele><time>2026-04-23T15:07:54.001Z</time></trkpt><trkpt lat="36.867805491915036" lon="-4.775357638380928"><ele>499.5</ele><time>2026-04-23T15:07:55.001Z</time></trkpt><trkpt lat="36.8677864061159" lon="-4.775454895248661"><ele>497.33333333333337</ele><time>2026-04-23T15:07:56.001Z</time></trkpt><trkpt lat="36.86778785693394" lon="-4.7755578047369225"><ele>495.1666666666667</ele><time>2026-04-23T15:07:57.001Z</time></trkpt><trkpt lat="36.86778029199846" lon="-4.775665134962769"><ele>493.0</ele><time>2026-04-23T15:07:58.001Z</time></trkpt><trkpt lat="36.86776886641674" lon="-4.775784777082923"><ele>493.0</ele><time>2026-04-23T15:07:59.001Z</time></trkpt><trkpt lat="36.867747322148425" lon="-4.775906906446568"><ele>492.99999999999994</ele><time>2026-04-23T15:08:00.001Z</time></trkpt><trkpt lat="36.86771154557584" lon="-4.776023650559934"><ele>492.99999999999994</ele><time>2026-04-23T15:08:01.001Z</time></trkpt><trkpt lat="36.86766115989524" lon="-4.776139794048131"><ele>493.0</ele><time>2026-04-23T15:08:02.001Z</time></trkpt><trkpt lat="36.86760071162106" lon="-4.776258298487549"><ele>493.0</ele><time>2026-04-23T15:08:03.001Z</time></trkpt><trkpt lat="36.867556960716" lon="-4.77639236091159"><ele>502.59999999999997</ele><time>2026-04-23T15:08:04.001Z</time></trkpt><trkpt lat="36.867515639629595" lon="-4.776527570773197"><ele>512.1999999999999</ele><time>2026-04-23T15:08:05.001Z</time></trkpt><trkpt lat="36.86746188116516" lon="-4.7766430137705695"><ele>521.8</ele><time>2026-04-23T15:08:06.001Z</time></trkpt><trkpt lat="36.86739778656638" lon="-4.776745128829498"><ele>531.4</ele><time>2026-04-23T15:08:07.001Z</time></trkpt><trkpt lat="36.86732912880355" lon="-4.776847416895132"><ele>541.0</ele><time>2026-04-23T15:08:08.001Z</time></trkpt><trkpt lat="36.8672856656796" lon="-4.776963977154371"><ele>541.4</ele><time>2026-04-23T15:08:09.001Z</time></trkpt><trkpt lat="36.86727493363029" lon="-4.777087380349859"><ele>541.8</ele><time>2026-04-23T15:08:10.001Z</time></trkpt><trkpt lat="36.867284353404024" lon="-4.7772098133476275"><ele>542.1999999999999</ele><time>2026-04-23T15:08:11.001Z</time></trkpt><trkpt lat="36.86730464088267" lon="-4.777320726410304"><ele>542.6</ele><time>2026-04-23T15:08:12.001Z</time></trkpt><trkpt lat="36.86734745901059" lon="-4.777442151159708"><ele>543.0</ele><time>2026-04-23T15:08:13.001Z</time></trkpt><trkpt lat="36.86740071215319" lon="-4.7775628524509575"><ele>543.0</ele><time>2026-04-23T15:08:14.001Z</time></trkpt><trkpt lat="36.86746431627671" lon="-4.777681079928916"><ele>543.0</ele><time>2026-04-23T15:08:15.001Z</time></trkpt><trkpt lat="36.86753802158812" lon="-4.777806863874812"><ele>543.0</ele><time>2026-04-23T15:08:16.001Z</time></trkpt><trkpt lat="36.86760604636036" lon="-4.777930003805988"><ele>543.0</ele><time>2026-04-23T15:08:17.001Z</time></trkpt><trkpt lat="36.867691340900706" lon="-4.7780505327898215"><ele>542.8</ele><time>2026-04-23T15:08:18.001Z</time></trkpt><trkpt lat="36.867786247706455" lon="-4.778164928211323"><ele>542.5999999999999</ele><time>2026-04-23T15:08:19.001Z</time></trkpt><trkpt lat="36.86786855945369" lon="-4.778271954546635"><ele>542.4000000000001</ele><time>2026-04-23T15:08:20.001Z</time></trkpt><trkpt lat="36.867940021738605" lon="-4.778363596232673"><ele>542.2</ele><time>2026-04-23T15:08:21.001Z</time></trkpt><trkpt lat="36.867985651109656" lon="-4.778445013671072"><ele>542.0</ele><time>2026-04-23T15:08:22.001Z</time></trkpt><trkpt lat="36.86801100250745" lon="-4.778517612551165"><ele>541.5</ele><time>2026-04-23T15:08:23.001Z</time></trkpt><trkpt lat="36.86800191540822" lon="-4.778616828018257"><ele>541.0</ele><time>2026-04-23T15:08:25.001Z</time></trkpt><trkpt lat="36.86789089614988" lon="-4.778656582365914"><ele>540.5</ele><time>2026-04-23T15:08:27.001Z</time></trkpt><trkpt lat="36.867813332331046" lon="-4.778651607388994"><ele>540.0</ele><time>2026-04-23T15:08:28.001Z</time></trkpt><trkpt lat="36.86774006392872" lon="-4.778634203251866"><ele>539.5</ele><time>2026-04-23T15:08:29.001Z</time></trkpt><trkpt lat="36.86765140677874" lon="-4.778588744864673"><ele>539.0</ele><time>2026-04-23T15:08:30.001Z</time></trkpt><trkpt lat="36.86756473564258" lon="-4.778543872565397"><ele>541.2</ele><time>2026-04-23T15:08:31.001Z</time></trkpt><trkpt lat="36.867467088458426" lon="-4.778497971227148"><ele>543.4</ele><time>2026-04-23T15:08:32.001Z</time></trkpt><trkpt lat="36.86735209377536" lon="-4.77850573230883"><ele>545.6</ele><time>2026-04-23T15:08:33.001Z</time></trkpt><trkpt lat="36.86724905880381" lon="-4.778476117554153"><ele>547.8</ele><time>2026-04-23T15:08:34.001Z</time></trkpt><trkpt lat="36.86714951367516" lon="-4.778447720250927"><ele>550.0</ele><time>2026-04-23T15:08:35.001Z</time></trkpt><trkpt lat="36.867051285439274" lon="-4.778416350158865"><ele>550.0</ele><time>2026-04-23T15:08:36.001Z</time></trkpt><trkpt lat="36.86695427451122" lon="-4.778362110541995"><ele>550.0</ele><time>2026-04-23T15:08:37.001Z</time></trkpt><trkpt lat="36.86686579933221" lon="-4.778315436281813"><ele>550.0</ele><time>2026-04-23T15:08:38.001Z</time></trkpt><trkpt lat="36.86678723891488" lon="-4.778274903395434"><ele>550.0</ele><time>2026-04-23T15:08:39.001Z</time></trkpt><trkpt lat="36.866700841884594" lon="-4.778242303771356"><ele>550.0</ele><time>2026-04-23T15:08:40.001Z</time></trkpt><trkpt lat="36.866610572706065" lon="-4.778217146589108"><ele>550.1666666666667</ele><time>2026-04-23T15:08:41.001Z</time></trkpt><trkpt lat="36.866505409866974" lon="-4.7781902275495085"><ele>550.3333333333334</ele><time>2026-04-23T15:08:42.001Z</time></trkpt><trkpt lat="36.86641020599281" lon="-4.778175315747456"><ele>550.5</ele><time>2026-04-23T15:08:43.001Z</time></trkpt><trkpt lat="36.866331156572905" lon="-4.7781693928329"><ele>550.6666666666666</ele><time>2026-04-23T15:08:44.001Z</time></trkpt><trkpt lat="36.86625433058251" lon="-4.778171896850614"><ele>550.8333333333333</ele><time>2026-04-23T15:08:45.001Z</time></trkpt><trkpt lat="36.866201143572724" lon="-4.7782392528549416"><ele>551.0</ele><time>2026-04-23T15:08:47.001Z</time></trkpt><trkpt lat="36.86630321680077" lon="-4.778406863330945"><ele>551.0</ele><time>2026-04-23T15:08:50.001Z</time></trkpt><trkpt lat="36.86633105614347" lon="-4.778488524772933"><ele>551.0</ele><time>2026-04-23T15:08:51.001Z</time></trkpt><trkpt lat="36.866394044082575" lon="-4.778615650364627"><ele>551.0</ele><time>2026-04-23T15:08:53.001Z</time></trkpt><trkpt lat="36.86641341331697" lon="-4.778707984246707"><ele>551.0</ele><time>2026-04-23T15:08:54.001Z</time></trkpt><trkpt lat="36.866428949401794" lon="-4.778811984156561"><ele>551.0</ele><time>2026-04-23T15:08:55.001Z</time></trkpt><trkpt lat="36.86644820571731" lon="-4.7789169486082095"><ele>551.0</ele><time>2026-04-23T15:08:56.001Z</time></trkpt><trkpt lat="36.86648881622838" lon="-4.779012657353516"><ele>549.1666666666666</ele><time>2026-04-23T15:08:57.001Z</time></trkpt><trkpt lat="36.866522975014206" lon="-4.779095629393758"><ele>547.3333333333333</ele><time>2026-04-23T15:08:58.001Z</time></trkpt><trkpt lat="36.86655017971066" lon="-4.779168425373838"><ele>545.5</ele><time>2026-04-23T15:08:59.001Z</time></trkpt><trkpt lat="36.8665727427714" lon="-4.779313932125717"><ele>543.6666666666666</ele><time>2026-04-23T15:09:01.001Z</time></trkpt><trkpt lat="36.86655961382066" lon="-4.77939659121014"><ele>541.8333333333334</ele><time>2026-04-23T15:09:02.001Z</time></trkpt><trkpt lat="36.86653797105155" lon="-4.779475759341499"><ele>540.0</ele><time>2026-04-23T15:09:03.001Z</time></trkpt><trkpt lat="36.86650542957766" lon="-4.779604412344904"><ele>539.1666666666666</ele><time>2026-04-23T15:09:05.001Z</time></trkpt><trkpt lat="36.86642741848616" lon="-4.7796424012276235"><ele>538.3333333333334</ele><time>2026-04-23T15:09:06.001Z</time></trkpt><trkpt lat="36.86636509255566" lon="-4.779735169405097"><ele>537.5</ele><time>2026-04-23T15:09:08.001Z</time></trkpt><trkpt lat="36.86628945796086" lon="-4.779802782482857"><ele>536.6666666666667</ele><time>2026-04-23T15:09:10.001Z</time></trkpt><trkpt lat="36.86624323497681" lon="-4.779867819238178"><ele>535.8333333333334</ele><time>2026-04-23T15:09:12.001Z</time></trkpt><trkpt lat="36.86620676289948" lon="-4.779946113015716"><ele>535.0</ele><time>2026-04-23T15:09:14.001Z</time></trkpt><trkpt lat="36.866142817854815" lon="-4.780001794911337"><ele>535.0</ele><time>2026-04-23T15:09:16.001Z</time></trkpt><trkpt lat="36.86609529123999" lon="-4.780071225638614"><ele>535.0</ele><time>2026-04-23T15:09:18.001Z</time></trkpt><trkpt lat="36.86604963560203" lon="-4.780141630809462"><ele>535.0</ele><time>2026-04-23T15:09:20.001Z</time></trkpt><trkpt lat="36.866011047316846" lon="-4.780213083825076"><ele>535.0</ele><time>2026-04-23T15:09:22.001Z</time></trkpt><trkpt lat="36.86596186760007" lon="-4.780280922827207"><ele>535.0</ele><time>2026-04-23T15:09:24.001Z</time></trkpt><trkpt lat="36.865925461380506" lon="-4.780367629848535"><ele>535.0</ele><time>2026-04-23T15:09:26.001Z</time></trkpt><trkpt lat="36.86587465800227" lon="-4.78044070451567"><ele>535.0</ele><time>2026-04-23T15:09:28.001Z</time></trkpt><trkpt lat="36.86582782186932" lon="-4.780509415035331"><ele>537.8571428571429</ele><time>2026-04-23T15:09:30.001Z</time></trkpt><trkpt lat="36.86578465543616" lon="-4.780581245651098"><ele>540.7142857142858</ele><time>2026-04-23T15:09:32.001Z</time></trkpt><trkpt lat="36.865771738791324" lon="-4.78066240880456"><ele>543.5714285714287</ele><time>2026-04-23T15:09:34.001Z</time></trkpt><trkpt lat="36.865771085214035" lon="-4.780759361134399"><ele>546.4285714285714</ele><time>2026-04-23T15:09:36.001Z</time></trkpt><trkpt lat="36.86575575770415" lon="-4.780847333706731"><ele>549.2857142857143</ele><time>2026-04-23T15:09:38.001Z</time></trkpt><trkpt lat="36.86575840537541" lon="-4.780942499843392"><ele>552.1428571428572</ele><time>2026-04-23T15:09:40.001Z</time></trkpt><trkpt lat="36.865783103361174" lon="-4.781018687986078"><ele>555.0</ele><time>2026-04-23T15:09:42.001Z</time></trkpt><trkpt lat="36.865817723975276" lon="-4.781129329764838"><ele>555.1428571428572</ele><time>2026-04-23T15:09:45.001Z</time></trkpt><trkpt lat="36.86583654685211" lon="-4.7812075916746695"><ele>555.2857142857143</ele><time>2026-04-23T15:09:48.001Z</time></trkpt><trkpt lat="36.865896311091156" lon="-4.78127972830298"><ele>555.4285714285714</ele><time>2026-04-23T15:10:13.001Z</time></trkpt><trkpt lat="36.865941390995914" lon="-4.781353875556313"><ele>555.5714285714287</ele><time>2026-04-23T15:10:14.001Z</time></trkpt><trkpt lat="36.86597827724884" lon="-4.7814204694674585"><ele>555.7142857142858</ele><time>2026-04-23T15:10:15.002Z</time></trkpt><trkpt lat="36.866017728071256" lon="-4.7814923588218665"><ele>555.8571428571429</ele><time>2026-04-23T15:10:16.002Z</time></trkpt><trkpt lat="36.8660593891288" lon="-4.781552935242965"><ele>556.0</ele><time>2026-04-23T15:10:17.002Z</time></trkpt><trkpt lat="36.86608869001238" lon="-4.781700391321802"><ele>552.8</ele><time>2026-04-23T15:10:19.002Z</time></trkpt><trkpt lat="36.866056132009206" lon="-4.781784387901905"><ele>549.6</ele><time>2026-04-23T15:10:20.002Z</time></trkpt><trkpt lat="36.866000673719746" lon="-4.781860000240664"><ele>546.4</ele><time>2026-04-23T15:10:21.002Z</time></trkpt><trkpt lat="36.86592384950804" lon="-4.781939460339381"><ele>543.2</ele><time>2026-04-23T15:10:22.002Z</time></trkpt><trkpt lat="36.86580942822034" lon="-4.782007498759151"><ele>540.0</ele><time>2026-04-23T15:10:23.002Z</time></trkpt><trkpt lat="36.865694339786735" lon="-4.782076257323129"><ele>540.0</ele><time>2026-04-23T15:10:24.002Z</time></trkpt><trkpt lat="36.8656000688043" lon="-4.78214059134718"><ele>540.0</ele><time>2026-04-23T15:10:25.002Z</time></trkpt><trkpt lat="36.865514686251856" lon="-4.782205311758437"><ele>540.0</ele><time>2026-04-23T15:10:26.002Z</time></trkpt><trkpt lat="36.865439302193025" lon="-4.78228033184551"><ele>540.0</ele><time>2026-04-23T15:10:27.002Z</time></trkpt><trkpt lat="36.8653756778246" lon="-4.782374859594676"><ele>540.0</ele><time>2026-04-23T15:10:28.002Z</time></trkpt><trkpt lat="36.86531943953718" lon="-4.782488036489622"><ele>540.0</ele><time>2026-04-23T15:10:29.002Z</time></trkpt><trkpt lat="36.8652705722762" lon="-4.782608191245968"><ele>540.0</ele><time>2026-04-23T15:10:30.002Z</time></trkpt><trkpt lat="36.86521619301254" lon="-4.782729936830615"><ele>540.0</ele><time>2026-04-23T15:10:31.002Z</time></trkpt><trkpt lat="36.865186866011584" lon="-4.782852586558431"><ele>540.0</ele><time>2026-04-23T15:10:32.002Z</time></trkpt><trkpt lat="36.86515306278689" lon="-4.782972380197124"><ele>540.0</ele><time>2026-04-23T15:10:33.002Z</time></trkpt><trkpt lat="36.86513085888477" lon="-4.783091838435862"><ele>541.0</ele><time>2026-04-23T15:10:34.002Z</time></trkpt><trkpt lat="36.86510602094991" lon="-4.78320456126109"><ele>542.0</ele><time>2026-04-23T15:10:35.001Z</time></trkpt><trkpt lat="36.865081135010804" lon="-4.783301462302381"><ele>543.0</ele><time>2026-04-23T15:10:36.001Z</time></trkpt><trkpt lat="36.8650687727341" lon="-4.783405389462489"><ele>544.0</ele><time>2026-04-23T15:10:37.001Z</time></trkpt><trkpt lat="36.865075606479266" lon="-4.783499480337103"><ele>545.0</ele><time>2026-04-23T15:10:38.001Z</time></trkpt><trkpt lat="36.865033512302126" lon="-4.783617576691414"><ele>546.0</ele><time>2026-04-23T15:10:40.001Z</time></trkpt><trkpt lat="36.864981861299555" lon="-4.783674128832813"><ele>546.0</ele><time>2026-04-23T15:10:41.001Z</time></trkpt><trkpt lat="36.864900384626324" lon="-4.783715337654514"><ele>546.0</ele><time>2026-04-23T15:10:42.001Z</time></trkpt><trkpt lat="36.864832401379296" lon="-4.783772612754039"><ele>546.0</ele><time>2026-04-23T15:10:43.001Z</time></trkpt><trkpt lat="36.86474553904567" lon="-4.783831164337873"><ele>546.0</ele><time>2026-04-23T15:10:44.001Z</time></trkpt><trkpt lat="36.86466275621648" lon="-4.783900350593586"><ele>546.0</ele><time>2026-04-23T15:10:45.001Z</time></trkpt><trkpt lat="36.86456882037664" lon="-4.783977693738694"><ele>546.0</ele><time>2026-04-23T15:10:46.001Z</time></trkpt><trkpt lat="36.86448853635981" lon="-4.7840618450949846"><ele>546.0</ele><time>2026-04-23T15:10:47.001Z</time></trkpt><trkpt lat="36.864401677743864" lon="-4.7841549494856626"><ele>546.0</ele><time>2026-04-23T15:10:48.001Z</time></trkpt><trkpt lat="36.86433180228382" lon="-4.784258554234487"><ele>546.0</ele><time>2026-04-23T15:10:49.001Z</time></trkpt><trkpt lat="36.864252157278194" lon="-4.784349713767949"><ele>546.0</ele><time>2026-04-23T15:10:50.001Z</time></trkpt><trkpt lat="36.86417233517126" lon="-4.784440385882338"><ele>546.6666666666666</ele><time>2026-04-23T15:10:51.001Z</time></trkpt><trkpt lat="36.86409798894318" lon="-4.784521440447586"><ele>547.3333333333334</ele><time>2026-04-23T15:10:52.001Z</time></trkpt><trkpt lat="36.86403076585958" lon="-4.784570594653074"><ele>548.0</ele><time>2026-04-23T15:10:53.001Z</time></trkpt><trkpt lat="36.86396800894592" lon="-4.784631967614378"><ele>548.6666666666667</ele><time>2026-04-23T15:10:54.001Z</time></trkpt><trkpt lat="36.86388741032667" lon="-4.784672535118097"><ele>549.3333333333334</ele><time>2026-04-23T15:10:55.001Z</time></trkpt><trkpt lat="36.86381779941085" lon="-4.784708810963999"><ele>550.0</ele><time>2026-04-23T15:10:56.001Z</time></trkpt><trkpt lat="36.863742340435536" lon="-4.784695623129138"><ele>550.0</ele><time>2026-04-23T15:10:57.001Z</time></trkpt><trkpt lat="36.86368489356489" lon="-4.784600809602253"><ele>550.0</ele><time>2026-04-23T15:10:58.001Z</time></trkpt><trkpt lat="36.86363478105398" lon="-4.784513212398213"><ele>550.0</ele><time>2026-04-23T15:10:59.001Z</time></trkpt><trkpt lat="36.863561067472666" lon="-4.784430190564635"><ele>550.0</ele><time>2026-04-23T15:11:00.001Z</time></trkpt><trkpt lat="36.86349823613331" lon="-4.784340796445586"><ele>550.0</ele><time>2026-04-23T15:11:01.001Z</time></trkpt><trkpt lat="36.863430364149295" lon="-4.784257681365098"><ele>554.0</ele><time>2026-04-23T15:11:02.001Z</time></trkpt><trkpt lat="36.86336074533083" lon="-4.784179361431415"><ele>558.0</ele><time>2026-04-23T15:11:03.001Z</time></trkpt><trkpt lat="36.86329554635222" lon="-4.7841111501271705"><ele>562.0</ele><time>2026-04-23T15:11:04.001Z</time></trkpt><trkpt lat="36.863227242209256" lon="-4.784044157117315"><ele>566.0</ele><time>2026-04-23T15:11:05.001Z</time></trkpt><trkpt lat="36.86315705557613" lon="-4.783981594302986"><ele>570.0</ele><time>2026-04-23T15:11:06.001Z</time></trkpt><trkpt lat="36.86307927078226" lon="-4.7839276937784705"><ele>574.0</ele><time>2026-04-23T15:11:07.001Z</time></trkpt><trkpt lat="36.86300009494574" lon="-4.783900613714718"><ele>574.0</ele><time>2026-04-23T15:11:08.001Z</time></trkpt><trkpt lat="36.86293698749543" lon="-4.783858231540467"><ele>574.0</ele><time>2026-04-23T15:11:09.001Z</time></trkpt><trkpt lat="36.862892094332466" lon="-4.783693008908104"><ele>574.0</ele><time>2026-04-23T15:11:11.001Z</time></trkpt><trkpt lat="36.86286373041883" lon="-4.783609329721675"><ele>574.0</ele><time>2026-04-23T15:11:12.001Z</time></trkpt><trkpt lat="36.862840622618364" lon="-4.783502193285583"><ele>574.0</ele><time>2026-04-23T15:11:13.001Z</time></trkpt><trkpt lat="36.862818202225974" lon="-4.783394340083257"><ele>577.8333333333334</ele><time>2026-04-23T15:11:14.001Z</time></trkpt><trkpt lat="36.86279592551272" lon="-4.783287178021244"><ele>581.6666666666667</ele><time>2026-04-23T15:11:15.001Z</time></trkpt><trkpt lat="36.862773795771666" lon="-4.78318399212012"><ele>585.5</ele><time>2026-04-23T15:11:16.001Z</time></trkpt><trkpt lat="36.86274940181754" lon="-4.7830868983692545"><ele>589.3333333333334</ele><time>2026-04-23T15:11:17.001Z</time></trkpt><trkpt lat="36.86272134576106" lon="-4.782994211652213"><ele>593.1666666666666</ele><time>2026-04-23T15:11:18.001Z</time></trkpt><trkpt lat="36.862683335166146" lon="-4.7829093187855864"><ele>597.0</ele><time>2026-04-23T15:11:19.001Z</time></trkpt><trkpt lat="36.8626395901248" lon="-4.782820979804198"><ele>597.0</ele><time>2026-04-23T15:11:20.001Z</time></trkpt><trkpt lat="36.86262122931062" lon="-4.782729443261341"><ele>597.0</ele><time>2026-04-23T15:11:21.001Z</time></trkpt><trkpt lat="36.86259400046882" lon="-4.782631935408749"><ele>597.0</ele><time>2026-04-23T15:11:22.001Z</time></trkpt><trkpt lat="36.86259003327327" lon="-4.782530058687721"><ele>597.0</ele><time>2026-04-23T15:11:23.001Z</time></trkpt><trkpt lat="36.86258505427174" lon="-4.782429337867165"><ele>597.0</ele><time>2026-04-23T15:11:24.001Z</time></trkpt><trkpt lat="36.86253485917214" lon="-4.782357426233108"><ele>597.0</ele><time>2026-04-23T15:11:25.001Z</time></trkpt><trkpt lat="36.86248075451803" lon="-4.782293788497787"><ele>594.3333333333334</ele><time>2026-04-23T15:11:26.001Z</time></trkpt><trkpt lat="36.862418827671654" lon="-4.78223696341758"><ele>591.6666666666666</ele><time>2026-04-23T15:11:27.001Z</time></trkpt><trkpt lat="36.86235603029394" lon="-4.782170668769734"><ele>589.0</ele><time>2026-04-23T15:11:28.001Z</time></trkpt><trkpt lat="36.86229930459729" lon="-4.782114819492207"><ele>586.3333333333333</ele><time>2026-04-23T15:11:29.001Z</time></trkpt><trkpt lat="36.86223540059365" lon="-4.782065437160497"><ele>583.6666666666666</ele><time>2026-04-23T15:11:30.001Z</time></trkpt><trkpt lat="36.86212462832466" lon="-4.7820195209281975"><ele>581.0</ele><time>2026-04-23T15:11:32.001Z</time></trkpt><trkpt lat="36.86202304005087" lon="-4.781948942798725"><ele>581.0</ele><time>2026-04-23T15:11:34.001Z</time></trkpt><trkpt lat="36.861943224204126" lon="-4.781851690240603"><ele>581.0</ele><time>2026-04-23T15:11:36.001Z</time></trkpt><trkpt lat="36.86190731306049" lon="-4.781782186785591"><ele>581.0</ele><time>2026-04-23T15:11:37.001Z</time></trkpt><trkpt lat="36.861822692117805" lon="-4.781702747784104"><ele>581.0</ele><time>2026-04-23T15:11:39.001Z</time></trkpt><trkpt lat="36.861738362680434" lon="-4.7817546590718765"><ele>581.0</ele><time>2026-04-23T15:11:41.001Z</time></trkpt><trkpt lat="36.86171913419689" lon="-4.781891440529455"><ele>581.0</ele><time>2026-04-23T15:11:43.001Z</time></trkpt><trkpt lat="36.861735622216514" lon="-4.78203193354737"><ele>581.0</ele><time>2026-04-23T15:11:45.001Z</time></trkpt><trkpt lat="36.86176146873952" lon="-4.782116597015609"><ele>581.0</ele><time>2026-04-23T15:11:46.001Z</time></trkpt><trkpt lat="36.86180033094022" lon="-4.782189925332784"><ele>581.0</ele><time>2026-04-23T15:11:47.001Z</time></trkpt><trkpt lat="36.86184356990184" lon="-4.782247600368295"><ele>581.0</ele><time>2026-04-23T15:11:48.001Z</time></trkpt><trkpt lat="36.86189053932798" lon="-4.78230889201726"><ele>581.0</ele><time>2026-04-23T15:11:49.001Z</time></trkpt><trkpt lat="36.86192323796523" lon="-4.782378723262747"><ele>581.0</ele><time>2026-04-23T15:11:50.001Z</time></trkpt><trkpt lat="36.861931230607205" lon="-4.782529301651291"><ele>581.0</ele><time>2026-04-23T15:11:52.001Z</time></trkpt><trkpt lat="36.861916202612385" lon="-4.782610035178885"><ele>581.0</ele><time>2026-04-23T15:11:53.001Z</time></trkpt><trkpt lat="36.86189887677485" lon="-4.782693745015277"><ele>581.0</ele><time>2026-04-23T15:11:54.001Z</time></trkpt><trkpt lat="36.861878900531714" lon="-4.782805322165914"><ele>581.0</ele><time>2026-04-23T15:11:55.001Z</time></trkpt><trkpt lat="36.861869096942186" lon="-4.782896313173792"><ele>581.0</ele><time>2026-04-23T15:11:56.001Z</time></trkpt><trkpt lat="36.861848445926356" lon="-4.782982239442459"><ele>580.3333333333333</ele><time>2026-04-23T15:11:57.001Z</time></trkpt><trkpt lat="36.8617979118472" lon="-4.783052991011793"><ele>579.6666666666666</ele><time>2026-04-23T15:11:58.001Z</time></trkpt><trkpt lat="36.86174507190388" lon="-4.783127649918951"><ele>579.0</ele><time>2026-04-23T15:11:59.001Z</time></trkpt><trkpt lat="36.861654999108296" lon="-4.783148643027383"><ele>578.3333333333334</ele><time>2026-04-23T15:12:00.001Z</time></trkpt><trkpt lat="36.86159725057782" lon="-4.78319776009198"><ele>577.6666666666667</ele><time>2026-04-23T15:12:01.001Z</time></trkpt><trkpt lat="36.86151675936052" lon="-4.7832534194104115"><ele>577.0</ele><time>2026-04-23T15:12:02.001Z</time></trkpt><trkpt lat="36.86145846046855" lon="-4.783295338305817"><ele>577.0</ele><time>2026-04-23T15:12:03.001Z</time></trkpt><trkpt lat="36.861394139582515" lon="-4.783344995323227"><ele>577.0</ele><time>2026-04-23T15:12:04.001Z</time></trkpt><trkpt lat="36.86132497095564" lon="-4.783402592705555"><ele>577.0</ele><time>2026-04-23T15:12:05.001Z</time></trkpt><trkpt lat="36.86125736986493" lon="-4.7834567421642"><ele>577.0</ele><time>2026-04-23T15:12:06.001Z</time></trkpt><trkpt lat="36.86118797163455" lon="-4.7835090527037645"><ele>577.0</ele><time>2026-04-23T15:12:07.001Z</time></trkpt><trkpt lat="36.861120399582006" lon="-4.783554136563749"><ele>577.0</ele><time>2026-04-23T15:12:08.001Z</time></trkpt><trkpt lat="36.86103814109166" lon="-4.783584421494678"><ele>576.5</ele><time>2026-04-23T15:12:09.001Z</time></trkpt><trkpt lat="36.860963413755606" lon="-4.783604128466988"><ele>576.0</ele><time>2026-04-23T15:12:10.001Z</time></trkpt><trkpt lat="36.86088391889982" lon="-4.783623688128533"><ele>575.5</ele><time>2026-04-23T15:12:11.001Z</time></trkpt><trkpt lat="36.86080674991402" lon="-4.783642987559865"><ele>575.0</ele><time>2026-04-23T15:12:12.001Z</time></trkpt><trkpt lat="36.860728236467494" lon="-4.783649660007603"><ele>574.5</ele><time>2026-04-23T15:12:13.001Z</time></trkpt><trkpt lat="36.8606546325333" lon="-4.78368564681053"><ele>574.0</ele><time>2026-04-23T15:12:14.001Z</time></trkpt><trkpt lat="36.86059207165254" lon="-4.783727728305227"><ele>577.8</ele><time>2026-04-23T15:12:15.001Z</time></trkpt><trkpt lat="36.86052208523467" lon="-4.783759034463618"><ele>581.5999999999999</ele><time>2026-04-23T15:12:16.001Z</time></trkpt><trkpt lat="36.86046733679175" lon="-4.783798211361199"><ele>585.4</ele><time>2026-04-23T15:12:17.001Z</time></trkpt><trkpt lat="36.8604068824797" lon="-4.783897931747658"><ele>589.1999999999999</ele><time>2026-04-23T15:12:19.001Z</time></trkpt><trkpt lat="36.860506067818044" lon="-4.783987295188963"><ele>593.0</ele><time>2026-04-23T15:12:21.002Z</time></trkpt><trkpt lat="36.8606245691492" lon="-4.784029388139533"><ele>593.0</ele><time>2026-04-23T15:12:23.002Z</time></trkpt><trkpt lat="36.86069455614173" lon="-4.784049224178539"><ele>593.0</ele><time>2026-04-23T15:12:24.002Z</time></trkpt><trkpt lat="36.8607668098939" lon="-4.784084111006136"><ele>593.0</ele><time>2026-04-23T15:12:25.002Z</time></trkpt><trkpt lat="36.8608195358542" lon="-4.784149031697219"><ele>593.0</ele><time>2026-04-23T15:12:26.002Z</time></trkpt><trkpt lat="36.86083671067589" lon="-4.784224734306629"><ele>593.0</ele><time>2026-04-23T15:12:27.002Z</time></trkpt><trkpt lat="36.860802778126164" lon="-4.784351286909651"><ele>593.0</ele><time>2026-04-23T15:12:29.002Z</time></trkpt><trkpt lat="36.860749518747156" lon="-4.784417009322128"><ele>594.1666666666666</ele><time>2026-04-23T15:12:30.002Z</time></trkpt><trkpt lat="36.86069584617228" lon="-4.784490579466534"><ele>595.3333333333333</ele><time>2026-04-23T15:12:31.002Z</time></trkpt><trkpt lat="36.86065280462076" lon="-4.784557490543333"><ele>596.5</ele><time>2026-04-23T15:12:32.002Z</time></trkpt><trkpt lat="36.860615871382024" lon="-4.784631657459728"><ele>597.6666666666666</ele><time>2026-04-23T15:12:33.002Z</time></trkpt><trkpt lat="36.86057956695278" lon="-4.784722297416607"><ele>598.8333333333334</ele><time>2026-04-23T15:12:34.002Z</time></trkpt><trkpt lat="36.86055410839906" lon="-4.78481361352725"><ele>600.0</ele><time>2026-04-23T15:12:35.002Z</time></trkpt><trkpt lat="36.86054249768324" lon="-4.784908071702465"><ele>600.0</ele><time>2026-04-23T15:12:36.002Z</time></trkpt><trkpt lat="36.86054131980958" lon="-4.785003356539239"><ele>600.0</ele><time>2026-04-23T15:12:37.001Z</time></trkpt><trkpt lat="36.86055308074874" lon="-4.785104984764614"><ele>600.0</ele><time>2026-04-23T15:12:38.001Z</time></trkpt><trkpt lat="36.86058338843502" lon="-4.785194372772605"><ele>600.0</ele><time>2026-04-23T15:12:39.001Z</time></trkpt><trkpt lat="36.86063087471054" lon="-4.785256582643545"><ele>600.0</ele><time>2026-04-23T15:12:40.001Z</time></trkpt><trkpt lat="36.860708037226274" lon="-4.785277163809324"><ele>600.0</ele><time>2026-04-23T15:12:41.001Z</time></trkpt><trkpt lat="36.86079132721565" lon="-4.785286776589022"><ele>599.0</ele><time>2026-04-23T15:12:42.001Z</time></trkpt><trkpt lat="36.86088140106853" lon="-4.785319510349384"><ele>598.0</ele><time>2026-04-23T15:12:43.001Z</time></trkpt><trkpt lat="36.86096970982063" lon="-4.785343820353568"><ele>597.0</ele><time>2026-04-23T15:12:44.001Z</time></trkpt><trkpt lat="36.86106043492777" lon="-4.785391923330185"><ele>596.0</ele><time>2026-04-23T15:12:45.001Z</time></trkpt><trkpt lat="36.86114165969369" lon="-4.785452739877798"><ele>595.0</ele><time>2026-04-23T15:12:46.001Z</time></trkpt><trkpt lat="36.86122215406935" lon="-4.7855185106580125"><ele>595.0</ele><time>2026-04-23T15:12:47.001Z</time></trkpt><trkpt lat="36.86131050585778" lon="-4.785556972238648"><ele>595.0</ele><time>2026-04-23T15:12:48.001Z</time></trkpt><trkpt lat="36.86140120082279" lon="-4.785577539644354"><ele>595.0</ele><time>2026-04-23T15:12:49.001Z</time></trkpt><trkpt lat="36.861485559117114" lon="-4.78558340320544"><ele>595.0</ele><time>2026-04-23T15:12:50.001Z</time></trkpt><trkpt lat="36.86158431167427" lon="-4.785674489956651"><ele>595.0</ele><time>2026-04-23T15:12:52.001Z</time></trkpt><trkpt lat="36.86160068332762" lon="-4.785757995292613"><ele>595.0</ele><time>2026-04-23T15:12:53.001Z</time></trkpt><trkpt lat="36.86155166287391" lon="-4.785889217055946"><ele>595.0</ele><time>2026-04-23T15:12:55.001Z</time></trkpt><trkpt lat="36.86148987041491" lon="-4.785926638941138"><ele>595.0</ele><time>2026-04-23T15:12:56.001Z</time></trkpt><trkpt lat="36.86141334655795" lon="-4.785965090305401"><ele>595.0</ele><time>2026-04-23T15:12:57.001Z</time></trkpt><trkpt lat="36.861322442501695" lon="-4.7859487162551355"><ele>595.0</ele><time>2026-04-23T15:12:58.001Z</time></trkpt><trkpt lat="36.86123163123402" lon="-4.7859861815867974"><ele>595.8333333333334</ele><time>2026-04-23T15:12:59.001Z</time></trkpt><trkpt lat="36.86115593208352" lon="-4.786036514611475"><ele>596.6666666666667</ele><time>2026-04-23T15:13:00.001Z</time></trkpt><trkpt lat="36.86108850340512" lon="-4.786108642036412"><ele>597.5</ele><time>2026-04-23T15:13:01.001Z</time></trkpt><trkpt lat="36.86101446173346" lon="-4.7861540179555835"><ele>598.3333333333334</ele><time>2026-04-23T15:13:02.001Z</time></trkpt><trkpt lat="36.8609592437759" lon="-4.786205403766501"><ele>599.1666666666666</ele><time>2026-04-23T15:13:03.001Z</time></trkpt><trkpt lat="36.860884778050014" lon="-4.7861929444632585"><ele>600.0</ele><time>2026-04-23T15:13:04.001Z</time></trkpt><trkpt lat="36.860801653517875" lon="-4.786110309198446"><ele>600.0</ele><time>2026-04-23T15:13:05.001Z</time></trkpt><trkpt lat="36.86073306038475" lon="-4.786055953325621"><ele>600.0</ele><time>2026-04-23T15:13:06.001Z</time></trkpt><trkpt lat="36.8606644606298" lon="-4.786002720917566"><ele>600.0</ele><time>2026-04-23T15:13:07.001Z</time></trkpt><trkpt lat="36.860587584214564" lon="-4.785952532303703"><ele>600.0</ele><time>2026-04-23T15:13:08.001Z</time></trkpt><trkpt lat="36.86051298995995" lon="-4.785914651834435"><ele>600.0</ele><time>2026-04-23T15:13:09.001Z</time></trkpt><trkpt lat="36.86043476198678" lon="-4.7859179444500075"><ele>600.0</ele><time>2026-04-23T15:13:10.001Z</time></trkpt><trkpt lat="36.8603559133576" lon="-4.785945812982594"><ele>600.6666666666666</ele><time>2026-04-23T15:13:11.001Z</time></trkpt><trkpt lat="36.860273250319956" lon="-4.785968340843389"><ele>601.3333333333334</ele><time>2026-04-23T15:13:12.001Z</time></trkpt><trkpt lat="36.86018556472841" lon="-4.785992237494155"><ele>602.0</ele><time>2026-04-23T15:13:13.001Z</time></trkpt><trkpt lat="36.86009453621576" lon="-4.786010488028631"><ele>602.6666666666667</ele><time>2026-04-23T15:13:14.001Z</time></trkpt><trkpt lat="36.85999984936005" lon="-4.786014544436325"><ele>603.3333333333334</ele><time>2026-04-23T15:13:15.001Z</time></trkpt><trkpt lat="36.859913754227115" lon="-4.7860054291469165"><ele>604.0</ele><time>2026-04-23T15:13:16.001Z</time></trkpt><trkpt lat="36.85983495482633" lon="-4.786009775035901"><ele>604.0</ele><time>2026-04-23T15:13:17.001Z</time></trkpt><trkpt lat="36.85975461718637" lon="-4.78602234252703"><ele>604.0</ele><time>2026-04-23T15:13:18.001Z</time></trkpt><trkpt lat="36.85969026422787" lon="-4.78606166249963"><ele>604.0</ele><time>2026-04-23T15:13:19.001Z</time></trkpt><trkpt lat="36.85962409031667" lon="-4.786116888878019"><ele>604.0</ele><time>2026-04-23T15:13:20.001Z</time></trkpt><trkpt lat="36.8595623034415" lon="-4.786166178611903"><ele>604.0</ele><time>2026-04-23T15:13:21.001Z</time></trkpt><trkpt lat="36.85948748420324" lon="-4.786230678219295"><ele>604.0</ele><time>2026-04-23T15:13:22.001Z</time></trkpt><trkpt lat="36.8594081160948" lon="-4.786284119646341"><ele>604.0</ele><time>2026-04-23T15:13:23.001Z</time></trkpt><trkpt lat="36.85932274955257" lon="-4.786323256176469"><ele>604.0</ele><time>2026-04-23T15:13:24.001Z</time></trkpt><trkpt lat="36.85923148864308" lon="-4.786327778005795"><ele>604.0</ele><time>2026-04-23T15:13:25.001Z</time></trkpt><trkpt lat="36.85914613445131" lon="-4.786364255696919"><ele>604.0</ele><time>2026-04-23T15:13:26.001Z</time></trkpt><trkpt lat="36.85906090450868" lon="-4.786396540699871"><ele>604.0</ele><time>2026-04-23T15:13:27.001Z</time></trkpt><trkpt lat="36.85898510523985" lon="-4.786444011532781"><ele>604.0</ele><time>2026-04-23T15:13:28.001Z</time></trkpt><trkpt lat="36.85890833857826" lon="-4.786498779626126"><ele>607.0</ele><time>2026-04-23T15:13:29.001Z</time></trkpt><trkpt lat="36.85883131281303" lon="-4.786546058275483"><ele>610.0</ele><time>2026-04-23T15:13:30.001Z</time></trkpt><trkpt lat="36.858743531381975" lon="-4.786579528006054"><ele>613.0</ele><time>2026-04-23T15:13:31.001Z</time></trkpt><trkpt lat="36.85865727105375" lon="-4.78659250000172"><ele>616.0</ele><time>2026-04-23T15:13:32.001Z</time></trkpt><trkpt lat="36.85857436345714" lon="-4.786603924122844"><ele>619.0</ele><time>2026-04-23T15:13:33.001Z</time></trkpt><trkpt lat="36.85849649706173" lon="-4.786628112992056"><ele>622.0</ele><time>2026-04-23T15:13:34.001Z</time></trkpt><trkpt lat="36.85843972178818" lon="-4.786692630051365"><ele>624.0</ele><time>2026-04-23T15:13:35.001Z</time></trkpt><trkpt lat="36.858373123994525" lon="-4.78674010635352"><ele>626.0</ele><time>2026-04-23T15:13:36.001Z</time></trkpt><trkpt lat="36.858315589211095" lon="-4.786780652610418"><ele>628.0</ele><time>2026-04-23T15:13:37.001Z</time></trkpt><trkpt lat="36.85823281123758" lon="-4.786821655080705"><ele>630.0</ele><time>2026-04-23T15:13:38.001Z</time></trkpt><trkpt lat="36.85814553008808" lon="-4.786839700689378"><ele>632.0</ele><time>2026-04-23T15:13:39.001Z</time></trkpt><trkpt lat="36.85806121775973" lon="-4.786882807444897"><ele>634.0</ele><time>2026-04-23T15:13:40.001Z</time></trkpt><trkpt lat="36.85796964682978" lon="-4.78689584263023"><ele>634.0</ele><time>2026-04-23T15:13:41.001Z</time></trkpt><trkpt lat="36.85788757600739" lon="-4.7868971431181855"><ele>634.0</ele><time>2026-04-23T15:13:42.001Z</time></trkpt><trkpt lat="36.85779648225806" lon="-4.786890210280367"><ele>634.0</ele><time>2026-04-23T15:13:43.001Z</time></trkpt><trkpt lat="36.857699864759326" lon="-4.786859251453945"><ele>634.0</ele><time>2026-04-23T15:13:44.001Z</time></trkpt><trkpt lat="36.857623300234565" lon="-4.786800889306982"><ele>634.0</ele><time>2026-04-23T15:13:45.001Z</time></trkpt><trkpt lat="36.857542097160774" lon="-4.786744992742415"><ele>638.0</ele><time>2026-04-23T15:13:46.001Z</time></trkpt><trkpt lat="36.85747898266171" lon="-4.78670814783291"><ele>642.0</ele><time>2026-04-23T15:13:47.001Z</time></trkpt><trkpt lat="36.85736972173453" lon="-4.786705587539185"><ele>646.0</ele><time>2026-04-23T15:13:49.001Z</time></trkpt><trkpt lat="36.85728963374075" lon="-4.786770261770134"><ele>650.0</ele><time>2026-04-23T15:13:51.001Z</time></trkpt><trkpt lat="36.85728581285488" lon="-4.786849727005683"><ele>654.0</ele><time>2026-04-23T15:13:52.001Z</time></trkpt><trkpt lat="36.85732621341322" lon="-4.787021261920392"><ele>654.0</ele><time>2026-04-23T15:13:54.001Z</time></trkpt><trkpt lat="36.857306431120044" lon="-4.787105064356249"><ele>654.0</ele><time>2026-04-23T15:13:55.001Z</time></trkpt><trkpt lat="36.85726370012549" lon="-4.787176859240802"><ele>654.0</ele><time>2026-04-23T15:13:56.001Z</time></trkpt><trkpt lat="36.85722973381865" lon="-4.78726006579677"><ele>654.0</ele><time>2026-04-23T15:13:57.001Z</time></trkpt><trkpt lat="36.85722618777631" lon="-4.787365648131534"><ele>654.0</ele><time>2026-04-23T15:13:58.001Z</time></trkpt><trkpt lat="36.85726195255861" lon="-4.787451966320655"><ele>654.0</ele><time>2026-04-23T15:13:59.001Z</time></trkpt><trkpt lat="36.857294403148465" lon="-4.787546397052698"><ele>654.0</ele><time>2026-04-23T15:14:00.001Z</time></trkpt><trkpt lat="36.857332281167494" lon="-4.787639774789088"><ele>654.0</ele><time>2026-04-23T15:14:01.001Z</time></trkpt><trkpt lat="36.857378116160525" lon="-4.787709256760587"><ele>654.0</ele><time>2026-04-23T15:14:02.001Z</time></trkpt><trkpt lat="36.857446624773644" lon="-4.787793237994827"><ele>654.0</ele><time>2026-04-23T15:14:03.001Z</time></trkpt><trkpt lat="36.857516500791924" lon="-4.787870071032693"><ele>654.0</ele><time>2026-04-23T15:14:04.001Z</time></trkpt><trkpt lat="36.85758877936784" lon="-4.787951117338324"><ele>654.0</ele><time>2026-04-23T15:14:05.001Z</time></trkpt><trkpt lat="36.85765090546091" lon="-4.788026972922093"><ele>653.0</ele><time>2026-04-23T15:14:06.001Z</time></trkpt><trkpt lat="36.85769984846526" lon="-4.788099621521011"><ele>652.0</ele><time>2026-04-23T15:14:07.001Z</time></trkpt><trkpt lat="36.85774459735285" lon="-4.788179274217154"><ele>651.0</ele><time>2026-04-23T15:14:08.001Z</time></trkpt><trkpt lat="36.85777403128988" lon="-4.788264921966588"><ele>650.0</ele><time>2026-04-23T15:14:09.001Z</time></trkpt><trkpt lat="36.857803809673285" lon="-4.788347285541787"><ele>649.0</ele><time>2026-04-23T15:14:10.001Z</time></trkpt><trkpt lat="36.85783808765311" lon="-4.788434363192751"><ele>648.0</ele><time>2026-04-23T15:14:11.001Z</time></trkpt><trkpt lat="36.8578621905391" lon="-4.788508830805103"><ele>647.0</ele><time>2026-04-23T15:14:12.001Z</time></trkpt><trkpt lat="36.85788547410009" lon="-4.788590379192836"><ele>647.0</ele><time>2026-04-23T15:14:13Z</time></trkpt><trkpt lat="36.857909961320125" lon="-4.7886683663433915"><ele>647.0</ele><time>2026-04-23T15:14:14Z</time></trkpt><trkpt lat="36.857940484979395" lon="-4.788788203407494"><ele>647.0</ele><time>2026-04-23T15:14:16Z</time></trkpt><trkpt lat="36.857962007224955" lon="-4.788888237537822"><ele>647.0</ele><time>2026-04-23T15:14:55.001Z</time></trkpt><trkpt lat="36.85796916102551" lon="-4.789014925724571"><ele>647.0</ele><time>2026-04-23T15:14:57.001Z</time></trkpt><trkpt lat="36.857954454209846" lon="-4.789102053105898"><ele>647.0</ele><time>2026-04-23T15:14:58.001Z</time></trkpt><trkpt lat="36.857930582885125" lon="-4.789185338393547"><ele>647.0</ele><time>2026-04-23T15:14:59.001Z</time></trkpt><trkpt lat="36.85790493649033" lon="-4.789282370189255"><ele>647.0</ele><time>2026-04-23T15:15:00.001Z</time></trkpt><trkpt lat="36.85785454389059" lon="-4.789395683453015"><ele>647.0</ele><time>2026-04-23T15:15:01.001Z</time></trkpt><trkpt lat="36.857782819869094" lon="-4.789487914552275"><ele>647.0</ele><time>2026-04-23T15:15:02.001Z</time></trkpt><trkpt lat="36.857680094362976" lon="-4.789556044170551"><ele>647.0</ele><time>2026-04-23T15:15:03.001Z</time></trkpt><trkpt lat="36.8575970654793" lon="-4.789611866060347"><ele>652.2</ele><time>2026-04-23T15:15:04.001Z</time></trkpt><trkpt lat="36.857519646505516" lon="-4.789667524300585"><ele>657.4000000000001</ele><time>2026-04-23T15:15:05.001Z</time></trkpt><trkpt lat="36.857419982045464" lon="-4.789740465971139"><ele>662.5999999999999</ele><time>2026-04-23T15:15:06Z</time></trkpt><trkpt lat="36.857397636187635" lon="-4.789888610541891"><ele>667.8</ele><time>2026-04-23T15:15:09Z</time></trkpt><trkpt lat="36.857393267988975" lon="-4.789999038803099"><ele>673.0</ele><time>2026-04-23T15:15:10Z</time></trkpt><trkpt lat="36.85737676402683" lon="-4.790091535531022"><ele>675.3333333333334</ele><time>2026-04-23T15:15:11Z</time></trkpt><trkpt lat="36.857330654852696" lon="-4.790180204886614"><ele>677.6666666666667</ele><time>2026-04-23T15:15:12Z</time></trkpt><trkpt lat="36.85721852823563" lon="-4.790209325205821"><ele>680.0</ele><time>2026-04-23T15:15:13Z</time></trkpt><trkpt lat="36.85715170308641" lon="-4.790249010964061"><ele>682.3333333333334</ele><time>2026-04-23T15:15:14Z</time></trkpt><trkpt lat="36.85712419090352" lon="-4.790367997394754"><ele>684.6666666666666</ele><time>2026-04-23T15:15:16Z</time></trkpt><trkpt lat="36.857171225941244" lon="-4.790444112536586"><ele>687.0</ele><time>2026-04-23T15:15:17Z</time></trkpt><trkpt lat="36.85721919893046" lon="-4.790546418927925"><ele>687.0</ele><time>2026-04-23T15:15:18Z</time></trkpt><trkpt lat="36.857269664831975" lon="-4.790659226597441"><ele>687.0</ele><time>2026-04-23T15:15:19Z</time></trkpt><trkpt lat="36.85734457250726" lon="-4.790734235935672"><ele>687.0</ele><time>2026-04-23T15:15:20Z</time></trkpt><trkpt lat="36.85742951023246" lon="-4.790791924794117"><ele>687.0</ele><time>2026-04-23T15:15:21Z</time></trkpt><trkpt lat="36.85750954492743" lon="-4.7908379181640095"><ele>687.0</ele><time>2026-04-23T15:15:22Z</time></trkpt><trkpt lat="36.85760118826726" lon="-4.79087886025985"><ele>686.2</ele><time>2026-04-23T15:15:23Z</time></trkpt><trkpt lat="36.857701643439185" lon="-4.790888492163391"><ele>685.4000000000001</ele><time>2026-04-23T15:15:24Z</time></trkpt><trkpt lat="36.85779235759421" lon="-4.790928431633418"><ele>684.5999999999999</ele><time>2026-04-23T15:15:25Z</time></trkpt><trkpt lat="36.857889546553736" lon="-4.790943723585432"><ele>683.8</ele><time>2026-04-23T15:15:26Z</time></trkpt><trkpt lat="36.85799506396593" lon="-4.790937169048893"><ele>683.0</ele><time>2026-04-23T15:15:27Z</time></trkpt><trkpt lat="36.858094821037625" lon="-4.790892292780108"><ele>683.0</ele><time>2026-04-23T15:15:28Z</time></trkpt><trkpt lat="36.85819805436501" lon="-4.790878369483488"><ele>683.0</ele><time>2026-04-23T15:15:29Z</time></trkpt><trkpt lat="36.85830194880165" lon="-4.79089407871044"><ele>683.0</ele><time>2026-04-23T15:15:30Z</time></trkpt><trkpt lat="36.85840904878081" lon="-4.790906182280599"><ele>683.0</ele><time>2026-04-23T15:15:31Z</time></trkpt><trkpt lat="36.85850907612028" lon="-4.790891212152254"><ele>683.0</ele><time>2026-04-23T15:15:32Z</time></trkpt><trkpt lat="36.858602377244566" lon="-4.790899747077679"><ele>681.8</ele><time>2026-04-23T15:15:33Z</time></trkpt><trkpt lat="36.858675354275604" lon="-4.790898486457868"><ele>680.5999999999999</ele><time>2026-04-23T15:15:34Z</time></trkpt><trkpt lat="36.858771438072395" lon="-4.790968291323922"><ele>679.4000000000001</ele><time>2026-04-23T15:15:36Z</time></trkpt><trkpt lat="36.85877482040537" lon="-4.791080744915468"><ele>678.2</ele><time>2026-04-23T15:15:37Z</time></trkpt><trkpt lat="36.85875535134661" lon="-4.791192029521337"><ele>677.0</ele><time>2026-04-23T15:15:38Z</time></trkpt><trkpt lat="36.85874778385425" lon="-4.7913176999808105"><ele>677.0</ele><time>2026-04-23T15:15:39Z</time></trkpt><trkpt lat="36.858732374848046" lon="-4.791420075585681"><ele>677.0</ele><time>2026-04-23T15:15:40Z</time></trkpt><trkpt lat="36.8587229717774" lon="-4.791546007630363"><ele>677.0</ele><time>2026-04-23T15:15:41Z</time></trkpt><trkpt lat="36.858716522387894" lon="-4.791664601081054"><ele>677.0</ele><time>2026-04-23T15:15:42Z</time></trkpt><trkpt lat="36.8587300509753" lon="-4.791779917357521"><ele>677.0</ele><time>2026-04-23T15:15:43Z</time></trkpt><trkpt lat="36.85874021991171" lon="-4.791890067637237"><ele>680.4000000000001</ele><time>2026-04-23T15:15:44Z</time></trkpt><trkpt lat="36.85875009742743" lon="-4.792012858131084"><ele>683.8000000000001</ele><time>2026-04-23T15:15:45Z</time></trkpt><trkpt lat="36.858743290475545" lon="-4.792146887383436"><ele>687.2</ele><time>2026-04-23T15:15:46Z</time></trkpt><trkpt lat="36.85871887710554" lon="-4.7922793759978255"><ele>690.6</ele><time>2026-04-23T15:15:47Z</time></trkpt><trkpt lat="36.85870379164388" lon="-4.792401280245769"><ele>694.0</ele><time>2026-04-23T15:15:48Z</time></trkpt><trkpt lat="36.858720336173285" lon="-4.792493232296351"><ele>694.0</ele><time>2026-04-23T15:15:49Z</time></trkpt><trkpt lat="36.85876333810025" lon="-4.79257019870013"><ele>694.0</ele><time>2026-04-23T15:15:50Z</time></trkpt><trkpt lat="36.858855763005764" lon="-4.7926116751745536"><ele>694.0</ele><time>2026-04-23T15:15:51Z</time></trkpt><trkpt lat="36.85892251405554" lon="-4.7926896253551305"><ele>694.0</ele><time>2026-04-23T15:15:52Z</time></trkpt><trkpt lat="36.85899888824451" lon="-4.792747367811507"><ele>694.0</ele><time>2026-04-23T15:15:53Z</time></trkpt><trkpt lat="36.85904019648728" lon="-4.792815389178551"><ele>694.0</ele><time>2026-04-23T15:15:54Z</time></trkpt><trkpt lat="36.85907592560046" lon="-4.79290246121845"><ele>695.0</ele><time>2026-04-23T15:15:55Z</time></trkpt><trkpt lat="36.8590927055957" lon="-4.792998237468058"><ele>696.0</ele><time>2026-04-23T15:15:56Z</time></trkpt><trkpt lat="36.85908232822145" lon="-4.793100964374012"><ele>697.0</ele><time>2026-04-23T15:15:57Z</time></trkpt><trkpt lat="36.8590620199272" lon="-4.793193528994691"><ele>698.0</ele><time>2026-04-23T15:15:58Z</time></trkpt><trkpt lat="36.859033498561125" lon="-4.793283573744485"><ele>699.0</ele><time>2026-04-23T15:15:59Z</time></trkpt><trkpt lat="36.859004982523665" lon="-4.793381187748439"><ele>700.0</ele><time>2026-04-23T15:16:00Z</time></trkpt><trkpt lat="36.85897688821007" lon="-4.793469200623382"><ele>699.4</ele><time>2026-04-23T15:16:01Z</time></trkpt><trkpt lat="36.85894145065618" lon="-4.793564075333902"><ele>698.8</ele><time>2026-04-23T15:16:02Z</time></trkpt><trkpt lat="36.858894419897965" lon="-4.793642629064453"><ele>698.2</ele><time>2026-04-23T15:16:03Z</time></trkpt><trkpt lat="36.85885227541919" lon="-4.793753125324108"><ele>697.6</ele><time>2026-04-23T15:16:04Z</time></trkpt><trkpt lat="36.85879020666759" lon="-4.793858300314295"><ele>697.0</ele><time>2026-04-23T15:16:05Z</time></trkpt><trkpt lat="36.85870991369828" lon="-4.793945010591524"><ele>697.0</ele><time>2026-04-23T15:16:06Z</time></trkpt><trkpt lat="36.858644736106655" lon="-4.794057449059758"><ele>697.0</ele><time>2026-04-23T15:16:07Z</time></trkpt><trkpt lat="36.85856856469411" lon="-4.794139275601078"><ele>697.0</ele><time>2026-04-23T15:16:08Z</time></trkpt><trkpt lat="36.858505183658586" lon="-4.794225203215781"><ele>697.0</ele><time>2026-04-23T15:16:09Z</time></trkpt><trkpt lat="36.85848082250028" lon="-4.794327071565663"><ele>697.0</ele><time>2026-04-23T15:16:10Z</time></trkpt><trkpt lat="36.858499668294044" lon="-4.7944219863491675"><ele>699.0</ele><time>2026-04-23T15:16:11Z</time></trkpt><trkpt lat="36.85852865020427" lon="-4.794523847917102"><ele>701.0</ele><time>2026-04-23T15:16:12Z</time></trkpt><trkpt lat="36.85853648744301" lon="-4.794605562491448"><ele>703.0</ele><time>2026-04-23T15:16:13Z</time></trkpt><trkpt lat="36.8585427073634" lon="-4.794700187423179"><ele>705.0</ele><time>2026-04-23T15:16:15Z</time></trkpt><trkpt lat="36.8586178211289" lon="-4.794716391398921"><ele>707.0</ele><time>2026-04-23T15:16:19Z</time></trkpt><trkpt lat="36.85868923556515" lon="-4.794730144715504"><ele>709.0</ele><time>2026-04-23T15:16:24Z</time></trkpt><trkpt lat="36.85877003859453" lon="-4.794737377496751"><ele>709.0</ele><time>2026-04-23T15:16:30Z</time></trkpt><trkpt lat="36.85884136428391" lon="-4.79474169954166"><ele>709.0</ele><time>2026-04-23T15:16:35.001Z</time></trkpt><trkpt lat="36.85894113005424" lon="-4.794773895376208"><ele>709.0</ele><time>2026-04-23T15:16:38.001Z</time></trkpt><trkpt lat="36.85899918169004" lon="-4.794734681549611"><ele>709.0</ele><time>2026-04-23T15:16:39.001Z</time></trkpt><trkpt lat="36.85905694817384" lon="-4.794682407766478"><ele>709.0</ele><time>2026-04-23T15:16:40.001Z</time></trkpt><trkpt lat="36.8591139025003" lon="-4.7946396898547174"><ele>709.0</ele><time>2026-04-23T15:16:41.001Z</time></trkpt><trkpt lat="36.859243811534064" lon="-4.794635701934651"><ele>706.1666666666667</ele><time>2026-04-23T15:16:43.001Z</time></trkpt><trkpt lat="36.85931896487395" lon="-4.794647946341215"><ele>703.3333333333334</ele><time>2026-04-23T15:16:44.001Z</time></trkpt><trkpt lat="36.85938777407441" lon="-4.794667400737181"><ele>700.5</ele><time>2026-04-23T15:16:45.001Z</time></trkpt><trkpt lat="36.8594699840887" lon="-4.794683726863364"><ele>697.6666666666666</ele><time>2026-04-23T15:16:46.001Z</time></trkpt><trkpt lat="36.859542350045864" lon="-4.794709484702852"><ele>694.8333333333333</ele><time>2026-04-23T15:16:47.001Z</time></trkpt><trkpt lat="36.8596502397963" lon="-4.794803954685097"><ele>692.0</ele><time>2026-04-23T15:16:49.001Z</time></trkpt><trkpt lat="36.85971903559723" lon="-4.794855499446551"><ele>692.0</ele><time>2026-04-23T15:16:50.001Z</time></trkpt><trkpt lat="36.85979943224918" lon="-4.794844311379962"><ele>692.0</ele><time>2026-04-23T15:16:51.001Z</time></trkpt><trkpt lat="36.85987758469502" lon="-4.794868435735291"><ele>692.0</ele><time>2026-04-23T15:16:52.001Z</time></trkpt><trkpt lat="36.85996276389108" lon="-4.794868684750178"><ele>692.0</ele><time>2026-04-23T15:16:53.001Z</time></trkpt><trkpt lat="36.86004642521915" lon="-4.794873665933235"><ele>692.0</ele><time>2026-04-23T15:16:54.001Z</time></trkpt><trkpt lat="36.860124916230944" lon="-4.7948906488401235"><ele>692.0</ele><time>2026-04-23T15:16:55.001Z</time></trkpt><trkpt lat="36.860203620708226" lon="-4.794936737855259"><ele>688.8</ele><time>2026-04-23T15:16:56Z</time></trkpt><trkpt lat="36.86028454711545" lon="-4.795002255399119"><ele>685.6</ele><time>2026-04-23T15:16:57Z</time></trkpt><trkpt lat="36.86035893758327" lon="-4.795076629974287"><ele>682.4</ele><time>2026-04-23T15:16:58Z</time></trkpt><trkpt lat="36.860443024452586" lon="-4.795120295011027"><ele>679.1999999999999</ele><time>2026-04-23T15:16:59Z</time></trkpt><trkpt lat="36.860525991024474" lon="-4.795171679552143"><ele>676.0</ele><time>2026-04-23T15:17:00Z</time></trkpt><trkpt lat="36.86060913873627" lon="-4.795213964108546"><ele>675.5</ele><time>2026-04-23T15:17:01Z</time></trkpt><trkpt lat="36.860700178033426" lon="-4.795260404252585"><ele>675.0</ele><time>2026-04-23T15:17:02Z</time></trkpt><trkpt lat="36.860777379799714" lon="-4.79527642963949"><ele>674.5</ele><time>2026-04-23T15:17:03Z</time></trkpt><trkpt lat="36.86085365777707" lon="-4.795292879796823"><ele>674.0</ele><time>2026-04-23T15:17:04Z</time></trkpt><trkpt lat="36.86093208988435" lon="-4.795280788525748"><ele>673.5</ele><time>2026-04-23T15:17:05Z</time></trkpt><trkpt lat="36.86101714634995" lon="-4.79524854113773"><ele>673.0</ele><time>2026-04-23T15:17:06Z</time></trkpt><trkpt lat="36.861115427602854" lon="-4.795204204937002"><ele>673.0</ele><time>2026-04-23T15:17:07Z</time></trkpt><trkpt lat="36.86122594015894" lon="-4.795193212223455"><ele>673.0</ele><time>2026-04-23T15:17:08Z</time></trkpt><trkpt lat="36.8613414951042" lon="-4.79518172495589"><ele>673.0</ele><time>2026-04-23T15:17:09Z</time></trkpt><trkpt lat="36.861444168550506" lon="-4.795155147357747"><ele>673.0</ele><time>2026-04-23T15:17:10Z</time></trkpt><trkpt lat="36.86153930880841" lon="-4.795134158207769"><ele>673.0</ele><time>2026-04-23T15:17:11Z</time></trkpt><trkpt lat="36.861628921178095" lon="-4.795133609334888"><ele>673.5999999999999</ele><time>2026-04-23T15:17:12Z</time></trkpt><trkpt lat="36.861722025826595" lon="-4.795159345074308"><ele>674.1999999999999</ele><time>2026-04-23T15:17:13Z</time></trkpt><trkpt lat="36.861814842080854" lon="-4.795232447858309"><ele>674.8</ele><time>2026-04-23T15:17:14Z</time></trkpt><trkpt lat="36.861903117678686" lon="-4.795315146760376"><ele>675.4</ele><time>2026-04-23T15:17:15Z</time></trkpt><trkpt lat="36.86197616398997" lon="-4.795410233204121"><ele>676.0</ele><time>2026-04-23T15:17:16Z</time></trkpt><trkpt lat="36.862047185039835" lon="-4.795515499822843"><ele>677.8</ele><time>2026-04-23T15:17:17Z</time></trkpt><trkpt lat="36.86212103891753" lon="-4.7956062732446965"><ele>679.5999999999999</ele><time>2026-04-23T15:17:18Z</time></trkpt><trkpt lat="36.86218369133895" lon="-4.795684031475908"><ele>681.4</ele><time>2026-04-23T15:17:19Z</time></trkpt><trkpt lat="36.862251527170415" lon="-4.795777772815012"><ele>683.2</ele><time>2026-04-23T15:17:20Z</time></trkpt><trkpt lat="36.86230915857817" lon="-4.7958731330758155"><ele>685.0</ele><time>2026-04-23T15:17:21Z</time></trkpt><trkpt lat="36.86234113022363" lon="-4.79596307997562"><ele>683.3333333333334</ele><time>2026-04-23T15:17:22Z</time></trkpt><trkpt lat="36.862370375893164" lon="-4.796059809768433"><ele>681.6666666666667</ele><time>2026-04-23T15:17:23Z</time></trkpt><trkpt lat="36.862385850658264" lon="-4.796142199661672"><ele>680.0</ele><time>2026-04-23T15:17:24Z</time></trkpt><trkpt lat="36.86238342054684" lon="-4.796235769136437"><ele>678.3333333333334</ele><time>2026-04-23T15:17:25Z</time></trkpt><trkpt lat="36.862353866445766" lon="-4.796323440993817"><ele>676.6666666666666</ele><time>2026-04-23T15:17:26Z</time></trkpt><trkpt lat="36.86232370463098" lon="-4.796395522151969"><ele>675.0</ele><time>2026-04-23T15:17:27Z</time></trkpt><trkpt lat="36.862380727217584" lon="-4.7965345617444015"><ele>675.0</ele><time>2026-04-23T15:17:29Z</time></trkpt><trkpt lat="36.86246006899784" lon="-4.7965762819921025"><ele>675.0</ele><time>2026-04-23T15:17:30Z</time></trkpt><trkpt lat="36.86255786760532" lon="-4.796593777307269"><ele>675.0</ele><time>2026-04-23T15:17:31Z</time></trkpt><trkpt lat="36.86265390630105" lon="-4.796598468857247"><ele>675.0</ele><time>2026-04-23T15:17:32Z</time></trkpt><trkpt lat="36.86273627483728" lon="-4.796602790966205"><ele>675.0</ele><time>2026-04-23T15:17:33Z</time></trkpt><trkpt lat="36.86281094851633" lon="-4.796629371868118"><ele>675.0</ele><time>2026-04-23T15:17:34Z</time></trkpt><trkpt lat="36.86286799082256" lon="-4.796702608483058"><ele>675.6</ele><time>2026-04-23T15:17:35Z</time></trkpt><trkpt lat="36.862896770014736" lon="-4.796809433995537"><ele>676.2</ele><time>2026-04-23T15:17:36Z</time></trkpt><trkpt lat="36.86290252196279" lon="-4.796926690950563"><ele>676.8</ele><time>2026-04-23T15:17:37Z</time></trkpt><trkpt lat="36.862931116185614" lon="-4.797038867805831"><ele>677.4</ele><time>2026-04-23T15:17:38Z</time></trkpt><trkpt lat="36.862972553367136" lon="-4.7971358395482095"><ele>678.0</ele><time>2026-04-23T15:17:39Z</time></trkpt><trkpt lat="36.863020643915625" lon="-4.797222709509107"><ele>678.0</ele><time>2026-04-23T15:17:40Z</time></trkpt><trkpt lat="36.86304433660931" lon="-4.797324924984533"><ele>678.0</ele><time>2026-04-23T15:17:41Z</time></trkpt><trkpt lat="36.86305401525171" lon="-4.797418708343988"><ele>678.0</ele><time>2026-04-23T15:17:42Z</time></trkpt><trkpt lat="36.863087402127526" lon="-4.797508618789593"><ele>678.0</ele><time>2026-04-23T15:17:43Z</time></trkpt><trkpt lat="36.863150276896796" lon="-4.7975696098643645"><ele>678.0</ele><time>2026-04-23T15:17:44Z</time></trkpt><trkpt lat="36.863234902535005" lon="-4.797586105037916"><ele>678.0</ele><time>2026-04-23T15:17:45Z</time></trkpt><trkpt lat="36.86332301833924" lon="-4.797567483714635"><ele>678.0</ele><time>2026-04-23T15:17:46Z</time></trkpt><trkpt lat="36.863397378708086" lon="-4.797568190735402"><ele>678.0</ele><time>2026-04-23T15:17:47Z</time></trkpt><trkpt lat="36.86346268810795" lon="-4.797630493553778"><ele>678.0</ele><time>2026-04-23T15:17:48Z</time></trkpt><trkpt lat="36.863502846676724" lon="-4.7977368810303025"><ele>678.0</ele><time>2026-04-23T15:17:49Z</time></trkpt><trkpt lat="36.86352058137769" lon="-4.797860973287252"><ele>678.0</ele><time>2026-04-23T15:17:50Z</time></trkpt><trkpt lat="36.86354340796703" lon="-4.797972244069158"><ele>678.0</ele><time>2026-04-23T15:17:51Z</time></trkpt><trkpt lat="36.863558192704964" lon="-4.798072738108351"><ele>678.3333333333334</ele><time>2026-04-23T15:17:52Z</time></trkpt><trkpt lat="36.8635727981028" lon="-4.798164854189666"><ele>678.6666666666666</ele><time>2026-04-23T15:17:53Z</time></trkpt><trkpt lat="36.86360614445761" lon="-4.798247434908634"><ele>679.0</ele><time>2026-04-23T15:17:54Z</time></trkpt><trkpt lat="36.86365234194621" lon="-4.798317711604286"><ele>679.3333333333333</ele><time>2026-04-23T15:17:55Z</time></trkpt><trkpt lat="36.86369052987902" lon="-4.798396743419356"><ele>679.6666666666666</ele><time>2026-04-23T15:17:56Z</time></trkpt><trkpt lat="36.863699508851795" lon="-4.798503038805208"><ele>680.0</ele><time>2026-04-23T15:17:57Z</time></trkpt><trkpt lat="36.863687156710455" lon="-4.798617462804795"><ele>677.2857142857143</ele><time>2026-04-23T15:17:58Z</time></trkpt><trkpt lat="36.863649034379335" lon="-4.798705196349268"><ele>674.5714285714286</ele><time>2026-04-23T15:17:59Z</time></trkpt><trkpt lat="36.8636072053568" lon="-4.79877942023803"><ele>671.8571428571429</ele><time>2026-04-23T15:18:00Z</time></trkpt><trkpt lat="36.86357337986262" lon="-4.798852153085939"><ele>669.1428571428571</ele><time>2026-04-23T15:18:01Z</time></trkpt><trkpt lat="36.86353737801633" lon="-4.798929297937937"><ele>666.4285714285714</ele><time>2026-04-23T15:18:02Z</time></trkpt><trkpt lat="36.86351298521578" lon="-4.799010389759792"><ele>663.7142857142857</ele><time>2026-04-23T15:18:03Z</time></trkpt><trkpt lat="36.86351081322223" lon="-4.799111097101961"><ele>661.0</ele><time>2026-04-23T15:18:04Z</time></trkpt><trkpt lat="36.863512953757805" lon="-4.799203424183942"><ele>661.0</ele><time>2026-04-23T15:18:05Z</time></trkpt><trkpt lat="36.863496866163125" lon="-4.799295383291556"><ele>661.0</ele><time>2026-04-23T15:18:06Z</time></trkpt><trkpt lat="36.8634688991763" lon="-4.799372244300368"><ele>661.0</ele><time>2026-04-23T15:18:07Z</time></trkpt><trkpt lat="36.86342602849176" lon="-4.799448398274536"><ele>661.0</ele><time>2026-04-23T15:18:08Z</time></trkpt><trkpt lat="36.86340037969049" lon="-4.799533772348122"><ele>661.0</ele><time>2026-04-23T15:18:09Z</time></trkpt><trkpt lat="36.86337860989297" lon="-4.799638115098644"><ele>661.0</ele><time>2026-04-23T15:18:10Z</time></trkpt><trkpt lat="36.86335787123625" lon="-4.79972713091464"><ele>657.5</ele><time>2026-04-23T15:18:11Z</time></trkpt><trkpt lat="36.86333135721946" lon="-4.799810294977474"><ele>654.0</ele><time>2026-04-23T15:18:12Z</time></trkpt><trkpt lat="36.863303730605004" lon="-4.799935485167999"><ele>650.5</ele><time>2026-04-23T15:18:14Z</time></trkpt><trkpt lat="36.86339045096433" lon="-4.80001778892913"><ele>647.0</ele><time>2026-04-23T15:18:16Z</time></trkpt><trkpt lat="36.86346905337163" lon="-4.800001253030066"><ele>643.5</ele><time>2026-04-23T15:18:17Z</time></trkpt><trkpt lat="36.86354637682035" lon="-4.800031187784927"><ele>640.0</ele><time>2026-04-23T15:18:17.999Z</time></trkpt><trkpt lat="36.86362201216959" lon="-4.800053771766892"><ele>640.0</ele><time>2026-04-23T15:18:18.999Z</time></trkpt><trkpt lat="36.86369023369649" lon="-4.800087728130606"><ele>640.0</ele><time>2026-04-23T15:18:19.999Z</time></trkpt><trkpt lat="36.86376199101406" lon="-4.800125380660047"><ele>640.0</ele><time>2026-04-23T15:18:20.999Z</time></trkpt><trkpt lat="36.86384535866517" lon="-4.8001491951161315"><ele>640.0</ele><time>2026-04-23T15:18:21.999Z</time></trkpt><trkpt lat="36.86391279497891" lon="-4.8001570604980905"><ele>640.0</ele><time>2026-04-23T15:18:22.999Z</time></trkpt><trkpt lat="36.86400790690923" lon="-4.8001921981717866"><ele>640.0</ele><time>2026-04-23T15:18:24.999Z</time></trkpt><trkpt lat="36.864045923694604" lon="-4.800268240958358"><ele>637.6666666666667</ele><time>2026-04-23T15:18:25.999Z</time></trkpt><trkpt lat="36.86406042851854" lon="-4.800379803152508"><ele>635.3333333333334</ele><time>2026-04-23T15:18:26.999Z</time></trkpt><trkpt lat="36.86409399387121" lon="-4.800474082716416"><ele>633.0</ele><time>2026-04-23T15:18:27.999Z</time></trkpt><trkpt lat="36.86412826036259" lon="-4.80057730635991"><ele>630.6666666666666</ele><time>2026-04-23T15:18:28.999Z</time></trkpt><trkpt lat="36.86414099527721" lon="-4.8006903231295"><ele>628.3333333333333</ele><time>2026-04-23T15:18:29.999Z</time></trkpt><trkpt lat="36.864128617269174" lon="-4.800798024551336"><ele>626.0</ele><time>2026-04-23T15:18:30.999Z</time></trkpt><trkpt lat="36.86412345853765" lon="-4.800898330008804"><ele>626.1666666666666</ele><time>2026-04-23T15:18:31.999Z</time></trkpt><trkpt lat="36.864135135548416" lon="-4.800999900246028"><ele>626.3333333333333</ele><time>2026-04-23T15:18:32.999Z</time></trkpt><trkpt lat="36.86415443055612" lon="-4.801093219399527"><ele>626.5</ele><time>2026-04-23T15:18:33.999Z</time></trkpt><trkpt lat="36.86417554600848" lon="-4.801187686061709"><ele>626.6666666666666</ele><time>2026-04-23T15:18:34.999Z</time></trkpt><trkpt lat="36.86418399360266" lon="-4.801293531976724"><ele>626.8333333333334</ele><time>2026-04-23T15:18:35.999Z</time></trkpt><trkpt lat="36.864186708891374" lon="-4.801397933363792"><ele>627.0</ele><time>2026-04-23T15:18:36.999Z</time></trkpt><trkpt lat="36.864199829300404" lon="-4.801507957554413"><ele>627.0</ele><time>2026-04-23T15:18:37.999Z</time></trkpt><trkpt lat="36.864243789006856" lon="-4.80160295516539"><ele>627.0</ele><time>2026-04-23T15:18:39.001Z</time></trkpt><trkpt lat="36.86430934423864" lon="-4.8016908093625075"><ele>627.0</ele><time>2026-04-23T15:18:40.001Z</time></trkpt><trkpt lat="36.86435422567633" lon="-4.801751534831816"><ele>627.0</ele><time>2026-04-23T15:18:41Z</time></trkpt><trkpt lat="36.86438596756772" lon="-4.801845290388522"><ele>627.0</ele><time>2026-04-23T15:18:42Z</time></trkpt><trkpt lat="36.86441045336269" lon="-4.8019300404454714"><ele>627.0</ele><time>2026-04-23T15:18:43.001Z</time></trkpt><trkpt lat="36.86439006868398" lon="-4.802044028158982"><ele>627.5</ele><time>2026-04-23T15:18:44Z</time></trkpt><trkpt lat="36.86438581148564" lon="-4.802146826708522"><ele>628.0</ele><time>2026-04-23T15:18:45Z</time></trkpt><trkpt lat="36.86439931382998" lon="-4.802248682614399"><ele>628.5</ele><time>2026-04-23T15:18:46Z</time></trkpt><trkpt lat="36.86442606289688" lon="-4.802354066761339"><ele>629.0</ele><time>2026-04-23T15:18:47Z</time></trkpt><trkpt lat="36.864459376131315" lon="-4.802459280806529"><ele>629.5</ele><time>2026-04-23T15:18:48Z</time></trkpt><trkpt lat="36.86451413518759" lon="-4.8025555631563375"><ele>630.0</ele><time>2026-04-23T15:18:49Z</time></trkpt><trkpt lat="36.86457873698825" lon="-4.802646747544517"><ele>632.0</ele><time>2026-04-23T15:18:50Z</time></trkpt><trkpt lat="36.86464951471978" lon="-4.802727600220076"><ele>634.0</ele><time>2026-04-23T15:18:51Z</time></trkpt><trkpt lat="36.86474434155612" lon="-4.802783460064241"><ele>636.0</ele><time>2026-04-23T15:18:52Z</time></trkpt><trkpt lat="36.86480497206191" lon="-4.802859633129004"><ele>638.0</ele><time>2026-04-23T15:18:53Z</time></trkpt><trkpt lat="36.864861995793866" lon="-4.802962940648848"><ele>640.0</ele><time>2026-04-23T15:18:55Z</time></trkpt><trkpt lat="36.86485106820307" lon="-4.803058646120998"><ele>640.0</ele><time>2026-04-23T15:18:56Z</time></trkpt><trkpt lat="36.86486622159453" lon="-4.803168403032008"><ele>640.0</ele><time>2026-04-23T15:18:57Z</time></trkpt><trkpt lat="36.864866067023165" lon="-4.803262249503208"><ele>640.0</ele><time>2026-04-23T15:18:58Z</time></trkpt><trkpt lat="36.86486325522431" lon="-4.803358283633708"><ele>640.0</ele><time>2026-04-23T15:18:59Z</time></trkpt><trkpt lat="36.864858381227506" lon="-4.803445211624416"><ele>640.0</ele><time>2026-04-23T15:19:00Z</time></trkpt><trkpt lat="36.86485437128059" lon="-4.803528110213209"><ele>640.0</ele><time>2026-04-23T15:19:01Z</time></trkpt><trkpt lat="36.86484570310959" lon="-4.803606386394678"><ele>640.0</ele><time>2026-04-23T15:19:02Z</time></trkpt><trkpt lat="36.86483845228165" lon="-4.803686347330351"><ele>639.8</ele><time>2026-04-23T15:19:03Z</time></trkpt><trkpt lat="36.864849998563564" lon="-4.803840326287342"><ele>639.6</ele><time>2026-04-23T15:19:05Z</time></trkpt><trkpt lat="36.864863704282385" lon="-4.803992892278282"><ele>639.4</ele><time>2026-04-23T15:19:07Z</time></trkpt><trkpt lat="36.86487473079135" lon="-4.804075119977881"><ele>639.2</ele><time>2026-04-23T15:19:08Z</time></trkpt><trkpt lat="36.8648934849752" lon="-4.804163542784904"><ele>639.0</ele><time>2026-04-23T15:19:09Z</time></trkpt><trkpt lat="36.86491430403489" lon="-4.804245930531357"><ele>639.0000000000001</ele><time>2026-04-23T15:19:10Z</time></trkpt><trkpt lat="36.86493984980725" lon="-4.804326502229801"><ele>639.0</ele><time>2026-04-23T15:19:11Z</time></trkpt><trkpt lat="36.86497449182555" lon="-4.804408103727859"><ele>639.0</ele><time>2026-04-23T15:19:12Z</time></trkpt><trkpt lat="36.86501822772196" lon="-4.804485537372644"><ele>639.0</ele><time>2026-04-23T15:19:13Z</time></trkpt><trkpt lat="36.86506668593049" lon="-4.80455743549605"><ele>639.0</ele><time>2026-04-23T15:19:14Z</time></trkpt><trkpt lat="36.86511686376628" lon="-4.804619510887261"><ele>639.0000000000001</ele><time>2026-04-23T15:19:15Z</time></trkpt><trkpt lat="36.865174731292065" lon="-4.8046827865951425"><ele>639.0</ele><time>2026-04-23T15:19:16Z</time></trkpt><trkpt lat="36.86522709250683" lon="-4.804730714649309"><ele>639.0</ele><time>2026-04-23T15:19:17Z</time></trkpt><trkpt lat="36.86531408475026" lon="-4.8048141985638475"><ele>639.0</ele><time>2026-04-23T15:19:19Z</time></trkpt><trkpt lat="36.86540382931846" lon="-4.8048783436269"><ele>639.0</ele><time>2026-04-23T15:19:21Z</time></trkpt><trkpt lat="36.865492226041944" lon="-4.804935826082801"><ele>639.0</ele><time>2026-04-23T15:19:23Z</time></trkpt><trkpt lat="36.8655678591519" lon="-4.804991197612165"><ele>639.0</ele><time>2026-04-23T15:19:25Z</time></trkpt><trkpt lat="36.865639590279756" lon="-4.805029659495325"><ele>639.0</ele><time>2026-04-23T15:19:27Z</time></trkpt><trkpt lat="36.8657143211657" lon="-4.805065537799013"><ele>639.0</ele><time>2026-04-23T15:19:30Z</time></trkpt><trkpt lat="36.86578559953173" lon="-4.805102074158083"><ele>639.0</ele><time>2026-04-23T15:19:33Z</time></trkpt><trkpt lat="36.86585384632702" lon="-4.805133694472176"><ele>639.0</ele><time>2026-04-23T15:19:36Z</time></trkpt><trkpt lat="36.865940301818135" lon="-4.805185912343386"><ele>639.0</ele><time>2026-04-23T15:20:16.999Z</time></trkpt><trkpt lat="36.866051211109045" lon="-4.805266034267419"><ele>638.5</ele><time>2026-04-23T15:20:18.999Z</time></trkpt><trkpt lat="36.86611226305407" lon="-4.805318261917412"><ele>638.0</ele><time>2026-04-23T15:20:19.999Z</time></trkpt><trkpt lat="36.86618041364684" lon="-4.805375943095551"><ele>637.5</ele><time>2026-04-23T15:20:20.999Z</time></trkpt><trkpt lat="36.866255486438206" lon="-4.805416612821158"><ele>637.0</ele><time>2026-04-23T15:20:21.999Z</time></trkpt><trkpt lat="36.86632304842188" lon="-4.805475759675753"><ele>636.5</ele><time>2026-04-23T15:20:22.999Z</time></trkpt><trkpt lat="36.86638101619341" lon="-4.805564811788937"><ele>636.0</ele><time>2026-04-23T15:20:23.999Z</time></trkpt><trkpt lat="36.8664592227871" lon="-4.805596315954703"><ele>636.0</ele><time>2026-04-23T15:20:24.999Z</time></trkpt><trkpt lat="36.86651666114456" lon="-4.80565197015951"><ele>636.0</ele><time>2026-04-23T15:20:25.999Z</time></trkpt><trkpt lat="36.866592369335564" lon="-4.805749178952666"><ele>636.0</ele><time>2026-04-23T15:20:27.999Z</time></trkpt><trkpt lat="36.86658039046498" lon="-4.805841314545812"><ele>636.0</ele><time>2026-04-23T15:20:28.999Z</time></trkpt><trkpt lat="36.86657082925884" lon="-4.805936807248841"><ele>636.0</ele><time>2026-04-23T15:20:29.999Z</time></trkpt><trkpt lat="36.866559817647634" lon="-4.806021888741734"><ele>636.0</ele><time>2026-04-23T15:20:30.999Z</time></trkpt><trkpt lat="36.86654004076719" lon="-4.806115630926925"><ele>634.5</ele><time>2026-04-23T15:20:31.999Z</time></trkpt><trkpt lat="36.866522162404245" lon="-4.806218984894741"><ele>633.0</ele><time>2026-04-23T15:20:32.999Z</time></trkpt><trkpt lat="36.86650039993227" lon="-4.806317062299014"><ele>631.5</ele><time>2026-04-23T15:20:33.999Z</time></trkpt><trkpt lat="36.86647744352568" lon="-4.80641075586594"><ele>630.0</ele><time>2026-04-23T15:20:34.999Z</time></trkpt><trkpt lat="36.86645761069042" lon="-4.806509395792014"><ele>628.5</ele><time>2026-04-23T15:20:35.999Z</time></trkpt><trkpt lat="36.8664643899307" lon="-4.806608496317836"><ele>627.0</ele><time>2026-04-23T15:20:36.999Z</time></trkpt><trkpt lat="36.86646597781452" lon="-4.80669912497095"><ele>627.0</ele><time>2026-04-23T15:20:37.999Z</time></trkpt><trkpt lat="36.86648254707708" lon="-4.8067875558347435"><ele>627.0</ele><time>2026-04-23T15:20:38.999Z</time></trkpt><trkpt lat="36.86651716136491" lon="-4.806856101965917"><ele>627.0</ele><time>2026-04-23T15:20:39.999Z</time></trkpt><trkpt lat="36.866554668843115" lon="-4.806931119299159"><ele>627.0</ele><time>2026-04-23T15:20:40.999Z</time></trkpt><trkpt lat="36.86659858862639" lon="-4.807016542205396"><ele>627.0</ele><time>2026-04-23T15:20:41.999Z</time></trkpt><trkpt lat="36.86666140229526" lon="-4.80710388622745"><ele>627.0</ele><time>2026-04-23T15:20:42.999Z</time></trkpt><trkpt lat="36.86672557129051" lon="-4.807212097517043"><ele>624.8000000000001</ele><time>2026-04-23T15:20:43.999Z</time></trkpt><trkpt lat="36.86678532351535" lon="-4.8073264512065395"><ele>622.6</ele><time>2026-04-23T15:20:45Z</time></trkpt><trkpt lat="36.866862194430645" lon="-4.807444447474718"><ele>620.4000000000001</ele><time>2026-04-23T15:20:46Z</time></trkpt><trkpt lat="36.86692270354462" lon="-4.807538926645041"><ele>618.2</ele><time>2026-04-23T15:20:47Z</time></trkpt><trkpt lat="36.86698945751981" lon="-4.8076303907633235"><ele>616.0</ele><time>2026-04-23T15:20:48Z</time></trkpt><trkpt lat="36.86705656430151" lon="-4.807723246200786"><ele>616.0</ele><time>2026-04-23T15:20:49Z</time></trkpt><trkpt lat="36.86712272571183" lon="-4.80780632866157"><ele>616.0</ele><time>2026-04-23T15:20:50Z</time></trkpt><trkpt lat="36.86719571373823" lon="-4.807891924448132"><ele>616.0</ele><time>2026-04-23T15:20:51Z</time></trkpt><trkpt lat="36.8672568424836" lon="-4.807984826580249"><ele>616.0</ele><time>2026-04-23T15:20:52Z</time></trkpt><trkpt lat="36.867297487509944" lon="-4.808093625799391"><ele>616.0</ele><time>2026-04-23T15:20:53Z</time></trkpt><trkpt lat="36.867323113750025" lon="-4.808211803639066"><ele>616.0</ele><time>2026-04-23T15:20:54Z</time></trkpt><trkpt lat="36.86733473984227" lon="-4.808326597078659"><ele>616.0</ele><time>2026-04-23T15:20:55Z</time></trkpt><trkpt lat="36.8673229063853" lon="-4.808437883017487"><ele>616.0</ele><time>2026-04-23T15:20:56Z</time></trkpt><trkpt lat="36.86730874755957" lon="-4.808546691909853"><ele>616.0</ele><time>2026-04-23T15:20:57Z</time></trkpt><trkpt lat="36.8672855679051" lon="-4.808662369362489"><ele>616.0</ele><time>2026-04-23T15:20:58Z</time></trkpt><trkpt lat="36.86726742828269" lon="-4.808794959553136"><ele>617.4</ele><time>2026-04-23T15:20:59Z</time></trkpt><trkpt lat="36.86725975790035" lon="-4.808933852189052"><ele>618.8</ele><time>2026-04-23T15:21:00Z</time></trkpt><trkpt lat="36.86725873113155" lon="-4.809066215790297"><ele>620.1999999999999</ele><time>2026-04-23T15:21:01Z</time></trkpt><trkpt lat="36.86724575474664" lon="-4.80919847457593"><ele>621.6</ele><time>2026-04-23T15:21:02Z</time></trkpt><trkpt lat="36.86724112417528" lon="-4.8093369557872965"><ele>623.0</ele><time>2026-04-23T15:21:03Z</time></trkpt><trkpt lat="36.867255734271566" lon="-4.809470850773351"><ele>626.5999999999999</ele><time>2026-04-23T15:21:04Z</time></trkpt><trkpt lat="36.86727747762488" lon="-4.809584202385801"><ele>630.1999999999999</ele><time>2026-04-23T15:21:05Z</time></trkpt><trkpt lat="36.86731633953304" lon="-4.809693082765553"><ele>633.8</ele><time>2026-04-23T15:21:06Z</time></trkpt><trkpt lat="36.86737901063275" lon="-4.809777685171692"><ele>637.4</ele><time>2026-04-23T15:21:07Z</time></trkpt><trkpt lat="36.86747976375764" lon="-4.809788689956967"><ele>641.0</ele><time>2026-04-23T15:21:08Z</time></trkpt><trkpt lat="36.867581077889504" lon="-4.809806352927271"><ele>639.75</ele><time>2026-04-23T15:21:09Z</time></trkpt><trkpt lat="36.86767678541939" lon="-4.809864529466569"><ele>638.5</ele><time>2026-04-23T15:21:10Z</time></trkpt><trkpt lat="36.86776335940306" lon="-4.809951553953414"><ele>637.25</ele><time>2026-04-23T15:21:11Z</time></trkpt><trkpt lat="36.86785209696919" lon="-4.81006168698513"><ele>636.0</ele><time>2026-04-23T15:21:12Z</time></trkpt><trkpt lat="36.867938736034766" lon="-4.810163601317898"><ele>636.0</ele><time>2026-04-23T15:21:13Z</time></trkpt><trkpt lat="36.86802666349769" lon="-4.810256038073116"><ele>636.0</ele><time>2026-04-23T15:21:14Z</time></trkpt><trkpt lat="36.86811378115515" lon="-4.810331479388714"><ele>636.0</ele><time>2026-04-23T15:21:15Z</time></trkpt><trkpt lat="36.86820115423073" lon="-4.810396129216719"><ele>636.0</ele><time>2026-04-23T15:21:16Z</time></trkpt><trkpt lat="36.86829060828814" lon="-4.810431714411383"><ele>636.0</ele><time>2026-04-23T15:21:17Z</time></trkpt><trkpt lat="36.868383025477165" lon="-4.810467796537669"><ele>635.8</ele><time>2026-04-23T15:21:18Z</time></trkpt><trkpt lat="36.86847805686699" lon="-4.810459551031054"><ele>635.6</ele><time>2026-04-23T15:21:19Z</time></trkpt><trkpt lat="36.86858871118102" lon="-4.810448690630362"><ele>635.4</ele><time>2026-04-23T15:21:20Z</time></trkpt><trkpt lat="36.86869840569477" lon="-4.810427815478153"><ele>635.2</ele><time>2026-04-23T15:21:21Z</time></trkpt><trkpt lat="36.868808042986416" lon="-4.810414337088473"><ele>635.0</ele><time>2026-04-23T15:21:22Z</time></trkpt><trkpt lat="36.868905934827865" lon="-4.810436821648461"><ele>635.0</ele><time>2026-04-23T15:21:23Z</time></trkpt><trkpt lat="36.86899225322844" lon="-4.810464216357775"><ele>635.0</ele><time>2026-04-23T15:21:24Z</time></trkpt><trkpt lat="36.86907066071799" lon="-4.810504668487418"><ele>635.0</ele><time>2026-04-23T15:21:25Z</time></trkpt><trkpt lat="36.86914832920165" lon="-4.810548202032912"><ele>635.0</ele><time>2026-04-23T15:21:26Z</time></trkpt><trkpt lat="36.86921415272309" lon="-4.810621450514385"><ele>635.0</ele><time>2026-04-23T15:21:27Z</time></trkpt><trkpt lat="36.869279339575094" lon="-4.810712222196377"><ele>635.0</ele><time>2026-04-23T15:21:28Z</time></trkpt><trkpt lat="36.869343585986165" lon="-4.810818930403643"><ele>635.0</ele><time>2026-04-23T15:21:29Z</time></trkpt><trkpt lat="36.8694114196191" lon="-4.810933688507027"><ele>635.0</ele><time>2026-04-23T15:21:30Z</time></trkpt><trkpt lat="36.86947999643322" lon="-4.81103955807164"><ele>635.0</ele><time>2026-04-23T15:21:31Z</time></trkpt><trkpt lat="36.86954421016134" lon="-4.811115694026091"><ele>635.0</ele><time>2026-04-23T15:21:32Z</time></trkpt><trkpt lat="36.86964797494532" lon="-4.8111689393009245"><ele>635.0</ele><time>2026-04-23T15:21:34Z</time></trkpt><trkpt lat="36.86974927988351" lon="-4.811109320604639"><ele>635.0</ele><time>2026-04-23T15:21:36Z</time></trkpt><trkpt lat="36.869818236019405" lon="-4.811108716493832"><ele>635.0</ele><time>2026-04-23T15:21:37Z</time></trkpt><trkpt lat="36.86988311373169" lon="-4.811081561052063"><ele>635.0</ele><time>2026-04-23T15:21:38Z</time></trkpt><trkpt lat="36.869951199544424" lon="-4.811070529038617"><ele>635.0</ele><time>2026-04-23T15:21:39Z</time></trkpt><trkpt lat="36.87002548279199" lon="-4.811061298623284"><ele>635.0</ele><time>2026-04-23T15:21:40Z</time></trkpt><trkpt lat="36.87010495195608" lon="-4.811022114120529"><ele>635.0</ele><time>2026-04-23T15:21:41Z</time></trkpt><trkpt lat="36.87019023717091" lon="-4.811016010477531"><ele>633.9999999999999</ele><time>2026-04-23T15:21:42Z</time></trkpt><trkpt lat="36.87026721509591" lon="-4.810988804824332"><ele>633.0</ele><time>2026-04-23T15:21:43Z</time></trkpt><trkpt lat="36.8703394951048" lon="-4.810962151660462"><ele>632.0</ele><time>2026-04-23T15:21:44Z</time></trkpt><trkpt lat="36.87040861034082" lon="-4.810936698094767"><ele>631.0</ele><time>2026-04-23T15:21:45Z</time></trkpt><trkpt lat="36.87047580259872" lon="-4.810913664894767"><ele>630.0</ele><time>2026-04-23T15:21:46Z</time></trkpt><trkpt lat="36.87054223333881" lon="-4.810876597413666"><ele>628.9999999999999</ele><time>2026-04-23T15:21:47Z</time></trkpt><trkpt lat="36.87060566736081" lon="-4.810853451722688"><ele>628.0</ele><time>2026-04-23T15:21:48Z</time></trkpt><trkpt lat="36.870731985120834" lon="-4.810802768256717"><ele>628.0</ele><time>2026-04-23T15:21:50Z</time></trkpt><trkpt lat="36.870849746698354" lon="-4.810797152235949"><ele>628.0</ele><time>2026-04-23T15:21:51.999Z</time></trkpt><trkpt lat="36.87090271331595" lon="-4.810860133684923"><ele>628.0</ele><time>2026-04-23T15:21:52.999Z</time></trkpt><trkpt lat="36.87094164822897" lon="-4.810927546534992"><ele>628.0</ele><time>2026-04-23T15:21:53.999Z</time></trkpt><trkpt lat="36.87097054374249" lon="-4.811029097017343"><ele>628.0</ele><time>2026-04-23T15:21:54.999Z</time></trkpt><trkpt lat="36.87101225427982" lon="-4.811137831376785"><ele>628.0</ele><time>2026-04-23T15:21:55.999Z</time></trkpt><trkpt lat="36.87107781148087" lon="-4.811221622085894"><ele>628.4</ele><time>2026-04-23T15:21:56.999Z</time></trkpt><trkpt lat="36.87117560290165" lon="-4.8112537430333155"><ele>628.8</ele><time>2026-04-23T15:21:57.999Z</time></trkpt><trkpt lat="36.87125574295614" lon="-4.811325472923096"><ele>629.2</ele><time>2026-04-23T15:21:58.999Z</time></trkpt><trkpt lat="36.87132985610293" lon="-4.8113648013877395"><ele>629.6</ele><time>2026-04-23T15:21:59.999Z</time></trkpt><trkpt lat="36.87145284511608" lon="-4.811413332913197"><ele>630.0</ele><time>2026-04-23T15:22:01.999Z</time></trkpt><trkpt lat="36.87151934088041" lon="-4.811444976476273"><ele>630.0</ele><time>2026-04-23T15:22:02.999Z</time></trkpt><trkpt lat="36.87160135153132" lon="-4.811479443868335"><ele>630.0</ele><time>2026-04-23T15:22:03.999Z</time></trkpt><trkpt lat="36.871695139937074" lon="-4.811520009385475"><ele>630.0</ele><time>2026-04-23T15:22:04.999Z</time></trkpt><trkpt lat="36.87178090884525" lon="-4.811529700382671"><ele>630.0</ele><time>2026-04-23T15:22:05.999Z</time></trkpt><trkpt lat="36.87184885193723" lon="-4.811533564216404"><ele>630.0</ele><time>2026-04-23T15:22:06.999Z</time></trkpt><trkpt lat="36.87191640208191" lon="-4.811548713160939"><ele>630.0</ele><time>2026-04-23T15:22:07.999Z</time></trkpt><trkpt lat="36.87197590694484" lon="-4.811591042851793"><ele>627.6666666666666</ele><time>2026-04-23T15:22:08.999Z</time></trkpt><trkpt lat="36.87202562451171" lon="-4.811639978181934"><ele>625.3333333333334</ele><time>2026-04-23T15:22:09.999Z</time></trkpt><trkpt lat="36.872048230740226" lon="-4.811726048536611"><ele>623.0</ele><time>2026-04-23T15:22:10.999Z</time></trkpt><trkpt lat="36.87205393387198" lon="-4.811831323730256"><ele>620.6666666666667</ele><time>2026-04-23T15:22:11.999Z</time></trkpt><trkpt lat="36.872051938896824" lon="-4.811954039339131"><ele>618.3333333333334</ele><time>2026-04-23T15:22:12.999Z</time></trkpt><trkpt lat="36.87205565500226" lon="-4.812060246302027"><ele>616.0</ele><time>2026-04-23T15:22:13.999Z</time></trkpt><trkpt lat="36.872065870740926" lon="-4.81214987314644"><ele>616.0</ele><time>2026-04-23T15:22:14.999Z</time></trkpt><trkpt lat="36.87209369354266" lon="-4.81222143907086"><ele>616.0</ele><time>2026-04-23T15:22:15.999Z</time></trkpt><trkpt lat="36.87215066782666" lon="-4.812267021334344"><ele>616.0</ele><time>2026-04-23T15:22:16.999Z</time></trkpt><trkpt lat="36.87222836948115" lon="-4.812325713309611"><ele>616.0</ele><time>2026-04-23T15:22:17.999Z</time></trkpt><trkpt lat="36.872304142140685" lon="-4.812400292444039"><ele>616.0</ele><time>2026-04-23T15:22:18.999Z</time></trkpt><trkpt lat="36.872385330410935" lon="-4.812446988095748"><ele>616.0</ele><time>2026-04-23T15:22:19.999Z</time></trkpt><trkpt lat="36.87248443181802" lon="-4.812456209225836"><ele>616.0</ele><time>2026-04-23T15:22:20.999Z</time></trkpt><trkpt lat="36.87257862260156" lon="-4.812497081928869"><ele>616.0</ele><time>2026-04-23T15:22:21.999Z</time></trkpt><trkpt lat="36.8726647069675" lon="-4.812508885005666"><ele>616.0</ele><time>2026-04-23T15:22:22.999Z</time></trkpt><trkpt lat="36.87275109353758" lon="-4.812528154440904"><ele>616.0</ele><time>2026-04-23T15:22:23.999Z</time></trkpt><trkpt lat="36.87283743591379" lon="-4.812554818686384"><ele>616.0</ele><time>2026-04-23T15:22:24.999Z</time></trkpt><trkpt lat="36.87292348351542" lon="-4.812571121165017"><ele>611.6666666666667</ele><time>2026-04-23T15:22:25.999Z</time></trkpt><trkpt lat="36.87300813336822" lon="-4.812585315619291"><ele>607.3333333333334</ele><time>2026-04-23T15:22:26.999Z</time></trkpt><trkpt lat="36.87308248224107" lon="-4.812589461652142"><ele>603.0</ele><time>2026-04-23T15:22:27.999Z</time></trkpt><trkpt lat="36.87315751011418" lon="-4.812551731084731"><ele>598.6666666666666</ele><time>2026-04-23T15:22:28.999Z</time></trkpt><trkpt lat="36.87324027504425" lon="-4.812523979567159"><ele>594.3333333333333</ele><time>2026-04-23T15:22:29.999Z</time></trkpt><trkpt lat="36.87332048338792" lon="-4.812487294532166"><ele>590.0</ele><time>2026-04-23T15:22:30.999Z</time></trkpt><trkpt lat="36.87340659589899" lon="-4.812460933722195"><ele>587.8333333333333</ele><time>2026-04-23T15:22:31.999Z</time></trkpt><trkpt lat="36.873480390539" lon="-4.812396697343353"><ele>585.6666666666666</ele><time>2026-04-23T15:22:32.999Z</time></trkpt><trkpt lat="36.873563078189385" lon="-4.812346246459286"><ele>583.5</ele><time>2026-04-23T15:22:33.999Z</time></trkpt><trkpt lat="36.87363963481813" lon="-4.812299536361003"><ele>581.3333333333334</ele><time>2026-04-23T15:22:34.999Z</time></trkpt><trkpt lat="36.87371904524127" lon="-4.812251085033434"><ele>579.1666666666667</ele><time>2026-04-23T15:22:35.999Z</time></trkpt><trkpt lat="36.8738032646968" lon="-4.812224588300428"><ele>577.0</ele><time>2026-04-23T15:22:36.999Z</time></trkpt><trkpt lat="36.87388573472084" lon="-4.812172356682736"><ele>577.0</ele><time>2026-04-23T15:22:37.999Z</time></trkpt><trkpt lat="36.87396097915107" lon="-4.812099403909015"><ele>577.0</ele><time>2026-04-23T15:22:38.999Z</time></trkpt><trkpt lat="36.874043664827376" lon="-4.812030338448301"><ele>577.0</ele><time>2026-04-23T15:22:39.999Z</time></trkpt><trkpt lat="36.874120900601035" lon="-4.811974282696442"><ele>577.0</ele><time>2026-04-23T15:22:40.999Z</time></trkpt><trkpt lat="36.874194397406164" lon="-4.811922745299458"><ele>577.0</ele><time>2026-04-23T15:22:41.999Z</time></trkpt><trkpt lat="36.874275700575765" lon="-4.811888743897474"><ele>576.6666666666667</ele><time>2026-04-23T15:22:42.999Z</time></trkpt><trkpt lat="36.87434429677329" lon="-4.811835837745186"><ele>576.3333333333334</ele><time>2026-04-23T15:22:43.999Z</time></trkpt><trkpt lat="36.874411306015084" lon="-4.811784949993078"><ele>576.0</ele><time>2026-04-23T15:22:44.999Z</time></trkpt><trkpt lat="36.87446439979771" lon="-4.81173176816483"><ele>575.6666666666666</ele><time>2026-04-23T15:22:45.999Z</time></trkpt><trkpt lat="36.87450613598967" lon="-4.811658091578589"><ele>575.3333333333333</ele><time>2026-04-23T15:22:46.999Z</time></trkpt><trkpt lat="36.87454634831434" lon="-4.811579502621171"><ele>575.0</ele><time>2026-04-23T15:22:47.999Z</time></trkpt><trkpt lat="36.87459379878051" lon="-4.811490885674105"><ele>575.0</ele><time>2026-04-23T15:22:48.999Z</time></trkpt><trkpt lat="36.87463731697217" lon="-4.811415189112718"><ele>575.0</ele><time>2026-04-23T15:22:49.999Z</time></trkpt><trkpt lat="36.874720613981665" lon="-4.81132285768262"><ele>575.0</ele><time>2026-04-23T15:22:52Z</time></trkpt><trkpt lat="36.87480936590942" lon="-4.811326439974726"><ele>575.0</ele><time>2026-04-23T15:22:54Z</time></trkpt><trkpt lat="36.87480830711134" lon="-4.811460214230509"><ele>575.0</ele><time>2026-04-23T15:22:58Z</time></trkpt><trkpt lat="36.874781912599914" lon="-4.811540617993924"><ele>575.0</ele><time>2026-04-23T15:23:01Z</time></trkpt><trkpt lat="36.87475469839116" lon="-4.811622129041123"><ele>575.0</ele><time>2026-04-23T15:23:05Z</time></trkpt><trkpt lat="36.87473719778325" lon="-4.811709585787152"><ele>575.0</ele><time>2026-04-23T15:23:09Z</time></trkpt><trkpt lat="36.87473254843967" lon="-4.811804768620472"><ele>575.0</ele><time>2026-04-23T15:23:13Z</time></trkpt><trkpt lat="36.87473181025343" lon="-4.811890363909972"><ele>575.0</ele><time>2026-04-23T15:23:16Z</time></trkpt><trkpt lat="36.87474807248746" lon="-4.811979216454036"><ele>575.0</ele><time>2026-04-23T15:23:19Z</time></trkpt><trkpt lat="36.874763156087226" lon="-4.812069816314149"><ele>575.0</ele><time>2026-04-23T15:23:23Z</time></trkpt><trkpt lat="36.87476542134623" lon="-4.81216594423807"><ele>573.1666666666666</ele><time>2026-04-23T15:23:28Z</time></trkpt><trkpt lat="36.87473854844142" lon="-4.812240811081972"><ele>571.3333333333333</ele><time>2026-04-23T15:23:31Z</time></trkpt><trkpt lat="36.87470243654076" lon="-4.812319939241876"><ele>569.5</ele><time>2026-04-23T15:23:35Z</time></trkpt><trkpt lat="36.87467473328801" lon="-4.812401225143288"><ele>567.6666666666666</ele><time>2026-04-23T15:23:39.999Z</time></trkpt><trkpt lat="36.874625273643524" lon="-4.812500657630879"><ele>565.8333333333334</ele><time>2026-04-23T15:23:43.999Z</time></trkpt><trkpt lat="36.87455254727262" lon="-4.8126036640877725"><ele>564.0</ele><time>2026-04-23T15:23:45.999Z</time></trkpt><trkpt lat="36.874471624182654" lon="-4.812610028963856"><ele>564.0</ele><time>2026-04-23T15:23:46.999Z</time></trkpt><trkpt lat="36.874405197142956" lon="-4.812640738027252"><ele>564.0</ele><time>2026-04-23T15:23:47.999Z</time></trkpt><trkpt lat="36.87435135561261" lon="-4.812712799828613"><ele>564.0</ele><time>2026-04-23T15:23:48.999Z</time></trkpt><trkpt lat="36.874318204860636" lon="-4.812805841644222"><ele>564.0</ele><time>2026-04-23T15:23:49.999Z</time></trkpt><trkpt lat="36.874264442380266" lon="-4.812901826745974"><ele>564.0</ele><time>2026-04-23T15:23:50.999Z</time></trkpt><trkpt lat="36.87422666784974" lon="-4.812999445743977"><ele>564.0</ele><time>2026-04-23T15:23:51.999Z</time></trkpt><trkpt lat="36.87416721530495" lon="-4.813072745356025"><ele>565.1666666666666</ele><time>2026-04-23T15:23:52.999Z</time></trkpt><trkpt lat="36.87411597413071" lon="-4.813155450628268"><ele>566.3333333333334</ele><time>2026-04-23T15:23:53.999Z</time></trkpt><trkpt lat="36.87406654672169" lon="-4.813213664110671"><ele>567.5</ele><time>2026-04-23T15:23:54.999Z</time></trkpt><trkpt lat="36.87404862467202" lon="-4.813320129914791"><ele>568.6666666666667</ele><time>2026-04-23T15:23:56.999Z</time></trkpt><trkpt lat="36.87416421804961" lon="-4.813374506328504"><ele>569.8333333333334</ele><time>2026-04-23T15:23:58.999Z</time></trkpt><trkpt lat="36.87423812714504" lon="-4.813382161556246"><ele>571.0</ele><time>2026-04-23T15:23:59.999Z</time></trkpt><trkpt lat="36.87431924856206" lon="-4.813409213645389"><ele>567.5</ele><time>2026-04-23T15:24:00.999Z</time></trkpt><trkpt lat="36.87440269361081" lon="-4.813455304266194"><ele>564.0</ele><time>2026-04-23T15:24:01.999Z</time></trkpt><trkpt lat="36.874478931879544" lon="-4.813512677780894"><ele>560.5</ele><time>2026-04-23T15:24:02.999Z</time></trkpt><trkpt lat="36.874540088071775" lon="-4.813571460838415"><ele>557.0</ele><time>2026-04-23T15:24:03.999Z</time></trkpt><trkpt lat="36.874581661829644" lon="-4.813642277447796"><ele>553.5</ele><time>2026-04-23T15:24:04.999Z</time></trkpt><trkpt lat="36.87460130171444" lon="-4.813725468148718"><ele>550.0</ele><time>2026-04-23T15:24:05.999Z</time></trkpt><trkpt lat="36.87458730506514" lon="-4.813827983433716"><ele>548.6</ele><time>2026-04-23T15:24:06.999Z</time></trkpt><trkpt lat="36.87455287933802" lon="-4.813934597311935"><ele>547.2</ele><time>2026-04-23T15:24:07.999Z</time></trkpt><trkpt lat="36.87452091851408" lon="-4.814051049578932"><ele>545.8</ele><time>2026-04-23T15:24:08.999Z</time></trkpt><trkpt lat="36.8744762176192" lon="-4.814157550434999"><ele>544.4</ele><time>2026-04-23T15:24:09.999Z</time></trkpt><trkpt lat="36.87443948815674" lon="-4.814250028268904"><ele>543.0</ele><time>2026-04-23T15:24:10.999Z</time></trkpt><trkpt lat="36.8744546217913" lon="-4.814365696659967"><ele>542.6</ele><time>2026-04-23T15:24:12.999Z</time></trkpt><trkpt lat="36.87449781565712" lon="-4.8144535489953695"><ele>542.1999999999999</ele><time>2026-04-23T15:24:13.999Z</time></trkpt><trkpt lat="36.87462170484603" lon="-4.814514066229456"><ele>541.8</ele><time>2026-04-23T15:24:14.999Z</time></trkpt><trkpt lat="36.8746928440187" lon="-4.8145856891794665"><ele>541.4</ele><time>2026-04-23T15:24:15.999Z</time></trkpt><trkpt lat="36.87475927309751" lon="-4.814709784317498"><ele>541.0</ele><time>2026-04-23T15:24:17.999Z</time></trkpt><trkpt lat="36.87475744415215" lon="-4.814808361438565"><ele>541.0</ele><time>2026-04-23T15:24:18.999Z</time></trkpt><trkpt lat="36.87474116407519" lon="-4.814914505840133"><ele>541.0</ele><time>2026-04-23T15:24:19.999Z</time></trkpt><trkpt lat="36.87471363932157" lon="-4.8150129160647195"><ele>541.0</ele><time>2026-04-23T15:24:20.999Z</time></trkpt><trkpt lat="36.87467759428713" lon="-4.815098770158376"><ele>541.0</ele><time>2026-04-23T15:24:21.999Z</time></trkpt><trkpt lat="36.87458044674266" lon="-4.815141303464371"><ele>541.0</ele><time>2026-04-23T15:24:22.999Z</time></trkpt><trkpt lat="36.87450745420796" lon="-4.815193042555021"><ele>541.0</ele><time>2026-04-23T15:24:23.999Z</time></trkpt><trkpt lat="36.874411752659505" lon="-4.815184447358832"><ele>541.0</ele><time>2026-04-23T15:24:24.999Z</time></trkpt><trkpt lat="36.87432025842398" lon="-4.815146504255258"><ele>541.0</ele><time>2026-04-23T15:24:25.999Z</time></trkpt><trkpt lat="36.87424147916273" lon="-4.815125299705518"><ele>541.0</ele><time>2026-04-23T15:24:26.999Z</time></trkpt><trkpt lat="36.874148769744906" lon="-4.815122720758193"><ele>541.0</ele><time>2026-04-23T15:24:28.999Z</time></trkpt><trkpt lat="36.874134804684445" lon="-4.815256388986906"><ele>541.0</ele><time>2026-04-23T15:24:30.999Z</time></trkpt><trkpt lat="36.87415699354376" lon="-4.815334159861788"><ele>541.0</ele><time>2026-04-23T15:24:31.999Z</time></trkpt><trkpt lat="36.874172868925015" lon="-4.8154177332930646"><ele>542.2</ele><time>2026-04-23T15:24:32.999Z</time></trkpt><trkpt lat="36.87412282418241" lon="-4.815504135506281"><ele>543.4000000000001</ele><time>2026-04-23T15:24:33.999Z</time></trkpt><trkpt lat="36.87407447663348" lon="-4.815589628557425"><ele>544.6</ele><time>2026-04-23T15:24:34.999Z</time></trkpt><trkpt lat="36.87401816550524" lon="-4.81568411291532"><ele>545.8000000000001</ele><time>2026-04-23T15:24:35.999Z</time></trkpt><trkpt lat="36.87396803752422" lon="-4.815790036695779"><ele>547.0</ele><time>2026-04-23T15:24:36.999Z</time></trkpt><trkpt lat="36.87392427215821" lon="-4.815907020641085"><ele>545.2</ele><time>2026-04-23T15:24:37.999Z</time></trkpt><trkpt lat="36.873873682214" lon="-4.816011734883006"><ele>543.4000000000001</ele><time>2026-04-23T15:24:38.999Z</time></trkpt><trkpt lat="36.873834100282934" lon="-4.816096016953261"><ele>541.5999999999999</ele><time>2026-04-23T15:24:39.999Z</time></trkpt><trkpt lat="36.873787973191796" lon="-4.816238074694466"><ele>539.8</ele><time>2026-04-23T15:24:41.999Z</time></trkpt><trkpt lat="36.8738092666195" lon="-4.816343855198078"><ele>538.0</ele><time>2026-04-23T15:24:42.999Z</time></trkpt><trkpt lat="36.87387458006893" lon="-4.8164425836407645"><ele>538.0</ele><time>2026-04-23T15:24:43.999Z</time></trkpt><trkpt lat="36.87392331915964" lon="-4.816546275661367"><ele>538.0</ele><time>2026-04-23T15:24:44.999Z</time></trkpt><trkpt lat="36.87397030637847" lon="-4.816640302750083"><ele>538.0</ele><time>2026-04-23T15:24:45.999Z</time></trkpt><trkpt lat="36.874010497915286" lon="-4.816738382699228"><ele>538.0</ele><time>2026-04-23T15:24:46.999Z</time></trkpt><trkpt lat="36.87403286390113" lon="-4.816833234556834"><ele>538.0</ele><time>2026-04-23T15:24:47.999Z</time></trkpt><trkpt lat="36.8740356983532" lon="-4.816938881652086"><ele>538.0</ele><time>2026-04-23T15:24:48.999Z</time></trkpt><trkpt lat="36.87402132686486" lon="-4.817061976530902"><ele>536.1999999999999</ele><time>2026-04-23T15:24:49.999Z</time></trkpt><trkpt lat="36.87400141632267" lon="-4.817185798567992"><ele>534.4</ele><time>2026-04-23T15:24:50.999Z</time></trkpt><trkpt lat="36.87398989362002" lon="-4.81729896557893"><ele>532.5999999999999</ele><time>2026-04-23T15:24:51.999Z</time></trkpt><trkpt lat="36.87398102052346" lon="-4.817401227943968"><ele>530.8</ele><time>2026-04-23T15:24:52.999Z</time></trkpt><trkpt lat="36.87396659652721" lon="-4.817483559182484"><ele>529.0</ele><time>2026-04-23T15:24:53.999Z</time></trkpt><trkpt lat="36.873915411531975" lon="-4.8176176304290586"><ele>528.8333333333334</ele><time>2026-04-23T15:24:55.999Z</time></trkpt><trkpt lat="36.873874655822384" lon="-4.817679670109108"><ele>528.6666666666667</ele><time>2026-04-23T15:24:57Z</time></trkpt><trkpt lat="36.873795444360056" lon="-4.817792141634037"><ele>528.5</ele><time>2026-04-23T15:24:59Z</time></trkpt><trkpt lat="36.873728680452345" lon="-4.817832520072199"><ele>528.3333333333334</ele><time>2026-04-23T15:25:00Z</time></trkpt><trkpt lat="36.87364158049765" lon="-4.81782948587258"><ele>528.1666666666666</ele><time>2026-04-23T15:25:01Z</time></trkpt><trkpt lat="36.873549940231364" lon="-4.817835639077171"><ele>528.0</ele><time>2026-04-23T15:25:02Z</time></trkpt><trkpt lat="36.873466204112205" lon="-4.817860273921071"><ele>528.0</ele><time>2026-04-23T15:25:03Z</time></trkpt><trkpt lat="36.87338020944997" lon="-4.817875123994874"><ele>528.0</ele><time>2026-04-23T15:25:04Z</time></trkpt><trkpt lat="36.87331247586989" lon="-4.817913648943668"><ele>528.0</ele><time>2026-04-23T15:25:06Z</time></trkpt><trkpt lat="36.87332841748118" lon="-4.8180395144199695"><ele>528.0</ele><time>2026-04-23T15:25:08Z</time></trkpt><trkpt lat="36.873430211654146" lon="-4.818116765707334"><ele>528.0</ele><time>2026-04-23T15:25:10Z</time></trkpt><trkpt lat="36.87349493474844" lon="-4.818167679819718"><ele>528.0</ele><time>2026-04-23T15:25:11Z</time></trkpt><trkpt lat="36.873576362035955" lon="-4.818254746115229"><ele>528.0</ele><time>2026-04-23T15:25:13Z</time></trkpt><trkpt lat="36.87363195930066" lon="-4.818342730063172"><ele>528.0</ele><time>2026-04-23T15:25:15Z</time></trkpt><trkpt lat="36.87366726608691" lon="-4.818408241225133"><ele>528.0</ele><time>2026-04-23T15:25:17Z</time></trkpt><trkpt lat="36.8736851413928" lon="-4.818486415103475"><ele>528.0</ele><time>2026-04-23T15:26:07.999Z</time></trkpt><trkpt lat="36.87373490982463" lon="-4.818623523975566"><ele>528.0</ele><time>2026-04-23T15:26:09.999Z</time></trkpt><trkpt lat="36.873760941224106" lon="-4.818699970335038"><ele>529.8333333333334</ele><time>2026-04-23T15:26:10.999Z</time></trkpt><trkpt lat="36.87378421144802" lon="-4.818797060712756"><ele>531.6666666666666</ele><time>2026-04-23T15:26:11.999Z</time></trkpt><trkpt lat="36.87380142777259" lon="-4.818881521789331"><ele>533.5</ele><time>2026-04-23T15:26:12.999Z</time></trkpt><trkpt lat="36.87383073933771" lon="-4.818968316899116"><ele>535.3333333333333</ele><time>2026-04-23T15:26:13.999Z</time></trkpt><trkpt lat="36.87389140231958" lon="-4.819028830763722"><ele>537.1666666666666</ele><time>2026-04-23T15:26:14.999Z</time></trkpt><trkpt lat="36.87398845599698" lon="-4.819074391182335"><ele>539.0</ele><time>2026-04-23T15:26:15.999Z</time></trkpt><trkpt lat="36.87409755812006" lon="-4.819117101425326"><ele>539.0</ele><time>2026-04-23T15:26:16.999Z</time></trkpt><trkpt lat="36.87418123527334" lon="-4.819150875248656"><ele>539.0</ele><time>2026-04-23T15:26:17.999Z</time></trkpt><trkpt lat="36.87423728163367" lon="-4.819193136770341"><ele>539.0</ele><time>2026-04-23T15:26:18.999Z</time></trkpt><trkpt lat="36.87427785149838" lon="-4.819264112781982"><ele>539.0</ele><time>2026-04-23T15:26:19.999Z</time></trkpt><trkpt lat="36.87430804232426" lon="-4.8193663587629985"><ele>539.0</ele><time>2026-04-23T15:26:20.999Z</time></trkpt><trkpt lat="36.87432506699644" lon="-4.819477297462882"><ele>539.0</ele><time>2026-04-23T15:26:21.999Z</time></trkpt><trkpt lat="36.87432773786281" lon="-4.819576973927537"><ele>536.0</ele><time>2026-04-23T15:26:22.999Z</time></trkpt><trkpt lat="36.87431482184952" lon="-4.8196789474060315"><ele>533.0</ele><time>2026-04-23T15:26:23.999Z</time></trkpt><trkpt lat="36.87429362878296" lon="-4.819782561135317"><ele>530.0</ele><time>2026-04-23T15:26:24.999Z</time></trkpt><trkpt lat="36.874297917469455" lon="-4.81988583975368"><ele>527.0</ele><time>2026-04-23T15:26:25.999Z</time></trkpt><trkpt lat="36.87433636676255" lon="-4.819952062002494"><ele>524.0</ele><time>2026-04-23T15:26:26.999Z</time></trkpt><trkpt lat="36.87441359623299" lon="-4.819993291983521"><ele>521.0</ele><time>2026-04-23T15:26:27.999Z</time></trkpt><trkpt lat="36.874461497360855" lon="-4.820079432079454"><ele>523.0</ele><time>2026-04-23T15:26:28.999Z</time></trkpt><trkpt lat="36.874463749277076" lon="-4.820227708738139"><ele>525.0</ele><time>2026-04-23T15:26:30.999Z</time></trkpt><trkpt lat="36.87443221152104" lon="-4.820311499906949"><ele>527.0</ele><time>2026-04-23T15:26:31.999Z</time></trkpt><trkpt lat="36.87437860762622" lon="-4.820385858503764"><ele>529.0</ele><time>2026-04-23T15:26:32.999Z</time></trkpt><trkpt lat="36.874337048075795" lon="-4.820456766558882"><ele>531.0</ele><time>2026-04-23T15:26:33.999Z</time></trkpt><trkpt lat="36.87437858227882" lon="-4.820578590287958"><ele>533.0</ele><time>2026-04-23T15:26:35.999Z</time></trkpt><trkpt lat="36.87446510397775" lon="-4.820620804930678"><ele>533.0</ele><time>2026-04-23T15:26:36.999Z</time></trkpt><trkpt lat="36.87455709630209" lon="-4.820673484468439"><ele>533.0</ele><time>2026-04-23T15:26:37.999Z</time></trkpt><trkpt lat="36.87462229006173" lon="-4.820744489633467"><ele>533.0</ele><time>2026-04-23T15:26:38.999Z</time></trkpt><trkpt lat="36.87467291660578" lon="-4.820832291156948"><ele>533.0</ele><time>2026-04-23T15:26:39.999Z</time></trkpt><trkpt lat="36.8746961051022" lon="-4.820925807773859"><ele>533.0</ele><time>2026-04-23T15:26:40.999Z</time></trkpt><trkpt lat="36.87471050570577" lon="-4.821028785715845"><ele>533.0</ele><time>2026-04-23T15:26:41.999Z</time></trkpt><trkpt lat="36.87473272702572" lon="-4.821143141183589"><ele>536.0</ele><time>2026-04-23T15:26:42.999Z</time></trkpt><trkpt lat="36.87474550138178" lon="-4.821265709305329"><ele>539.0</ele><time>2026-04-23T15:26:43.999Z</time></trkpt><trkpt lat="36.87474295810854" lon="-4.821390101587645"><ele>542.0</ele><time>2026-04-23T15:26:44.999Z</time></trkpt><trkpt lat="36.87475742742863" lon="-4.821503702848272"><ele>545.0</ele><time>2026-04-23T15:26:45.999Z</time></trkpt><trkpt lat="36.87474564265022" lon="-4.821606232251595"><ele>548.0</ele><time>2026-04-23T15:26:46.999Z</time></trkpt><trkpt lat="36.87476256391715" lon="-4.82170379798725"><ele>548.0</ele><time>2026-04-23T15:26:47.999Z</time></trkpt><trkpt lat="36.87476276236322" lon="-4.821794494056195"><ele>548.0</ele><time>2026-04-23T15:26:48.999Z</time></trkpt><trkpt lat="36.87477120309025" lon="-4.821876398489238"><ele>548.0</ele><time>2026-04-23T15:26:49.999Z</time></trkpt><trkpt lat="36.87477522281064" lon="-4.821961679168974"><ele>548.0</ele><time>2026-04-23T15:26:50.999Z</time></trkpt><trkpt lat="36.87479979020103" lon="-4.822036010420915"><ele>548.0</ele><time>2026-04-23T15:26:51.999Z</time></trkpt><trkpt lat="36.87486026032482" lon="-4.822261404831965"><ele>548.4285714285714</ele><time>2026-04-23T15:26:54.999Z</time></trkpt><trkpt lat="36.87491140216808" lon="-4.822310131063582"><ele>548.8571428571429</ele><time>2026-04-23T15:26:55.999Z</time></trkpt><trkpt lat="36.874979425140964" lon="-4.822346821864234"><ele>549.2857142857142</ele><time>2026-04-23T15:26:56.999Z</time></trkpt><trkpt lat="36.87505502816587" lon="-4.822374335036002"><ele>549.7142857142858</ele><time>2026-04-23T15:26:57.999Z</time></trkpt><trkpt lat="36.875134435631814" lon="-4.822380393807687"><ele>550.1428571428571</ele><time>2026-04-23T15:26:58.999Z</time></trkpt><trkpt lat="36.875202055959015" lon="-4.822370432497537"><ele>550.5714285714286</ele><time>2026-04-23T15:26:59.999Z</time></trkpt><trkpt lat="36.87528608891818" lon="-4.822360448078104"><ele>551.0</ele><time>2026-04-23T15:27:01.999Z</time></trkpt><trkpt lat="36.87536909627636" lon="-4.822375336494201"><ele>551.0</ele><time>2026-04-23T15:27:04Z</time></trkpt><trkpt lat="36.875444845852044" lon="-4.822401165112637"><ele>551.0</ele><time>2026-04-23T15:28:15.999Z</time></trkpt><trkpt lat="36.87552416403865" lon="-4.8224464630901815"><ele>551.0</ele><time>2026-04-23T15:28:17.999Z</time></trkpt><trkpt lat="36.875653311003134" lon="-4.822480195349859"><ele>551.0</ele><time>2026-04-23T15:28:19.999Z</time></trkpt><trkpt lat="36.87572558942686" lon="-4.822498698752338"><ele>551.0</ele><time>2026-04-23T15:28:20.999Z</time></trkpt><trkpt lat="36.87579990348642" lon="-4.8225225193573324"><ele>551.0</ele><time>2026-04-23T15:28:21.999Z</time></trkpt><trkpt lat="36.875880552729015" lon="-4.822549356500677"><ele>547.8</ele><time>2026-04-23T15:28:22.999Z</time></trkpt><trkpt lat="36.87597643041177" lon="-4.822587070120457"><ele>544.6</ele><time>2026-04-23T15:28:23.999Z</time></trkpt><trkpt lat="36.87608036635154" lon="-4.822617964787554"><ele>541.4</ele><time>2026-04-23T15:28:24.999Z</time></trkpt><trkpt lat="36.876171837088826" lon="-4.822630482758365"><ele>538.2</ele><time>2026-04-23T15:28:25.999Z</time></trkpt><trkpt lat="36.87626822607266" lon="-4.822619358335165"><ele>535.0</ele><time>2026-04-23T15:28:26.999Z</time></trkpt><trkpt lat="36.87636106862613" lon="-4.822591869842483"><ele>535.0</ele><time>2026-04-23T15:28:27.999Z</time></trkpt><trkpt lat="36.876453816005366" lon="-4.822564877521205"><ele>535.0</ele><time>2026-04-23T15:28:28.999Z</time></trkpt><trkpt lat="36.87654822929667" lon="-4.822558518211907"><ele>535.0</ele><time>2026-04-23T15:28:29.999Z</time></trkpt><trkpt lat="36.87664678920158" lon="-4.822598813142953"><ele>535.0</ele><time>2026-04-23T15:28:30.999Z</time></trkpt><trkpt lat="36.87673711245433" lon="-4.822673524835579"><ele>535.0</ele><time>2026-04-23T15:28:31.999Z</time></trkpt><trkpt lat="36.87681805783275" lon="-4.8227653109986575"><ele>534.8</ele><time>2026-04-23T15:28:32.999Z</time></trkpt><trkpt lat="36.87690296391583" lon="-4.822838999349725"><ele>534.6</ele><time>2026-04-23T15:28:33.999Z</time></trkpt><trkpt lat="36.87700398755215" lon="-4.822891111855094"><ele>534.4</ele><time>2026-04-23T15:28:34.999Z</time></trkpt><trkpt lat="36.877114462065066" lon="-4.822924137808277"><ele>534.2</ele><time>2026-04-23T15:28:35.999Z</time></trkpt><trkpt lat="36.8772300635985" lon="-4.822960385596114"><ele>534.0</ele><time>2026-04-23T15:28:36.999Z</time></trkpt><trkpt lat="36.877335837920256" lon="-4.823011843813171"><ele>534.0</ele><time>2026-04-23T15:28:37.999Z</time></trkpt><trkpt lat="36.87742721686652" lon="-4.823084439906628"><ele>534.0</ele><time>2026-04-23T15:28:38.999Z</time></trkpt><trkpt lat="36.87751044019813" lon="-4.823176288146238"><ele>534.0</ele><time>2026-04-23T15:28:39.999Z</time></trkpt><trkpt lat="36.87757843001832" lon="-4.823267164901937"><ele>534.0</ele><time>2026-04-23T15:28:40.999Z</time></trkpt><trkpt lat="36.87765811129561" lon="-4.823347701453633"><ele>534.0</ele><time>2026-04-23T15:28:41.999Z</time></trkpt><trkpt lat="36.87774749928222" lon="-4.823405236792707"><ele>532.4</ele><time>2026-04-23T15:28:42.999Z</time></trkpt><trkpt lat="36.87784107974842" lon="-4.823421919636369"><ele>530.8</ele><time>2026-04-23T15:28:43.999Z</time></trkpt><trkpt lat="36.877932919747124" lon="-4.823416160362858"><ele>529.2</ele><time>2026-04-23T15:28:44.999Z</time></trkpt><trkpt lat="36.87801918810612" lon="-4.8234455947919495"><ele>527.6</ele><time>2026-04-23T15:28:45.999Z</time></trkpt><trkpt lat="36.87810479765802" lon="-4.823470596216574"><ele>526.0</ele><time>2026-04-23T15:28:46.999Z</time></trkpt><trkpt lat="36.87818133793915" lon="-4.823525660406607"><ele>526.0</ele><time>2026-04-23T15:28:47.999Z</time></trkpt><trkpt lat="36.8782520720886" lon="-4.823602211614365"><ele>526.0</ele><time>2026-04-23T15:28:48.999Z</time></trkpt><trkpt lat="36.87833616375433" lon="-4.8236884421244675"><ele>526.0</ele><time>2026-04-23T15:28:49.999Z</time></trkpt><trkpt lat="36.87843465345695" lon="-4.823755484125315"><ele>526.0</ele><time>2026-04-23T15:28:50.999Z</time></trkpt><trkpt lat="36.878536489774824" lon="-4.823809173256146"><ele>526.0</ele><time>2026-04-23T15:28:51.999Z</time></trkpt><trkpt lat="36.87863415339257" lon="-4.823866877171884"><ele>527.0</ele><time>2026-04-23T15:28:52.999Z</time></trkpt><trkpt lat="36.878730438908185" lon="-4.8239330457951395"><ele>528.0</ele><time>2026-04-23T15:28:53.999Z</time></trkpt><trkpt lat="36.878818726422296" lon="-4.8240053406540575"><ele>529.0</ele><time>2026-04-23T15:28:54.999Z</time></trkpt><trkpt lat="36.87891876719791" lon="-4.824078364644719"><ele>530.0</ele><time>2026-04-23T15:28:55.999Z</time></trkpt><trkpt lat="36.879020306723994" lon="-4.824124413919779"><ele>531.0</ele><time>2026-04-23T15:28:56.999Z</time></trkpt><trkpt lat="36.87911203936662" lon="-4.824150189518456"><ele>531.0</ele><time>2026-04-23T15:28:57.999Z</time></trkpt><trkpt lat="36.87918720925673" lon="-4.824169615888633"><ele>531.0</ele><time>2026-04-23T15:28:58.999Z</time></trkpt><trkpt lat="36.87924945439088" lon="-4.824209933449649"><ele>531.0</ele><time>2026-04-23T15:28:59.999Z</time></trkpt><trkpt lat="36.879283644696535" lon="-4.8242833418658835"><ele>531.0</ele><time>2026-04-23T15:29:00.999Z</time></trkpt><trkpt lat="36.879304059830375" lon="-4.824392889931026"><ele>531.0</ele><time>2026-04-23T15:29:01.999Z</time></trkpt><trkpt lat="36.8793261585034" lon="-4.824507825380923"><ele>531.0</ele><time>2026-04-23T15:29:02.999Z</time></trkpt><trkpt lat="36.87936503787799" lon="-4.82461117909694"><ele>530.0</ele><time>2026-04-23T15:29:03.999Z</time></trkpt><trkpt lat="36.879398046199476" lon="-4.824703275501496"><ele>529.0</ele><time>2026-04-23T15:29:04.999Z</time></trkpt><trkpt lat="36.87938728503929" lon="-4.824789622838688"><ele>528.0</ele><time>2026-04-23T15:29:05.999Z</time></trkpt><trkpt lat="36.87933244855632" lon="-4.824874765985959"><ele>527.0</ele><time>2026-04-23T15:29:06.999Z</time></trkpt><trkpt lat="36.879266526474396" lon="-4.8249410059054645"><ele>526.0</ele><time>2026-04-23T15:29:07.999Z</time></trkpt><trkpt lat="36.87919973774553" lon="-4.825020228900635"><ele>525.0</ele><time>2026-04-23T15:29:09Z</time></trkpt><trkpt lat="36.87914845524025" lon="-4.825101013972299"><ele>524.0</ele><time>2026-04-23T15:29:10Z</time></trkpt><trkpt lat="36.879108474012654" lon="-4.825191422977556"><ele>523.0</ele><time>2026-04-23T15:29:10.999Z</time></trkpt><trkpt lat="36.87907756617204" lon="-4.825282119600491"><ele>522.0</ele><time>2026-04-23T15:29:11.999Z</time></trkpt><trkpt lat="36.87906128008833" lon="-4.8253726763280795"><ele>521.0</ele><time>2026-04-23T15:29:13Z</time></trkpt><trkpt lat="36.87907181249592" lon="-4.825460198926748"><ele>520.0</ele><time>2026-04-23T15:29:13.999Z</time></trkpt><trkpt lat="36.879123560664354" lon="-4.825530834013006"><ele>519.0</ele><time>2026-04-23T15:29:15Z</time></trkpt><trkpt lat="36.87920417249788" lon="-4.825584581303028"><ele>518.4</ele><time>2026-04-23T15:29:16Z</time></trkpt><trkpt lat="36.87929601328835" lon="-4.825651395964583"><ele>517.8</ele><time>2026-04-23T15:29:17Z</time></trkpt><trkpt lat="36.87935277652149" lon="-4.825752087161411"><ele>517.2</ele><time>2026-04-23T15:29:18Z</time></trkpt><trkpt lat="36.879362148931946" lon="-4.825865528420296"><ele>516.6</ele><time>2026-04-23T15:29:19Z</time></trkpt><trkpt lat="36.87936951632734" lon="-4.825969546781794"><ele>516.0</ele><time>2026-04-23T15:29:20Z</time></trkpt><trkpt lat="36.8794103667715" lon="-4.826056974066541"><ele>516.0</ele><time>2026-04-23T15:29:21Z</time></trkpt><trkpt lat="36.87946969598114" lon="-4.826148301315565"><ele>516.0</ele><time>2026-04-23T15:29:22Z</time></trkpt><trkpt lat="36.879519860214714" lon="-4.826242481773889"><ele>516.0</ele><time>2026-04-23T15:29:23Z</time></trkpt><trkpt lat="36.87952512917091" lon="-4.826348916592217"><ele>516.0</ele><time>2026-04-23T15:29:24Z</time></trkpt><trkpt lat="36.879510618839845" lon="-4.82646227923511"><ele>516.0</ele><time>2026-04-23T15:29:25Z</time></trkpt><trkpt lat="36.87949589481513" lon="-4.826571362136269"><ele>515.9999999999999</ele><time>2026-04-23T15:29:26Z</time></trkpt><trkpt lat="36.87948879888588" lon="-4.826672957341991"><ele>516.0</ele><time>2026-04-23T15:29:27Z</time></trkpt><trkpt lat="36.8794858069159" lon="-4.826770925314398"><ele>516.0</ele><time>2026-04-23T15:29:28Z</time></trkpt><trkpt lat="36.87949786839696" lon="-4.826861322370754"><ele>516.0</ele><time>2026-04-23T15:29:29Z</time></trkpt><trkpt lat="36.879534694740336" lon="-4.826930798954"><ele>516.0</ele><time>2026-04-23T15:29:30Z</time></trkpt><trkpt lat="36.87959541483084" lon="-4.826975159921606"><ele>515.9999999999999</ele><time>2026-04-23T15:29:31Z</time></trkpt><trkpt lat="36.8796728363953" lon="-4.826978914864433"><ele>516.0</ele><time>2026-04-23T15:29:32Z</time></trkpt><trkpt lat="36.87975696864663" lon="-4.826921727970235"><ele>512.2</ele><time>2026-04-23T15:29:33Z</time></trkpt><trkpt lat="36.87985458220826" lon="-4.826901606515518"><ele>508.40000000000003</ele><time>2026-04-23T15:29:34Z</time></trkpt><trkpt lat="36.87994649759894" lon="-4.82686955545122"><ele>504.6</ele><time>2026-04-23T15:29:35Z</time></trkpt><trkpt lat="36.88004232073705" lon="-4.826847738465695"><ele>500.8</ele><time>2026-04-23T15:29:36Z</time></trkpt><trkpt lat="36.880143242593405" lon="-4.826852555758397"><ele>497.0</ele><time>2026-04-23T15:29:37Z</time></trkpt><trkpt lat="36.880245281608246" lon="-4.8268913925159955"><ele>497.0</ele><time>2026-04-23T15:29:38Z</time></trkpt><trkpt lat="36.88035097901422" lon="-4.826967144947717"><ele>497.0</ele><time>2026-04-23T15:29:39Z</time></trkpt><trkpt lat="36.88045329367772" lon="-4.827039703634058"><ele>497.0</ele><time>2026-04-23T15:29:40Z</time></trkpt><trkpt lat="36.88056259720144" lon="-4.827079098727703"><ele>497.0</ele><time>2026-04-23T15:29:41Z</time></trkpt><trkpt lat="36.880669462539124" lon="-4.827107028553758"><ele>497.0</ele><time>2026-04-23T15:29:42Z</time></trkpt><trkpt lat="36.88076471733286" lon="-4.827157635415178"><ele>497.00000000000006</ele><time>2026-04-23T15:29:43Z</time></trkpt><trkpt lat="36.88083850913775" lon="-4.827240860357848"><ele>497.00000000000006</ele><time>2026-04-23T15:29:44Z</time></trkpt><trkpt lat="36.880903547085694" lon="-4.827354251457581"><ele>497.0</ele><time>2026-04-23T15:29:45Z</time></trkpt><trkpt lat="36.88095982108619" lon="-4.82747116718374"><ele>497.0</ele><time>2026-04-23T15:29:46Z</time></trkpt><trkpt lat="36.88100628950592" lon="-4.8275863051876415"><ele>497.6</ele><time>2026-04-23T15:29:47Z</time></trkpt><trkpt lat="36.88103104127108" lon="-4.827705448727633"><ele>498.20000000000005</ele><time>2026-04-23T15:29:48Z</time></trkpt><trkpt lat="36.88102640793848" lon="-4.827828813078569"><ele>498.8</ele><time>2026-04-23T15:29:49Z</time></trkpt><trkpt lat="36.88100173754938" lon="-4.8279758737163565"><ele>499.4</ele><time>2026-04-23T15:29:50Z</time></trkpt><trkpt lat="36.88098557674286" lon="-4.828125196086018"><ele>500.0</ele><time>2026-04-23T15:29:51Z</time></trkpt><trkpt lat="36.88098200388151" lon="-4.828255139451774"><ele>499.99999999999994</ele><time>2026-04-23T15:29:52Z</time></trkpt><trkpt lat="36.88098541076859" lon="-4.828361713630391"><ele>500.0</ele><time>2026-04-23T15:29:52.999Z</time></trkpt><trkpt lat="36.881011569477174" lon="-4.828440531972666"><ele>500.0</ele><time>2026-04-23T15:29:53.999Z</time></trkpt><trkpt lat="36.88107258621956" lon="-4.828490689524056"><ele>500.0</ele><time>2026-04-23T15:29:54.999Z</time></trkpt><trkpt lat="36.88115964797896" lon="-4.828508130755999"><ele>499.99999999999994</ele><time>2026-04-23T15:29:55.999Z</time></trkpt><trkpt lat="36.881262558869" lon="-4.8284737762185115"><ele>500.0</ele><time>2026-04-23T15:29:56.999Z</time></trkpt><trkpt lat="36.88137775116414" lon="-4.828477037587519"><ele>500.0</ele><time>2026-04-23T15:29:57.999Z</time></trkpt><trkpt lat="36.881491562767515" lon="-4.828451450950286"><ele>500.0</ele><time>2026-04-23T15:29:58.999Z</time></trkpt><trkpt lat="36.881598862808396" lon="-4.828415632697577"><ele>500.0</ele><time>2026-04-23T15:29:59.999Z</time></trkpt><trkpt lat="36.88168969905011" lon="-4.828381756594559"><ele>500.0</ele><time>2026-04-23T15:30:00.999Z</time></trkpt><trkpt lat="36.88175809183043" lon="-4.828376276738219"><ele>500.0</ele><time>2026-04-23T15:30:01.999Z</time></trkpt><trkpt lat="36.88187213131811" lon="-4.828457026853465"><ele>497.8</ele><time>2026-04-23T15:30:03.999Z</time></trkpt><trkpt lat="36.881863821012985" lon="-4.828579154688153"><ele>495.6</ele><time>2026-04-23T15:30:04.999Z</time></trkpt><trkpt lat="36.88184696378711" lon="-4.82869667780318"><ele>493.4</ele><time>2026-04-23T15:30:05.999Z</time></trkpt><trkpt lat="36.88182518960803" lon="-4.828818532322036"><ele>491.2</ele><time>2026-04-23T15:30:06.999Z</time></trkpt><trkpt lat="36.88180388336839" lon="-4.828949595337026"><ele>489.0</ele><time>2026-04-23T15:30:07.999Z</time></trkpt><trkpt lat="36.88178175453693" lon="-4.829078528771032"><ele>489.0</ele><time>2026-04-23T15:30:08.999Z</time></trkpt><trkpt lat="36.88174961133324" lon="-4.829213641215878"><ele>489.0</ele><time>2026-04-23T15:30:09.999Z</time></trkpt><trkpt lat="36.88172497405384" lon="-4.829355244881613"><ele>489.0</ele><time>2026-04-23T15:30:10.999Z</time></trkpt><trkpt lat="36.881733610807345" lon="-4.829504696318886"><ele>489.0</ele><time>2026-04-23T15:30:11.999Z</time></trkpt><trkpt lat="36.88175315567756" lon="-4.829651281061402"><ele>489.0</ele><time>2026-04-23T15:30:12.999Z</time></trkpt><trkpt lat="36.881763353730044" lon="-4.829773270820992"><ele>489.0</ele><time>2026-04-23T15:30:13.999Z</time></trkpt><trkpt lat="36.88179432516002" lon="-4.82987259840169"><ele>489.0</ele><time>2026-04-23T15:30:14.999Z</time></trkpt><trkpt lat="36.88186467927266" lon="-4.829968349628255"><ele>489.0</ele><time>2026-04-23T15:30:15.999Z</time></trkpt><trkpt lat="36.88192101894748" lon="-4.830080928944692"><ele>489.0</ele><time>2026-04-23T15:30:16.999Z</time></trkpt><trkpt lat="36.88192404296273" lon="-4.830205680237628"><ele>486.4</ele><time>2026-04-23T15:30:17.999Z</time></trkpt><trkpt lat="36.88188278819227" lon="-4.830338057168383"><ele>483.79999999999995</ele><time>2026-04-23T15:30:18.999Z</time></trkpt><trkpt lat="36.881846561359325" lon="-4.830437167411599"><ele>481.20000000000005</ele><time>2026-04-23T15:30:19.999Z</time></trkpt><trkpt lat="36.88184118934684" lon="-4.830534964977756"><ele>478.6</ele><time>2026-04-23T15:30:20.999Z</time></trkpt><trkpt lat="36.88187679572058" lon="-4.830628439667785"><ele>476.0</ele><time>2026-04-23T15:30:21.999Z</time></trkpt><trkpt lat="36.881902884884354" lon="-4.830735277931474"><ele>476.0</ele><time>2026-04-23T15:30:22.999Z</time></trkpt><trkpt lat="36.88190709566741" lon="-4.830868384150483"><ele>476.0</ele><time>2026-04-23T15:30:23.999Z</time></trkpt><trkpt lat="36.88189428807018" lon="-4.831003502866077"><ele>476.0</ele><time>2026-04-23T15:30:24.999Z</time></trkpt><trkpt lat="36.88187153312793" lon="-4.831144362116751"><ele>476.0</ele><time>2026-04-23T15:30:25.999Z</time></trkpt><trkpt lat="36.881841626030415" lon="-4.831273392157419"><ele>476.0</ele><time>2026-04-23T15:30:26.999Z</time></trkpt><trkpt lat="36.88181576317197" lon="-4.831400709537854"><ele>473.6</ele><time>2026-04-23T15:30:27.999Z</time></trkpt><trkpt lat="36.88180310483956" lon="-4.831523316789475"><ele>471.20000000000005</ele><time>2026-04-23T15:30:28.999Z</time></trkpt><trkpt lat="36.88181836906092" lon="-4.831643962581896"><ele>468.79999999999995</ele><time>2026-04-23T15:30:29.999Z</time></trkpt><trkpt lat="36.88180669407879" lon="-4.8317648358098255"><ele>466.4</ele><time>2026-04-23T15:30:30.999Z</time></trkpt><trkpt lat="36.88181676817788" lon="-4.831887719449648"><ele>464.0</ele><time>2026-04-23T15:30:31.999Z</time></trkpt><trkpt lat="36.8818240516455" lon="-4.832007318117192"><ele>463.2</ele><time>2026-04-23T15:30:32.999Z</time></trkpt><trkpt lat="36.88182084832598" lon="-4.832119459027981"><ele>462.4</ele><time>2026-04-23T15:30:33.999Z</time></trkpt><trkpt lat="36.88181208566995" lon="-4.83223649519912"><ele>461.6</ele><time>2026-04-23T15:30:34.999Z</time></trkpt><trkpt lat="36.881804144552746" lon="-4.832351930363864"><ele>460.8</ele><time>2026-04-23T15:30:35.999Z</time></trkpt><trkpt lat="36.881796697358524" lon="-4.832470811391901"><ele>460.0</ele><time>2026-04-23T15:30:36.999Z</time></trkpt><trkpt lat="36.881817920741156" lon="-4.832595237347414"><ele>462.0</ele><time>2026-04-23T15:30:37.999Z</time></trkpt><trkpt lat="36.88184831032767" lon="-4.8327203010136355"><ele>464.0</ele><time>2026-04-23T15:30:38.999Z</time></trkpt><trkpt lat="36.88188280957661" lon="-4.832832493921463"><ele>466.0</ele><time>2026-04-23T15:30:39.999Z</time></trkpt><trkpt lat="36.881898265069715" lon="-4.832925698041719"><ele>468.0</ele><time>2026-04-23T15:30:40.999Z</time></trkpt><trkpt lat="36.88186049269509" lon="-4.833080561108977"><ele>470.0</ele><time>2026-04-23T15:30:42.999Z</time></trkpt><trkpt lat="36.88182577648673" lon="-4.833153421833883"><ele>469.99999999999994</ele><time>2026-04-23T15:30:43.999Z</time></trkpt><trkpt lat="36.881803882058456" lon="-4.833235634153274"><ele>470.0</ele><time>2026-04-23T15:30:44.999Z</time></trkpt><trkpt lat="36.881798631331215" lon="-4.833321550141199"><ele>470.0</ele><time>2026-04-23T15:30:45.999Z</time></trkpt><trkpt lat="36.88181187896731" lon="-4.833409339788207"><ele>470.0</ele><time>2026-04-23T15:30:46.999Z</time></trkpt><trkpt lat="36.88183969868064" lon="-4.833504400235899"><ele>469.99999999999994</ele><time>2026-04-23T15:30:47.999Z</time></trkpt><trkpt lat="36.881879575888995" lon="-4.833603108948075"><ele>470.0</ele><time>2026-04-23T15:30:48.999Z</time></trkpt><trkpt lat="36.88191523446562" lon="-4.833705038090948"><ele>469.8</ele><time>2026-04-23T15:30:49.999Z</time></trkpt><trkpt lat="36.88193722362015" lon="-4.833823263052764"><ele>469.6</ele><time>2026-04-23T15:30:50.999Z</time></trkpt><trkpt lat="36.88195014524139" lon="-4.833953957687719"><ele>469.4</ele><time>2026-04-23T15:30:51.999Z</time></trkpt><trkpt lat="36.88196091597365" lon="-4.834087489697305"><ele>469.2</ele><time>2026-04-23T15:30:52.999Z</time></trkpt><trkpt lat="36.881973769785304" lon="-4.834216586659316"><ele>469.0</ele><time>2026-04-23T15:30:53.999Z</time></trkpt><trkpt lat="36.88198699406146" lon="-4.834336614816806"><ele>467.1666666666667</ele><time>2026-04-23T15:30:54.999Z</time></trkpt><trkpt lat="36.88200133624647" lon="-4.8344489969290905"><ele>465.33333333333337</ele><time>2026-04-23T15:30:55.999Z</time></trkpt><trkpt lat="36.88202468779" lon="-4.834557422599921"><ele>463.5</ele><time>2026-04-23T15:30:56.999Z</time></trkpt><trkpt lat="36.882056278605205" lon="-4.834654314833142"><ele>461.66666666666663</ele><time>2026-04-23T15:30:57.999Z</time></trkpt><trkpt lat="36.882106915229336" lon="-4.83472857592447"><ele>459.8333333333333</ele><time>2026-04-23T15:30:58.999Z</time></trkpt><trkpt lat="36.882153907945465" lon="-4.834832761383906"><ele>458.0</ele><time>2026-04-23T15:31:00.999Z</time></trkpt><trkpt lat="36.882049869154166" lon="-4.834912014625033"><ele>457.99999999999994</ele><time>2026-04-23T15:31:02.999Z</time></trkpt><trkpt lat="36.88195929202715" lon="-4.83486471761799"><ele>458.0</ele><time>2026-04-23T15:31:03.999Z</time></trkpt><trkpt lat="36.881872114168374" lon="-4.834843585388359"><ele>458.0</ele><time>2026-04-23T15:31:04.999Z</time></trkpt><trkpt lat="36.881791439289444" lon="-4.834843642132467"><ele>458.0</ele><time>2026-04-23T15:31:05.999Z</time></trkpt><trkpt lat="36.88171957917166" lon="-4.83490291335376"><ele>457.99999999999994</ele><time>2026-04-23T15:31:06.999Z</time></trkpt><trkpt lat="36.88163638550663" lon="-4.8349322395606045"><ele>458.0</ele><time>2026-04-23T15:31:07.999Z</time></trkpt><trkpt lat="36.88156815903623" lon="-4.835018370433732"><ele>456.4</ele><time>2026-04-23T15:31:08.999Z</time></trkpt><trkpt lat="36.881512931924334" lon="-4.835106353647792"><ele>454.79999999999995</ele><time>2026-04-23T15:31:09.999Z</time></trkpt><trkpt lat="36.88145458086413" lon="-4.835213770791533"><ele>453.2</ele><time>2026-04-23T15:31:10.999Z</time></trkpt><trkpt lat="36.88139539218713" lon="-4.835330202310723"><ele>451.6</ele><time>2026-04-23T15:31:11.999Z</time></trkpt><trkpt lat="36.881343461997744" lon="-4.835443348263395"><ele>450.0</ele><time>2026-04-23T15:31:12.999Z</time></trkpt><trkpt lat="36.88129295365276" lon="-4.8355666795583785"><ele>449.75</ele><time>2026-04-23T15:31:13.999Z</time></trkpt><trkpt lat="36.88123905428256" lon="-4.835687826587821"><ele>449.5</ele><time>2026-04-23T15:31:14.999Z</time></trkpt><trkpt lat="36.88118451414987" lon="-4.835812075870414"><ele>449.25</ele><time>2026-04-23T15:31:15.999Z</time></trkpt><trkpt lat="36.88112422778106" lon="-4.835937634378314"><ele>449.0</ele><time>2026-04-23T15:31:16.999Z</time></trkpt><trkpt lat="36.88105129372378" lon="-4.836069373901093"><ele>450.79999999999995</ele><time>2026-04-23T15:31:17.999Z</time></trkpt><trkpt lat="36.88098867802945" lon="-4.836181366548812"><ele>452.59999999999997</ele><time>2026-04-23T15:31:18.999Z</time></trkpt><trkpt lat="36.880937041273285" lon="-4.836284324686764"><ele>454.4</ele><time>2026-04-23T15:31:19.999Z</time></trkpt><trkpt lat="36.880884669000174" lon="-4.83637800386883"><ele>456.2</ele><time>2026-04-23T15:31:20.999Z</time></trkpt><trkpt lat="36.88082407471677" lon="-4.8364531796687595"><ele>458.0</ele><time>2026-04-23T15:31:21.999Z</time></trkpt><trkpt lat="36.88075307970596" lon="-4.836519841174622"><ele>453.99999999999994</ele><time>2026-04-23T15:31:22.999Z</time></trkpt><trkpt lat="36.88067829062826" lon="-4.83658086328779"><ele>450.0</ele><time>2026-04-23T15:31:23.999Z</time></trkpt><trkpt lat="36.8806059948818" lon="-4.836637699360805"><ele>446.0</ele><time>2026-04-23T15:31:24.999Z</time></trkpt><trkpt lat="36.880538653226886" lon="-4.836689362569497"><ele>442.0</ele><time>2026-04-23T15:31:25.999Z</time></trkpt><trkpt lat="36.88047080392182" lon="-4.836740325526154"><ele>437.99999999999994</ele><time>2026-04-23T15:31:26.999Z</time></trkpt><trkpt lat="36.88041639565894" lon="-4.836799477340324"><ele>434.0</ele><time>2026-04-23T15:31:27.999Z</time></trkpt><trkpt lat="36.88039170733602" lon="-4.836882545040087"><ele>433.3333333333333</ele><time>2026-04-23T15:31:28.999Z</time></trkpt><trkpt lat="36.880396338370865" lon="-4.836985777219688"><ele>432.66666666666663</ele><time>2026-04-23T15:31:29.999Z</time></trkpt><trkpt lat="36.880428555052916" lon="-4.837093511955999"><ele>432.0</ele><time>2026-04-23T15:31:30.999Z</time></trkpt><trkpt lat="36.88043768223894" lon="-4.8372141983710035"><ele>431.33333333333337</ele><time>2026-04-23T15:31:31.999Z</time></trkpt><trkpt lat="36.88042452281702" lon="-4.837324724695776"><ele>430.6666666666667</ele><time>2026-04-23T15:31:32.999Z</time></trkpt><trkpt lat="36.880403432637955" lon="-4.837417179200767"><ele>430.0</ele><time>2026-04-23T15:31:33.999Z</time></trkpt><trkpt lat="36.88038239324189" lon="-4.837521901861768"><ele>430.0</ele><time>2026-04-23T15:31:34.999Z</time></trkpt><trkpt lat="36.880360533712974" lon="-4.837634183363034"><ele>430.0</ele><time>2026-04-23T15:31:35.999Z</time></trkpt><trkpt lat="36.88033012862946" lon="-4.837743764270166"><ele>430.0</ele><time>2026-04-23T15:31:36.999Z</time></trkpt><trkpt lat="36.880292903677315" lon="-4.837840027050336"><ele>430.0</ele><time>2026-04-23T15:31:37.999Z</time></trkpt><trkpt lat="36.880252238413156" lon="-4.837916864267714"><ele>430.0</ele><time>2026-04-23T15:31:39Z</time></trkpt><trkpt lat="36.880153278604745" lon="-4.8380004008910875"><ele>426.50000000000006</ele><time>2026-04-23T15:31:41Z</time></trkpt><trkpt lat="36.88007792095226" lon="-4.837987352963784"><ele>423.0</ele><time>2026-04-23T15:31:42Z</time></trkpt><trkpt lat="36.88001156860839" lon="-4.837890702015682"><ele>419.5</ele><time>2026-04-23T15:31:43Z</time></trkpt><trkpt lat="36.879957900364936" lon="-4.837820846415598"><ele>416.0</ele><time>2026-04-23T15:31:44Z</time></trkpt><trkpt lat="36.879889675120175" lon="-4.837735494947901"><ele>412.50000000000006</ele><time>2026-04-23T15:31:45Z</time></trkpt><trkpt lat="36.87983107013719" lon="-4.837651563056859"><ele>409.0</ele><time>2026-04-23T15:31:46Z</time></trkpt><trkpt lat="36.879782726136916" lon="-4.837569004817159"><ele>409.00000000000006</ele><time>2026-04-23T15:31:47Z</time></trkpt><trkpt lat="36.879745586664335" lon="-4.8374746697167135"><ele>409.0</ele><time>2026-04-23T15:31:48Z</time></trkpt><trkpt lat="36.87973274562727" lon="-4.8373594063247785"><ele>409.0</ele><time>2026-04-23T15:31:49Z</time></trkpt><trkpt lat="36.87974516653129" lon="-4.837245245278144"><ele>409.0</ele><time>2026-04-23T15:31:50Z</time></trkpt><trkpt lat="36.87975506737274" lon="-4.837147714007141"><ele>409.00000000000006</ele><time>2026-04-23T15:31:51Z</time></trkpt><trkpt lat="36.87976969308767" lon="-4.8370260673417285"><ele>409.0</ele><time>2026-04-23T15:31:53Z</time></trkpt><trkpt lat="36.87974001691418" lon="-4.837134015643679"><ele>409.0</ele><time>2026-04-23T15:35:34Z</time></trkpt><trkpt lat="36.87972690949174" lon="-4.837260561966869"><ele>409.0</ele><time>2026-04-23T15:35:36Z</time></trkpt><trkpt lat="36.87955728774602" lon="-4.837403408897575"><ele>409.0</ele><time>2026-04-23T15:35:38Z</time></trkpt><trkpt lat="36.87953846571692" lon="-4.837502913145288"><ele>409.0</ele><time>2026-04-23T15:35:40Z</time></trkpt><trkpt lat="36.87952366379952" lon="-4.83760599851099"><ele>408.33333333333337</ele><time>2026-04-23T15:35:42Z</time></trkpt><trkpt lat="36.87950254853492" lon="-4.837716098475348"><ele>407.6666666666667</ele><time>2026-04-23T15:35:44Z</time></trkpt><trkpt lat="36.87948948530552" lon="-4.837802415931603"><ele>407.0</ele><time>2026-04-23T15:35:46Z</time></trkpt><trkpt lat="36.87947567634191" lon="-4.837903464945375"><ele>406.33333333333337</ele><time>2026-04-23T15:35:48Z</time></trkpt><trkpt lat="36.8794651336478" lon="-4.838014058030971"><ele>405.6666666666667</ele><time>2026-04-23T15:35:50Z</time></trkpt><trkpt lat="36.879473002676264" lon="-4.838135601872213"><ele>405.0</ele><time>2026-04-23T15:35:52Z</time></trkpt><trkpt lat="36.87949279754468" lon="-4.838258511070474"><ele>405.0</ele><time>2026-04-23T15:35:54Z</time></trkpt><trkpt lat="36.879527424660765" lon="-4.838373681898317"><ele>405.0</ele><time>2026-04-23T15:35:56Z</time></trkpt><trkpt lat="36.8795764767239" lon="-4.838479968278279"><ele>405.0</ele><time>2026-04-23T15:35:58Z</time></trkpt><trkpt lat="36.87962658229548" lon="-4.838603235028118"><ele>405.0</ele><time>2026-04-23T15:36:00Z</time></trkpt><trkpt lat="36.87963897630641" lon="-4.838681713566843"><ele>405.0</ele><time>2026-04-23T15:36:01Z</time></trkpt><trkpt lat="36.87965907285183" lon="-4.838758401246496"><ele>405.0</ele><time>2026-04-23T15:36:02Z</time></trkpt><trkpt lat="36.87966951644218" lon="-4.83889841823228"><ele>403.2</ele><time>2026-04-23T15:36:04Z</time></trkpt><trkpt lat="36.879689600624246" lon="-4.839000838046895"><ele>401.4</ele><time>2026-04-23T15:36:06Z</time></trkpt><trkpt lat="36.87971586518714" lon="-4.839127618883229"><ele>399.6</ele><time>2026-04-23T15:36:08Z</time></trkpt><trkpt lat="36.87977889841791" lon="-4.839249270561402"><ele>397.8</ele><time>2026-04-23T15:36:10Z</time></trkpt><trkpt lat="36.87988994353827" lon="-4.8393402151514175"><ele>396.0</ele><time>2026-04-23T15:36:12Z</time></trkpt><trkpt lat="36.879951059051464" lon="-4.83937193452615"><ele>395.25</ele><time>2026-04-23T15:36:13Z</time></trkpt><trkpt lat="36.88005358586553" lon="-4.8394270403619215"><ele>394.5</ele><time>2026-04-23T15:36:15Z</time></trkpt><trkpt lat="36.88014112273029" lon="-4.839496811555758"><ele>393.75</ele><time>2026-04-23T15:36:17Z</time></trkpt><trkpt lat="36.8802262047663" lon="-4.839617377845572"><ele>393.0</ele><time>2026-04-23T15:36:19Z</time></trkpt><trkpt lat="36.88027304143786" lon="-4.839740320255315"><ele>393.0</ele><time>2026-04-23T15:36:21Z</time></trkpt><trkpt lat="36.88032076305421" lon="-4.839868763846185"><ele>393.0</ele><time>2026-04-23T15:36:23Z</time></trkpt><trkpt lat="36.88036328713573" lon="-4.839943699333493"><ele>393.0</ele><time>2026-04-23T15:36:24Z</time></trkpt><trkpt lat="36.88041635316812" lon="-4.840018120531192"><ele>393.0</ele><time>2026-04-23T15:36:25Z</time></trkpt><trkpt lat="36.880490055399136" lon="-4.840080068445739"><ele>393.0</ele><time>2026-04-23T15:36:26Z</time></trkpt><trkpt lat="36.88056546020555" lon="-4.840120242846962"><ele>393.0</ele><time>2026-04-23T15:36:27Z</time></trkpt><trkpt lat="36.88063756913827" lon="-4.840155150474871"><ele>391.6666666666667</ele><time>2026-04-23T15:36:28Z</time></trkpt><trkpt lat="36.88069970443014" lon="-4.840190114603837"><ele>390.33333333333337</ele><time>2026-04-23T15:36:29Z</time></trkpt><trkpt lat="36.88075125462809" lon="-4.840260740044022"><ele>389.0</ele><time>2026-04-23T15:36:30Z</time></trkpt><trkpt lat="36.88079933931629" lon="-4.840364385120158"><ele>387.6666666666667</ele><time>2026-04-23T15:36:31Z</time></trkpt><trkpt lat="36.88083494923222" lon="-4.840459832963784"><ele>386.33333333333337</ele><time>2026-04-23T15:36:32Z</time></trkpt><trkpt lat="36.880850628123014" lon="-4.840549437713437"><ele>385.0</ele><time>2026-04-23T15:36:33Z</time></trkpt><trkpt lat="36.8808677630985" lon="-4.840643044135446"><ele>385.00000000000006</ele><time>2026-04-23T15:36:34Z</time></trkpt><trkpt lat="36.88088701691846" lon="-4.840728447451717"><ele>385.0</ele><time>2026-04-23T15:36:35Z</time></trkpt><trkpt lat="36.88089752851981" lon="-4.840813764173087"><ele>385.0</ele><time>2026-04-23T15:36:36Z</time></trkpt><trkpt lat="36.8809047461456" lon="-4.840900135829655"><ele>385.0</ele><time>2026-04-23T15:36:37Z</time></trkpt><trkpt lat="36.88090705592604" lon="-4.840991012568787"><ele>385.00000000000006</ele><time>2026-04-23T15:36:38Z</time></trkpt><trkpt lat="36.8808966300964" lon="-4.841094981432806"><ele>385.0</ele><time>2026-04-23T15:36:39Z</time></trkpt><trkpt lat="36.88087726760449" lon="-4.841205181424812"><ele>384.2</ele><time>2026-04-23T15:36:40Z</time></trkpt><trkpt lat="36.88085950973614" lon="-4.841330094694587"><ele>383.4</ele><time>2026-04-23T15:36:41Z</time></trkpt><trkpt lat="36.880840079739166" lon="-4.841467342746904"><ele>382.6</ele><time>2026-04-23T15:36:42Z</time></trkpt><trkpt lat="36.88082518193534" lon="-4.841605814730848"><ele>381.8</ele><time>2026-04-23T15:36:43Z</time></trkpt><trkpt lat="36.88082381094811" lon="-4.841745279637687"><ele>381.0</ele><time>2026-04-23T15:36:44Z</time></trkpt><trkpt lat="36.88083090975613" lon="-4.841876663151622"><ele>381.6</ele><time>2026-04-23T15:36:45Z</time></trkpt><trkpt lat="36.8808443163564" lon="-4.8420025778934095"><ele>382.20000000000005</ele><time>2026-04-23T15:36:46Z</time></trkpt><trkpt lat="36.88086620044356" lon="-4.8421198601694595"><ele>382.79999999999995</ele><time>2026-04-23T15:36:47Z</time></trkpt><trkpt lat="36.8808968700956" lon="-4.842228164294505"><ele>383.4</ele><time>2026-04-23T15:36:48Z</time></trkpt><trkpt lat="36.880926832154245" lon="-4.842332935350759"><ele>384.0</ele><time>2026-04-23T15:36:49Z</time></trkpt><trkpt lat="36.88096910615762" lon="-4.842431371974541"><ele>384.0</ele><time>2026-04-23T15:36:50Z</time></trkpt><trkpt lat="36.88103350206988" lon="-4.8425366160567584"><ele>384.0</ele><time>2026-04-23T15:36:51Z</time></trkpt><trkpt lat="36.88110249124754" lon="-4.842649285176078"><ele>384.0</ele><time>2026-04-23T15:36:52Z</time></trkpt><trkpt lat="36.88117850397599" lon="-4.842767747261629"><ele>384.0</ele><time>2026-04-23T15:36:53Z</time></trkpt><trkpt lat="36.88125775039498" lon="-4.842888673176859"><ele>382.0</ele><time>2026-04-23T15:36:53.999Z</time></trkpt><trkpt lat="36.88134658126441" lon="-4.843019125153751"><ele>380.0</ele><time>2026-04-23T15:36:54.999Z</time></trkpt><trkpt lat="36.88144147399868" lon="-4.843169621323413"><ele>378.0</ele><time>2026-04-23T15:36:55.999Z</time></trkpt><trkpt lat="36.88154170925221" lon="-4.843333488393608"><ele>376.3333333333333</ele><time>2026-04-23T15:36:56.999Z</time></trkpt><trkpt lat="36.88164357470831" lon="-4.843506509608859"><ele>374.66666666666663</ele><time>2026-04-23T15:36:57.999Z</time></trkpt><trkpt lat="36.88173266453284" lon="-4.843677470872663"><ele>373.0</ele><time>2026-04-23T15:36:58.999Z</time></trkpt><trkpt lat="36.881810674878665" lon="-4.843846074721129"><ele>373.0</ele><time>2026-04-23T15:36:59.999Z</time></trkpt><trkpt lat="36.88188218530397" lon="-4.844012032103352"><ele>373.0</ele><time>2026-04-23T15:37:00.999Z</time></trkpt><trkpt lat="36.881947953152796" lon="-4.844167883026588"><ele>373.0</ele><time>2026-04-23T15:37:01.999Z</time></trkpt><trkpt lat="36.882005572998665" lon="-4.844309633222609"><ele>373.0</ele><time>2026-04-23T15:37:02.999Z</time></trkpt><trkpt lat="36.88205611917191" lon="-4.844428044263399"><ele>372.79999999999995</ele><time>2026-04-23T15:37:03.999Z</time></trkpt><trkpt lat="36.882097131796684" lon="-4.844524139818793"><ele>372.6</ele><time>2026-04-23T15:37:04.999Z</time></trkpt><trkpt lat="36.88212716939811" lon="-4.84459343634994"><ele>372.4</ele><time>2026-04-23T15:37:05.999Z</time></trkpt><trkpt lat="36.882188377365324" lon="-4.844677004880827"><ele>372.20000000000005</ele><time>2026-04-23T15:37:07.999Z</time></trkpt><trkpt lat="36.882230844978444" lon="-4.844794624358435"><ele>372.0</ele><time>2026-04-23T15:37:09.999Z</time></trkpt><trkpt lat="36.88215460994934" lon="-4.844888009569101"><ele>372.0</ele><time>2026-04-23T15:37:11.999Z</time></trkpt><trkpt lat="36.88203867333255" lon="-4.84486385861229"><ele>372.0</ele><time>2026-04-23T15:37:12.999Z</time></trkpt><trkpt lat="36.88192055925186" lon="-4.844899965980868"><ele>372.0</ele><time>2026-04-23T15:37:13.999Z</time></trkpt><trkpt lat="36.88178307454706" lon="-4.844972061239654"><ele>372.0</ele><time>2026-04-23T15:37:14.999Z</time></trkpt><trkpt lat="36.88163098395956" lon="-4.845052367296995"><ele>369.3333333333333</ele><time>2026-04-23T15:37:15.999Z</time></trkpt><trkpt lat="36.881452238846485" lon="-4.8451441619432964"><ele>366.66666666666663</ele><time>2026-04-23T15:37:16.999Z</time></trkpt><trkpt lat="36.881276029634954" lon="-4.845238187912551"><ele>364.0</ele><time>2026-04-23T15:37:17.999Z</time></trkpt><trkpt lat="36.881122557678765" lon="-4.845319120149043"><ele>364.0</ele><time>2026-04-23T15:37:18.999Z</time></trkpt><trkpt lat="36.881007765906986" lon="-4.8453797091552575"><ele>364.0</ele><time>2026-04-23T15:37:19.999Z</time></trkpt><trkpt lat="36.88087223542348" lon="-4.84544105544642"><ele>364.0</ele><time>2026-04-23T15:37:20.999Z</time></trkpt><trkpt lat="36.880773908799455" lon="-4.845488243601463"><ele>364.0</ele><time>2026-04-23T15:37:21.999Z</time></trkpt><trkpt lat="36.88069324301431" lon="-4.845540832776695"><ele>365.66666666666663</ele><time>2026-04-23T15:37:22.999Z</time></trkpt><trkpt lat="36.88061803508987" lon="-4.845557024773967"><ele>367.3333333333333</ele><time>2026-04-23T15:37:23.999Z</time></trkpt><trkpt lat="36.88055291562574" lon="-4.845560527949143"><ele>369.0</ele><time>2026-04-23T15:37:24.999Z</time></trkpt><trkpt lat="36.88048065032976" lon="-4.8455619596928186"><ele>370.6666666666667</ele><time>2026-04-23T15:37:25.999Z</time></trkpt><trkpt lat="36.880390439266684" lon="-4.845547732139028"><ele>372.33333333333337</ele><time>2026-04-23T15:37:26.999Z</time></trkpt><trkpt lat="36.8802730600048" lon="-4.845525608451786"><ele>374.0</ele><time>2026-04-23T15:37:27.999Z</time></trkpt><trkpt lat="36.88013169901818" lon="-4.845517982028204"><ele>376.5</ele><time>2026-04-23T15:37:28.999Z</time></trkpt><trkpt lat="36.87998376958203" lon="-4.845532176403162"><ele>379.0</ele><time>2026-04-23T15:37:29.999Z</time></trkpt><trkpt lat="36.8798344701" lon="-4.845505804531951"><ele>381.5</ele><time>2026-04-23T15:37:30.999Z</time></trkpt><trkpt lat="36.87971453822607" lon="-4.845471875212887"><ele>384.0</ele><time>2026-04-23T15:37:31.999Z</time></trkpt><trkpt lat="36.879635037899696" lon="-4.8454467687930105"><ele>384.0</ele><time>2026-04-23T15:37:33Z</time></trkpt><trkpt lat="36.879572387366295" lon="-4.8454330335849995"><ele>384.0</ele><time>2026-04-23T15:37:34Z</time></trkpt><trkpt lat="36.87948931877831" lon="-4.845447160872572"><ele>384.0</ele><time>2026-04-23T15:37:36Z</time></trkpt><trkpt lat="36.8794535839404" lon="-4.845644555491291"><ele>384.0</ele><time>2026-04-23T15:37:39Z</time></trkpt><trkpt lat="36.87945163681042" lon="-4.845730838409143"><ele>384.0</ele><time>2026-04-23T15:37:41Z</time></trkpt><trkpt lat="36.87942199036544" lon="-4.845824588845892"><ele>384.0</ele><time>2026-04-23T15:37:43Z</time></trkpt><trkpt lat="36.87941826262952" lon="-4.845953224487189"><ele>384.0</ele><time>2026-04-23T15:37:45Z</time></trkpt><trkpt lat="36.879405813032115" lon="-4.846077653956979"><ele>384.0</ele><time>2026-04-23T15:37:47Z</time></trkpt><trkpt lat="36.87940206042992" lon="-4.846205390188771"><ele>384.0</ele><time>2026-04-23T15:37:49Z</time></trkpt><trkpt lat="36.87945870524544" lon="-4.846291022645968"><ele>384.0</ele><time>2026-04-23T15:37:51Z</time></trkpt><trkpt lat="36.87949446851984" lon="-4.846378387778662"><ele>389.0</ele><time>2026-04-23T15:37:54Z</time></trkpt><trkpt lat="36.87956852777315" lon="-4.846386249044966"><ele>389.0</ele><time>2026-04-23T15:38:23Z</time></trkpt><trkpt lat="36.879633139269586" lon="-4.846419931593427"><ele>389.0</ele><time>2026-04-23T15:38:40Z</time></trkpt><trkpt lat="36.879707220836686" lon="-4.846463551580446"><ele>389.0</ele><time>2026-04-23T15:38:47Z</time></trkpt><trkpt lat="36.879764437909984" lon="-4.84649663462946"><ele>389.0</ele><time>2026-04-23T15:38:50Z</time></trkpt><trkpt lat="36.8798277600187" lon="-4.8465163471282935"><ele>389.0</ele><time>2026-04-23T15:39:05Z</time></trkpt></trkseg></trk></gpx>